<?xml version="1.0" encoding="UTF-8"?><gpx xmlns="http://www.topografix.com/GPX/1/1" version="1.1" creator="iOrient"><trk><name>GreatWalk. Извилистая река</name><trkseg><trkpt lat="55.9164277" lon="49.1734896"><time>2023-06-03T04:41:47.950</time></trkpt><trkpt lat="55.9164306" lon="49.1734852"><time>2023-06-03T04:41:48.857</time></trkpt><trkpt lat="55.9164792" lon="49.1734731"><time>2023-06-03T04:41:55.867</time></trkpt><trkpt lat="55.9164305" lon="49.1734981"><time>2023-06-03T04:42:17.903</time></trkpt><trkpt lat="55.9163567" lon="49.1734624"><time>2023-06-03T04:42:19.883</time></trkpt><trkpt lat="55.9163166" lon="49.1734192"><time>2023-06-03T04:42:20.867</time></trkpt><trkpt lat="55.9162810" lon="49.1733682"><time>2023-06-03T04:42:21.880</time></trkpt><trkpt lat="55.9162143" lon="49.1732571"><time>2023-06-03T04:42:23.857</time></trkpt><trkpt lat="55.9161770" lon="49.1731925"><time>2023-06-03T04:42:24.877</time></trkpt><trkpt lat="55.9161428" lon="49.1731207"><time>2023-06-03T04:42:25.887</time></trkpt><trkpt lat="55.9161161" lon="49.1730481"><time>2023-06-03T04:42:26.873</time></trkpt><trkpt lat="55.9160924" lon="49.1729739"><time>2023-06-03T04:42:27.897</time></trkpt><trkpt lat="55.9160698" lon="49.1729046"><time>2023-06-03T04:42:28.880</time></trkpt><trkpt lat="55.9160247" lon="49.1727772"><time>2023-06-03T04:42:30.870</time></trkpt><trkpt lat="55.9159744" lon="49.1726462"><time>2023-06-03T04:42:32.880</time></trkpt><trkpt lat="55.9159287" lon="49.1725294"><time>2023-06-03T04:42:34.877</time></trkpt><trkpt lat="55.9158754" lon="49.1724454"><time>2023-06-03T04:42:36.873</time></trkpt><trkpt lat="55.9157967" lon="49.1723363"><time>2023-06-03T04:42:38.897</time></trkpt><trkpt lat="55.9157682" lon="49.1722642"><time>2023-06-03T04:42:39.890</time></trkpt><trkpt lat="55.9157448" lon="49.1721954"><time>2023-06-03T04:42:40.873</time></trkpt><trkpt lat="55.9157135" lon="49.1721273"><time>2023-06-03T04:42:41.907</time></trkpt><trkpt lat="55.9156866" lon="49.1720624"><time>2023-06-03T04:42:42.880</time></trkpt><trkpt lat="55.9156483" lon="49.1719911"><time>2023-06-03T04:42:43.890</time></trkpt><trkpt lat="55.9156243" lon="49.1719007"><time>2023-06-03T04:42:44.880</time></trkpt><trkpt lat="55.9155896" lon="49.1717997"><time>2023-06-03T04:42:45.880</time></trkpt><trkpt lat="55.9155500" lon="49.1717264"><time>2023-06-03T04:42:46.867</time></trkpt><trkpt lat="55.9155152" lon="49.1716544"><time>2023-06-03T04:42:47.890</time></trkpt><trkpt lat="55.9154782" lon="49.1715651"><time>2023-06-03T04:42:48.877</time></trkpt><trkpt lat="55.9154443" lon="49.1714960"><time>2023-06-03T04:42:49.880</time></trkpt><trkpt lat="55.9154115" lon="49.1714057"><time>2023-06-03T04:42:50.877</time></trkpt><trkpt lat="55.9153573" lon="49.1713603"><time>2023-06-03T04:42:51.880</time></trkpt><trkpt lat="55.9153037" lon="49.1713000"><time>2023-06-03T04:42:52.877</time></trkpt><trkpt lat="55.9152653" lon="49.1712190"><time>2023-06-03T04:42:53.910</time></trkpt><trkpt lat="55.9152242" lon="49.1711681"><time>2023-06-03T04:42:54.877</time></trkpt><trkpt lat="55.9151884" lon="49.1710896"><time>2023-06-03T04:42:55.917</time></trkpt><trkpt lat="55.9151454" lon="49.1710201"><time>2023-06-03T04:42:56.867</time></trkpt><trkpt lat="55.9150662" lon="49.1709317"><time>2023-06-03T04:42:58.877</time></trkpt><trkpt lat="55.9150184" lon="49.1708572"><time>2023-06-03T04:42:59.877</time></trkpt><trkpt lat="55.9149763" lon="49.1708023"><time>2023-06-03T04:43:00.880</time></trkpt><trkpt lat="55.9149388" lon="49.1707311"><time>2023-06-03T04:43:01.877</time></trkpt><trkpt lat="55.9149008" lon="49.1706258"><time>2023-06-03T04:43:02.867</time></trkpt><trkpt lat="55.9148581" lon="49.1705414"><time>2023-06-03T04:43:03.880</time></trkpt><trkpt lat="55.9148137" lon="49.1703958"><time>2023-06-03T04:43:05.893</time></trkpt><trkpt lat="55.9147893" lon="49.1703023"><time>2023-06-03T04:43:06.877</time></trkpt><trkpt lat="55.9147600" lon="49.1702404"><time>2023-06-03T04:43:07.880</time></trkpt><trkpt lat="55.9147483" lon="49.1701456"><time>2023-06-03T04:43:08.880</time></trkpt><trkpt lat="55.9147282" lon="49.1700541"><time>2023-06-03T04:43:09.883</time></trkpt><trkpt lat="55.9147191" lon="49.1699602"><time>2023-06-03T04:43:10.897</time></trkpt><trkpt lat="55.9147111" lon="49.1698566"><time>2023-06-03T04:43:11.897</time></trkpt><trkpt lat="55.9147034" lon="49.1697714"><time>2023-06-03T04:43:12.877</time></trkpt><trkpt lat="55.9147043" lon="49.1696808"><time>2023-06-03T04:43:13.887</time></trkpt><trkpt lat="55.9146990" lon="49.1695876"><time>2023-06-03T04:43:14.880</time></trkpt><trkpt lat="55.9146933" lon="49.1695040"><time>2023-06-03T04:43:15.873</time></trkpt><trkpt lat="55.9146921" lon="49.1694151"><time>2023-06-03T04:43:16.947</time></trkpt><trkpt lat="55.9147141" lon="49.1692927"><time>2023-06-03T04:43:17.883</time></trkpt><trkpt lat="55.9147256" lon="49.1691865"><time>2023-06-03T04:43:18.873</time></trkpt><trkpt lat="55.9147395" lon="49.1690678"><time>2023-06-03T04:43:19.873</time></trkpt><trkpt lat="55.9147393" lon="49.1689759"><time>2023-06-03T04:43:20.893</time></trkpt><trkpt lat="55.9147129" lon="49.1688698"><time>2023-06-03T04:43:21.877</time></trkpt><trkpt lat="55.9146899" lon="49.1687622"><time>2023-06-03T04:43:22.920</time></trkpt><trkpt lat="55.9146563" lon="49.1686866"><time>2023-06-03T04:43:23.877</time></trkpt><trkpt lat="55.9146229" lon="49.1686128"><time>2023-06-03T04:43:24.877</time></trkpt><trkpt lat="55.9146061" lon="49.1685087"><time>2023-06-03T04:43:25.873</time></trkpt><trkpt lat="55.9145858" lon="49.1684136"><time>2023-06-03T04:43:26.877</time></trkpt><trkpt lat="55.9145426" lon="49.1683299"><time>2023-06-03T04:43:27.880</time></trkpt><trkpt lat="55.9145056" lon="49.1682677"><time>2023-06-03T04:43:28.883</time></trkpt><trkpt lat="55.9144531" lon="49.1682209"><time>2023-06-03T04:43:29.887</time></trkpt><trkpt lat="55.9144082" lon="49.1681817"><time>2023-06-03T04:43:30.883</time></trkpt><trkpt lat="55.9143389" lon="49.1680747"><time>2023-06-03T04:43:32.873</time></trkpt><trkpt lat="55.9142888" lon="49.1680203"><time>2023-06-03T04:43:33.890</time></trkpt><trkpt lat="55.9142516" lon="49.1679078"><time>2023-06-03T04:43:35.880</time></trkpt><trkpt lat="55.9142788" lon="49.1678140"><time>2023-06-03T04:43:37.887</time></trkpt><trkpt lat="55.9143107" lon="49.1677548"><time>2023-06-03T04:44:02.873</time></trkpt><trkpt lat="55.9143558" lon="49.1677586"><time>2023-06-03T04:44:06.873</time></trkpt><trkpt lat="55.9144029" lon="49.1677864"><time>2023-06-03T04:44:10.877</time></trkpt><trkpt lat="55.9144510" lon="49.1677919"><time>2023-06-03T04:44:15.930</time></trkpt><trkpt lat="55.9144976" lon="49.1677891"><time>2023-06-03T04:44:28.873</time></trkpt><trkpt lat="55.9145359" lon="49.1677198"><time>2023-06-03T04:44:33.897</time></trkpt><trkpt lat="55.9145658" lon="49.1676391"><time>2023-06-03T04:44:37.873</time></trkpt><trkpt lat="55.9146048" lon="49.1675929"><time>2023-06-03T04:44:42.887</time></trkpt><trkpt lat="55.9146498" lon="49.1675462"><time>2023-06-03T04:44:54.870</time></trkpt><trkpt lat="55.9146992" lon="49.1674943"><time>2023-06-03T04:44:57.910</time></trkpt><trkpt lat="55.9147560" lon="49.1674443"><time>2023-06-03T04:45:00.883</time></trkpt><trkpt lat="55.9147967" lon="49.1674072"><time>2023-06-03T04:45:02.887</time></trkpt><trkpt lat="55.9148637" lon="49.1673702"><time>2023-06-03T04:45:05.887</time></trkpt><trkpt lat="55.9149088" lon="49.1673524"><time>2023-06-03T04:45:07.883</time></trkpt><trkpt lat="55.9149572" lon="49.1673418"><time>2023-06-03T04:45:11.890</time></trkpt><trkpt lat="55.9150200" lon="49.1673293"><time>2023-06-03T04:45:27.933</time></trkpt><trkpt lat="55.9150692" lon="49.1673329"><time>2023-06-03T04:45:29.880</time></trkpt><trkpt lat="55.9151314" lon="49.1673019"><time>2023-06-03T04:45:32.873</time></trkpt><trkpt lat="55.9151783" lon="49.1672895"><time>2023-06-03T04:45:34.873</time></trkpt><trkpt lat="55.9152319" lon="49.1672984"><time>2023-06-03T04:45:36.887</time></trkpt><trkpt lat="55.9152821" lon="49.1673038"><time>2023-06-03T04:45:38.887</time></trkpt><trkpt lat="55.9153397" lon="49.1672929"><time>2023-06-03T04:45:40.883</time></trkpt><trkpt lat="55.9154151" lon="49.1672854"><time>2023-06-03T04:45:42.873</time></trkpt><trkpt lat="55.9154993" lon="49.1672758"><time>2023-06-03T04:45:44.877</time></trkpt><trkpt lat="55.9155786" lon="49.1672348"><time>2023-06-03T04:45:46.893</time></trkpt><trkpt lat="55.9156525" lon="49.1671873"><time>2023-06-03T04:45:48.883</time></trkpt><trkpt lat="55.9157143" lon="49.1671667"><time>2023-06-03T04:45:50.877</time></trkpt><trkpt lat="55.9157635" lon="49.1671281"><time>2023-06-03T04:45:52.873</time></trkpt><trkpt lat="55.9157937" lon="49.1670465"><time>2023-06-03T04:45:54.890</time></trkpt><trkpt lat="55.9158041" lon="49.1669594"><time>2023-06-03T04:45:56.883</time></trkpt><trkpt lat="55.9157907" lon="49.1668810"><time>2023-06-03T04:45:58.870</time></trkpt><trkpt lat="55.9157560" lon="49.1667888"><time>2023-06-03T04:46:00.880</time></trkpt><trkpt lat="55.9157208" lon="49.1666925"><time>2023-06-03T04:46:02.880</time></trkpt><trkpt lat="55.9156838" lon="49.1666047"><time>2023-06-03T04:46:04.880</time></trkpt><trkpt lat="55.9156428" lon="49.1665219"><time>2023-06-03T04:46:06.880</time></trkpt><trkpt lat="55.9156045" lon="49.1664456"><time>2023-06-03T04:46:08.887</time></trkpt><trkpt lat="55.9155671" lon="49.1663821"><time>2023-06-03T04:46:10.873</time></trkpt><trkpt lat="55.9155288" lon="49.1663197"><time>2023-06-03T04:46:12.900</time></trkpt><trkpt lat="55.9155076" lon="49.1662808"><time>2023-06-03T04:46:13.880</time></trkpt><trkpt lat="55.9154626" lon="49.1661935"><time>2023-06-03T04:46:15.927</time></trkpt><trkpt lat="55.9154093" lon="49.1660984"><time>2023-06-03T04:46:17.877</time></trkpt><trkpt lat="55.9153535" lon="49.1660109"><time>2023-06-03T04:46:19.883</time></trkpt><trkpt lat="55.9153010" lon="49.1659467"><time>2023-06-03T04:46:21.890</time></trkpt><trkpt lat="55.9152485" lon="49.1658811"><time>2023-06-03T04:46:23.880</time></trkpt><trkpt lat="55.9152165" lon="49.1658173"><time>2023-06-03T04:46:25.973</time></trkpt><trkpt lat="55.9152109" lon="49.1657755"><time>2023-06-03T04:46:26.883</time></trkpt><trkpt lat="55.9152062" lon="49.1656715"><time>2023-06-03T04:46:28.877</time></trkpt><trkpt lat="55.9152051" lon="49.1655417"><time>2023-06-03T04:46:30.873</time></trkpt><trkpt lat="55.9151971" lon="49.1654143"><time>2023-06-03T04:46:32.870</time></trkpt><trkpt lat="55.9151604" lon="49.1653041"><time>2023-06-03T04:46:34.877</time></trkpt><trkpt lat="55.9151110" lon="49.1652328"><time>2023-06-03T04:46:36.877</time></trkpt><trkpt lat="55.9150746" lon="49.1651696"><time>2023-06-03T04:46:38.887</time></trkpt><trkpt lat="55.9150415" lon="49.1650925"><time>2023-06-03T04:46:40.883</time></trkpt><trkpt lat="55.9149993" lon="49.1650170"><time>2023-06-03T04:46:42.880</time></trkpt><trkpt lat="55.9149557" lon="49.1649566"><time>2023-06-03T04:46:44.877</time></trkpt><trkpt lat="55.9149080" lon="49.1649143"><time>2023-06-03T04:46:46.873</time></trkpt><trkpt lat="55.9148609" lon="49.1648787"><time>2023-06-03T04:46:48.877</time></trkpt><trkpt lat="55.9148189" lon="49.1648471"><time>2023-06-03T04:46:50.873</time></trkpt><trkpt lat="55.9147700" lon="49.1648308"><time>2023-06-03T04:46:52.887</time></trkpt><trkpt lat="55.9147167" lon="49.1648906"><time>2023-06-03T04:46:55.883</time></trkpt><trkpt lat="55.9146960" lon="49.1649757"><time>2023-06-03T04:46:58.883</time></trkpt><trkpt lat="55.9146754" lon="49.1650720"><time>2023-06-03T04:47:01.863</time></trkpt><trkpt lat="55.9146327" lon="49.1651160"><time>2023-06-03T04:47:11.867</time></trkpt><trkpt lat="55.9145766" lon="49.1651160"><time>2023-06-03T04:47:44.877</time></trkpt><trkpt lat="55.9145882" lon="49.1650323"><time>2023-06-03T04:47:48.880</time></trkpt><trkpt lat="55.9146458" lon="49.1650151"><time>2023-06-03T04:47:51.893</time></trkpt><trkpt lat="55.9147033" lon="49.1649967"><time>2023-06-03T04:47:54.883</time></trkpt><trkpt lat="55.9147481" lon="49.1649636"><time>2023-06-03T04:47:57.907</time></trkpt><trkpt lat="55.9148072" lon="49.1649155"><time>2023-06-03T04:48:00.873</time></trkpt><trkpt lat="55.9148556" lon="49.1649246"><time>2023-06-03T04:48:03.890</time></trkpt><trkpt lat="55.9149033" lon="49.1649425"><time>2023-06-03T04:48:07.883</time></trkpt><trkpt lat="55.9149465" lon="49.1649913"><time>2023-06-03T04:48:10.877</time></trkpt><trkpt lat="55.9149964" lon="49.1650610"><time>2023-06-03T04:48:13.880</time></trkpt><trkpt lat="55.9150257" lon="49.1651394"><time>2023-06-03T04:48:17.890</time></trkpt><trkpt lat="55.9150479" lon="49.1652193"><time>2023-06-03T04:48:20.877</time></trkpt><trkpt lat="55.9150876" lon="49.1652839"><time>2023-06-03T04:48:23.890</time></trkpt><trkpt lat="55.9151271" lon="49.1653594"><time>2023-06-03T04:48:26.877</time></trkpt><trkpt lat="55.9151650" lon="49.1654188"><time>2023-06-03T04:48:29.890</time></trkpt><trkpt lat="55.9151335" lon="49.1653534"><time>2023-06-03T04:48:35.880</time></trkpt><trkpt lat="55.9150867" lon="49.1653220"><time>2023-06-03T04:48:37.880</time></trkpt><trkpt lat="55.9150412" lon="49.1653059"><time>2023-06-03T04:48:40.890</time></trkpt><trkpt lat="55.9149897" lon="49.1653175"><time>2023-06-03T04:48:45.940</time></trkpt><trkpt lat="55.9149501" lon="49.1653559"><time>2023-06-03T04:48:49.883</time></trkpt><trkpt lat="55.9149137" lon="49.1654045"><time>2023-06-03T04:48:55.907</time></trkpt><trkpt lat="55.9149137" lon="49.1654045"><time>2023-06-03T04:48:56.013</time></trkpt><trkpt lat="55.9149488" lon="49.1653163"><time>2023-06-03T04:49:05.963</time></trkpt><trkpt lat="55.9149675" lon="49.1652896"><time>2023-06-03T04:49:06.883</time></trkpt><trkpt lat="55.9150177" lon="49.1652543"><time>2023-06-03T04:49:08.867</time></trkpt><trkpt lat="55.9150809" lon="49.1652940"><time>2023-06-03T04:49:10.877</time></trkpt><trkpt lat="55.9151220" lon="49.1653706"><time>2023-06-03T04:49:12.873</time></trkpt><trkpt lat="55.9151589" lon="49.1654165"><time>2023-06-03T04:49:16.877</time></trkpt><trkpt lat="55.9151366" lon="49.1653338"><time>2023-06-03T04:49:28.873</time></trkpt><trkpt lat="55.9150974" lon="49.1652524"><time>2023-06-03T04:49:30.880</time></trkpt><trkpt lat="55.9150499" lon="49.1651461"><time>2023-06-03T04:49:32.907</time></trkpt><trkpt lat="55.9149992" lon="49.1650117"><time>2023-06-03T04:49:34.877</time></trkpt><trkpt lat="55.9149748" lon="49.1649428"><time>2023-06-03T04:49:35.877</time></trkpt><trkpt lat="55.9149286" lon="49.1648329"><time>2023-06-03T04:49:37.877</time></trkpt><trkpt lat="55.9148756" lon="49.1647684"><time>2023-06-03T04:49:39.880</time></trkpt><trkpt lat="55.9148106" lon="49.1647208"><time>2023-06-03T04:49:41.880</time></trkpt><trkpt lat="55.9147347" lon="49.1646896"><time>2023-06-03T04:49:43.880</time></trkpt><trkpt lat="55.9146851" lon="49.1646838"><time>2023-06-03T04:49:44.923</time></trkpt><trkpt lat="55.9146368" lon="49.1646792"><time>2023-06-03T04:49:45.880</time></trkpt><trkpt lat="55.9145907" lon="49.1646734"><time>2023-06-03T04:49:46.883</time></trkpt><trkpt lat="55.9145214" lon="49.1646549"><time>2023-06-03T04:49:47.880</time></trkpt><trkpt lat="55.9144480" lon="49.1645725"><time>2023-06-03T04:49:49.877</time></trkpt><trkpt lat="55.9144058" lon="49.1645394"><time>2023-06-03T04:49:50.893</time></trkpt><trkpt lat="55.9143704" lon="49.1644896"><time>2023-06-03T04:49:51.883</time></trkpt><trkpt lat="55.9143261" lon="49.1644551"><time>2023-06-03T04:49:52.890</time></trkpt><trkpt lat="55.9142860" lon="49.1643971"><time>2023-06-03T04:49:53.880</time></trkpt><trkpt lat="55.9142125" lon="49.1643079"><time>2023-06-03T04:49:55.883</time></trkpt><trkpt lat="55.9141517" lon="49.1641984"><time>2023-06-03T04:49:57.890</time></trkpt><trkpt lat="55.9141022" lon="49.1640891"><time>2023-06-03T04:49:59.883</time></trkpt><trkpt lat="55.9140673" lon="49.1639995"><time>2023-06-03T04:50:01.877</time></trkpt><trkpt lat="55.9140460" lon="49.1639038"><time>2023-06-03T04:50:03.887</time></trkpt><trkpt lat="55.9140258" lon="49.1637960"><time>2023-06-03T04:50:05.880</time></trkpt><trkpt lat="55.9140115" lon="49.1637061"><time>2023-06-03T04:50:07.887</time></trkpt><trkpt lat="55.9139942" lon="49.1636288"><time>2023-06-03T04:50:16.900</time></trkpt><trkpt lat="55.9139652" lon="49.1635517"><time>2023-06-03T04:50:21.883</time></trkpt><trkpt lat="55.9139533" lon="49.1634606"><time>2023-06-03T04:50:28.877</time></trkpt><trkpt lat="55.9139119" lon="49.1633674"><time>2023-06-03T04:50:31.927</time></trkpt><trkpt lat="55.9138683" lon="49.1633117"><time>2023-06-03T04:50:33.883</time></trkpt><trkpt lat="55.9138272" lon="49.1632390"><time>2023-06-03T04:50:35.880</time></trkpt><trkpt lat="55.9137948" lon="49.1631641"><time>2023-06-03T04:50:37.880</time></trkpt><trkpt lat="55.9137561" lon="49.1630866"><time>2023-06-03T04:50:39.870</time></trkpt><trkpt lat="55.9137063" lon="49.1630065"><time>2023-06-03T04:50:41.897</time></trkpt><trkpt lat="55.9136438" lon="49.1629313"><time>2023-06-03T04:50:43.923</time></trkpt><trkpt lat="55.9135714" lon="49.1628697"><time>2023-06-03T04:50:45.883</time></trkpt><trkpt lat="55.9135001" lon="49.1628285"><time>2023-06-03T04:50:47.877</time></trkpt><trkpt lat="55.9134295" lon="49.1628148"><time>2023-06-03T04:50:49.903</time></trkpt><trkpt lat="55.9133603" lon="49.1628263"><time>2023-06-03T04:50:51.880</time></trkpt><trkpt lat="55.9132988" lon="49.1628377"><time>2023-06-03T04:50:53.877</time></trkpt><trkpt lat="55.9132381" lon="49.1628856"><time>2023-06-03T04:50:55.887</time></trkpt><trkpt lat="55.9131830" lon="49.1629778"><time>2023-06-03T04:50:57.880</time></trkpt><trkpt lat="55.9131234" lon="49.1630901"><time>2023-06-03T04:50:59.880</time></trkpt><trkpt lat="55.9130861" lon="49.1631612"><time>2023-06-03T04:51:00.877</time></trkpt><trkpt lat="55.9130504" lon="49.1632254"><time>2023-06-03T04:51:01.890</time></trkpt><trkpt lat="55.9130128" lon="49.1632892"><time>2023-06-03T04:51:02.863</time></trkpt><trkpt lat="55.9129774" lon="49.1633560"><time>2023-06-03T04:51:03.883</time></trkpt><trkpt lat="55.9129374" lon="49.1634181"><time>2023-06-03T04:51:04.880</time></trkpt><trkpt lat="55.9128992" lon="49.1634866"><time>2023-06-03T04:51:05.877</time></trkpt><trkpt lat="55.9128550" lon="49.1635566"><time>2023-06-03T04:51:06.873</time></trkpt><trkpt lat="55.9128165" lon="49.1636326"><time>2023-06-03T04:51:07.917</time></trkpt><trkpt lat="55.9127824" lon="49.1637179"><time>2023-06-03T04:51:08.863</time></trkpt><trkpt lat="55.9127401" lon="49.1637964"><time>2023-06-03T04:51:09.877</time></trkpt><trkpt lat="55.9126982" lon="49.1638791"><time>2023-06-03T04:51:10.873</time></trkpt><trkpt lat="55.9126571" lon="49.1639690"><time>2023-06-03T04:51:11.877</time></trkpt><trkpt lat="55.9126146" lon="49.1640559"><time>2023-06-03T04:51:12.873</time></trkpt><trkpt lat="55.9125691" lon="49.1641383"><time>2023-06-03T04:51:13.897</time></trkpt><trkpt lat="55.9125297" lon="49.1642319"><time>2023-06-03T04:51:14.880</time></trkpt><trkpt lat="55.9124841" lon="49.1643251"><time>2023-06-03T04:51:15.893</time></trkpt><trkpt lat="55.9124412" lon="49.1644143"><time>2023-06-03T04:51:16.870</time></trkpt><trkpt lat="55.9123930" lon="49.1645017"><time>2023-06-03T04:51:17.890</time></trkpt><trkpt lat="55.9123477" lon="49.1646019"><time>2023-06-03T04:51:18.870</time></trkpt><trkpt lat="55.9123017" lon="49.1646916"><time>2023-06-03T04:51:19.917</time></trkpt><trkpt lat="55.9122556" lon="49.1647753"><time>2023-06-03T04:51:20.877</time></trkpt><trkpt lat="55.9122116" lon="49.1648623"><time>2023-06-03T04:51:21.883</time></trkpt><trkpt lat="55.9121656" lon="49.1649552"><time>2023-06-03T04:51:22.877</time></trkpt><trkpt lat="55.9121256" lon="49.1650344"><time>2023-06-03T04:51:23.867</time></trkpt><trkpt lat="55.9120843" lon="49.1651119"><time>2023-06-03T04:51:24.880</time></trkpt><trkpt lat="55.9120453" lon="49.1651895"><time>2023-06-03T04:51:25.893</time></trkpt><trkpt lat="55.9120053" lon="49.1652708"><time>2023-06-03T04:51:26.887</time></trkpt><trkpt lat="55.9119647" lon="49.1653501"><time>2023-06-03T04:51:27.880</time></trkpt><trkpt lat="55.9119247" lon="49.1654339"><time>2023-06-03T04:51:28.887</time></trkpt><trkpt lat="55.9118834" lon="49.1655129"><time>2023-06-03T04:51:29.883</time></trkpt><trkpt lat="55.9118446" lon="49.1655959"><time>2023-06-03T04:51:30.887</time></trkpt><trkpt lat="55.9118037" lon="49.1656796"><time>2023-06-03T04:51:31.907</time></trkpt><trkpt lat="55.9117647" lon="49.1657605"><time>2023-06-03T04:51:32.880</time></trkpt><trkpt lat="55.9117240" lon="49.1658432"><time>2023-06-03T04:51:33.877</time></trkpt><trkpt lat="55.9116821" lon="49.1659269"><time>2023-06-03T04:51:34.887</time></trkpt><trkpt lat="55.9116402" lon="49.1660056"><time>2023-06-03T04:51:35.860</time></trkpt><trkpt lat="55.9116001" lon="49.1660889"><time>2023-06-03T04:51:36.873</time></trkpt><trkpt lat="55.9115593" lon="49.1661702"><time>2023-06-03T04:51:37.900</time></trkpt><trkpt lat="55.9115165" lon="49.1662573"><time>2023-06-03T04:51:38.873</time></trkpt><trkpt lat="55.9114766" lon="49.1663373"><time>2023-06-03T04:51:39.880</time></trkpt><trkpt lat="55.9114359" lon="49.1664222"><time>2023-06-03T04:51:40.873</time></trkpt><trkpt lat="55.9113951" lon="49.1665039"><time>2023-06-03T04:51:41.880</time></trkpt><trkpt lat="55.9113535" lon="49.1665839"><time>2023-06-03T04:51:42.877</time></trkpt><trkpt lat="55.9113123" lon="49.1666704"><time>2023-06-03T04:51:43.927</time></trkpt><trkpt lat="55.9112686" lon="49.1667727"><time>2023-06-03T04:51:44.867</time></trkpt><trkpt lat="55.9112267" lon="49.1668769"><time>2023-06-03T04:51:45.877</time></trkpt><trkpt lat="55.9111782" lon="49.1669916"><time>2023-06-03T04:51:46.867</time></trkpt><trkpt lat="55.9111379" lon="49.1670701"><time>2023-06-03T04:51:47.883</time></trkpt><trkpt lat="55.9110937" lon="49.1671541"><time>2023-06-03T04:51:48.867</time></trkpt><trkpt lat="55.9110504" lon="49.1672486"><time>2023-06-03T04:51:49.867</time></trkpt><trkpt lat="55.9110071" lon="49.1673402"><time>2023-06-03T04:51:50.867</time></trkpt><trkpt lat="55.9109578" lon="49.1674376"><time>2023-06-03T04:51:51.883</time></trkpt><trkpt lat="55.9109202" lon="49.1675232"><time>2023-06-03T04:51:52.877</time></trkpt><trkpt lat="55.9108833" lon="49.1676200"><time>2023-06-03T04:51:53.880</time></trkpt><trkpt lat="55.9108321" lon="49.1677088"><time>2023-06-03T04:51:54.920</time></trkpt><trkpt lat="55.9107830" lon="49.1677928"><time>2023-06-03T04:51:55.877</time></trkpt><trkpt lat="55.9107372" lon="49.1678708"><time>2023-06-03T04:51:56.860</time></trkpt><trkpt lat="55.9106886" lon="49.1679441"><time>2023-06-03T04:51:57.870</time></trkpt><trkpt lat="55.9106501" lon="49.1680402"><time>2023-06-03T04:51:58.877</time></trkpt><trkpt lat="55.9105997" lon="49.1681308"><time>2023-06-03T04:51:59.883</time></trkpt><trkpt lat="55.9105602" lon="49.1682069"><time>2023-06-03T04:52:00.897</time></trkpt><trkpt lat="55.9105253" lon="49.1683004"><time>2023-06-03T04:52:01.877</time></trkpt><trkpt lat="55.9104755" lon="49.1683955"><time>2023-06-03T04:52:02.877</time></trkpt><trkpt lat="55.9104334" lon="49.1684786"><time>2023-06-03T04:52:03.887</time></trkpt><trkpt lat="55.9103952" lon="49.1685652"><time>2023-06-03T04:52:04.890</time></trkpt><trkpt lat="55.9103477" lon="49.1686412"><time>2023-06-03T04:52:05.887</time></trkpt><trkpt lat="55.9103009" lon="49.1687209"><time>2023-06-03T04:52:06.910</time></trkpt><trkpt lat="55.9102500" lon="49.1687988"><time>2023-06-03T04:52:07.877</time></trkpt><trkpt lat="55.9102033" lon="49.1688950"><time>2023-06-03T04:52:08.873</time></trkpt><trkpt lat="55.9101608" lon="49.1689808"><time>2023-06-03T04:52:09.880</time></trkpt><trkpt lat="55.9101193" lon="49.1690757"><time>2023-06-03T04:52:10.873</time></trkpt><trkpt lat="55.9100804" lon="49.1691473"><time>2023-06-03T04:52:11.873</time></trkpt><trkpt lat="55.9100495" lon="49.1692294"><time>2023-06-03T04:52:12.880</time></trkpt><trkpt lat="55.9100150" lon="49.1693183"><time>2023-06-03T04:52:13.877</time></trkpt><trkpt lat="55.9099739" lon="49.1694070"><time>2023-06-03T04:52:14.873</time></trkpt><trkpt lat="55.9099303" lon="49.1695051"><time>2023-06-03T04:52:15.873</time></trkpt><trkpt lat="55.9098886" lon="49.1695885"><time>2023-06-03T04:52:16.850</time></trkpt><trkpt lat="55.9098453" lon="49.1696859"><time>2023-06-03T04:52:17.873</time></trkpt><trkpt lat="55.9098044" lon="49.1697650"><time>2023-06-03T04:52:18.917</time></trkpt><trkpt lat="55.9097693" lon="49.1698652"><time>2023-06-03T04:52:19.873</time></trkpt><trkpt lat="55.9097294" lon="49.1699457"><time>2023-06-03T04:52:20.877</time></trkpt><trkpt lat="55.9096864" lon="49.1700237"><time>2023-06-03T04:52:21.880</time></trkpt><trkpt lat="55.9096380" lon="49.1701368"><time>2023-06-03T04:52:22.867</time></trkpt><trkpt lat="55.9095923" lon="49.1702231"><time>2023-06-03T04:52:23.880</time></trkpt><trkpt lat="55.9095412" lon="49.1703233"><time>2023-06-03T04:52:24.887</time></trkpt><trkpt lat="55.9095022" lon="49.1703933"><time>2023-06-03T04:52:25.883</time></trkpt><trkpt lat="55.9094594" lon="49.1704684"><time>2023-06-03T04:52:26.880</time></trkpt><trkpt lat="55.9094223" lon="49.1705539"><time>2023-06-03T04:52:27.877</time></trkpt><trkpt lat="55.9093836" lon="49.1706374"><time>2023-06-03T04:52:28.853</time></trkpt><trkpt lat="55.9093247" lon="49.1707831"><time>2023-06-03T04:52:30.907</time></trkpt><trkpt lat="55.9092828" lon="49.1708568"><time>2023-06-03T04:52:31.883</time></trkpt><trkpt lat="55.9092436" lon="49.1709258"><time>2023-06-03T04:52:32.867</time></trkpt><trkpt lat="55.9092018" lon="49.1709950"><time>2023-06-03T04:52:33.890</time></trkpt><trkpt lat="55.9091589" lon="49.1710880"><time>2023-06-03T04:52:34.880</time></trkpt><trkpt lat="55.9091197" lon="49.1711626"><time>2023-06-03T04:52:35.873</time></trkpt><trkpt lat="55.9090851" lon="49.1712380"><time>2023-06-03T04:52:36.883</time></trkpt><trkpt lat="55.9090470" lon="49.1713213"><time>2023-06-03T04:52:37.873</time></trkpt><trkpt lat="55.9090082" lon="49.1713896"><time>2023-06-03T04:52:38.863</time></trkpt><trkpt lat="55.9089805" lon="49.1714622"><time>2023-06-03T04:52:39.873</time></trkpt><trkpt lat="55.9089268" lon="49.1715345"><time>2023-06-03T04:52:40.873</time></trkpt><trkpt lat="55.9088948" lon="49.1716065"><time>2023-06-03T04:52:41.857</time></trkpt><trkpt lat="55.9088484" lon="49.1717045"><time>2023-06-03T04:52:42.913</time></trkpt><trkpt lat="55.9088072" lon="49.1717759"><time>2023-06-03T04:52:43.870</time></trkpt><trkpt lat="55.9087674" lon="49.1718614"><time>2023-06-03T04:52:44.867</time></trkpt><trkpt lat="55.9087252" lon="49.1719528"><time>2023-06-03T04:52:45.883</time></trkpt><trkpt lat="55.9086861" lon="49.1720664"><time>2023-06-03T04:52:46.867</time></trkpt><trkpt lat="55.9086315" lon="49.1721475"><time>2023-06-03T04:52:47.873</time></trkpt><trkpt lat="55.9085863" lon="49.1722299"><time>2023-06-03T04:52:48.907</time></trkpt><trkpt lat="55.9085355" lon="49.1723225"><time>2023-06-03T04:52:49.877</time></trkpt><trkpt lat="55.9084925" lon="49.1723995"><time>2023-06-03T04:52:50.867</time></trkpt><trkpt lat="55.9084457" lon="49.1724770"><time>2023-06-03T04:52:51.863</time></trkpt><trkpt lat="55.9083955" lon="49.1725700"><time>2023-06-03T04:52:52.863</time></trkpt><trkpt lat="55.9083575" lon="49.1726544"><time>2023-06-03T04:52:53.873</time></trkpt><trkpt lat="55.9083123" lon="49.1727498"><time>2023-06-03T04:52:54.907</time></trkpt><trkpt lat="55.9082767" lon="49.1728435"><time>2023-06-03T04:52:55.877</time></trkpt><trkpt lat="55.9082370" lon="49.1729187"><time>2023-06-03T04:52:56.873</time></trkpt><trkpt lat="55.9082086" lon="49.1729976"><time>2023-06-03T04:52:57.867</time></trkpt><trkpt lat="55.9081724" lon="49.1730885"><time>2023-06-03T04:52:58.877</time></trkpt><trkpt lat="55.9081316" lon="49.1731816"><time>2023-06-03T04:52:59.870</time></trkpt><trkpt lat="55.9080875" lon="49.1732626"><time>2023-06-03T04:53:00.880</time></trkpt><trkpt lat="55.9080529" lon="49.1733439"><time>2023-06-03T04:53:01.873</time></trkpt><trkpt lat="55.9080120" lon="49.1734151"><time>2023-06-03T04:53:02.873</time></trkpt><trkpt lat="55.9079679" lon="49.1734875"><time>2023-06-03T04:53:03.873</time></trkpt><trkpt lat="55.9079229" lon="49.1735816"><time>2023-06-03T04:53:04.867</time></trkpt><trkpt lat="55.9078821" lon="49.1736652"><time>2023-06-03T04:53:05.870</time></trkpt><trkpt lat="55.9078358" lon="49.1737603"><time>2023-06-03T04:53:06.900</time></trkpt><trkpt lat="55.9077965" lon="49.1738379"><time>2023-06-03T04:53:07.883</time></trkpt><trkpt lat="55.9077526" lon="49.1739259"><time>2023-06-03T04:53:08.873</time></trkpt><trkpt lat="55.9077159" lon="49.1739992"><time>2023-06-03T04:53:09.873</time></trkpt><trkpt lat="55.9076764" lon="49.1740769"><time>2023-06-03T04:53:10.867</time></trkpt><trkpt lat="55.9076341" lon="49.1741533"><time>2023-06-03T04:53:11.877</time></trkpt><trkpt lat="55.9075968" lon="49.1742356"><time>2023-06-03T04:53:12.890</time></trkpt><trkpt lat="55.9075550" lon="49.1743243"><time>2023-06-03T04:53:13.883</time></trkpt><trkpt lat="55.9075179" lon="49.1744055"><time>2023-06-03T04:53:14.873</time></trkpt><trkpt lat="55.9074816" lon="49.1744767"><time>2023-06-03T04:53:15.880</time></trkpt><trkpt lat="55.9074404" lon="49.1745539"><time>2023-06-03T04:53:16.870</time></trkpt><trkpt lat="55.9074030" lon="49.1746382"><time>2023-06-03T04:53:17.877</time></trkpt><trkpt lat="55.9073636" lon="49.1747249"><time>2023-06-03T04:53:18.907</time></trkpt><trkpt lat="55.9073282" lon="49.1748090"><time>2023-06-03T04:53:19.880</time></trkpt><trkpt lat="55.9072863" lon="49.1748924"><time>2023-06-03T04:53:20.873</time></trkpt><trkpt lat="55.9072504" lon="49.1749728"><time>2023-06-03T04:53:21.873</time></trkpt><trkpt lat="55.9072138" lon="49.1750503"><time>2023-06-03T04:53:22.870</time></trkpt><trkpt lat="55.9071771" lon="49.1751361"><time>2023-06-03T04:53:23.870</time></trkpt><trkpt lat="55.9071318" lon="49.1752185"><time>2023-06-03T04:53:24.890</time></trkpt><trkpt lat="55.9070954" lon="49.1753098"><time>2023-06-03T04:53:25.877</time></trkpt><trkpt lat="55.9070599" lon="49.1753924"><time>2023-06-03T04:53:26.863</time></trkpt><trkpt lat="55.9070242" lon="49.1754865"><time>2023-06-03T04:53:27.880</time></trkpt><trkpt lat="55.9069898" lon="49.1755711"><time>2023-06-03T04:53:28.863</time></trkpt><trkpt lat="55.9069548" lon="49.1756556"><time>2023-06-03T04:53:29.873</time></trkpt><trkpt lat="55.9069187" lon="49.1757438"><time>2023-06-03T04:53:30.903</time></trkpt><trkpt lat="55.9068827" lon="49.1758430"><time>2023-06-03T04:53:31.877</time></trkpt><trkpt lat="55.9068504" lon="49.1759407"><time>2023-06-03T04:53:32.883</time></trkpt><trkpt lat="55.9068166" lon="49.1760312"><time>2023-06-03T04:53:33.883</time></trkpt><trkpt lat="55.9067832" lon="49.1761142"><time>2023-06-03T04:53:34.867</time></trkpt><trkpt lat="55.9067504" lon="49.1762126"><time>2023-06-03T04:53:35.860</time></trkpt><trkpt lat="55.9067173" lon="49.1763096"><time>2023-06-03T04:53:36.863</time></trkpt><trkpt lat="55.9066795" lon="49.1764066"><time>2023-06-03T04:53:37.890</time></trkpt><trkpt lat="55.9066507" lon="49.1764965"><time>2023-06-03T04:53:38.877</time></trkpt><trkpt lat="55.9066186" lon="49.1765948"><time>2023-06-03T04:53:39.877</time></trkpt><trkpt lat="55.9065882" lon="49.1766883"><time>2023-06-03T04:53:40.877</time></trkpt><trkpt lat="55.9065640" lon="49.1767851"><time>2023-06-03T04:53:41.877</time></trkpt><trkpt lat="55.9065370" lon="49.1768871"><time>2023-06-03T04:53:42.917</time></trkpt><trkpt lat="55.9065077" lon="49.1769801"><time>2023-06-03T04:53:43.907</time></trkpt><trkpt lat="55.9064842" lon="49.1770857"><time>2023-06-03T04:53:44.887</time></trkpt><trkpt lat="55.9064492" lon="49.1771793"><time>2023-06-03T04:53:45.873</time></trkpt><trkpt lat="55.9064189" lon="49.1772724"><time>2023-06-03T04:53:46.867</time></trkpt><trkpt lat="55.9063916" lon="49.1773607"><time>2023-06-03T04:53:47.887</time></trkpt><trkpt lat="55.9063614" lon="49.1774535"><time>2023-06-03T04:53:48.897</time></trkpt><trkpt lat="55.9063342" lon="49.1775490"><time>2023-06-03T04:53:49.877</time></trkpt><trkpt lat="55.9063043" lon="49.1776513"><time>2023-06-03T04:53:50.873</time></trkpt><trkpt lat="55.9062756" lon="49.1777498"><time>2023-06-03T04:53:51.883</time></trkpt><trkpt lat="55.9062457" lon="49.1778442"><time>2023-06-03T04:53:52.873</time></trkpt><trkpt lat="55.9062223" lon="49.1779358"><time>2023-06-03T04:53:53.877</time></trkpt><trkpt lat="55.9061986" lon="49.1780263"><time>2023-06-03T04:53:54.920</time></trkpt><trkpt lat="55.9061693" lon="49.1781328"><time>2023-06-03T04:53:55.880</time></trkpt><trkpt lat="55.9061429" lon="49.1782196"><time>2023-06-03T04:53:56.873</time></trkpt><trkpt lat="55.9061241" lon="49.1783199"><time>2023-06-03T04:53:57.877</time></trkpt><trkpt lat="55.9060986" lon="49.1784130"><time>2023-06-03T04:53:58.873</time></trkpt><trkpt lat="55.9060645" lon="49.1785151"><time>2023-06-03T04:53:59.883</time></trkpt><trkpt lat="55.9060378" lon="49.1786093"><time>2023-06-03T04:54:00.887</time></trkpt><trkpt lat="55.9060179" lon="49.1787014"><time>2023-06-03T04:54:01.893</time></trkpt><trkpt lat="55.9059919" lon="49.1787893"><time>2023-06-03T04:54:02.880</time></trkpt><trkpt lat="55.9059619" lon="49.1788882"><time>2023-06-03T04:54:03.893</time></trkpt><trkpt lat="55.9059326" lon="49.1789825"><time>2023-06-03T04:54:04.880</time></trkpt><trkpt lat="55.9059142" lon="49.1790834"><time>2023-06-03T04:54:05.877</time></trkpt><trkpt lat="55.9058904" lon="49.1791834"><time>2023-06-03T04:54:06.930</time></trkpt><trkpt lat="55.9058597" lon="49.1792779"><time>2023-06-03T04:54:07.873</time></trkpt><trkpt lat="55.9058348" lon="49.1793830"><time>2023-06-03T04:54:08.883</time></trkpt><trkpt lat="55.9058089" lon="49.1794866"><time>2023-06-03T04:54:09.877</time></trkpt><trkpt lat="55.9057894" lon="49.1795839"><time>2023-06-03T04:54:10.877</time></trkpt><trkpt lat="55.9057655" lon="49.1796813"><time>2023-06-03T04:54:11.877</time></trkpt><trkpt lat="55.9057315" lon="49.1797809"><time>2023-06-03T04:54:12.893</time></trkpt><trkpt lat="55.9057100" lon="49.1798771"><time>2023-06-03T04:54:13.877</time></trkpt><trkpt lat="55.9056823" lon="49.1799807"><time>2023-06-03T04:54:14.877</time></trkpt><trkpt lat="55.9056657" lon="49.1800766"><time>2023-06-03T04:54:15.880</time></trkpt><trkpt lat="55.9056429" lon="49.1801773"><time>2023-06-03T04:54:16.887</time></trkpt><trkpt lat="55.9056229" lon="49.1802737"><time>2023-06-03T04:54:17.893</time></trkpt><trkpt lat="55.9055985" lon="49.1803656"><time>2023-06-03T04:54:18.877</time></trkpt><trkpt lat="55.9055715" lon="49.1804579"><time>2023-06-03T04:54:19.877</time></trkpt><trkpt lat="55.9055509" lon="49.1805533"><time>2023-06-03T04:54:20.873</time></trkpt><trkpt lat="55.9055313" lon="49.1806497"><time>2023-06-03T04:54:21.867</time></trkpt><trkpt lat="55.9055144" lon="49.1807400"><time>2023-06-03T04:54:22.887</time></trkpt><trkpt lat="55.9054854" lon="49.1808359"><time>2023-06-03T04:54:23.887</time></trkpt><trkpt lat="55.9054591" lon="49.1809398"><time>2023-06-03T04:54:24.900</time></trkpt><trkpt lat="55.9054364" lon="49.1810316"><time>2023-06-03T04:54:25.887</time></trkpt><trkpt lat="55.9054149" lon="49.1811226"><time>2023-06-03T04:54:26.877</time></trkpt><trkpt lat="55.9053970" lon="49.1812096"><time>2023-06-03T04:54:27.877</time></trkpt><trkpt lat="55.9053770" lon="49.1812919"><time>2023-06-03T04:54:28.890</time></trkpt><trkpt lat="55.9053581" lon="49.1813731"><time>2023-06-03T04:54:29.877</time></trkpt><trkpt lat="55.9053409" lon="49.1814512"><time>2023-06-03T04:54:30.903</time></trkpt><trkpt lat="55.9053093" lon="49.1816018"><time>2023-06-03T04:54:32.877</time></trkpt><trkpt lat="55.9052897" lon="49.1816832"><time>2023-06-03T04:54:39.887</time></trkpt><trkpt lat="55.9052719" lon="49.1817740"><time>2023-06-03T04:54:41.887</time></trkpt><trkpt lat="55.9052428" lon="49.1818983"><time>2023-06-03T04:54:43.880</time></trkpt><trkpt lat="55.9052073" lon="49.1820254"><time>2023-06-03T04:54:45.853</time></trkpt><trkpt lat="55.9051801" lon="49.1821484"><time>2023-06-03T04:54:47.880</time></trkpt><trkpt lat="55.9051564" lon="49.1822508"><time>2023-06-03T04:54:48.887</time></trkpt><trkpt lat="55.9051373" lon="49.1823249"><time>2023-06-03T04:54:49.863</time></trkpt><trkpt lat="55.9051144" lon="49.1824039"><time>2023-06-03T04:54:50.873</time></trkpt><trkpt lat="55.9050858" lon="49.1825535"><time>2023-06-03T04:54:52.877</time></trkpt><trkpt lat="55.9050765" lon="49.1826484"><time>2023-06-03T04:54:53.880</time></trkpt><trkpt lat="55.9050528" lon="49.1827359"><time>2023-06-03T04:54:54.913</time></trkpt><trkpt lat="55.9050354" lon="49.1828278"><time>2023-06-03T04:54:55.877</time></trkpt><trkpt lat="55.9050126" lon="49.1829292"><time>2023-06-03T04:54:56.893</time></trkpt><trkpt lat="55.9050098" lon="49.1830228"><time>2023-06-03T04:54:57.877</time></trkpt><trkpt lat="55.9049968" lon="49.1831144"><time>2023-06-03T04:54:58.867</time></trkpt><trkpt lat="55.9049686" lon="49.1832135"><time>2023-06-03T04:54:59.883</time></trkpt><trkpt lat="55.9049551" lon="49.1833047"><time>2023-06-03T04:55:00.887</time></trkpt><trkpt lat="55.9049347" lon="49.1834016"><time>2023-06-03T04:55:01.873</time></trkpt><trkpt lat="55.9049086" lon="49.1834941"><time>2023-06-03T04:55:02.857</time></trkpt><trkpt lat="55.9048842" lon="49.1835887"><time>2023-06-03T04:55:03.877</time></trkpt><trkpt lat="55.9048561" lon="49.1836798"><time>2023-06-03T04:55:04.877</time></trkpt><trkpt lat="55.9048296" lon="49.1837815"><time>2023-06-03T04:55:05.887</time></trkpt><trkpt lat="55.9048078" lon="49.1838930"><time>2023-06-03T04:55:06.870</time></trkpt><trkpt lat="55.9048008" lon="49.1839957"><time>2023-06-03T04:55:07.867</time></trkpt><trkpt lat="55.9047793" lon="49.1840723"><time>2023-06-03T04:55:08.887</time></trkpt><trkpt lat="55.9047605" lon="49.1841503"><time>2023-06-03T04:55:09.880</time></trkpt><trkpt lat="55.9047352" lon="49.1842345"><time>2023-06-03T04:55:10.880</time></trkpt><trkpt lat="55.9047099" lon="49.1843065"><time>2023-06-03T04:55:11.900</time></trkpt><trkpt lat="55.9046795" lon="49.1843854"><time>2023-06-03T04:55:12.877</time></trkpt><trkpt lat="55.9046491" lon="49.1845041"><time>2023-06-03T04:55:14.877</time></trkpt><trkpt lat="55.9046260" lon="49.1846130"><time>2023-06-03T04:55:16.880</time></trkpt><trkpt lat="55.9045993" lon="49.1847128"><time>2023-06-03T04:55:18.870</time></trkpt><trkpt lat="55.9045602" lon="49.1848117"><time>2023-06-03T04:55:20.880</time></trkpt><trkpt lat="55.9045335" lon="49.1849237"><time>2023-06-03T04:55:22.883</time></trkpt><trkpt lat="55.9045145" lon="49.1850124"><time>2023-06-03T04:55:25.877</time></trkpt><trkpt lat="55.9045599" lon="49.1849681"><time>2023-06-03T04:55:31.863</time></trkpt><trkpt lat="55.9045708" lon="49.1848870"><time>2023-06-03T04:55:33.887</time></trkpt><trkpt lat="55.9045898" lon="49.1848001"><time>2023-06-03T04:55:35.880</time></trkpt><trkpt lat="55.9046097" lon="49.1847081"><time>2023-06-03T04:55:37.873</time></trkpt><trkpt lat="55.9046293" lon="49.1846066"><time>2023-06-03T04:55:39.887</time></trkpt><trkpt lat="55.9046562" lon="49.1844918"><time>2023-06-03T04:55:41.873</time></trkpt><trkpt lat="55.9046901" lon="49.1843702"><time>2023-06-03T04:55:43.877</time></trkpt><trkpt lat="55.9047249" lon="49.1842389"><time>2023-06-03T04:55:45.877</time></trkpt><trkpt lat="55.9047596" lon="49.1841144"><time>2023-06-03T04:55:47.887</time></trkpt><trkpt lat="55.9047874" lon="49.1840079"><time>2023-06-03T04:55:49.880</time></trkpt><trkpt lat="55.9048103" lon="49.1839109"><time>2023-06-03T04:55:51.873</time></trkpt><trkpt lat="55.9048313" lon="49.1837901"><time>2023-06-03T04:55:53.893</time></trkpt><trkpt lat="55.9048573" lon="49.1836600"><time>2023-06-03T04:55:55.883</time></trkpt><trkpt lat="55.9048929" lon="49.1835312"><time>2023-06-03T04:55:57.877</time></trkpt><trkpt lat="55.9049256" lon="49.1834036"><time>2023-06-03T04:55:59.877</time></trkpt><trkpt lat="55.9049541" lon="49.1832734"><time>2023-06-03T04:56:01.873</time></trkpt><trkpt lat="55.9049817" lon="49.1831492"><time>2023-06-03T04:56:03.897</time></trkpt><trkpt lat="55.9050117" lon="49.1830279"><time>2023-06-03T04:56:05.873</time></trkpt><trkpt lat="55.9050394" lon="49.1829089"><time>2023-06-03T04:56:07.887</time></trkpt><trkpt lat="55.9050690" lon="49.1827928"><time>2023-06-03T04:56:09.900</time></trkpt><trkpt lat="55.9050862" lon="49.1827262"><time>2023-06-03T04:56:10.893</time></trkpt><trkpt lat="55.9051223" lon="49.1826017"><time>2023-06-03T04:56:12.873</time></trkpt><trkpt lat="55.9051513" lon="49.1824756"><time>2023-06-03T04:56:14.883</time></trkpt><trkpt lat="55.9051753" lon="49.1823526"><time>2023-06-03T04:56:16.917</time></trkpt><trkpt lat="55.9052001" lon="49.1822343"><time>2023-06-03T04:56:18.877</time></trkpt><trkpt lat="55.9052251" lon="49.1821300"><time>2023-06-03T04:56:20.880</time></trkpt><trkpt lat="55.9052527" lon="49.1820313"><time>2023-06-03T04:56:22.883</time></trkpt><trkpt lat="55.9052763" lon="49.1819325"><time>2023-06-03T04:56:24.867</time></trkpt><trkpt lat="55.9053043" lon="49.1818245"><time>2023-06-03T04:56:26.870</time></trkpt><trkpt lat="55.9053294" lon="49.1817290"><time>2023-06-03T04:56:28.903</time></trkpt><trkpt lat="55.9053535" lon="49.1816462"><time>2023-06-03T04:56:30.863</time></trkpt><trkpt lat="55.9053952" lon="49.1815937"><time>2023-06-03T04:56:33.877</time></trkpt><trkpt lat="55.9054580" lon="49.1816412"><time>2023-06-03T04:56:36.877</time></trkpt><trkpt lat="55.9055014" lon="49.1817062"><time>2023-06-03T04:56:38.863</time></trkpt><trkpt lat="55.9055459" lon="49.1817509"><time>2023-06-03T04:56:40.900</time></trkpt><trkpt lat="55.9056146" lon="49.1817743"><time>2023-06-03T04:56:43.880</time></trkpt><trkpt lat="55.9056697" lon="49.1818175"><time>2023-06-03T04:56:45.873</time></trkpt><trkpt lat="55.9057260" lon="49.1818751"><time>2023-06-03T04:56:47.870</time></trkpt><trkpt lat="55.9057850" lon="49.1819235"><time>2023-06-03T04:56:49.877</time></trkpt><trkpt lat="55.9058417" lon="49.1819557"><time>2023-06-03T04:56:51.867</time></trkpt><trkpt lat="55.9058951" lon="49.1819884"><time>2023-06-03T04:56:53.873</time></trkpt><trkpt lat="55.9059613" lon="49.1820275"><time>2023-06-03T04:56:55.863</time></trkpt><trkpt lat="55.9060355" lon="49.1820616"><time>2023-06-03T04:56:57.877</time></trkpt><trkpt lat="55.9061061" lon="49.1821335"><time>2023-06-03T04:56:59.867</time></trkpt><trkpt lat="55.9061504" lon="49.1822402"><time>2023-06-03T04:57:01.867</time></trkpt><trkpt lat="55.9061822" lon="49.1823722"><time>2023-06-03T04:57:03.877</time></trkpt><trkpt lat="55.9062072" lon="49.1825017"><time>2023-06-03T04:57:05.870</time></trkpt><trkpt lat="55.9062147" lon="49.1826256"><time>2023-06-03T04:57:07.880</time></trkpt><trkpt lat="55.9062061" lon="49.1827440"><time>2023-06-03T04:57:09.873</time></trkpt><trkpt lat="55.9061852" lon="49.1828691"><time>2023-06-03T04:57:11.870</time></trkpt><trkpt lat="55.9061557" lon="49.1829977"><time>2023-06-03T04:57:13.887</time></trkpt><trkpt lat="55.9061323" lon="49.1831230"><time>2023-06-03T04:57:15.883</time></trkpt><trkpt lat="55.9061152" lon="49.1832556"><time>2023-06-03T04:57:17.863</time></trkpt><trkpt lat="55.9061099" lon="49.1833781"><time>2023-06-03T04:57:19.877</time></trkpt><trkpt lat="55.9061276" lon="49.1835338"><time>2023-06-03T04:57:21.897</time></trkpt><trkpt lat="55.9061288" lon="49.1836292"><time>2023-06-03T04:57:22.893</time></trkpt><trkpt lat="55.9061318" lon="49.1837280"><time>2023-06-03T04:57:23.880</time></trkpt><trkpt lat="55.9061295" lon="49.1838273"><time>2023-06-03T04:57:24.877</time></trkpt><trkpt lat="55.9061252" lon="49.1839317"><time>2023-06-03T04:57:25.913</time></trkpt><trkpt lat="55.9061202" lon="49.1840292"><time>2023-06-03T04:57:26.893</time></trkpt><trkpt lat="55.9061069" lon="49.1841123"><time>2023-06-03T04:57:27.877</time></trkpt><trkpt lat="55.9060919" lon="49.1841963"><time>2023-06-03T04:57:28.910</time></trkpt><trkpt lat="55.9060715" lon="49.1842705"><time>2023-06-03T04:57:29.887</time></trkpt><trkpt lat="55.9060406" lon="49.1844045"><time>2023-06-03T04:57:31.890</time></trkpt><trkpt lat="55.9060427" lon="49.1844971"><time>2023-06-03T04:57:33.887</time></trkpt><trkpt lat="55.9060250" lon="49.1846153"><time>2023-06-03T04:57:35.873</time></trkpt><trkpt lat="55.9060076" lon="49.1847262"><time>2023-06-03T04:57:37.887</time></trkpt><trkpt lat="55.9059848" lon="49.1848222"><time>2023-06-03T04:57:39.880</time></trkpt><trkpt lat="55.9059570" lon="49.1849347"><time>2023-06-03T04:57:41.877</time></trkpt><trkpt lat="55.9059293" lon="49.1850370"><time>2023-06-03T04:57:43.880</time></trkpt><trkpt lat="55.9058957" lon="49.1851462"><time>2023-06-03T04:57:45.877</time></trkpt><trkpt lat="55.9058652" lon="49.1852303"><time>2023-06-03T04:57:47.880</time></trkpt><trkpt lat="55.9058361" lon="49.1853111"><time>2023-06-03T04:57:49.873</time></trkpt><trkpt lat="55.9058060" lon="49.1853711"><time>2023-06-03T04:57:51.880</time></trkpt><trkpt lat="55.9057610" lon="49.1854373"><time>2023-06-03T04:57:54.873</time></trkpt><trkpt lat="55.9057159" lon="49.1853720"><time>2023-06-03T04:58:27.910</time></trkpt><trkpt lat="55.9056853" lon="49.1852936"><time>2023-06-03T04:58:29.880</time></trkpt><trkpt lat="55.9056613" lon="49.1852171"><time>2023-06-03T04:58:31.877</time></trkpt><trkpt lat="55.9056452" lon="49.1851277"><time>2023-06-03T04:58:33.900</time></trkpt><trkpt lat="55.9056376" lon="49.1850320"><time>2023-06-03T04:58:35.887</time></trkpt><trkpt lat="55.9056421" lon="49.1849059"><time>2023-06-03T04:58:37.963</time></trkpt><trkpt lat="55.9056479" lon="49.1848482"><time>2023-06-03T04:58:38.890</time></trkpt><trkpt lat="55.9056542" lon="49.1847261"><time>2023-06-03T04:58:40.883</time></trkpt><trkpt lat="55.9056493" lon="49.1846222"><time>2023-06-03T04:58:42.880</time></trkpt><trkpt lat="55.9056463" lon="49.1845088"><time>2023-06-03T04:58:44.877</time></trkpt><trkpt lat="55.9056487" lon="49.1844158"><time>2023-06-03T04:58:46.870</time></trkpt><trkpt lat="55.9056457" lon="49.1843133"><time>2023-06-03T04:58:48.873</time></trkpt><trkpt lat="55.9056239" lon="49.1842221"><time>2023-06-03T04:58:50.877</time></trkpt><trkpt lat="55.9056036" lon="49.1841444"><time>2023-06-03T04:58:52.880</time></trkpt><trkpt lat="55.9055760" lon="49.1840602"><time>2023-06-03T04:58:55.880</time></trkpt><trkpt lat="55.9055582" lon="49.1839345"><time>2023-06-03T04:58:58.887</time></trkpt><trkpt lat="55.9055684" lon="49.1838543"><time>2023-06-03T04:59:00.877</time></trkpt><trkpt lat="55.9055594" lon="49.1837628"><time>2023-06-03T04:59:04.890</time></trkpt><trkpt lat="55.9055534" lon="49.1837477"><time>2023-06-03T04:59:05.883</time></trkpt><trkpt lat="55.9055611" lon="49.1836611"><time>2023-06-03T04:59:09.883</time></trkpt><trkpt lat="55.9055786" lon="49.1835859"><time>2023-06-03T04:59:12.873</time></trkpt><trkpt lat="55.9055822" lon="49.1834896"><time>2023-06-03T04:59:17.883</time></trkpt><trkpt lat="55.9055905" lon="49.1834014"><time>2023-06-03T04:59:22.880</time></trkpt><trkpt lat="55.9056351" lon="49.1833813"><time>2023-06-03T04:59:39.880</time></trkpt><trkpt lat="55.9056836" lon="49.1833716"><time>2023-06-03T04:59:43.860</time></trkpt><trkpt lat="55.9056647" lon="49.1834820"><time>2023-06-03T04:59:54.863</time></trkpt><trkpt lat="55.9056401" lon="49.1835633"><time>2023-06-03T04:59:56.860</time></trkpt><trkpt lat="55.9055984" lon="49.1836474"><time>2023-06-03T04:59:59.873</time></trkpt><trkpt lat="55.9055753" lon="49.1837189"><time>2023-06-03T05:00:01.867</time></trkpt><trkpt lat="55.9055418" lon="49.1837794"><time>2023-06-03T05:00:05.897</time></trkpt><trkpt lat="55.9055450" lon="49.1838075"><time>2023-06-03T05:00:06.857</time></trkpt><trkpt lat="55.9055388" lon="49.1839157"><time>2023-06-03T05:00:10.857</time></trkpt><trkpt lat="55.9055255" lon="49.1840098"><time>2023-06-03T05:00:12.853</time></trkpt><trkpt lat="55.9055048" lon="49.1840976"><time>2023-06-03T05:00:15.867</time></trkpt><trkpt lat="55.9054760" lon="49.1841697"><time>2023-06-03T05:00:18.873</time></trkpt><trkpt lat="55.9054643" lon="49.1842644"><time>2023-06-03T05:00:21.853</time></trkpt><trkpt lat="55.9054759" lon="49.1843756"><time>2023-06-03T05:00:23.867</time></trkpt><trkpt lat="55.9054471" lon="49.1844507"><time>2023-06-03T05:00:25.893</time></trkpt><trkpt lat="55.9054471" lon="49.1844507"><time>2023-06-03T05:00:25.943</time></trkpt><trkpt lat="55.9054482" lon="49.1845438"><time>2023-06-03T05:00:30.870</time></trkpt><trkpt lat="55.9054573" lon="49.1845888"><time>2023-06-03T05:00:31.863</time></trkpt><trkpt lat="55.9054744" lon="49.1846677"><time>2023-06-03T05:00:33.883</time></trkpt><trkpt lat="55.9055054" lon="49.1847576"><time>2023-06-03T05:00:36.053</time></trkpt><trkpt lat="55.9055310" lon="49.1848310"><time>2023-06-03T05:00:37.873</time></trkpt><trkpt lat="55.9055569" lon="49.1849053"><time>2023-06-03T05:00:39.873</time></trkpt><trkpt lat="55.9055826" lon="49.1850213"><time>2023-06-03T05:00:42.880</time></trkpt><trkpt lat="55.9055972" lon="49.1851296"><time>2023-06-03T05:00:45.873</time></trkpt><trkpt lat="55.9056035" lon="49.1852154"><time>2023-06-03T05:00:47.893</time></trkpt><trkpt lat="55.9056213" lon="49.1852919"><time>2023-06-03T05:00:53.573</time></trkpt><trkpt lat="55.9056539" lon="49.1853700"><time>2023-06-03T05:00:55.887</time></trkpt><trkpt lat="55.9056857" lon="49.1854545"><time>2023-06-03T05:00:59.873</time></trkpt><trkpt lat="55.9057320" lon="49.1855066"><time>2023-06-03T05:01:02.873</time></trkpt><trkpt lat="55.9057763" lon="49.1854698"><time>2023-06-03T05:01:20.883</time></trkpt><trkpt lat="55.9058195" lon="49.1854432"><time>2023-06-03T05:01:23.887</time></trkpt><trkpt lat="55.9058419" lon="49.1855175"><time>2023-06-03T05:01:33.870</time></trkpt><trkpt lat="55.9058879" lon="49.1855667"><time>2023-06-03T05:01:35.887</time></trkpt><trkpt lat="55.9059353" lon="49.1856245"><time>2023-06-03T05:01:37.890</time></trkpt><trkpt lat="55.9059653" lon="49.1856910"><time>2023-06-03T05:01:39.867</time></trkpt><trkpt lat="55.9059830" lon="49.1857734"><time>2023-06-03T05:01:41.877</time></trkpt><trkpt lat="55.9059974" lon="49.1858788"><time>2023-06-03T05:01:43.850</time></trkpt><trkpt lat="55.9060017" lon="49.1860166"><time>2023-06-03T05:01:45.880</time></trkpt><trkpt lat="55.9059848" lon="49.1861496"><time>2023-06-03T05:01:47.867</time></trkpt><trkpt lat="55.9059763" lon="49.1862852"><time>2023-06-03T05:01:49.867</time></trkpt><trkpt lat="55.9059855" lon="49.1864302"><time>2023-06-03T05:01:51.867</time></trkpt><trkpt lat="55.9060079" lon="49.1865692"><time>2023-06-03T05:01:53.873</time></trkpt><trkpt lat="55.9060370" lon="49.1867062"><time>2023-06-03T05:01:55.873</time></trkpt><trkpt lat="55.9060559" lon="49.1868549"><time>2023-06-03T05:01:57.873</time></trkpt><trkpt lat="55.9060364" lon="49.1869929"><time>2023-06-03T05:01:59.877</time></trkpt><trkpt lat="55.9059953" lon="49.1870973"><time>2023-06-03T05:02:01.873</time></trkpt><trkpt lat="55.9059547" lon="49.1871645"><time>2023-06-03T05:02:03.870</time></trkpt><trkpt lat="55.9059046" lon="49.1872305"><time>2023-06-03T05:02:05.877</time></trkpt><trkpt lat="55.9058465" lon="49.1872956"><time>2023-06-03T05:02:07.880</time></trkpt><trkpt lat="55.9057893" lon="49.1873633"><time>2023-06-03T05:02:09.887</time></trkpt><trkpt lat="55.9057562" lon="49.1874362"><time>2023-06-03T05:02:11.887</time></trkpt><trkpt lat="55.9057574" lon="49.1875291"><time>2023-06-03T05:02:18.893</time></trkpt><trkpt lat="55.9057567" lon="49.1876189"><time>2023-06-03T05:02:22.880</time></trkpt><trkpt lat="55.9057678" lon="49.1876985"><time>2023-06-03T05:02:26.867</time></trkpt><trkpt lat="55.9057901" lon="49.1877780"><time>2023-06-03T05:02:30.867</time></trkpt><trkpt lat="55.9058191" lon="49.1878561"><time>2023-06-03T05:02:35.897</time></trkpt><trkpt lat="55.9058445" lon="49.1879239"><time>2023-06-03T05:02:37.877</time></trkpt><trkpt lat="55.9058447" lon="49.1880295"><time>2023-06-03T05:02:39.880</time></trkpt><trkpt lat="55.9058044" lon="49.1881506"><time>2023-06-03T05:02:41.887</time></trkpt><trkpt lat="55.9057231" lon="49.1882799"><time>2023-06-03T05:02:43.883</time></trkpt><trkpt lat="55.9056948" lon="49.1883518"><time>2023-06-03T05:02:44.927</time></trkpt><trkpt lat="55.9056693" lon="49.1884213"><time>2023-06-03T05:02:45.880</time></trkpt><trkpt lat="55.9056498" lon="49.1884935"><time>2023-06-03T05:02:46.860</time></trkpt><trkpt lat="55.9056101" lon="49.1886325"><time>2023-06-03T05:02:48.877</time></trkpt><trkpt lat="55.9055795" lon="49.1887144"><time>2023-06-03T05:02:49.887</time></trkpt><trkpt lat="55.9055355" lon="49.1888663"><time>2023-06-03T05:02:51.883</time></trkpt><trkpt lat="55.9055014" lon="49.1889382"><time>2023-06-03T05:02:52.883</time></trkpt><trkpt lat="55.9054712" lon="49.1890079"><time>2023-06-03T05:02:53.877</time></trkpt><trkpt lat="55.9054452" lon="49.1890759"><time>2023-06-03T05:02:54.877</time></trkpt><trkpt lat="55.9054102" lon="49.1891961"><time>2023-06-03T05:02:56.927</time></trkpt><trkpt lat="55.9053612" lon="49.1893199"><time>2023-06-03T05:02:58.870</time></trkpt><trkpt lat="55.9053231" lon="49.1893842"><time>2023-06-03T05:02:59.893</time></trkpt><trkpt lat="55.9052938" lon="49.1894462"><time>2023-06-03T05:03:00.877</time></trkpt><trkpt lat="55.9052408" lon="49.1895498"><time>2023-06-03T05:03:02.890</time></trkpt><trkpt lat="55.9051913" lon="49.1896594"><time>2023-06-03T05:03:04.883</time></trkpt><trkpt lat="55.9051520" lon="49.1897715"><time>2023-06-03T05:03:06.887</time></trkpt><trkpt lat="55.9051257" lon="49.1898864"><time>2023-06-03T05:03:08.920</time></trkpt><trkpt lat="55.9051389" lon="49.1900069"><time>2023-06-03T05:03:10.880</time></trkpt><trkpt lat="55.9051817" lon="49.1901249"><time>2023-06-03T05:03:12.883</time></trkpt><trkpt lat="55.9052367" lon="49.1902238"><time>2023-06-03T05:03:14.890</time></trkpt><trkpt lat="55.9052733" lon="49.1902710"><time>2023-06-03T05:03:15.883</time></trkpt><trkpt lat="55.9053117" lon="49.1903141"><time>2023-06-03T05:03:16.883</time></trkpt><trkpt lat="55.9053834" lon="49.1903963"><time>2023-06-03T05:03:18.867</time></trkpt><trkpt lat="55.9054374" lon="49.1904558"><time>2023-06-03T05:03:20.877</time></trkpt><trkpt lat="55.9054864" lon="49.1905075"><time>2023-06-03T05:03:22.883</time></trkpt><trkpt lat="55.9055340" lon="49.1905527"><time>2023-06-03T05:03:24.880</time></trkpt><trkpt lat="55.9056112" lon="49.1905736"><time>2023-06-03T05:03:26.887</time></trkpt><trkpt lat="55.9056947" lon="49.1905572"><time>2023-06-03T05:03:28.887</time></trkpt><trkpt lat="55.9057780" lon="49.1905403"><time>2023-06-03T05:03:30.883</time></trkpt><trkpt lat="55.9058636" lon="49.1905211"><time>2023-06-03T05:03:32.870</time></trkpt><trkpt lat="55.9059434" lon="49.1905064"><time>2023-06-03T05:03:34.870</time></trkpt><trkpt lat="55.9060282" lon="49.1905014"><time>2023-06-03T05:03:36.893</time></trkpt><trkpt lat="55.9061084" lon="49.1905102"><time>2023-06-03T05:03:38.877</time></trkpt><trkpt lat="55.9061578" lon="49.1905180"><time>2023-06-03T05:03:39.877</time></trkpt><trkpt lat="55.9062022" lon="49.1905436"><time>2023-06-03T05:03:40.873</time></trkpt><trkpt lat="55.9062548" lon="49.1905542"><time>2023-06-03T05:03:41.867</time></trkpt><trkpt lat="55.9063047" lon="49.1905675"><time>2023-06-03T05:03:42.917</time></trkpt><trkpt lat="55.9063819" lon="49.1906122"><time>2023-06-03T05:03:44.867</time></trkpt><trkpt lat="55.9064689" lon="49.1906333"><time>2023-06-03T05:03:46.873</time></trkpt><trkpt lat="55.9065521" lon="49.1906640"><time>2023-06-03T05:03:48.897</time></trkpt><trkpt lat="55.9066299" lon="49.1907210"><time>2023-06-03T05:03:50.860</time></trkpt><trkpt lat="55.9067042" lon="49.1908005"><time>2023-06-03T05:03:52.877</time></trkpt><trkpt lat="55.9068024" lon="49.1908327"><time>2023-06-03T05:03:54.913</time></trkpt><trkpt lat="55.9068916" lon="49.1908913"><time>2023-06-03T05:03:56.870</time></trkpt><trkpt lat="55.9069670" lon="49.1909638"><time>2023-06-03T05:03:58.880</time></trkpt><trkpt lat="55.9070434" lon="49.1910157"><time>2023-06-03T05:04:00.887</time></trkpt><trkpt lat="55.9070885" lon="49.1910276"><time>2023-06-03T05:04:01.877</time></trkpt><trkpt lat="55.9071367" lon="49.1910440"><time>2023-06-03T05:04:02.880</time></trkpt><trkpt lat="55.9072262" lon="49.1910576"><time>2023-06-03T05:04:04.870</time></trkpt><trkpt lat="55.9072718" lon="49.1910791"><time>2023-06-03T05:04:05.873</time></trkpt><trkpt lat="55.9073606" lon="49.1911012"><time>2023-06-03T05:04:07.870</time></trkpt><trkpt lat="55.9074356" lon="49.1911527"><time>2023-06-03T05:04:09.877</time></trkpt><trkpt lat="55.9075064" lon="49.1911392"><time>2023-06-03T05:04:11.887</time></trkpt><trkpt lat="55.9076016" lon="49.1911355"><time>2023-06-03T05:04:13.880</time></trkpt><trkpt lat="55.9076807" lon="49.1911442"><time>2023-06-03T05:04:15.877</time></trkpt><trkpt lat="55.9077419" lon="49.1912259"><time>2023-06-03T05:04:17.867</time></trkpt><trkpt lat="55.9077691" lon="49.1912970"><time>2023-06-03T05:04:18.920</time></trkpt><trkpt lat="55.9078067" lon="49.1914265"><time>2023-06-03T05:04:20.873</time></trkpt><trkpt lat="55.9078306" lon="49.1915687"><time>2023-06-03T05:04:22.883</time></trkpt><trkpt lat="55.9078199" lon="49.1916537"><time>2023-06-03T05:04:23.877</time></trkpt><trkpt lat="55.9078054" lon="49.1917709"><time>2023-06-03T05:04:25.870</time></trkpt><trkpt lat="55.9077878" lon="49.1918990"><time>2023-06-03T05:04:27.870</time></trkpt><trkpt lat="55.9077864" lon="49.1920474"><time>2023-06-03T05:04:29.880</time></trkpt><trkpt lat="55.9078159" lon="49.1921781"><time>2023-06-03T05:04:31.883</time></trkpt><trkpt lat="55.9078594" lon="49.1922912"><time>2023-06-03T05:04:33.883</time></trkpt><trkpt lat="55.9078972" lon="49.1923995"><time>2023-06-03T05:04:35.870</time></trkpt><trkpt lat="55.9079491" lon="49.1924917"><time>2023-06-03T05:04:37.877</time></trkpt><trkpt lat="55.9079968" lon="49.1925406"><time>2023-06-03T05:04:39.870</time></trkpt><trkpt lat="55.9080527" lon="49.1925891"><time>2023-06-03T05:04:41.877</time></trkpt><trkpt lat="55.9080920" lon="49.1926451"><time>2023-06-03T05:04:43.877</time></trkpt><trkpt lat="55.9081212" lon="49.1927170"><time>2023-06-03T05:04:45.877</time></trkpt><trkpt lat="55.9081473" lon="49.1928108"><time>2023-06-03T05:04:47.877</time></trkpt><trkpt lat="55.9081635" lon="49.1929012"><time>2023-06-03T05:04:49.873</time></trkpt><trkpt lat="55.9081815" lon="49.1930186"><time>2023-06-03T05:04:52.873</time></trkpt><trkpt lat="55.9081930" lon="49.1931167"><time>2023-06-03T05:04:54.847</time></trkpt><trkpt lat="55.9081960" lon="49.1932340"><time>2023-06-03T05:04:56.870</time></trkpt><trkpt lat="55.9081881" lon="49.1933552"><time>2023-06-03T05:04:58.873</time></trkpt><trkpt lat="55.9081852" lon="49.1934847"><time>2023-06-03T05:05:00.890</time></trkpt><trkpt lat="55.9081877" lon="49.1936296"><time>2023-06-03T05:05:02.863</time></trkpt><trkpt lat="55.9081807" lon="49.1937701"><time>2023-06-03T05:05:04.873</time></trkpt><trkpt lat="55.9081687" lon="49.1939050"><time>2023-06-03T05:05:06.893</time></trkpt><trkpt lat="55.9081715" lon="49.1940301"><time>2023-06-03T05:05:08.867</time></trkpt><trkpt lat="55.9082006" lon="49.1941428"><time>2023-06-03T05:05:10.863</time></trkpt><trkpt lat="55.9082481" lon="49.1942416"><time>2023-06-03T05:05:12.890</time></trkpt><trkpt lat="55.9082975" lon="49.1943374"><time>2023-06-03T05:05:14.877</time></trkpt><trkpt lat="55.9083524" lon="49.1944229"><time>2023-06-03T05:05:16.870</time></trkpt><trkpt lat="55.9084095" lon="49.1945163"><time>2023-06-03T05:05:18.917</time></trkpt><trkpt lat="55.9084621" lon="49.1946097"><time>2023-06-03T05:05:20.877</time></trkpt><trkpt lat="55.9085199" lon="49.1947092"><time>2023-06-03T05:05:22.877</time></trkpt><trkpt lat="55.9085781" lon="49.1948065"><time>2023-06-03T05:05:24.897</time></trkpt><trkpt lat="55.9086342" lon="49.1949103"><time>2023-06-03T05:05:26.877</time></trkpt><trkpt lat="55.9086934" lon="49.1949908"><time>2023-06-03T05:05:28.877</time></trkpt><trkpt lat="55.9087366" lon="49.1950414"><time>2023-06-03T05:05:30.913</time></trkpt><trkpt lat="55.9087960" lon="49.1950649"><time>2023-06-03T05:05:32.877</time></trkpt><trkpt lat="55.9088519" lon="49.1950324"><time>2023-06-03T05:05:33.877</time></trkpt><trkpt lat="55.9089101" lon="49.1950111"><time>2023-06-03T05:05:34.873</time></trkpt><trkpt lat="55.9089678" lon="49.1950166"><time>2023-06-03T05:05:35.873</time></trkpt><trkpt lat="55.9090284" lon="49.1950275"><time>2023-06-03T05:05:36.860</time></trkpt><trkpt lat="55.9090811" lon="49.1950769"><time>2023-06-03T05:05:37.883</time></trkpt><trkpt lat="55.9091579" lon="49.1951447"><time>2023-06-03T05:05:39.877</time></trkpt><trkpt lat="55.9091974" lon="49.1952103"><time>2023-06-03T05:05:40.880</time></trkpt><trkpt lat="55.9092600" lon="49.1952981"><time>2023-06-03T05:05:42.873</time></trkpt><trkpt lat="55.9093212" lon="49.1954037"><time>2023-06-03T05:05:44.873</time></trkpt><trkpt lat="55.9093235" lon="49.1954963"><time>2023-06-03T05:05:45.870</time></trkpt><trkpt lat="55.9093757" lon="49.1955722"><time>2023-06-03T05:05:47.893</time></trkpt><trkpt lat="55.9094319" lon="49.1956576"><time>2023-06-03T05:05:49.870</time></trkpt><trkpt lat="55.9094797" lon="49.1957832"><time>2023-06-03T05:05:51.870</time></trkpt><trkpt lat="55.9095268" lon="49.1958974"><time>2023-06-03T05:05:53.927</time></trkpt><trkpt lat="55.9095820" lon="49.1960076"><time>2023-06-03T05:05:55.877</time></trkpt><trkpt lat="55.9096385" lon="49.1961160"><time>2023-06-03T05:05:57.880</time></trkpt><trkpt lat="55.9096834" lon="49.1962290"><time>2023-06-03T05:05:59.900</time></trkpt><trkpt lat="55.9097171" lon="49.1963561"><time>2023-06-03T05:06:01.880</time></trkpt><trkpt lat="55.9097482" lon="49.1964906"><time>2023-06-03T05:06:03.877</time></trkpt><trkpt lat="55.9097921" lon="49.1966191"><time>2023-06-03T05:06:05.910</time></trkpt><trkpt lat="55.9098397" lon="49.1967210"><time>2023-06-03T05:06:07.887</time></trkpt><trkpt lat="55.9098974" lon="49.1968021"><time>2023-06-03T05:06:09.873</time></trkpt><trkpt lat="55.9099489" lon="49.1968659"><time>2023-06-03T05:06:11.897</time></trkpt><trkpt lat="55.9099890" lon="49.1969228"><time>2023-06-03T05:06:13.880</time></trkpt><trkpt lat="55.9100162" lon="49.1970065"><time>2023-06-03T05:06:47.880</time></trkpt><trkpt lat="55.9100330" lon="49.1970912"><time>2023-06-03T05:06:49.877</time></trkpt><trkpt lat="55.9100468" lon="49.1972042"><time>2023-06-03T05:06:51.920</time></trkpt><trkpt lat="55.9100438" lon="49.1973300"><time>2023-06-03T05:06:53.883</time></trkpt><trkpt lat="55.9100194" lon="49.1974372"><time>2023-06-03T05:06:55.880</time></trkpt><trkpt lat="55.9099724" lon="49.1975386"><time>2023-06-03T05:06:57.910</time></trkpt><trkpt lat="55.9099266" lon="49.1976420"><time>2023-06-03T05:06:59.883</time></trkpt><trkpt lat="55.9098922" lon="49.1977608"><time>2023-06-03T05:07:01.887</time></trkpt><trkpt lat="55.9098616" lon="49.1978807"><time>2023-06-03T05:07:03.877</time></trkpt><trkpt lat="55.9098310" lon="49.1980000"><time>2023-06-03T05:07:05.870</time></trkpt><trkpt lat="55.9097903" lon="49.1981161"><time>2023-06-03T05:07:07.883</time></trkpt><trkpt lat="55.9097525" lon="49.1982148"><time>2023-06-03T05:07:09.873</time></trkpt><trkpt lat="55.9097184" lon="49.1983216"><time>2023-06-03T05:07:11.887</time></trkpt><trkpt lat="55.9096835" lon="49.1984280"><time>2023-06-03T05:07:13.870</time></trkpt><trkpt lat="55.9096447" lon="49.1985243"><time>2023-06-03T05:07:15.867</time></trkpt><trkpt lat="55.9096067" lon="49.1986086"><time>2023-06-03T05:07:17.887</time></trkpt><trkpt lat="55.9095838" lon="49.1986467"><time>2023-06-03T05:07:18.873</time></trkpt><trkpt lat="55.9095310" lon="49.1987111"><time>2023-06-03T05:07:20.880</time></trkpt><trkpt lat="55.9094766" lon="49.1987615"><time>2023-06-03T05:07:22.880</time></trkpt><trkpt lat="55.9094140" lon="49.1988189"><time>2023-06-03T05:07:24.867</time></trkpt><trkpt lat="55.9093459" lon="49.1988791"><time>2023-06-03T05:07:26.903</time></trkpt><trkpt lat="55.9093020" lon="49.1989000"><time>2023-06-03T05:07:35.873</time></trkpt><trkpt lat="55.9092473" lon="49.1989424"><time>2023-06-03T05:07:39.867</time></trkpt><trkpt lat="55.9091936" lon="49.1989790"><time>2023-06-03T05:07:44.883</time></trkpt><trkpt lat="55.9091871" lon="49.1990850"><time>2023-06-03T05:07:52.877</time></trkpt><trkpt lat="55.9091985" lon="49.1991952"><time>2023-06-03T05:07:54.857</time></trkpt><trkpt lat="55.9092050" lon="49.1993194"><time>2023-06-03T05:07:56.883</time></trkpt><trkpt lat="55.9091955" lon="49.1994368"><time>2023-06-03T05:07:58.867</time></trkpt><trkpt lat="55.9091613" lon="49.1995443"><time>2023-06-03T05:08:00.870</time></trkpt><trkpt lat="55.9091100" lon="49.1996293"><time>2023-06-03T05:08:02.893</time></trkpt><trkpt lat="55.9090513" lon="49.1997043"><time>2023-06-03T05:08:04.867</time></trkpt><trkpt lat="55.9089896" lon="49.1997822"><time>2023-06-03T05:08:06.863</time></trkpt><trkpt lat="55.9089308" lon="49.1998677"><time>2023-06-03T05:08:08.887</time></trkpt><trkpt lat="55.9088834" lon="49.1999655"><time>2023-06-03T05:08:10.870</time></trkpt><trkpt lat="55.9088331" lon="49.2000620"><time>2023-06-03T05:08:12.860</time></trkpt><trkpt lat="55.9087776" lon="49.2001651"><time>2023-06-03T05:08:14.903</time></trkpt><trkpt lat="55.9087220" lon="49.2002783"><time>2023-06-03T05:08:16.857</time></trkpt><trkpt lat="55.9086756" lon="49.2003912"><time>2023-06-03T05:08:18.863</time></trkpt><trkpt lat="55.9086392" lon="49.2005123"><time>2023-06-03T05:08:20.883</time></trkpt><trkpt lat="55.9086085" lon="49.2006372"><time>2023-06-03T05:08:22.863</time></trkpt><trkpt lat="55.9085854" lon="49.2007666"><time>2023-06-03T05:08:24.867</time></trkpt><trkpt lat="55.9085650" lon="49.2008945"><time>2023-06-03T05:08:26.873</time></trkpt><trkpt lat="55.9085459" lon="49.2010246"><time>2023-06-03T05:08:28.870</time></trkpt><trkpt lat="55.9085286" lon="49.2011491"><time>2023-06-03T05:08:30.863</time></trkpt><trkpt lat="55.9085134" lon="49.2012834"><time>2023-06-03T05:08:32.887</time></trkpt><trkpt lat="55.9085097" lon="49.2013527"><time>2023-06-03T05:08:33.873</time></trkpt><trkpt lat="55.9085071" lon="49.2014968"><time>2023-06-03T05:08:35.877</time></trkpt><trkpt lat="55.9085110" lon="49.2016608"><time>2023-06-03T05:08:37.907</time></trkpt><trkpt lat="55.9085153" lon="49.2017968"><time>2023-06-03T05:08:39.870</time></trkpt><trkpt lat="55.9085248" lon="49.2019404"><time>2023-06-03T05:08:41.873</time></trkpt><trkpt lat="55.9085439" lon="49.2020698"><time>2023-06-03T05:08:43.887</time></trkpt><trkpt lat="55.9085636" lon="49.2022006"><time>2023-06-03T05:08:45.873</time></trkpt><trkpt lat="55.9086004" lon="49.2022962"><time>2023-06-03T05:08:47.890</time></trkpt><trkpt lat="55.9086212" lon="49.2024224"><time>2023-06-03T05:08:49.913</time></trkpt><trkpt lat="55.9086414" lon="49.2025517"><time>2023-06-03T05:08:51.870</time></trkpt><trkpt lat="55.9086452" lon="49.2026719"><time>2023-06-03T05:08:53.967</time></trkpt><trkpt lat="55.9086389" lon="49.2027230"><time>2023-06-03T05:08:54.863</time></trkpt><trkpt lat="55.9086094" lon="49.2028257"><time>2023-06-03T05:08:56.867</time></trkpt><trkpt lat="55.9085689" lon="49.2029066"><time>2023-06-03T05:08:58.873</time></trkpt><trkpt lat="55.9085107" lon="49.2029731"><time>2023-06-03T05:09:00.863</time></trkpt><trkpt lat="55.9084534" lon="49.2030078"><time>2023-06-03T05:09:02.860</time></trkpt><trkpt lat="55.9084151" lon="49.2030866"><time>2023-06-03T05:09:05.870</time></trkpt><trkpt lat="55.9084648" lon="49.2031628"><time>2023-06-03T05:09:08.863</time></trkpt><trkpt lat="55.9085171" lon="49.2031801"><time>2023-06-03T05:09:10.873</time></trkpt><trkpt lat="55.9085750" lon="49.2031931"><time>2023-06-03T05:09:12.907</time></trkpt><trkpt lat="55.9086449" lon="49.2031977"><time>2023-06-03T05:09:14.870</time></trkpt><trkpt lat="55.9087042" lon="49.2031857"><time>2023-06-03T05:09:16.877</time></trkpt><trkpt lat="55.9087560" lon="49.2031787"><time>2023-06-03T05:09:18.903</time></trkpt><trkpt lat="55.9088134" lon="49.2030830"><time>2023-06-03T05:09:46.880</time></trkpt><trkpt lat="55.9088652" lon="49.2030005"><time>2023-06-03T05:09:48.923</time></trkpt><trkpt lat="55.9088918" lon="49.2029609"><time>2023-06-03T05:09:49.873</time></trkpt><trkpt lat="55.9089417" lon="49.2028544"><time>2023-06-03T05:09:51.877</time></trkpt><trkpt lat="55.9089900" lon="49.2027338"><time>2023-06-03T05:09:53.873</time></trkpt><trkpt lat="55.9090312" lon="49.2026227"><time>2023-06-03T05:09:55.883</time></trkpt><trkpt lat="55.9090585" lon="49.2025176"><time>2023-06-03T05:09:57.880</time></trkpt><trkpt lat="55.9090922" lon="49.2024239"><time>2023-06-03T05:09:59.883</time></trkpt><trkpt lat="55.9091140" lon="49.2023329"><time>2023-06-03T05:10:01.980</time></trkpt><trkpt lat="55.9091234" lon="49.2022968"><time>2023-06-03T05:10:02.863</time></trkpt><trkpt lat="55.9091485" lon="49.2022095"><time>2023-06-03T05:10:04.860</time></trkpt><trkpt lat="55.9091747" lon="49.2021360"><time>2023-06-03T05:10:06.863</time></trkpt><trkpt lat="55.9091750" lon="49.2020489"><time>2023-06-03T05:10:13.877</time></trkpt><trkpt lat="55.9092125" lon="49.2019780"><time>2023-06-03T05:10:17.880</time></trkpt><trkpt lat="55.9092638" lon="49.2019552"><time>2023-06-03T05:10:21.880</time></trkpt><trkpt lat="55.9092638" lon="49.2019552"><time>2023-06-03T05:10:21.933</time></trkpt><trkpt lat="55.9093088" lon="49.2019583"><time>2023-06-03T05:10:24.883</time></trkpt><trkpt lat="55.9093165" lon="49.2019565"><time>2023-06-03T05:10:25.870</time></trkpt><trkpt lat="55.9092620" lon="49.2019467"><time>2023-06-03T05:10:34.877</time></trkpt><trkpt lat="55.9092136" lon="49.2019954"><time>2023-06-03T05:10:39.877</time></trkpt><trkpt lat="55.9091742" lon="49.2020681"><time>2023-06-03T05:11:18.863</time></trkpt><trkpt lat="55.9091697" lon="49.2021844"><time>2023-06-03T05:11:20.877</time></trkpt><trkpt lat="55.9091464" lon="49.2023309"><time>2023-06-03T05:11:22.880</time></trkpt><trkpt lat="55.9091174" lon="49.2024886"><time>2023-06-03T05:11:24.877</time></trkpt><trkpt lat="55.9090979" lon="49.2025670"><time>2023-06-03T05:11:25.887</time></trkpt><trkpt lat="55.9090759" lon="49.2026393"><time>2023-06-03T05:11:26.870</time></trkpt><trkpt lat="55.9090509" lon="49.2027129"><time>2023-06-03T05:11:27.877</time></trkpt><trkpt lat="55.9089936" lon="49.2028411"><time>2023-06-03T05:11:28.880</time></trkpt><trkpt lat="55.9089611" lon="49.2029015"><time>2023-06-03T05:11:29.900</time></trkpt><trkpt lat="55.9089189" lon="49.2029505"><time>2023-06-03T05:11:30.867</time></trkpt><trkpt lat="55.9088572" lon="49.2030340"><time>2023-06-03T05:11:32.877</time></trkpt><trkpt lat="55.9088139" lon="49.2031122"><time>2023-06-03T05:11:34.883</time></trkpt><trkpt lat="55.9087560" lon="49.2031555"><time>2023-06-03T05:11:36.870</time></trkpt><trkpt lat="55.9086958" lon="49.2031955"><time>2023-06-03T05:11:38.873</time></trkpt><trkpt lat="55.9086235" lon="49.2032012"><time>2023-06-03T05:11:40.870</time></trkpt><trkpt lat="55.9085534" lon="49.2031896"><time>2023-06-03T05:11:42.870</time></trkpt><trkpt lat="55.9085013" lon="49.2031820"><time>2023-06-03T05:11:44.873</time></trkpt><trkpt lat="55.9084509" lon="49.2031704"><time>2023-06-03T05:11:46.883</time></trkpt><trkpt lat="55.9083933" lon="49.2031446"><time>2023-06-03T05:11:48.867</time></trkpt><trkpt lat="55.9083241" lon="49.2031142"><time>2023-06-03T05:11:50.863</time></trkpt><trkpt lat="55.9082446" lon="49.2030930"><time>2023-06-03T05:11:52.883</time></trkpt><trkpt lat="55.9081630" lon="49.2030898"><time>2023-06-03T05:11:54.887</time></trkpt><trkpt lat="55.9080923" lon="49.2031204"><time>2023-06-03T05:11:56.870</time></trkpt><trkpt lat="55.9080276" lon="49.2031751"><time>2023-06-03T05:11:58.877</time></trkpt><trkpt lat="55.9079441" lon="49.2032205"><time>2023-06-03T05:12:00.877</time></trkpt><trkpt lat="55.9078995" lon="49.2032317"><time>2023-06-03T05:12:01.867</time></trkpt><trkpt lat="55.9078546" lon="49.2032341"><time>2023-06-03T05:12:02.877</time></trkpt><trkpt lat="55.9077708" lon="49.2032349"><time>2023-06-03T05:12:04.883</time></trkpt><trkpt lat="55.9076915" lon="49.2032600"><time>2023-06-03T05:12:06.870</time></trkpt><trkpt lat="55.9076127" lon="49.2033001"><time>2023-06-03T05:12:08.880</time></trkpt><trkpt lat="55.9075642" lon="49.2033176"><time>2023-06-03T05:12:09.880</time></trkpt><trkpt lat="55.9074856" lon="49.2033506"><time>2023-06-03T05:12:11.913</time></trkpt><trkpt lat="55.9074087" lon="49.2033834"><time>2023-06-03T05:12:13.877</time></trkpt><trkpt lat="55.9073302" lon="49.2034083"><time>2023-06-03T05:12:15.877</time></trkpt><trkpt lat="55.9072381" lon="49.2034217"><time>2023-06-03T05:12:17.893</time></trkpt><trkpt lat="55.9071910" lon="49.2034298"><time>2023-06-03T05:12:18.877</time></trkpt><trkpt lat="55.9071063" lon="49.2034523"><time>2023-06-03T05:12:20.873</time></trkpt><trkpt lat="55.9070245" lon="49.2034600"><time>2023-06-03T05:12:22.883</time></trkpt><trkpt lat="55.9069580" lon="49.2034319"><time>2023-06-03T05:12:23.917</time></trkpt><trkpt lat="55.9069075" lon="49.2034240"><time>2023-06-03T05:12:24.877</time></trkpt><trkpt lat="55.9068513" lon="49.2034198"><time>2023-06-03T05:12:26.870</time></trkpt><trkpt lat="55.9067786" lon="49.2033515"><time>2023-06-03T05:12:28.873</time></trkpt><trkpt lat="55.9067302" lon="49.2033033"><time>2023-06-03T05:12:29.877</time></trkpt><trkpt lat="55.9066892" lon="49.2032491"><time>2023-06-03T05:12:30.873</time></trkpt><trkpt lat="55.9066160" lon="49.2031924"><time>2023-06-03T05:12:32.857</time></trkpt><trkpt lat="55.9065248" lon="49.2031538"><time>2023-06-03T05:12:34.877</time></trkpt><trkpt lat="55.9064763" lon="49.2031388"><time>2023-06-03T05:12:35.907</time></trkpt><trkpt lat="55.9064255" lon="49.2031305"><time>2023-06-03T05:12:36.877</time></trkpt><trkpt lat="55.9063755" lon="49.2031322"><time>2023-06-03T05:12:37.877</time></trkpt><trkpt lat="55.9063229" lon="49.2031268"><time>2023-06-03T05:12:38.870</time></trkpt><trkpt lat="55.9062689" lon="49.2031306"><time>2023-06-03T05:12:39.880</time></trkpt><trkpt lat="55.9062182" lon="49.2031314"><time>2023-06-03T05:12:40.873</time></trkpt><trkpt lat="55.9061658" lon="49.2031268"><time>2023-06-03T05:12:41.880</time></trkpt><trkpt lat="55.9061132" lon="49.2031216"><time>2023-06-03T05:12:42.873</time></trkpt><trkpt lat="55.9060538" lon="49.2031123"><time>2023-06-03T05:12:43.877</time></trkpt><trkpt lat="55.9060083" lon="49.2031056"><time>2023-06-03T05:12:44.873</time></trkpt><trkpt lat="55.9059613" lon="49.2031022"><time>2023-06-03T05:12:45.873</time></trkpt><trkpt lat="55.9059150" lon="49.2031075"><time>2023-06-03T05:12:46.877</time></trkpt><trkpt lat="55.9058686" lon="49.2031224"><time>2023-06-03T05:12:47.907</time></trkpt><trkpt lat="55.9058291" lon="49.2031687"><time>2023-06-03T05:12:48.903</time></trkpt><trkpt lat="55.9057839" lon="49.2032083"><time>2023-06-03T05:12:49.877</time></trkpt><trkpt lat="55.9057450" lon="49.2032593"><time>2023-06-03T05:12:50.880</time></trkpt><trkpt lat="55.9057066" lon="49.2033089"><time>2023-06-03T05:12:51.877</time></trkpt><trkpt lat="55.9056656" lon="49.2034550"><time>2023-06-03T05:12:53.887</time></trkpt><trkpt lat="55.9056337" lon="49.2035989"><time>2023-06-03T05:12:55.883</time></trkpt><trkpt lat="55.9056200" lon="49.2036838"><time>2023-06-03T05:12:56.877</time></trkpt><trkpt lat="55.9056054" lon="49.2037670"><time>2023-06-03T05:12:57.873</time></trkpt><trkpt lat="55.9055795" lon="49.2039153"><time>2023-06-03T05:12:59.893</time></trkpt><trkpt lat="55.9055623" lon="49.2039920"><time>2023-06-03T05:13:00.873</time></trkpt><trkpt lat="55.9055570" lon="49.2040772"><time>2023-06-03T05:13:01.867</time></trkpt><trkpt lat="55.9055337" lon="49.2041591"><time>2023-06-03T05:13:02.873</time></trkpt><trkpt lat="55.9055204" lon="49.2042371"><time>2023-06-03T05:13:03.883</time></trkpt><trkpt lat="55.9054999" lon="49.2043137"><time>2023-06-03T05:13:04.877</time></trkpt><trkpt lat="55.9054789" lon="49.2043941"><time>2023-06-03T05:13:05.897</time></trkpt><trkpt lat="55.9054512" lon="49.2044668"><time>2023-06-03T05:13:06.870</time></trkpt><trkpt lat="55.9054188" lon="49.2045314"><time>2023-06-03T05:13:07.877</time></trkpt><trkpt lat="55.9053862" lon="49.2045977"><time>2023-06-03T05:13:08.877</time></trkpt><trkpt lat="55.9053488" lon="49.2046594"><time>2023-06-03T05:13:09.887</time></trkpt><trkpt lat="55.9053138" lon="49.2047163"><time>2023-06-03T05:13:10.873</time></trkpt><trkpt lat="55.9052748" lon="49.2047698"><time>2023-06-03T05:13:11.920</time></trkpt><trkpt lat="55.9052323" lon="49.2048151"><time>2023-06-03T05:13:12.877</time></trkpt><trkpt lat="55.9051945" lon="49.2048746"><time>2023-06-03T05:13:13.893</time></trkpt><trkpt lat="55.9051540" lon="49.2049225"><time>2023-06-03T05:13:14.877</time></trkpt><trkpt lat="55.9051107" lon="49.2049691"><time>2023-06-03T05:13:15.893</time></trkpt><trkpt lat="55.9050715" lon="49.2050171"><time>2023-06-03T05:13:16.857</time></trkpt><trkpt lat="55.9050300" lon="49.2050545"><time>2023-06-03T05:13:17.880</time></trkpt><trkpt lat="55.9049902" lon="49.2050999"><time>2023-06-03T05:13:18.867</time></trkpt><trkpt lat="55.9049415" lon="49.2051400"><time>2023-06-03T05:13:19.883</time></trkpt><trkpt lat="55.9048977" lon="49.2051765"><time>2023-06-03T05:13:20.877</time></trkpt><trkpt lat="55.9048564" lon="49.2052093"><time>2023-06-03T05:13:21.877</time></trkpt><trkpt lat="55.9047848" lon="49.2052941"><time>2023-06-03T05:13:23.927</time></trkpt><trkpt lat="55.9047084" lon="49.2053780"><time>2023-06-03T05:13:25.873</time></trkpt><trkpt lat="55.9046677" lon="49.2054140"><time>2023-06-03T05:13:26.857</time></trkpt><trkpt lat="55.9045967" lon="49.2055099"><time>2023-06-03T05:13:28.883</time></trkpt><trkpt lat="55.9045584" lon="49.2055570"><time>2023-06-03T05:13:29.883</time></trkpt><trkpt lat="55.9045216" lon="49.2056051"><time>2023-06-03T05:13:30.887</time></trkpt><trkpt lat="55.9044644" lon="49.2057266"><time>2023-06-03T05:13:32.877</time></trkpt><trkpt lat="55.9044481" lon="49.2058548"><time>2023-06-03T05:13:34.873</time></trkpt><trkpt lat="55.9044412" lon="49.2059764"><time>2023-06-03T05:13:36.873</time></trkpt><trkpt lat="55.9044161" lon="49.2060678"><time>2023-06-03T05:13:38.873</time></trkpt><trkpt lat="55.9044026" lon="49.2061610"><time>2023-06-03T05:13:40.867</time></trkpt><trkpt lat="55.9043817" lon="49.2062417"><time>2023-06-03T05:13:42.860</time></trkpt><trkpt lat="55.9043274" lon="49.2062924"><time>2023-06-03T05:13:46.867</time></trkpt><trkpt lat="55.9042808" lon="49.2062394"><time>2023-06-03T05:13:48.867</time></trkpt><trkpt lat="55.9042314" lon="49.2061505"><time>2023-06-03T05:13:50.877</time></trkpt><trkpt lat="55.9041709" lon="49.2060714"><time>2023-06-03T05:13:52.873</time></trkpt><trkpt lat="55.9041138" lon="49.2059975"><time>2023-06-03T05:13:54.883</time></trkpt><trkpt lat="55.9040533" lon="49.2059359"><time>2023-06-03T05:13:56.870</time></trkpt><trkpt lat="55.9039956" lon="49.2059180"><time>2023-06-03T05:13:58.860</time></trkpt><trkpt lat="55.9039297" lon="49.2059684"><time>2023-06-03T05:14:00.880</time></trkpt><trkpt lat="55.9038827" lon="49.2060797"><time>2023-06-03T05:14:02.870</time></trkpt><trkpt lat="55.9038388" lon="49.2061566"><time>2023-06-03T05:14:04.880</time></trkpt><trkpt lat="55.9037772" lon="49.2061722"><time>2023-06-03T05:14:06.880</time></trkpt><trkpt lat="55.9037170" lon="49.2061348"><time>2023-06-03T05:14:08.870</time></trkpt><trkpt lat="55.9036642" lon="49.2060914"><time>2023-06-03T05:14:10.870</time></trkpt><trkpt lat="55.9036047" lon="49.2060642"><time>2023-06-03T05:14:12.873</time></trkpt><trkpt lat="55.9035254" lon="49.2060526"><time>2023-06-03T05:14:14.880</time></trkpt><trkpt lat="55.9034436" lon="49.2060574"><time>2023-06-03T05:14:16.873</time></trkpt><trkpt lat="55.9033634" lon="49.2060919"><time>2023-06-03T05:14:18.870</time></trkpt><trkpt lat="55.9032779" lon="49.2061470"><time>2023-06-03T05:14:20.867</time></trkpt><trkpt lat="55.9032377" lon="49.2061844"><time>2023-06-03T05:14:21.863</time></trkpt><trkpt lat="55.9031975" lon="49.2062238"><time>2023-06-03T05:14:22.873</time></trkpt><trkpt lat="55.9031578" lon="49.2062628"><time>2023-06-03T05:14:23.893</time></trkpt><trkpt lat="55.9031176" lon="49.2062994"><time>2023-06-03T05:14:24.877</time></trkpt><trkpt lat="55.9030779" lon="49.2063505"><time>2023-06-03T05:14:25.870</time></trkpt><trkpt lat="55.9029980" lon="49.2064064"><time>2023-06-03T05:14:27.873</time></trkpt><trkpt lat="55.9029259" lon="49.2064734"><time>2023-06-03T05:14:29.893</time></trkpt><trkpt lat="55.9028755" lon="49.2064950"><time>2023-06-03T05:14:30.870</time></trkpt><trkpt lat="55.9027942" lon="49.2065429"><time>2023-06-03T05:14:32.870</time></trkpt><trkpt lat="55.9027218" lon="49.2065926"><time>2023-06-03T05:14:34.867</time></trkpt><trkpt lat="55.9026525" lon="49.2066673"><time>2023-06-03T05:14:36.877</time></trkpt><trkpt lat="55.9025965" lon="49.2067668"><time>2023-06-03T05:14:38.867</time></trkpt><trkpt lat="55.9025511" lon="49.2068673"><time>2023-06-03T05:14:40.870</time></trkpt><trkpt lat="55.9024915" lon="49.2069812"><time>2023-06-03T05:14:42.877</time></trkpt><trkpt lat="55.9024424" lon="49.2070874"><time>2023-06-03T05:14:44.867</time></trkpt><trkpt lat="55.9023944" lon="49.2071930"><time>2023-06-03T05:14:46.863</time></trkpt><trkpt lat="55.9023397" lon="49.2073027"><time>2023-06-03T05:14:48.880</time></trkpt><trkpt lat="55.9023155" lon="49.2073505"><time>2023-06-03T05:14:49.873</time></trkpt><trkpt lat="55.9022546" lon="49.2074142"><time>2023-06-03T05:14:51.870</time></trkpt><trkpt lat="55.9021732" lon="49.2074175"><time>2023-06-03T05:14:53.883</time></trkpt><trkpt lat="55.9021289" lon="49.2074011"><time>2023-06-03T05:14:54.873</time></trkpt><trkpt lat="55.9020450" lon="49.2073561"><time>2023-06-03T05:14:56.867</time></trkpt><trkpt lat="55.9019636" lon="49.2072989"><time>2023-06-03T05:14:58.877</time></trkpt><trkpt lat="55.9018853" lon="49.2072521"><time>2023-06-03T05:15:00.870</time></trkpt><trkpt lat="55.9018103" lon="49.2072331"><time>2023-06-03T05:15:02.863</time></trkpt><trkpt lat="55.9017396" lon="49.2072329"><time>2023-06-03T05:15:04.873</time></trkpt><trkpt lat="55.9016581" lon="49.2072491"><time>2023-06-03T05:15:06.873</time></trkpt><trkpt lat="55.9015871" lon="49.2073190"><time>2023-06-03T05:15:08.870</time></trkpt><trkpt lat="55.9015396" lon="49.2074376"><time>2023-06-03T05:15:10.873</time></trkpt><trkpt lat="55.9015056" lon="49.2075662"><time>2023-06-03T05:15:12.877</time></trkpt><trkpt lat="55.9014721" lon="49.2076939"><time>2023-06-03T05:15:14.900</time></trkpt><trkpt lat="55.9014563" lon="49.2077574"><time>2023-06-03T05:15:15.877</time></trkpt><trkpt lat="55.9014238" lon="49.2078828"><time>2023-06-03T05:15:17.900</time></trkpt><trkpt lat="55.9013844" lon="49.2080025"><time>2023-06-03T05:15:19.883</time></trkpt><trkpt lat="55.9013325" lon="49.2081076"><time>2023-06-03T05:15:21.877</time></trkpt><trkpt lat="55.9012737" lon="49.2081888"><time>2023-06-03T05:15:23.907</time></trkpt><trkpt lat="55.9012229" lon="49.2082540"><time>2023-06-03T05:15:25.870</time></trkpt><trkpt lat="55.9011758" lon="49.2083185"><time>2023-06-03T05:15:27.880</time></trkpt><trkpt lat="55.9011305" lon="49.2083799"><time>2023-06-03T05:15:29.893</time></trkpt><trkpt lat="55.9010780" lon="49.2084475"><time>2023-06-03T05:15:31.873</time></trkpt><trkpt lat="55.9010216" lon="49.2085196"><time>2023-06-03T05:15:33.877</time></trkpt><trkpt lat="55.9009670" lon="49.2086079"><time>2023-06-03T05:15:35.897</time></trkpt><trkpt lat="55.9009278" lon="49.2086930"><time>2023-06-03T05:15:37.883</time></trkpt><trkpt lat="55.9009019" lon="49.2087639"><time>2023-06-03T05:15:39.887</time></trkpt><trkpt lat="55.9008670" lon="49.2088282"><time>2023-06-03T05:15:41.887</time></trkpt><trkpt lat="55.9008178" lon="49.2088566"><time>2023-06-03T05:15:44.863</time></trkpt><trkpt lat="55.9007684" lon="49.2088019"><time>2023-06-03T05:15:47.917</time></trkpt><trkpt lat="55.9007314" lon="49.2087423"><time>2023-06-03T05:15:49.880</time></trkpt><trkpt lat="55.9006979" lon="49.2086658"><time>2023-06-03T05:15:52.893</time></trkpt><trkpt lat="55.9006915" lon="49.2086390"><time>2023-06-03T05:15:53.893</time></trkpt><trkpt lat="55.9006752" lon="49.2085360"><time>2023-06-03T05:15:56.877</time></trkpt><trkpt lat="55.9006592" lon="49.2084308"><time>2023-06-03T05:15:59.917</time></trkpt><trkpt lat="55.9006478" lon="49.2083530"><time>2023-06-03T05:16:01.877</time></trkpt><trkpt lat="55.9006327" lon="49.2082705"><time>2023-06-03T05:16:03.880</time></trkpt><trkpt lat="55.9006292" lon="49.2081783"><time>2023-06-03T05:16:05.913</time></trkpt><trkpt lat="55.9006292" lon="49.2081783"><time>2023-06-03T05:16:05.960</time></trkpt><trkpt lat="55.9006406" lon="49.2080772"><time>2023-06-03T05:16:08.907</time></trkpt><trkpt lat="55.9006481" lon="49.2080581"><time>2023-06-03T05:16:09.877</time></trkpt><trkpt lat="55.9006395" lon="49.2081421"><time>2023-06-03T05:16:15.883</time></trkpt><trkpt lat="55.9005960" lon="49.2081061"><time>2023-06-03T05:16:22.893</time></trkpt><trkpt lat="55.9005872" lon="49.2081950"><time>2023-06-03T05:16:44.860</time></trkpt><trkpt lat="55.9006080" lon="49.2083082"><time>2023-06-03T05:16:46.870</time></trkpt><trkpt lat="55.9006343" lon="49.2084139"><time>2023-06-03T05:16:48.860</time></trkpt><trkpt lat="55.9006641" lon="49.2085078"><time>2023-06-03T05:16:50.863</time></trkpt><trkpt lat="55.9006861" lon="49.2086060"><time>2023-06-03T05:16:52.870</time></trkpt><trkpt lat="55.9007090" lon="49.2086785"><time>2023-06-03T05:16:54.860</time></trkpt><trkpt lat="55.9007390" lon="49.2087535"><time>2023-06-03T05:16:56.860</time></trkpt><trkpt lat="55.9007679" lon="49.2088164"><time>2023-06-03T05:16:58.873</time></trkpt><trkpt lat="55.9008070" lon="49.2088671"><time>2023-06-03T05:17:00.883</time></trkpt><trkpt lat="55.9008581" lon="49.2088537"><time>2023-06-03T05:17:02.877</time></trkpt><trkpt lat="55.9009108" lon="49.2087809"><time>2023-06-03T05:17:04.870</time></trkpt><trkpt lat="55.9009546" lon="49.2086763"><time>2023-06-03T05:17:06.877</time></trkpt><trkpt lat="55.9009979" lon="49.2085625"><time>2023-06-03T05:17:08.873</time></trkpt><trkpt lat="55.9010460" lon="49.2084746"><time>2023-06-03T05:17:10.860</time></trkpt><trkpt lat="55.9011030" lon="49.2084059"><time>2023-06-03T05:17:12.880</time></trkpt><trkpt lat="55.9011598" lon="49.2083427"><time>2023-06-03T05:17:14.870</time></trkpt><trkpt lat="55.9012173" lon="49.2082725"><time>2023-06-03T05:17:16.873</time></trkpt><trkpt lat="55.9012831" lon="49.2081972"><time>2023-06-03T05:17:18.870</time></trkpt><trkpt lat="55.9013498" lon="49.2081255"><time>2023-06-03T05:17:20.877</time></trkpt><trkpt lat="55.9014131" lon="49.2080468"><time>2023-06-03T05:17:22.880</time></trkpt><trkpt lat="55.9014668" lon="49.2079455"><time>2023-06-03T05:17:24.877</time></trkpt><trkpt lat="55.9015106" lon="49.2078151"><time>2023-06-03T05:17:26.873</time></trkpt><trkpt lat="55.9015490" lon="49.2076809"><time>2023-06-03T05:17:28.863</time></trkpt><trkpt lat="55.9015855" lon="49.2075587"><time>2023-06-03T05:17:30.873</time></trkpt><trkpt lat="55.9016283" lon="49.2074300"><time>2023-06-03T05:17:32.873</time></trkpt><trkpt lat="55.9016872" lon="49.2073087"><time>2023-06-03T05:17:34.870</time></trkpt><trkpt lat="55.9017695" lon="49.2072833"><time>2023-06-03T05:17:36.880</time></trkpt><trkpt lat="55.9018165" lon="49.2072769"><time>2023-06-03T05:17:37.873</time></trkpt><trkpt lat="55.9018935" lon="49.2073006"><time>2023-06-03T05:17:39.887</time></trkpt><trkpt lat="55.9019850" lon="49.2073092"><time>2023-06-03T05:17:41.883</time></trkpt><trkpt lat="55.9020712" lon="49.2073322"><time>2023-06-03T05:17:43.893</time></trkpt><trkpt lat="55.9021540" lon="49.2073527"><time>2023-06-03T05:17:45.913</time></trkpt><trkpt lat="55.9022289" lon="49.2073820"><time>2023-06-03T05:17:47.873</time></trkpt><trkpt lat="55.9022980" lon="49.2073502"><time>2023-06-03T05:17:49.867</time></trkpt><trkpt lat="55.9023552" lon="49.2072619"><time>2023-06-03T05:17:51.897</time></trkpt><trkpt lat="55.9024118" lon="49.2071485"><time>2023-06-03T05:17:53.873</time></trkpt><trkpt lat="55.9024676" lon="49.2070362"><time>2023-06-03T05:17:55.877</time></trkpt><trkpt lat="55.9025279" lon="49.2069270"><time>2023-06-03T05:17:57.913</time></trkpt><trkpt lat="55.9025859" lon="49.2068009"><time>2023-06-03T05:17:59.880</time></trkpt><trkpt lat="55.9026144" lon="49.2067370"><time>2023-06-03T05:18:00.880</time></trkpt><trkpt lat="55.9026897" lon="49.2066501"><time>2023-06-03T05:18:02.880</time></trkpt><trkpt lat="55.9027290" lon="49.2066074"><time>2023-06-03T05:18:03.880</time></trkpt><trkpt lat="55.9027774" lon="49.2065655"><time>2023-06-03T05:18:04.873</time></trkpt><trkpt lat="55.9028637" lon="49.2065090"><time>2023-06-03T05:18:06.883</time></trkpt><trkpt lat="55.9029511" lon="49.2064666"><time>2023-06-03T05:18:08.867</time></trkpt><trkpt lat="55.9030044" lon="49.2064412"><time>2023-06-03T05:18:09.913</time></trkpt><trkpt lat="55.9030493" lon="49.2064147"><time>2023-06-03T05:18:10.873</time></trkpt><trkpt lat="55.9030978" lon="49.2063860"><time>2023-06-03T05:18:11.880</time></trkpt><trkpt lat="55.9031406" lon="49.2063581"><time>2023-06-03T05:18:12.877</time></trkpt><trkpt lat="55.9031821" lon="49.2063274"><time>2023-06-03T05:18:13.880</time></trkpt><trkpt lat="55.9032580" lon="49.2062719"><time>2023-06-03T05:18:15.907</time></trkpt><trkpt lat="55.9033416" lon="49.2062147"><time>2023-06-03T05:18:17.880</time></trkpt><trkpt lat="55.9034097" lon="49.2061766"><time>2023-06-03T05:18:19.877</time></trkpt><trkpt lat="55.9034792" lon="49.2061349"><time>2023-06-03T05:18:21.893</time></trkpt><trkpt lat="55.9035578" lon="49.2061185"><time>2023-06-03T05:18:23.877</time></trkpt><trkpt lat="55.9036310" lon="49.2061254"><time>2023-06-03T05:18:25.897</time></trkpt><trkpt lat="55.9037038" lon="49.2061310"><time>2023-06-03T05:18:27.890</time></trkpt><trkpt lat="55.9037716" lon="49.2061343"><time>2023-06-03T05:18:29.887</time></trkpt><trkpt lat="55.9038370" lon="49.2061467"><time>2023-06-03T05:18:31.877</time></trkpt><trkpt lat="55.9039071" lon="49.2061400"><time>2023-06-03T05:18:33.910</time></trkpt><trkpt lat="55.9039663" lon="49.2060750"><time>2023-06-03T05:18:35.887</time></trkpt><trkpt lat="55.9039970" lon="49.2059659"><time>2023-06-03T05:18:37.867</time></trkpt><trkpt lat="55.9040121" lon="49.2058854"><time>2023-06-03T05:18:39.900</time></trkpt><trkpt lat="55.9040754" lon="49.2059082"><time>2023-06-03T05:18:42.877</time></trkpt><trkpt lat="55.9041295" lon="49.2059953"><time>2023-06-03T05:18:44.873</time></trkpt><trkpt lat="55.9041945" lon="49.2060832"><time>2023-06-03T05:18:46.863</time></trkpt><trkpt lat="55.9042669" lon="49.2061823"><time>2023-06-03T05:18:48.880</time></trkpt><trkpt lat="55.9043174" lon="49.2062590"><time>2023-06-03T05:18:49.887</time></trkpt><trkpt lat="55.9043563" lon="49.2063193"><time>2023-06-03T05:18:50.870</time></trkpt><trkpt lat="55.9043919" lon="49.2063701"><time>2023-06-03T05:18:51.903</time></trkpt><trkpt lat="55.9044283" lon="49.2064326"><time>2023-06-03T05:18:52.877</time></trkpt><trkpt lat="55.9044524" lon="49.2065030"><time>2023-06-03T05:18:53.873</time></trkpt><trkpt lat="55.9044846" lon="49.2065727"><time>2023-06-03T05:18:54.873</time></trkpt><trkpt lat="55.9045279" lon="49.2066677"><time>2023-06-03T05:18:55.873</time></trkpt><trkpt lat="55.9045569" lon="49.2067597"><time>2023-06-03T05:18:56.877</time></trkpt><trkpt lat="55.9045819" lon="49.2068357"><time>2023-06-03T05:18:57.913</time></trkpt><trkpt lat="55.9046033" lon="49.2069244"><time>2023-06-03T05:18:58.863</time></trkpt><trkpt lat="55.9046261" lon="49.2070044"><time>2023-06-03T05:18:59.877</time></trkpt><trkpt lat="55.9046323" lon="49.2070870"><time>2023-06-03T05:19:00.857</time></trkpt><trkpt lat="55.9046573" lon="49.2071665"><time>2023-06-03T05:19:01.867</time></trkpt><trkpt lat="55.9047075" lon="49.2072483"><time>2023-06-03T05:19:03.887</time></trkpt><trkpt lat="55.9047384" lon="49.2073650"><time>2023-06-03T05:19:05.877</time></trkpt><trkpt lat="55.9047788" lon="49.2074862"><time>2023-06-03T05:19:07.877</time></trkpt><trkpt lat="55.9047883" lon="49.2075802"><time>2023-06-03T05:19:08.867</time></trkpt><trkpt lat="55.9048172" lon="49.2076431"><time>2023-06-03T05:19:09.900</time></trkpt><trkpt lat="55.9048392" lon="49.2077166"><time>2023-06-03T05:19:10.877</time></trkpt><trkpt lat="55.9048859" lon="49.2078451"><time>2023-06-03T05:19:12.867</time></trkpt><trkpt lat="55.9049106" lon="49.2079215"><time>2023-06-03T05:19:13.867</time></trkpt><trkpt lat="55.9049541" lon="49.2080453"><time>2023-06-03T05:19:15.890</time></trkpt><trkpt lat="55.9049787" lon="49.2081138"><time>2023-06-03T05:19:16.877</time></trkpt><trkpt lat="55.9050052" lon="49.2081828"><time>2023-06-03T05:19:17.880</time></trkpt><trkpt lat="55.9050270" lon="49.2082567"><time>2023-06-03T05:19:18.857</time></trkpt><trkpt lat="55.9050480" lon="49.2083278"><time>2023-06-03T05:19:19.873</time></trkpt><trkpt lat="55.9050687" lon="49.2084070"><time>2023-06-03T05:19:20.920</time></trkpt><trkpt lat="55.9050941" lon="49.2084731"><time>2023-06-03T05:19:21.877</time></trkpt><trkpt lat="55.9051325" lon="49.2085431"><time>2023-06-03T05:19:22.873</time></trkpt><trkpt lat="55.9051623" lon="49.2086104"><time>2023-06-03T05:19:23.873</time></trkpt><trkpt lat="55.9051909" lon="49.2086917"><time>2023-06-03T05:19:24.877</time></trkpt><trkpt lat="55.9052192" lon="49.2087559"><time>2023-06-03T05:19:25.877</time></trkpt><trkpt lat="55.9052761" lon="49.2088671"><time>2023-06-03T05:19:27.883</time></trkpt><trkpt lat="55.9053344" lon="49.2089766"><time>2023-06-03T05:19:29.873</time></trkpt><trkpt lat="55.9053674" lon="49.2090344"><time>2023-06-03T05:19:30.873</time></trkpt><trkpt lat="55.9054299" lon="49.2091588"><time>2023-06-03T05:19:32.907</time></trkpt><trkpt lat="55.9054643" lon="49.2092107"><time>2023-06-03T05:19:33.873</time></trkpt><trkpt lat="55.9054990" lon="49.2092676"><time>2023-06-03T05:19:34.860</time></trkpt><trkpt lat="55.9055420" lon="49.2092951"><time>2023-06-03T05:19:35.870</time></trkpt><trkpt lat="55.9055763" lon="49.2093474"><time>2023-06-03T05:19:36.873</time></trkpt><trkpt lat="55.9056166" lon="49.2094009"><time>2023-06-03T05:19:37.877</time></trkpt><trkpt lat="55.9056587" lon="49.2094310"><time>2023-06-03T05:19:38.870</time></trkpt><trkpt lat="55.9056972" lon="49.2094754"><time>2023-06-03T05:19:39.877</time></trkpt><trkpt lat="55.9057739" lon="49.2095716"><time>2023-06-03T05:19:41.877</time></trkpt><trkpt lat="55.9058209" lon="49.2096199"><time>2023-06-03T05:19:42.873</time></trkpt><trkpt lat="55.9058481" lon="49.2096900"><time>2023-06-03T05:19:43.890</time></trkpt><trkpt lat="55.9058971" lon="49.2097443"><time>2023-06-03T05:19:44.880</time></trkpt><trkpt lat="55.9059293" lon="49.2098137"><time>2023-06-03T05:19:45.880</time></trkpt><trkpt lat="55.9059851" lon="49.2098647"><time>2023-06-03T05:19:46.870</time></trkpt><trkpt lat="55.9060212" lon="49.2099277"><time>2023-06-03T05:19:47.887</time></trkpt><trkpt lat="55.9060807" lon="49.2099994"><time>2023-06-03T05:19:48.853</time></trkpt><trkpt lat="55.9061227" lon="49.2100618"><time>2023-06-03T05:19:49.887</time></trkpt><trkpt lat="55.9061647" lon="49.2101120"><time>2023-06-03T05:19:50.863</time></trkpt><trkpt lat="55.9062263" lon="49.2101621"><time>2023-06-03T05:19:51.883</time></trkpt><trkpt lat="55.9062740" lon="49.2102109"><time>2023-06-03T05:19:52.883</time></trkpt><trkpt lat="55.9063283" lon="49.2102532"><time>2023-06-03T05:19:53.870</time></trkpt><trkpt lat="55.9063827" lon="49.2103007"><time>2023-06-03T05:19:54.877</time></trkpt><trkpt lat="55.9064376" lon="49.2103337"><time>2023-06-03T05:19:55.917</time></trkpt><trkpt lat="55.9064871" lon="49.2103686"><time>2023-06-03T05:19:56.883</time></trkpt><trkpt lat="55.9065443" lon="49.2103873"><time>2023-06-03T05:19:57.877</time></trkpt><trkpt lat="55.9065903" lon="49.2104097"><time>2023-06-03T05:19:58.870</time></trkpt><trkpt lat="55.9066416" lon="49.2104437"><time>2023-06-03T05:19:59.880</time></trkpt><trkpt lat="55.9066971" lon="49.2104718"><time>2023-06-03T05:20:00.873</time></trkpt><trkpt lat="55.9067494" lon="49.2105087"><time>2023-06-03T05:20:01.907</time></trkpt><trkpt lat="55.9068085" lon="49.2105075"><time>2023-06-03T05:20:02.883</time></trkpt><trkpt lat="55.9068646" lon="49.2105392"><time>2023-06-03T05:20:03.867</time></trkpt><trkpt lat="55.9069201" lon="49.2105575"><time>2023-06-03T05:20:04.877</time></trkpt><trkpt lat="55.9069819" lon="49.2105773"><time>2023-06-03T05:20:05.903</time></trkpt><trkpt lat="55.9070235" lon="49.2106378"><time>2023-06-03T05:20:06.877</time></trkpt><trkpt lat="55.9070847" lon="49.2106671"><time>2023-06-03T05:20:07.907</time></trkpt><trkpt lat="55.9071430" lon="49.2106907"><time>2023-06-03T05:20:08.860</time></trkpt><trkpt lat="55.9071993" lon="49.2106980"><time>2023-06-03T05:20:09.880</time></trkpt><trkpt lat="55.9072600" lon="49.2107233"><time>2023-06-03T05:20:10.873</time></trkpt><trkpt lat="55.9073132" lon="49.2107543"><time>2023-06-03T05:20:11.877</time></trkpt><trkpt lat="55.9073623" lon="49.2107881"><time>2023-06-03T05:20:12.873</time></trkpt><trkpt lat="55.9074237" lon="49.2108086"><time>2023-06-03T05:20:13.877</time></trkpt><trkpt lat="55.9074759" lon="49.2108446"><time>2023-06-03T05:20:14.870</time></trkpt><trkpt lat="55.9075361" lon="49.2108731"><time>2023-06-03T05:20:15.880</time></trkpt><trkpt lat="55.9075902" lon="49.2109099"><time>2023-06-03T05:20:16.857</time></trkpt><trkpt lat="55.9076391" lon="49.2109615"><time>2023-06-03T05:20:17.873</time></trkpt><trkpt lat="55.9076862" lon="49.2110114"><time>2023-06-03T05:20:18.857</time></trkpt><trkpt lat="55.9077346" lon="49.2110802"><time>2023-06-03T05:20:19.913</time></trkpt><trkpt lat="55.9077814" lon="49.2111544"><time>2023-06-03T05:20:20.867</time></trkpt><trkpt lat="55.9078354" lon="49.2112296"><time>2023-06-03T05:20:21.887</time></trkpt><trkpt lat="55.9078906" lon="49.2113175"><time>2023-06-03T05:20:22.867</time></trkpt><trkpt lat="55.9079431" lon="49.2114199"><time>2023-06-03T05:20:23.860</time></trkpt><trkpt lat="55.9080040" lon="49.2115263"><time>2023-06-03T05:20:24.877</time></trkpt><trkpt lat="55.9080747" lon="49.2116300"><time>2023-06-03T05:20:25.887</time></trkpt><trkpt lat="55.9081301" lon="49.2117299"><time>2023-06-03T05:20:26.867</time></trkpt><trkpt lat="55.9081814" lon="49.2118179"><time>2023-06-03T05:20:27.880</time></trkpt><trkpt lat="55.9082222" lon="49.2118900"><time>2023-06-03T05:20:28.857</time></trkpt><trkpt lat="55.9082614" lon="49.2119511"><time>2023-06-03T05:20:29.870</time></trkpt><trkpt lat="55.9082870" lon="49.2120486"><time>2023-06-03T05:20:31.917</time></trkpt><trkpt lat="55.9082782" lon="49.2121302"><time>2023-06-03T05:20:33.853</time></trkpt><trkpt lat="55.9082450" lon="49.2122391"><time>2023-06-03T05:20:35.873</time></trkpt><trkpt lat="55.9081996" lon="49.2123393"><time>2023-06-03T05:20:37.880</time></trkpt><trkpt lat="55.9081456" lon="49.2124224"><time>2023-06-03T05:20:39.873</time></trkpt><trkpt lat="55.9080994" lon="49.2125242"><time>2023-06-03T05:20:41.877</time></trkpt><trkpt lat="55.9080474" lon="49.2126291"><time>2023-06-03T05:20:43.897</time></trkpt><trkpt lat="55.9079748" lon="49.2127246"><time>2023-06-03T05:20:45.877</time></trkpt><trkpt lat="55.9079130" lon="49.2128342"><time>2023-06-03T05:20:47.873</time></trkpt><trkpt lat="55.9078697" lon="49.2129665"><time>2023-06-03T05:20:49.887</time></trkpt><trkpt lat="55.9078490" lon="49.2131250"><time>2023-06-03T05:20:51.887</time></trkpt><trkpt lat="55.9078088" lon="49.2132718"><time>2023-06-03T05:20:53.860</time></trkpt><trkpt lat="55.9077826" lon="49.2133400"><time>2023-06-03T05:20:54.867</time></trkpt><trkpt lat="55.9077450" lon="49.2134616"><time>2023-06-03T05:20:56.877</time></trkpt><trkpt lat="55.9077064" lon="49.2135679"><time>2023-06-03T05:20:58.860</time></trkpt><trkpt lat="55.9076779" lon="49.2136714"><time>2023-06-03T05:21:00.877</time></trkpt><trkpt lat="55.9076552" lon="49.2137935"><time>2023-06-03T05:21:02.870</time></trkpt><trkpt lat="55.9076360" lon="49.2139138"><time>2023-06-03T05:21:04.877</time></trkpt><trkpt lat="55.9076241" lon="49.2140281"><time>2023-06-03T05:21:06.910</time></trkpt><trkpt lat="55.9076107" lon="49.2141432"><time>2023-06-03T05:21:08.873</time></trkpt><trkpt lat="55.9075934" lon="49.2142626"><time>2023-06-03T05:21:10.873</time></trkpt><trkpt lat="55.9075756" lon="49.2143793"><time>2023-06-03T05:21:12.893</time></trkpt><trkpt lat="55.9075445" lon="49.2144517"><time>2023-06-03T05:21:14.877</time></trkpt><trkpt lat="55.9074924" lon="49.2144706"><time>2023-06-03T05:21:16.867</time></trkpt><trkpt lat="55.9074258" lon="49.2144491"><time>2023-06-03T05:21:18.907</time></trkpt><trkpt lat="55.9073602" lon="49.2144273"><time>2023-06-03T05:21:20.873</time></trkpt><trkpt lat="55.9072993" lon="49.2144286"><time>2023-06-03T05:21:22.867</time></trkpt><trkpt lat="55.9072518" lon="49.2145070"><time>2023-06-03T05:21:24.877</time></trkpt><trkpt lat="55.9072383" lon="49.2146555"><time>2023-06-03T05:21:26.863</time></trkpt><trkpt lat="55.9072377" lon="49.2147369"><time>2023-06-03T05:21:27.867</time></trkpt><trkpt lat="55.9072350" lon="49.2148194"><time>2023-06-03T05:21:28.863</time></trkpt><trkpt lat="55.9072355" lon="49.2149224"><time>2023-06-03T05:21:29.873</time></trkpt><trkpt lat="55.9072076" lon="49.2150721"><time>2023-06-03T05:21:31.887</time></trkpt><trkpt lat="55.9071731" lon="49.2152238"><time>2023-06-03T05:21:33.850</time></trkpt><trkpt lat="55.9071591" lon="49.2153048"><time>2023-06-03T05:21:34.873</time></trkpt><trkpt lat="55.9071376" lon="49.2154478"><time>2023-06-03T05:21:36.893</time></trkpt><trkpt lat="55.9071239" lon="49.2155314"><time>2023-06-03T05:21:37.873</time></trkpt><trkpt lat="55.9071021" lon="49.2156079"><time>2023-06-03T05:21:38.860</time></trkpt><trkpt lat="55.9070580" lon="49.2157388"><time>2023-06-03T05:21:40.873</time></trkpt><trkpt lat="55.9070279" lon="49.2158698"><time>2023-06-03T05:21:42.897</time></trkpt><trkpt lat="55.9070025" lon="49.2160077"><time>2023-06-03T05:21:44.877</time></trkpt><trkpt lat="55.9069864" lon="49.2161640"><time>2023-06-03T05:21:46.873</time></trkpt><trkpt lat="55.9069818" lon="49.2162460"><time>2023-06-03T05:21:47.880</time></trkpt><trkpt lat="55.9069758" lon="49.2163811"><time>2023-06-03T05:21:49.873</time></trkpt><trkpt lat="55.9069623" lon="49.2165285"><time>2023-06-03T05:21:51.870</time></trkpt><trkpt lat="55.9069610" lon="49.2166653"><time>2023-06-03T05:21:53.873</time></trkpt><trkpt lat="55.9069489" lon="49.2168188"><time>2023-06-03T05:21:55.883</time></trkpt><trkpt lat="55.9069354" lon="49.2168957"><time>2023-06-03T05:21:56.867</time></trkpt><trkpt lat="55.9069249" lon="49.2169793"><time>2023-06-03T05:21:57.877</time></trkpt><trkpt lat="55.9069138" lon="49.2170599"><time>2023-06-03T05:21:58.867</time></trkpt><trkpt lat="55.9069044" lon="49.2172168"><time>2023-06-03T05:22:00.900</time></trkpt><trkpt lat="55.9068958" lon="49.2173012"><time>2023-06-03T05:22:01.880</time></trkpt><trkpt lat="55.9068705" lon="49.2174502"><time>2023-06-03T05:22:03.877</time></trkpt><trkpt lat="55.9068571" lon="49.2175825"><time>2023-06-03T05:22:05.867</time></trkpt><trkpt lat="55.9068642" lon="49.2177195"><time>2023-06-03T05:22:07.870</time></trkpt><trkpt lat="55.9068932" lon="49.2178484"><time>2023-06-03T05:22:09.877</time></trkpt><trkpt lat="55.9069307" lon="49.2179588"><time>2023-06-03T05:22:11.967</time></trkpt><trkpt lat="55.9069533" lon="49.2180139"><time>2023-06-03T05:22:12.890</time></trkpt><trkpt lat="55.9070052" lon="49.2181129"><time>2023-06-03T05:22:14.867</time></trkpt><trkpt lat="55.9070522" lon="49.2182051"><time>2023-06-03T05:22:16.867</time></trkpt><trkpt lat="55.9071027" lon="49.2183011"><time>2023-06-03T05:22:18.917</time></trkpt><trkpt lat="55.9071607" lon="49.2183932"><time>2023-06-03T05:22:20.867</time></trkpt><trkpt lat="55.9072164" lon="49.2184811"><time>2023-06-03T05:22:22.887</time></trkpt><trkpt lat="55.9072728" lon="49.2185353"><time>2023-06-03T05:22:24.897</time></trkpt><trkpt lat="55.9073214" lon="49.2185970"><time>2023-06-03T05:22:27.870</time></trkpt><trkpt lat="55.9072996" lon="49.2187050"><time>2023-06-03T05:22:29.880</time></trkpt><trkpt lat="55.9072689" lon="49.2188307"><time>2023-06-03T05:22:31.883</time></trkpt><trkpt lat="55.9072644" lon="49.2189573"><time>2023-06-03T05:22:33.863</time></trkpt><trkpt lat="55.9072795" lon="49.2190821"><time>2023-06-03T05:22:35.877</time></trkpt><trkpt lat="55.9073049" lon="49.2191726"><time>2023-06-03T05:22:37.870</time></trkpt><trkpt lat="55.9073246" lon="49.2192569"><time>2023-06-03T05:22:46.857</time></trkpt><trkpt lat="55.9073378" lon="49.2193513"><time>2023-06-03T05:22:49.880</time></trkpt><trkpt lat="55.9073528" lon="49.2194286"><time>2023-06-03T05:22:51.880</time></trkpt><trkpt lat="55.9073690" lon="49.2195107"><time>2023-06-03T05:22:53.920</time></trkpt><trkpt lat="55.9074129" lon="49.2195335"><time>2023-06-03T05:22:56.880</time></trkpt><trkpt lat="55.9074255" lon="49.2194409"><time>2023-06-03T05:22:58.877</time></trkpt><trkpt lat="55.9073872" lon="49.2193146"><time>2023-06-03T05:23:00.877</time></trkpt><trkpt lat="55.9073607" lon="49.2192500"><time>2023-06-03T05:23:01.877</time></trkpt><trkpt lat="55.9073178" lon="49.2191179"><time>2023-06-03T05:23:03.883</time></trkpt><trkpt lat="55.9072850" lon="49.2189987"><time>2023-06-03T05:23:05.917</time></trkpt><trkpt lat="55.9072501" lon="49.2189009"><time>2023-06-03T05:23:07.880</time></trkpt><trkpt lat="55.9072006" lon="49.2188545"><time>2023-06-03T05:23:09.873</time></trkpt><trkpt lat="55.9071429" lon="49.2188969"><time>2023-06-03T05:23:11.887</time></trkpt><trkpt lat="55.9070798" lon="49.2189750"><time>2023-06-03T05:23:13.873</time></trkpt><trkpt lat="55.9070146" lon="49.2190610"><time>2023-06-03T05:23:15.890</time></trkpt><trkpt lat="55.9069401" lon="49.2191506"><time>2023-06-03T05:23:17.913</time></trkpt><trkpt lat="55.9068709" lon="49.2192278"><time>2023-06-03T05:23:19.883</time></trkpt><trkpt lat="55.9068067" lon="49.2193099"><time>2023-06-03T05:23:21.877</time></trkpt><trkpt lat="55.9067315" lon="49.2193712"><time>2023-06-03T05:23:23.893</time></trkpt><trkpt lat="55.9066551" lon="49.2194265"><time>2023-06-03T05:23:25.863</time></trkpt><trkpt lat="55.9065829" lon="49.2194851"><time>2023-06-03T05:23:27.903</time></trkpt><trkpt lat="55.9065489" lon="49.2195105"><time>2023-06-03T05:23:28.870</time></trkpt><trkpt lat="55.9064847" lon="49.2195358"><time>2023-06-03T05:23:30.873</time></trkpt><trkpt lat="55.9064227" lon="49.2195525"><time>2023-06-03T05:23:32.867</time></trkpt><trkpt lat="55.9063550" lon="49.2195746"><time>2023-06-03T05:23:34.870</time></trkpt><trkpt lat="55.9062796" lon="49.2195982"><time>2023-06-03T05:23:36.870</time></trkpt><trkpt lat="55.9062106" lon="49.2196134"><time>2023-06-03T05:23:38.887</time></trkpt><trkpt lat="55.9061550" lon="49.2195915"><time>2023-06-03T05:23:40.887</time></trkpt><trkpt lat="55.9061071" lon="49.2195628"><time>2023-06-03T05:23:42.870</time></trkpt><trkpt lat="55.9060532" lon="49.2195443"><time>2023-06-03T05:23:44.877</time></trkpt><trkpt lat="55.9060034" lon="49.2195333"><time>2023-06-03T05:23:46.860</time></trkpt><trkpt lat="55.9059581" lon="49.2195328"><time>2023-06-03T05:23:48.870</time></trkpt><trkpt lat="55.9059010" lon="49.2195769"><time>2023-06-03T05:23:51.887</time></trkpt><trkpt lat="55.9058583" lon="49.2196663"><time>2023-06-03T05:23:54.893</time></trkpt><trkpt lat="55.9058375" lon="49.2197439"><time>2023-06-03T05:23:56.863</time></trkpt><trkpt lat="55.9058199" lon="49.2198259"><time>2023-06-03T05:23:58.910</time></trkpt><trkpt lat="55.9058067" lon="49.2199023"><time>2023-06-03T05:24:00.863</time></trkpt><trkpt lat="55.9058014" lon="49.2199873"><time>2023-06-03T05:24:03.890</time></trkpt><trkpt lat="55.9058473" lon="49.2200248"><time>2023-06-03T05:24:36.857</time></trkpt><trkpt lat="55.9058942" lon="49.2200780"><time>2023-06-03T05:24:42.863</time></trkpt><trkpt lat="55.9059075" lon="49.2200865"><time>2023-06-03T05:24:43.860</time></trkpt><trkpt lat="55.9059607" lon="49.2200816"><time>2023-06-03T05:24:47.880</time></trkpt><trkpt lat="55.9060100" lon="49.2200531"><time>2023-06-03T05:24:51.870</time></trkpt><trkpt lat="55.9060580" lon="49.2200288"><time>2023-06-03T05:24:56.853</time></trkpt><trkpt lat="55.9060742" lon="49.2201087"><time>2023-06-03T05:25:04.860</time></trkpt><trkpt lat="55.9060887" lon="49.2201873"><time>2023-06-03T05:25:12.867</time></trkpt><trkpt lat="55.9061049" lon="49.2202707"><time>2023-06-03T05:25:18.867</time></trkpt><trkpt lat="55.9061042" lon="49.2203545"><time>2023-06-03T05:25:26.857</time></trkpt><trkpt lat="55.9060909" lon="49.2204354"><time>2023-06-03T05:25:31.873</time></trkpt><trkpt lat="55.9061158" lon="49.2205153"><time>2023-06-03T05:25:36.853</time></trkpt><trkpt lat="55.9061158" lon="49.2205153"><time>2023-06-03T05:25:36.887</time></trkpt><trkpt lat="55.9061121" lon="49.2204231"><time>2023-06-03T05:25:46.873</time></trkpt><trkpt lat="55.9061096" lon="49.2204050"><time>2023-06-03T05:25:47.877</time></trkpt><trkpt lat="55.9060998" lon="49.2203118"><time>2023-06-03T05:25:52.857</time></trkpt><trkpt lat="55.9060523" lon="49.2202720"><time>2023-06-03T05:26:11.853</time></trkpt><trkpt lat="55.9059947" lon="49.2202749"><time>2023-06-03T05:26:14.857</time></trkpt><trkpt lat="55.9059456" lon="49.2202566"><time>2023-06-03T05:26:17.857</time></trkpt><trkpt lat="55.9058918" lon="49.2202244"><time>2023-06-03T05:26:20.857</time></trkpt><trkpt lat="55.9058605" lon="49.2201442"><time>2023-06-03T05:26:23.860</time></trkpt><trkpt lat="55.9058624" lon="49.2200599"><time>2023-06-03T05:26:27.890</time></trkpt><trkpt lat="55.9058176" lon="49.2200514"><time>2023-06-03T05:26:38.867</time></trkpt><trkpt lat="55.9057909" lon="49.2201166"><time>2023-06-03T05:27:05.870</time></trkpt><trkpt lat="55.9057750" lon="49.2202330"><time>2023-06-03T05:27:07.880</time></trkpt><trkpt lat="55.9057599" lon="49.2203534"><time>2023-06-03T05:27:09.880</time></trkpt><trkpt lat="55.9057352" lon="49.2204551"><time>2023-06-03T05:27:11.877</time></trkpt><trkpt lat="55.9057060" lon="49.2205512"><time>2023-06-03T05:27:13.877</time></trkpt><trkpt lat="55.9056817" lon="49.2206602"><time>2023-06-03T05:27:15.877</time></trkpt><trkpt lat="55.9056577" lon="49.2207814"><time>2023-06-03T05:27:17.877</time></trkpt><trkpt lat="55.9056274" lon="49.2209086"><time>2023-06-03T05:27:19.880</time></trkpt><trkpt lat="55.9055993" lon="49.2210255"><time>2023-06-03T05:27:21.877</time></trkpt><trkpt lat="55.9055727" lon="49.2211187"><time>2023-06-03T05:27:23.877</time></trkpt><trkpt lat="55.9055410" lon="49.2211956"><time>2023-06-03T05:27:25.867</time></trkpt><trkpt lat="55.9054931" lon="49.2212673"><time>2023-06-03T05:27:27.883</time></trkpt><trkpt lat="55.9054400" lon="49.2212920"><time>2023-06-03T05:27:29.880</time></trkpt><trkpt lat="55.9053871" lon="49.2212497"><time>2023-06-03T05:27:31.867</time></trkpt><trkpt lat="55.9053363" lon="49.2211743"><time>2023-06-03T05:27:33.880</time></trkpt><trkpt lat="55.9052825" lon="49.2210948"><time>2023-06-03T05:27:35.877</time></trkpt><trkpt lat="55.9052196" lon="49.2210074"><time>2023-06-03T05:27:37.877</time></trkpt><trkpt lat="55.9051486" lon="49.2209126"><time>2023-06-03T05:27:39.880</time></trkpt><trkpt lat="55.9051118" lon="49.2208660"><time>2023-06-03T05:27:40.887</time></trkpt><trkpt lat="55.9050392" lon="49.2207784"><time>2023-06-03T05:27:42.877</time></trkpt><trkpt lat="55.9049653" lon="49.2206942"><time>2023-06-03T05:27:44.847</time></trkpt><trkpt lat="55.9049021" lon="49.2206204"><time>2023-06-03T05:27:46.920</time></trkpt><trkpt lat="55.9048615" lon="49.2205690"><time>2023-06-03T05:27:47.880</time></trkpt><trkpt lat="55.9048221" lon="49.2205187"><time>2023-06-03T05:27:48.873</time></trkpt><trkpt lat="55.9047468" lon="49.2204343"><time>2023-06-03T05:27:50.863</time></trkpt><trkpt lat="55.9046800" lon="49.2203579"><time>2023-06-03T05:27:52.883</time></trkpt><trkpt lat="55.9046234" lon="49.2203458"><time>2023-06-03T05:27:55.883</time></trkpt><trkpt lat="55.9045668" lon="49.2203238"><time>2023-06-03T05:27:57.860</time></trkpt><trkpt lat="55.9044953" lon="49.2203301"><time>2023-06-03T05:27:59.873</time></trkpt><trkpt lat="55.9044261" lon="49.2203702"><time>2023-06-03T05:28:01.890</time></trkpt><trkpt lat="55.9043565" lon="49.2204245"><time>2023-06-03T05:28:03.877</time></trkpt><trkpt lat="55.9042760" lon="49.2204602"><time>2023-06-03T05:28:05.880</time></trkpt><trkpt lat="55.9041952" lon="49.2204810"><time>2023-06-03T05:28:07.873</time></trkpt><trkpt lat="55.9041132" lon="49.2205001"><time>2023-06-03T05:28:09.877</time></trkpt><trkpt lat="55.9040274" lon="49.2204951"><time>2023-06-03T05:28:11.880</time></trkpt><trkpt lat="55.9039649" lon="49.2204012"><time>2023-06-03T05:28:13.850</time></trkpt><trkpt lat="55.9039429" lon="49.2202410"><time>2023-06-03T05:28:15.887</time></trkpt><trkpt lat="55.9039410" lon="49.2201521"><time>2023-06-03T05:28:16.877</time></trkpt><trkpt lat="55.9039413" lon="49.2200699"><time>2023-06-03T05:28:17.877</time></trkpt><trkpt lat="55.9039440" lon="49.2199322"><time>2023-06-03T05:28:19.873</time></trkpt><trkpt lat="55.9039583" lon="49.2198073"><time>2023-06-03T05:28:21.910</time></trkpt><trkpt lat="55.9039904" lon="49.2196935"><time>2023-06-03T05:28:23.880</time></trkpt><trkpt lat="55.9040297" lon="49.2195939"><time>2023-06-03T05:28:25.877</time></trkpt><trkpt lat="55.9040578" lon="49.2195050"><time>2023-06-03T05:28:27.890</time></trkpt><trkpt lat="55.9040772" lon="49.2194240"><time>2023-06-03T05:28:30.867</time></trkpt><trkpt lat="55.9041024" lon="49.2193457"><time>2023-06-03T05:28:34.843</time></trkpt><trkpt lat="55.9041070" lon="49.2192642"><time>2023-06-03T05:28:37.877</time></trkpt><trkpt lat="55.9040506" lon="49.2193150"><time>2023-06-03T05:28:40.883</time></trkpt><trkpt lat="55.9040297" lon="49.2194080"><time>2023-06-03T05:28:42.880</time></trkpt><trkpt lat="55.9040090" lon="49.2195133"><time>2023-06-03T05:28:44.907</time></trkpt><trkpt lat="55.9039794" lon="49.2196214"><time>2023-06-03T05:28:46.867</time></trkpt><trkpt lat="55.9039427" lon="49.2197173"><time>2023-06-03T05:28:48.867</time></trkpt><trkpt lat="55.9038851" lon="49.2197937"><time>2023-06-03T05:28:50.887</time></trkpt><trkpt lat="55.9037986" lon="49.2198365"><time>2023-06-03T05:28:52.853</time></trkpt><trkpt lat="55.9037136" lon="49.2198537"><time>2023-06-03T05:28:54.863</time></trkpt><trkpt lat="55.9036635" lon="49.2198448"><time>2023-06-03T05:28:55.887</time></trkpt><trkpt lat="55.9035818" lon="49.2198315"><time>2023-06-03T05:28:57.870</time></trkpt><trkpt lat="55.9035344" lon="49.2198227"><time>2023-06-03T05:28:58.867</time></trkpt><trkpt lat="55.9034565" lon="49.2198272"><time>2023-06-03T05:29:00.860</time></trkpt><trkpt lat="55.9034083" lon="49.2198424"><time>2023-06-03T05:29:01.867</time></trkpt><trkpt lat="55.9033173" lon="49.2198558"><time>2023-06-03T05:29:03.867</time></trkpt><trkpt lat="55.9032715" lon="49.2198612"><time>2023-06-03T05:29:04.877</time></trkpt><trkpt lat="55.9032252" lon="49.2198690"><time>2023-06-03T05:29:05.873</time></trkpt><trkpt lat="55.9031358" lon="49.2198717"><time>2023-06-03T05:29:07.863</time></trkpt><trkpt lat="55.9030761" lon="49.2198666"><time>2023-06-03T05:29:08.890</time></trkpt><trkpt lat="55.9030244" lon="49.2198754"><time>2023-06-03T05:29:09.857</time></trkpt><trkpt lat="55.9029752" lon="49.2198774"><time>2023-06-03T05:29:10.847</time></trkpt><trkpt lat="55.9028832" lon="49.2198813"><time>2023-06-03T05:29:12.877</time></trkpt><trkpt lat="55.9028288" lon="49.2198788"><time>2023-06-03T05:29:13.867</time></trkpt><trkpt lat="55.9027775" lon="49.2198897"><time>2023-06-03T05:29:14.887</time></trkpt><trkpt lat="55.9027308" lon="49.2198966"><time>2023-06-03T05:29:15.870</time></trkpt><trkpt lat="55.9026474" lon="49.2198958"><time>2023-06-03T05:29:17.877</time></trkpt><trkpt lat="55.9025850" lon="49.2199012"><time>2023-06-03T05:29:19.877</time></trkpt><trkpt lat="55.9025435" lon="49.2198464"><time>2023-06-03T05:29:22.857</time></trkpt><trkpt lat="55.9025234" lon="49.2197665"><time>2023-06-03T05:29:24.867</time></trkpt><trkpt lat="55.9024907" lon="49.2196935"><time>2023-06-03T05:29:26.883</time></trkpt><trkpt lat="55.9024646" lon="49.2196205"><time>2023-06-03T05:29:28.870</time></trkpt><trkpt lat="55.9024255" lon="49.2195235"><time>2023-06-03T05:29:31.877</time></trkpt><trkpt lat="55.9023815" lon="49.2195019"><time>2023-06-03T05:29:37.847</time></trkpt><trkpt lat="55.9024163" lon="49.2196131"><time>2023-06-03T05:29:54.883</time></trkpt><trkpt lat="55.9024573" lon="49.2197309"><time>2023-06-03T05:29:56.847</time></trkpt><trkpt lat="55.9024871" lon="49.2198096"><time>2023-06-03T05:29:58.863</time></trkpt><trkpt lat="55.9025231" lon="49.2198685"><time>2023-06-03T05:30:00.843</time></trkpt><trkpt lat="55.9025319" lon="49.2199519"><time>2023-06-03T05:30:03.877</time></trkpt><trkpt lat="55.9024776" lon="49.2200028"><time>2023-06-03T05:30:05.873</time></trkpt><trkpt lat="55.9024104" lon="49.2199971"><time>2023-06-03T05:30:07.907</time></trkpt><trkpt lat="55.9023507" lon="49.2199856"><time>2023-06-03T05:30:09.867</time></trkpt><trkpt lat="55.9022990" lon="49.2199872"><time>2023-06-03T05:30:11.877</time></trkpt><trkpt lat="55.9022467" lon="49.2199977"><time>2023-06-03T05:30:13.883</time></trkpt><trkpt lat="55.9021999" lon="49.2200104"><time>2023-06-03T05:30:15.877</time></trkpt><trkpt lat="55.9021396" lon="49.2200340"><time>2023-06-03T05:30:18.867</time></trkpt><trkpt lat="55.9020748" lon="49.2200587"><time>2023-06-03T05:30:21.870</time></trkpt><trkpt lat="55.9020287" lon="49.2200145"><time>2023-06-03T05:30:25.887</time></trkpt><trkpt lat="55.9020364" lon="49.2199295"><time>2023-06-03T05:30:28.873</time></trkpt><trkpt lat="55.9020199" lon="49.2198547"><time>2023-06-03T05:30:38.867</time></trkpt><trkpt lat="55.9020711" lon="49.2198184"><time>2023-06-03T05:30:49.883</time></trkpt><trkpt lat="55.9021216" lon="49.2198099"><time>2023-06-03T05:30:54.867</time></trkpt><trkpt lat="55.9021678" lon="49.2197834"><time>2023-06-03T05:31:00.860</time></trkpt><trkpt lat="55.9022115" lon="49.2197543"><time>2023-06-03T05:32:20.867</time></trkpt><trkpt lat="55.9022584" lon="49.2197618"><time>2023-06-03T05:32:58.870</time></trkpt><trkpt lat="55.9022810" lon="49.2198504"><time>2023-06-03T05:33:05.913</time></trkpt><trkpt lat="55.9023044" lon="49.2199278"><time>2023-06-03T05:33:10.860</time></trkpt><trkpt lat="55.9023559" lon="49.2199270"><time>2023-06-03T05:33:14.873</time></trkpt><trkpt lat="55.9024048" lon="49.2199259"><time>2023-06-03T05:33:17.900</time></trkpt><trkpt lat="55.9024509" lon="49.2199290"><time>2023-06-03T05:33:20.880</time></trkpt><trkpt lat="55.9024991" lon="49.2199233"><time>2023-06-03T05:33:24.873</time></trkpt><trkpt lat="55.9025254" lon="49.2198483"><time>2023-06-03T05:33:29.907</time></trkpt><trkpt lat="55.9024976" lon="49.2197677"><time>2023-06-03T05:33:33.867</time></trkpt><trkpt lat="55.9024772" lon="49.2196874"><time>2023-06-03T05:33:36.887</time></trkpt><trkpt lat="55.9024507" lon="49.2196116"><time>2023-06-03T05:33:39.863</time></trkpt><trkpt lat="55.9024253" lon="49.2195396"><time>2023-06-03T05:33:43.867</time></trkpt><trkpt lat="55.9023840" lon="49.2194922"><time>2023-06-03T05:33:50.877</time></trkpt><trkpt lat="55.9023392" lon="49.2194806"><time>2023-06-03T05:33:56.843</time></trkpt><trkpt lat="55.9022944" lon="49.2194420"><time>2023-06-03T05:34:05.897</time></trkpt><trkpt lat="55.9023120" lon="49.2195262"><time>2023-06-03T05:34:28.857</time></trkpt><trkpt lat="55.9023705" lon="49.2195802"><time>2023-06-03T05:34:31.877</time></trkpt><trkpt lat="55.9024097" lon="49.2196365"><time>2023-06-03T05:34:33.877</time></trkpt><trkpt lat="55.9024408" lon="49.2197011"><time>2023-06-03T05:34:35.890</time></trkpt><trkpt lat="55.9024696" lon="49.2197643"><time>2023-06-03T05:34:37.860</time></trkpt><trkpt lat="55.9025102" lon="49.2198387"><time>2023-06-03T05:34:40.877</time></trkpt><trkpt lat="55.9025159" lon="49.2199227"><time>2023-06-03T05:34:44.863</time></trkpt><trkpt lat="55.9024708" lon="49.2199588"><time>2023-06-03T05:34:47.840</time></trkpt><trkpt lat="55.9024156" lon="49.2199501"><time>2023-06-03T05:34:51.873</time></trkpt><trkpt lat="55.9023656" lon="49.2199594"><time>2023-06-03T05:34:55.873</time></trkpt><trkpt lat="55.9023188" lon="49.2199451"><time>2023-06-03T05:35:00.863</time></trkpt><trkpt lat="55.9022931" lon="49.2198481"><time>2023-06-03T05:35:04.860</time></trkpt><trkpt lat="55.9022640" lon="49.2197869"><time>2023-06-03T05:35:07.867</time></trkpt><trkpt lat="55.9022998" lon="49.2198629"><time>2023-06-03T05:35:32.867</time></trkpt><trkpt lat="55.9022737" lon="49.2199324"><time>2023-06-03T05:35:41.890</time></trkpt><trkpt lat="55.9022327" lon="49.2199661"><time>2023-06-03T05:35:43.853</time></trkpt><trkpt lat="55.9021829" lon="49.2200021"><time>2023-06-03T05:35:45.877</time></trkpt><trkpt lat="55.9021351" lon="49.2200216"><time>2023-06-03T05:35:47.883</time></trkpt><trkpt lat="55.9020782" lon="49.2200276"><time>2023-06-03T05:35:49.860</time></trkpt><trkpt lat="55.9020119" lon="49.2200245"><time>2023-06-03T05:35:51.880</time></trkpt><trkpt lat="55.9019356" lon="49.2200257"><time>2023-06-03T05:35:53.873</time></trkpt><trkpt lat="55.9018524" lon="49.2200290"><time>2023-06-03T05:35:55.887</time></trkpt><trkpt lat="55.9017636" lon="49.2200212"><time>2023-06-03T05:35:57.853</time></trkpt><trkpt lat="55.9016806" lon="49.2200238"><time>2023-06-03T05:35:59.860</time></trkpt><trkpt lat="55.9016017" lon="49.2200317"><time>2023-06-03T05:36:01.877</time></trkpt><trkpt lat="55.9015236" lon="49.2200412"><time>2023-06-03T05:36:03.867</time></trkpt><trkpt lat="55.9014377" lon="49.2200460"><time>2023-06-03T05:36:05.873</time></trkpt><trkpt lat="55.9013554" lon="49.2200459"><time>2023-06-03T05:36:07.873</time></trkpt><trkpt lat="55.9012750" lon="49.2200531"><time>2023-06-03T05:36:09.877</time></trkpt><trkpt lat="55.9012106" lon="49.2200702"><time>2023-06-03T05:36:11.863</time></trkpt><trkpt lat="55.9011468" lon="49.2200993"><time>2023-06-03T05:36:13.880</time></trkpt><trkpt lat="55.9010715" lon="49.2201218"><time>2023-06-03T05:36:15.877</time></trkpt><trkpt lat="55.9010013" lon="49.2201356"><time>2023-06-03T05:36:17.867</time></trkpt><trkpt lat="55.9009477" lon="49.2201460"><time>2023-06-03T05:36:19.870</time></trkpt><trkpt lat="55.9009803" lon="49.2200666"><time>2023-06-03T05:36:26.870</time></trkpt><trkpt lat="55.9009590" lon="49.2199871"><time>2023-06-03T05:36:28.897</time></trkpt><trkpt lat="55.9009429" lon="49.2199091"><time>2023-06-03T05:36:30.883</time></trkpt><trkpt lat="55.9009368" lon="49.2198188"><time>2023-06-03T05:36:34.890</time></trkpt><trkpt lat="55.9009262" lon="49.2197311"><time>2023-06-03T05:36:39.870</time></trkpt><trkpt lat="55.9009400" lon="49.2196410"><time>2023-06-03T05:36:43.873</time></trkpt><trkpt lat="55.9009291" lon="49.2195627"><time>2023-06-03T05:37:09.877</time></trkpt><trkpt lat="55.9008743" lon="49.2195896"><time>2023-06-03T05:38:59.887</time></trkpt><trkpt lat="55.9008287" lon="49.2195856"><time>2023-06-03T05:39:03.903</time></trkpt><trkpt lat="55.9007795" lon="49.2195947"><time>2023-06-03T05:39:07.877</time></trkpt><trkpt lat="55.9007619" lon="49.2195205"><time>2023-06-03T05:39:13.873</time></trkpt><trkpt lat="55.9007470" lon="49.2194382"><time>2023-06-03T05:39:20.873</time></trkpt><trkpt lat="55.9007918" lon="49.2194055"><time>2023-06-03T05:39:30.880</time></trkpt><trkpt lat="55.9008301" lon="49.2193589"><time>2023-06-03T05:39:48.877</time></trkpt><trkpt lat="55.9008339" lon="49.2192756"><time>2023-06-03T05:39:51.907</time></trkpt><trkpt lat="55.9008527" lon="49.2191852"><time>2023-06-03T05:39:54.867</time></trkpt><trkpt lat="55.9008827" lon="49.2191207"><time>2023-06-03T05:39:57.883</time></trkpt><trkpt lat="55.9009257" lon="49.2190624"><time>2023-06-03T05:40:00.877</time></trkpt><trkpt lat="55.9009494" lon="49.2189733"><time>2023-06-03T05:40:03.920</time></trkpt><trkpt lat="55.9009038" lon="49.2188959"><time>2023-06-03T05:40:10.863</time></trkpt><trkpt lat="55.9008542" lon="49.2188612"><time>2023-06-03T05:40:12.887</time></trkpt><trkpt lat="55.9008060" lon="49.2188279"><time>2023-06-03T05:40:14.873</time></trkpt><trkpt lat="55.9007588" lon="49.2187973"><time>2023-06-03T05:40:16.863</time></trkpt><trkpt lat="55.9007091" lon="49.2187693"><time>2023-06-03T05:40:18.877</time></trkpt><trkpt lat="55.9006527" lon="49.2187334"><time>2023-06-03T05:40:20.870</time></trkpt><trkpt lat="55.9005912" lon="49.2186896"><time>2023-06-03T05:40:22.860</time></trkpt><trkpt lat="55.9005241" lon="49.2186624"><time>2023-06-03T05:40:24.870</time></trkpt><trkpt lat="55.9004623" lon="49.2186461"><time>2023-06-03T05:40:26.873</time></trkpt><trkpt lat="55.9003948" lon="49.2186208"><time>2023-06-03T05:40:28.873</time></trkpt><trkpt lat="55.9003235" lon="49.2185770"><time>2023-06-03T05:40:30.867</time></trkpt><trkpt lat="55.9002511" lon="49.2185224"><time>2023-06-03T05:40:32.907</time></trkpt><trkpt lat="55.9001891" lon="49.2184786"><time>2023-06-03T05:40:34.863</time></trkpt><trkpt lat="55.9001215" lon="49.2184442"><time>2023-06-03T05:40:36.877</time></trkpt><trkpt lat="55.9000437" lon="49.2184449"><time>2023-06-03T05:40:38.877</time></trkpt><trkpt lat="55.8999678" lon="49.2184772"><time>2023-06-03T05:40:40.867</time></trkpt><trkpt lat="55.8999002" lon="49.2185245"><time>2023-06-03T05:40:42.870</time></trkpt><trkpt lat="55.8998399" lon="49.2185412"><time>2023-06-03T05:40:44.903</time></trkpt><trkpt lat="55.8997729" lon="49.2185549"><time>2023-06-03T05:40:46.877</time></trkpt><trkpt lat="55.8997130" lon="49.2185850"><time>2023-06-03T05:40:48.873</time></trkpt><trkpt lat="55.8996667" lon="49.2186187"><time>2023-06-03T05:40:50.877</time></trkpt><trkpt lat="55.8996234" lon="49.2186589"><time>2023-06-03T05:40:52.867</time></trkpt><trkpt lat="55.8995787" lon="49.2187146"><time>2023-06-03T05:40:54.873</time></trkpt><trkpt lat="55.8995386" lon="49.2187778"><time>2023-06-03T05:40:56.887</time></trkpt><trkpt lat="55.8995063" lon="49.2188754"><time>2023-06-03T05:40:59.877</time></trkpt><trkpt lat="55.8994990" lon="49.2189606"><time>2023-06-03T05:41:01.853</time></trkpt><trkpt lat="55.8995021" lon="49.2190550"><time>2023-06-03T05:41:03.877</time></trkpt><trkpt lat="55.8995011" lon="49.2191532"><time>2023-06-03T05:41:05.867</time></trkpt><trkpt lat="55.8994910" lon="49.2192453"><time>2023-06-03T05:41:07.863</time></trkpt><trkpt lat="55.8994722" lon="49.2193411"><time>2023-06-03T05:41:09.870</time></trkpt><trkpt lat="55.8994527" lon="49.2194358"><time>2023-06-03T05:41:11.873</time></trkpt><trkpt lat="55.8994257" lon="49.2195222"><time>2023-06-03T05:41:13.877</time></trkpt><trkpt lat="55.8993933" lon="49.2195909"><time>2023-06-03T05:41:15.880</time></trkpt><trkpt lat="55.8993517" lon="49.2196547"><time>2023-06-03T05:41:17.857</time></trkpt><trkpt lat="55.8993134" lon="49.2197141"><time>2023-06-03T05:41:44.907</time></trkpt><trkpt lat="55.8992675" lon="49.2197498"><time>2023-06-03T05:41:46.867</time></trkpt><trkpt lat="55.8992106" lon="49.2198002"><time>2023-06-03T05:41:48.860</time></trkpt><trkpt lat="55.8991467" lon="49.2198686"><time>2023-06-03T05:41:50.883</time></trkpt><trkpt lat="55.8990861" lon="49.2199303"><time>2023-06-03T05:41:52.873</time></trkpt><trkpt lat="55.8990308" lon="49.2199806"><time>2023-06-03T05:41:54.860</time></trkpt><trkpt lat="55.8989742" lon="49.2200399"><time>2023-06-03T05:41:56.907</time></trkpt><trkpt lat="55.8989186" lon="49.2201015"><time>2023-06-03T05:41:58.863</time></trkpt><trkpt lat="55.8988564" lon="49.2201609"><time>2023-06-03T05:42:00.850</time></trkpt><trkpt lat="55.8987990" lon="49.2202305"><time>2023-06-03T05:42:02.877</time></trkpt><trkpt lat="55.8987398" lon="49.2203002"><time>2023-06-03T05:42:04.867</time></trkpt><trkpt lat="55.8987111" lon="49.2203329"><time>2023-06-03T05:42:05.867</time></trkpt><trkpt lat="55.8986524" lon="49.2204003"><time>2023-06-03T05:42:07.873</time></trkpt><trkpt lat="55.8985956" lon="49.2204623"><time>2023-06-03T05:42:09.857</time></trkpt><trkpt lat="55.8985419" lon="49.2205299"><time>2023-06-03T05:42:11.857</time></trkpt><trkpt lat="55.8984900" lon="49.2205993"><time>2023-06-03T05:42:13.860</time></trkpt><trkpt lat="55.8984392" lon="49.2206676"><time>2023-06-03T05:42:15.857</time></trkpt><trkpt lat="55.8983857" lon="49.2207461"><time>2023-06-03T05:42:17.860</time></trkpt><trkpt lat="55.8983423" lon="49.2208288"><time>2023-06-03T05:42:19.867</time></trkpt><trkpt lat="55.8983109" lon="49.2208996"><time>2023-06-03T05:42:21.877</time></trkpt><trkpt lat="55.8982741" lon="49.2209791"><time>2023-06-03T05:42:23.867</time></trkpt><trkpt lat="55.8982320" lon="49.2210587"><time>2023-06-03T05:42:25.887</time></trkpt><trkpt lat="55.8981875" lon="49.2211301"><time>2023-06-03T05:42:27.860</time></trkpt><trkpt lat="55.8981510" lon="49.2212073"><time>2023-06-03T05:42:29.847</time></trkpt><trkpt lat="55.8981114" lon="49.2212919"><time>2023-06-03T05:42:31.927</time></trkpt><trkpt lat="55.8980647" lon="49.2213739"><time>2023-06-03T05:42:33.957</time></trkpt><trkpt lat="55.8980410" lon="49.2214161"><time>2023-06-03T05:42:34.853</time></trkpt><trkpt lat="55.8979906" lon="49.2215007"><time>2023-06-03T05:42:36.857</time></trkpt><trkpt lat="55.8979423" lon="49.2215655"><time>2023-06-03T05:42:38.853</time></trkpt><trkpt lat="55.8978963" lon="49.2216178"><time>2023-06-03T05:42:40.870</time></trkpt><trkpt lat="55.8978468" lon="49.2216734"><time>2023-06-03T05:42:42.850</time></trkpt><trkpt lat="55.8978021" lon="49.2217180"><time>2023-06-03T05:42:44.863</time></trkpt><trkpt lat="55.8977552" lon="49.2217684"><time>2023-06-03T05:42:46.860</time></trkpt><trkpt lat="55.8977060" lon="49.2218230"><time>2023-06-03T05:42:48.870</time></trkpt><trkpt lat="55.8976520" lon="49.2218761"><time>2023-06-03T05:42:50.877</time></trkpt><trkpt lat="55.8976242" lon="49.2219027"><time>2023-06-03T05:42:51.860</time></trkpt><trkpt lat="55.8975718" lon="49.2219526"><time>2023-06-03T05:42:53.870</time></trkpt><trkpt lat="55.8975253" lon="49.2220129"><time>2023-06-03T05:42:55.877</time></trkpt><trkpt lat="55.8974918" lon="49.2220829"><time>2023-06-03T05:42:57.863</time></trkpt><trkpt lat="55.8974737" lon="49.2221730"><time>2023-06-03T05:42:59.860</time></trkpt><trkpt lat="55.8974682" lon="49.2222717"><time>2023-06-03T05:43:01.867</time></trkpt><trkpt lat="55.8974702" lon="49.2223559"><time>2023-06-03T05:43:03.883</time></trkpt><trkpt lat="55.8974702" lon="49.2223559"><time>2023-06-03T05:43:03.967</time></trkpt><trkpt lat="55.8974829" lon="49.2224712"><time>2023-06-03T05:43:06.907</time></trkpt><trkpt lat="55.8974847" lon="49.2225064"><time>2023-06-03T05:43:07.867</time></trkpt><trkpt lat="55.8974710" lon="49.2226133"><time>2023-06-03T05:43:10.867</time></trkpt><trkpt lat="55.8974470" lon="49.2227012"><time>2023-06-03T05:43:12.860</time></trkpt><trkpt lat="55.8974185" lon="49.2227975"><time>2023-06-03T05:43:14.867</time></trkpt><trkpt lat="55.8973886" lon="49.2228977"><time>2023-06-03T05:43:16.853</time></trkpt><trkpt lat="55.8973563" lon="49.2229925"><time>2023-06-03T05:43:18.857</time></trkpt><trkpt lat="55.8973273" lon="49.2230665"><time>2023-06-03T05:43:20.873</time></trkpt><trkpt lat="55.8972827" lon="49.2231092"><time>2023-06-03T05:45:05.900</time></trkpt><trkpt lat="55.8972360" lon="49.2231454"><time>2023-06-03T05:45:07.857</time></trkpt><trkpt lat="55.8971681" lon="49.2231909"><time>2023-06-03T05:45:09.863</time></trkpt><trkpt lat="55.8970882" lon="49.2232349"><time>2023-06-03T05:45:11.893</time></trkpt><trkpt lat="55.8970093" lon="49.2232648"><time>2023-06-03T05:45:13.873</time></trkpt><trkpt lat="55.8969241" lon="49.2232907"><time>2023-06-03T05:45:15.867</time></trkpt><trkpt lat="55.8968368" lon="49.2233243"><time>2023-06-03T05:45:17.860</time></trkpt><trkpt lat="55.8967564" lon="49.2233722"><time>2023-06-03T05:45:19.850</time></trkpt><trkpt lat="55.8966851" lon="49.2234403"><time>2023-06-03T05:45:21.857</time></trkpt><trkpt lat="55.8966178" lon="49.2235429"><time>2023-06-03T05:45:23.857</time></trkpt><trkpt lat="55.8965847" lon="49.2235992"><time>2023-06-03T05:45:24.867</time></trkpt><trkpt lat="55.8965539" lon="49.2236586"><time>2023-06-03T05:45:25.857</time></trkpt><trkpt lat="55.8964997" lon="49.2237758"><time>2023-06-03T05:45:27.867</time></trkpt><trkpt lat="55.8964555" lon="49.2238875"><time>2023-06-03T05:45:29.870</time></trkpt><trkpt lat="55.8964119" lon="49.2239903"><time>2023-06-03T05:45:31.870</time></trkpt><trkpt lat="55.8963695" lon="49.2240929"><time>2023-06-03T05:45:33.873</time></trkpt><trkpt lat="55.8963210" lon="49.2242015"><time>2023-06-03T05:45:35.863</time></trkpt><trkpt lat="55.8962647" lon="49.2242931"><time>2023-06-03T05:45:37.880</time></trkpt><trkpt lat="55.8962272" lon="49.2243627"><time>2023-06-03T05:45:38.873</time></trkpt><trkpt lat="55.8961477" lon="49.2244377"><time>2023-06-03T05:45:40.860</time></trkpt><trkpt lat="55.8960746" lon="49.2245036"><time>2023-06-03T05:45:42.860</time></trkpt><trkpt lat="55.8959982" lon="49.2245653"><time>2023-06-03T05:45:44.860</time></trkpt><trkpt lat="55.8959552" lon="49.2245920"><time>2023-06-03T05:45:45.883</time></trkpt><trkpt lat="55.8959122" lon="49.2246346"><time>2023-06-03T05:45:46.863</time></trkpt><trkpt lat="55.8958483" lon="49.2246848"><time>2023-06-03T05:45:48.857</time></trkpt><trkpt lat="55.8957815" lon="49.2247627"><time>2023-06-03T05:45:50.873</time></trkpt><trkpt lat="55.8957411" lon="49.2248004"><time>2023-06-03T05:45:51.903</time></trkpt><trkpt lat="55.8957009" lon="49.2248404"><time>2023-06-03T05:45:52.877</time></trkpt><trkpt lat="55.8956205" lon="49.2249156"><time>2023-06-03T05:45:54.870</time></trkpt><trkpt lat="55.8955515" lon="49.2250027"><time>2023-06-03T05:45:56.887</time></trkpt><trkpt lat="55.8954737" lon="49.2250692"><time>2023-06-03T05:45:58.853</time></trkpt><trkpt lat="55.8954313" lon="49.2251107"><time>2023-06-03T05:45:59.883</time></trkpt><trkpt lat="55.8953887" lon="49.2251401"><time>2023-06-03T05:46:00.857</time></trkpt><trkpt lat="55.8953338" lon="49.2251847"><time>2023-06-03T05:46:01.860</time></trkpt><trkpt lat="55.8952898" lon="49.2252194"><time>2023-06-03T05:46:02.860</time></trkpt><trkpt lat="55.8952162" lon="49.2252643"><time>2023-06-03T05:46:04.857</time></trkpt><trkpt lat="55.8951367" lon="49.2253252"><time>2023-06-03T05:46:06.857</time></trkpt><trkpt lat="55.8950680" lon="49.2253960"><time>2023-06-03T05:46:08.850</time></trkpt><trkpt lat="55.8949910" lon="49.2254607"><time>2023-06-03T05:46:10.853</time></trkpt><trkpt lat="55.8949215" lon="49.2255535"><time>2023-06-03T05:46:12.857</time></trkpt><trkpt lat="55.8948438" lon="49.2256058"><time>2023-06-03T05:46:14.863</time></trkpt><trkpt lat="55.8948009" lon="49.2256372"><time>2023-06-03T05:46:15.887</time></trkpt><trkpt lat="55.8947229" lon="49.2256920"><time>2023-06-03T05:46:17.863</time></trkpt><trkpt lat="55.8946727" lon="49.2257102"><time>2023-06-03T05:46:18.860</time></trkpt><trkpt lat="55.8945926" lon="49.2257290"><time>2023-06-03T05:46:20.853</time></trkpt><trkpt lat="55.8945462" lon="49.2257307"><time>2023-06-03T05:46:21.880</time></trkpt><trkpt lat="55.8945000" lon="49.2257255"><time>2023-06-03T05:46:22.870</time></trkpt><trkpt lat="55.8944147" lon="49.2257011"><time>2023-06-03T05:46:24.870</time></trkpt><trkpt lat="55.8943660" lon="49.2256736"><time>2023-06-03T05:46:25.867</time></trkpt><trkpt lat="55.8942843" lon="49.2256132"><time>2023-06-03T05:46:27.907</time></trkpt><trkpt lat="55.8942419" lon="49.2255764"><time>2023-06-03T05:46:28.873</time></trkpt><trkpt lat="55.8941989" lon="49.2255371"><time>2023-06-03T05:46:29.860</time></trkpt><trkpt lat="55.8941569" lon="49.2254726"><time>2023-06-03T05:46:30.873</time></trkpt><trkpt lat="55.8941108" lon="49.2254300"><time>2023-06-03T05:46:31.857</time></trkpt><trkpt lat="55.8940357" lon="49.2253670"><time>2023-06-03T05:46:33.893</time></trkpt><trkpt lat="55.8939624" lon="49.2252781"><time>2023-06-03T05:46:35.877</time></trkpt><trkpt lat="55.8939211" lon="49.2252429"><time>2023-06-03T05:46:36.860</time></trkpt><trkpt lat="55.8938747" lon="49.2252039"><time>2023-06-03T05:46:37.877</time></trkpt><trkpt lat="55.8938034" lon="49.2251447"><time>2023-06-03T05:46:39.913</time></trkpt><trkpt lat="55.8937613" lon="49.2250993"><time>2023-06-03T05:46:40.863</time></trkpt><trkpt lat="55.8937212" lon="49.2250610"><time>2023-06-03T05:46:41.860</time></trkpt><trkpt lat="55.8936464" lon="49.2250089"><time>2023-06-03T05:46:43.860</time></trkpt><trkpt lat="55.8935974" lon="49.2249920"><time>2023-06-03T05:46:44.867</time></trkpt><trkpt lat="55.8935172" lon="49.2249369"><time>2023-06-03T05:46:46.857</time></trkpt><trkpt lat="55.8934722" lon="49.2249097"><time>2023-06-03T05:46:47.867</time></trkpt><trkpt lat="55.8934226" lon="49.2248727"><time>2023-06-03T05:46:48.867</time></trkpt><trkpt lat="55.8933280" lon="49.2248200"><time>2023-06-03T05:46:50.870</time></trkpt><trkpt lat="55.8932359" lon="49.2248008"><time>2023-06-03T05:46:52.863</time></trkpt><trkpt lat="55.8931885" lon="49.2247929"><time>2023-06-03T05:46:53.867</time></trkpt><trkpt lat="55.8930924" lon="49.2247553"><time>2023-06-03T05:46:55.867</time></trkpt><trkpt lat="55.8930003" lon="49.2247356"><time>2023-06-03T05:46:57.877</time></trkpt><trkpt lat="55.8929143" lon="49.2247199"><time>2023-06-03T05:46:59.890</time></trkpt><trkpt lat="55.8928691" lon="49.2247230"><time>2023-06-03T05:47:00.860</time></trkpt><trkpt lat="55.8928232" lon="49.2246910"><time>2023-06-03T05:47:01.873</time></trkpt><trkpt lat="55.8927446" lon="49.2246619"><time>2023-06-03T05:47:03.917</time></trkpt><trkpt lat="55.8926994" lon="49.2246627"><time>2023-06-03T05:47:04.863</time></trkpt><trkpt lat="55.8926487" lon="49.2246579"><time>2023-06-03T05:47:05.890</time></trkpt><trkpt lat="55.8926017" lon="49.2246438"><time>2023-06-03T05:47:06.860</time></trkpt><trkpt lat="55.8925552" lon="49.2246543"><time>2023-06-03T05:47:07.873</time></trkpt><trkpt lat="55.8925073" lon="49.2246576"><time>2023-06-03T05:47:08.860</time></trkpt><trkpt lat="55.8924620" lon="49.2246590"><time>2023-06-03T05:47:09.880</time></trkpt><trkpt lat="55.8924169" lon="49.2246448"><time>2023-06-03T05:47:10.860</time></trkpt><trkpt lat="55.8923338" lon="49.2245982"><time>2023-06-03T05:47:12.880</time></trkpt><trkpt lat="55.8922629" lon="49.2245477"><time>2023-06-03T05:47:14.870</time></trkpt><trkpt lat="55.8921772" lon="49.2244984"><time>2023-06-03T05:47:16.867</time></trkpt><trkpt lat="55.8921262" lon="49.2244669"><time>2023-06-03T05:47:17.870</time></trkpt><trkpt lat="55.8920800" lon="49.2244344"><time>2023-06-03T05:47:18.850</time></trkpt><trkpt lat="55.8920338" lon="49.2244064"><time>2023-06-03T05:47:19.887</time></trkpt><trkpt lat="55.8919516" lon="49.2243581"><time>2023-06-03T05:47:21.880</time></trkpt><trkpt lat="55.8918695" lon="49.2243071"><time>2023-06-03T05:47:23.880</time></trkpt><trkpt lat="55.8918237" lon="49.2242770"><time>2023-06-03T05:47:24.873</time></trkpt><trkpt lat="55.8917746" lon="49.2242448"><time>2023-06-03T05:47:25.873</time></trkpt><trkpt lat="55.8917228" lon="49.2242032"><time>2023-06-03T05:47:26.887</time></trkpt><trkpt lat="55.8916388" lon="49.2241448"><time>2023-06-03T05:47:28.853</time></trkpt><trkpt lat="55.8915939" lon="49.2241183"><time>2023-06-03T05:47:29.883</time></trkpt><trkpt lat="55.8915188" lon="49.2240614"><time>2023-06-03T05:47:31.863</time></trkpt><trkpt lat="55.8914743" lon="49.2240294"><time>2023-06-03T05:47:32.880</time></trkpt><trkpt lat="55.8913887" lon="49.2239443"><time>2023-06-03T05:47:34.857</time></trkpt><trkpt lat="55.8913414" lon="49.2239133"><time>2023-06-03T05:47:35.870</time></trkpt><trkpt lat="55.8912623" lon="49.2238516"><time>2023-06-03T05:47:37.867</time></trkpt><trkpt lat="55.8912108" lon="49.2238119"><time>2023-06-03T05:47:38.900</time></trkpt><trkpt lat="55.8911257" lon="49.2237647"><time>2023-06-03T05:47:40.863</time></trkpt><trkpt lat="55.8910417" lon="49.2237201"><time>2023-06-03T05:47:42.870</time></trkpt><trkpt lat="55.8909530" lon="49.2236703"><time>2023-06-03T05:47:44.867</time></trkpt><trkpt lat="55.8908786" lon="49.2236407"><time>2023-06-03T05:47:46.863</time></trkpt><trkpt lat="55.8908067" lon="49.2236000"><time>2023-06-03T05:47:48.863</time></trkpt><trkpt lat="55.8907310" lon="49.2235706"><time>2023-06-03T05:47:50.883</time></trkpt><trkpt lat="55.8906630" lon="49.2235504"><time>2023-06-03T05:47:52.857</time></trkpt><trkpt lat="55.8905903" lon="49.2235346"><time>2023-06-03T05:47:54.873</time></trkpt><trkpt lat="55.8905123" lon="49.2235491"><time>2023-06-03T05:47:56.877</time></trkpt><trkpt lat="55.8904299" lon="49.2235785"><time>2023-06-03T05:47:58.853</time></trkpt><trkpt lat="55.8903480" lon="49.2236038"><time>2023-06-03T05:48:00.867</time></trkpt><trkpt lat="55.8902645" lon="49.2236358"><time>2023-06-03T05:48:02.907</time></trkpt><trkpt lat="55.8902249" lon="49.2236819"><time>2023-06-03T05:48:03.873</time></trkpt><trkpt lat="55.8901486" lon="49.2237543"><time>2023-06-03T05:48:05.873</time></trkpt><trkpt lat="55.8900755" lon="49.2238248"><time>2023-06-03T05:48:07.880</time></trkpt><trkpt lat="55.8900311" lon="49.2238608"><time>2023-06-03T05:48:08.877</time></trkpt><trkpt lat="55.8899539" lon="49.2239329"><time>2023-06-03T05:48:10.863</time></trkpt><trkpt lat="55.8898812" lon="49.2239899"><time>2023-06-03T05:48:12.877</time></trkpt><trkpt lat="55.8898147" lon="49.2240200"><time>2023-06-03T05:48:14.917</time></trkpt><trkpt lat="55.8897522" lon="49.2240532"><time>2023-06-03T05:48:16.877</time></trkpt><trkpt lat="55.8896986" lon="49.2240899"><time>2023-06-03T05:48:18.870</time></trkpt><trkpt lat="55.8896485" lon="49.2241350"><time>2023-06-03T05:48:20.907</time></trkpt><trkpt lat="55.8896057" lon="49.2241810"><time>2023-06-03T05:48:22.860</time></trkpt><trkpt lat="55.8895613" lon="49.2242174"><time>2023-06-03T05:48:24.877</time></trkpt><trkpt lat="55.8895164" lon="49.2242119"><time>2023-06-03T05:48:26.900</time></trkpt><trkpt lat="55.8894722" lon="49.2241577"><time>2023-06-03T05:48:28.873</time></trkpt><trkpt lat="55.8894233" lon="49.2240922"><time>2023-06-03T05:48:30.867</time></trkpt><trkpt lat="55.8893700" lon="49.2240504"><time>2023-06-03T05:48:32.887</time></trkpt><trkpt lat="55.8893213" lon="49.2240545"><time>2023-06-03T05:48:34.853</time></trkpt><trkpt lat="55.8892709" lon="49.2241290"><time>2023-06-03T05:48:37.877</time></trkpt><trkpt lat="55.8892397" lon="49.2242135"><time>2023-06-03T05:48:39.860</time></trkpt><trkpt lat="55.8892031" lon="49.2243319"><time>2023-06-03T05:48:41.873</time></trkpt><trkpt lat="55.8891675" lon="49.2244702"><time>2023-06-03T05:48:43.863</time></trkpt><trkpt lat="55.8891301" lon="49.2246059"><time>2023-06-03T05:48:45.870</time></trkpt><trkpt lat="55.8890882" lon="49.2247372"><time>2023-06-03T05:48:47.873</time></trkpt><trkpt lat="55.8890469" lon="49.2248696"><time>2023-06-03T05:48:49.870</time></trkpt><trkpt lat="55.8890167" lon="49.2249904"><time>2023-06-03T05:48:51.870</time></trkpt><trkpt lat="55.8889784" lon="49.2251207"><time>2023-06-03T05:48:53.877</time></trkpt><trkpt lat="55.8889636" lon="49.2251971"><time>2023-06-03T05:48:54.857</time></trkpt><trkpt lat="55.8889380" lon="49.2252693"><time>2023-06-03T05:48:55.877</time></trkpt><trkpt lat="55.8889081" lon="49.2253425"><time>2023-06-03T05:48:56.887</time></trkpt><trkpt lat="55.8888769" lon="49.2254666"><time>2023-06-03T05:48:58.860</time></trkpt><trkpt lat="55.8888507" lon="49.2255361"><time>2023-06-03T05:48:59.860</time></trkpt><trkpt lat="55.8888175" lon="49.2256227"><time>2023-06-03T05:49:00.867</time></trkpt><trkpt lat="55.8887866" lon="49.2257075"><time>2023-06-03T05:49:01.860</time></trkpt><trkpt lat="55.8887609" lon="49.2257822"><time>2023-06-03T05:49:02.897</time></trkpt><trkpt lat="55.8887340" lon="49.2258581"><time>2023-06-03T05:49:03.867</time></trkpt><trkpt lat="55.8887001" lon="49.2259414"><time>2023-06-03T05:49:04.867</time></trkpt><trkpt lat="55.8886476" lon="49.2261108"><time>2023-06-03T05:49:06.870</time></trkpt><trkpt lat="55.8886131" lon="49.2262684"><time>2023-06-03T05:49:08.877</time></trkpt><trkpt lat="55.8885873" lon="49.2263469"><time>2023-06-03T05:49:09.867</time></trkpt><trkpt lat="55.8885770" lon="49.2264302"><time>2023-06-03T05:49:10.853</time></trkpt><trkpt lat="55.8885420" lon="49.2264998"><time>2023-06-03T05:49:11.857</time></trkpt><trkpt lat="55.8885146" lon="49.2265711"><time>2023-06-03T05:49:12.867</time></trkpt><trkpt lat="55.8884912" lon="49.2266453"><time>2023-06-03T05:49:13.857</time></trkpt><trkpt lat="55.8884668" lon="49.2267165"><time>2023-06-03T05:49:14.893</time></trkpt><trkpt lat="55.8884447" lon="49.2268016"><time>2023-06-03T05:49:15.870</time></trkpt><trkpt lat="55.8883927" lon="49.2269549"><time>2023-06-03T05:49:17.857</time></trkpt><trkpt lat="55.8883795" lon="49.2270331"><time>2023-06-03T05:49:18.863</time></trkpt><trkpt lat="55.8883419" lon="49.2271929"><time>2023-06-03T05:49:20.863</time></trkpt><trkpt lat="55.8883152" lon="49.2272741"><time>2023-06-03T05:49:21.863</time></trkpt><trkpt lat="55.8882951" lon="49.2274021"><time>2023-06-03T05:49:23.867</time></trkpt><trkpt lat="55.8882676" lon="49.2274941"><time>2023-06-03T05:49:24.867</time></trkpt><trkpt lat="55.8882387" lon="49.2275860"><time>2023-06-03T05:49:25.893</time></trkpt><trkpt lat="55.8882161" lon="49.2276668"><time>2023-06-03T05:49:26.893</time></trkpt><trkpt lat="55.8881456" lon="49.2278138"><time>2023-06-03T05:49:28.873</time></trkpt><trkpt lat="55.8881191" lon="49.2278825"><time>2023-06-03T05:49:29.860</time></trkpt><trkpt lat="55.8880925" lon="49.2279585"><time>2023-06-03T05:49:30.857</time></trkpt><trkpt lat="55.8880722" lon="49.2280360"><time>2023-06-03T05:49:31.863</time></trkpt><trkpt lat="55.8880359" lon="49.2281335"><time>2023-06-03T05:49:32.913</time></trkpt><trkpt lat="55.8880081" lon="49.2282049"><time>2023-06-03T05:49:33.863</time></trkpt><trkpt lat="55.8879824" lon="49.2283024"><time>2023-06-03T05:49:34.867</time></trkpt><trkpt lat="55.8879431" lon="49.2283803"><time>2023-06-03T05:49:35.863</time></trkpt><trkpt lat="55.8879137" lon="49.2284818"><time>2023-06-03T05:49:36.873</time></trkpt><trkpt lat="55.8878933" lon="49.2285642"><time>2023-06-03T05:49:37.867</time></trkpt><trkpt lat="55.8878601" lon="49.2286498"><time>2023-06-03T05:49:38.853</time></trkpt><trkpt lat="55.8878288" lon="49.2287362"><time>2023-06-03T05:49:39.860</time></trkpt><trkpt lat="55.8877946" lon="49.2288095"><time>2023-06-03T05:49:40.857</time></trkpt><trkpt lat="55.8877781" lon="49.2288931"><time>2023-06-03T05:49:41.870</time></trkpt><trkpt lat="55.8877400" lon="49.2289838"><time>2023-06-03T05:49:42.857</time></trkpt><trkpt lat="55.8877110" lon="49.2290747"><time>2023-06-03T05:49:43.890</time></trkpt><trkpt lat="55.8876777" lon="49.2291654"><time>2023-06-03T05:49:44.860</time></trkpt><trkpt lat="55.8876516" lon="49.2292508"><time>2023-06-03T05:49:45.883</time></trkpt><trkpt lat="55.8876227" lon="49.2294035"><time>2023-06-03T05:49:47.863</time></trkpt><trkpt lat="55.8875942" lon="49.2294865"><time>2023-06-03T05:49:48.857</time></trkpt><trkpt lat="55.8875609" lon="49.2295783"><time>2023-06-03T05:49:49.880</time></trkpt><trkpt lat="55.8875293" lon="49.2296672"><time>2023-06-03T05:49:50.860</time></trkpt><trkpt lat="55.8874945" lon="49.2297646"><time>2023-06-03T05:49:51.870</time></trkpt><trkpt lat="55.8874635" lon="49.2298365"><time>2023-06-03T05:49:52.867</time></trkpt><trkpt lat="55.8874434" lon="49.2299280"><time>2023-06-03T05:49:53.863</time></trkpt><trkpt lat="55.8874221" lon="49.2300225"><time>2023-06-03T05:49:54.863</time></trkpt><trkpt lat="55.8873966" lon="49.2301095"><time>2023-06-03T05:49:55.893</time></trkpt><trkpt lat="55.8873619" lon="49.2301924"><time>2023-06-03T05:49:56.873</time></trkpt><trkpt lat="55.8873373" lon="49.2302709"><time>2023-06-03T05:49:57.877</time></trkpt><trkpt lat="55.8873078" lon="49.2303645"><time>2023-06-03T05:49:58.850</time></trkpt><trkpt lat="55.8872695" lon="49.2304662"><time>2023-06-03T05:49:59.863</time></trkpt><trkpt lat="55.8872312" lon="49.2305476"><time>2023-06-03T05:50:00.867</time></trkpt><trkpt lat="55.8871812" lon="49.2307128"><time>2023-06-03T05:50:02.870</time></trkpt><trkpt lat="55.8871628" lon="49.2307975"><time>2023-06-03T05:50:03.860</time></trkpt><trkpt lat="55.8871350" lon="49.2308910"><time>2023-06-03T05:50:04.857</time></trkpt><trkpt lat="55.8871265" lon="49.2309911"><time>2023-06-03T05:50:05.863</time></trkpt><trkpt lat="55.8871081" lon="49.2310812"><time>2023-06-03T05:50:06.860</time></trkpt><trkpt lat="55.8871063" lon="49.2311806"><time>2023-06-03T05:50:07.853</time></trkpt><trkpt lat="55.8871179" lon="49.2312663"><time>2023-06-03T05:50:08.863</time></trkpt><trkpt lat="55.8871208" lon="49.2313853"><time>2023-06-03T05:50:09.867</time></trkpt><trkpt lat="55.8871299" lon="49.2314870"><time>2023-06-03T05:50:10.840</time></trkpt><trkpt lat="55.8871663" lon="49.2315592"><time>2023-06-03T05:50:11.873</time></trkpt><trkpt lat="55.8871823" lon="49.2316662"><time>2023-06-03T05:50:12.887</time></trkpt><trkpt lat="55.8871824" lon="49.2317728"><time>2023-06-03T05:50:13.863</time></trkpt><trkpt lat="55.8871825" lon="49.2318714"><time>2023-06-03T05:50:14.857</time></trkpt><trkpt lat="55.8871820" lon="49.2319648"><time>2023-06-03T05:50:15.867</time></trkpt><trkpt lat="55.8871416" lon="49.2320678"><time>2023-06-03T05:50:16.850</time></trkpt><trkpt lat="55.8870991" lon="49.2321375"><time>2023-06-03T05:50:17.867</time></trkpt><trkpt lat="55.8870564" lon="49.2322116"><time>2023-06-03T05:50:18.910</time></trkpt><trkpt lat="55.8870092" lon="49.2322957"><time>2023-06-03T05:50:19.857</time></trkpt><trkpt lat="55.8869653" lon="49.2323722"><time>2023-06-03T05:50:20.870</time></trkpt><trkpt lat="55.8869187" lon="49.2324438"><time>2023-06-03T05:50:21.857</time></trkpt><trkpt lat="55.8868828" lon="49.2325140"><time>2023-06-03T05:50:22.863</time></trkpt><trkpt lat="55.8868493" lon="49.2325821"><time>2023-06-03T05:50:23.860</time></trkpt><trkpt lat="55.8868128" lon="49.2326491"><time>2023-06-03T05:50:24.867</time></trkpt><trkpt lat="55.8867751" lon="49.2327219"><time>2023-06-03T05:50:25.867</time></trkpt><trkpt lat="55.8867463" lon="49.2327949"><time>2023-06-03T05:50:26.850</time></trkpt><trkpt lat="55.8866990" lon="49.2328816"><time>2023-06-03T05:50:27.850</time></trkpt><trkpt lat="55.8866612" lon="49.2330587"><time>2023-06-03T05:50:29.887</time></trkpt><trkpt lat="55.8866216" lon="49.2331578"><time>2023-06-03T05:50:30.850</time></trkpt><trkpt lat="55.8865847" lon="49.2332481"><time>2023-06-03T05:50:31.853</time></trkpt><trkpt lat="55.8865454" lon="49.2333427"><time>2023-06-03T05:50:32.867</time></trkpt><trkpt lat="55.8864882" lon="49.2334437"><time>2023-06-03T05:50:33.857</time></trkpt><trkpt lat="55.8864417" lon="49.2335537"><time>2023-06-03T05:50:34.863</time></trkpt><trkpt lat="55.8864076" lon="49.2336529"><time>2023-06-03T05:50:35.893</time></trkpt><trkpt lat="55.8863893" lon="49.2337351"><time>2023-06-03T05:50:36.853</time></trkpt><trkpt lat="55.8863727" lon="49.2338383"><time>2023-06-03T05:50:37.853</time></trkpt><trkpt lat="55.8863342" lon="49.2339522"><time>2023-06-03T05:50:38.847</time></trkpt><trkpt lat="55.8862920" lon="49.2340654"><time>2023-06-03T05:50:39.850</time></trkpt><trkpt lat="55.8862622" lon="49.2341744"><time>2023-06-03T05:50:40.850</time></trkpt><trkpt lat="55.8862303" lon="49.2342883"><time>2023-06-03T05:50:41.877</time></trkpt><trkpt lat="55.8861987" lon="49.2344020"><time>2023-06-03T05:50:42.863</time></trkpt><trkpt lat="55.8861911" lon="49.2344944"><time>2023-06-03T05:50:43.860</time></trkpt><trkpt lat="55.8861722" lon="49.2345847"><time>2023-06-03T05:50:44.853</time></trkpt><trkpt lat="55.8861452" lon="49.2346919"><time>2023-06-03T05:50:45.860</time></trkpt><trkpt lat="55.8861073" lon="49.2348010"><time>2023-06-03T05:50:46.850</time></trkpt><trkpt lat="55.8860743" lon="49.2349087"><time>2023-06-03T05:50:47.910</time></trkpt><trkpt lat="55.8860402" lon="49.2350123"><time>2023-06-03T05:50:48.860</time></trkpt><trkpt lat="55.8860125" lon="49.2351082"><time>2023-06-03T05:50:49.860</time></trkpt><trkpt lat="55.8859722" lon="49.2352085"><time>2023-06-03T05:50:50.863</time></trkpt><trkpt lat="55.8859396" lon="49.2353026"><time>2023-06-03T05:50:51.860</time></trkpt><trkpt lat="55.8859105" lon="49.2354184"><time>2023-06-03T05:50:52.860</time></trkpt><trkpt lat="55.8858782" lon="49.2355131"><time>2023-06-03T05:50:53.883</time></trkpt><trkpt lat="55.8858429" lon="49.2356201"><time>2023-06-03T05:50:54.860</time></trkpt><trkpt lat="55.8858155" lon="49.2357036"><time>2023-06-03T05:50:55.870</time></trkpt><trkpt lat="55.8857879" lon="49.2357762"><time>2023-06-03T05:50:56.867</time></trkpt><trkpt lat="55.8857685" lon="49.2358937"><time>2023-06-03T05:50:58.867</time></trkpt><trkpt lat="55.8857332" lon="49.2360063"><time>2023-06-03T05:51:00.853</time></trkpt><trkpt lat="55.8857237" lon="49.2361618"><time>2023-06-03T05:51:02.853</time></trkpt><trkpt lat="55.8857539" lon="49.2363166"><time>2023-06-03T05:51:04.870</time></trkpt><trkpt lat="55.8857669" lon="49.2363975"><time>2023-06-03T05:51:05.883</time></trkpt><trkpt lat="55.8858057" lon="49.2364921"><time>2023-06-03T05:51:06.860</time></trkpt><trkpt lat="55.8858349" lon="49.2365730"><time>2023-06-03T05:51:07.863</time></trkpt><trkpt lat="55.8858565" lon="49.2366554"><time>2023-06-03T05:51:08.860</time></trkpt><trkpt lat="55.8858806" lon="49.2367247"><time>2023-06-03T05:51:09.863</time></trkpt><trkpt lat="55.8859019" lon="49.2368015"><time>2023-06-03T05:51:10.867</time></trkpt><trkpt lat="55.8859260" lon="49.2368847"><time>2023-06-03T05:51:11.903</time></trkpt><trkpt lat="55.8859513" lon="49.2369790"><time>2023-06-03T05:51:12.863</time></trkpt><trkpt lat="55.8859731" lon="49.2370601"><time>2023-06-03T05:51:13.863</time></trkpt><trkpt lat="55.8859955" lon="49.2371371"><time>2023-06-03T05:51:14.860</time></trkpt><trkpt lat="55.8860212" lon="49.2372165"><time>2023-06-03T05:51:15.857</time></trkpt><trkpt lat="55.8860507" lon="49.2373075"><time>2023-06-03T05:51:16.873</time></trkpt><trkpt lat="55.8860745" lon="49.2373810"><time>2023-06-03T05:51:17.890</time></trkpt><trkpt lat="55.8860967" lon="49.2374609"><time>2023-06-03T05:51:18.860</time></trkpt><trkpt lat="55.8861177" lon="49.2375456"><time>2023-06-03T05:51:19.863</time></trkpt><trkpt lat="55.8861417" lon="49.2376339"><time>2023-06-03T05:51:20.867</time></trkpt><trkpt lat="55.8861590" lon="49.2377260"><time>2023-06-03T05:51:21.873</time></trkpt><trkpt lat="55.8861955" lon="49.2378124"><time>2023-06-03T05:51:22.867</time></trkpt><trkpt lat="55.8862355" lon="49.2378910"><time>2023-06-03T05:51:23.887</time></trkpt><trkpt lat="55.8862701" lon="49.2379543"><time>2023-06-03T05:51:24.857</time></trkpt><trkpt lat="55.8863037" lon="49.2380686"><time>2023-06-03T05:51:25.863</time></trkpt><trkpt lat="55.8863468" lon="49.2381432"><time>2023-06-03T05:51:26.860</time></trkpt><trkpt lat="55.8863813" lon="49.2382474"><time>2023-06-03T05:51:27.873</time></trkpt><trkpt lat="55.8864191" lon="49.2383553"><time>2023-06-03T05:51:28.860</time></trkpt><trkpt lat="55.8864390" lon="49.2384570"><time>2023-06-03T05:51:29.873</time></trkpt><trkpt lat="55.8864677" lon="49.2385663"><time>2023-06-03T05:51:30.853</time></trkpt><trkpt lat="55.8865124" lon="49.2386815"><time>2023-06-03T05:51:31.857</time></trkpt><trkpt lat="55.8865413" lon="49.2387832"><time>2023-06-03T05:51:32.850</time></trkpt><trkpt lat="55.8865772" lon="49.2388933"><time>2023-06-03T05:51:33.853</time></trkpt><trkpt lat="55.8866104" lon="49.2389977"><time>2023-06-03T05:51:34.850</time></trkpt><trkpt lat="55.8866389" lon="49.2390916"><time>2023-06-03T05:51:35.897</time></trkpt><trkpt lat="55.8866683" lon="49.2391966"><time>2023-06-03T05:51:36.867</time></trkpt><trkpt lat="55.8867007" lon="49.2392929"><time>2023-06-03T05:51:37.853</time></trkpt><trkpt lat="55.8867422" lon="49.2393824"><time>2023-06-03T05:51:38.860</time></trkpt><trkpt lat="55.8867703" lon="49.2394941"><time>2023-06-03T05:51:39.867</time></trkpt><trkpt lat="55.8868068" lon="49.2396018"><time>2023-06-03T05:51:40.870</time></trkpt><trkpt lat="55.8868347" lon="49.2396935"><time>2023-06-03T05:51:41.877</time></trkpt><trkpt lat="55.8868627" lon="49.2398087"><time>2023-06-03T05:51:42.867</time></trkpt><trkpt lat="55.8868910" lon="49.2399037"><time>2023-06-03T05:51:43.867</time></trkpt><trkpt lat="55.8869266" lon="49.2400022"><time>2023-06-03T05:51:44.857</time></trkpt><trkpt lat="55.8869627" lon="49.2401069"><time>2023-06-03T05:51:45.863</time></trkpt><trkpt lat="55.8869936" lon="49.2402171"><time>2023-06-03T05:51:46.870</time></trkpt><trkpt lat="55.8870174" lon="49.2403354"><time>2023-06-03T05:51:47.883</time></trkpt><trkpt lat="55.8870563" lon="49.2404385"><time>2023-06-03T05:51:48.867</time></trkpt><trkpt lat="55.8870972" lon="49.2405256"><time>2023-06-03T05:51:49.863</time></trkpt><trkpt lat="55.8871325" lon="49.2406401"><time>2023-06-03T05:51:50.863</time></trkpt><trkpt lat="55.8871773" lon="49.2407221"><time>2023-06-03T05:51:51.863</time></trkpt><trkpt lat="55.8872081" lon="49.2408431"><time>2023-06-03T05:51:52.857</time></trkpt><trkpt lat="55.8872528" lon="49.2409609"><time>2023-06-03T05:51:53.883</time></trkpt><trkpt lat="55.8872886" lon="49.2410840"><time>2023-06-03T05:51:54.867</time></trkpt><trkpt lat="55.8873271" lon="49.2411621"><time>2023-06-03T05:51:55.873</time></trkpt><trkpt lat="55.8873563" lon="49.2412556"><time>2023-06-03T05:51:56.857</time></trkpt><trkpt lat="55.8873905" lon="49.2413408"><time>2023-06-03T05:51:57.857</time></trkpt><trkpt lat="55.8874183" lon="49.2414339"><time>2023-06-03T05:51:58.850</time></trkpt><trkpt lat="55.8874438" lon="49.2415295"><time>2023-06-03T05:51:59.897</time></trkpt><trkpt lat="55.8874723" lon="49.2416092"><time>2023-06-03T05:52:00.863</time></trkpt><trkpt lat="55.8875019" lon="49.2416946"><time>2023-06-03T05:52:01.867</time></trkpt><trkpt lat="55.8875227" lon="49.2417773"><time>2023-06-03T05:52:02.853</time></trkpt><trkpt lat="55.8875415" lon="49.2418627"><time>2023-06-03T05:52:03.847</time></trkpt><trkpt lat="55.8875604" lon="49.2419421"><time>2023-06-03T05:52:04.863</time></trkpt><trkpt lat="55.8875763" lon="49.2420690"><time>2023-06-03T05:52:06.870</time></trkpt><trkpt lat="55.8876347" lon="49.2420282"><time>2023-06-03T05:52:13.863</time></trkpt><trkpt lat="55.8876748" lon="49.2420692"><time>2023-06-03T05:52:21.867</time></trkpt><trkpt lat="55.8877083" lon="49.2421411"><time>2023-06-03T05:52:23.890</time></trkpt><trkpt lat="55.8877430" lon="49.2422436"><time>2023-06-03T05:52:25.870</time></trkpt><trkpt lat="55.8877800" lon="49.2423710"><time>2023-06-03T05:52:27.880</time></trkpt><trkpt lat="55.8878194" lon="49.2425380"><time>2023-06-03T05:52:29.880</time></trkpt><trkpt lat="55.8878507" lon="49.2425973"><time>2023-06-03T05:52:30.860</time></trkpt><trkpt lat="55.8878995" lon="49.2427210"><time>2023-06-03T05:52:32.857</time></trkpt><trkpt lat="55.8879277" lon="49.2428014"><time>2023-06-03T05:52:33.867</time></trkpt><trkpt lat="55.8879584" lon="49.2428737"><time>2023-06-03T05:52:34.860</time></trkpt><trkpt lat="55.8879930" lon="49.2429292"><time>2023-06-03T05:52:35.893</time></trkpt><trkpt lat="55.8880282" lon="49.2429881"><time>2023-06-03T05:52:36.853</time></trkpt><trkpt lat="55.8880666" lon="49.2430531"><time>2023-06-03T05:52:37.870</time></trkpt><trkpt lat="55.8881006" lon="49.2431195"><time>2023-06-03T05:52:38.850</time></trkpt><trkpt lat="55.8881450" lon="49.2431724"><time>2023-06-03T05:52:39.863</time></trkpt><trkpt lat="55.8881795" lon="49.2432291"><time>2023-06-03T05:52:40.870</time></trkpt><trkpt lat="55.8882166" lon="49.2432950"><time>2023-06-03T05:52:41.873</time></trkpt><trkpt lat="55.8882495" lon="49.2433589"><time>2023-06-03T05:52:42.853</time></trkpt><trkpt lat="55.8883054" lon="49.2433908"><time>2023-06-03T05:52:43.857</time></trkpt><trkpt lat="55.8883411" lon="49.2434598"><time>2023-06-03T05:52:44.873</time></trkpt><trkpt lat="55.8883887" lon="49.2435275"><time>2023-06-03T05:52:45.863</time></trkpt><trkpt lat="55.8884313" lon="49.2436007"><time>2023-06-03T05:52:46.850</time></trkpt><trkpt lat="55.8884870" lon="49.2436297"><time>2023-06-03T05:52:47.900</time></trkpt><trkpt lat="55.8885431" lon="49.2436763"><time>2023-06-03T05:52:48.867</time></trkpt><trkpt lat="55.8885828" lon="49.2437561"><time>2023-06-03T05:52:49.873</time></trkpt><trkpt lat="55.8886394" lon="49.2438089"><time>2023-06-03T05:52:50.847</time></trkpt><trkpt lat="55.8886830" lon="49.2438699"><time>2023-06-03T05:52:51.857</time></trkpt><trkpt lat="55.8887256" lon="49.2439292"><time>2023-06-03T05:52:52.847</time></trkpt><trkpt lat="55.8887709" lon="49.2439990"><time>2023-06-03T05:52:53.877</time></trkpt><trkpt lat="55.8888143" lon="49.2440695"><time>2023-06-03T05:52:54.857</time></trkpt><trkpt lat="55.8888619" lon="49.2441287"><time>2023-06-03T05:52:55.877</time></trkpt><trkpt lat="55.8889062" lon="49.2442064"><time>2023-06-03T05:52:56.850</time></trkpt><trkpt lat="55.8889515" lon="49.2442855"><time>2023-06-03T05:52:57.867</time></trkpt><trkpt lat="55.8889932" lon="49.2443499"><time>2023-06-03T05:52:58.860</time></trkpt><trkpt lat="55.8890379" lon="49.2444305"><time>2023-06-03T05:52:59.897</time></trkpt><trkpt lat="55.8890798" lon="49.2445124"><time>2023-06-03T05:53:00.850</time></trkpt><trkpt lat="55.8891220" lon="49.2445827"><time>2023-06-03T05:53:01.857</time></trkpt><trkpt lat="55.8891691" lon="49.2446501"><time>2023-06-03T05:53:02.853</time></trkpt><trkpt lat="55.8892284" lon="49.2447168"><time>2023-06-03T05:53:03.867</time></trkpt><trkpt lat="55.8892707" lon="49.2447963"><time>2023-06-03T05:53:04.860</time></trkpt><trkpt lat="55.8893176" lon="49.2448637"><time>2023-06-03T05:53:05.877</time></trkpt><trkpt lat="55.8893570" lon="49.2449256"><time>2023-06-03T05:53:06.860</time></trkpt><trkpt lat="55.8894174" lon="49.2449845"><time>2023-06-03T05:53:07.867</time></trkpt><trkpt lat="55.8894586" lon="49.2450538"><time>2023-06-03T05:53:08.863</time></trkpt><trkpt lat="55.8895076" lon="49.2451214"><time>2023-06-03T05:53:09.870</time></trkpt><trkpt lat="55.8895748" lon="49.2452066"><time>2023-06-03T05:53:10.857</time></trkpt><trkpt lat="55.8896151" lon="49.2452802"><time>2023-06-03T05:53:11.897</time></trkpt><trkpt lat="55.8896551" lon="49.2453450"><time>2023-06-03T05:53:12.850</time></trkpt><trkpt lat="55.8897044" lon="49.2454149"><time>2023-06-03T05:53:13.873</time></trkpt><trkpt lat="55.8897567" lon="49.2454931"><time>2023-06-03T05:53:14.857</time></trkpt><trkpt lat="55.8898045" lon="49.2455618"><time>2023-06-03T05:53:15.850</time></trkpt><trkpt lat="55.8898539" lon="49.2456309"><time>2023-06-03T05:53:16.853</time></trkpt><trkpt lat="55.8898949" lon="49.2456993"><time>2023-06-03T05:53:17.877</time></trkpt><trkpt lat="55.8899437" lon="49.2457633"><time>2023-06-03T05:53:18.857</time></trkpt><trkpt lat="55.8899967" lon="49.2458002"><time>2023-06-03T05:53:19.867</time></trkpt><trkpt lat="55.8900352" lon="49.2458618"><time>2023-06-03T05:53:20.867</time></trkpt><trkpt lat="55.8900724" lon="49.2459421"><time>2023-06-03T05:53:21.867</time></trkpt><trkpt lat="55.8901141" lon="49.2460010"><time>2023-06-03T05:53:22.853</time></trkpt><trkpt lat="55.8901767" lon="49.2461399"><time>2023-06-03T05:53:24.860</time></trkpt><trkpt lat="55.8902259" lon="49.2462041"><time>2023-06-03T05:53:25.873</time></trkpt><trkpt lat="55.8902885" lon="49.2462952"><time>2023-06-03T05:53:27.867</time></trkpt><trkpt lat="55.8903583" lon="49.2463705"><time>2023-06-03T05:53:29.900</time></trkpt><trkpt lat="55.8904022" lon="49.2464325"><time>2023-06-03T05:53:30.863</time></trkpt><trkpt lat="55.8904318" lon="49.2464971"><time>2023-06-03T05:53:31.860</time></trkpt><trkpt lat="55.8904671" lon="49.2465589"><time>2023-06-03T05:53:32.853</time></trkpt><trkpt lat="55.8905436" lon="49.2466790"><time>2023-06-03T05:53:34.860</time></trkpt><trkpt lat="55.8906046" lon="49.2467608"><time>2023-06-03T05:53:36.857</time></trkpt><trkpt lat="55.8906715" lon="49.2468233"><time>2023-06-03T05:53:38.850</time></trkpt><trkpt lat="55.8907001" lon="49.2469001"><time>2023-06-03T05:53:42.857</time></trkpt><trkpt lat="55.8907565" lon="49.2468518"><time>2023-06-03T05:54:00.867</time></trkpt><trkpt lat="55.8907931" lon="49.2467755"><time>2023-06-03T05:54:02.857</time></trkpt><trkpt lat="55.8908279" lon="49.2466894"><time>2023-06-03T05:54:04.857</time></trkpt><trkpt lat="55.8908734" lon="49.2466249"><time>2023-06-03T05:54:06.863</time></trkpt><trkpt lat="55.8909296" lon="49.2465643"><time>2023-06-03T05:54:08.903</time></trkpt><trkpt lat="55.8909859" lon="49.2465022"><time>2023-06-03T05:54:10.863</time></trkpt><trkpt lat="55.8910259" lon="49.2464543"><time>2023-06-03T05:54:12.860</time></trkpt><trkpt lat="55.8910730" lon="49.2464084"><time>2023-06-03T05:54:14.857</time></trkpt><trkpt lat="55.8911346" lon="49.2463667"><time>2023-06-03T05:54:16.860</time></trkpt><trkpt lat="55.8911941" lon="49.2463014"><time>2023-06-03T05:54:18.857</time></trkpt><trkpt lat="55.8912519" lon="49.2462259"><time>2023-06-03T05:54:20.850</time></trkpt><trkpt lat="55.8913094" lon="49.2461611"><time>2023-06-03T05:54:22.870</time></trkpt><trkpt lat="55.8913604" lon="49.2461027"><time>2023-06-03T05:54:24.850</time></trkpt><trkpt lat="55.8914094" lon="49.2460275"><time>2023-06-03T05:54:26.860</time></trkpt><trkpt lat="55.8914524" lon="49.2459462"><time>2023-06-03T05:54:28.847</time></trkpt><trkpt lat="55.8914850" lon="49.2458776"><time>2023-06-03T05:54:30.863</time></trkpt><trkpt lat="55.8915291" lon="49.2457748"><time>2023-06-03T05:54:32.853</time></trkpt><trkpt lat="55.8915849" lon="49.2456642"><time>2023-06-03T05:54:34.867</time></trkpt><trkpt lat="55.8916461" lon="49.2455768"><time>2023-06-03T05:54:36.887</time></trkpt><trkpt lat="55.8916788" lon="49.2455397"><time>2023-06-03T05:54:37.877</time></trkpt><trkpt lat="55.8917346" lon="49.2454768"><time>2023-06-03T05:54:39.857</time></trkpt><trkpt lat="55.8917675" lon="49.2453947"><time>2023-06-03T05:54:41.863</time></trkpt><trkpt lat="55.8917994" lon="49.2452668"><time>2023-06-03T05:54:43.870</time></trkpt><trkpt lat="55.8918359" lon="49.2451384"><time>2023-06-03T05:54:45.867</time></trkpt><trkpt lat="55.8918752" lon="49.2450329"><time>2023-06-03T05:54:47.893</time></trkpt><trkpt lat="55.8919092" lon="49.2449535"><time>2023-06-03T05:54:49.850</time></trkpt><trkpt lat="55.8919238" lon="49.2448652"><time>2023-06-03T05:54:52.840</time></trkpt><trkpt lat="55.8919482" lon="49.2447889"><time>2023-06-03T05:54:54.867</time></trkpt><trkpt lat="55.8919779" lon="49.2447108"><time>2023-06-03T05:54:56.853</time></trkpt><trkpt lat="55.8920021" lon="49.2446227"><time>2023-06-03T05:54:58.873</time></trkpt><trkpt lat="55.8920336" lon="49.2445287"><time>2023-06-03T05:55:00.860</time></trkpt><trkpt lat="55.8920780" lon="49.2444267"><time>2023-06-03T05:55:02.863</time></trkpt><trkpt lat="55.8921206" lon="49.2442933"><time>2023-06-03T05:55:04.857</time></trkpt><trkpt lat="55.8921545" lon="49.2441783"><time>2023-06-03T05:55:06.857</time></trkpt><trkpt lat="55.8922094" lon="49.2440466"><time>2023-06-03T05:55:08.880</time></trkpt><trkpt lat="55.8922352" lon="49.2439830"><time>2023-06-03T05:55:09.867</time></trkpt><trkpt lat="55.8922732" lon="49.2438545"><time>2023-06-03T05:55:11.860</time></trkpt><trkpt lat="55.8923040" lon="49.2437112"><time>2023-06-03T05:55:13.860</time></trkpt><trkpt lat="55.8923344" lon="49.2435901"><time>2023-06-03T05:55:15.860</time></trkpt><trkpt lat="55.8923531" lon="49.2434853"><time>2023-06-03T05:55:17.867</time></trkpt><trkpt lat="55.8923469" lon="49.2434049"><time>2023-06-03T05:55:19.857</time></trkpt><trkpt lat="55.8923217" lon="49.2433167"><time>2023-06-03T05:55:21.860</time></trkpt><trkpt lat="55.8922876" lon="49.2432376"><time>2023-06-03T05:55:23.863</time></trkpt><trkpt lat="55.8922859" lon="49.2431314"><time>2023-06-03T05:55:26.877</time></trkpt><trkpt lat="55.8922922" lon="49.2431044"><time>2023-06-03T05:55:27.877</time></trkpt><trkpt lat="55.8922941" lon="49.2430019"><time>2023-06-03T05:55:58.853</time></trkpt><trkpt lat="55.8922678" lon="49.2429239"><time>2023-06-03T05:55:59.863</time></trkpt><trkpt lat="55.8922415" lon="49.2428449"><time>2023-06-03T05:56:00.863</time></trkpt><trkpt lat="55.8922172" lon="49.2427714"><time>2023-06-03T05:56:01.867</time></trkpt><trkpt lat="55.8921852" lon="49.2426725"><time>2023-06-03T05:56:03.863</time></trkpt><trkpt lat="55.8921529" lon="49.2426127"><time>2023-06-03T05:56:06.907</time></trkpt><trkpt lat="55.8921529" lon="49.2426127"><time>2023-06-03T05:56:06.937</time></trkpt><trkpt lat="55.8921123" lon="49.2425364"><time>2023-06-03T05:56:10.877</time></trkpt><trkpt lat="55.8920913" lon="49.2425069"><time>2023-06-03T05:56:11.860</time></trkpt><trkpt lat="55.8920466" lon="49.2424643"><time>2023-06-03T05:56:17.883</time></trkpt><trkpt lat="55.8920688" lon="49.2425873"><time>2023-06-03T05:57:21.870</time></trkpt><trkpt lat="55.8921024" lon="49.2426965"><time>2023-06-03T05:57:23.867</time></trkpt><trkpt lat="55.8921283" lon="49.2427938"><time>2023-06-03T05:57:25.860</time></trkpt><trkpt lat="55.8921651" lon="49.2429136"><time>2023-06-03T05:57:27.857</time></trkpt><trkpt lat="55.8922127" lon="49.2430158"><time>2023-06-03T05:57:29.847</time></trkpt><trkpt lat="55.8922468" lon="49.2430950"><time>2023-06-03T05:57:31.850</time></trkpt><trkpt lat="55.8922639" lon="49.2431803"><time>2023-06-03T05:57:33.853</time></trkpt><trkpt lat="55.8922830" lon="49.2433161"><time>2023-06-03T05:57:35.863</time></trkpt><trkpt lat="55.8923060" lon="49.2434475"><time>2023-06-03T05:57:37.870</time></trkpt><trkpt lat="55.8923210" lon="49.2435700"><time>2023-06-03T05:57:39.863</time></trkpt><trkpt lat="55.8923017" lon="49.2437065"><time>2023-06-03T05:57:41.870</time></trkpt><trkpt lat="55.8922597" lon="49.2438243"><time>2023-06-03T05:57:43.857</time></trkpt><trkpt lat="55.8922047" lon="49.2439278"><time>2023-06-03T05:57:45.867</time></trkpt><trkpt lat="55.8921448" lon="49.2440475"><time>2023-06-03T05:57:47.857</time></trkpt><trkpt lat="55.8921098" lon="49.2441612"><time>2023-06-03T05:57:49.857</time></trkpt><trkpt lat="55.8920828" lon="49.2442838"><time>2023-06-03T05:57:51.850</time></trkpt><trkpt lat="55.8920527" lon="49.2444041"><time>2023-06-03T05:57:53.867</time></trkpt><trkpt lat="55.8920190" lon="49.2445107"><time>2023-06-03T05:57:55.857</time></trkpt><trkpt lat="55.8919987" lon="49.2446345"><time>2023-06-03T05:57:57.847</time></trkpt><trkpt lat="55.8919879" lon="49.2447480"><time>2023-06-03T05:57:59.877</time></trkpt><trkpt lat="55.8919723" lon="49.2448346"><time>2023-06-03T05:58:02.850</time></trkpt><trkpt lat="55.8919401" lon="49.2449332"><time>2023-06-03T05:58:04.893</time></trkpt><trkpt lat="55.8918978" lon="49.2450349"><time>2023-06-03T05:58:06.873</time></trkpt><trkpt lat="55.8918483" lon="49.2451520"><time>2023-06-03T05:58:08.860</time></trkpt><trkpt lat="55.8918200" lon="49.2452174"><time>2023-06-03T05:58:09.860</time></trkpt><trkpt lat="55.8917838" lon="49.2453074"><time>2023-06-03T05:58:11.857</time></trkpt><trkpt lat="55.8917454" lon="49.2453943"><time>2023-06-03T05:58:14.853</time></trkpt><trkpt lat="55.8916995" lon="49.2454680"><time>2023-06-03T05:58:16.883</time></trkpt><trkpt lat="55.8916425" lon="49.2455595"><time>2023-06-03T05:58:18.853</time></trkpt><trkpt lat="55.8915800" lon="49.2456663"><time>2023-06-03T05:58:20.860</time></trkpt><trkpt lat="55.8915172" lon="49.2457679"><time>2023-06-03T05:58:22.860</time></trkpt><trkpt lat="55.8914566" lon="49.2458687"><time>2023-06-03T05:58:24.860</time></trkpt><trkpt lat="55.8914208" lon="49.2459274"><time>2023-06-03T05:58:25.857</time></trkpt><trkpt lat="55.8913827" lon="49.2459887"><time>2023-06-03T05:58:26.863</time></trkpt><trkpt lat="55.8913270" lon="49.2460669"><time>2023-06-03T05:58:28.897</time></trkpt><trkpt lat="55.8912850" lon="49.2461277"><time>2023-06-03T05:58:30.853</time></trkpt><trkpt lat="55.8912288" lon="49.2462086"><time>2023-06-03T05:58:32.863</time></trkpt><trkpt lat="55.8911725" lon="49.2462921"><time>2023-06-03T05:58:34.877</time></trkpt><trkpt lat="55.8911130" lon="49.2463714"><time>2023-06-03T05:58:36.850</time></trkpt><trkpt lat="55.8910525" lon="49.2464360"><time>2023-06-03T05:58:38.857</time></trkpt><trkpt lat="55.8909967" lon="49.2465024"><time>2023-06-03T05:58:40.890</time></trkpt><trkpt lat="55.8909283" lon="49.2465771"><time>2023-06-03T05:58:42.873</time></trkpt><trkpt lat="55.8908683" lon="49.2466478"><time>2023-06-03T05:58:44.860</time></trkpt><trkpt lat="55.8908237" lon="49.2467311"><time>2023-06-03T05:58:46.877</time></trkpt><trkpt lat="55.8908070" lon="49.2468357"><time>2023-06-03T05:58:48.857</time></trkpt><trkpt lat="55.8908125" lon="49.2469401"><time>2023-06-03T05:58:50.850</time></trkpt><trkpt lat="55.8908295" lon="49.2470674"><time>2023-06-03T05:58:52.887</time></trkpt><trkpt lat="55.8909182" lon="49.2472136"><time>2023-06-03T05:58:54.847</time></trkpt><trkpt lat="55.8909951" lon="49.2473164"><time>2023-06-03T05:58:56.853</time></trkpt><trkpt lat="55.8910739" lon="49.2474028"><time>2023-06-03T05:58:58.853</time></trkpt><trkpt lat="55.8911145" lon="49.2474526"><time>2023-06-03T05:58:59.860</time></trkpt><trkpt lat="55.8911629" lon="49.2474927"><time>2023-06-03T05:59:00.857</time></trkpt><trkpt lat="55.8912042" lon="49.2475355"><time>2023-06-03T05:59:01.883</time></trkpt><trkpt lat="55.8912414" lon="49.2475849"><time>2023-06-03T05:59:02.883</time></trkpt><trkpt lat="55.8912817" lon="49.2476547"><time>2023-06-03T05:59:03.873</time></trkpt><trkpt lat="55.8913580" lon="49.2477623"><time>2023-06-03T05:59:05.870</time></trkpt><trkpt lat="55.8914236" lon="49.2478412"><time>2023-06-03T05:59:07.873</time></trkpt><trkpt lat="55.8914615" lon="49.2478885"><time>2023-06-03T05:59:08.857</time></trkpt><trkpt lat="55.8915030" lon="49.2479495"><time>2023-06-03T05:59:09.877</time></trkpt><trkpt lat="55.8915429" lon="49.2480007"><time>2023-06-03T05:59:10.870</time></trkpt><trkpt lat="55.8915777" lon="49.2480700"><time>2023-06-03T05:59:11.873</time></trkpt><trkpt lat="55.8916156" lon="49.2481148"><time>2023-06-03T05:59:12.873</time></trkpt><trkpt lat="55.8916752" lon="49.2482096"><time>2023-06-03T05:59:14.867</time></trkpt><trkpt lat="55.8917279" lon="49.2483000"><time>2023-06-03T05:59:16.860</time></trkpt><trkpt lat="55.8917707" lon="49.2483966"><time>2023-06-03T05:59:18.863</time></trkpt><trkpt lat="55.8918205" lon="49.2485184"><time>2023-06-03T05:59:20.853</time></trkpt><trkpt lat="55.8918819" lon="49.2486464"><time>2023-06-03T05:59:22.857</time></trkpt><trkpt lat="55.8919168" lon="49.2487109"><time>2023-06-03T05:59:23.877</time></trkpt><trkpt lat="55.8919500" lon="49.2487843"><time>2023-06-03T05:59:24.853</time></trkpt><trkpt lat="55.8919801" lon="49.2488535"><time>2023-06-03T05:59:25.853</time></trkpt><trkpt lat="55.8920147" lon="49.2489207"><time>2023-06-03T05:59:26.857</time></trkpt><trkpt lat="55.8920494" lon="49.2489802"><time>2023-06-03T05:59:27.893</time></trkpt><trkpt lat="55.8920822" lon="49.2490366"><time>2023-06-03T05:59:28.857</time></trkpt><trkpt lat="55.8921370" lon="49.2491449"><time>2023-06-03T05:59:30.853</time></trkpt><trkpt lat="55.8921695" lon="49.2492023"><time>2023-06-03T05:59:31.857</time></trkpt><trkpt lat="55.8922058" lon="49.2492565"><time>2023-06-03T05:59:32.877</time></trkpt><trkpt lat="55.8922578" lon="49.2493772"><time>2023-06-03T05:59:34.857</time></trkpt><trkpt lat="55.8922909" lon="49.2494397"><time>2023-06-03T05:59:35.873</time></trkpt><trkpt lat="55.8923263" lon="49.2495035"><time>2023-06-03T05:59:36.873</time></trkpt><trkpt lat="55.8923583" lon="49.2495683"><time>2023-06-03T05:59:37.867</time></trkpt><trkpt lat="55.8923937" lon="49.2496356"><time>2023-06-03T05:59:38.860</time></trkpt><trkpt lat="55.8924306" lon="49.2497058"><time>2023-06-03T05:59:39.887</time></trkpt><trkpt lat="55.8924651" lon="49.2497646"><time>2023-06-03T05:59:40.883</time></trkpt><trkpt lat="55.8924990" lon="49.2498217"><time>2023-06-03T05:59:41.863</time></trkpt><trkpt lat="55.8925587" lon="49.2499309"><time>2023-06-03T05:59:43.883</time></trkpt><trkpt lat="55.8926127" lon="49.2500105"><time>2023-06-03T05:59:45.870</time></trkpt><trkpt lat="55.8926663" lon="49.2501111"><time>2023-06-03T05:59:47.860</time></trkpt><trkpt lat="55.8927234" lon="49.2502225"><time>2023-06-03T05:59:49.863</time></trkpt><trkpt lat="55.8927559" lon="49.2502802"><time>2023-06-03T05:59:50.860</time></trkpt><trkpt lat="55.8927942" lon="49.2503411"><time>2023-06-03T05:59:51.860</time></trkpt><trkpt lat="55.8928607" lon="49.2504309"><time>2023-06-03T05:59:53.857</time></trkpt><trkpt lat="55.8929170" lon="49.2505369"><time>2023-06-03T05:59:55.863</time></trkpt><trkpt lat="55.8929502" lon="49.2505940"><time>2023-06-03T05:59:56.870</time></trkpt><trkpt lat="55.8929827" lon="49.2506493"><time>2023-06-03T05:59:57.870</time></trkpt><trkpt lat="55.8930447" lon="49.2507334"><time>2023-06-03T05:59:59.863</time></trkpt><trkpt lat="55.8930969" lon="49.2508159"><time>2023-06-03T06:00:01.857</time></trkpt><trkpt lat="55.8931380" lon="49.2508981"><time>2023-06-03T06:00:03.857</time></trkpt><trkpt lat="55.8931751" lon="49.2509556"><time>2023-06-03T06:00:05.850</time></trkpt><trkpt lat="55.8932141" lon="49.2508719"><time>2023-06-03T06:00:08.870</time></trkpt><trkpt lat="55.8931666" lon="49.2507489"><time>2023-06-03T06:00:10.857</time></trkpt><trkpt lat="55.8931297" lon="49.2506906"><time>2023-06-03T06:00:11.857</time></trkpt><trkpt lat="55.8930607" lon="49.2506017"><time>2023-06-03T06:00:12.857</time></trkpt><trkpt lat="55.8930230" lon="49.2505437"><time>2023-06-03T06:00:13.857</time></trkpt><trkpt lat="55.8929890" lon="49.2504781"><time>2023-06-03T06:00:14.903</time></trkpt><trkpt lat="55.8929525" lon="49.2504073"><time>2023-06-03T06:00:15.863</time></trkpt><trkpt lat="55.8929114" lon="49.2503363"><time>2023-06-03T06:00:16.873</time></trkpt><trkpt lat="55.8928708" lon="49.2502737"><time>2023-06-03T06:00:17.860</time></trkpt><trkpt lat="55.8928320" lon="49.2502040"><time>2023-06-03T06:00:18.857</time></trkpt><trkpt lat="55.8927986" lon="49.2501301"><time>2023-06-03T06:00:19.873</time></trkpt><trkpt lat="55.8927669" lon="49.2500687"><time>2023-06-03T06:00:20.880</time></trkpt><trkpt lat="55.8927227" lon="49.2500067"><time>2023-06-03T06:00:21.867</time></trkpt><trkpt lat="55.8926841" lon="49.2499358"><time>2023-06-03T06:00:22.853</time></trkpt><trkpt lat="55.8926400" lon="49.2498695"><time>2023-06-03T06:00:23.887</time></trkpt><trkpt lat="55.8926001" lon="49.2498011"><time>2023-06-03T06:00:24.867</time></trkpt><trkpt lat="55.8925630" lon="49.2497294"><time>2023-06-03T06:00:25.873</time></trkpt><trkpt lat="55.8925120" lon="49.2496328"><time>2023-06-03T06:00:26.923</time></trkpt><trkpt lat="55.8924965" lon="49.2495566"><time>2023-06-03T06:00:27.867</time></trkpt><trkpt lat="55.8924807" lon="49.2494638"><time>2023-06-03T06:00:28.857</time></trkpt><trkpt lat="55.8924992" lon="49.2493904"><time>2023-06-03T06:00:29.867</time></trkpt><trkpt lat="55.8925380" lon="49.2493357"><time>2023-06-03T06:00:30.863</time></trkpt><trkpt lat="55.8925852" lon="49.2493102"><time>2023-06-03T06:00:31.853</time></trkpt><trkpt lat="55.8926393" lon="49.2493043"><time>2023-06-03T06:00:32.860</time></trkpt><trkpt lat="55.8926915" lon="49.2493171"><time>2023-06-03T06:00:33.867</time></trkpt><trkpt lat="55.8927473" lon="49.2493325"><time>2023-06-03T06:00:34.873</time></trkpt><trkpt lat="55.8928038" lon="49.2493525"><time>2023-06-03T06:00:35.880</time></trkpt><trkpt lat="55.8928591" lon="49.2493728"><time>2023-06-03T06:00:36.873</time></trkpt><trkpt lat="55.8929176" lon="49.2493919"><time>2023-06-03T06:00:37.863</time></trkpt><trkpt lat="55.8929761" lon="49.2494080"><time>2023-06-03T06:00:38.857</time></trkpt><trkpt lat="55.8930345" lon="49.2494127"><time>2023-06-03T06:00:39.863</time></trkpt><trkpt lat="55.8930990" lon="49.2494370"><time>2023-06-03T06:00:40.873</time></trkpt><trkpt lat="55.8931550" lon="49.2494548"><time>2023-06-03T06:00:41.873</time></trkpt><trkpt lat="55.8932132" lon="49.2494722"><time>2023-06-03T06:00:42.877</time></trkpt><trkpt lat="55.8932812" lon="49.2494868"><time>2023-06-03T06:00:43.880</time></trkpt><trkpt lat="55.8933390" lon="49.2494953"><time>2023-06-03T06:00:44.867</time></trkpt><trkpt lat="55.8933974" lon="49.2495156"><time>2023-06-03T06:00:45.870</time></trkpt><trkpt lat="55.8934541" lon="49.2495364"><time>2023-06-03T06:00:46.877</time></trkpt><trkpt lat="55.8935082" lon="49.2495532"><time>2023-06-03T06:00:47.867</time></trkpt><trkpt lat="55.8935634" lon="49.2495764"><time>2023-06-03T06:00:48.923</time></trkpt><trkpt lat="55.8936263" lon="49.2495916"><time>2023-06-03T06:00:49.880</time></trkpt><trkpt lat="55.8936808" lon="49.2496188"><time>2023-06-03T06:00:50.863</time></trkpt><trkpt lat="55.8937373" lon="49.2496283"><time>2023-06-03T06:00:51.870</time></trkpt><trkpt lat="55.8937892" lon="49.2496440"><time>2023-06-03T06:00:52.867</time></trkpt><trkpt lat="55.8938407" lon="49.2496634"><time>2023-06-03T06:00:53.867</time></trkpt><trkpt lat="55.8938951" lon="49.2496871"><time>2023-06-03T06:00:54.873</time></trkpt><trkpt lat="55.8939403" lon="49.2496951"><time>2023-06-03T06:00:55.877</time></trkpt><trkpt lat="55.8939983" lon="49.2497067"><time>2023-06-03T06:00:56.853</time></trkpt><trkpt lat="55.8940528" lon="49.2497274"><time>2023-06-03T06:00:57.880</time></trkpt><trkpt lat="55.8941120" lon="49.2497439"><time>2023-06-03T06:00:58.867</time></trkpt><trkpt lat="55.8941630" lon="49.2497638"><time>2023-06-03T06:00:59.860</time></trkpt><trkpt lat="55.8942186" lon="49.2497767"><time>2023-06-03T06:01:00.897</time></trkpt><trkpt lat="55.8942695" lon="49.2497722"><time>2023-06-03T06:01:01.857</time></trkpt><trkpt lat="55.8943190" lon="49.2497936"><time>2023-06-03T06:01:02.860</time></trkpt><trkpt lat="55.8943782" lon="49.2498254"><time>2023-06-03T06:01:03.857</time></trkpt><trkpt lat="55.8944317" lon="49.2498365"><time>2023-06-03T06:01:04.867</time></trkpt><trkpt lat="55.8944842" lon="49.2498466"><time>2023-06-03T06:01:05.870</time></trkpt><trkpt lat="55.8945326" lon="49.2498541"><time>2023-06-03T06:01:06.880</time></trkpt><trkpt lat="55.8945861" lon="49.2498664"><time>2023-06-03T06:01:07.890</time></trkpt><trkpt lat="55.8946430" lon="49.2498707"><time>2023-06-03T06:01:08.867</time></trkpt><trkpt lat="55.8947042" lon="49.2498958"><time>2023-06-03T06:01:09.867</time></trkpt><trkpt lat="55.8947540" lon="49.2499255"><time>2023-06-03T06:01:10.857</time></trkpt><trkpt lat="55.8948127" lon="49.2499523"><time>2023-06-03T06:01:11.870</time></trkpt><trkpt lat="55.8948647" lon="49.2499743"><time>2023-06-03T06:01:12.903</time></trkpt><trkpt lat="55.8949172" lon="49.2499999"><time>2023-06-03T06:01:13.877</time></trkpt><trkpt lat="55.8949689" lon="49.2500061"><time>2023-06-03T06:01:14.877</time></trkpt><trkpt lat="55.8950237" lon="49.2500227"><time>2023-06-03T06:01:15.863</time></trkpt><trkpt lat="55.8951298" lon="49.2500507"><time>2023-06-03T06:01:17.857</time></trkpt><trkpt lat="55.8951957" lon="49.2500778"><time>2023-06-03T06:01:18.887</time></trkpt><trkpt lat="55.8952518" lon="49.2501015"><time>2023-06-03T06:01:19.877</time></trkpt><trkpt lat="55.8953027" lon="49.2501137"><time>2023-06-03T06:01:20.860</time></trkpt><trkpt lat="55.8953591" lon="49.2501311"><time>2023-06-03T06:01:21.873</time></trkpt><trkpt lat="55.8954196" lon="49.2501531"><time>2023-06-03T06:01:22.870</time></trkpt><trkpt lat="55.8954709" lon="49.2501668"><time>2023-06-03T06:01:23.873</time></trkpt><trkpt lat="55.8955728" lon="49.2501934"><time>2023-06-03T06:01:25.867</time></trkpt><trkpt lat="55.8956195" lon="49.2502120"><time>2023-06-03T06:01:26.870</time></trkpt><trkpt lat="55.8956762" lon="49.2502267"><time>2023-06-03T06:01:27.870</time></trkpt><trkpt lat="55.8957337" lon="49.2502398"><time>2023-06-03T06:01:28.870</time></trkpt><trkpt lat="55.8957954" lon="49.2502550"><time>2023-06-03T06:01:29.860</time></trkpt><trkpt lat="55.8958489" lon="49.2502581"><time>2023-06-03T06:01:30.863</time></trkpt><trkpt lat="55.8959024" lon="49.2502647"><time>2023-06-03T06:01:31.863</time></trkpt><trkpt lat="55.8959611" lon="49.2502771"><time>2023-06-03T06:01:32.867</time></trkpt><trkpt lat="55.8960179" lon="49.2502857"><time>2023-06-03T06:01:33.857</time></trkpt><trkpt lat="55.8960706" lon="49.2502941"><time>2023-06-03T06:01:34.867</time></trkpt><trkpt lat="55.8961273" lon="49.2503069"><time>2023-06-03T06:01:35.870</time></trkpt><trkpt lat="55.8961822" lon="49.2503234"><time>2023-06-03T06:01:36.903</time></trkpt><trkpt lat="55.8962400" lon="49.2503360"><time>2023-06-03T06:01:37.857</time></trkpt><trkpt lat="55.8962943" lon="49.2503675"><time>2023-06-03T06:01:38.873</time></trkpt><trkpt lat="55.8963590" lon="49.2504094"><time>2023-06-03T06:01:39.870</time></trkpt><trkpt lat="55.8964124" lon="49.2504416"><time>2023-06-03T06:01:40.860</time></trkpt><trkpt lat="55.8964633" lon="49.2504635"><time>2023-06-03T06:01:41.867</time></trkpt><trkpt lat="55.8965140" lon="49.2504806"><time>2023-06-03T06:01:42.890</time></trkpt><trkpt lat="55.8965681" lon="49.2504936"><time>2023-06-03T06:01:43.887</time></trkpt><trkpt lat="55.8966214" lon="49.2505138"><time>2023-06-03T06:01:44.863</time></trkpt><trkpt lat="55.8966744" lon="49.2505142"><time>2023-06-03T06:01:45.883</time></trkpt><trkpt lat="55.8967326" lon="49.2505269"><time>2023-06-03T06:01:46.877</time></trkpt><trkpt lat="55.8967865" lon="49.2505383"><time>2023-06-03T06:01:47.873</time></trkpt><trkpt lat="55.8968351" lon="49.2505482"><time>2023-06-03T06:01:48.910</time></trkpt><trkpt lat="55.8968948" lon="49.2505715"><time>2023-06-03T06:01:49.870</time></trkpt><trkpt lat="55.8969515" lon="49.2505868"><time>2023-06-03T06:01:50.877</time></trkpt><trkpt lat="55.8970049" lon="49.2506004"><time>2023-06-03T06:01:51.877</time></trkpt><trkpt lat="55.8970573" lon="49.2506109"><time>2023-06-03T06:01:52.853</time></trkpt><trkpt lat="55.8971085" lon="49.2506283"><time>2023-06-03T06:01:53.873</time></trkpt><trkpt lat="55.8971609" lon="49.2506275"><time>2023-06-03T06:01:54.887</time></trkpt><trkpt lat="55.8972200" lon="49.2506455"><time>2023-06-03T06:01:55.873</time></trkpt><trkpt lat="55.8972784" lon="49.2506769"><time>2023-06-03T06:01:56.850</time></trkpt><trkpt lat="55.8973277" lon="49.2506981"><time>2023-06-03T06:01:57.873</time></trkpt><trkpt lat="55.8973797" lon="49.2507134"><time>2023-06-03T06:01:58.857</time></trkpt><trkpt lat="55.8974334" lon="49.2507194"><time>2023-06-03T06:01:59.863</time></trkpt><trkpt lat="55.8974864" lon="49.2507351"><time>2023-06-03T06:02:00.893</time></trkpt><trkpt lat="55.8975384" lon="49.2507473"><time>2023-06-03T06:02:01.877</time></trkpt><trkpt lat="55.8975930" lon="49.2507559"><time>2023-06-03T06:02:02.870</time></trkpt><trkpt lat="55.8976473" lon="49.2507738"><time>2023-06-03T06:02:03.860</time></trkpt><trkpt lat="55.8976947" lon="49.2507882"><time>2023-06-03T06:02:04.867</time></trkpt><trkpt lat="55.8977499" lon="49.2508011"><time>2023-06-03T06:02:05.870</time></trkpt><trkpt lat="55.8978071" lon="49.2508176"><time>2023-06-03T06:02:06.867</time></trkpt><trkpt lat="55.8978616" lon="49.2508319"><time>2023-06-03T06:02:07.863</time></trkpt><trkpt lat="55.8979208" lon="49.2508480"><time>2023-06-03T06:02:08.873</time></trkpt><trkpt lat="55.8979746" lon="49.2508669"><time>2023-06-03T06:02:09.873</time></trkpt><trkpt lat="55.8980311" lon="49.2508848"><time>2023-06-03T06:02:10.867</time></trkpt><trkpt lat="55.8980886" lon="49.2508982"><time>2023-06-03T06:02:11.890</time></trkpt><trkpt lat="55.8981448" lon="49.2509085"><time>2023-06-03T06:02:12.900</time></trkpt><trkpt lat="55.8982029" lon="49.2509222"><time>2023-06-03T06:02:13.890</time></trkpt><trkpt lat="55.8982548" lon="49.2509437"><time>2023-06-03T06:02:14.873</time></trkpt><trkpt lat="55.8983105" lon="49.2509583"><time>2023-06-03T06:02:15.863</time></trkpt><trkpt lat="55.8983607" lon="49.2509793"><time>2023-06-03T06:02:16.867</time></trkpt><trkpt lat="55.8984147" lon="49.2510012"><time>2023-06-03T06:02:17.870</time></trkpt><trkpt lat="55.8984834" lon="49.2510259"><time>2023-06-03T06:02:18.887</time></trkpt><trkpt lat="55.8985476" lon="49.2510405"><time>2023-06-03T06:02:19.873</time></trkpt><trkpt lat="55.8986027" lon="49.2510607"><time>2023-06-03T06:02:20.863</time></trkpt><trkpt lat="55.8986645" lon="49.2510703"><time>2023-06-03T06:02:21.867</time></trkpt><trkpt lat="55.8987205" lon="49.2511000"><time>2023-06-03T06:02:22.867</time></trkpt><trkpt lat="55.8987711" lon="49.2511287"><time>2023-06-03T06:02:23.877</time></trkpt><trkpt lat="55.8988279" lon="49.2511588"><time>2023-06-03T06:02:24.907</time></trkpt><trkpt lat="55.8988799" lon="49.2511825"><time>2023-06-03T06:02:25.870</time></trkpt><trkpt lat="55.8989258" lon="49.2512006"><time>2023-06-03T06:02:26.867</time></trkpt><trkpt lat="55.8989765" lon="49.2512180"><time>2023-06-03T06:02:27.870</time></trkpt><trkpt lat="55.8990303" lon="49.2512391"><time>2023-06-03T06:02:28.863</time></trkpt><trkpt lat="55.8990836" lon="49.2512530"><time>2023-06-03T06:02:29.847</time></trkpt><trkpt lat="55.8991445" lon="49.2512796"><time>2023-06-03T06:02:30.873</time></trkpt><trkpt lat="55.8991954" lon="49.2512854"><time>2023-06-03T06:02:31.863</time></trkpt><trkpt lat="55.8992559" lon="49.2512930"><time>2023-06-03T06:02:32.857</time></trkpt><trkpt lat="55.8993113" lon="49.2512850"><time>2023-06-03T06:02:33.860</time></trkpt><trkpt lat="55.8993660" lon="49.2512556"><time>2023-06-03T06:02:34.877</time></trkpt><trkpt lat="55.8994246" lon="49.2512382"><time>2023-06-03T06:02:35.880</time></trkpt><trkpt lat="55.8994784" lon="49.2512069"><time>2023-06-03T06:02:36.910</time></trkpt><trkpt lat="55.8995321" lon="49.2511627"><time>2023-06-03T06:02:37.860</time></trkpt><trkpt lat="55.8995851" lon="49.2511312"><time>2023-06-03T06:02:38.873</time></trkpt><trkpt lat="55.8996369" lon="49.2510900"><time>2023-06-03T06:02:39.853</time></trkpt><trkpt lat="55.8996871" lon="49.2510523"><time>2023-06-03T06:02:40.863</time></trkpt><trkpt lat="55.8997354" lon="49.2509926"><time>2023-06-03T06:02:41.873</time></trkpt><trkpt lat="55.8997938" lon="49.2509478"><time>2023-06-03T06:02:42.870</time></trkpt><trkpt lat="55.8998462" lon="49.2509205"><time>2023-06-03T06:02:43.867</time></trkpt><trkpt lat="55.8998963" lon="49.2508942"><time>2023-06-03T06:02:44.863</time></trkpt><trkpt lat="55.8999529" lon="49.2508506"><time>2023-06-03T06:02:45.857</time></trkpt><trkpt lat="55.9000119" lon="49.2507841"><time>2023-06-03T06:02:46.857</time></trkpt><trkpt lat="55.9000741" lon="49.2507439"><time>2023-06-03T06:02:47.873</time></trkpt><trkpt lat="55.9001311" lon="49.2507115"><time>2023-06-03T06:02:48.907</time></trkpt><trkpt lat="55.9001858" lon="49.2506553"><time>2023-06-03T06:02:49.847</time></trkpt><trkpt lat="55.9002397" lon="49.2506175"><time>2023-06-03T06:02:50.860</time></trkpt><trkpt lat="55.9003001" lon="49.2505824"><time>2023-06-03T06:02:51.870</time></trkpt><trkpt lat="55.9003664" lon="49.2505431"><time>2023-06-03T06:02:52.870</time></trkpt><trkpt lat="55.9004265" lon="49.2505063"><time>2023-06-03T06:02:53.863</time></trkpt><trkpt lat="55.9004842" lon="49.2504546"><time>2023-06-03T06:02:54.887</time></trkpt><trkpt lat="55.9005344" lon="49.2504132"><time>2023-06-03T06:02:55.873</time></trkpt><trkpt lat="55.9005881" lon="49.2503714"><time>2023-06-03T06:02:56.857</time></trkpt><trkpt lat="55.9006407" lon="49.2503310"><time>2023-06-03T06:02:57.860</time></trkpt><trkpt lat="55.9006964" lon="49.2502875"><time>2023-06-03T06:02:58.880</time></trkpt><trkpt lat="55.9007612" lon="49.2502603"><time>2023-06-03T06:02:59.887</time></trkpt><trkpt lat="55.9008266" lon="49.2502261"><time>2023-06-03T06:03:00.897</time></trkpt><trkpt lat="55.9008893" lon="49.2501795"><time>2023-06-03T06:03:01.870</time></trkpt><trkpt lat="55.9009505" lon="49.2501265"><time>2023-06-03T06:03:02.853</time></trkpt><trkpt lat="55.9010148" lon="49.2500771"><time>2023-06-03T06:03:03.870</time></trkpt><trkpt lat="55.9010759" lon="49.2500354"><time>2023-06-03T06:03:04.867</time></trkpt><trkpt lat="55.9011435" lon="49.2499904"><time>2023-06-03T06:03:05.857</time></trkpt><trkpt lat="55.9012085" lon="49.2499446"><time>2023-06-03T06:03:06.897</time></trkpt><trkpt lat="55.9012694" lon="49.2498970"><time>2023-06-03T06:03:07.863</time></trkpt><trkpt lat="55.9013361" lon="49.2498650"><time>2023-06-03T06:03:08.870</time></trkpt><trkpt lat="55.9014005" lon="49.2498260"><time>2023-06-03T06:03:09.860</time></trkpt><trkpt lat="55.9014632" lon="49.2497799"><time>2023-06-03T06:03:10.857</time></trkpt><trkpt lat="55.9015278" lon="49.2497459"><time>2023-06-03T06:03:11.863</time></trkpt><trkpt lat="55.9015910" lon="49.2497191"><time>2023-06-03T06:03:12.877</time></trkpt><trkpt lat="55.9016517" lon="49.2496822"><time>2023-06-03T06:03:13.870</time></trkpt><trkpt lat="55.9017121" lon="49.2496527"><time>2023-06-03T06:03:14.870</time></trkpt><trkpt lat="55.9017761" lon="49.2496138"><time>2023-06-03T06:03:15.877</time></trkpt><trkpt lat="55.9018353" lon="49.2495667"><time>2023-06-03T06:03:16.860</time></trkpt><trkpt lat="55.9018950" lon="49.2495211"><time>2023-06-03T06:03:17.870</time></trkpt><trkpt lat="55.9019568" lon="49.2494806"><time>2023-06-03T06:03:18.883</time></trkpt><trkpt lat="55.9020236" lon="49.2494396"><time>2023-06-03T06:03:19.867</time></trkpt><trkpt lat="55.9020914" lon="49.2493873"><time>2023-06-03T06:03:20.870</time></trkpt><trkpt lat="55.9021477" lon="49.2493598"><time>2023-06-03T06:03:21.863</time></trkpt><trkpt lat="55.9022062" lon="49.2493161"><time>2023-06-03T06:03:22.857</time></trkpt><trkpt lat="55.9022609" lon="49.2492890"><time>2023-06-03T06:03:23.873</time></trkpt><trkpt lat="55.9023051" lon="49.2492323"><time>2023-06-03T06:03:24.907</time></trkpt><trkpt lat="55.9023622" lon="49.2491944"><time>2023-06-03T06:03:25.857</time></trkpt><trkpt lat="55.9024248" lon="49.2491670"><time>2023-06-03T06:03:26.867</time></trkpt><trkpt lat="55.9024835" lon="49.2491338"><time>2023-06-03T06:03:27.873</time></trkpt><trkpt lat="55.9025472" lon="49.2490915"><time>2023-06-03T06:03:28.867</time></trkpt><trkpt lat="55.9026098" lon="49.2490591"><time>2023-06-03T06:03:29.870</time></trkpt><trkpt lat="55.9026704" lon="49.2490220"><time>2023-06-03T06:03:30.853</time></trkpt><trkpt lat="55.9027357" lon="49.2489908"><time>2023-06-03T06:03:31.867</time></trkpt><trkpt lat="55.9027982" lon="49.2489579"><time>2023-06-03T06:03:32.857</time></trkpt><trkpt lat="55.9028578" lon="49.2489161"><time>2023-06-03T06:03:33.870</time></trkpt><trkpt lat="55.9029173" lon="49.2488793"><time>2023-06-03T06:03:34.853</time></trkpt><trkpt lat="55.9029842" lon="49.2488381"><time>2023-06-03T06:03:35.873</time></trkpt><trkpt lat="55.9030475" lon="49.2487915"><time>2023-06-03T06:03:36.900</time></trkpt><trkpt lat="55.9031118" lon="49.2487550"><time>2023-06-03T06:03:37.867</time></trkpt><trkpt lat="55.9031756" lon="49.2487087"><time>2023-06-03T06:03:38.867</time></trkpt><trkpt lat="55.9032346" lon="49.2486757"><time>2023-06-03T06:03:39.873</time></trkpt><trkpt lat="55.9032897" lon="49.2486396"><time>2023-06-03T06:03:40.863</time></trkpt><trkpt lat="55.9033535" lon="49.2485985"><time>2023-06-03T06:03:41.877</time></trkpt><trkpt lat="55.9034134" lon="49.2485564"><time>2023-06-03T06:03:42.887</time></trkpt><trkpt lat="55.9034732" lon="49.2485215"><time>2023-06-03T06:03:43.887</time></trkpt><trkpt lat="55.9035427" lon="49.2484714"><time>2023-06-03T06:03:44.853</time></trkpt><trkpt lat="55.9036166" lon="49.2484159"><time>2023-06-03T06:03:45.860</time></trkpt><trkpt lat="55.9036952" lon="49.2483658"><time>2023-06-03T06:03:46.857</time></trkpt><trkpt lat="55.9037681" lon="49.2483127"><time>2023-06-03T06:03:47.873</time></trkpt><trkpt lat="55.9038477" lon="49.2482741"><time>2023-06-03T06:03:48.897</time></trkpt><trkpt lat="55.9039150" lon="49.2482181"><time>2023-06-03T06:03:49.867</time></trkpt><trkpt lat="55.9039868" lon="49.2481658"><time>2023-06-03T06:03:50.857</time></trkpt><trkpt lat="55.9040471" lon="49.2481088"><time>2023-06-03T06:03:51.870</time></trkpt><trkpt lat="55.9041102" lon="49.2480526"><time>2023-06-03T06:03:52.863</time></trkpt><trkpt lat="55.9041599" lon="49.2480052"><time>2023-06-03T06:03:53.867</time></trkpt><trkpt lat="55.9042271" lon="49.2479602"><time>2023-06-03T06:03:54.867</time></trkpt><trkpt lat="55.9042878" lon="49.2479107"><time>2023-06-03T06:03:55.877</time></trkpt><trkpt lat="55.9043413" lon="49.2478764"><time>2023-06-03T06:03:56.870</time></trkpt><trkpt lat="55.9043976" lon="49.2478189"><time>2023-06-03T06:03:57.860</time></trkpt><trkpt lat="55.9044600" lon="49.2477980"><time>2023-06-03T06:03:58.860</time></trkpt><trkpt lat="55.9045235" lon="49.2477411"><time>2023-06-03T06:03:59.877</time></trkpt><trkpt lat="55.9045888" lon="49.2477360"><time>2023-06-03T06:04:00.890</time></trkpt><trkpt lat="55.9046489" lon="49.2476720"><time>2023-06-03T06:04:01.877</time></trkpt><trkpt lat="55.9046941" lon="49.2476292"><time>2023-06-03T06:04:02.877</time></trkpt><trkpt lat="55.9047458" lon="49.2475770"><time>2023-06-03T06:04:03.870</time></trkpt><trkpt lat="55.9047867" lon="49.2475297"><time>2023-06-03T06:04:04.857</time></trkpt><trkpt lat="55.9048677" lon="49.2474774"><time>2023-06-03T06:04:06.877</time></trkpt><trkpt lat="55.9049639" lon="49.2474224"><time>2023-06-03T06:04:08.863</time></trkpt><trkpt lat="55.9050443" lon="49.2473641"><time>2023-06-03T06:04:10.863</time></trkpt><trkpt lat="55.9050880" lon="49.2473179"><time>2023-06-03T06:04:11.877</time></trkpt><trkpt lat="55.9051422" lon="49.2473071"><time>2023-06-03T06:04:12.900</time></trkpt><trkpt lat="55.9052045" lon="49.2472647"><time>2023-06-03T06:04:13.877</time></trkpt><trkpt lat="55.9052671" lon="49.2472286"><time>2023-06-03T06:04:14.857</time></trkpt><trkpt lat="55.9053203" lon="49.2472102"><time>2023-06-03T06:04:15.853</time></trkpt><trkpt lat="55.9053762" lon="49.2471660"><time>2023-06-03T06:04:16.873</time></trkpt><trkpt lat="55.9054395" lon="49.2471449"><time>2023-06-03T06:04:17.883</time></trkpt><trkpt lat="55.9055012" lon="49.2471032"><time>2023-06-03T06:04:18.880</time></trkpt><trkpt lat="55.9055902" lon="49.2470162"><time>2023-06-03T06:04:20.857</time></trkpt><trkpt lat="55.9056558" lon="49.2469852"><time>2023-06-03T06:04:21.863</time></trkpt><trkpt lat="55.9057211" lon="49.2469511"><time>2023-06-03T06:04:22.843</time></trkpt><trkpt lat="55.9057727" lon="49.2469184"><time>2023-06-03T06:04:23.860</time></trkpt><trkpt lat="55.9058259" lon="49.2469004"><time>2023-06-03T06:04:24.883</time></trkpt><trkpt lat="55.9058964" lon="49.2468448"><time>2023-06-03T06:04:25.857</time></trkpt><trkpt lat="55.9059454" lon="49.2467891"><time>2023-06-03T06:04:26.850</time></trkpt><trkpt lat="55.9059998" lon="49.2467298"><time>2023-06-03T06:04:27.853</time></trkpt><trkpt lat="55.9060431" lon="49.2466650"><time>2023-06-03T06:04:28.853</time></trkpt><trkpt lat="55.9060902" lon="49.2466063"><time>2023-06-03T06:04:29.863</time></trkpt><trkpt lat="55.9061658" lon="49.2465610"><time>2023-06-03T06:04:30.857</time></trkpt><trkpt lat="55.9062393" lon="49.2465253"><time>2023-06-03T06:04:31.860</time></trkpt><trkpt lat="55.9063212" lon="49.2464716"><time>2023-06-03T06:04:32.863</time></trkpt><trkpt lat="55.9063979" lon="49.2464163"><time>2023-06-03T06:04:33.860</time></trkpt><trkpt lat="55.9064748" lon="49.2463587"><time>2023-06-03T06:04:34.857</time></trkpt><trkpt lat="55.9065507" lon="49.2463066"><time>2023-06-03T06:04:35.857</time></trkpt><trkpt lat="55.9066293" lon="49.2462565"><time>2023-06-03T06:04:36.857</time></trkpt><trkpt lat="55.9067012" lon="49.2462010"><time>2023-06-03T06:04:37.860</time></trkpt><trkpt lat="55.9067439" lon="49.2461405"><time>2023-06-03T06:04:38.857</time></trkpt><trkpt lat="55.9068177" lon="49.2461036"><time>2023-06-03T06:04:39.863</time></trkpt><trkpt lat="55.9068855" lon="49.2460612"><time>2023-06-03T06:04:40.857</time></trkpt><trkpt lat="55.9069453" lon="49.2460330"><time>2023-06-03T06:04:41.870</time></trkpt><trkpt lat="55.9069995" lon="49.2460124"><time>2023-06-03T06:04:42.857</time></trkpt><trkpt lat="55.9070681" lon="49.2459683"><time>2023-06-03T06:04:43.857</time></trkpt><trkpt lat="55.9071091" lon="49.2459220"><time>2023-06-03T06:04:44.853</time></trkpt><trkpt lat="55.9071725" lon="49.2458874"><time>2023-06-03T06:04:45.873</time></trkpt><trkpt lat="55.9072228" lon="49.2458348"><time>2023-06-03T06:04:46.867</time></trkpt><trkpt lat="55.9073086" lon="49.2457430"><time>2023-06-03T06:04:48.860</time></trkpt><trkpt lat="55.9073733" lon="49.2456915"><time>2023-06-03T06:04:49.867</time></trkpt><trkpt lat="55.9074523" lon="49.2456685"><time>2023-06-03T06:04:50.850</time></trkpt><trkpt lat="55.9075216" lon="49.2456239"><time>2023-06-03T06:04:51.860</time></trkpt><trkpt lat="55.9076035" lon="49.2455829"><time>2023-06-03T06:04:52.850</time></trkpt><trkpt lat="55.9076770" lon="49.2455331"><time>2023-06-03T06:04:53.873</time></trkpt><trkpt lat="55.9077477" lon="49.2454902"><time>2023-06-03T06:04:54.857</time></trkpt><trkpt lat="55.9078022" lon="49.2454482"><time>2023-06-03T06:04:55.870</time></trkpt><trkpt lat="55.9078644" lon="49.2454050"><time>2023-06-03T06:04:56.857</time></trkpt><trkpt lat="55.9079206" lon="49.2453578"><time>2023-06-03T06:04:57.863</time></trkpt><trkpt lat="55.9079693" lon="49.2453204"><time>2023-06-03T06:04:58.857</time></trkpt><trkpt lat="55.9080354" lon="49.2452844"><time>2023-06-03T06:04:59.883</time></trkpt><trkpt lat="55.9080944" lon="49.2452422"><time>2023-06-03T06:05:00.863</time></trkpt><trkpt lat="55.9081400" lon="49.2451897"><time>2023-06-03T06:05:01.860</time></trkpt><trkpt lat="55.9082055" lon="49.2451429"><time>2023-06-03T06:05:03.867</time></trkpt><trkpt lat="55.9082566" lon="49.2451246"><time>2023-06-03T06:05:06.860</time></trkpt><trkpt lat="55.9083009" lon="49.2450629"><time>2023-06-03T06:05:10.887</time></trkpt><trkpt lat="55.9083457" lon="49.2450229"><time>2023-06-03T06:05:14.850</time></trkpt><trkpt lat="55.9083416" lon="49.2449334"><time>2023-06-03T06:05:17.860</time></trkpt><trkpt lat="55.9082582" lon="49.2449401"><time>2023-06-03T06:05:19.867</time></trkpt><trkpt lat="55.9082138" lon="49.2449628"><time>2023-06-03T06:05:20.850</time></trkpt><trkpt lat="55.9081648" lon="49.2449683"><time>2023-06-03T06:05:22.887</time></trkpt><trkpt lat="55.9081442" lon="49.2448798"><time>2023-06-03T06:05:25.857</time></trkpt><trkpt lat="55.9081221" lon="49.2447927"><time>2023-06-03T06:05:27.843</time></trkpt><trkpt lat="55.9081118" lon="49.2446883"><time>2023-06-03T06:05:31.857</time></trkpt><trkpt lat="55.9081048" lon="49.2445778"><time>2023-06-03T06:05:33.857</time></trkpt><trkpt lat="55.9080845" lon="49.2444794"><time>2023-06-03T06:05:35.857</time></trkpt><trkpt lat="55.9080751" lon="49.2443789"><time>2023-06-03T06:05:37.853</time></trkpt><trkpt lat="55.9080687" lon="49.2442814"><time>2023-06-03T06:05:39.860</time></trkpt><trkpt lat="55.9080419" lon="49.2441863"><time>2023-06-03T06:05:41.863</time></trkpt><trkpt lat="55.9080022" lon="49.2441483"><time>2023-06-03T06:05:43.857</time></trkpt><trkpt lat="55.9079399" lon="49.2441462"><time>2023-06-03T06:05:45.873</time></trkpt><trkpt lat="55.9078598" lon="49.2441308"><time>2023-06-03T06:05:47.860</time></trkpt><trkpt lat="55.9078150" lon="49.2441146"><time>2023-06-03T06:05:48.877</time></trkpt><trkpt lat="55.9077716" lon="49.2440935"><time>2023-06-03T06:05:49.867</time></trkpt><trkpt lat="55.9076904" lon="49.2440461"><time>2023-06-03T06:05:51.857</time></trkpt><trkpt lat="55.9076183" lon="49.2440268"><time>2023-06-03T06:05:53.857</time></trkpt><trkpt lat="55.9075382" lon="49.2440178"><time>2023-06-03T06:05:55.867</time></trkpt><trkpt lat="55.9074582" lon="49.2440041"><time>2023-06-03T06:05:57.860</time></trkpt><trkpt lat="55.9073784" lon="49.2439823"><time>2023-06-03T06:05:59.863</time></trkpt><trkpt lat="55.9073116" lon="49.2439441"><time>2023-06-03T06:06:01.857</time></trkpt><trkpt lat="55.9072601" lon="49.2438730"><time>2023-06-03T06:06:03.850</time></trkpt><trkpt lat="55.9072284" lon="49.2437807"><time>2023-06-03T06:06:05.860</time></trkpt><trkpt lat="55.9072070" lon="49.2436968"><time>2023-06-03T06:06:07.853</time></trkpt><trkpt lat="55.9071886" lon="49.2436212"><time>2023-06-03T06:06:10.880</time></trkpt><trkpt lat="55.9071509" lon="49.2435182"><time>2023-06-03T06:06:13.860</time></trkpt><trkpt lat="55.9071176" lon="49.2434246"><time>2023-06-03T06:06:15.853</time></trkpt><trkpt lat="55.9070851" lon="49.2433345"><time>2023-06-03T06:06:17.860</time></trkpt><trkpt lat="55.9070467" lon="49.2432534"><time>2023-06-03T06:06:19.853</time></trkpt><trkpt lat="55.9070144" lon="49.2431905"><time>2023-06-03T06:06:21.953</time></trkpt><trkpt lat="55.9070005" lon="49.2431619"><time>2023-06-03T06:06:22.883</time></trkpt><trkpt lat="55.9069581" lon="49.2431283"><time>2023-06-03T06:06:28.867</time></trkpt><trkpt lat="55.9069126" lon="49.2431023"><time>2023-06-03T06:06:33.857</time></trkpt><trkpt lat="55.9069347" lon="49.2430182"><time>2023-06-03T06:06:53.863</time></trkpt><trkpt lat="55.9069094" lon="49.2429365"><time>2023-06-03T06:06:56.853</time></trkpt><trkpt lat="55.9068811" lon="49.2428510"><time>2023-06-03T06:06:59.857</time></trkpt><trkpt lat="55.9068575" lon="49.2427699"><time>2023-06-03T06:07:01.847</time></trkpt><trkpt lat="55.9068395" lon="49.2426933"><time>2023-06-03T06:07:03.857</time></trkpt><trkpt lat="55.9068057" lon="49.2425845"><time>2023-06-03T06:07:06.850</time></trkpt><trkpt lat="55.9067779" lon="49.2425209"><time>2023-06-03T06:07:08.873</time></trkpt><trkpt lat="55.9067626" lon="49.2424874"><time>2023-06-03T06:07:09.857</time></trkpt><trkpt lat="55.9067354" lon="49.2424176"><time>2023-06-03T06:07:11.853</time></trkpt><trkpt lat="55.9067122" lon="49.2423260"><time>2023-06-03T06:07:14.847</time></trkpt><trkpt lat="55.9066933" lon="49.2422295"><time>2023-06-03T06:07:18.863</time></trkpt><trkpt lat="55.9066734" lon="49.2421254"><time>2023-06-03T06:07:21.940</time></trkpt><trkpt lat="55.9066734" lon="49.2421254"><time>2023-06-03T06:07:21.983</time></trkpt><trkpt lat="55.9066693" lon="49.2420430"><time>2023-06-03T06:07:24.873</time></trkpt><trkpt lat="55.9066699" lon="49.2420340"><time>2023-06-03T06:07:25.857</time></trkpt><trkpt lat="55.9067066" lon="49.2419854"><time>2023-06-03T06:07:32.857</time></trkpt><trkpt lat="55.9066603" lon="49.2420154"><time>2023-06-03T06:08:09.853</time></trkpt><trkpt lat="55.9066314" lon="49.2420793"><time>2023-06-03T06:08:11.857</time></trkpt><trkpt lat="55.9066169" lon="49.2421819"><time>2023-06-03T06:08:14.847</time></trkpt><trkpt lat="55.9066311" lon="49.2422790"><time>2023-06-03T06:08:16.863</time></trkpt><trkpt lat="55.9066538" lon="49.2423605"><time>2023-06-03T06:08:18.850</time></trkpt><trkpt lat="55.9066798" lon="49.2424328"><time>2023-06-03T06:08:20.857</time></trkpt><trkpt lat="55.9067025" lon="49.2425223"><time>2023-06-03T06:08:22.883</time></trkpt><trkpt lat="55.9067357" lon="49.2426454"><time>2023-06-03T06:08:24.853</time></trkpt><trkpt lat="55.9067626" lon="49.2427440"><time>2023-06-03T06:08:26.853</time></trkpt><trkpt lat="55.9067848" lon="49.2428351"><time>2023-06-03T06:08:28.863</time></trkpt><trkpt lat="55.9068094" lon="49.2429266"><time>2023-06-03T06:08:30.853</time></trkpt><trkpt lat="55.9068426" lon="49.2430211"><time>2023-06-03T06:08:33.863</time></trkpt><trkpt lat="55.9068750" lon="49.2431013"><time>2023-06-03T06:08:35.863</time></trkpt><trkpt lat="55.9069043" lon="49.2431733"><time>2023-06-03T06:08:37.850</time></trkpt><trkpt lat="55.9069284" lon="49.2432438"><time>2023-06-03T06:08:39.847</time></trkpt><trkpt lat="55.9069595" lon="49.2433302"><time>2023-06-03T06:08:41.857</time></trkpt><trkpt lat="55.9069998" lon="49.2434395"><time>2023-06-03T06:08:43.853</time></trkpt><trkpt lat="55.9070370" lon="49.2435297"><time>2023-06-03T06:08:45.857</time></trkpt><trkpt lat="55.9070709" lon="49.2436048"><time>2023-06-03T06:08:47.857</time></trkpt><trkpt lat="55.9071064" lon="49.2436918"><time>2023-06-03T06:08:50.867</time></trkpt><trkpt lat="55.9071419" lon="49.2437784"><time>2023-06-03T06:08:53.857</time></trkpt><trkpt lat="55.9071641" lon="49.2438874"><time>2023-06-03T06:08:56.847</time></trkpt><trkpt lat="55.9071916" lon="49.2439654"><time>2023-06-03T06:08:58.900</time></trkpt><trkpt lat="55.9072280" lon="49.2440142"><time>2023-06-03T06:09:00.850</time></trkpt><trkpt lat="55.9072879" lon="49.2440297"><time>2023-06-03T06:09:02.860</time></trkpt><trkpt lat="55.9073589" lon="49.2440258"><time>2023-06-03T06:09:04.853</time></trkpt><trkpt lat="55.9074242" lon="49.2440093"><time>2023-06-03T06:09:06.847</time></trkpt><trkpt lat="55.9074816" lon="49.2439858"><time>2023-06-03T06:09:08.857</time></trkpt><trkpt lat="55.9075519" lon="49.2439796"><time>2023-06-03T06:09:10.887</time></trkpt><trkpt lat="55.9076246" lon="49.2439915"><time>2023-06-03T06:09:12.850</time></trkpt><trkpt lat="55.9077044" lon="49.2439973"><time>2023-06-03T06:09:14.847</time></trkpt><trkpt lat="55.9077761" lon="49.2440019"><time>2023-06-03T06:09:16.877</time></trkpt><trkpt lat="55.9078396" lon="49.2440114"><time>2023-06-03T06:09:18.853</time></trkpt><trkpt lat="55.9078913" lon="49.2440434"><time>2023-06-03T06:09:21.860</time></trkpt><trkpt lat="55.9079244" lon="49.2441232"><time>2023-06-03T06:09:23.863</time></trkpt><trkpt lat="55.9079539" lon="49.2442494"><time>2023-06-03T06:09:25.860</time></trkpt><trkpt lat="55.9079867" lon="49.2443822"><time>2023-06-03T06:09:27.863</time></trkpt><trkpt lat="55.9080156" lon="49.2445036"><time>2023-06-03T06:09:29.850</time></trkpt><trkpt lat="55.9080384" lon="49.2445849"><time>2023-06-03T06:09:31.853</time></trkpt><trkpt lat="55.9080651" lon="49.2446917"><time>2023-06-03T06:09:34.853</time></trkpt><trkpt lat="55.9080886" lon="49.2447869"><time>2023-06-03T06:09:36.847</time></trkpt><trkpt lat="55.9081121" lon="49.2448690"><time>2023-06-03T06:09:38.853</time></trkpt><trkpt lat="55.9081335" lon="49.2449447"><time>2023-06-03T06:09:40.847</time></trkpt><trkpt lat="55.9081523" lon="49.2450504"><time>2023-06-03T06:09:43.857</time></trkpt><trkpt lat="55.9081798" lon="49.2451185"><time>2023-06-03T06:09:54.850</time></trkpt><trkpt lat="55.9082365" lon="49.2451640"><time>2023-06-03T06:09:56.887</time></trkpt><trkpt lat="55.9082874" lon="49.2451484"><time>2023-06-03T06:09:58.857</time></trkpt><trkpt lat="55.9083258" lon="49.2451026"><time>2023-06-03T06:10:00.853</time></trkpt><trkpt lat="55.9083635" lon="49.2450525"><time>2023-06-03T06:10:04.843</time></trkpt><trkpt lat="55.9084026" lon="49.2450086"><time>2023-06-03T06:10:14.860</time></trkpt><trkpt lat="55.9084452" lon="49.2449659"><time>2023-06-03T06:10:19.853</time></trkpt><trkpt lat="55.9084917" lon="49.2449313"><time>2023-06-03T06:10:21.857</time></trkpt><trkpt lat="55.9085490" lon="49.2448976"><time>2023-06-03T06:10:23.860</time></trkpt><trkpt lat="55.9086044" lon="49.2448561"><time>2023-06-03T06:10:25.853</time></trkpt><trkpt lat="55.9086687" lon="49.2447997"><time>2023-06-03T06:10:27.873</time></trkpt><trkpt lat="55.9087215" lon="49.2447408"><time>2023-06-03T06:10:29.853</time></trkpt><trkpt lat="55.9087717" lon="49.2446963"><time>2023-06-03T06:10:31.857</time></trkpt><trkpt lat="55.9088253" lon="49.2446788"><time>2023-06-03T06:10:33.863</time></trkpt><trkpt lat="55.9088936" lon="49.2446565"><time>2023-06-03T06:10:35.853</time></trkpt><trkpt lat="55.9089746" lon="49.2446169"><time>2023-06-03T06:10:37.850</time></trkpt><trkpt lat="55.9090480" lon="49.2445738"><time>2023-06-03T06:10:39.857</time></trkpt><trkpt lat="55.9091169" lon="49.2445229"><time>2023-06-03T06:10:41.863</time></trkpt><trkpt lat="55.9091894" lon="49.2444814"><time>2023-06-03T06:10:43.853</time></trkpt><trkpt lat="55.9092700" lon="49.2444369"><time>2023-06-03T06:10:45.870</time></trkpt><trkpt lat="55.9093255" lon="49.2443915"><time>2023-06-03T06:10:46.867</time></trkpt><trkpt lat="55.9093774" lon="49.2443802"><time>2023-06-03T06:10:47.873</time></trkpt><trkpt lat="55.9094482" lon="49.2443078"><time>2023-06-03T06:10:49.847</time></trkpt><trkpt lat="55.9095265" lon="49.2442554"><time>2023-06-03T06:10:51.843</time></trkpt><trkpt lat="55.9096393" lon="49.2442621"><time>2023-06-03T06:10:53.857</time></trkpt><trkpt lat="55.9096845" lon="49.2442343"><time>2023-06-03T06:10:54.847</time></trkpt><trkpt lat="55.9097255" lon="49.2441934"><time>2023-06-03T06:10:55.847</time></trkpt><trkpt lat="55.9097717" lon="49.2441452"><time>2023-06-03T06:10:56.857</time></trkpt><trkpt lat="55.9098219" lon="49.2440959"><time>2023-06-03T06:10:57.860</time></trkpt><trkpt lat="55.9098605" lon="49.2440473"><time>2023-06-03T06:10:58.857</time></trkpt><trkpt lat="55.9098960" lon="49.2439958"><time>2023-06-03T06:10:59.857</time></trkpt><trkpt lat="55.9099285" lon="49.2439383"><time>2023-06-03T06:11:00.853</time></trkpt><trkpt lat="55.9099776" lon="49.2438244"><time>2023-06-03T06:11:02.860</time></trkpt><trkpt lat="55.9100046" lon="49.2437499"><time>2023-06-03T06:11:03.860</time></trkpt><trkpt lat="55.9100331" lon="49.2436874"><time>2023-06-03T06:11:04.857</time></trkpt><trkpt lat="55.9100536" lon="49.2436083"><time>2023-06-03T06:11:05.857</time></trkpt><trkpt lat="55.9100655" lon="49.2435261"><time>2023-06-03T06:11:06.847</time></trkpt><trkpt lat="55.9100998" lon="49.2433862"><time>2023-06-03T06:11:08.860</time></trkpt><trkpt lat="55.9101294" lon="49.2432937"><time>2023-06-03T06:11:09.857</time></trkpt><trkpt lat="55.9101606" lon="49.2432198"><time>2023-06-03T06:11:10.853</time></trkpt><trkpt lat="55.9101954" lon="49.2431471"><time>2023-06-03T06:11:11.857</time></trkpt><trkpt lat="55.9102149" lon="49.2430749"><time>2023-06-03T06:11:12.863</time></trkpt><trkpt lat="55.9102460" lon="49.2430086"><time>2023-06-03T06:11:13.860</time></trkpt><trkpt lat="55.9103041" lon="49.2428860"><time>2023-06-03T06:11:15.857</time></trkpt><trkpt lat="55.9103886" lon="49.2428013"><time>2023-06-03T06:11:17.863</time></trkpt><trkpt lat="55.9104323" lon="49.2427687"><time>2023-06-03T06:11:18.853</time></trkpt><trkpt lat="55.9105054" lon="49.2427395"><time>2023-06-03T06:11:20.853</time></trkpt><trkpt lat="55.9105562" lon="49.2427481"><time>2023-06-03T06:11:21.867</time></trkpt><trkpt lat="55.9106507" lon="49.2427246"><time>2023-06-03T06:11:23.857</time></trkpt><trkpt lat="55.9107214" lon="49.2426600"><time>2023-06-03T06:11:25.857</time></trkpt><trkpt lat="55.9107680" lon="49.2425710"><time>2023-06-03T06:11:27.853</time></trkpt><trkpt lat="55.9108076" lon="49.2424979"><time>2023-06-03T06:11:29.877</time></trkpt><trkpt lat="55.9108520" lon="49.2424442"><time>2023-06-03T06:11:31.857</time></trkpt><trkpt lat="55.9109064" lon="49.2424088"><time>2023-06-03T06:11:33.847</time></trkpt><trkpt lat="55.9109758" lon="49.2423859"><time>2023-06-03T06:11:35.863</time></trkpt><trkpt lat="55.9110466" lon="49.2423634"><time>2023-06-03T06:11:37.857</time></trkpt><trkpt lat="55.9111276" lon="49.2423557"><time>2023-06-03T06:11:39.857</time></trkpt><trkpt lat="55.9111892" lon="49.2423697"><time>2023-06-03T06:11:41.893</time></trkpt><trkpt lat="55.9112446" lon="49.2424158"><time>2023-06-03T06:11:44.850</time></trkpt><trkpt lat="55.9112961" lon="49.2424252"><time>2023-06-03T06:11:47.877</time></trkpt><trkpt lat="55.9112467" lon="49.2424153"><time>2023-06-03T06:12:03.860</time></trkpt><trkpt lat="55.9111997" lon="49.2423920"><time>2023-06-03T06:12:04.857</time></trkpt><trkpt lat="55.9111479" lon="49.2423731"><time>2023-06-03T06:12:05.883</time></trkpt><trkpt lat="55.9111000" lon="49.2423558"><time>2023-06-03T06:12:06.850</time></trkpt><trkpt lat="55.9110234" lon="49.2423404"><time>2023-06-03T06:12:08.847</time></trkpt><trkpt lat="55.9109605" lon="49.2423474"><time>2023-06-03T06:12:10.850</time></trkpt><trkpt lat="55.9109064" lon="49.2423269"><time>2023-06-03T06:12:12.860</time></trkpt><trkpt lat="55.9108502" lon="49.2422460"><time>2023-06-03T06:12:14.863</time></trkpt><trkpt lat="55.9108270" lon="49.2421238"><time>2023-06-03T06:12:16.857</time></trkpt><trkpt lat="55.9108244" lon="49.2420025"><time>2023-06-03T06:12:18.860</time></trkpt><trkpt lat="55.9108355" lon="49.2418747"><time>2023-06-03T06:12:20.847</time></trkpt><trkpt lat="55.9108485" lon="49.2417566"><time>2023-06-03T06:12:22.857</time></trkpt><trkpt lat="55.9108587" lon="49.2415990"><time>2023-06-03T06:12:24.857</time></trkpt><trkpt lat="55.9108689" lon="49.2414521"><time>2023-06-03T06:12:26.860</time></trkpt><trkpt lat="55.9108925" lon="49.2413030"><time>2023-06-03T06:12:28.850</time></trkpt><trkpt lat="55.9109164" lon="49.2412270"><time>2023-06-03T06:12:29.890</time></trkpt><trkpt lat="55.9109713" lon="49.2411174"><time>2023-06-03T06:12:30.857</time></trkpt><trkpt lat="55.9109984" lon="49.2410151"><time>2023-06-03T06:12:31.857</time></trkpt><trkpt lat="55.9110163" lon="49.2408734"><time>2023-06-03T06:12:33.863</time></trkpt><trkpt lat="55.9110549" lon="49.2407993"><time>2023-06-03T06:12:34.853</time></trkpt><trkpt lat="55.9110779" lon="49.2407205"><time>2023-06-03T06:12:35.870</time></trkpt><trkpt lat="55.9111066" lon="49.2406499"><time>2023-06-03T06:12:36.860</time></trkpt><trkpt lat="55.9111239" lon="49.2405756"><time>2023-06-03T06:12:37.843</time></trkpt><trkpt lat="55.9111591" lon="49.2404376"><time>2023-06-03T06:12:39.847</time></trkpt><trkpt lat="55.9111357" lon="49.2403409"><time>2023-06-03T06:12:41.883</time></trkpt><trkpt lat="55.9111560" lon="49.2402669"><time>2023-06-03T06:12:42.860</time></trkpt><trkpt lat="55.9111861" lon="49.2401256"><time>2023-06-03T06:12:44.857</time></trkpt><trkpt lat="55.9112264" lon="49.2399852"><time>2023-06-03T06:12:46.850</time></trkpt><trkpt lat="55.9112553" lon="49.2398641"><time>2023-06-03T06:12:47.867</time></trkpt><trkpt lat="55.9112431" lon="49.2397867"><time>2023-06-03T06:12:48.850</time></trkpt><trkpt lat="55.9112617" lon="49.2396890"><time>2023-06-03T06:12:49.857</time></trkpt><trkpt lat="55.9112706" lon="49.2396101"><time>2023-06-03T06:12:50.847</time></trkpt><trkpt lat="55.9112719" lon="49.2395061"><time>2023-06-03T06:12:51.850</time></trkpt><trkpt lat="55.9112936" lon="49.2394337"><time>2023-06-03T06:12:52.850</time></trkpt><trkpt lat="55.9113320" lon="49.2393460"><time>2023-06-03T06:12:53.887</time></trkpt><trkpt lat="55.9113749" lon="49.2392444"><time>2023-06-03T06:12:54.847</time></trkpt><trkpt lat="55.9114115" lon="49.2391660"><time>2023-06-03T06:12:55.860</time></trkpt><trkpt lat="55.9114372" lon="49.2390798"><time>2023-06-03T06:12:56.853</time></trkpt><trkpt lat="55.9114673" lon="49.2389835"><time>2023-06-03T06:12:57.863</time></trkpt><trkpt lat="55.9115002" lon="49.2388842"><time>2023-06-03T06:12:58.850</time></trkpt><trkpt lat="55.9115235" lon="49.2387931"><time>2023-06-03T06:12:59.877</time></trkpt><trkpt lat="55.9115591" lon="49.2386475"><time>2023-06-03T06:13:01.860</time></trkpt><trkpt lat="55.9115806" lon="49.2385583"><time>2023-06-03T06:13:02.850</time></trkpt><trkpt lat="55.9116029" lon="49.2384210"><time>2023-06-03T06:13:04.850</time></trkpt><trkpt lat="55.9116352" lon="49.2382643"><time>2023-06-03T06:13:06.853</time></trkpt><trkpt lat="55.9116603" lon="49.2381669"><time>2023-06-03T06:13:07.860</time></trkpt><trkpt lat="55.9116896" lon="49.2380977"><time>2023-06-03T06:13:08.853</time></trkpt><trkpt lat="55.9117625" lon="49.2379728"><time>2023-06-03T06:13:10.850</time></trkpt><trkpt lat="55.9118172" lon="49.2378819"><time>2023-06-03T06:13:12.857</time></trkpt><trkpt lat="55.9118627" lon="49.2378346"><time>2023-06-03T06:13:13.853</time></trkpt><trkpt lat="55.9119189" lon="49.2378244"><time>2023-06-03T06:13:14.853</time></trkpt><trkpt lat="55.9119752" lon="49.2377844"><time>2023-06-03T06:13:15.867</time></trkpt><trkpt lat="55.9120220" lon="49.2377648"><time>2023-06-03T06:13:16.873</time></trkpt><trkpt lat="55.9120655" lon="49.2377237"><time>2023-06-03T06:13:17.850</time></trkpt><trkpt lat="55.9121115" lon="49.2376530"><time>2023-06-03T06:13:18.857</time></trkpt><trkpt lat="55.9121456" lon="49.2375665"><time>2023-06-03T06:13:19.857</time></trkpt><trkpt lat="55.9121955" lon="49.2375105"><time>2023-06-03T06:13:20.847</time></trkpt><trkpt lat="55.9122413" lon="49.2374812"><time>2023-06-03T06:13:21.857</time></trkpt><trkpt lat="55.9122863" lon="49.2374358"><time>2023-06-03T06:13:22.867</time></trkpt><trkpt lat="55.9123273" lon="49.2373840"><time>2023-06-03T06:13:23.850</time></trkpt><trkpt lat="55.9123705" lon="49.2373370"><time>2023-06-03T06:13:24.853</time></trkpt><trkpt lat="55.9124233" lon="49.2372878"><time>2023-06-03T06:13:25.857</time></trkpt><trkpt lat="55.9124877" lon="49.2371991"><time>2023-06-03T06:13:27.863</time></trkpt><trkpt lat="55.9125331" lon="49.2371532"><time>2023-06-03T06:13:28.887</time></trkpt><trkpt lat="55.9125713" lon="49.2370911"><time>2023-06-03T06:13:29.853</time></trkpt><trkpt lat="55.9126512" lon="49.2370106"><time>2023-06-03T06:13:31.870</time></trkpt><trkpt lat="55.9127344" lon="49.2369581"><time>2023-06-03T06:13:33.853</time></trkpt><trkpt lat="55.9127842" lon="49.2369584"><time>2023-06-03T06:13:35.863</time></trkpt><trkpt lat="55.9128464" lon="49.2369694"><time>2023-06-03T06:13:37.857</time></trkpt><trkpt lat="55.9129069" lon="49.2369835"><time>2023-06-03T06:13:38.870</time></trkpt><trkpt lat="55.9129407" lon="49.2369763"><time>2023-06-03T06:13:39.853</time></trkpt><trkpt lat="55.9130175" lon="49.2369573"><time>2023-06-03T06:13:41.850</time></trkpt><trkpt lat="55.9130962" lon="49.2369091"><time>2023-06-03T06:13:43.850</time></trkpt><trkpt lat="55.9131387" lon="49.2368749"><time>2023-06-03T06:13:44.857</time></trkpt><trkpt lat="55.9132069" lon="49.2367924"><time>2023-06-03T06:13:46.877</time></trkpt><trkpt lat="55.9132585" lon="49.2367364"><time>2023-06-03T06:13:48.850</time></trkpt><trkpt lat="55.9133209" lon="49.2366898"><time>2023-06-03T06:13:50.847</time></trkpt><trkpt lat="55.9134062" lon="49.2366413"><time>2023-06-03T06:13:52.887</time></trkpt><trkpt lat="55.9134658" lon="49.2366287"><time>2023-06-03T06:13:53.860</time></trkpt><trkpt lat="55.9135330" lon="49.2366291"><time>2023-06-03T06:13:54.847</time></trkpt><trkpt lat="55.9135962" lon="49.2366508"><time>2023-06-03T06:13:55.860</time></trkpt><trkpt lat="55.9136839" lon="49.2366709"><time>2023-06-03T06:13:57.857</time></trkpt><trkpt lat="55.9137325" lon="49.2366657"><time>2023-06-03T06:13:58.867</time></trkpt><trkpt lat="55.9138149" lon="49.2366778"><time>2023-06-03T06:14:00.857</time></trkpt><trkpt lat="55.9138987" lon="49.2366896"><time>2023-06-03T06:14:02.850</time></trkpt><trkpt lat="55.9139914" lon="49.2367411"><time>2023-06-03T06:14:04.877</time></trkpt><trkpt lat="55.9140652" lon="49.2367976"><time>2023-06-03T06:14:06.873</time></trkpt><trkpt lat="55.9140796" lon="49.2368252"><time>2023-06-03T06:14:07.857</time></trkpt><trkpt lat="55.9140986" lon="49.2369013"><time>2023-06-03T06:14:17.863</time></trkpt><trkpt lat="55.9141595" lon="49.2369409"><time>2023-06-03T06:14:27.860</time></trkpt><trkpt lat="55.9142177" lon="49.2369725"><time>2023-06-03T06:14:29.863</time></trkpt><trkpt lat="55.9142681" lon="49.2369947"><time>2023-06-03T06:14:31.867</time></trkpt><trkpt lat="55.9143288" lon="49.2370081"><time>2023-06-03T06:14:33.857</time></trkpt><trkpt lat="55.9144141" lon="49.2369852"><time>2023-06-03T06:14:35.857</time></trkpt><trkpt lat="55.9145009" lon="49.2369344"><time>2023-06-03T06:14:36.847</time></trkpt><trkpt lat="55.9145676" lon="49.2368999"><time>2023-06-03T06:14:37.857</time></trkpt><trkpt lat="55.9146227" lon="49.2369190"><time>2023-06-03T06:14:39.853</time></trkpt><trkpt lat="55.9146798" lon="49.2370283"><time>2023-06-03T06:14:41.863</time></trkpt><trkpt lat="55.9147090" lon="49.2370912"><time>2023-06-03T06:14:42.870</time></trkpt><trkpt lat="55.9147465" lon="49.2371664"><time>2023-06-03T06:14:44.863</time></trkpt><trkpt lat="55.9147738" lon="49.2372548"><time>2023-06-03T06:14:46.877</time></trkpt><trkpt lat="55.9147966" lon="49.2373409"><time>2023-06-03T06:14:49.863</time></trkpt><trkpt lat="55.9148072" lon="49.2373690"><time>2023-06-03T06:14:50.860</time></trkpt><trkpt lat="55.9148343" lon="49.2374350"><time>2023-06-03T06:14:52.927</time></trkpt><trkpt lat="55.9148361" lon="49.2375375"><time>2023-06-03T06:14:55.857</time></trkpt><trkpt lat="55.9147978" lon="49.2375926"><time>2023-06-03T06:15:00.860</time></trkpt><trkpt lat="55.9147547" lon="49.2375663"><time>2023-06-03T06:15:16.880</time></trkpt><trkpt lat="55.9147390" lon="49.2374836"><time>2023-06-03T06:15:34.863</time></trkpt><trkpt lat="55.9146911" lon="49.2374340"><time>2023-06-03T06:15:38.853</time></trkpt><trkpt lat="55.9146362" lon="49.2373893"><time>2023-06-03T06:15:53.867</time></trkpt><trkpt lat="55.9145824" lon="49.2373810"><time>2023-06-03T06:15:56.857</time></trkpt><trkpt lat="55.9145422" lon="49.2373104"><time>2023-06-03T06:15:59.863</time></trkpt><trkpt lat="55.9145052" lon="49.2372614"><time>2023-06-03T06:16:03.903</time></trkpt><trkpt lat="55.9144570" lon="49.2372260"><time>2023-06-03T06:16:08.873</time></trkpt><trkpt lat="55.9144518" lon="49.2372125"><time>2023-06-03T06:16:09.870</time></trkpt><trkpt lat="55.9145017" lon="49.2372405"><time>2023-06-03T06:16:19.887</time></trkpt><trkpt lat="55.9145143" lon="49.2372542"><time>2023-06-03T06:16:20.860</time></trkpt><trkpt lat="55.9145511" lon="49.2373110"><time>2023-06-03T06:16:23.857</time></trkpt><trkpt lat="55.9145842" lon="49.2373833"><time>2023-06-03T06:16:26.857</time></trkpt><trkpt lat="55.9146039" lon="49.2374757"><time>2023-06-03T06:16:31.857</time></trkpt><trkpt lat="55.9146563" lon="49.2374979"><time>2023-06-03T06:16:36.850</time></trkpt><trkpt lat="55.9146952" lon="49.2375492"><time>2023-06-03T06:16:40.853</time></trkpt><trkpt lat="55.9146704" lon="49.2376298"><time>2023-06-03T06:16:47.857</time></trkpt><trkpt lat="55.9147189" lon="49.2375723"><time>2023-06-03T06:17:24.860</time></trkpt><trkpt lat="55.9147630" lon="49.2375369"><time>2023-06-03T06:17:30.877</time></trkpt><trkpt lat="55.9148188" lon="49.2375693"><time>2023-06-03T06:17:46.857</time></trkpt><trkpt lat="55.9148700" lon="49.2376208"><time>2023-06-03T06:17:48.853</time></trkpt><trkpt lat="55.9148850" lon="49.2377140"><time>2023-06-03T06:17:50.860</time></trkpt><trkpt lat="55.9148698" lon="49.2378384"><time>2023-06-03T06:17:52.853</time></trkpt><trkpt lat="55.9148534" lon="49.2379292"><time>2023-06-03T06:17:54.857</time></trkpt><trkpt lat="55.9148439" lon="49.2380102"><time>2023-06-03T06:17:59.867</time></trkpt><trkpt lat="55.9148248" lon="49.2379205"><time>2023-06-03T06:18:09.853</time></trkpt><trkpt lat="55.9147736" lon="49.2379471"><time>2023-06-03T06:18:16.857</time></trkpt><trkpt lat="55.9147409" lon="49.2380039"><time>2023-06-03T06:18:20.863</time></trkpt><trkpt lat="55.9147409" lon="49.2380039"><time>2023-06-03T06:18:20.923</time></trkpt><trkpt lat="55.9146986" lon="49.2380308"><time>2023-06-03T06:18:25.867</time></trkpt><trkpt lat="55.9146963" lon="49.2380376"><time>2023-06-03T06:18:26.850</time></trkpt><trkpt lat="55.9147484" lon="49.2380375"><time>2023-06-03T06:18:43.857</time></trkpt><trkpt lat="55.9148035" lon="49.2379883"><time>2023-06-03T06:18:46.863</time></trkpt><trkpt lat="55.9148423" lon="49.2379323"><time>2023-06-03T06:18:49.857</time></trkpt><trkpt lat="55.9148435" lon="49.2380453"><time>2023-06-03T06:19:17.860</time></trkpt><trkpt lat="55.9148304" lon="49.2382020"><time>2023-06-03T06:19:19.860</time></trkpt><trkpt lat="55.9148199" lon="49.2383558"><time>2023-06-03T06:19:21.857</time></trkpt><trkpt lat="55.9148159" lon="49.2384403"><time>2023-06-03T06:19:22.863</time></trkpt><trkpt lat="55.9148116" lon="49.2385214"><time>2023-06-03T06:19:23.863</time></trkpt><trkpt lat="55.9148047" lon="49.2386640"><time>2023-06-03T06:19:25.863</time></trkpt><trkpt lat="55.9147937" lon="49.2387772"><time>2023-06-03T06:19:27.853</time></trkpt><trkpt lat="55.9147814" lon="49.2388688"><time>2023-06-03T06:19:29.857</time></trkpt><trkpt lat="55.9147680" lon="49.2389513"><time>2023-06-03T06:19:31.850</time></trkpt><trkpt lat="55.9147430" lon="49.2390207"><time>2023-06-03T06:19:37.860</time></trkpt><trkpt lat="55.9146953" lon="49.2390653"><time>2023-06-03T06:19:44.847</time></trkpt><trkpt lat="55.9146503" lon="49.2391297"><time>2023-06-03T06:19:46.867</time></trkpt><trkpt lat="55.9146017" lon="49.2392048"><time>2023-06-03T06:19:48.847</time></trkpt><trkpt lat="55.9145398" lon="49.2392589"><time>2023-06-03T06:19:50.850</time></trkpt><trkpt lat="55.9144852" lon="49.2393064"><time>2023-06-03T06:19:52.883</time></trkpt><trkpt lat="55.9144526" lon="49.2393821"><time>2023-06-03T06:19:54.847</time></trkpt><trkpt lat="55.9144365" lon="49.2394646"><time>2023-06-03T06:19:56.853</time></trkpt><trkpt lat="55.9143805" lon="49.2394600"><time>2023-06-03T06:20:13.857</time></trkpt><trkpt lat="55.9143178" lon="49.2395252"><time>2023-06-03T06:20:15.863</time></trkpt><trkpt lat="55.9142547" lon="49.2395775"><time>2023-06-03T06:20:17.853</time></trkpt><trkpt lat="55.9141983" lon="49.2396222"><time>2023-06-03T06:20:19.850</time></trkpt><trkpt lat="55.9141536" lon="49.2396615"><time>2023-06-03T06:20:21.893</time></trkpt><trkpt lat="55.9140951" lon="49.2396956"><time>2023-06-03T06:20:24.863</time></trkpt><trkpt lat="55.9140486" lon="49.2397272"><time>2023-06-03T06:20:26.847</time></trkpt><trkpt lat="55.9139940" lon="49.2397666"><time>2023-06-03T06:20:28.860</time></trkpt><trkpt lat="55.9139326" lon="49.2398100"><time>2023-06-03T06:20:30.850</time></trkpt><trkpt lat="55.9138660" lon="49.2398544"><time>2023-06-03T06:20:32.853</time></trkpt><trkpt lat="55.9138099" lon="49.2399044"><time>2023-06-03T06:20:34.850</time></trkpt><trkpt lat="55.9137609" lon="49.2399449"><time>2023-06-03T06:20:36.857</time></trkpt><trkpt lat="55.9137161" lon="49.2399883"><time>2023-06-03T06:20:38.857</time></trkpt><trkpt lat="55.9136620" lon="49.2400367"><time>2023-06-03T06:20:40.847</time></trkpt><trkpt lat="55.9136018" lon="49.2400832"><time>2023-06-03T06:20:42.860</time></trkpt><trkpt lat="55.9135403" lon="49.2401356"><time>2023-06-03T06:20:44.850</time></trkpt><trkpt lat="55.9134836" lon="49.2401939"><time>2023-06-03T06:20:46.857</time></trkpt><trkpt lat="55.9134348" lon="49.2402615"><time>2023-06-03T06:20:48.853</time></trkpt><trkpt lat="55.9133870" lon="49.2403307"><time>2023-06-03T06:20:50.863</time></trkpt><trkpt lat="55.9133336" lon="49.2403904"><time>2023-06-03T06:20:52.857</time></trkpt><trkpt lat="55.9132761" lon="49.2404290"><time>2023-06-03T06:20:54.853</time></trkpt><trkpt lat="55.9132103" lon="49.2404664"><time>2023-06-03T06:20:56.850</time></trkpt><trkpt lat="55.9131562" lon="49.2405387"><time>2023-06-03T06:20:58.853</time></trkpt><trkpt lat="55.9131239" lon="49.2406348"><time>2023-06-03T06:21:00.850</time></trkpt><trkpt lat="55.9131700" lon="49.2407200"><time>2023-06-03T06:21:03.837</time></trkpt><trkpt lat="55.9132422" lon="49.2407788"><time>2023-06-03T06:21:05.867</time></trkpt><trkpt lat="55.9133078" lon="49.2408698"><time>2023-06-03T06:21:07.863</time></trkpt><trkpt lat="55.9133608" lon="49.2409545"><time>2023-06-03T06:21:09.850</time></trkpt><trkpt lat="55.9133928" lon="49.2410108"><time>2023-06-03T06:21:10.860</time></trkpt><trkpt lat="55.9134253" lon="49.2410689"><time>2023-06-03T06:21:11.857</time></trkpt><trkpt lat="55.9134579" lon="49.2411275"><time>2023-06-03T06:21:12.850</time></trkpt><trkpt lat="55.9134928" lon="49.2411808"><time>2023-06-03T06:21:13.907</time></trkpt><trkpt lat="55.9135716" lon="49.2412529"><time>2023-06-03T06:21:15.857</time></trkpt><trkpt lat="55.9136325" lon="49.2413374"><time>2023-06-03T06:21:17.860</time></trkpt><trkpt lat="55.9136958" lon="49.2413834"><time>2023-06-03T06:21:19.860</time></trkpt><trkpt lat="55.9137495" lon="49.2414439"><time>2023-06-03T06:21:21.860</time></trkpt><trkpt lat="55.9138060" lon="49.2415247"><time>2023-06-03T06:21:23.860</time></trkpt><trkpt lat="55.9138592" lon="49.2416363"><time>2023-06-03T06:21:25.857</time></trkpt><trkpt lat="55.9139230" lon="49.2417297"><time>2023-06-03T06:21:27.863</time></trkpt><trkpt lat="55.9139870" lon="49.2418230"><time>2023-06-03T06:21:29.857</time></trkpt><trkpt lat="55.9140560" lon="49.2419220"><time>2023-06-03T06:21:31.873</time></trkpt><trkpt lat="55.9140926" lon="49.2419697"><time>2023-06-03T06:21:32.857</time></trkpt><trkpt lat="55.9141288" lon="49.2420192"><time>2023-06-03T06:21:33.853</time></trkpt><trkpt lat="55.9141886" lon="49.2421102"><time>2023-06-03T06:21:35.860</time></trkpt><trkpt lat="55.9142491" lon="49.2422117"><time>2023-06-03T06:21:37.853</time></trkpt><trkpt lat="55.9142832" lon="49.2422656"><time>2023-06-03T06:21:38.857</time></trkpt><trkpt lat="55.9143170" lon="49.2423214"><time>2023-06-03T06:21:39.853</time></trkpt><trkpt lat="55.9143516" lon="49.2423732"><time>2023-06-03T06:21:40.860</time></trkpt><trkpt lat="55.9144144" lon="49.2424513"><time>2023-06-03T06:21:42.870</time></trkpt><trkpt lat="55.9144671" lon="49.2425260"><time>2023-06-03T06:21:44.857</time></trkpt><trkpt lat="55.9145161" lon="49.2426258"><time>2023-06-03T06:21:46.863</time></trkpt><trkpt lat="55.9145691" lon="49.2427299"><time>2023-06-03T06:21:48.890</time></trkpt><trkpt lat="55.9146254" lon="49.2428163"><time>2023-06-03T06:21:50.850</time></trkpt><trkpt lat="55.9146767" lon="49.2429027"><time>2023-06-03T06:21:52.857</time></trkpt><trkpt lat="55.9147384" lon="49.2430044"><time>2023-06-03T06:21:54.863</time></trkpt><trkpt lat="55.9148083" lon="49.2431122"><time>2023-06-03T06:21:56.867</time></trkpt><trkpt lat="55.9148451" lon="49.2431790"><time>2023-06-03T06:21:57.857</time></trkpt><trkpt lat="55.9149054" lon="49.2432933"><time>2023-06-03T06:21:58.847</time></trkpt><trkpt lat="55.9149555" lon="49.2433687"><time>2023-06-03T06:22:00.897</time></trkpt><trkpt lat="55.9150175" lon="49.2434771"><time>2023-06-03T06:22:02.850</time></trkpt><trkpt lat="55.9150524" lon="49.2435318"><time>2023-06-03T06:22:03.857</time></trkpt><trkpt lat="55.9150914" lon="49.2435847"><time>2023-06-03T06:22:04.847</time></trkpt><trkpt lat="55.9151422" lon="49.2436997"><time>2023-06-03T06:22:06.873</time></trkpt><trkpt lat="55.9151841" lon="49.2437712"><time>2023-06-03T06:22:07.850</time></trkpt><trkpt lat="55.9152595" lon="49.2438604"><time>2023-06-03T06:22:09.870</time></trkpt><trkpt lat="55.9153021" lon="49.2439242"><time>2023-06-03T06:22:10.853</time></trkpt><trkpt lat="55.9153376" lon="49.2439824"><time>2023-06-03T06:22:11.863</time></trkpt><trkpt lat="55.9153775" lon="49.2440331"><time>2023-06-03T06:22:12.893</time></trkpt><trkpt lat="55.9154202" lon="49.2440736"><time>2023-06-03T06:22:13.863</time></trkpt><trkpt lat="55.9154624" lon="49.2441246"><time>2023-06-03T06:22:14.853</time></trkpt><trkpt lat="55.9154980" lon="49.2441755"><time>2023-06-03T06:22:15.860</time></trkpt><trkpt lat="55.9155644" lon="49.2442706"><time>2023-06-03T06:22:17.850</time></trkpt><trkpt lat="55.9156161" lon="49.2443484"><time>2023-06-03T06:22:19.847</time></trkpt><trkpt lat="55.9156614" lon="49.2444238"><time>2023-06-03T06:22:21.870</time></trkpt><trkpt lat="55.9156939" lon="49.2444972"><time>2023-06-03T06:22:23.853</time></trkpt><trkpt lat="55.9157508" lon="49.2445730"><time>2023-06-03T06:22:25.853</time></trkpt><trkpt lat="55.9157972" lon="49.2446367"><time>2023-06-03T06:22:27.857</time></trkpt><trkpt lat="55.9158431" lon="49.2446589"><time>2023-06-03T06:22:39.850</time></trkpt><trkpt lat="55.9159027" lon="49.2446714"><time>2023-06-03T06:22:42.863</time></trkpt><trkpt lat="55.9159612" lon="49.2446147"><time>2023-06-03T06:22:44.850</time></trkpt><trkpt lat="55.9160279" lon="49.2445523"><time>2023-06-03T06:22:46.853</time></trkpt><trkpt lat="55.9160983" lon="49.2445303"><time>2023-06-03T06:22:48.887</time></trkpt><trkpt lat="55.9161701" lon="49.2445220"><time>2023-06-03T06:22:50.857</time></trkpt><trkpt lat="55.9162407" lon="49.2445058"><time>2023-06-03T06:22:52.847</time></trkpt><trkpt lat="55.9163095" lon="49.2444876"><time>2023-06-03T06:22:54.873</time></trkpt><trkpt lat="55.9163746" lon="49.2444560"><time>2023-06-03T06:22:56.857</time></trkpt><trkpt lat="55.9164355" lon="49.2443981"><time>2023-06-03T06:22:58.860</time></trkpt><trkpt lat="55.9164973" lon="49.2443315"><time>2023-06-03T06:23:00.880</time></trkpt><trkpt lat="55.9165489" lon="49.2442644"><time>2023-06-03T06:23:02.850</time></trkpt><trkpt lat="55.9166029" lon="49.2442165"><time>2023-06-03T06:23:04.847</time></trkpt><trkpt lat="55.9166487" lon="49.2441822"><time>2023-06-03T06:23:06.870</time></trkpt><trkpt lat="55.9166876" lon="49.2441303"><time>2023-06-03T06:23:08.840</time></trkpt><trkpt lat="55.9167227" lon="49.2440741"><time>2023-06-03T06:23:10.847</time></trkpt><trkpt lat="55.9167611" lon="49.2440158"><time>2023-06-03T06:23:12.880</time></trkpt><trkpt lat="55.9168001" lon="49.2439519"><time>2023-06-03T06:23:14.847</time></trkpt><trkpt lat="55.9168397" lon="49.2438803"><time>2023-06-03T06:23:16.850</time></trkpt><trkpt lat="55.9168803" lon="49.2438030"><time>2023-06-03T06:23:19.847</time></trkpt><trkpt lat="55.9169192" lon="49.2437536"><time>2023-06-03T06:23:22.857</time></trkpt><trkpt lat="55.9169576" lon="49.2437010"><time>2023-06-03T06:23:25.850</time></trkpt><trkpt lat="55.9170003" lon="49.2436333"><time>2023-06-03T06:23:28.860</time></trkpt><trkpt lat="55.9170502" lon="49.2435549"><time>2023-06-03T06:23:31.850</time></trkpt><trkpt lat="55.9170872" lon="49.2435021"><time>2023-06-03T06:23:33.860</time></trkpt><trkpt lat="55.9171195" lon="49.2434320"><time>2023-06-03T06:23:35.853</time></trkpt><trkpt lat="55.9171450" lon="49.2433513"><time>2023-06-03T06:23:37.857</time></trkpt><trkpt lat="55.9171675" lon="49.2432604"><time>2023-06-03T06:23:39.853</time></trkpt><trkpt lat="55.9171907" lon="49.2431681"><time>2023-06-03T06:23:41.857</time></trkpt><trkpt lat="55.9172160" lon="49.2430784"><time>2023-06-03T06:23:43.853</time></trkpt><trkpt lat="55.9172440" lon="49.2429916"><time>2023-06-03T06:23:45.867</time></trkpt><trkpt lat="55.9172700" lon="49.2428988"><time>2023-06-03T06:23:47.860</time></trkpt><trkpt lat="55.9172901" lon="49.2428112"><time>2023-06-03T06:23:49.873</time></trkpt><trkpt lat="55.9173123" lon="49.2427055"><time>2023-06-03T06:23:52.860</time></trkpt><trkpt lat="55.9173241" lon="49.2426232"><time>2023-06-03T06:24:02.850</time></trkpt><trkpt lat="55.9173057" lon="49.2425155"><time>2023-06-03T06:25:50.883</time></trkpt><trkpt lat="55.9172793" lon="49.2424404"><time>2023-06-03T06:25:52.847</time></trkpt><trkpt lat="55.9172626" lon="49.2423297"><time>2023-06-03T06:25:54.863</time></trkpt><trkpt lat="55.9172623" lon="49.2422193"><time>2023-06-03T06:25:56.867</time></trkpt><trkpt lat="55.9172757" lon="49.2421092"><time>2023-06-03T06:25:58.850</time></trkpt><trkpt lat="55.9173032" lon="49.2419919"><time>2023-06-03T06:26:00.857</time></trkpt><trkpt lat="55.9173379" lon="49.2418773"><time>2023-06-03T06:26:02.877</time></trkpt><trkpt lat="55.9173727" lon="49.2417591"><time>2023-06-03T06:26:04.850</time></trkpt><trkpt lat="55.9174048" lon="49.2416539"><time>2023-06-03T06:26:06.850</time></trkpt><trkpt lat="55.9174388" lon="49.2415433"><time>2023-06-03T06:26:08.863</time></trkpt><trkpt lat="55.9174726" lon="49.2414183"><time>2023-06-03T06:26:10.857</time></trkpt><trkpt lat="55.9175019" lon="49.2413028"><time>2023-06-03T06:26:12.853</time></trkpt><trkpt lat="55.9175320" lon="49.2411855"><time>2023-06-03T06:26:14.877</time></trkpt><trkpt lat="55.9175621" lon="49.2410767"><time>2023-06-03T06:26:16.847</time></trkpt><trkpt lat="55.9175892" lon="49.2409579"><time>2023-06-03T06:26:18.853</time></trkpt><trkpt lat="55.9176174" lon="49.2408306"><time>2023-06-03T06:26:20.863</time></trkpt><trkpt lat="55.9176473" lon="49.2406982"><time>2023-06-03T06:26:22.867</time></trkpt><trkpt lat="55.9176697" lon="49.2405639"><time>2023-06-03T06:26:24.853</time></trkpt><trkpt lat="55.9176817" lon="49.2404385"><time>2023-06-03T06:26:26.883</time></trkpt><trkpt lat="55.9177045" lon="49.2403122"><time>2023-06-03T06:26:28.850</time></trkpt><trkpt lat="55.9177321" lon="49.2401867"><time>2023-06-03T06:26:30.857</time></trkpt><trkpt lat="55.9177542" lon="49.2400623"><time>2023-06-03T06:26:32.867</time></trkpt><trkpt lat="55.9177787" lon="49.2399361"><time>2023-06-03T06:26:34.847</time></trkpt><trkpt lat="55.9178083" lon="49.2398242"><time>2023-06-03T06:26:36.837</time></trkpt><trkpt lat="55.9178349" lon="49.2397168"><time>2023-06-03T06:26:38.883</time></trkpt><trkpt lat="55.9178588" lon="49.2396007"><time>2023-06-03T06:26:40.853</time></trkpt><trkpt lat="55.9178861" lon="49.2394817"><time>2023-06-03T06:26:42.860</time></trkpt><trkpt lat="55.9179057" lon="49.2393685"><time>2023-06-03T06:26:44.873</time></trkpt><trkpt lat="55.9179349" lon="49.2392552"><time>2023-06-03T06:26:46.847</time></trkpt><trkpt lat="55.9179625" lon="49.2391311"><time>2023-06-03T06:26:48.850</time></trkpt><trkpt lat="55.9179720" lon="49.2390125"><time>2023-06-03T06:26:50.877</time></trkpt><trkpt lat="55.9179792" lon="49.2388928"><time>2023-06-03T06:26:52.850</time></trkpt><trkpt lat="55.9179815" lon="49.2387858"><time>2023-06-03T06:26:54.850</time></trkpt><trkpt lat="55.9179885" lon="49.2386611"><time>2023-06-03T06:26:56.863</time></trkpt><trkpt lat="55.9180046" lon="49.2385260"><time>2023-06-03T06:26:58.843</time></trkpt><trkpt lat="55.9180386" lon="49.2383903"><time>2023-06-03T06:27:00.857</time></trkpt><trkpt lat="55.9180627" lon="49.2383213"><time>2023-06-03T06:27:01.867</time></trkpt><trkpt lat="55.9180984" lon="49.2382002"><time>2023-06-03T06:27:03.853</time></trkpt><trkpt lat="55.9181190" lon="49.2381097"><time>2023-06-03T06:27:06.853</time></trkpt><trkpt lat="55.9181483" lon="49.2380166"><time>2023-06-03T06:27:10.853</time></trkpt><trkpt lat="55.9181822" lon="49.2379576"><time>2023-06-03T06:27:15.857</time></trkpt><trkpt lat="55.9181449" lon="49.2380417"><time>2023-06-03T06:29:11.853</time></trkpt><trkpt lat="55.9181103" lon="49.2381360"><time>2023-06-03T06:29:13.847</time></trkpt><trkpt lat="55.9180668" lon="49.2382658"><time>2023-06-03T06:29:15.863</time></trkpt><trkpt lat="55.9180273" lon="49.2383969"><time>2023-06-03T06:29:17.853</time></trkpt><trkpt lat="55.9180048" lon="49.2385162"><time>2023-06-03T06:29:19.857</time></trkpt><trkpt lat="55.9179987" lon="49.2386556"><time>2023-06-03T06:29:21.883</time></trkpt><trkpt lat="55.9179961" lon="49.2387802"><time>2023-06-03T06:29:23.857</time></trkpt><trkpt lat="55.9179828" lon="49.2389176"><time>2023-06-03T06:29:25.847</time></trkpt><trkpt lat="55.9179589" lon="49.2390607"><time>2023-06-03T06:29:27.877</time></trkpt><trkpt lat="55.9179284" lon="49.2391983"><time>2023-06-03T06:29:29.843</time></trkpt><trkpt lat="55.9178991" lon="49.2393356"><time>2023-06-03T06:29:31.857</time></trkpt><trkpt lat="55.9178742" lon="49.2394643"><time>2023-06-03T06:29:33.853</time></trkpt><trkpt lat="55.9178489" lon="49.2395797"><time>2023-06-03T06:29:35.857</time></trkpt><trkpt lat="55.9178156" lon="49.2396874"><time>2023-06-03T06:29:37.847</time></trkpt><trkpt lat="55.9177713" lon="49.2398080"><time>2023-06-03T06:29:39.850</time></trkpt><trkpt lat="55.9177365" lon="49.2399409"><time>2023-06-03T06:29:41.850</time></trkpt><trkpt lat="55.9177185" lon="49.2400733"><time>2023-06-03T06:29:43.853</time></trkpt><trkpt lat="55.9177042" lon="49.2402111"><time>2023-06-03T06:29:45.857</time></trkpt><trkpt lat="55.9176862" lon="49.2403537"><time>2023-06-03T06:29:47.850</time></trkpt><trkpt lat="55.9176606" lon="49.2404890"><time>2023-06-03T06:29:49.847</time></trkpt><trkpt lat="55.9176326" lon="49.2406228"><time>2023-06-03T06:29:51.850</time></trkpt><trkpt lat="55.9176062" lon="49.2407481"><time>2023-06-03T06:29:53.850</time></trkpt><trkpt lat="55.9175798" lon="49.2408724"><time>2023-06-03T06:29:55.853</time></trkpt><trkpt lat="55.9175479" lon="49.2409958"><time>2023-06-03T06:29:57.853</time></trkpt><trkpt lat="55.9175151" lon="49.2411203"><time>2023-06-03T06:29:59.847</time></trkpt><trkpt lat="55.9174885" lon="49.2412455"><time>2023-06-03T06:30:01.850</time></trkpt><trkpt lat="55.9174607" lon="49.2413656"><time>2023-06-03T06:30:03.850</time></trkpt><trkpt lat="55.9174323" lon="49.2414799"><time>2023-06-03T06:30:05.847</time></trkpt><trkpt lat="55.9174010" lon="49.2415961"><time>2023-06-03T06:30:07.850</time></trkpt><trkpt lat="55.9173652" lon="49.2417194"><time>2023-06-03T06:30:09.850</time></trkpt><trkpt lat="55.9173270" lon="49.2418516"><time>2023-06-03T06:30:11.840</time></trkpt><trkpt lat="55.9172960" lon="49.2419883"><time>2023-06-03T06:30:13.850</time></trkpt><trkpt lat="55.9172716" lon="49.2421227"><time>2023-06-03T06:30:15.857</time></trkpt><trkpt lat="55.9172544" lon="49.2422744"><time>2023-06-03T06:30:17.847</time></trkpt><trkpt lat="55.9172427" lon="49.2424250"><time>2023-06-03T06:30:19.853</time></trkpt><trkpt lat="55.9172515" lon="49.2425587"><time>2023-06-03T06:30:21.853</time></trkpt><trkpt lat="55.9172843" lon="49.2426752"><time>2023-06-03T06:30:23.863</time></trkpt><trkpt lat="55.9173358" lon="49.2427557"><time>2023-06-03T06:30:25.863</time></trkpt><trkpt lat="55.9174254" lon="49.2427923"><time>2023-06-03T06:30:27.853</time></trkpt><trkpt lat="55.9174754" lon="49.2427893"><time>2023-06-03T06:30:28.847</time></trkpt><trkpt lat="55.9175593" lon="49.2427391"><time>2023-06-03T06:30:29.857</time></trkpt><trkpt lat="55.9176053" lon="49.2427512"><time>2023-06-03T06:30:30.853</time></trkpt><trkpt lat="55.9176511" lon="49.2427616"><time>2023-06-03T06:30:31.877</time></trkpt><trkpt lat="55.9177141" lon="49.2427781"><time>2023-06-03T06:30:33.857</time></trkpt><trkpt lat="55.9177824" lon="49.2428116"><time>2023-06-03T06:30:35.850</time></trkpt><trkpt lat="55.9178423" lon="49.2428282"><time>2023-06-03T06:30:37.863</time></trkpt><trkpt lat="55.9179127" lon="49.2428721"><time>2023-06-03T06:30:39.853</time></trkpt><trkpt lat="55.9179667" lon="49.2429024"><time>2023-06-03T06:30:41.857</time></trkpt><trkpt lat="55.9180085" lon="49.2429331"><time>2023-06-03T06:30:43.887</time></trkpt><trkpt lat="55.9180558" lon="49.2429893"><time>2023-06-03T06:30:46.863</time></trkpt><trkpt lat="55.9180997" lon="49.2430510"><time>2023-06-03T06:30:48.850</time></trkpt><trkpt lat="55.9181420" lon="49.2431086"><time>2023-06-03T06:30:50.853</time></trkpt><trkpt lat="55.9181801" lon="49.2431794"><time>2023-06-03T06:30:53.850</time></trkpt><trkpt lat="55.9182185" lon="49.2432555"><time>2023-06-03T06:31:02.840</time></trkpt><trkpt lat="55.9182662" lon="49.2433292"><time>2023-06-03T06:31:04.847</time></trkpt><trkpt lat="55.9183089" lon="49.2433890"><time>2023-06-03T06:31:06.857</time></trkpt><trkpt lat="55.9183547" lon="49.2434492"><time>2023-06-03T06:31:08.830</time></trkpt><trkpt lat="55.9184070" lon="49.2435268"><time>2023-06-03T06:31:10.857</time></trkpt><trkpt lat="55.9184576" lon="49.2436181"><time>2023-06-03T06:31:12.853</time></trkpt><trkpt lat="55.9185142" lon="49.2437118"><time>2023-06-03T06:31:14.853</time></trkpt><trkpt lat="55.9185706" lon="49.2438009"><time>2023-06-03T06:31:16.837</time></trkpt><trkpt lat="55.9186139" lon="49.2438870"><time>2023-06-03T06:31:18.847</time></trkpt><trkpt lat="55.9186563" lon="49.2439621"><time>2023-06-03T06:31:20.847</time></trkpt><trkpt lat="55.9187028" lon="49.2440170"><time>2023-06-03T06:31:22.857</time></trkpt><trkpt lat="55.9187493" lon="49.2440689"><time>2023-06-03T06:31:24.877</time></trkpt><trkpt lat="55.9187946" lon="49.2441477"><time>2023-06-03T06:31:27.867</time></trkpt><trkpt lat="55.9188221" lon="49.2442502"><time>2023-06-03T06:31:30.877</time></trkpt><trkpt lat="55.9188401" lon="49.2443404"><time>2023-06-03T06:31:32.847</time></trkpt><trkpt lat="55.9188546" lon="49.2444350"><time>2023-06-03T06:31:34.850</time></trkpt><trkpt lat="55.9188630" lon="49.2445138"><time>2023-06-03T06:31:36.860</time></trkpt><trkpt lat="55.9188864" lon="49.2446067"><time>2023-06-03T06:31:39.853</time></trkpt><trkpt lat="55.9189136" lon="49.2446891"><time>2023-06-03T06:31:43.857</time></trkpt><trkpt lat="55.9189639" lon="49.2446720"><time>2023-06-03T06:31:47.863</time></trkpt><trkpt lat="55.9189630" lon="49.2445714"><time>2023-06-03T06:31:51.853</time></trkpt><trkpt lat="55.9189994" lon="49.2444486"><time>2023-06-03T06:32:00.867</time></trkpt><trkpt lat="55.9190478" lon="49.2443247"><time>2023-06-03T06:32:02.847</time></trkpt><trkpt lat="55.9190721" lon="49.2442501"><time>2023-06-03T06:32:03.853</time></trkpt><trkpt lat="55.9191132" lon="49.2441126"><time>2023-06-03T06:32:05.847</time></trkpt><trkpt lat="55.9191310" lon="49.2440381"><time>2023-06-03T06:32:06.873</time></trkpt><trkpt lat="55.9191484" lon="49.2439636"><time>2023-06-03T06:32:07.857</time></trkpt><trkpt lat="55.9191765" lon="49.2438215"><time>2023-06-03T06:32:09.857</time></trkpt><trkpt lat="55.9192091" lon="49.2436730"><time>2023-06-03T06:32:11.860</time></trkpt><trkpt lat="55.9192375" lon="49.2435245"><time>2023-06-03T06:32:13.847</time></trkpt><trkpt lat="55.9192491" lon="49.2433874"><time>2023-06-03T06:32:15.860</time></trkpt><trkpt lat="55.9192388" lon="49.2432846"><time>2023-06-03T06:32:17.887</time></trkpt><trkpt lat="55.9192376" lon="49.2431948"><time>2023-06-03T06:32:19.847</time></trkpt><trkpt lat="55.9192336" lon="49.2431101"><time>2023-06-03T06:32:21.857</time></trkpt><trkpt lat="55.9192316" lon="49.2429883"><time>2023-06-03T06:32:23.877</time></trkpt><trkpt lat="55.9192409" lon="49.2428918"><time>2023-06-03T06:32:25.853</time></trkpt><trkpt lat="55.9192402" lon="49.2428086"><time>2023-06-03T06:32:27.860</time></trkpt><trkpt lat="55.9192429" lon="49.2427189"><time>2023-06-03T06:32:29.880</time></trkpt><trkpt lat="55.9192465" lon="49.2426117"><time>2023-06-03T06:32:31.860</time></trkpt><trkpt lat="55.9192305" lon="49.2425252"><time>2023-06-03T06:32:33.853</time></trkpt><trkpt lat="55.9192192" lon="49.2424327"><time>2023-06-03T06:32:35.867</time></trkpt><trkpt lat="55.9192329" lon="49.2423329"><time>2023-06-03T06:32:37.857</time></trkpt><trkpt lat="55.9192596" lon="49.2422430"><time>2023-06-03T06:32:39.863</time></trkpt><trkpt lat="55.9192915" lon="49.2421654"><time>2023-06-03T06:32:41.900</time></trkpt><trkpt lat="55.9193444" lon="49.2421993"><time>2023-06-03T06:32:55.857</time></trkpt><trkpt lat="55.9193946" lon="49.2422280"><time>2023-06-03T06:32:58.863</time></trkpt><trkpt lat="55.9194419" lon="49.2422614"><time>2023-06-03T06:33:00.857</time></trkpt><trkpt lat="55.9194989" lon="49.2422878"><time>2023-06-03T06:33:03.850</time></trkpt><trkpt lat="55.9195500" lon="49.2423382"><time>2023-06-03T06:33:45.853</time></trkpt><trkpt lat="55.9195942" lon="49.2424074"><time>2023-06-03T06:33:49.857</time></trkpt><trkpt lat="55.9196400" lon="49.2424137"><time>2023-06-03T06:33:56.847</time></trkpt><trkpt lat="55.9196533" lon="49.2423333"><time>2023-06-03T06:34:37.860</time></trkpt><trkpt lat="55.9196674" lon="49.2422396"><time>2023-06-03T06:34:39.853</time></trkpt><trkpt lat="55.9196933" lon="49.2421342"><time>2023-06-03T06:34:41.887</time></trkpt><trkpt lat="55.9197130" lon="49.2420895"><time>2023-06-03T06:34:42.890</time></trkpt><trkpt lat="55.9197534" lon="49.2420231"><time>2023-06-03T06:34:44.847</time></trkpt><trkpt lat="55.9197890" lon="49.2419607"><time>2023-06-03T06:34:48.863</time></trkpt><trkpt lat="55.9198375" lon="49.2419018"><time>2023-06-03T06:34:51.850</time></trkpt><trkpt lat="55.9198961" lon="49.2418662"><time>2023-06-03T06:34:54.873</time></trkpt><trkpt lat="55.9199398" lon="49.2418463"><time>2023-06-03T06:34:56.850</time></trkpt><trkpt lat="55.9200051" lon="49.2418031"><time>2023-06-03T06:34:59.843</time></trkpt><trkpt lat="55.9200597" lon="49.2417476"><time>2023-06-03T06:35:02.843</time></trkpt><trkpt lat="55.9201160" lon="49.2417085"><time>2023-06-03T06:35:06.883</time></trkpt><trkpt lat="55.9201648" lon="49.2417097"><time>2023-06-03T06:35:09.847</time></trkpt><trkpt lat="55.9202107" lon="49.2417213"><time>2023-06-03T06:35:11.857</time></trkpt><trkpt lat="55.9202708" lon="49.2417613"><time>2023-06-03T06:35:14.843</time></trkpt><trkpt lat="55.9203200" lon="49.2418032"><time>2023-06-03T06:35:17.857</time></trkpt><trkpt lat="55.9203629" lon="49.2418403"><time>2023-06-03T06:35:19.853</time></trkpt><trkpt lat="55.9204092" lon="49.2418726"><time>2023-06-03T06:35:21.853</time></trkpt><trkpt lat="55.9204638" lon="49.2419457"><time>2023-06-03T06:35:24.857</time></trkpt><trkpt lat="55.9205180" lon="49.2419569"><time>2023-06-03T06:35:27.870</time></trkpt><trkpt lat="55.9205849" lon="49.2419294"><time>2023-06-03T06:35:30.870</time></trkpt><trkpt lat="55.9206117" lon="49.2419176"><time>2023-06-03T06:35:31.853</time></trkpt><trkpt lat="55.9206542" lon="49.2418678"><time>2023-06-03T06:35:34.850</time></trkpt><trkpt lat="55.9207029" lon="49.2418170"><time>2023-06-03T06:35:37.850</time></trkpt><trkpt lat="55.9207566" lon="49.2417813"><time>2023-06-03T06:35:40.847</time></trkpt><trkpt lat="55.9208221" lon="49.2417964"><time>2023-06-03T06:35:44.847</time></trkpt><trkpt lat="55.9208786" lon="49.2417894"><time>2023-06-03T06:35:47.863</time></trkpt><trkpt lat="55.9209257" lon="49.2417748"><time>2023-06-03T06:35:49.857</time></trkpt><trkpt lat="55.9209790" lon="49.2417667"><time>2023-06-03T06:35:52.857</time></trkpt><trkpt lat="55.9210289" lon="49.2417910"><time>2023-06-03T06:35:56.853</time></trkpt><trkpt lat="55.9210841" lon="49.2418009"><time>2023-06-03T06:35:59.877</time></trkpt><trkpt lat="55.9211134" lon="49.2418044"><time>2023-06-03T06:36:00.860</time></trkpt><trkpt lat="55.9211724" lon="49.2417979"><time>2023-06-03T06:36:02.843</time></trkpt><trkpt lat="55.9212171" lon="49.2418079"><time>2023-06-03T06:36:05.887</time></trkpt><trkpt lat="55.9212676" lon="49.2418192"><time>2023-06-03T06:36:08.847</time></trkpt><trkpt lat="55.9213154" lon="49.2417983"><time>2023-06-03T06:36:11.873</time></trkpt><trkpt lat="55.9213571" lon="49.2417523"><time>2023-06-03T06:36:38.860</time></trkpt><trkpt lat="55.9213913" lon="49.2416980"><time>2023-06-03T06:36:44.853</time></trkpt><trkpt lat="55.9213431" lon="49.2417085"><time>2023-06-03T06:36:52.857</time></trkpt><trkpt lat="55.9213058" lon="49.2417755"><time>2023-06-03T06:37:07.860</time></trkpt><trkpt lat="55.9212961" lon="49.2418570"><time>2023-06-03T06:37:12.863</time></trkpt><trkpt lat="55.9213335" lon="49.2419237"><time>2023-06-03T06:37:17.850</time></trkpt><trkpt lat="55.9213194" lon="49.2420123"><time>2023-06-03T06:37:23.930</time></trkpt><trkpt lat="55.9213194" lon="49.2420123"><time>2023-06-03T06:37:23.987</time></trkpt><trkpt lat="55.9213133" lon="49.2419319"><time>2023-06-03T06:37:46.873</time></trkpt><trkpt lat="55.9213271" lon="49.2419193"><time>2023-06-03T06:37:47.860</time></trkpt><trkpt lat="55.9213165" lon="49.2418314"><time>2023-06-03T06:38:04.850</time></trkpt><trkpt lat="55.9213622" lon="49.2418007"><time>2023-06-03T06:38:19.850</time></trkpt><trkpt lat="55.9213050" lon="49.2418144"><time>2023-06-03T06:38:36.860</time></trkpt><trkpt lat="55.9212376" lon="49.2418240"><time>2023-06-03T06:38:39.857</time></trkpt><trkpt lat="55.9211751" lon="49.2418091"><time>2023-06-03T06:38:41.860</time></trkpt><trkpt lat="55.9211210" lon="49.2417813"><time>2023-06-03T06:38:43.853</time></trkpt><trkpt lat="55.9210763" lon="49.2417462"><time>2023-06-03T06:38:45.860</time></trkpt><trkpt lat="55.9210313" lon="49.2417137"><time>2023-06-03T06:38:48.873</time></trkpt><trkpt lat="55.9209755" lon="49.2417256"><time>2023-06-03T06:38:52.847</time></trkpt><trkpt lat="55.9209246" lon="49.2417277"><time>2023-06-03T06:38:55.860</time></trkpt><trkpt lat="55.9208763" lon="49.2417302"><time>2023-06-03T06:38:58.857</time></trkpt><trkpt lat="55.9208259" lon="49.2417229"><time>2023-06-03T06:39:02.860</time></trkpt><trkpt lat="55.9207794" lon="49.2417032"><time>2023-06-03T06:39:06.873</time></trkpt><trkpt lat="55.9207179" lon="49.2417189"><time>2023-06-03T06:39:13.853</time></trkpt><trkpt lat="55.9206661" lon="49.2417373"><time>2023-06-03T06:39:16.850</time></trkpt><trkpt lat="55.9206256" lon="49.2417817"><time>2023-06-03T06:39:19.860</time></trkpt><trkpt lat="55.9205754" lon="49.2417906"><time>2023-06-03T06:39:22.843</time></trkpt><trkpt lat="55.9205297" lon="49.2417748"><time>2023-06-03T06:39:24.863</time></trkpt><trkpt lat="55.9204829" lon="49.2417807"><time>2023-06-03T06:39:27.850</time></trkpt><trkpt lat="55.9204283" lon="49.2417811"><time>2023-06-03T06:39:31.853</time></trkpt><trkpt lat="55.9203757" lon="49.2417422"><time>2023-06-03T06:39:35.867</time></trkpt><trkpt lat="55.9203308" lon="49.2416959"><time>2023-06-03T06:39:38.840</time></trkpt><trkpt lat="55.9202796" lon="49.2416828"><time>2023-06-03T06:39:44.850</time></trkpt><trkpt lat="55.9202301" lon="49.2416885"><time>2023-06-03T06:39:50.857</time></trkpt><trkpt lat="55.9201809" lon="49.2416573"><time>2023-06-03T06:39:54.850</time></trkpt><trkpt lat="55.9201160" lon="49.2416486"><time>2023-06-03T06:39:59.873</time></trkpt><trkpt lat="55.9200689" lon="49.2416326"><time>2023-06-03T06:40:05.873</time></trkpt><trkpt lat="55.9200093" lon="49.2416744"><time>2023-06-03T06:40:12.860</time></trkpt><trkpt lat="55.9199476" lon="49.2417554"><time>2023-06-03T06:40:14.853</time></trkpt><trkpt lat="55.9198767" lon="49.2418218"><time>2023-06-03T06:40:16.857</time></trkpt><trkpt lat="55.9197989" lon="49.2418653"><time>2023-06-03T06:40:18.860</time></trkpt><trkpt lat="55.9197325" lon="49.2418953"><time>2023-06-03T06:40:20.850</time></trkpt><trkpt lat="55.9196824" lon="49.2419300"><time>2023-06-03T06:40:22.843</time></trkpt><trkpt lat="55.9196457" lon="49.2420057"><time>2023-06-03T06:40:25.853</time></trkpt><trkpt lat="55.9196276" lon="49.2421223"><time>2023-06-03T06:40:28.843</time></trkpt><trkpt lat="55.9196107" lon="49.2422369"><time>2023-06-03T06:40:30.850</time></trkpt><trkpt lat="55.9195962" lon="49.2423680"><time>2023-06-03T06:40:32.860</time></trkpt><trkpt lat="55.9195863" lon="49.2425153"><time>2023-06-03T06:40:34.853</time></trkpt><trkpt lat="55.9195775" lon="49.2426557"><time>2023-06-03T06:40:36.857</time></trkpt><trkpt lat="55.9195751" lon="49.2427859"><time>2023-06-03T06:40:38.853</time></trkpt><trkpt lat="55.9195725" lon="49.2429007"><time>2023-06-03T06:40:40.853</time></trkpt><trkpt lat="55.9195571" lon="49.2430037"><time>2023-06-03T06:40:42.837</time></trkpt><trkpt lat="55.9195264" lon="49.2431271"><time>2023-06-03T06:40:44.853</time></trkpt><trkpt lat="55.9195064" lon="49.2432662"><time>2023-06-03T06:40:46.860</time></trkpt><trkpt lat="55.9195102" lon="49.2434163"><time>2023-06-03T06:40:48.843</time></trkpt><trkpt lat="55.9195270" lon="49.2435569"><time>2023-06-03T06:40:50.847</time></trkpt><trkpt lat="55.9195448" lon="49.2436365"><time>2023-06-03T06:40:51.853</time></trkpt><trkpt lat="55.9195842" lon="49.2437723"><time>2023-06-03T06:40:53.857</time></trkpt><trkpt lat="55.9196313" lon="49.2438782"><time>2023-06-03T06:40:55.853</time></trkpt><trkpt lat="55.9196846" lon="49.2439574"><time>2023-06-03T06:40:57.853</time></trkpt><trkpt lat="55.9197576" lon="49.2440455"><time>2023-06-03T06:40:59.833</time></trkpt><trkpt lat="55.9197996" lon="49.2440918"><time>2023-06-03T06:41:00.843</time></trkpt><trkpt lat="55.9198723" lon="49.2441722"><time>2023-06-03T06:41:02.853</time></trkpt><trkpt lat="55.9199228" lon="49.2442605"><time>2023-06-03T06:41:04.877</time></trkpt><trkpt lat="55.9199523" lon="49.2443821"><time>2023-06-03T06:41:06.857</time></trkpt><trkpt lat="55.9199518" lon="49.2445013"><time>2023-06-03T06:41:08.840</time></trkpt><trkpt lat="55.9199395" lon="49.2446463"><time>2023-06-03T06:41:10.867</time></trkpt><trkpt lat="55.9199215" lon="49.2447800"><time>2023-06-03T06:41:12.850</time></trkpt><trkpt lat="55.9198904" lon="49.2448898"><time>2023-06-03T06:41:14.847</time></trkpt><trkpt lat="55.9198645" lon="49.2450118"><time>2023-06-03T06:41:16.863</time></trkpt><trkpt lat="55.9198443" lon="49.2451416"><time>2023-06-03T06:41:18.850</time></trkpt><trkpt lat="55.9198281" lon="49.2452741"><time>2023-06-03T06:41:20.850</time></trkpt><trkpt lat="55.9198016" lon="49.2453874"><time>2023-06-03T06:41:22.853</time></trkpt><trkpt lat="55.9197885" lon="49.2454878"><time>2023-06-03T06:41:24.850</time></trkpt><trkpt lat="55.9197978" lon="49.2455934"><time>2023-06-03T06:41:26.857</time></trkpt><trkpt lat="55.9198150" lon="49.2457086"><time>2023-06-03T06:41:28.877</time></trkpt><trkpt lat="55.9198388" lon="49.2458310"><time>2023-06-03T06:41:30.840</time></trkpt><trkpt lat="55.9198458" lon="49.2459501"><time>2023-06-03T06:41:32.857</time></trkpt><trkpt lat="55.9198437" lon="49.2460549"><time>2023-06-03T06:41:34.870</time></trkpt><trkpt lat="55.9198415" lon="49.2461492"><time>2023-06-03T06:41:36.840</time></trkpt><trkpt lat="55.9198007" lon="49.2462472"><time>2023-06-03T06:41:38.850</time></trkpt><trkpt lat="55.9197442" lon="49.2463203"><time>2023-06-03T06:41:40.850</time></trkpt><trkpt lat="55.9196875" lon="49.2463989"><time>2023-06-03T06:41:42.847</time></trkpt><trkpt lat="55.9196316" lon="49.2464877"><time>2023-06-03T06:41:44.847</time></trkpt><trkpt lat="55.9195892" lon="49.2465854"><time>2023-06-03T06:41:46.837</time></trkpt><trkpt lat="55.9195744" lon="49.2466646"><time>2023-06-03T06:41:48.843</time></trkpt><trkpt lat="55.9195567" lon="49.2467602"><time>2023-06-03T06:41:50.843</time></trkpt><trkpt lat="55.9195365" lon="49.2468983"><time>2023-06-03T06:41:52.840</time></trkpt><trkpt lat="55.9195116" lon="49.2470243"><time>2023-06-03T06:41:54.860</time></trkpt><trkpt lat="55.9194991" lon="49.2471568"><time>2023-06-03T06:41:56.857</time></trkpt><trkpt lat="55.9194981" lon="49.2472870"><time>2023-06-03T06:41:58.847</time></trkpt><trkpt lat="55.9194921" lon="49.2474055"><time>2023-06-03T06:42:00.857</time></trkpt><trkpt lat="55.9194946" lon="49.2475380"><time>2023-06-03T06:42:02.850</time></trkpt><trkpt lat="55.9194968" lon="49.2476861"><time>2023-06-03T06:42:04.853</time></trkpt><trkpt lat="55.9194980" lon="49.2477671"><time>2023-06-03T06:42:05.850</time></trkpt><trkpt lat="55.9195022" lon="49.2478510"><time>2023-06-03T06:42:06.850</time></trkpt><trkpt lat="55.9195020" lon="49.2479339"><time>2023-06-03T06:42:07.857</time></trkpt><trkpt lat="55.9194990" lon="49.2480186"><time>2023-06-03T06:42:08.840</time></trkpt><trkpt lat="55.9194918" lon="49.2481345"><time>2023-06-03T06:42:09.877</time></trkpt><trkpt lat="55.9194861" lon="49.2482262"><time>2023-06-03T06:42:10.857</time></trkpt><trkpt lat="55.9194972" lon="49.2483196"><time>2023-06-03T06:42:11.850</time></trkpt><trkpt lat="55.9195095" lon="49.2484439"><time>2023-06-03T06:42:13.850</time></trkpt><trkpt lat="55.9195138" lon="49.2485237"><time>2023-06-03T06:42:14.860</time></trkpt><trkpt lat="55.9195137" lon="49.2486660"><time>2023-06-03T06:42:16.853</time></trkpt><trkpt lat="55.9195437" lon="49.2487396"><time>2023-06-03T06:42:17.853</time></trkpt><trkpt lat="55.9195696" lon="49.2488171"><time>2023-06-03T06:42:18.847</time></trkpt><trkpt lat="55.9195913" lon="49.2489607"><time>2023-06-03T06:42:20.837</time></trkpt><trkpt lat="55.9196244" lon="49.2490299"><time>2023-06-03T06:42:21.867</time></trkpt><trkpt lat="55.9196489" lon="49.2491017"><time>2023-06-03T06:42:22.860</time></trkpt><trkpt lat="55.9196616" lon="49.2492380"><time>2023-06-03T06:42:23.847</time></trkpt><trkpt lat="55.9197011" lon="49.2493704"><time>2023-06-03T06:42:25.857</time></trkpt><trkpt lat="55.9197310" lon="49.2494871"><time>2023-06-03T06:42:27.853</time></trkpt><trkpt lat="55.9197671" lon="49.2496163"><time>2023-06-03T06:42:29.853</time></trkpt><trkpt lat="55.9197800" lon="49.2497268"><time>2023-06-03T06:42:31.870</time></trkpt><trkpt lat="55.9197989" lon="49.2498585"><time>2023-06-03T06:42:33.860</time></trkpt><trkpt lat="55.9198306" lon="49.2499251"><time>2023-06-03T06:42:34.843</time></trkpt><trkpt lat="55.9198417" lon="49.2500041"><time>2023-06-03T06:42:35.860</time></trkpt><trkpt lat="55.9198508" lon="49.2500844"><time>2023-06-03T06:42:36.857</time></trkpt><trkpt lat="55.9198599" lon="49.2502271"><time>2023-06-03T06:42:38.873</time></trkpt><trkpt lat="55.9198739" lon="49.2503614"><time>2023-06-03T06:42:40.847</time></trkpt><trkpt lat="55.9198929" lon="49.2504966"><time>2023-06-03T06:42:42.860</time></trkpt><trkpt lat="55.9198983" lon="49.2506319"><time>2023-06-03T06:42:44.863</time></trkpt><trkpt lat="55.9198844" lon="49.2507830"><time>2023-06-03T06:42:46.847</time></trkpt><trkpt lat="55.9198679" lon="49.2509168"><time>2023-06-03T06:42:48.857</time></trkpt><trkpt lat="55.9198570" lon="49.2510318"><time>2023-06-03T06:42:50.880</time></trkpt><trkpt lat="55.9198584" lon="49.2511459"><time>2023-06-03T06:42:52.847</time></trkpt><trkpt lat="55.9198754" lon="49.2512503"><time>2023-06-03T06:42:54.847</time></trkpt><trkpt lat="55.9198823" lon="49.2513565"><time>2023-06-03T06:42:56.877</time></trkpt><trkpt lat="55.9198750" lon="49.2514500"><time>2023-06-03T06:42:58.850</time></trkpt><trkpt lat="55.9198620" lon="49.2515594"><time>2023-06-03T06:43:00.847</time></trkpt><trkpt lat="55.9198440" lon="49.2516650"><time>2023-06-03T06:43:02.887</time></trkpt><trkpt lat="55.9198360" lon="49.2518165"><time>2023-06-03T06:43:04.843</time></trkpt><trkpt lat="55.9198275" lon="49.2519604"><time>2023-06-03T06:43:06.847</time></trkpt><trkpt lat="55.9198190" lon="49.2520981"><time>2023-06-03T06:43:08.877</time></trkpt><trkpt lat="55.9198193" lon="49.2522008"><time>2023-06-03T06:43:10.847</time></trkpt><trkpt lat="55.9198226" lon="49.2523029"><time>2023-06-03T06:43:12.850</time></trkpt><trkpt lat="55.9198144" lon="49.2523896"><time>2023-06-03T06:43:14.887</time></trkpt><trkpt lat="55.9198176" lon="49.2524703"><time>2023-06-03T06:43:16.847</time></trkpt><trkpt lat="55.9198273" lon="49.2525649"><time>2023-06-03T06:43:18.847</time></trkpt><trkpt lat="55.9198350" lon="49.2526763"><time>2023-06-03T06:43:20.860</time></trkpt><trkpt lat="55.9198279" lon="49.2527740"><time>2023-06-03T06:43:22.847</time></trkpt><trkpt lat="55.9198059" lon="49.2528947"><time>2023-06-03T06:43:24.847</time></trkpt><trkpt lat="55.9197877" lon="49.2530062"><time>2023-06-03T06:43:26.887</time></trkpt><trkpt lat="55.9197618" lon="49.2531423"><time>2023-06-03T06:43:28.847</time></trkpt><trkpt lat="55.9197394" lon="49.2532525"><time>2023-06-03T06:43:30.850</time></trkpt><trkpt lat="55.9197202" lon="49.2533429"><time>2023-06-03T06:43:32.843</time></trkpt><trkpt lat="55.9196995" lon="49.2534350"><time>2023-06-03T06:43:34.847</time></trkpt><trkpt lat="55.9196665" lon="49.2535405"><time>2023-06-03T06:43:37.883</time></trkpt><trkpt lat="55.9196329" lon="49.2536234"><time>2023-06-03T06:43:39.847</time></trkpt><trkpt lat="55.9195968" lon="49.2537111"><time>2023-06-03T06:43:41.850</time></trkpt><trkpt lat="55.9195673" lon="49.2537891"><time>2023-06-03T06:43:44.863</time></trkpt><trkpt lat="55.9195592" lon="49.2538807"><time>2023-06-03T06:43:58.847</time></trkpt><trkpt lat="55.9195569" lon="49.2539662"><time>2023-06-03T06:44:09.857</time></trkpt><trkpt lat="55.9195251" lon="49.2540685"><time>2023-06-03T06:44:12.870</time></trkpt><trkpt lat="55.9195141" lon="49.2541692"><time>2023-06-03T06:44:15.860</time></trkpt><trkpt lat="55.9195046" lon="49.2542605"><time>2023-06-03T06:44:17.840</time></trkpt><trkpt lat="55.9194802" lon="49.2544040"><time>2023-06-03T06:44:19.850</time></trkpt><trkpt lat="55.9194529" lon="49.2545321"><time>2023-06-03T06:44:21.857</time></trkpt><trkpt lat="55.9194186" lon="49.2546486"><time>2023-06-03T06:44:23.847</time></trkpt><trkpt lat="55.9193916" lon="49.2547739"><time>2023-06-03T06:44:25.843</time></trkpt><trkpt lat="55.9193662" lon="49.2548913"><time>2023-06-03T06:44:27.847</time></trkpt><trkpt lat="55.9193630" lon="49.2550363"><time>2023-06-03T06:44:29.863</time></trkpt><trkpt lat="55.9193563" lon="49.2551598"><time>2023-06-03T06:44:31.860</time></trkpt><trkpt lat="55.9193326" lon="49.2552361"><time>2023-06-03T06:44:33.847</time></trkpt><trkpt lat="55.9192948" lon="49.2553148"><time>2023-06-03T06:44:35.853</time></trkpt><trkpt lat="55.9192744" lon="49.2554392"><time>2023-06-03T06:44:37.840</time></trkpt><trkpt lat="55.9192610" lon="49.2556079"><time>2023-06-03T06:44:39.847</time></trkpt><trkpt lat="55.9192515" lon="49.2557024"><time>2023-06-03T06:44:40.847</time></trkpt><trkpt lat="55.9192417" lon="49.2557900"><time>2023-06-03T06:44:41.853</time></trkpt><trkpt lat="55.9192216" lon="49.2559275"><time>2023-06-03T06:44:43.850</time></trkpt><trkpt lat="55.9191886" lon="49.2560578"><time>2023-06-03T06:44:45.850</time></trkpt><trkpt lat="55.9191565" lon="49.2561849"><time>2023-06-03T06:44:47.853</time></trkpt><trkpt lat="55.9191301" lon="49.2563092"><time>2023-06-03T06:44:49.847</time></trkpt><trkpt lat="55.9190854" lon="49.2564299"><time>2023-06-03T06:44:51.860</time></trkpt><trkpt lat="55.9190275" lon="49.2565365"><time>2023-06-03T06:44:53.853</time></trkpt><trkpt lat="55.9189740" lon="49.2566314"><time>2023-06-03T06:44:55.857</time></trkpt><trkpt lat="55.9189172" lon="49.2567176"><time>2023-06-03T06:44:57.850</time></trkpt><trkpt lat="55.9188485" lon="49.2568007"><time>2023-06-03T06:44:59.860</time></trkpt><trkpt lat="55.9187704" lon="49.2568687"><time>2023-06-03T06:45:00.873</time></trkpt><trkpt lat="55.9187341" lon="49.2569451"><time>2023-06-03T06:45:01.867</time></trkpt><trkpt lat="55.9187209" lon="49.2570267"><time>2023-06-03T06:45:02.847</time></trkpt><trkpt lat="55.9186814" lon="49.2571045"><time>2023-06-03T06:45:03.853</time></trkpt><trkpt lat="55.9186298" lon="49.2572104"><time>2023-06-03T06:45:05.840</time></trkpt><trkpt lat="55.9185829" lon="49.2573225"><time>2023-06-03T06:45:07.850</time></trkpt><trkpt lat="55.9185480" lon="49.2573775"><time>2023-06-03T06:45:08.843</time></trkpt><trkpt lat="55.9184811" lon="49.2574602"><time>2023-06-03T06:45:10.857</time></trkpt><trkpt lat="55.9184376" lon="49.2575248"><time>2023-06-03T06:45:11.857</time></trkpt><trkpt lat="55.9183844" lon="49.2575764"><time>2023-06-03T06:45:12.880</time></trkpt><trkpt lat="55.9183167" lon="49.2575734"><time>2023-06-03T06:45:13.850</time></trkpt><trkpt lat="55.9182477" lon="49.2575827"><time>2023-06-03T06:45:14.837</time></trkpt><trkpt lat="55.9181932" lon="49.2576020"><time>2023-06-03T06:45:15.843</time></trkpt><trkpt lat="55.9181559" lon="49.2576538"><time>2023-06-03T06:45:16.857</time></trkpt><trkpt lat="55.9181205" lon="49.2577373"><time>2023-06-03T06:45:17.860</time></trkpt><trkpt lat="55.9181054" lon="49.2579085"><time>2023-06-03T06:45:19.857</time></trkpt><trkpt lat="55.9180885" lon="49.2580571"><time>2023-06-03T06:45:21.863</time></trkpt><trkpt lat="55.9180900" lon="49.2581452"><time>2023-06-03T06:45:22.857</time></trkpt><trkpt lat="55.9180758" lon="49.2582854"><time>2023-06-03T06:45:24.877</time></trkpt><trkpt lat="55.9180786" lon="49.2583655"><time>2023-06-03T06:45:25.853</time></trkpt><trkpt lat="55.9180884" lon="49.2584996"><time>2023-06-03T06:45:27.847</time></trkpt><trkpt lat="55.9180907" lon="49.2586379"><time>2023-06-03T06:45:29.853</time></trkpt><trkpt lat="55.9180993" lon="49.2587530"><time>2023-06-03T06:45:31.860</time></trkpt><trkpt lat="55.9180923" lon="49.2588447"><time>2023-06-03T06:45:33.853</time></trkpt><trkpt lat="55.9180764" lon="49.2589462"><time>2023-06-03T06:45:35.847</time></trkpt><trkpt lat="55.9180556" lon="49.2590461"><time>2023-06-03T06:45:37.850</time></trkpt><trkpt lat="55.9180255" lon="49.2591427"><time>2023-06-03T06:45:39.853</time></trkpt><trkpt lat="55.9179905" lon="49.2592429"><time>2023-06-03T06:45:41.847</time></trkpt><trkpt lat="55.9179452" lon="49.2593559"><time>2023-06-03T06:45:43.860</time></trkpt><trkpt lat="55.9179153" lon="49.2594209"><time>2023-06-03T06:45:44.847</time></trkpt><trkpt lat="55.9178629" lon="49.2595210"><time>2023-06-03T06:45:46.850</time></trkpt><trkpt lat="55.9178221" lon="49.2596054"><time>2023-06-03T06:45:48.877</time></trkpt><trkpt lat="55.9177778" lon="49.2597101"><time>2023-06-03T06:45:50.843</time></trkpt><trkpt lat="55.9177445" lon="49.2597749"><time>2023-06-03T06:45:51.850</time></trkpt><trkpt lat="55.9177143" lon="49.2598351"><time>2023-06-03T06:45:52.850</time></trkpt><trkpt lat="55.9176640" lon="49.2599592"><time>2023-06-03T06:45:54.857</time></trkpt><trkpt lat="55.9176201" lon="49.2600855"><time>2023-06-03T06:45:56.847</time></trkpt><trkpt lat="55.9175943" lon="49.2601546"><time>2023-06-03T06:45:57.847</time></trkpt><trkpt lat="55.9175702" lon="49.2602250"><time>2023-06-03T06:45:58.857</time></trkpt><trkpt lat="55.9175433" lon="49.2602948"><time>2023-06-03T06:45:59.847</time></trkpt><trkpt lat="55.9175156" lon="49.2603592"><time>2023-06-03T06:46:00.890</time></trkpt><trkpt lat="55.9174516" lon="49.2604467"><time>2023-06-03T06:46:02.850</time></trkpt><trkpt lat="55.9173856" lon="49.2605334"><time>2023-06-03T06:46:04.843</time></trkpt><trkpt lat="55.9173332" lon="49.2606422"><time>2023-06-03T06:46:06.873</time></trkpt><trkpt lat="55.9173045" lon="49.2607914"><time>2023-06-03T06:46:08.847</time></trkpt><trkpt lat="55.9172909" lon="49.2609243"><time>2023-06-03T06:46:10.847</time></trkpt><trkpt lat="55.9172736" lon="49.2610517"><time>2023-06-03T06:46:12.870</time></trkpt><trkpt lat="55.9172504" lon="49.2611698"><time>2023-06-03T06:46:14.847</time></trkpt><trkpt lat="55.9172147" lon="49.2612787"><time>2023-06-03T06:46:16.840</time></trkpt><trkpt lat="55.9171778" lon="49.2613583"><time>2023-06-03T06:46:18.837</time></trkpt><trkpt lat="55.9171360" lon="49.2614322"><time>2023-06-03T06:46:20.857</time></trkpt><trkpt lat="55.9170840" lon="49.2614943"><time>2023-06-03T06:46:22.843</time></trkpt><trkpt lat="55.9170361" lon="49.2615143"><time>2023-06-03T06:46:24.890</time></trkpt><trkpt lat="55.9169870" lon="49.2615070"><time>2023-06-03T06:46:26.840</time></trkpt><trkpt lat="55.9169291" lon="49.2615101"><time>2023-06-03T06:46:28.850</time></trkpt><trkpt lat="55.9168677" lon="49.2615034"><time>2023-06-03T06:46:30.853</time></trkpt><trkpt lat="55.9167954" lon="49.2614698"><time>2023-06-03T06:46:32.853</time></trkpt><trkpt lat="55.9167340" lon="49.2614077"><time>2023-06-03T06:46:34.853</time></trkpt><trkpt lat="55.9166565" lon="49.2612607"><time>2023-06-03T06:46:35.847</time></trkpt><trkpt lat="55.9166210" lon="49.2611882"><time>2023-06-03T06:46:38.853</time></trkpt><trkpt lat="55.9165719" lon="49.2611123"><time>2023-06-03T06:46:40.853</time></trkpt><trkpt lat="55.9165437" lon="49.2610402"><time>2023-06-03T06:46:42.843</time></trkpt><trkpt lat="55.9164870" lon="49.2609536"><time>2023-06-03T06:46:44.853</time></trkpt><trkpt lat="55.9164495" lon="49.2608635"><time>2023-06-03T06:46:46.853</time></trkpt><trkpt lat="55.9164125" lon="49.2607767"><time>2023-06-03T06:46:49.860</time></trkpt><trkpt lat="55.9163772" lon="49.2607251"><time>2023-06-03T06:46:51.863</time></trkpt><trkpt lat="55.9163367" lon="49.2606679"><time>2023-06-03T06:46:54.843</time></trkpt><trkpt lat="55.9162973" lon="49.2605971"><time>2023-06-03T06:46:57.857</time></trkpt><trkpt lat="55.9162572" lon="49.2605182"><time>2023-06-03T06:46:59.890</time></trkpt><trkpt lat="55.9162220" lon="49.2604516"><time>2023-06-03T06:47:01.850</time></trkpt><trkpt lat="55.9161830" lon="49.2604036"><time>2023-06-03T06:47:03.853</time></trkpt><trkpt lat="55.9161287" lon="49.2603316"><time>2023-06-03T06:47:05.863</time></trkpt><trkpt lat="55.9160582" lon="49.2602446"><time>2023-06-03T06:47:07.860</time></trkpt><trkpt lat="55.9160203" lon="49.2602013"><time>2023-06-03T06:47:08.843</time></trkpt><trkpt lat="55.9159533" lon="49.2601242"><time>2023-06-03T06:47:10.847</time></trkpt><trkpt lat="55.9158713" lon="49.2600534"><time>2023-06-03T06:47:11.877</time></trkpt><trkpt lat="55.9158226" lon="49.2599847"><time>2023-06-03T06:47:12.847</time></trkpt><trkpt lat="55.9157824" lon="49.2599447"><time>2023-06-03T06:47:13.853</time></trkpt><trkpt lat="55.9157216" lon="49.2598618"><time>2023-06-03T06:47:15.853</time></trkpt><trkpt lat="55.9156643" lon="49.2597695"><time>2023-06-03T06:47:17.860</time></trkpt><trkpt lat="55.9156099" lon="49.2597100"><time>2023-06-03T06:47:19.867</time></trkpt><trkpt lat="55.9155766" lon="49.2596280"><time>2023-06-03T06:47:21.857</time></trkpt><trkpt lat="55.9155363" lon="49.2595753"><time>2023-06-03T06:47:24.850</time></trkpt><trkpt lat="55.9154920" lon="49.2595039"><time>2023-06-03T06:47:27.853</time></trkpt><trkpt lat="55.9154515" lon="49.2594485"><time>2023-06-03T06:47:30.847</time></trkpt><trkpt lat="55.9153976" lon="49.2593742"><time>2023-06-03T06:47:44.843</time></trkpt><trkpt lat="55.9153620" lon="49.2592743"><time>2023-06-03T06:47:46.850</time></trkpt><trkpt lat="55.9153334" lon="49.2591613"><time>2023-06-03T06:47:48.840</time></trkpt><trkpt lat="55.9153069" lon="49.2590446"><time>2023-06-03T06:47:50.857</time></trkpt><trkpt lat="55.9152902" lon="49.2589592"><time>2023-06-03T06:47:52.840</time></trkpt><trkpt lat="55.9152816" lon="49.2588528"><time>2023-06-03T06:47:54.850</time></trkpt><trkpt lat="55.9152559" lon="49.2587357"><time>2023-06-03T06:47:56.843</time></trkpt><trkpt lat="55.9152226" lon="49.2586268"><time>2023-06-03T06:47:58.863</time></trkpt><trkpt lat="55.9152050" lon="49.2585687"><time>2023-06-03T06:47:59.873</time></trkpt><trkpt lat="55.9151689" lon="49.2584601"><time>2023-06-03T06:48:01.853</time></trkpt><trkpt lat="55.9151387" lon="49.2583743"><time>2023-06-03T06:48:03.853</time></trkpt><trkpt lat="55.9150930" lon="49.2583025"><time>2023-06-03T06:48:05.877</time></trkpt><trkpt lat="55.9150421" lon="49.2582467"><time>2023-06-03T06:48:09.857</time></trkpt><trkpt lat="55.9149937" lon="49.2582106"><time>2023-06-03T06:48:11.850</time></trkpt><trkpt lat="55.9149312" lon="49.2581499"><time>2023-06-03T06:48:13.853</time></trkpt><trkpt lat="55.9148643" lon="49.2580644"><time>2023-06-03T06:48:15.850</time></trkpt><trkpt lat="55.9148251" lon="49.2580198"><time>2023-06-03T06:48:16.857</time></trkpt><trkpt lat="55.9147579" lon="49.2579466"><time>2023-06-03T06:48:18.843</time></trkpt><trkpt lat="55.9146857" lon="49.2578571"><time>2023-06-03T06:48:20.840</time></trkpt><trkpt lat="55.9146476" lon="49.2578113"><time>2023-06-03T06:48:21.857</time></trkpt><trkpt lat="55.9146076" lon="49.2577657"><time>2023-06-03T06:48:22.877</time></trkpt><trkpt lat="55.9145616" lon="49.2577109"><time>2023-06-03T06:48:23.850</time></trkpt><trkpt lat="55.9145220" lon="49.2576669"><time>2023-06-03T06:48:24.850</time></trkpt><trkpt lat="55.9144502" lon="49.2576076"><time>2023-06-03T06:48:26.857</time></trkpt><trkpt lat="55.9143681" lon="49.2575606"><time>2023-06-03T06:48:28.867</time></trkpt><trkpt lat="55.9143180" lon="49.2575354"><time>2023-06-03T06:48:29.857</time></trkpt><trkpt lat="55.9142727" lon="49.2575218"><time>2023-06-03T06:48:30.847</time></trkpt><trkpt lat="55.9142007" lon="49.2575216"><time>2023-06-03T06:48:32.853</time></trkpt><trkpt lat="55.9141192" lon="49.2575373"><time>2023-06-03T06:48:34.873</time></trkpt><trkpt lat="55.9140452" lon="49.2575669"><time>2023-06-03T06:48:36.850</time></trkpt><trkpt lat="55.9139625" lon="49.2576023"><time>2023-06-03T06:48:38.840</time></trkpt><trkpt lat="55.9138796" lon="49.2576255"><time>2023-06-03T06:48:40.870</time></trkpt><trkpt lat="55.9138408" lon="49.2576313"><time>2023-06-03T06:48:41.857</time></trkpt><trkpt lat="55.9137662" lon="49.2576266"><time>2023-06-03T06:48:43.857</time></trkpt><trkpt lat="55.9137133" lon="49.2576020"><time>2023-06-03T06:48:45.850</time></trkpt><trkpt lat="55.9136721" lon="49.2575603"><time>2023-06-03T06:48:48.850</time></trkpt><trkpt lat="55.9136284" lon="49.2575994"><time>2023-06-03T06:48:54.853</time></trkpt><trkpt lat="55.9136284" lon="49.2575994"><time>2023-06-03T06:48:54.900</time></trkpt><trkpt lat="55.9136729" lon="49.2576156"><time>2023-06-03T06:49:02.883</time></trkpt><trkpt lat="55.9136964" lon="49.2576144"><time>2023-06-03T06:49:03.857</time></trkpt><trkpt lat="55.9137414" lon="49.2576336"><time>2023-06-03T06:49:11.850</time></trkpt><trkpt lat="55.9137818" lon="49.2576788"><time>2023-06-03T06:49:34.880</time></trkpt><trkpt lat="55.9138369" lon="49.2576857"><time>2023-06-03T06:49:36.853</time></trkpt><trkpt lat="55.9139043" lon="49.2576890"><time>2023-06-03T06:49:38.853</time></trkpt><trkpt lat="55.9139692" lon="49.2576903"><time>2023-06-03T06:49:40.857</time></trkpt><trkpt lat="55.9140450" lon="49.2576811"><time>2023-06-03T06:49:42.847</time></trkpt><trkpt lat="55.9141200" lon="49.2576490"><time>2023-06-03T06:49:44.847</time></trkpt><trkpt lat="55.9141787" lon="49.2576123"><time>2023-06-03T06:49:46.867</time></trkpt><trkpt lat="55.9142374" lon="49.2575926"><time>2023-06-03T06:49:48.847</time></trkpt><trkpt lat="55.9143022" lon="49.2575928"><time>2023-06-03T06:49:50.860</time></trkpt><trkpt lat="55.9143733" lon="49.2576179"><time>2023-06-03T06:49:52.853</time></trkpt><trkpt lat="55.9144427" lon="49.2576638"><time>2023-06-03T06:49:54.850</time></trkpt><trkpt lat="55.9145013" lon="49.2577153"><time>2023-06-03T06:49:56.843</time></trkpt><trkpt lat="55.9145512" lon="49.2577782"><time>2023-06-03T06:49:58.877</time></trkpt><trkpt lat="55.9145956" lon="49.2578395"><time>2023-06-03T06:50:00.850</time></trkpt><trkpt lat="55.9146444" lon="49.2579192"><time>2023-06-03T06:50:02.857</time></trkpt><trkpt lat="55.9146842" lon="49.2580032"><time>2023-06-03T06:50:04.867</time></trkpt><trkpt lat="55.9147424" lon="49.2580877"><time>2023-06-03T06:50:06.847</time></trkpt><trkpt lat="55.9148012" lon="49.2581616"><time>2023-06-03T06:50:08.860</time></trkpt><trkpt lat="55.9148714" lon="49.2582556"><time>2023-06-03T06:50:10.877</time></trkpt><trkpt lat="55.9149124" lon="49.2583028"><time>2023-06-03T06:50:11.843</time></trkpt><trkpt lat="55.9149557" lon="49.2583485"><time>2023-06-03T06:50:12.847</time></trkpt><trkpt lat="55.9150132" lon="49.2584401"><time>2023-06-03T06:50:13.843</time></trkpt><trkpt lat="55.9150467" lon="49.2585124"><time>2023-06-03T06:50:14.863</time></trkpt><trkpt lat="55.9151029" lon="49.2585435"><time>2023-06-03T06:50:15.863</time></trkpt><trkpt lat="55.9151436" lon="49.2586277"><time>2023-06-03T06:50:17.853</time></trkpt><trkpt lat="55.9151669" lon="49.2587346"><time>2023-06-03T06:50:19.860</time></trkpt><trkpt lat="55.9151773" lon="49.2588250"><time>2023-06-03T06:50:21.847</time></trkpt><trkpt lat="55.9152156" lon="49.2589002"><time>2023-06-03T06:50:22.877</time></trkpt><trkpt lat="55.9152456" lon="49.2589785"><time>2023-06-03T06:50:23.850</time></trkpt><trkpt lat="55.9152695" lon="49.2590502"><time>2023-06-03T06:50:24.847</time></trkpt><trkpt lat="55.9152950" lon="49.2591812"><time>2023-06-03T06:50:26.850</time></trkpt><trkpt lat="55.9153298" lon="49.2592820"><time>2023-06-03T06:50:28.843</time></trkpt><trkpt lat="55.9153592" lon="49.2593806"><time>2023-06-03T06:50:30.843</time></trkpt><trkpt lat="55.9153902" lon="49.2594906"><time>2023-06-03T06:50:32.840</time></trkpt><trkpt lat="55.9154300" lon="49.2596080"><time>2023-06-03T06:50:34.847</time></trkpt><trkpt lat="55.9154766" lon="49.2597015"><time>2023-06-03T06:50:36.857</time></trkpt><trkpt lat="55.9155268" lon="49.2597850"><time>2023-06-03T06:50:38.833</time></trkpt><trkpt lat="55.9155862" lon="49.2598788"><time>2023-06-03T06:50:40.843</time></trkpt><trkpt lat="55.9156208" lon="49.2599343"><time>2023-06-03T06:50:41.847</time></trkpt><trkpt lat="55.9156667" lon="49.2599952"><time>2023-06-03T06:50:42.847</time></trkpt><trkpt lat="55.9157141" lon="49.2600459"><time>2023-06-03T06:50:43.853</time></trkpt><trkpt lat="55.9157601" lon="49.2600800"><time>2023-06-03T06:50:44.847</time></trkpt><trkpt lat="55.9158231" lon="49.2601727"><time>2023-06-03T06:50:46.850</time></trkpt><trkpt lat="55.9158822" lon="49.2602669"><time>2023-06-03T06:50:48.850</time></trkpt><trkpt lat="55.9159516" lon="49.2603181"><time>2023-06-03T06:50:50.830</time></trkpt><trkpt lat="55.9160174" lon="49.2603893"><time>2023-06-03T06:50:52.850</time></trkpt><trkpt lat="55.9160587" lon="49.2604669"><time>2023-06-03T06:50:54.847</time></trkpt><trkpt lat="55.9160957" lon="49.2605291"><time>2023-06-03T06:50:56.857</time></trkpt><trkpt lat="55.9161290" lon="49.2606119"><time>2023-06-03T06:50:58.843</time></trkpt><trkpt lat="55.9161895" lon="49.2606978"><time>2023-06-03T06:51:00.843</time></trkpt><trkpt lat="55.9162566" lon="49.2607967"><time>2023-06-03T06:51:02.860</time></trkpt><trkpt lat="55.9162906" lon="49.2608531"><time>2023-06-03T06:51:03.867</time></trkpt><trkpt lat="55.9163528" lon="49.2609563"><time>2023-06-03T06:51:05.853</time></trkpt><trkpt lat="55.9163865" lon="49.2610146"><time>2023-06-03T06:51:06.843</time></trkpt><trkpt lat="55.9164458" lon="49.2611113"><time>2023-06-03T06:51:07.863</time></trkpt><trkpt lat="55.9165067" lon="49.2611757"><time>2023-06-03T06:51:09.873</time></trkpt><trkpt lat="55.9165661" lon="49.2612585"><time>2023-06-03T06:51:11.853</time></trkpt><trkpt lat="55.9166037" lon="49.2613357"><time>2023-06-03T06:51:13.853</time></trkpt><trkpt lat="55.9166589" lon="49.2613748"><time>2023-06-03T06:51:14.850</time></trkpt><trkpt lat="55.9167220" lon="49.2614431"><time>2023-06-03T06:51:16.853</time></trkpt><trkpt lat="55.9167655" lon="49.2614646"><time>2023-06-03T06:51:17.847</time></trkpt><trkpt lat="55.9168505" lon="49.2615062"><time>2023-06-03T06:51:19.853</time></trkpt><trkpt lat="55.9169273" lon="49.2615370"><time>2023-06-03T06:51:21.847</time></trkpt><trkpt lat="55.9170016" lon="49.2615578"><time>2023-06-03T06:51:23.850</time></trkpt><trkpt lat="55.9170761" lon="49.2615453"><time>2023-06-03T06:51:25.843</time></trkpt><trkpt lat="55.9171452" lon="49.2614843"><time>2023-06-03T06:51:26.850</time></trkpt><trkpt lat="55.9171677" lon="49.2614145"><time>2023-06-03T06:51:27.857</time></trkpt><trkpt lat="55.9172196" lon="49.2613557"><time>2023-06-03T06:51:28.870</time></trkpt><trkpt lat="55.9172561" lon="49.2612735"><time>2023-06-03T06:51:29.850</time></trkpt><trkpt lat="55.9172907" lon="49.2612048"><time>2023-06-03T06:51:30.847</time></trkpt><trkpt lat="55.9173254" lon="49.2611104"><time>2023-06-03T06:51:31.860</time></trkpt><trkpt lat="55.9173489" lon="49.2609901"><time>2023-06-03T06:51:33.853</time></trkpt><trkpt lat="55.9173750" lon="49.2609242"><time>2023-06-03T06:51:34.877</time></trkpt><trkpt lat="55.9173824" lon="49.2607950"><time>2023-06-03T06:51:36.857</time></trkpt><trkpt lat="55.9174083" lon="49.2606843"><time>2023-06-03T06:51:38.847</time></trkpt><trkpt lat="55.9174508" lon="49.2605760"><time>2023-06-03T06:51:40.857</time></trkpt><trkpt lat="55.9174853" lon="49.2604835"><time>2023-06-03T06:51:42.850</time></trkpt><trkpt lat="55.9175308" lon="49.2603510"><time>2023-06-03T06:51:44.847</time></trkpt><trkpt lat="55.9175574" lon="49.2602805"><time>2023-06-03T06:51:45.857</time></trkpt><trkpt lat="55.9175827" lon="49.2602120"><time>2023-06-03T06:51:46.880</time></trkpt><trkpt lat="55.9176401" lon="49.2601452"><time>2023-06-03T06:51:47.863</time></trkpt><trkpt lat="55.9176802" lon="49.2600875"><time>2023-06-03T06:51:48.847</time></trkpt><trkpt lat="55.9177112" lon="49.2600153"><time>2023-06-03T06:51:49.850</time></trkpt><trkpt lat="55.9177646" lon="49.2599451"><time>2023-06-03T06:51:50.843</time></trkpt><trkpt lat="55.9177856" lon="49.2598096"><time>2023-06-03T06:51:52.863</time></trkpt><trkpt lat="55.9178233" lon="49.2597014"><time>2023-06-03T06:51:54.840</time></trkpt><trkpt lat="55.9178631" lon="49.2595711"><time>2023-06-03T06:51:56.860</time></trkpt><trkpt lat="55.9178870" lon="49.2594994"><time>2023-06-03T06:51:57.833</time></trkpt><trkpt lat="55.9179170" lon="49.2594234"><time>2023-06-03T06:51:58.877</time></trkpt><trkpt lat="55.9179497" lon="49.2593442"><time>2023-06-03T06:51:59.850</time></trkpt><trkpt lat="55.9179539" lon="49.2592485"><time>2023-06-03T06:52:00.843</time></trkpt><trkpt lat="55.9180016" lon="49.2591109"><time>2023-06-03T06:52:02.847</time></trkpt><trkpt lat="55.9180522" lon="49.2590301"><time>2023-06-03T06:52:04.877</time></trkpt><trkpt lat="55.9180966" lon="49.2589052"><time>2023-06-03T06:52:06.843</time></trkpt><trkpt lat="55.9181148" lon="49.2587608"><time>2023-06-03T06:52:08.843</time></trkpt><trkpt lat="55.9181179" lon="49.2586769"><time>2023-06-03T06:52:09.850</time></trkpt><trkpt lat="55.9181271" lon="49.2585839"><time>2023-06-03T06:52:10.873</time></trkpt><trkpt lat="55.9181332" lon="49.2584520"><time>2023-06-03T06:52:12.847</time></trkpt><trkpt lat="55.9181492" lon="49.2583168"><time>2023-06-03T06:52:14.850</time></trkpt><trkpt lat="55.9181697" lon="49.2581426"><time>2023-06-03T06:52:16.857</time></trkpt><trkpt lat="55.9181882" lon="49.2579895"><time>2023-06-03T06:52:18.840</time></trkpt><trkpt lat="55.9182228" lon="49.2578662"><time>2023-06-03T06:52:20.843</time></trkpt><trkpt lat="55.9182502" lon="49.2577967"><time>2023-06-03T06:52:21.847</time></trkpt><trkpt lat="55.9182956" lon="49.2577509"><time>2023-06-03T06:52:23.850</time></trkpt><trkpt lat="55.9183573" lon="49.2577418"><time>2023-06-03T06:52:25.847</time></trkpt><trkpt lat="55.9184206" lon="49.2577181"><time>2023-06-03T06:52:27.853</time></trkpt><trkpt lat="55.9184849" lon="49.2576654"><time>2023-06-03T06:52:29.847</time></trkpt><trkpt lat="55.9185616" lon="49.2575892"><time>2023-06-03T06:52:31.857</time></trkpt><trkpt lat="55.9186018" lon="49.2575457"><time>2023-06-03T06:52:32.847</time></trkpt><trkpt lat="55.9186458" lon="49.2574484"><time>2023-06-03T06:52:33.860</time></trkpt><trkpt lat="55.9186760" lon="49.2573877"><time>2023-06-03T06:52:34.880</time></trkpt><trkpt lat="55.9187701" lon="49.2572626"><time>2023-06-03T06:52:36.857</time></trkpt><trkpt lat="55.9188058" lon="49.2572021"><time>2023-06-03T06:52:37.840</time></trkpt><trkpt lat="55.9188425" lon="49.2571125"><time>2023-06-03T06:52:38.833</time></trkpt><trkpt lat="55.9188727" lon="49.2570505"><time>2023-06-03T06:52:39.860</time></trkpt><trkpt lat="55.9189241" lon="49.2569295"><time>2023-06-03T06:52:41.853</time></trkpt><trkpt lat="55.9189552" lon="49.2568250"><time>2023-06-03T06:52:43.860</time></trkpt><trkpt lat="55.9190035" lon="49.2567091"><time>2023-06-03T06:52:45.857</time></trkpt><trkpt lat="55.9190251" lon="49.2565814"><time>2023-06-03T06:52:47.853</time></trkpt><trkpt lat="55.9190627" lon="49.2564775"><time>2023-06-03T06:52:49.850</time></trkpt><trkpt lat="55.9191070" lon="49.2563594"><time>2023-06-03T06:52:51.847</time></trkpt><trkpt lat="55.9191273" lon="49.2562854"><time>2023-06-03T06:52:52.857</time></trkpt><trkpt lat="55.9191475" lon="49.2562129"><time>2023-06-03T06:52:53.853</time></trkpt><trkpt lat="55.9191893" lon="49.2560704"><time>2023-06-03T06:52:55.850</time></trkpt><trkpt lat="55.9192013" lon="49.2559507"><time>2023-06-03T06:52:56.840</time></trkpt><trkpt lat="55.9192271" lon="49.2558508"><time>2023-06-03T06:52:57.850</time></trkpt><trkpt lat="55.9192251" lon="49.2557702"><time>2023-06-03T06:52:58.870</time></trkpt><trkpt lat="55.9192375" lon="49.2556797"><time>2023-06-03T06:52:59.853</time></trkpt><trkpt lat="55.9192699" lon="49.2555822"><time>2023-06-03T06:53:00.843</time></trkpt><trkpt lat="55.9192875" lon="49.2555065"><time>2023-06-03T06:53:01.847</time></trkpt><trkpt lat="55.9193086" lon="49.2554189"><time>2023-06-03T06:53:03.863</time></trkpt><trkpt lat="55.9193495" lon="49.2552671"><time>2023-06-03T06:53:05.850</time></trkpt><trkpt lat="55.9193721" lon="49.2551815"><time>2023-06-03T06:53:06.850</time></trkpt><trkpt lat="55.9193842" lon="49.2550828"><time>2023-06-03T06:53:07.843</time></trkpt><trkpt lat="55.9193922" lon="49.2549769"><time>2023-06-03T06:53:08.847</time></trkpt><trkpt lat="55.9194288" lon="49.2548867"><time>2023-06-03T06:53:09.857</time></trkpt><trkpt lat="55.9194477" lon="49.2548002"><time>2023-06-03T06:53:10.887</time></trkpt><trkpt lat="55.9194921" lon="49.2547225"><time>2023-06-03T06:53:11.847</time></trkpt><trkpt lat="55.9195358" lon="49.2546435"><time>2023-06-03T06:53:12.843</time></trkpt><trkpt lat="55.9195373" lon="49.2545463"><time>2023-06-03T06:53:13.860</time></trkpt><trkpt lat="55.9195407" lon="49.2544408"><time>2023-06-03T06:53:14.840</time></trkpt><trkpt lat="55.9195482" lon="49.2543504"><time>2023-06-03T06:53:15.847</time></trkpt><trkpt lat="55.9195757" lon="49.2542134"><time>2023-06-03T06:53:17.850</time></trkpt><trkpt lat="55.9196434" lon="49.2541495"><time>2023-06-03T06:53:19.840</time></trkpt><trkpt lat="55.9196955" lon="49.2542040"><time>2023-06-03T06:53:25.843</time></trkpt><trkpt lat="55.9197759" lon="49.2542468"><time>2023-06-03T06:53:27.843</time></trkpt><trkpt lat="55.9198572" lon="49.2542964"><time>2023-06-03T06:53:29.857</time></trkpt><trkpt lat="55.9199212" lon="49.2543417"><time>2023-06-03T06:53:30.837</time></trkpt><trkpt lat="55.9199786" lon="49.2543492"><time>2023-06-03T06:53:31.863</time></trkpt><trkpt lat="55.9200575" lon="49.2543501"><time>2023-06-03T06:53:33.850</time></trkpt><trkpt lat="55.9201222" lon="49.2543580"><time>2023-06-03T06:53:34.923</time></trkpt><trkpt lat="55.9201776" lon="49.2543487"><time>2023-06-03T06:53:35.853</time></trkpt><trkpt lat="55.9202337" lon="49.2543849"><time>2023-06-03T06:53:36.843</time></trkpt><trkpt lat="55.9203231" lon="49.2544514"><time>2023-06-03T06:53:38.847</time></trkpt><trkpt lat="55.9203679" lon="49.2544894"><time>2023-06-03T06:53:39.857</time></trkpt><trkpt lat="55.9204780" lon="49.2545324"><time>2023-06-03T06:53:41.843</time></trkpt><trkpt lat="55.9205609" lon="49.2545975"><time>2023-06-03T06:53:43.847</time></trkpt><trkpt lat="55.9206151" lon="49.2546381"><time>2023-06-03T06:53:44.847</time></trkpt><trkpt lat="55.9206578" lon="49.2546645"><time>2023-06-03T06:53:45.850</time></trkpt><trkpt lat="55.9207146" lon="49.2547261"><time>2023-06-03T06:53:46.870</time></trkpt><trkpt lat="55.9207841" lon="49.2548157"><time>2023-06-03T06:53:48.840</time></trkpt><trkpt lat="55.9208387" lon="49.2548634"><time>2023-06-03T06:53:50.850</time></trkpt><trkpt lat="55.9209284" lon="49.2549503"><time>2023-06-03T06:53:52.860</time></trkpt><trkpt lat="55.9209731" lon="49.2549953"><time>2023-06-03T06:53:53.860</time></trkpt><trkpt lat="55.9210166" lon="49.2550288"><time>2023-06-03T06:53:54.850</time></trkpt><trkpt lat="55.9210810" lon="49.2550813"><time>2023-06-03T06:53:56.857</time></trkpt><trkpt lat="55.9211236" lon="49.2551622"><time>2023-06-03T06:53:57.857</time></trkpt><trkpt lat="55.9211687" lon="49.2552061"><time>2023-06-03T06:53:58.870</time></trkpt><trkpt lat="55.9212663" lon="49.2552929"><time>2023-06-03T06:53:59.847</time></trkpt><trkpt lat="55.9213096" lon="49.2553493"><time>2023-06-03T06:54:00.843</time></trkpt><trkpt lat="55.9213849" lon="49.2553650"><time>2023-06-03T06:54:01.853</time></trkpt><trkpt lat="55.9214454" lon="49.2554117"><time>2023-06-03T06:54:02.843</time></trkpt><trkpt lat="55.9215030" lon="49.2555020"><time>2023-06-03T06:54:03.840</time></trkpt><trkpt lat="55.9215631" lon="49.2555520"><time>2023-06-03T06:54:04.857</time></trkpt><trkpt lat="55.9216404" lon="49.2556347"><time>2023-06-03T06:54:06.860</time></trkpt><trkpt lat="55.9216917" lon="49.2556912"><time>2023-06-03T06:54:07.857</time></trkpt><trkpt lat="55.9217322" lon="49.2557329"><time>2023-06-03T06:54:08.843</time></trkpt><trkpt lat="55.9218136" lon="49.2558083"><time>2023-06-03T06:54:10.883</time></trkpt><trkpt lat="55.9218728" lon="49.2558607"><time>2023-06-03T06:54:11.853</time></trkpt><trkpt lat="55.9219516" lon="49.2558388"><time>2023-06-03T06:54:12.850</time></trkpt><trkpt lat="55.9220218" lon="49.2558523"><time>2023-06-03T06:54:13.843</time></trkpt><trkpt lat="55.9220849" lon="49.2558417"><time>2023-06-03T06:54:14.847</time></trkpt><trkpt lat="55.9221503" lon="49.2558276"><time>2023-06-03T06:54:15.847</time></trkpt><trkpt lat="55.9222054" lon="49.2558109"><time>2023-06-03T06:54:16.843</time></trkpt><trkpt lat="55.9222770" lon="49.2558040"><time>2023-06-03T06:54:17.850</time></trkpt><trkpt lat="55.9223402" lon="49.2557935"><time>2023-06-03T06:54:18.850</time></trkpt><trkpt lat="55.9223977" lon="49.2557641"><time>2023-06-03T06:54:19.853</time></trkpt><trkpt lat="55.9224576" lon="49.2557486"><time>2023-06-03T06:54:20.860</time></trkpt><trkpt lat="55.9225275" lon="49.2557516"><time>2023-06-03T06:54:21.870</time></trkpt><trkpt lat="55.9226058" lon="49.2557656"><time>2023-06-03T06:54:22.843</time></trkpt><trkpt lat="55.9226731" lon="49.2557779"><time>2023-06-03T06:54:23.850</time></trkpt><trkpt lat="55.9227339" lon="49.2557879"><time>2023-06-03T06:54:24.853</time></trkpt><trkpt lat="55.9227899" lon="49.2558209"><time>2023-06-03T06:54:25.843</time></trkpt><trkpt lat="55.9228468" lon="49.2558469"><time>2023-06-03T06:54:26.840</time></trkpt><trkpt lat="55.9228974" lon="49.2558802"><time>2023-06-03T06:54:27.860</time></trkpt><trkpt lat="55.9229457" lon="49.2559270"><time>2023-06-03T06:54:28.843</time></trkpt><trkpt lat="55.9229972" lon="49.2559716"><time>2023-06-03T06:54:29.853</time></trkpt><trkpt lat="55.9230315" lon="49.2560345"><time>2023-06-03T06:54:30.853</time></trkpt><trkpt lat="55.9230680" lon="49.2560864"><time>2023-06-03T06:54:31.843</time></trkpt><trkpt lat="55.9231049" lon="49.2561349"><time>2023-06-03T06:54:32.847</time></trkpt><trkpt lat="55.9231791" lon="49.2561622"><time>2023-06-03T06:54:33.883</time></trkpt><trkpt lat="55.9232667" lon="49.2562402"><time>2023-06-03T06:54:34.843</time></trkpt><trkpt lat="55.9233240" lon="49.2563073"><time>2023-06-03T06:54:35.850</time></trkpt><trkpt lat="55.9233742" lon="49.2563556"><time>2023-06-03T06:54:36.847</time></trkpt><trkpt lat="55.9234138" lon="49.2564206"><time>2023-06-03T06:54:37.843</time></trkpt><trkpt lat="55.9234681" lon="49.2564912"><time>2023-06-03T06:54:38.833</time></trkpt><trkpt lat="55.9235113" lon="49.2565500"><time>2023-06-03T06:54:39.867</time></trkpt><trkpt lat="55.9235691" lon="49.2565644"><time>2023-06-03T06:54:40.840</time></trkpt><trkpt lat="55.9236275" lon="49.2566034"><time>2023-06-03T06:54:41.847</time></trkpt><trkpt lat="55.9237245" lon="49.2566791"><time>2023-06-03T06:54:43.850</time></trkpt><trkpt lat="55.9237922" lon="49.2567033"><time>2023-06-03T06:54:44.843</time></trkpt><trkpt lat="55.9238537" lon="49.2567182"><time>2023-06-03T06:54:45.877</time></trkpt><trkpt lat="55.9239262" lon="49.2567480"><time>2023-06-03T06:54:46.857</time></trkpt><trkpt lat="55.9239803" lon="49.2567804"><time>2023-06-03T06:54:47.857</time></trkpt><trkpt lat="55.9240801" lon="49.2567668"><time>2023-06-03T06:54:49.843</time></trkpt><trkpt lat="55.9241380" lon="49.2567705"><time>2023-06-03T06:54:50.847</time></trkpt><trkpt lat="55.9242052" lon="49.2567621"><time>2023-06-03T06:54:51.847</time></trkpt><trkpt lat="55.9242916" lon="49.2567635"><time>2023-06-03T06:54:52.840</time></trkpt><trkpt lat="55.9243588" lon="49.2568117"><time>2023-06-03T06:54:53.850</time></trkpt><trkpt lat="55.9244421" lon="49.2567784"><time>2023-06-03T06:54:54.853</time></trkpt><trkpt lat="55.9245119" lon="49.2567386"><time>2023-06-03T06:54:56.880</time></trkpt><trkpt lat="55.9245628" lon="49.2567370"><time>2023-06-03T06:54:57.850</time></trkpt><trkpt lat="55.9246139" lon="49.2567018"><time>2023-06-03T06:54:58.847</time></trkpt><trkpt lat="55.9246671" lon="49.2566353"><time>2023-06-03T06:54:59.857</time></trkpt><trkpt lat="55.9247219" lon="49.2566068"><time>2023-06-03T06:55:00.850</time></trkpt><trkpt lat="55.9248213" lon="49.2565519"><time>2023-06-03T06:55:02.857</time></trkpt><trkpt lat="55.9248719" lon="49.2565383"><time>2023-06-03T06:55:03.837</time></trkpt><trkpt lat="55.9249196" lon="49.2565351"><time>2023-06-03T06:55:04.850</time></trkpt><trkpt lat="55.9249696" lon="49.2565199"><time>2023-06-03T06:55:05.863</time></trkpt><trkpt lat="55.9250367" lon="49.2564509"><time>2023-06-03T06:55:06.847</time></trkpt><trkpt lat="55.9251145" lon="49.2564501"><time>2023-06-03T06:55:07.850</time></trkpt><trkpt lat="55.9251735" lon="49.2564262"><time>2023-06-03T06:55:08.877</time></trkpt><trkpt lat="55.9252196" lon="49.2564162"><time>2023-06-03T06:55:09.843</time></trkpt><trkpt lat="55.9252770" lon="49.2564365"><time>2023-06-03T06:55:10.843</time></trkpt><trkpt lat="55.9253689" lon="49.2564572"><time>2023-06-03T06:55:12.847</time></trkpt><trkpt lat="55.9254189" lon="49.2565140"><time>2023-06-03T06:55:13.857</time></trkpt><trkpt lat="55.9254669" lon="49.2565516"><time>2023-06-03T06:55:14.857</time></trkpt><trkpt lat="55.9255248" lon="49.2566217"><time>2023-06-03T06:55:15.847</time></trkpt><trkpt lat="55.9255532" lon="49.2566859"><time>2023-06-03T06:55:16.853</time></trkpt><trkpt lat="55.9255956" lon="49.2567453"><time>2023-06-03T06:55:17.857</time></trkpt><trkpt lat="55.9256449" lon="49.2568524"><time>2023-06-03T06:55:19.860</time></trkpt><trkpt lat="55.9256941" lon="49.2569035"><time>2023-06-03T06:55:20.880</time></trkpt><trkpt lat="55.9257808" lon="49.2569992"><time>2023-06-03T06:55:22.847</time></trkpt><trkpt lat="55.9258285" lon="49.2570768"><time>2023-06-03T06:55:23.853</time></trkpt><trkpt lat="55.9258676" lon="49.2571368"><time>2023-06-03T06:55:24.863</time></trkpt><trkpt lat="55.9259158" lon="49.2572202"><time>2023-06-03T06:55:25.847</time></trkpt><trkpt lat="55.9259567" lon="49.2573093"><time>2023-06-03T06:55:26.867</time></trkpt><trkpt lat="55.9260241" lon="49.2574154"><time>2023-06-03T06:55:28.843</time></trkpt><trkpt lat="55.9260586" lon="49.2574810"><time>2023-06-03T06:55:29.850</time></trkpt><trkpt lat="55.9260968" lon="49.2575377"><time>2023-06-03T06:55:30.837</time></trkpt><trkpt lat="55.9261321" lon="49.2575960"><time>2023-06-03T06:55:31.853</time></trkpt><trkpt lat="55.9262067" lon="49.2576679"><time>2023-06-03T06:55:33.857</time></trkpt><trkpt lat="55.9262533" lon="49.2577422"><time>2023-06-03T06:55:34.840</time></trkpt><trkpt lat="55.9263269" lon="49.2578237"><time>2023-06-03T06:55:36.850</time></trkpt><trkpt lat="55.9263747" lon="49.2578791"><time>2023-06-03T06:55:38.867</time></trkpt><trkpt lat="55.9264231" lon="49.2578906"><time>2023-06-03T06:55:39.857</time></trkpt><trkpt lat="55.9265066" lon="49.2579785"><time>2023-06-03T06:55:41.843</time></trkpt><trkpt lat="55.9265670" lon="49.2580215"><time>2023-06-03T06:55:43.850</time></trkpt><trkpt lat="55.9266236" lon="49.2580364"><time>2023-06-03T06:55:44.883</time></trkpt><trkpt lat="55.9266663" lon="49.2580688"><time>2023-06-03T06:55:45.850</time></trkpt><trkpt lat="55.9267272" lon="49.2581512"><time>2023-06-03T06:55:48.843</time></trkpt><trkpt lat="55.9267824" lon="49.2581656"><time>2023-06-03T06:55:49.853</time></trkpt><trkpt lat="55.9268398" lon="49.2582005"><time>2023-06-03T06:55:51.847</time></trkpt><trkpt lat="55.9268956" lon="49.2582082"><time>2023-06-03T06:55:53.853</time></trkpt><trkpt lat="55.9269482" lon="49.2581570"><time>2023-06-03T06:55:56.883</time></trkpt><trkpt lat="55.9269656" lon="49.2580633"><time>2023-06-03T06:55:58.837</time></trkpt><trkpt lat="55.9269700" lon="49.2579525"><time>2023-06-03T06:56:00.847</time></trkpt><trkpt lat="55.9269671" lon="49.2578462"><time>2023-06-03T06:56:02.863</time></trkpt><trkpt lat="55.9269537" lon="49.2577511"><time>2023-06-03T06:56:04.840</time></trkpt><trkpt lat="55.9269126" lon="49.2577109"><time>2023-06-03T06:56:13.850</time></trkpt><trkpt lat="55.9269543" lon="49.2576423"><time>2023-06-03T06:56:18.847</time></trkpt><trkpt lat="55.9269355" lon="49.2575415"><time>2023-06-03T06:56:21.847</time></trkpt><trkpt lat="55.9269156" lon="49.2574697"><time>2023-06-03T06:56:23.853</time></trkpt><trkpt lat="55.9268917" lon="49.2573777"><time>2023-06-03T06:56:25.837</time></trkpt><trkpt lat="55.9268709" lon="49.2573011"><time>2023-06-03T06:56:27.843</time></trkpt><trkpt lat="55.9268262" lon="49.2572258"><time>2023-06-03T06:56:30.853</time></trkpt><trkpt lat="55.9268071" lon="49.2571230"><time>2023-06-03T06:56:35.853</time></trkpt><trkpt lat="55.9267808" lon="49.2570259"><time>2023-06-03T06:56:39.850</time></trkpt><trkpt lat="55.9267611" lon="49.2569359"><time>2023-06-03T06:56:41.837</time></trkpt><trkpt lat="55.9267438" lon="49.2568422"><time>2023-06-03T06:56:43.840</time></trkpt><trkpt lat="55.9267239" lon="49.2567644"><time>2023-06-03T06:56:45.833</time></trkpt><trkpt lat="55.9267091" lon="49.2566711"><time>2023-06-03T06:56:48.840</time></trkpt><trkpt lat="55.9267248" lon="49.2565925"><time>2023-06-03T06:56:51.847</time></trkpt><trkpt lat="55.9267512" lon="49.2565239"><time>2023-06-03T06:56:57.833</time></trkpt><trkpt lat="55.9267284" lon="49.2564130"><time>2023-06-03T06:57:31.853</time></trkpt><trkpt lat="55.9267212" lon="49.2563051"><time>2023-06-03T06:57:33.857</time></trkpt><trkpt lat="55.9267277" lon="49.2561547"><time>2023-06-03T06:57:35.850</time></trkpt><trkpt lat="55.9267336" lon="49.2560169"><time>2023-06-03T06:57:37.850</time></trkpt><trkpt lat="55.9267321" lon="49.2559014"><time>2023-06-03T06:57:39.847</time></trkpt><trkpt lat="55.9267239" lon="49.2557842"><time>2023-06-03T06:57:41.853</time></trkpt><trkpt lat="55.9267347" lon="49.2556789"><time>2023-06-03T06:57:43.850</time></trkpt><trkpt lat="55.9267593" lon="49.2555741"><time>2023-06-03T06:57:45.843</time></trkpt><trkpt lat="55.9267721" lon="49.2554680"><time>2023-06-03T06:57:47.853</time></trkpt><trkpt lat="55.9267825" lon="49.2553767"><time>2023-06-03T06:57:50.860</time></trkpt><trkpt lat="55.9267744" lon="49.2552756"><time>2023-06-03T06:57:54.847</time></trkpt><trkpt lat="55.9267597" lon="49.2551984"><time>2023-06-03T06:57:56.880</time></trkpt><trkpt lat="55.9267760" lon="49.2550948"><time>2023-06-03T06:57:59.847</time></trkpt><trkpt lat="55.9267989" lon="49.2550150"><time>2023-06-03T06:58:02.857</time></trkpt><trkpt lat="55.9267863" lon="49.2549055"><time>2023-06-03T06:58:05.840</time></trkpt><trkpt lat="55.9267798" lon="49.2548248"><time>2023-06-03T06:58:08.870</time></trkpt><trkpt lat="55.9268326" lon="49.2548027"><time>2023-06-03T06:58:12.847</time></trkpt><trkpt lat="55.9267958" lon="49.2547320"><time>2023-06-03T06:58:18.843</time></trkpt><trkpt lat="55.9267563" lon="49.2546858"><time>2023-06-03T06:58:20.880</time></trkpt><trkpt lat="55.9267107" lon="49.2546232"><time>2023-06-03T06:58:22.840</time></trkpt><trkpt lat="55.9266687" lon="49.2545657"><time>2023-06-03T06:58:26.867</time></trkpt><trkpt lat="55.9267085" lon="49.2545148"><time>2023-06-03T06:58:45.850</time></trkpt><trkpt lat="55.9267139" lon="49.2544330"><time>2023-06-03T06:58:55.873</time></trkpt><trkpt lat="55.9267147" lon="49.2543496"><time>2023-06-03T06:58:59.857</time></trkpt><trkpt lat="55.9266722" lon="49.2543104"><time>2023-06-03T06:59:32.853</time></trkpt><trkpt lat="55.9266938" lon="49.2542395"><time>2023-06-03T06:59:40.877</time></trkpt><trkpt lat="55.9267144" lon="49.2541660"><time>2023-06-03T06:59:46.863</time></trkpt><trkpt lat="55.9267338" lon="49.2540928"><time>2023-06-03T06:59:51.857</time></trkpt><trkpt lat="55.9267402" lon="49.2540030"><time>2023-06-03T06:59:57.847</time></trkpt><trkpt lat="55.9267705" lon="49.2539375"><time>2023-06-03T07:00:02.843</time></trkpt><trkpt lat="55.9267448" lon="49.2538694"><time>2023-06-03T07:00:10.847</time></trkpt><trkpt lat="55.9267281" lon="49.2537814"><time>2023-06-03T07:00:16.850</time></trkpt><trkpt lat="55.9266934" lon="49.2537036"><time>2023-06-03T07:00:20.840</time></trkpt><trkpt lat="55.9266720" lon="49.2536291"><time>2023-06-03T07:00:31.877</time></trkpt><trkpt lat="55.9266722" lon="49.2536215"><time>2023-06-03T07:00:32.867</time></trkpt><trkpt lat="55.9266578" lon="49.2535367"><time>2023-06-03T07:00:55.853</time></trkpt><trkpt lat="55.9266617" lon="49.2534563"><time>2023-06-03T07:01:00.840</time></trkpt><trkpt lat="55.9266359" lon="49.2533782"><time>2023-06-03T07:01:04.853</time></trkpt><trkpt lat="55.9266132" lon="49.2533086"><time>2023-06-03T07:01:09.837</time></trkpt><trkpt lat="55.9266445" lon="49.2532459"><time>2023-06-03T07:01:16.847</time></trkpt><trkpt lat="55.9266614" lon="49.2531666"><time>2023-06-03T07:01:33.850</time></trkpt><trkpt lat="55.9266755" lon="49.2532517"><time>2023-06-03T07:02:17.850</time></trkpt><trkpt lat="55.9266570" lon="49.2533296"><time>2023-06-03T07:02:31.880</time></trkpt><trkpt lat="55.9266540" lon="49.2534219"><time>2023-06-03T07:02:48.850</time></trkpt><trkpt lat="55.9266671" lon="49.2535206"><time>2023-06-03T07:02:52.853</time></trkpt><trkpt lat="55.9266749" lon="49.2536149"><time>2023-06-03T07:02:56.853</time></trkpt><trkpt lat="55.9266786" lon="49.2536955"><time>2023-06-03T07:03:00.857</time></trkpt><trkpt lat="55.9266836" lon="49.2537235"><time>2023-06-03T07:03:01.863</time></trkpt><trkpt lat="55.9266944" lon="49.2538119"><time>2023-06-03T07:03:05.847</time></trkpt><trkpt lat="55.9267001" lon="49.2538952"><time>2023-06-03T07:03:10.847</time></trkpt><trkpt lat="55.9267129" lon="49.2539895"><time>2023-06-03T07:03:14.843</time></trkpt><trkpt lat="55.9267138" lon="49.2540758"><time>2023-06-03T07:03:18.850</time></trkpt><trkpt lat="55.9267162" lon="49.2541644"><time>2023-06-03T07:03:24.843</time></trkpt><trkpt lat="55.9267031" lon="49.2542443"><time>2023-06-03T07:03:29.847</time></trkpt><trkpt lat="55.9266928" lon="49.2543245"><time>2023-06-03T07:03:34.837</time></trkpt><trkpt lat="55.9267145" lon="49.2543961"><time>2023-06-03T07:03:39.850</time></trkpt><trkpt lat="55.9267165" lon="49.2544857"><time>2023-06-03T07:03:44.840</time></trkpt><trkpt lat="55.9266708" lon="49.2545071"><time>2023-06-03T07:03:54.847</time></trkpt><trkpt lat="55.9266530" lon="49.2545912"><time>2023-06-03T07:04:00.837</time></trkpt><trkpt lat="55.9266762" lon="49.2546619"><time>2023-06-03T07:04:36.850</time></trkpt><trkpt lat="55.9267034" lon="49.2547263"><time>2023-06-03T07:04:40.833</time></trkpt><trkpt lat="55.9267158" lon="49.2548054"><time>2023-06-03T07:04:45.833</time></trkpt><trkpt lat="55.9267156" lon="49.2548940"><time>2023-06-03T07:04:49.880</time></trkpt><trkpt lat="55.9267322" lon="49.2549773"><time>2023-06-03T07:04:52.863</time></trkpt><trkpt lat="55.9267612" lon="49.2550552"><time>2023-06-03T07:05:02.847</time></trkpt><trkpt lat="55.9267316" lon="49.2551354"><time>2023-06-03T07:05:05.850</time></trkpt><trkpt lat="55.9267074" lon="49.2552250"><time>2023-06-03T07:05:09.850</time></trkpt><trkpt lat="55.9267064" lon="49.2553110"><time>2023-06-03T07:05:13.867</time></trkpt><trkpt lat="55.9266535" lon="49.2553329"><time>2023-06-03T07:05:17.847</time></trkpt><trkpt lat="55.9266054" lon="49.2552963"><time>2023-06-03T07:05:21.863</time></trkpt><trkpt lat="55.9265598" lon="49.2552931"><time>2023-06-03T07:05:24.847</time></trkpt><trkpt lat="55.9265155" lon="49.2552668"><time>2023-06-03T07:05:27.850</time></trkpt><trkpt lat="55.9264761" lon="49.2552064"><time>2023-06-03T07:05:30.840</time></trkpt><trkpt lat="55.9264436" lon="49.2551428"><time>2023-06-03T07:05:33.847</time></trkpt><trkpt lat="55.9264179" lon="49.2550667"><time>2023-06-03T07:05:36.847</time></trkpt><trkpt lat="55.9263820" lon="49.2549796"><time>2023-06-03T07:05:40.860</time></trkpt><trkpt lat="55.9263615" lon="49.2548937"><time>2023-06-03T07:05:44.843</time></trkpt><trkpt lat="55.9263505" lon="49.2548038"><time>2023-06-03T07:05:52.840</time></trkpt><trkpt lat="55.9263451" lon="49.2547019"><time>2023-06-03T07:05:56.837</time></trkpt><trkpt lat="55.9263542" lon="49.2546197"><time>2023-06-03T07:06:00.863</time></trkpt><trkpt lat="55.9263522" lon="49.2545335"><time>2023-06-03T07:06:03.850</time></trkpt><trkpt lat="55.9263413" lon="49.2544511"><time>2023-06-03T07:06:06.837</time></trkpt><trkpt lat="55.9263499" lon="49.2543693"><time>2023-06-03T07:06:10.857</time></trkpt><trkpt lat="55.9263544" lon="49.2542893"><time>2023-06-03T07:06:14.840</time></trkpt><trkpt lat="55.9263622" lon="49.2542013"><time>2023-06-03T07:06:18.847</time></trkpt><trkpt lat="55.9263399" lon="49.2541183"><time>2023-06-03T07:06:23.830</time></trkpt><trkpt lat="55.9263397" lon="49.2540363"><time>2023-06-03T07:06:29.850</time></trkpt><trkpt lat="55.9263411" lon="49.2539414"><time>2023-06-03T07:06:44.853</time></trkpt><trkpt lat="55.9263372" lon="49.2539307"><time>2023-06-03T07:06:45.843</time></trkpt><trkpt lat="55.9263088" lon="49.2538555"><time>2023-06-03T07:06:49.863</time></trkpt><trkpt lat="55.9262729" lon="49.2537905"><time>2023-06-03T07:06:52.837</time></trkpt><trkpt lat="55.9262364" lon="49.2537387"><time>2023-06-03T07:06:55.887</time></trkpt><trkpt lat="55.9262147" lon="49.2536651"><time>2023-06-03T07:07:07.877</time></trkpt><trkpt lat="55.9261758" lon="49.2535986"><time>2023-06-03T07:07:14.843</time></trkpt><trkpt lat="55.9261401" lon="49.2535453"><time>2023-06-03T07:07:18.830</time></trkpt><trkpt lat="55.9261093" lon="49.2534635"><time>2023-06-03T07:07:22.837</time></trkpt><trkpt lat="55.9260765" lon="49.2534041"><time>2023-06-03T07:07:26.863</time></trkpt><trkpt lat="55.9260414" lon="49.2533460"><time>2023-06-03T07:07:31.877</time></trkpt><trkpt lat="55.9259950" lon="49.2533084"><time>2023-06-03T07:07:37.853</time></trkpt><trkpt lat="55.9259663" lon="49.2532311"><time>2023-06-03T07:07:43.873</time></trkpt><trkpt lat="55.9259379" lon="49.2531464"><time>2023-06-03T07:07:49.853</time></trkpt><trkpt lat="55.9259107" lon="49.2530811"><time>2023-06-03T07:07:52.850</time></trkpt><trkpt lat="55.9258875" lon="49.2530078"><time>2023-06-03T07:07:57.847</time></trkpt><trkpt lat="55.9258439" lon="49.2529616"><time>2023-06-03T07:08:16.847</time></trkpt><trkpt lat="55.9258060" lon="49.2529080"><time>2023-06-03T07:08:21.843</time></trkpt><trkpt lat="55.9257691" lon="49.2528463"><time>2023-06-03T07:08:34.860</time></trkpt><trkpt lat="55.9257202" lon="49.2528149"><time>2023-06-03T07:08:42.837</time></trkpt><trkpt lat="55.9256749" lon="49.2527838"><time>2023-06-03T07:08:46.840</time></trkpt><trkpt lat="55.9256339" lon="49.2527443"><time>2023-06-03T07:08:57.853</time></trkpt><trkpt lat="55.9255894" lon="49.2527109"><time>2023-06-03T07:09:01.843</time></trkpt><trkpt lat="55.9255400" lon="49.2526859"><time>2023-06-03T07:09:06.880</time></trkpt><trkpt lat="55.9255041" lon="49.2526365"><time>2023-06-03T07:09:26.873</time></trkpt><trkpt lat="55.9255011" lon="49.2526367"><time>2023-06-03T07:09:27.833</time></trkpt><trkpt lat="55.9255456" lon="49.2526798"><time>2023-06-03T07:10:05.847</time></trkpt><trkpt lat="55.9255918" lon="49.2527116"><time>2023-06-03T07:10:09.880</time></trkpt><trkpt lat="55.9256064" lon="49.2527278"><time>2023-06-03T07:10:10.847</time></trkpt><trkpt lat="55.9256576" lon="49.2527646"><time>2023-06-03T07:10:14.853</time></trkpt><trkpt lat="55.9257012" lon="49.2528022"><time>2023-06-03T07:10:21.840</time></trkpt><trkpt lat="55.9257499" lon="49.2528362"><time>2023-06-03T07:10:26.870</time></trkpt><trkpt lat="55.9257952" lon="49.2528823"><time>2023-06-03T07:10:31.843</time></trkpt><trkpt lat="55.9258354" lon="49.2529217"><time>2023-06-03T07:10:41.840</time></trkpt><trkpt lat="55.9258054" lon="49.2528593"><time>2023-06-03T07:11:38.857</time></trkpt><trkpt lat="55.9257549" lon="49.2528290"><time>2023-06-03T07:11:48.840</time></trkpt><trkpt lat="55.9257120" lon="49.2527914"><time>2023-06-03T07:11:52.847</time></trkpt><trkpt lat="55.9256688" lon="49.2527538"><time>2023-06-03T07:11:56.880</time></trkpt><trkpt lat="55.9256125" lon="49.2527163"><time>2023-06-03T07:12:02.850</time></trkpt><trkpt lat="55.9255682" lon="49.2526813"><time>2023-06-03T07:12:05.867</time></trkpt><trkpt lat="55.9255590" lon="49.2526766"><time>2023-06-03T07:12:06.830</time></trkpt><trkpt lat="55.9255207" lon="49.2526274"><time>2023-06-03T07:12:19.837</time></trkpt><trkpt lat="55.9254970" lon="49.2525377"><time>2023-06-03T07:12:22.853</time></trkpt><trkpt lat="55.9254881" lon="49.2524176"><time>2023-06-03T07:12:25.853</time></trkpt><trkpt lat="55.9254807" lon="49.2523319"><time>2023-06-03T07:12:27.853</time></trkpt><trkpt lat="55.9254755" lon="49.2522469"><time>2023-06-03T07:12:29.853</time></trkpt><trkpt lat="55.9254744" lon="49.2521565"><time>2023-06-03T07:12:31.843</time></trkpt><trkpt lat="55.9254804" lon="49.2520629"><time>2023-06-03T07:12:33.840</time></trkpt><trkpt lat="55.9255076" lon="49.2519839"><time>2023-06-03T07:12:35.850</time></trkpt><trkpt lat="55.9255375" lon="49.2519067"><time>2023-06-03T07:12:37.850</time></trkpt><trkpt lat="55.9255634" lon="49.2518045"><time>2023-06-03T07:12:40.870</time></trkpt><trkpt lat="55.9255707" lon="49.2517661"><time>2023-06-03T07:12:41.850</time></trkpt><trkpt lat="55.9255610" lon="49.2516562"><time>2023-06-03T07:12:44.870</time></trkpt><trkpt lat="55.9255599" lon="49.2515721"><time>2023-06-03T07:12:47.847</time></trkpt><trkpt lat="55.9255516" lon="49.2514701"><time>2023-06-03T07:12:50.857</time></trkpt><trkpt lat="55.9255544" lon="49.2513782"><time>2023-06-03T07:12:52.843</time></trkpt><trkpt lat="55.9255544" lon="49.2513782"><time>2023-06-03T07:12:52.890</time></trkpt><trkpt lat="55.9255554" lon="49.2512736"><time>2023-06-03T07:12:54.860</time></trkpt><trkpt lat="55.9255560" lon="49.2512484"><time>2023-06-03T07:12:55.847</time></trkpt><trkpt lat="55.9255788" lon="49.2513407"><time>2023-06-03T07:13:08.867</time></trkpt><trkpt lat="55.9255901" lon="49.2514310"><time>2023-06-03T07:13:11.847</time></trkpt><trkpt lat="55.9255947" lon="49.2515210"><time>2023-06-03T07:13:14.840</time></trkpt><trkpt lat="55.9255781" lon="49.2516058"><time>2023-06-03T07:13:17.843</time></trkpt><trkpt lat="55.9255821" lon="49.2516914"><time>2023-06-03T07:13:21.847</time></trkpt><trkpt lat="55.9255470" lon="49.2517916"><time>2023-06-03T07:13:24.870</time></trkpt><trkpt lat="55.9255265" lon="49.2519003"><time>2023-06-03T07:13:26.830</time></trkpt><trkpt lat="55.9255211" lon="49.2520052"><time>2023-06-03T07:13:28.837</time></trkpt><trkpt lat="55.9255222" lon="49.2521226"><time>2023-06-03T07:13:31.843</time></trkpt><trkpt lat="55.9255267" lon="49.2522185"><time>2023-06-03T07:13:33.840</time></trkpt><trkpt lat="55.9255202" lon="49.2523386"><time>2023-06-03T07:13:36.877</time></trkpt><trkpt lat="55.9255086" lon="49.2524260"><time>2023-06-03T07:13:38.840</time></trkpt><trkpt lat="55.9254998" lon="49.2525229"><time>2023-06-03T07:13:40.837</time></trkpt><trkpt lat="55.9255044" lon="49.2526214"><time>2023-06-03T07:13:42.857</time></trkpt><trkpt lat="55.9255058" lon="49.2527272"><time>2023-06-03T07:13:44.847</time></trkpt><trkpt lat="55.9254926" lon="49.2528445"><time>2023-06-03T07:13:46.837</time></trkpt><trkpt lat="55.9254587" lon="49.2529546"><time>2023-06-03T07:13:48.870</time></trkpt><trkpt lat="55.9254190" lon="49.2530568"><time>2023-06-03T07:13:50.847</time></trkpt><trkpt lat="55.9253983" lon="49.2531464"><time>2023-06-03T07:13:52.837</time></trkpt><trkpt lat="55.9253627" lon="49.2532528"><time>2023-06-03T07:13:54.857</time></trkpt><trkpt lat="55.9253343" lon="49.2533365"><time>2023-06-03T07:13:56.837</time></trkpt><trkpt lat="55.9253241" lon="49.2534269"><time>2023-06-03T07:13:58.840</time></trkpt><trkpt lat="55.9253092" lon="49.2535246"><time>2023-06-03T07:14:00.867</time></trkpt><trkpt lat="55.9252969" lon="49.2536529"><time>2023-06-03T07:14:02.840</time></trkpt><trkpt lat="55.9253055" lon="49.2537442"><time>2023-06-03T07:14:04.837</time></trkpt><trkpt lat="55.9253361" lon="49.2538200"><time>2023-06-03T07:14:06.857</time></trkpt><trkpt lat="55.9253698" lon="49.2538776"><time>2023-06-03T07:14:08.847</time></trkpt><trkpt lat="55.9254110" lon="49.2539223"><time>2023-06-03T07:14:10.853</time></trkpt><trkpt lat="55.9254537" lon="49.2539747"><time>2023-06-03T07:14:35.847</time></trkpt><trkpt lat="55.9255030" lon="49.2540062"><time>2023-06-03T07:14:49.843</time></trkpt><trkpt lat="55.9255590" lon="49.2540542"><time>2023-06-03T07:14:54.860</time></trkpt><trkpt lat="55.9256169" lon="49.2541005"><time>2023-06-03T07:14:57.850</time></trkpt><trkpt lat="55.9256576" lon="49.2541464"><time>2023-06-03T07:14:59.840</time></trkpt><trkpt lat="55.9256912" lon="49.2542021"><time>2023-06-03T07:15:01.847</time></trkpt><trkpt lat="55.9257435" lon="49.2542666"><time>2023-06-03T07:15:04.847</time></trkpt><trkpt lat="55.9257881" lon="49.2543104"><time>2023-06-03T07:15:06.867</time></trkpt><trkpt lat="55.9258328" lon="49.2543823"><time>2023-06-03T07:15:09.847</time></trkpt><trkpt lat="55.9258745" lon="49.2544487"><time>2023-06-03T07:15:11.840</time></trkpt><trkpt lat="55.9259162" lon="49.2545037"><time>2023-06-03T07:15:13.863</time></trkpt><trkpt lat="55.9259513" lon="49.2545583"><time>2023-06-03T07:15:15.857</time></trkpt><trkpt lat="55.9260078" lon="49.2545864"><time>2023-06-03T07:15:18.853</time></trkpt><trkpt lat="55.9260625" lon="49.2546079"><time>2023-06-03T07:15:20.843</time></trkpt><trkpt lat="55.9261187" lon="49.2546326"><time>2023-06-03T07:15:22.837</time></trkpt><trkpt lat="55.9261669" lon="49.2546616"><time>2023-06-03T07:15:24.870</time></trkpt><trkpt lat="55.9262066" lon="49.2546995"><time>2023-06-03T07:15:26.840</time></trkpt><trkpt lat="55.9262487" lon="49.2547356"><time>2023-06-03T07:15:28.840</time></trkpt><trkpt lat="55.9262861" lon="49.2547946"><time>2023-06-03T07:15:31.840</time></trkpt><trkpt lat="55.9263165" lon="49.2548965"><time>2023-06-03T07:15:34.837</time></trkpt><trkpt lat="55.9263419" lon="49.2549825"><time>2023-06-03T07:15:37.863</time></trkpt><trkpt lat="55.9263880" lon="49.2550574"><time>2023-06-03T07:15:40.853</time></trkpt><trkpt lat="55.9264243" lon="49.2551527"><time>2023-06-03T07:15:43.837</time></trkpt><trkpt lat="55.9264747" lon="49.2552259"><time>2023-06-03T07:15:46.847</time></trkpt><trkpt lat="55.9265211" lon="49.2552448"><time>2023-06-03T07:15:48.870</time></trkpt><trkpt lat="55.9265767" lon="49.2552519"><time>2023-06-03T07:15:50.837</time></trkpt><trkpt lat="55.9266391" lon="49.2552628"><time>2023-06-03T07:15:53.840</time></trkpt><trkpt lat="55.9266876" lon="49.2553028"><time>2023-06-03T07:15:56.837</time></trkpt><trkpt lat="55.9267030" lon="49.2553914"><time>2023-06-03T07:15:59.850</time></trkpt><trkpt lat="55.9267065" lon="49.2554914"><time>2023-06-03T07:16:01.833</time></trkpt><trkpt lat="55.9266934" lon="49.2555970"><time>2023-06-03T07:16:03.840</time></trkpt><trkpt lat="55.9266768" lon="49.2557104"><time>2023-06-03T07:16:05.843</time></trkpt><trkpt lat="55.9266681" lon="49.2558212"><time>2023-06-03T07:16:07.847</time></trkpt><trkpt lat="55.9266595" lon="49.2559359"><time>2023-06-03T07:16:09.843</time></trkpt><trkpt lat="55.9266613" lon="49.2560649"><time>2023-06-03T07:16:11.843</time></trkpt><trkpt lat="55.9266706" lon="49.2561982"><time>2023-06-03T07:16:13.840</time></trkpt><trkpt lat="55.9266810" lon="49.2563091"><time>2023-06-03T07:16:15.843</time></trkpt><trkpt lat="55.9266914" lon="49.2563877"><time>2023-06-03T07:16:23.830</time></trkpt><trkpt lat="55.9266966" lon="49.2564718"><time>2023-06-03T07:16:37.850</time></trkpt><trkpt lat="55.9266769" lon="49.2565701"><time>2023-06-03T07:16:51.837</time></trkpt><trkpt lat="55.9266673" lon="49.2566894"><time>2023-06-03T07:16:54.857</time></trkpt><trkpt lat="55.9266751" lon="49.2567874"><time>2023-06-03T07:16:56.857</time></trkpt><trkpt lat="55.9266901" lon="49.2568998"><time>2023-06-03T07:16:58.843</time></trkpt><trkpt lat="55.9267083" lon="49.2569890"><time>2023-06-03T07:17:00.863</time></trkpt><trkpt lat="55.9267334" lon="49.2570894"><time>2023-06-03T07:17:02.843</time></trkpt><trkpt lat="55.9267545" lon="49.2571902"><time>2023-06-03T07:17:04.840</time></trkpt><trkpt lat="55.9267707" lon="49.2572942"><time>2023-06-03T07:17:06.857</time></trkpt><trkpt lat="55.9267935" lon="49.2573877"><time>2023-06-03T07:17:08.840</time></trkpt><trkpt lat="55.9268183" lon="49.2574645"><time>2023-06-03T07:17:10.837</time></trkpt><trkpt lat="55.9268461" lon="49.2575424"><time>2023-06-03T07:17:12.867</time></trkpt><trkpt lat="55.9268840" lon="49.2576438"><time>2023-06-03T07:17:15.843</time></trkpt><trkpt lat="55.9269079" lon="49.2577196"><time>2023-06-03T07:17:17.847</time></trkpt><trkpt lat="55.9269241" lon="49.2578091"><time>2023-06-03T07:17:19.843</time></trkpt><trkpt lat="55.9269404" lon="49.2579227"><time>2023-06-03T07:17:21.840</time></trkpt><trkpt lat="55.9269472" lon="49.2580173"><time>2023-06-03T07:17:23.843</time></trkpt><trkpt lat="55.9269198" lon="49.2580918"><time>2023-06-03T07:17:26.843</time></trkpt><trkpt lat="55.9268665" lon="49.2580874"><time>2023-06-03T07:17:28.840</time></trkpt><trkpt lat="55.9267960" lon="49.2580453"><time>2023-06-03T07:17:30.850</time></trkpt><trkpt lat="55.9267197" lon="49.2579761"><time>2023-06-03T07:17:32.837</time></trkpt><trkpt lat="55.9266592" lon="49.2579264"><time>2023-06-03T07:17:34.837</time></trkpt><trkpt lat="55.9265906" lon="49.2578694"><time>2023-06-03T07:17:36.863</time></trkpt><trkpt lat="55.9265336" lon="49.2578114"><time>2023-06-03T07:17:38.840</time></trkpt><trkpt lat="55.9264594" lon="49.2577512"><time>2023-06-03T07:17:40.837</time></trkpt><trkpt lat="55.9263889" lon="49.2576866"><time>2023-06-03T07:17:42.860</time></trkpt><trkpt lat="55.9263139" lon="49.2576176"><time>2023-06-03T07:17:44.840</time></trkpt><trkpt lat="55.9262471" lon="49.2575744"><time>2023-06-03T07:17:46.840</time></trkpt><trkpt lat="55.9261766" lon="49.2575051"><time>2023-06-03T07:17:48.877</time></trkpt><trkpt lat="55.9261375" lon="49.2574563"><time>2023-06-03T07:17:49.830</time></trkpt><trkpt lat="55.9260748" lon="49.2573288"><time>2023-06-03T07:17:50.837</time></trkpt><trkpt lat="55.9260330" lon="49.2572674"><time>2023-06-03T07:17:52.857</time></trkpt><trkpt lat="55.9259939" lon="49.2572096"><time>2023-06-03T07:17:53.840</time></trkpt><trkpt lat="55.9259427" lon="49.2570871"><time>2023-06-03T07:17:55.840</time></trkpt><trkpt lat="55.9259034" lon="49.2570156"><time>2023-06-03T07:17:56.837</time></trkpt><trkpt lat="55.9258407" lon="49.2568945"><time>2023-06-03T07:17:58.840</time></trkpt><trkpt lat="55.9258034" lon="49.2568288"><time>2023-06-03T07:17:59.843</time></trkpt><trkpt lat="55.9257284" lon="49.2567262"><time>2023-06-03T07:18:01.843</time></trkpt><trkpt lat="55.9256890" lon="49.2566703"><time>2023-06-03T07:18:02.837</time></trkpt><trkpt lat="55.9256316" lon="49.2566149"><time>2023-06-03T07:18:03.840</time></trkpt><trkpt lat="55.9255559" lon="49.2565240"><time>2023-06-03T07:18:05.843</time></trkpt><trkpt lat="55.9255112" lon="49.2564858"><time>2023-06-03T07:18:06.857</time></trkpt><trkpt lat="55.9254569" lon="49.2564164"><time>2023-06-03T07:18:07.843</time></trkpt><trkpt lat="55.9253910" lon="49.2563746"><time>2023-06-03T07:18:08.837</time></trkpt><trkpt lat="55.9253415" lon="49.2563553"><time>2023-06-03T07:18:09.840</time></trkpt><trkpt lat="55.9252828" lon="49.2563184"><time>2023-06-03T07:18:10.833</time></trkpt><trkpt lat="55.9252076" lon="49.2563314"><time>2023-06-03T07:18:12.873</time></trkpt><trkpt lat="55.9251494" lon="49.2563087"><time>2023-06-03T07:18:13.847</time></trkpt><trkpt lat="55.9250962" lon="49.2562923"><time>2023-06-03T07:18:14.837</time></trkpt><trkpt lat="55.9250436" lon="49.2562981"><time>2023-06-03T07:18:15.833</time></trkpt><trkpt lat="55.9249870" lon="49.2563173"><time>2023-06-03T07:18:16.837</time></trkpt><trkpt lat="55.9249352" lon="49.2563404"><time>2023-06-03T07:18:17.843</time></trkpt><trkpt lat="55.9248871" lon="49.2563453"><time>2023-06-03T07:18:18.850</time></trkpt><trkpt lat="55.9248424" lon="49.2563725"><time>2023-06-03T07:18:19.837</time></trkpt><trkpt lat="55.9247970" lon="49.2564007"><time>2023-06-03T07:18:20.840</time></trkpt><trkpt lat="55.9247436" lon="49.2564252"><time>2023-06-03T07:18:21.850</time></trkpt><trkpt lat="55.9246556" lon="49.2564672"><time>2023-06-03T07:18:23.837</time></trkpt><trkpt lat="55.9245644" lon="49.2565111"><time>2023-06-03T07:18:25.847</time></trkpt><trkpt lat="55.9244771" lon="49.2565637"><time>2023-06-03T07:18:27.853</time></trkpt><trkpt lat="55.9244223" lon="49.2565638"><time>2023-06-03T07:18:28.837</time></trkpt><trkpt lat="55.9243731" lon="49.2565725"><time>2023-06-03T07:18:29.843</time></trkpt><trkpt lat="55.9243179" lon="49.2565870"><time>2023-06-03T07:18:30.853</time></trkpt><trkpt lat="55.9242724" lon="49.2566074"><time>2023-06-03T07:18:31.840</time></trkpt><trkpt lat="55.9242230" lon="49.2566150"><time>2023-06-03T07:18:32.837</time></trkpt><trkpt lat="55.9241699" lon="49.2566095"><time>2023-06-03T07:18:33.853</time></trkpt><trkpt lat="55.9241029" lon="49.2566025"><time>2023-06-03T07:18:34.847</time></trkpt><trkpt lat="55.9240558" lon="49.2566008"><time>2023-06-03T07:18:35.840</time></trkpt><trkpt lat="55.9240013" lon="49.2565948"><time>2023-06-03T07:18:36.870</time></trkpt><trkpt lat="55.9239485" lon="49.2565835"><time>2023-06-03T07:18:37.840</time></trkpt><trkpt lat="55.9239010" lon="49.2565644"><time>2023-06-03T07:18:38.847</time></trkpt><trkpt lat="55.9238120" lon="49.2565797"><time>2023-06-03T07:18:40.850</time></trkpt><trkpt lat="55.9237481" lon="49.2565487"><time>2023-06-03T07:18:41.853</time></trkpt><trkpt lat="55.9237032" lon="49.2564911"><time>2023-06-03T07:18:42.860</time></trkpt><trkpt lat="55.9236172" lon="49.2564577"><time>2023-06-03T07:18:44.840</time></trkpt><trkpt lat="55.9235730" lon="49.2564155"><time>2023-06-03T07:18:45.847</time></trkpt><trkpt lat="55.9234993" lon="49.2563317"><time>2023-06-03T07:18:47.840</time></trkpt><trkpt lat="55.9234578" lon="49.2562943"><time>2023-06-03T07:18:48.870</time></trkpt><trkpt lat="55.9233924" lon="49.2562410"><time>2023-06-03T07:18:50.833</time></trkpt><trkpt lat="55.9233385" lon="49.2561634"><time>2023-06-03T07:18:52.833</time></trkpt><trkpt lat="55.9232645" lon="49.2560861"><time>2023-06-03T07:18:54.850</time></trkpt><trkpt lat="55.9232244" lon="49.2560359"><time>2023-06-03T07:18:55.843</time></trkpt><trkpt lat="55.9231299" lon="49.2559354"><time>2023-06-03T07:18:57.850</time></trkpt><trkpt lat="55.9230810" lon="49.2558901"><time>2023-06-03T07:18:58.837</time></trkpt><trkpt lat="55.9230336" lon="49.2558281"><time>2023-06-03T07:18:59.840</time></trkpt><trkpt lat="55.9229902" lon="49.2557729"><time>2023-06-03T07:19:00.880</time></trkpt><trkpt lat="55.9229500" lon="49.2557288"><time>2023-06-03T07:19:01.843</time></trkpt><trkpt lat="55.9228634" lon="49.2556858"><time>2023-06-03T07:19:03.833</time></trkpt><trkpt lat="55.9228148" lon="49.2556472"><time>2023-06-03T07:19:04.837</time></trkpt><trkpt lat="55.9227657" lon="49.2556238"><time>2023-06-03T07:19:05.837</time></trkpt><trkpt lat="55.9227101" lon="49.2555820"><time>2023-06-03T07:19:06.863</time></trkpt><trkpt lat="55.9226265" lon="49.2555456"><time>2023-06-03T07:19:08.837</time></trkpt><trkpt lat="55.9225769" lon="49.2555261"><time>2023-06-03T07:19:09.843</time></trkpt><trkpt lat="55.9225198" lon="49.2555773"><time>2023-06-03T07:19:11.840</time></trkpt><trkpt lat="55.9224630" lon="49.2555740"><time>2023-06-03T07:19:12.867</time></trkpt><trkpt lat="55.9224168" lon="49.2555768"><time>2023-06-03T07:19:13.840</time></trkpt><trkpt lat="55.9223408" lon="49.2556110"><time>2023-06-03T07:19:15.847</time></trkpt><trkpt lat="55.9222623" lon="49.2556403"><time>2023-06-03T07:19:17.840</time></trkpt><trkpt lat="55.9222089" lon="49.2556431"><time>2023-06-03T07:19:18.867</time></trkpt><trkpt lat="55.9221609" lon="49.2556410"><time>2023-06-03T07:19:19.833</time></trkpt><trkpt lat="55.9221078" lon="49.2556260"><time>2023-06-03T07:19:20.843</time></trkpt><trkpt lat="55.9220510" lon="49.2556365"><time>2023-06-03T07:19:21.843</time></trkpt><trkpt lat="55.9219745" lon="49.2556448"><time>2023-06-03T07:19:23.837</time></trkpt><trkpt lat="55.9219276" lon="49.2556329"><time>2023-06-03T07:19:24.873</time></trkpt><trkpt lat="55.9218754" lon="49.2555960"><time>2023-06-03T07:19:25.833</time></trkpt><trkpt lat="55.9217956" lon="49.2555314"><time>2023-06-03T07:19:27.837</time></trkpt><trkpt lat="55.9217235" lon="49.2554516"><time>2023-06-03T07:19:29.847</time></trkpt><trkpt lat="55.9216447" lon="49.2553802"><time>2023-06-03T07:19:31.850</time></trkpt><trkpt lat="55.9215980" lon="49.2553384"><time>2023-06-03T07:19:32.840</time></trkpt><trkpt lat="55.9215379" lon="49.2552710"><time>2023-06-03T07:19:33.840</time></trkpt><trkpt lat="55.9215006" lon="49.2552035"><time>2023-06-03T07:19:34.843</time></trkpt><trkpt lat="55.9214389" lon="49.2551809"><time>2023-06-03T07:19:36.863</time></trkpt><trkpt lat="55.9213991" lon="49.2551392"><time>2023-06-03T07:19:37.840</time></trkpt><trkpt lat="55.9213392" lon="49.2550793"><time>2023-06-03T07:19:39.853</time></trkpt><trkpt lat="55.9212770" lon="49.2550230"><time>2023-06-03T07:19:41.837</time></trkpt><trkpt lat="55.9212063" lon="49.2549619"><time>2023-06-03T07:19:43.860</time></trkpt><trkpt lat="55.9211593" lon="49.2548915"><time>2023-06-03T07:19:44.853</time></trkpt><trkpt lat="55.9211064" lon="49.2548395"><time>2023-06-03T07:19:45.843</time></trkpt><trkpt lat="55.9210623" lon="49.2547860"><time>2023-06-03T07:19:46.843</time></trkpt><trkpt lat="55.9209855" lon="49.2546819"><time>2023-06-03T07:19:47.823</time></trkpt><trkpt lat="55.9209120" lon="49.2546210"><time>2023-06-03T07:19:49.850</time></trkpt><trkpt lat="55.9208671" lon="49.2545366"><time>2023-06-03T07:19:50.840</time></trkpt><trkpt lat="55.9207905" lon="49.2544591"><time>2023-06-03T07:19:52.837</time></trkpt><trkpt lat="55.9207481" lon="49.2544062"><time>2023-06-03T07:19:53.847</time></trkpt><trkpt lat="55.9206890" lon="49.2543585"><time>2023-06-03T07:19:54.853</time></trkpt><trkpt lat="55.9206327" lon="49.2543225"><time>2023-06-03T07:19:55.857</time></trkpt><trkpt lat="55.9205340" lon="49.2542616"><time>2023-06-03T07:19:57.853</time></trkpt><trkpt lat="55.9204877" lon="49.2542627"><time>2023-06-03T07:19:58.833</time></trkpt><trkpt lat="55.9204367" lon="49.2542414"><time>2023-06-03T07:19:59.847</time></trkpt><trkpt lat="55.9203857" lon="49.2542212"><time>2023-06-03T07:20:00.873</time></trkpt><trkpt lat="55.9203367" lon="49.2541995"><time>2023-06-03T07:20:01.840</time></trkpt><trkpt lat="55.9202861" lon="49.2541926"><time>2023-06-03T07:20:02.833</time></trkpt><trkpt lat="55.9201855" lon="49.2541759"><time>2023-06-03T07:20:04.830</time></trkpt><trkpt lat="55.9201204" lon="49.2541329"><time>2023-06-03T07:20:05.840</time></trkpt><trkpt lat="55.9200654" lon="49.2541336"><time>2023-06-03T07:20:06.847</time></trkpt><trkpt lat="55.9199970" lon="49.2541217"><time>2023-06-03T07:20:07.837</time></trkpt><trkpt lat="55.9199339" lon="49.2541197"><time>2023-06-03T07:20:08.840</time></trkpt><trkpt lat="55.9198505" lon="49.2541485"><time>2023-06-03T07:20:10.840</time></trkpt><trkpt lat="55.9197909" lon="49.2541348"><time>2023-06-03T07:20:11.850</time></trkpt><trkpt lat="55.9197269" lon="49.2540986"><time>2023-06-03T07:20:12.873</time></trkpt><trkpt lat="55.9196743" lon="49.2540647"><time>2023-06-03T07:20:13.843</time></trkpt><trkpt lat="55.9196268" lon="49.2540213"><time>2023-06-03T07:20:14.833</time></trkpt><trkpt lat="55.9195792" lon="49.2540172"><time>2023-06-03T07:20:15.847</time></trkpt><trkpt lat="55.9195155" lon="49.2539572"><time>2023-06-03T07:20:16.843</time></trkpt><trkpt lat="55.9194582" lon="49.2538767"><time>2023-06-03T07:20:17.847</time></trkpt><trkpt lat="55.9194146" lon="49.2538124"><time>2023-06-03T07:20:18.853</time></trkpt><trkpt lat="55.9193526" lon="49.2537109"><time>2023-06-03T07:20:20.840</time></trkpt><trkpt lat="55.9193147" lon="49.2536595"><time>2023-06-03T07:20:21.847</time></trkpt><trkpt lat="55.9192599" lon="49.2535767"><time>2023-06-03T07:20:22.840</time></trkpt><trkpt lat="55.9192096" lon="49.2535051"><time>2023-06-03T07:20:23.840</time></trkpt><trkpt lat="55.9191684" lon="49.2534487"><time>2023-06-03T07:20:24.867</time></trkpt><trkpt lat="55.9191141" lon="49.2533565"><time>2023-06-03T07:20:25.847</time></trkpt><trkpt lat="55.9190425" lon="49.2533175"><time>2023-06-03T07:20:27.837</time></trkpt><trkpt lat="55.9189735" lon="49.2531961"><time>2023-06-03T07:20:28.837</time></trkpt><trkpt lat="55.9189218" lon="49.2531105"><time>2023-06-03T07:20:29.827</time></trkpt><trkpt lat="55.9188909" lon="49.2530403"><time>2023-06-03T07:20:30.857</time></trkpt><trkpt lat="55.9188290" lon="49.2529512"><time>2023-06-03T07:20:31.837</time></trkpt><trkpt lat="55.9187878" lon="49.2528499"><time>2023-06-03T07:20:32.840</time></trkpt><trkpt lat="55.9187160" lon="49.2527297"><time>2023-06-03T07:20:34.840</time></trkpt><trkpt lat="55.9186537" lon="49.2526652"><time>2023-06-03T07:20:35.837</time></trkpt><trkpt lat="55.9185913" lon="49.2525782"><time>2023-06-03T07:20:36.873</time></trkpt><trkpt lat="55.9185392" lon="49.2525086"><time>2023-06-03T07:20:37.837</time></trkpt><trkpt lat="55.9184742" lon="49.2524664"><time>2023-06-03T07:20:38.840</time></trkpt><trkpt lat="55.9184185" lon="49.2524192"><time>2023-06-03T07:20:39.837</time></trkpt><trkpt lat="55.9183426" lon="49.2523628"><time>2023-06-03T07:20:40.853</time></trkpt><trkpt lat="55.9182854" lon="49.2523628"><time>2023-06-03T07:20:41.837</time></trkpt><trkpt lat="55.9182288" lon="49.2523772"><time>2023-06-03T07:20:42.860</time></trkpt><trkpt lat="55.9181581" lon="49.2523667"><time>2023-06-03T07:20:43.837</time></trkpt><trkpt lat="55.9180980" lon="49.2523598"><time>2023-06-03T07:20:44.833</time></trkpt><trkpt lat="55.9180292" lon="49.2523524"><time>2023-06-03T07:20:45.840</time></trkpt><trkpt lat="55.9179619" lon="49.2523260"><time>2023-06-03T07:20:46.840</time></trkpt><trkpt lat="55.9178849" lon="49.2523087"><time>2023-06-03T07:20:47.840</time></trkpt><trkpt lat="55.9178223" lon="49.2523017"><time>2023-06-03T07:20:48.867</time></trkpt><trkpt lat="55.9177683" lon="49.2523013"><time>2023-06-03T07:20:49.850</time></trkpt><trkpt lat="55.9177130" lon="49.2523067"><time>2023-06-03T07:20:50.837</time></trkpt><trkpt lat="55.9176500" lon="49.2523053"><time>2023-06-03T07:20:51.847</time></trkpt><trkpt lat="55.9175954" lon="49.2522914"><time>2023-06-03T07:20:52.833</time></trkpt><trkpt lat="55.9175406" lon="49.2522811"><time>2023-06-03T07:20:53.837</time></trkpt><trkpt lat="55.9174896" lon="49.2523035"><time>2023-06-03T07:20:54.860</time></trkpt><trkpt lat="55.9174153" lon="49.2522337"><time>2023-06-03T07:20:55.837</time></trkpt><trkpt lat="55.9173628" lon="49.2521949"><time>2023-06-03T07:20:56.833</time></trkpt><trkpt lat="55.9173001" lon="49.2521254"><time>2023-06-03T07:20:57.853</time></trkpt><trkpt lat="55.9172454" lon="49.2520797"><time>2023-06-03T07:20:58.837</time></trkpt><trkpt lat="55.9171888" lon="49.2520296"><time>2023-06-03T07:20:59.853</time></trkpt><trkpt lat="55.9171499" lon="49.2519589"><time>2023-06-03T07:21:00.887</time></trkpt><trkpt lat="55.9170806" lon="49.2518926"><time>2023-06-03T07:21:01.833</time></trkpt><trkpt lat="55.9170250" lon="49.2518073"><time>2023-06-03T07:21:02.837</time></trkpt><trkpt lat="55.9169377" lon="49.2517341"><time>2023-06-03T07:21:04.850</time></trkpt><trkpt lat="55.9168935" lon="49.2516361"><time>2023-06-03T07:21:05.837</time></trkpt><trkpt lat="55.9168387" lon="49.2515724"><time>2023-06-03T07:21:06.850</time></trkpt><trkpt lat="55.9167900" lon="49.2515055"><time>2023-06-03T07:21:08.840</time></trkpt><trkpt lat="55.9167434" lon="49.2514579"><time>2023-06-03T07:21:09.843</time></trkpt><trkpt lat="55.9166933" lon="49.2514249"><time>2023-06-03T07:21:10.843</time></trkpt><trkpt lat="55.9166086" lon="49.2513679"><time>2023-06-03T07:21:12.873</time></trkpt><trkpt lat="55.9165335" lon="49.2513211"><time>2023-06-03T07:21:14.853</time></trkpt><trkpt lat="55.9164368" lon="49.2512163"><time>2023-06-03T07:21:16.840</time></trkpt><trkpt lat="55.9163360" lon="49.2511387"><time>2023-06-03T07:21:18.850</time></trkpt><trkpt lat="55.9162626" lon="49.2510869"><time>2023-06-03T07:21:19.840</time></trkpt><trkpt lat="55.9161752" lon="49.2510186"><time>2023-06-03T07:21:20.833</time></trkpt><trkpt lat="55.9161243" lon="49.2509732"><time>2023-06-03T07:21:21.840</time></trkpt><trkpt lat="55.9160437" lon="49.2509277"><time>2023-06-03T07:21:23.853</time></trkpt><trkpt lat="55.9159764" lon="49.2508802"><time>2023-06-03T07:21:24.867</time></trkpt><trkpt lat="55.9159246" lon="49.2508561"><time>2023-06-03T07:21:25.843</time></trkpt><trkpt lat="55.9158696" lon="49.2508154"><time>2023-06-03T07:21:26.843</time></trkpt><trkpt lat="55.9158011" lon="49.2507518"><time>2023-06-03T07:21:27.853</time></trkpt><trkpt lat="55.9157202" lon="49.2507010"><time>2023-06-03T07:21:28.840</time></trkpt><trkpt lat="55.9156768" lon="49.2506790"><time>2023-06-03T07:21:29.827</time></trkpt><trkpt lat="55.9156063" lon="49.2506643"><time>2023-06-03T07:21:31.843</time></trkpt><trkpt lat="55.9155403" lon="49.2506009"><time>2023-06-03T07:21:32.833</time></trkpt><trkpt lat="55.9154948" lon="49.2505673"><time>2023-06-03T07:21:33.840</time></trkpt><trkpt lat="55.9154407" lon="49.2504994"><time>2023-06-03T07:21:35.843</time></trkpt><trkpt lat="55.9154065" lon="49.2504145"><time>2023-06-03T07:21:36.867</time></trkpt><trkpt lat="55.9153649" lon="49.2502932"><time>2023-06-03T07:21:38.847</time></trkpt><trkpt lat="55.9153207" lon="49.2501990"><time>2023-06-03T07:21:39.830</time></trkpt><trkpt lat="55.9152813" lon="49.2501055"><time>2023-06-03T07:21:40.840</time></trkpt><trkpt lat="55.9152487" lon="49.2500206"><time>2023-06-03T07:21:41.837</time></trkpt><trkpt lat="55.9152320" lon="49.2499117"><time>2023-06-03T07:21:42.853</time></trkpt><trkpt lat="55.9151973" lon="49.2498603"><time>2023-06-03T07:21:43.837</time></trkpt><trkpt lat="55.9151781" lon="49.2497413"><time>2023-06-03T07:21:44.840</time></trkpt><trkpt lat="55.9151431" lon="49.2496217"><time>2023-06-03T07:21:45.833</time></trkpt><trkpt lat="55.9151059" lon="49.2494769"><time>2023-06-03T07:21:47.847</time></trkpt><trkpt lat="55.9150777" lon="49.2493797"><time>2023-06-03T07:21:48.870</time></trkpt><trkpt lat="55.9150469" lon="49.2492891"><time>2023-06-03T07:21:49.840</time></trkpt><trkpt lat="55.9150184" lon="49.2491958"><time>2023-06-03T07:21:50.837</time></trkpt><trkpt lat="55.9149829" lon="49.2491083"><time>2023-06-03T07:21:51.847</time></trkpt><trkpt lat="55.9149316" lon="49.2490234"><time>2023-06-03T07:21:52.843</time></trkpt><trkpt lat="55.9148334" lon="49.2489110"><time>2023-06-03T07:21:54.860</time></trkpt><trkpt lat="55.9147980" lon="49.2488394"><time>2023-06-03T07:21:55.840</time></trkpt><trkpt lat="55.9147502" lon="49.2487600"><time>2023-06-03T07:21:56.837</time></trkpt><trkpt lat="55.9147171" lon="49.2486683"><time>2023-06-03T07:21:57.860</time></trkpt><trkpt lat="55.9146812" lon="49.2486033"><time>2023-06-03T07:21:58.837</time></trkpt><trkpt lat="55.9146235" lon="49.2485142"><time>2023-06-03T07:21:59.850</time></trkpt><trkpt lat="55.9145807" lon="49.2484421"><time>2023-06-03T07:22:00.880</time></trkpt><trkpt lat="55.9145302" lon="49.2483732"><time>2023-06-03T07:22:02.837</time></trkpt><trkpt lat="55.9144561" lon="49.2482919"><time>2023-06-03T07:22:04.837</time></trkpt><trkpt lat="55.9144222" lon="49.2482388"><time>2023-06-03T07:22:05.837</time></trkpt><trkpt lat="55.9143531" lon="49.2481134"><time>2023-06-03T07:22:07.853</time></trkpt><trkpt lat="55.9143132" lon="49.2480514"><time>2023-06-03T07:22:08.840</time></trkpt><trkpt lat="55.9142707" lon="49.2479894"><time>2023-06-03T07:22:09.853</time></trkpt><trkpt lat="55.9142223" lon="49.2479083"><time>2023-06-03T07:22:10.840</time></trkpt><trkpt lat="55.9141712" lon="49.2478412"><time>2023-06-03T07:22:11.840</time></trkpt><trkpt lat="55.9141103" lon="49.2477647"><time>2023-06-03T07:22:12.880</time></trkpt><trkpt lat="55.9140561" lon="49.2476921"><time>2023-06-03T07:22:13.850</time></trkpt><trkpt lat="55.9140080" lon="49.2476341"><time>2023-06-03T07:22:14.833</time></trkpt><trkpt lat="55.9139454" lon="49.2476047"><time>2023-06-03T07:22:16.847</time></trkpt><trkpt lat="55.9138666" lon="49.2475181"><time>2023-06-03T07:22:18.870</time></trkpt><trkpt lat="55.9138053" lon="49.2474504"><time>2023-06-03T07:22:19.840</time></trkpt><trkpt lat="55.9137551" lon="49.2474111"><time>2023-06-03T07:22:20.833</time></trkpt><trkpt lat="55.9136817" lon="49.2473766"><time>2023-06-03T07:22:22.833</time></trkpt><trkpt lat="55.9136316" lon="49.2473256"><time>2023-06-03T07:22:23.840</time></trkpt><trkpt lat="55.9135804" lon="49.2472584"><time>2023-06-03T07:22:24.870</time></trkpt><trkpt lat="55.9135239" lon="49.2471846"><time>2023-06-03T07:22:25.843</time></trkpt><trkpt lat="55.9134482" lon="49.2471159"><time>2023-06-03T07:22:27.850</time></trkpt><trkpt lat="55.9134037" lon="49.2470568"><time>2023-06-03T07:22:28.827</time></trkpt><trkpt lat="55.9133432" lon="49.2470085"><time>2023-06-03T07:22:30.857</time></trkpt><trkpt lat="55.9132639" lon="49.2469146"><time>2023-06-03T07:22:32.830</time></trkpt><trkpt lat="55.9132136" lon="49.2468530"><time>2023-06-03T07:22:33.837</time></trkpt><trkpt lat="55.9131578" lon="49.2468171"><time>2023-06-03T07:22:34.843</time></trkpt><trkpt lat="55.9131124" lon="49.2467742"><time>2023-06-03T07:22:35.840</time></trkpt><trkpt lat="55.9130536" lon="49.2467146"><time>2023-06-03T07:22:36.877</time></trkpt><trkpt lat="55.9130044" lon="49.2466774"><time>2023-06-03T07:22:37.833</time></trkpt><trkpt lat="55.9129537" lon="49.2466507"><time>2023-06-03T07:22:38.840</time></trkpt><trkpt lat="55.9128754" lon="49.2466014"><time>2023-06-03T07:22:39.847</time></trkpt><trkpt lat="55.9128296" lon="49.2465849"><time>2023-06-03T07:22:40.840</time></trkpt><trkpt lat="55.9127650" lon="49.2465541"><time>2023-06-03T07:22:41.837</time></trkpt><trkpt lat="55.9127137" lon="49.2465479"><time>2023-06-03T07:22:42.863</time></trkpt><trkpt lat="55.9126607" lon="49.2465425"><time>2023-06-03T07:22:43.837</time></trkpt><trkpt lat="55.9125578" lon="49.2464974"><time>2023-06-03T07:22:45.850</time></trkpt><trkpt lat="55.9125037" lon="49.2464928"><time>2023-06-03T07:22:46.833</time></trkpt><trkpt lat="55.9124378" lon="49.2464444"><time>2023-06-03T07:22:47.853</time></trkpt><trkpt lat="55.9123864" lon="49.2464281"><time>2023-06-03T07:22:48.863</time></trkpt><trkpt lat="55.9123387" lon="49.2464368"><time>2023-06-03T07:22:49.847</time></trkpt><trkpt lat="55.9122434" lon="49.2463955"><time>2023-06-03T07:22:51.847</time></trkpt><trkpt lat="55.9121965" lon="49.2463647"><time>2023-06-03T07:22:52.833</time></trkpt><trkpt lat="55.9121445" lon="49.2463218"><time>2023-06-03T07:22:53.840</time></trkpt><trkpt lat="55.9120849" lon="49.2462976"><time>2023-06-03T07:22:54.850</time></trkpt><trkpt lat="55.9120355" lon="49.2462525"><time>2023-06-03T07:22:55.840</time></trkpt><trkpt lat="55.9119855" lon="49.2462175"><time>2023-06-03T07:22:56.830</time></trkpt><trkpt lat="55.9119342" lon="49.2461881"><time>2023-06-03T07:22:57.830</time></trkpt><trkpt lat="55.9118763" lon="49.2461328"><time>2023-06-03T07:22:58.850</time></trkpt><trkpt lat="55.9118348" lon="49.2460759"><time>2023-06-03T07:22:59.843</time></trkpt><trkpt lat="55.9117992" lon="49.2460084"><time>2023-06-03T07:23:00.857</time></trkpt><trkpt lat="55.9117205" lon="49.2459208"><time>2023-06-03T07:23:02.830</time></trkpt><trkpt lat="55.9116609" lon="49.2457738"><time>2023-06-03T07:23:04.833</time></trkpt><trkpt lat="55.9116174" lon="49.2456550"><time>2023-06-03T07:23:05.833</time></trkpt><trkpt lat="55.9116012" lon="49.2455654"><time>2023-06-03T07:23:06.860</time></trkpt><trkpt lat="55.9115611" lon="49.2454802"><time>2023-06-03T07:23:07.840</time></trkpt><trkpt lat="55.9115289" lon="49.2453383"><time>2023-06-03T07:23:09.850</time></trkpt><trkpt lat="55.9115099" lon="49.2452017"><time>2023-06-03T07:23:11.850</time></trkpt><trkpt lat="55.9114912" lon="49.2451256"><time>2023-06-03T07:23:12.863</time></trkpt><trkpt lat="55.9114606" lon="49.2450517"><time>2023-06-03T07:23:13.840</time></trkpt><trkpt lat="55.9114340" lon="49.2449638"><time>2023-06-03T07:23:14.837</time></trkpt><trkpt lat="55.9114127" lon="49.2448766"><time>2023-06-03T07:23:15.847</time></trkpt><trkpt lat="55.9113938" lon="49.2447679"><time>2023-06-03T07:23:16.830</time></trkpt><trkpt lat="55.9113620" lon="49.2446495"><time>2023-06-03T07:23:18.847</time></trkpt><trkpt lat="55.9113236" lon="49.2445437"><time>2023-06-03T07:23:19.843</time></trkpt><trkpt lat="55.9112847" lon="49.2444564"><time>2023-06-03T07:23:20.837</time></trkpt><trkpt lat="55.9112573" lon="49.2443402"><time>2023-06-03T07:23:21.837</time></trkpt><trkpt lat="55.9112466" lon="49.2442354"><time>2023-06-03T07:23:22.840</time></trkpt><trkpt lat="55.9111984" lon="49.2441128"><time>2023-06-03T07:23:23.843</time></trkpt><trkpt lat="55.9111653" lon="49.2439967"><time>2023-06-03T07:23:24.870</time></trkpt><trkpt lat="55.9111364" lon="49.2438945"><time>2023-06-03T07:23:25.833</time></trkpt><trkpt lat="55.9111125" lon="49.2438105"><time>2023-06-03T07:23:26.840</time></trkpt><trkpt lat="55.9110791" lon="49.2437176"><time>2023-06-03T07:23:27.843</time></trkpt><trkpt lat="55.9110572" lon="49.2436247"><time>2023-06-03T07:23:28.833</time></trkpt><trkpt lat="55.9110356" lon="49.2435527"><time>2023-06-03T07:23:29.840</time></trkpt><trkpt lat="55.9110913" lon="49.2434280"><time>2023-06-03T07:23:30.857</time></trkpt><trkpt lat="55.9110884" lon="49.2433262"><time>2023-06-03T07:23:31.867</time></trkpt><trkpt lat="55.9110425" lon="49.2432170"><time>2023-06-03T07:23:32.840</time></trkpt><trkpt lat="55.9110110" lon="49.2430945"><time>2023-06-03T07:23:33.840</time></trkpt><trkpt lat="55.9110042" lon="49.2430124"><time>2023-06-03T07:23:34.840</time></trkpt><trkpt lat="55.9109661" lon="49.2429416"><time>2023-06-03T07:23:35.847</time></trkpt><trkpt lat="55.9109645" lon="49.2428604"><time>2023-06-03T07:23:36.870</time></trkpt><trkpt lat="55.9109588" lon="49.2427460"><time>2023-06-03T07:23:37.847</time></trkpt><trkpt lat="55.9109560" lon="49.2426400"><time>2023-06-03T07:23:38.837</time></trkpt><trkpt lat="55.9109267" lon="49.2425570"><time>2023-06-03T07:23:39.837</time></trkpt><trkpt lat="55.9109012" lon="49.2424595"><time>2023-06-03T07:23:40.840</time></trkpt><trkpt lat="55.9108659" lon="49.2423731"><time>2023-06-03T07:23:41.843</time></trkpt><trkpt lat="55.9108568" lon="49.2422623"><time>2023-06-03T07:23:42.850</time></trkpt><trkpt lat="55.9108874" lon="49.2421860"><time>2023-06-03T07:23:43.833</time></trkpt><trkpt lat="55.9109023" lon="49.2420772"><time>2023-06-03T07:23:44.837</time></trkpt><trkpt lat="55.9109076" lon="49.2419691"><time>2023-06-03T07:23:45.847</time></trkpt><trkpt lat="55.9109063" lon="49.2418819"><time>2023-06-03T07:23:46.840</time></trkpt><trkpt lat="55.9109142" lon="49.2417712"><time>2023-06-03T07:23:47.847</time></trkpt><trkpt lat="55.9109113" lon="49.2416771"><time>2023-06-03T07:23:48.870</time></trkpt><trkpt lat="55.9109073" lon="49.2415832"><time>2023-06-03T07:23:49.833</time></trkpt><trkpt lat="55.9109356" lon="49.2415071"><time>2023-06-03T07:23:50.833</time></trkpt><trkpt lat="55.9109668" lon="49.2414065"><time>2023-06-03T07:23:51.837</time></trkpt><trkpt lat="55.9109670" lon="49.2412581"><time>2023-06-03T07:23:53.840</time></trkpt><trkpt lat="55.9109663" lon="49.2411748"><time>2023-06-03T07:23:54.850</time></trkpt><trkpt lat="55.9109729" lon="49.2410875"><time>2023-06-03T07:23:55.833</time></trkpt><trkpt lat="55.9109871" lon="49.2409797"><time>2023-06-03T07:23:56.837</time></trkpt><trkpt lat="55.9109980" lon="49.2408622"><time>2023-06-03T07:23:57.840</time></trkpt><trkpt lat="55.9110130" lon="49.2407489"><time>2023-06-03T07:23:58.840</time></trkpt><trkpt lat="55.9110070" lon="49.2406270"><time>2023-06-03T07:23:59.843</time></trkpt><trkpt lat="55.9110075" lon="49.2405138"><time>2023-06-03T07:24:00.863</time></trkpt><trkpt lat="55.9110007" lon="49.2403996"><time>2023-06-03T07:24:01.843</time></trkpt><trkpt lat="55.9110055" lon="49.2402959"><time>2023-06-03T07:24:02.833</time></trkpt><trkpt lat="55.9110027" lon="49.2401923"><time>2023-06-03T07:24:03.840</time></trkpt><trkpt lat="55.9110113" lon="49.2400693"><time>2023-06-03T07:24:04.840</time></trkpt><trkpt lat="55.9110064" lon="49.2399434"><time>2023-06-03T07:24:05.843</time></trkpt><trkpt lat="55.9109952" lon="49.2398092"><time>2023-06-03T07:24:06.850</time></trkpt><trkpt lat="55.9109636" lon="49.2397218"><time>2023-06-03T07:24:07.833</time></trkpt><trkpt lat="55.9109428" lon="49.2396258"><time>2023-06-03T07:24:08.843</time></trkpt><trkpt lat="55.9109301" lon="49.2395238"><time>2023-06-03T07:24:09.840</time></trkpt><trkpt lat="55.9109474" lon="49.2393870"><time>2023-06-03T07:24:10.843</time></trkpt><trkpt lat="55.9109965" lon="49.2392579"><time>2023-06-03T07:24:11.850</time></trkpt><trkpt lat="55.9110037" lon="49.2391459"><time>2023-06-03T07:24:12.850</time></trkpt><trkpt lat="55.9110106" lon="49.2390119"><time>2023-06-03T07:24:13.843</time></trkpt><trkpt lat="55.9110079" lon="49.2389094"><time>2023-06-03T07:24:14.847</time></trkpt><trkpt lat="55.9109975" lon="49.2387850"><time>2023-06-03T07:24:15.840</time></trkpt><trkpt lat="55.9109841" lon="49.2386841"><time>2023-06-03T07:24:16.833</time></trkpt><trkpt lat="55.9109670" lon="49.2385889"><time>2023-06-03T07:24:17.833</time></trkpt><trkpt lat="55.9109923" lon="49.2384680"><time>2023-06-03T07:24:18.837</time></trkpt><trkpt lat="55.9110092" lon="49.2383586"><time>2023-06-03T07:24:19.837</time></trkpt><trkpt lat="55.9110195" lon="49.2382497"><time>2023-06-03T07:24:20.833</time></trkpt><trkpt lat="55.9110387" lon="49.2381294"><time>2023-06-03T07:24:21.827</time></trkpt><trkpt lat="55.9110354" lon="49.2380067"><time>2023-06-03T07:24:22.837</time></trkpt><trkpt lat="55.9110433" lon="49.2378876"><time>2023-06-03T07:24:23.833</time></trkpt><trkpt lat="55.9110578" lon="49.2377628"><time>2023-06-03T07:24:24.837</time></trkpt><trkpt lat="55.9110819" lon="49.2376497"><time>2023-06-03T07:24:25.863</time></trkpt><trkpt lat="55.9110918" lon="49.2375312"><time>2023-06-03T07:24:26.837</time></trkpt><trkpt lat="55.9111057" lon="49.2374412"><time>2023-06-03T07:24:27.840</time></trkpt><trkpt lat="55.9111192" lon="49.2373154"><time>2023-06-03T07:24:28.830</time></trkpt><trkpt lat="55.9111368" lon="49.2371992"><time>2023-06-03T07:24:29.830</time></trkpt><trkpt lat="55.9111755" lon="49.2370838"><time>2023-06-03T07:24:30.833</time></trkpt><trkpt lat="55.9112001" lon="49.2369746"><time>2023-06-03T07:24:31.853</time></trkpt><trkpt lat="55.9112225" lon="49.2368579"><time>2023-06-03T07:24:32.833</time></trkpt><trkpt lat="55.9112519" lon="49.2367496"><time>2023-06-03T07:24:33.833</time></trkpt><trkpt lat="55.9112660" lon="49.2366408"><time>2023-06-03T07:24:34.837</time></trkpt><trkpt lat="55.9112798" lon="49.2365276"><time>2023-06-03T07:24:35.850</time></trkpt><trkpt lat="55.9112782" lon="49.2364228"><time>2023-06-03T07:24:36.823</time></trkpt><trkpt lat="55.9113108" lon="49.2363112"><time>2023-06-03T07:24:37.863</time></trkpt><trkpt lat="55.9113286" lon="49.2361946"><time>2023-06-03T07:24:38.833</time></trkpt><trkpt lat="55.9113549" lon="49.2360770"><time>2023-06-03T07:24:39.860</time></trkpt><trkpt lat="55.9113779" lon="49.2359622"><time>2023-06-03T07:24:40.837</time></trkpt><trkpt lat="55.9114000" lon="49.2358565"><time>2023-06-03T07:24:41.837</time></trkpt><trkpt lat="55.9114235" lon="49.2357337"><time>2023-06-03T07:24:42.840</time></trkpt><trkpt lat="55.9114501" lon="49.2356179"><time>2023-06-03T07:24:43.853</time></trkpt><trkpt lat="55.9114660" lon="49.2355038"><time>2023-06-03T07:24:44.833</time></trkpt><trkpt lat="55.9114951" lon="49.2353877"><time>2023-06-03T07:24:45.837</time></trkpt><trkpt lat="55.9114942" lon="49.2352694"><time>2023-06-03T07:24:46.850</time></trkpt><trkpt lat="55.9115170" lon="49.2351604"><time>2023-06-03T07:24:47.837</time></trkpt><trkpt lat="55.9115270" lon="49.2350555"><time>2023-06-03T07:24:48.833</time></trkpt><trkpt lat="55.9115429" lon="49.2349447"><time>2023-06-03T07:24:49.870</time></trkpt><trkpt lat="55.9115547" lon="49.2348429"><time>2023-06-03T07:24:50.833</time></trkpt><trkpt lat="55.9115647" lon="49.2347378"><time>2023-06-03T07:24:51.843</time></trkpt><trkpt lat="55.9115911" lon="49.2346310"><time>2023-06-03T07:24:52.850</time></trkpt><trkpt lat="55.9116195" lon="49.2345199"><time>2023-06-03T07:24:53.840</time></trkpt><trkpt lat="55.9116323" lon="49.2344219"><time>2023-06-03T07:24:54.840</time></trkpt><trkpt lat="55.9116487" lon="49.2343183"><time>2023-06-03T07:24:55.853</time></trkpt><trkpt lat="55.9116737" lon="49.2342201"><time>2023-06-03T07:24:56.830</time></trkpt><trkpt lat="55.9116915" lon="49.2341085"><time>2023-06-03T07:24:57.837</time></trkpt><trkpt lat="55.9117170" lon="49.2339926"><time>2023-06-03T07:24:58.837</time></trkpt><trkpt lat="55.9117251" lon="49.2338868"><time>2023-06-03T07:24:59.840</time></trkpt><trkpt lat="55.9117360" lon="49.2337842"><time>2023-06-03T07:25:00.837</time></trkpt><trkpt lat="55.9117606" lon="49.2336743"><time>2023-06-03T07:25:01.840</time></trkpt><trkpt lat="55.9117797" lon="49.2335797"><time>2023-06-03T07:25:02.833</time></trkpt><trkpt lat="55.9117920" lon="49.2334804"><time>2023-06-03T07:25:03.833</time></trkpt><trkpt lat="55.9118064" lon="49.2333803"><time>2023-06-03T07:25:04.840</time></trkpt><trkpt lat="55.9118223" lon="49.2332934"><time>2023-06-03T07:25:05.833</time></trkpt><trkpt lat="55.9118503" lon="49.2331964"><time>2023-06-03T07:25:06.837</time></trkpt><trkpt lat="55.9118589" lon="49.2330942"><time>2023-06-03T07:25:07.860</time></trkpt><trkpt lat="55.9118833" lon="49.2329989"><time>2023-06-03T07:25:08.830</time></trkpt><trkpt lat="55.9119037" lon="49.2328985"><time>2023-06-03T07:25:09.847</time></trkpt><trkpt lat="55.9119277" lon="49.2327899"><time>2023-06-03T07:25:10.837</time></trkpt><trkpt lat="55.9119399" lon="49.2326933"><time>2023-06-03T07:25:11.840</time></trkpt><trkpt lat="55.9119559" lon="49.2325917"><time>2023-06-03T07:25:12.840</time></trkpt><trkpt lat="55.9119575" lon="49.2324952"><time>2023-06-03T07:25:13.877</time></trkpt><trkpt lat="55.9119957" lon="49.2323949"><time>2023-06-03T07:25:14.837</time></trkpt><trkpt lat="55.9120244" lon="49.2322902"><time>2023-06-03T07:25:15.837</time></trkpt><trkpt lat="55.9120364" lon="49.2321829"><time>2023-06-03T07:25:16.833</time></trkpt><trkpt lat="55.9120524" lon="49.2320797"><time>2023-06-03T07:25:17.843</time></trkpt><trkpt lat="55.9120818" lon="49.2319783"><time>2023-06-03T07:25:18.837</time></trkpt><trkpt lat="55.9120972" lon="49.2318733"><time>2023-06-03T07:25:19.840</time></trkpt><trkpt lat="55.9121161" lon="49.2317673"><time>2023-06-03T07:25:20.833</time></trkpt><trkpt lat="55.9121312" lon="49.2316599"><time>2023-06-03T07:25:21.833</time></trkpt><trkpt lat="55.9121480" lon="49.2315564"><time>2023-06-03T07:25:22.833</time></trkpt><trkpt lat="55.9121510" lon="49.2314481"><time>2023-06-03T07:25:23.840</time></trkpt><trkpt lat="55.9121587" lon="49.2313470"><time>2023-06-03T07:25:24.873</time></trkpt><trkpt lat="55.9121741" lon="49.2312438"><time>2023-06-03T07:25:25.837</time></trkpt><trkpt lat="55.9121874" lon="49.2311323"><time>2023-06-03T07:25:26.840</time></trkpt><trkpt lat="55.9122135" lon="49.2310156"><time>2023-06-03T07:25:27.837</time></trkpt><trkpt lat="55.9122382" lon="49.2309037"><time>2023-06-03T07:25:28.837</time></trkpt><trkpt lat="55.9122680" lon="49.2308048"><time>2023-06-03T07:25:29.843</time></trkpt><trkpt lat="55.9122772" lon="49.2307018"><time>2023-06-03T07:25:30.857</time></trkpt><trkpt lat="55.9123022" lon="49.2306061"><time>2023-06-03T07:25:31.843</time></trkpt><trkpt lat="55.9123270" lon="49.2305051"><time>2023-06-03T07:25:32.840</time></trkpt><trkpt lat="55.9123534" lon="49.2304060"><time>2023-06-03T07:25:33.837</time></trkpt><trkpt lat="55.9123756" lon="49.2303046"><time>2023-06-03T07:25:34.837</time></trkpt><trkpt lat="55.9124021" lon="49.2301901"><time>2023-06-03T07:25:35.830</time></trkpt><trkpt lat="55.9124215" lon="49.2300838"><time>2023-06-03T07:25:36.867</time></trkpt><trkpt lat="55.9124626" lon="49.2299836"><time>2023-06-03T07:25:37.833</time></trkpt><trkpt lat="55.9124961" lon="49.2298891"><time>2023-06-03T07:25:38.837</time></trkpt><trkpt lat="55.9125344" lon="49.2297862"><time>2023-06-03T07:25:39.837</time></trkpt><trkpt lat="55.9125546" lon="49.2296963"><time>2023-06-03T07:25:40.840</time></trkpt><trkpt lat="55.9125902" lon="49.2295995"><time>2023-06-03T07:25:41.857</time></trkpt><trkpt lat="55.9126467" lon="49.2295416"><time>2023-06-03T07:25:42.847</time></trkpt><trkpt lat="55.9127010" lon="49.2294829"><time>2023-06-03T07:25:43.837</time></trkpt><trkpt lat="55.9127602" lon="49.2294457"><time>2023-06-03T07:25:44.837</time></trkpt><trkpt lat="55.9128202" lon="49.2294165"><time>2023-06-03T07:25:45.847</time></trkpt><trkpt lat="55.9128831" lon="49.2293817"><time>2023-06-03T07:25:46.850</time></trkpt><trkpt lat="55.9129518" lon="49.2293538"><time>2023-06-03T07:25:47.853</time></trkpt><trkpt lat="55.9130238" lon="49.2293391"><time>2023-06-03T07:25:48.893</time></trkpt><trkpt lat="55.9131024" lon="49.2293284"><time>2023-06-03T07:25:49.837</time></trkpt><trkpt lat="55.9131773" lon="49.2293299"><time>2023-06-03T07:25:50.850</time></trkpt><trkpt lat="55.9132548" lon="49.2293392"><time>2023-06-03T07:25:51.837</time></trkpt><trkpt lat="55.9133283" lon="49.2293568"><time>2023-06-03T07:25:52.837</time></trkpt><trkpt lat="55.9134075" lon="49.2293821"><time>2023-06-03T07:25:53.837</time></trkpt><trkpt lat="55.9134863" lon="49.2294123"><time>2023-06-03T07:25:54.860</time></trkpt><trkpt lat="55.9135668" lon="49.2294416"><time>2023-06-03T07:25:55.840</time></trkpt><trkpt lat="55.9136509" lon="49.2294834"><time>2023-06-03T07:25:56.847</time></trkpt><trkpt lat="55.9137340" lon="49.2295223"><time>2023-06-03T07:25:57.840</time></trkpt><trkpt lat="55.9138153" lon="49.2295615"><time>2023-06-03T07:25:58.840</time></trkpt><trkpt lat="55.9138940" lon="49.2296010"><time>2023-06-03T07:25:59.837</time></trkpt><trkpt lat="55.9139844" lon="49.2296316"><time>2023-06-03T07:26:00.863</time></trkpt><trkpt lat="55.9140706" lon="49.2296646"><time>2023-06-03T07:26:01.840</time></trkpt><trkpt lat="55.9141478" lon="49.2296660"><time>2023-06-03T07:26:02.833</time></trkpt><trkpt lat="55.9142228" lon="49.2296708"><time>2023-06-03T07:26:03.850</time></trkpt><trkpt lat="55.9142926" lon="49.2296806"><time>2023-06-03T07:26:04.850</time></trkpt><trkpt lat="55.9143572" lon="49.2296724"><time>2023-06-03T07:26:05.850</time></trkpt><trkpt lat="55.9144229" lon="49.2296677"><time>2023-06-03T07:26:06.857</time></trkpt><trkpt lat="55.9144912" lon="49.2296580"><time>2023-06-03T07:26:07.840</time></trkpt><trkpt lat="55.9145478" lon="49.2296489"><time>2023-06-03T07:26:08.837</time></trkpt><trkpt lat="55.9146068" lon="49.2296445"><time>2023-06-03T07:26:09.840</time></trkpt><trkpt lat="55.9146622" lon="49.2296329"><time>2023-06-03T07:26:10.853</time></trkpt><trkpt lat="55.9147115" lon="49.2296258"><time>2023-06-03T07:26:11.870</time></trkpt><trkpt lat="55.9147693" lon="49.2296067"><time>2023-06-03T07:26:12.870</time></trkpt><trkpt lat="55.9148193" lon="49.2296033"><time>2023-06-03T07:26:13.840</time></trkpt><trkpt lat="55.9148714" lon="49.2295948"><time>2023-06-03T07:26:14.833</time></trkpt><trkpt lat="55.9149321" lon="49.2295875"><time>2023-06-03T07:26:15.837</time></trkpt><trkpt lat="55.9149905" lon="49.2295684"><time>2023-06-03T07:26:16.853</time></trkpt><trkpt lat="55.9150419" lon="49.2295421"><time>2023-06-03T07:26:17.847</time></trkpt><trkpt lat="55.9151016" lon="49.2295315"><time>2023-06-03T07:26:18.850</time></trkpt><trkpt lat="55.9151632" lon="49.2295154"><time>2023-06-03T07:26:19.847</time></trkpt><trkpt lat="55.9152214" lon="49.2294944"><time>2023-06-03T07:26:20.830</time></trkpt><trkpt lat="55.9152763" lon="49.2294795"><time>2023-06-03T07:26:21.837</time></trkpt><trkpt lat="55.9153336" lon="49.2294681"><time>2023-06-03T07:26:22.847</time></trkpt><trkpt lat="55.9153911" lon="49.2294509"><time>2023-06-03T07:26:23.867</time></trkpt><trkpt lat="55.9154479" lon="49.2294387"><time>2023-06-03T07:26:24.870</time></trkpt><trkpt lat="55.9154994" lon="49.2294050"><time>2023-06-03T07:26:25.837</time></trkpt><trkpt lat="55.9155422" lon="49.2293552"><time>2023-06-03T07:26:26.847</time></trkpt><trkpt lat="55.9155952" lon="49.2293405"><time>2023-06-03T07:26:27.840</time></trkpt><trkpt lat="55.9156490" lon="49.2293242"><time>2023-06-03T07:26:28.837</time></trkpt><trkpt lat="55.9157016" lon="49.2292938"><time>2023-06-03T07:26:29.833</time></trkpt><trkpt lat="55.9157490" lon="49.2292769"><time>2023-06-03T07:26:30.847</time></trkpt><trkpt lat="55.9157995" lon="49.2292716"><time>2023-06-03T07:26:31.833</time></trkpt><trkpt lat="55.9158528" lon="49.2292436"><time>2023-06-03T07:26:32.830</time></trkpt><trkpt lat="55.9159105" lon="49.2292200"><time>2023-06-03T07:26:33.847</time></trkpt><trkpt lat="55.9159630" lon="49.2291945"><time>2023-06-03T07:26:34.823</time></trkpt><trkpt lat="55.9160265" lon="49.2291736"><time>2023-06-03T07:26:35.837</time></trkpt><trkpt lat="55.9160774" lon="49.2291484"><time>2023-06-03T07:26:36.883</time></trkpt><trkpt lat="55.9161302" lon="49.2291048"><time>2023-06-03T07:26:37.840</time></trkpt><trkpt lat="55.9161849" lon="49.2290618"><time>2023-06-03T07:26:38.833</time></trkpt><trkpt lat="55.9162324" lon="49.2290179"><time>2023-06-03T07:26:39.853</time></trkpt><trkpt lat="55.9162859" lon="49.2289902"><time>2023-06-03T07:26:40.843</time></trkpt><trkpt lat="55.9163390" lon="49.2289613"><time>2023-06-03T07:26:41.857</time></trkpt><trkpt lat="55.9163920" lon="49.2289326"><time>2023-06-03T07:26:42.860</time></trkpt><trkpt lat="55.9164457" lon="49.2288979"><time>2023-06-03T07:26:43.860</time></trkpt><trkpt lat="55.9164956" lon="49.2288605"><time>2023-06-03T07:26:44.830</time></trkpt><trkpt lat="55.9165435" lon="49.2288056"><time>2023-06-03T07:26:45.840</time></trkpt><trkpt lat="55.9165932" lon="49.2287707"><time>2023-06-03T07:26:46.837</time></trkpt><trkpt lat="55.9166404" lon="49.2287146"><time>2023-06-03T07:26:47.830</time></trkpt><trkpt lat="55.9166859" lon="49.2286755"><time>2023-06-03T07:26:48.867</time></trkpt><trkpt lat="55.9167331" lon="49.2286250"><time>2023-06-03T07:26:49.840</time></trkpt><trkpt lat="55.9167781" lon="49.2285730"><time>2023-06-03T07:26:50.837</time></trkpt><trkpt lat="55.9168285" lon="49.2285313"><time>2023-06-03T07:26:51.837</time></trkpt><trkpt lat="55.9168697" lon="49.2284761"><time>2023-06-03T07:26:52.840</time></trkpt><trkpt lat="55.9169182" lon="49.2284293"><time>2023-06-03T07:26:53.837</time></trkpt><trkpt lat="55.9169695" lon="49.2283893"><time>2023-06-03T07:26:54.853</time></trkpt><trkpt lat="55.9170140" lon="49.2283422"><time>2023-06-03T07:26:55.840</time></trkpt><trkpt lat="55.9170596" lon="49.2282992"><time>2023-06-03T07:26:56.843</time></trkpt><trkpt lat="55.9170992" lon="49.2282446"><time>2023-06-03T07:26:57.840</time></trkpt><trkpt lat="55.9171409" lon="49.2282024"><time>2023-06-03T07:26:58.837</time></trkpt><trkpt lat="55.9171861" lon="49.2281731"><time>2023-06-03T07:26:59.833</time></trkpt><trkpt lat="55.9172331" lon="49.2281297"><time>2023-06-03T07:27:00.860</time></trkpt><trkpt lat="55.9172763" lon="49.2280874"><time>2023-06-03T07:27:01.843</time></trkpt><trkpt lat="55.9173183" lon="49.2280527"><time>2023-06-03T07:27:02.833</time></trkpt><trkpt lat="55.9174073" lon="49.2279940"><time>2023-06-03T07:27:04.833</time></trkpt><trkpt lat="55.9174602" lon="49.2279755"><time>2023-06-03T07:27:05.837</time></trkpt><trkpt lat="55.9175107" lon="49.2279569"><time>2023-06-03T07:27:06.887</time></trkpt><trkpt lat="55.9175665" lon="49.2279412"><time>2023-06-03T07:27:07.840</time></trkpt><trkpt lat="55.9176480" lon="49.2279121"><time>2023-06-03T07:27:09.847</time></trkpt><trkpt lat="55.9176957" lon="49.2278829"><time>2023-06-03T07:27:10.833</time></trkpt><trkpt lat="55.9177542" lon="49.2278718"><time>2023-06-03T07:27:11.843</time></trkpt><trkpt lat="55.9178089" lon="49.2278600"><time>2023-06-03T07:27:12.863</time></trkpt><trkpt lat="55.9178610" lon="49.2278425"><time>2023-06-03T07:27:13.833</time></trkpt><trkpt lat="55.9179145" lon="49.2278184"><time>2023-06-03T07:27:14.837</time></trkpt><trkpt lat="55.9179687" lon="49.2278175"><time>2023-06-03T07:27:15.830</time></trkpt><trkpt lat="55.9180183" lon="49.2277923"><time>2023-06-03T07:27:16.837</time></trkpt><trkpt lat="55.9180696" lon="49.2277857"><time>2023-06-03T07:27:17.843</time></trkpt><trkpt lat="55.9181218" lon="49.2277673"><time>2023-06-03T07:27:18.850</time></trkpt><trkpt lat="55.9181721" lon="49.2277492"><time>2023-06-03T07:27:19.840</time></trkpt><trkpt lat="55.9182258" lon="49.2277422"><time>2023-06-03T07:27:20.833</time></trkpt><trkpt lat="55.9182791" lon="49.2277401"><time>2023-06-03T07:27:21.837</time></trkpt><trkpt lat="55.9183318" lon="49.2277187"><time>2023-06-03T07:27:22.837</time></trkpt><trkpt lat="55.9183773" lon="49.2276965"><time>2023-06-03T07:27:23.837</time></trkpt><trkpt lat="55.9184264" lon="49.2276703"><time>2023-06-03T07:27:24.863</time></trkpt><trkpt lat="55.9184809" lon="49.2276590"><time>2023-06-03T07:27:25.840</time></trkpt><trkpt lat="55.9185348" lon="49.2276302"><time>2023-06-03T07:27:26.840</time></trkpt><trkpt lat="55.9185817" lon="49.2276004"><time>2023-06-03T07:27:27.850</time></trkpt><trkpt lat="55.9186298" lon="49.2275674"><time>2023-06-03T07:27:28.830</time></trkpt><trkpt lat="55.9186774" lon="49.2275326"><time>2023-06-03T07:27:29.843</time></trkpt><trkpt lat="55.9187251" lon="49.2274981"><time>2023-06-03T07:27:30.853</time></trkpt><trkpt lat="55.9187723" lon="49.2274542"><time>2023-06-03T07:27:31.833</time></trkpt><trkpt lat="55.9188184" lon="49.2274175"><time>2023-06-03T07:27:32.823</time></trkpt><trkpt lat="55.9188531" lon="49.2273448"><time>2023-06-03T07:27:33.840</time></trkpt><trkpt lat="55.9188911" lon="49.2272761"><time>2023-06-03T07:27:34.837</time></trkpt><trkpt lat="55.9189389" lon="49.2272292"><time>2023-06-03T07:27:35.830</time></trkpt><trkpt lat="55.9189862" lon="49.2271852"><time>2023-06-03T07:27:36.867</time></trkpt><trkpt lat="55.9190292" lon="49.2271362"><time>2023-06-03T07:27:37.837</time></trkpt><trkpt lat="55.9190726" lon="49.2270812"><time>2023-06-03T07:27:38.843</time></trkpt><trkpt lat="55.9191177" lon="49.2270310"><time>2023-06-03T07:27:39.833</time></trkpt><trkpt lat="55.9191681" lon="49.2269913"><time>2023-06-03T07:27:40.843</time></trkpt><trkpt lat="55.9192185" lon="49.2269533"><time>2023-06-03T07:27:41.837</time></trkpt><trkpt lat="55.9192791" lon="49.2269318"><time>2023-06-03T07:27:42.847</time></trkpt><trkpt lat="55.9193383" lon="49.2269054"><time>2023-06-03T07:27:43.837</time></trkpt><trkpt lat="55.9193802" lon="49.2268746"><time>2023-06-03T07:27:44.830</time></trkpt><trkpt lat="55.9194661" lon="49.2268058"><time>2023-06-03T07:27:46.833</time></trkpt><trkpt lat="55.9195063" lon="49.2267545"><time>2023-06-03T07:27:47.860</time></trkpt><trkpt lat="55.9195758" lon="49.2266623"><time>2023-06-03T07:27:49.837</time></trkpt><trkpt lat="55.9196619" lon="49.2265948"><time>2023-06-03T07:27:51.847</time></trkpt><trkpt lat="55.9197050" lon="49.2265613"><time>2023-06-03T07:27:52.837</time></trkpt><trkpt lat="55.9197879" lon="49.2264786"><time>2023-06-03T07:27:54.860</time></trkpt><trkpt lat="55.9198333" lon="49.2264441"><time>2023-06-03T07:27:55.853</time></trkpt><trkpt lat="55.9199011" lon="49.2263825"><time>2023-06-03T07:27:57.837</time></trkpt><trkpt lat="55.9199905" lon="49.2263531"><time>2023-06-03T07:27:59.837</time></trkpt><trkpt lat="55.9200698" lon="49.2263231"><time>2023-06-03T07:28:01.847</time></trkpt><trkpt lat="55.9201480" lon="49.2262685"><time>2023-06-03T07:28:03.847</time></trkpt><trkpt lat="55.9202263" lon="49.2262456"><time>2023-06-03T07:28:05.837</time></trkpt><trkpt lat="55.9203076" lon="49.2261869"><time>2023-06-03T07:28:07.840</time></trkpt><trkpt lat="55.9203711" lon="49.2260965"><time>2023-06-03T07:28:09.847</time></trkpt><trkpt lat="55.9204553" lon="49.2260300"><time>2023-06-03T07:28:11.850</time></trkpt><trkpt lat="55.9205049" lon="49.2260086"><time>2023-06-03T07:28:12.863</time></trkpt><trkpt lat="55.9205862" lon="49.2259513"><time>2023-06-03T07:28:14.833</time></trkpt><trkpt lat="55.9206313" lon="49.2259079"><time>2023-06-03T07:28:15.837</time></trkpt><trkpt lat="55.9206744" lon="49.2258802"><time>2023-06-03T07:28:16.827</time></trkpt><trkpt lat="55.9207470" lon="49.2258102"><time>2023-06-03T07:28:18.853</time></trkpt><trkpt lat="55.9207884" lon="49.2257790"><time>2023-06-03T07:28:19.867</time></trkpt><trkpt lat="55.9208614" lon="49.2257159"><time>2023-06-03T07:28:21.850</time></trkpt><trkpt lat="55.9209372" lon="49.2256447"><time>2023-06-03T07:28:23.840</time></trkpt><trkpt lat="55.9210148" lon="49.2255731"><time>2023-06-03T07:28:25.837</time></trkpt><trkpt lat="55.9211033" lon="49.2255140"><time>2023-06-03T07:28:27.837</time></trkpt><trkpt lat="55.9211520" lon="49.2254918"><time>2023-06-03T07:28:28.840</time></trkpt><trkpt lat="55.9212040" lon="49.2254552"><time>2023-06-03T07:28:30.857</time></trkpt><trkpt lat="55.9212457" lon="49.2253987"><time>2023-06-03T07:28:33.840</time></trkpt><trkpt lat="55.9212347" lon="49.2253086"><time>2023-06-03T07:28:35.837</time></trkpt><trkpt lat="55.9212135" lon="49.2251996"><time>2023-06-03T07:28:37.847</time></trkpt><trkpt lat="55.9211814" lon="49.2251002"><time>2023-06-03T07:28:39.850</time></trkpt><trkpt lat="55.9211457" lon="49.2250140"><time>2023-06-03T07:28:41.847</time></trkpt><trkpt lat="55.9210991" lon="49.2249077"><time>2023-06-03T07:28:43.840</time></trkpt><trkpt lat="55.9210657" lon="49.2248181"><time>2023-06-03T07:28:45.840</time></trkpt><trkpt lat="55.9210430" lon="49.2247414"><time>2023-06-03T07:28:47.843</time></trkpt><trkpt lat="55.9210275" lon="49.2246655"><time>2023-06-03T07:28:49.840</time></trkpt><trkpt lat="55.9210703" lon="49.2247338"><time>2023-06-03T07:29:45.843</time></trkpt><trkpt lat="55.9210814" lon="49.2248178"><time>2023-06-03T07:29:47.837</time></trkpt><trkpt lat="55.9210921" lon="49.2249111"><time>2023-06-03T07:29:49.847</time></trkpt><trkpt lat="55.9211288" lon="49.2250340"><time>2023-06-03T07:29:51.843</time></trkpt><trkpt lat="55.9211764" lon="49.2251473"><time>2023-06-03T07:29:53.843</time></trkpt><trkpt lat="55.9212158" lon="49.2252647"><time>2023-06-03T07:29:55.837</time></trkpt><trkpt lat="55.9212378" lon="49.2253613"><time>2023-06-03T07:29:57.830</time></trkpt><trkpt lat="55.9212614" lon="49.2254405"><time>2023-06-03T07:29:59.847</time></trkpt><trkpt lat="55.9213218" lon="49.2254753"><time>2023-06-03T07:30:01.837</time></trkpt><trkpt lat="55.9213975" lon="49.2254403"><time>2023-06-03T07:30:03.833</time></trkpt><trkpt lat="55.9214683" lon="49.2253914"><time>2023-06-03T07:30:05.843</time></trkpt><trkpt lat="55.9215372" lon="49.2253463"><time>2023-06-03T07:30:07.850</time></trkpt><trkpt lat="55.9216124" lon="49.2253081"><time>2023-06-03T07:30:09.833</time></trkpt><trkpt lat="55.9216883" lon="49.2252721"><time>2023-06-03T07:30:11.820</time></trkpt><trkpt lat="55.9217671" lon="49.2252377"><time>2023-06-03T07:30:13.853</time></trkpt><trkpt lat="55.9218441" lon="49.2251998"><time>2023-06-03T07:30:15.843</time></trkpt><trkpt lat="55.9219125" lon="49.2251704"><time>2023-06-03T07:30:17.840</time></trkpt><trkpt lat="55.9219565" lon="49.2251489"><time>2023-06-03T07:30:19.847</time></trkpt><trkpt lat="55.9220212" lon="49.2251114"><time>2023-06-03T07:30:22.847</time></trkpt><trkpt lat="55.9220764" lon="49.2250768"><time>2023-06-03T07:30:25.827</time></trkpt><trkpt lat="55.9221391" lon="49.2250466"><time>2023-06-03T07:30:28.837</time></trkpt><trkpt lat="55.9221994" lon="49.2250140"><time>2023-06-03T07:30:30.843</time></trkpt><trkpt lat="55.9222672" lon="49.2249761"><time>2023-06-03T07:30:32.837</time></trkpt><trkpt lat="55.9223399" lon="49.2249319"><time>2023-06-03T07:30:34.843</time></trkpt><trkpt lat="55.9224151" lon="49.2248935"><time>2023-06-03T07:30:36.837</time></trkpt><trkpt lat="55.9224896" lon="49.2248659"><time>2023-06-03T07:30:38.840</time></trkpt><trkpt lat="55.9225621" lon="49.2248398"><time>2023-06-03T07:30:40.840</time></trkpt><trkpt lat="55.9226197" lon="49.2248371"><time>2023-06-03T07:30:42.837</time></trkpt><trkpt lat="55.9226776" lon="49.2248473"><time>2023-06-03T07:30:44.843</time></trkpt><trkpt lat="55.9227355" lon="49.2248496"><time>2023-06-03T07:30:46.837</time></trkpt><trkpt lat="55.9227957" lon="49.2248477"><time>2023-06-03T07:30:48.837</time></trkpt><trkpt lat="55.9228610" lon="49.2248467"><time>2023-06-03T07:30:50.863</time></trkpt><trkpt lat="55.9229265" lon="49.2248394"><time>2023-06-03T07:30:52.843</time></trkpt><trkpt lat="55.9229886" lon="49.2248363"><time>2023-06-03T07:30:54.827</time></trkpt><trkpt lat="55.9230488" lon="49.2248413"><time>2023-06-03T07:30:56.850</time></trkpt><trkpt lat="55.9231127" lon="49.2248487"><time>2023-06-03T07:30:58.843</time></trkpt><trkpt lat="55.9231706" lon="49.2248557"><time>2023-06-03T07:31:00.837</time></trkpt><trkpt lat="55.9232325" lon="49.2248643"><time>2023-06-03T07:31:02.887</time></trkpt><trkpt lat="55.9232973" lon="49.2248673"><time>2023-06-03T07:31:04.837</time></trkpt><trkpt lat="55.9233700" lon="49.2248673"><time>2023-06-03T07:31:06.847</time></trkpt><trkpt lat="55.9234377" lon="49.2248726"><time>2023-06-03T07:31:08.853</time></trkpt><trkpt lat="55.9235052" lon="49.2248743"><time>2023-06-03T07:31:10.837</time></trkpt><trkpt lat="55.9235763" lon="49.2248632"><time>2023-06-03T07:31:12.837</time></trkpt><trkpt lat="55.9236456" lon="49.2248570"><time>2023-06-03T07:31:14.873</time></trkpt><trkpt lat="55.9237070" lon="49.2248500"><time>2023-06-03T07:31:16.833</time></trkpt><trkpt lat="55.9237809" lon="49.2248258"><time>2023-06-03T07:31:18.847</time></trkpt><trkpt lat="55.9238540" lon="49.2247955"><time>2023-06-03T07:31:20.863</time></trkpt><trkpt lat="55.9239237" lon="49.2247808"><time>2023-06-03T07:31:22.840</time></trkpt><trkpt lat="55.9239961" lon="49.2247644"><time>2023-06-03T07:31:24.850</time></trkpt><trkpt lat="55.9240698" lon="49.2247552"><time>2023-06-03T07:31:26.883</time></trkpt><trkpt lat="55.9241558" lon="49.2247391"><time>2023-06-03T07:31:28.843</time></trkpt><trkpt lat="55.9242296" lon="49.2247120"><time>2023-06-03T07:31:30.860</time></trkpt><trkpt lat="55.9242816" lon="49.2246618"><time>2023-06-03T07:31:32.847</time></trkpt><trkpt lat="55.9243058" lon="49.2245552"><time>2023-06-03T07:31:34.850</time></trkpt><trkpt lat="55.9242940" lon="49.2244451"><time>2023-06-03T07:31:36.837</time></trkpt><trkpt lat="55.9242795" lon="49.2243466"><time>2023-06-03T07:31:38.887</time></trkpt><trkpt lat="55.9242744" lon="49.2242991"><time>2023-06-03T07:31:39.827</time></trkpt><trkpt lat="55.9242492" lon="49.2241946"><time>2023-06-03T07:31:41.833</time></trkpt><trkpt lat="55.9242055" lon="49.2241081"><time>2023-06-03T07:31:43.837</time></trkpt><trkpt lat="55.9241740" lon="49.2240289"><time>2023-06-03T07:31:45.837</time></trkpt><trkpt lat="55.9241538" lon="49.2239288"><time>2023-06-03T07:31:47.837</time></trkpt><trkpt lat="55.9241587" lon="49.2238354"><time>2023-06-03T07:31:49.847</time></trkpt><trkpt lat="55.9241654" lon="49.2237331"><time>2023-06-03T07:31:51.827</time></trkpt><trkpt lat="55.9241484" lon="49.2236134"><time>2023-06-03T07:31:53.843</time></trkpt><trkpt lat="55.9241226" lon="49.2234855"><time>2023-06-03T07:31:55.833</time></trkpt><trkpt lat="55.9240852" lon="49.2233899"><time>2023-06-03T07:31:57.843</time></trkpt><trkpt lat="55.9240428" lon="49.2232956"><time>2023-06-03T07:31:59.843</time></trkpt><trkpt lat="55.9240118" lon="49.2232114"><time>2023-06-03T07:32:01.837</time></trkpt><trkpt lat="55.9239805" lon="49.2231140"><time>2023-06-03T07:32:03.840</time></trkpt><trkpt lat="55.9239522" lon="49.2230154"><time>2023-06-03T07:32:05.850</time></trkpt><trkpt lat="55.9239340" lon="49.2229334"><time>2023-06-03T07:32:07.843</time></trkpt><trkpt lat="55.9239189" lon="49.2228491"><time>2023-06-03T07:32:09.850</time></trkpt><trkpt lat="55.9238935" lon="49.2227391"><time>2023-06-03T07:32:11.837</time></trkpt><trkpt lat="55.9238584" lon="49.2226566"><time>2023-06-03T07:32:13.837</time></trkpt><trkpt lat="55.9238212" lon="49.2225779"><time>2023-06-03T07:32:15.847</time></trkpt><trkpt lat="55.9237962" lon="49.2224864"><time>2023-06-03T07:32:17.840</time></trkpt><trkpt lat="55.9237857" lon="49.2223824"><time>2023-06-03T07:32:19.847</time></trkpt><trkpt lat="55.9237873" lon="49.2223355"><time>2023-06-03T07:32:20.867</time></trkpt><trkpt lat="55.9238241" lon="49.2222775"><time>2023-06-03T07:33:00.850</time></trkpt><trkpt lat="55.9238694" lon="49.2222230"><time>2023-06-03T07:33:03.850</time></trkpt><trkpt lat="55.9239241" lon="49.2221974"><time>2023-06-03T07:33:06.833</time></trkpt><trkpt lat="55.9239601" lon="49.2221268"><time>2023-06-03T07:33:09.847</time></trkpt><trkpt lat="55.9239932" lon="49.2220567"><time>2023-06-03T07:33:12.837</time></trkpt><trkpt lat="55.9240362" lon="49.2220126"><time>2023-06-03T07:33:14.877</time></trkpt><trkpt lat="55.9240785" lon="49.2219614"><time>2023-06-03T07:33:16.837</time></trkpt><trkpt lat="55.9241089" lon="49.2218872"><time>2023-06-03T07:33:18.843</time></trkpt><trkpt lat="55.9241325" lon="49.2218044"><time>2023-06-03T07:33:20.943</time></trkpt><trkpt lat="55.9241430" lon="49.2217647"><time>2023-06-03T07:33:21.847</time></trkpt><trkpt lat="55.9241715" lon="49.2216890"><time>2023-06-03T07:33:23.837</time></trkpt><trkpt lat="55.9242074" lon="49.2216356"><time>2023-06-03T07:33:25.840</time></trkpt><trkpt lat="55.9242465" lon="49.2215853"><time>2023-06-03T07:33:28.833</time></trkpt><trkpt lat="55.9242828" lon="49.2215267"><time>2023-06-03T07:33:44.840</time></trkpt><trkpt lat="55.9242492" lon="49.2214577"><time>2023-06-03T07:34:09.840</time></trkpt><trkpt lat="55.9242721" lon="49.2213823"><time>2023-06-03T07:34:17.860</time></trkpt><trkpt lat="55.9242721" lon="49.2213823"><time>2023-06-03T07:34:17.947</time></trkpt><trkpt lat="55.9242433" lon="49.2214451"><time>2023-06-03T07:34:29.847</time></trkpt><trkpt lat="55.9242412" lon="49.2214593"><time>2023-06-03T07:34:30.833</time></trkpt><trkpt lat="55.9242506" lon="49.2215391"><time>2023-06-03T07:34:36.830</time></trkpt><trkpt lat="55.9242374" lon="49.2216329"><time>2023-06-03T07:35:28.837</time></trkpt><trkpt lat="55.9242020" lon="49.2217038"><time>2023-06-03T07:35:30.853</time></trkpt><trkpt lat="55.9241704" lon="49.2217610"><time>2023-06-03T07:35:32.830</time></trkpt><trkpt lat="55.9241374" lon="49.2218380"><time>2023-06-03T07:35:34.833</time></trkpt><trkpt lat="55.9241005" lon="49.2218875"><time>2023-06-03T07:35:36.870</time></trkpt><trkpt lat="55.9240491" lon="49.2219665"><time>2023-06-03T07:35:39.837</time></trkpt><trkpt lat="55.9240056" lon="49.2220251"><time>2023-06-03T07:35:41.840</time></trkpt><trkpt lat="55.9239647" lon="49.2220797"><time>2023-06-03T07:35:43.840</time></trkpt><trkpt lat="55.9239255" lon="49.2221658"><time>2023-06-03T07:35:46.833</time></trkpt><trkpt lat="55.9238950" lon="49.2222357"><time>2023-06-03T07:35:48.873</time></trkpt><trkpt lat="55.9238682" lon="49.2223092"><time>2023-06-03T07:35:50.837</time></trkpt><trkpt lat="55.9238459" lon="49.2223805"><time>2023-06-03T07:35:52.833</time></trkpt><trkpt lat="55.9238183" lon="49.2224494"><time>2023-06-03T07:35:54.853</time></trkpt><trkpt lat="55.9238128" lon="49.2225364"><time>2023-06-03T07:35:56.843</time></trkpt><trkpt lat="55.9238429" lon="49.2226330"><time>2023-06-03T07:35:58.837</time></trkpt><trkpt lat="55.9238988" lon="49.2227197"><time>2023-06-03T07:36:00.877</time></trkpt><trkpt lat="55.9239562" lon="49.2228338"><time>2023-06-03T07:36:02.840</time></trkpt><trkpt lat="55.9239790" lon="49.2229029"><time>2023-06-03T07:36:03.843</time></trkpt><trkpt lat="55.9240201" lon="49.2230368"><time>2023-06-03T07:36:05.850</time></trkpt><trkpt lat="55.9240518" lon="49.2231909"><time>2023-06-03T07:36:07.840</time></trkpt><trkpt lat="55.9240704" lon="49.2233256"><time>2023-06-03T07:36:08.833</time></trkpt><trkpt lat="55.9241215" lon="49.2234255"><time>2023-06-03T07:36:10.833</time></trkpt><trkpt lat="55.9241475" lon="49.2235135"><time>2023-06-03T07:36:12.870</time></trkpt><trkpt lat="55.9241827" lon="49.2235958"><time>2023-06-03T07:36:14.833</time></trkpt><trkpt lat="55.9241957" lon="49.2237103"><time>2023-06-03T07:36:16.833</time></trkpt><trkpt lat="55.9242062" lon="49.2238183"><time>2023-06-03T07:36:18.867</time></trkpt><trkpt lat="55.9241889" lon="49.2239116"><time>2023-06-03T07:36:20.837</time></trkpt><trkpt lat="55.9241870" lon="49.2240147"><time>2023-06-03T07:36:22.833</time></trkpt><trkpt lat="55.9242090" lon="49.2241119"><time>2023-06-03T07:36:24.867</time></trkpt><trkpt lat="55.9242528" lon="49.2241984"><time>2023-06-03T07:36:26.847</time></trkpt><trkpt lat="55.9242846" lon="49.2242837"><time>2023-06-03T07:36:28.840</time></trkpt><trkpt lat="55.9242816" lon="49.2243671"><time>2023-06-03T07:36:30.860</time></trkpt><trkpt lat="55.9242749" lon="49.2244528"><time>2023-06-03T07:36:32.837</time></trkpt><trkpt lat="55.9242811" lon="49.2245480"><time>2023-06-03T07:36:34.843</time></trkpt><trkpt lat="55.9243067" lon="49.2246468"><time>2023-06-03T07:36:37.837</time></trkpt><trkpt lat="55.9243405" lon="49.2247045"><time>2023-06-03T07:36:39.843</time></trkpt><trkpt lat="55.9243923" lon="49.2247529"><time>2023-06-03T07:36:41.847</time></trkpt><trkpt lat="55.9244563" lon="49.2247896"><time>2023-06-03T07:36:43.853</time></trkpt><trkpt lat="55.9245229" lon="49.2247958"><time>2023-06-03T07:36:45.843</time></trkpt><trkpt lat="55.9245953" lon="49.2248009"><time>2023-06-03T07:36:47.847</time></trkpt><trkpt lat="55.9246737" lon="49.2248108"><time>2023-06-03T07:36:49.840</time></trkpt><trkpt lat="55.9247529" lon="49.2248178"><time>2023-06-03T07:36:51.840</time></trkpt><trkpt lat="55.9248338" lon="49.2248083"><time>2023-06-03T07:36:53.840</time></trkpt><trkpt lat="55.9249116" lon="49.2247636"><time>2023-06-03T07:36:55.840</time></trkpt><trkpt lat="55.9249856" lon="49.2246973"><time>2023-06-03T07:36:57.840</time></trkpt><trkpt lat="55.9250487" lon="49.2246324"><time>2023-06-03T07:36:59.837</time></trkpt><trkpt lat="55.9251165" lon="49.2245580"><time>2023-06-03T07:37:01.833</time></trkpt><trkpt lat="55.9251862" lon="49.2244769"><time>2023-06-03T07:37:03.837</time></trkpt><trkpt lat="55.9252506" lon="49.2243923"><time>2023-06-03T07:37:05.837</time></trkpt><trkpt lat="55.9253223" lon="49.2242945"><time>2023-06-03T07:37:07.837</time></trkpt><trkpt lat="55.9253747" lon="49.2242310"><time>2023-06-03T07:37:08.837</time></trkpt><trkpt lat="55.9254170" lon="49.2241839"><time>2023-06-03T07:37:09.830</time></trkpt><trkpt lat="55.9254913" lon="49.2240773"><time>2023-06-03T07:37:11.837</time></trkpt><trkpt lat="55.9255245" lon="49.2240148"><time>2023-06-03T07:37:12.857</time></trkpt><trkpt lat="55.9255564" lon="49.2239586"><time>2023-06-03T07:37:13.837</time></trkpt><trkpt lat="55.9256123" lon="49.2238542"><time>2023-06-03T07:37:15.837</time></trkpt><trkpt lat="55.9256560" lon="49.2237288"><time>2023-06-03T07:37:17.843</time></trkpt><trkpt lat="55.9256941" lon="49.2236310"><time>2023-06-03T07:37:19.833</time></trkpt><trkpt lat="55.9257166" lon="49.2235206"><time>2023-06-03T07:37:21.833</time></trkpt><trkpt lat="55.9257488" lon="49.2234084"><time>2023-06-03T07:37:23.857</time></trkpt><trkpt lat="55.9257848" lon="49.2233055"><time>2023-06-03T07:37:25.843</time></trkpt><trkpt lat="55.9258228" lon="49.2232004"><time>2023-06-03T07:37:27.847</time></trkpt><trkpt lat="55.9258538" lon="49.2230892"><time>2023-06-03T07:37:29.840</time></trkpt><trkpt lat="55.9258900" lon="49.2229829"><time>2023-06-03T07:37:31.840</time></trkpt><trkpt lat="55.9259364" lon="49.2228791"><time>2023-06-03T07:37:33.843</time></trkpt><trkpt lat="55.9259799" lon="49.2227840"><time>2023-06-03T07:37:35.847</time></trkpt><trkpt lat="55.9260219" lon="49.2227130"><time>2023-06-03T07:37:37.830</time></trkpt><trkpt lat="55.9260862" lon="49.2226816"><time>2023-06-03T07:37:39.840</time></trkpt><trkpt lat="55.9261426" lon="49.2226933"><time>2023-06-03T07:37:41.833</time></trkpt><trkpt lat="55.9261854" lon="49.2227498"><time>2023-06-03T07:37:43.843</time></trkpt><trkpt lat="55.9262172" lon="49.2228234"><time>2023-06-03T07:37:45.837</time></trkpt><trkpt lat="55.9262533" lon="49.2229042"><time>2023-06-03T07:37:47.843</time></trkpt><trkpt lat="55.9263074" lon="49.2230163"><time>2023-06-03T07:37:49.830</time></trkpt><trkpt lat="55.9263682" lon="49.2231952"><time>2023-06-03T07:37:51.840</time></trkpt><trkpt lat="55.9264309" lon="49.2232968"><time>2023-06-03T07:37:53.837</time></trkpt><trkpt lat="55.9264488" lon="49.2234043"><time>2023-06-03T07:37:55.837</time></trkpt><trkpt lat="55.9264924" lon="49.2235094"><time>2023-06-03T07:37:57.837</time></trkpt><trkpt lat="55.9265573" lon="49.2235809"><time>2023-06-03T07:37:59.837</time></trkpt><trkpt lat="55.9266229" lon="49.2236200"><time>2023-06-03T07:38:01.833</time></trkpt><trkpt lat="55.9266989" lon="49.2236282"><time>2023-06-03T07:38:03.837</time></trkpt><trkpt lat="55.9267708" lon="49.2236321"><time>2023-06-03T07:38:05.850</time></trkpt><trkpt lat="55.9268377" lon="49.2236221"><time>2023-06-03T07:38:07.837</time></trkpt><trkpt lat="55.9268929" lon="49.2236034"><time>2023-06-03T07:38:09.847</time></trkpt><trkpt lat="55.9269550" lon="49.2235990"><time>2023-06-03T07:38:11.837</time></trkpt><trkpt lat="55.9270290" lon="49.2235910"><time>2023-06-03T07:38:13.850</time></trkpt><trkpt lat="55.9271056" lon="49.2235692"><time>2023-06-03T07:38:15.837</time></trkpt><trkpt lat="55.9271736" lon="49.2235318"><time>2023-06-03T07:38:17.847</time></trkpt><trkpt lat="55.9272372" lon="49.2234897"><time>2023-06-03T07:38:19.840</time></trkpt><trkpt lat="55.9272874" lon="49.2234396"><time>2023-06-03T07:38:21.833</time></trkpt><trkpt lat="55.9273350" lon="49.2233718"><time>2023-06-03T07:38:23.847</time></trkpt><trkpt lat="55.9274041" lon="49.2233084"><time>2023-06-03T07:38:25.837</time></trkpt><trkpt lat="55.9274679" lon="49.2232656"><time>2023-06-03T07:38:27.843</time></trkpt><trkpt lat="55.9275393" lon="49.2232119"><time>2023-06-03T07:38:29.843</time></trkpt><trkpt lat="55.9275995" lon="49.2231519"><time>2023-06-03T07:38:31.827</time></trkpt><trkpt lat="55.9276680" lon="49.2230774"><time>2023-06-03T07:38:33.843</time></trkpt><trkpt lat="55.9277265" lon="49.2230246"><time>2023-06-03T07:38:35.847</time></trkpt><trkpt lat="55.9277841" lon="49.2229892"><time>2023-06-03T07:38:37.847</time></trkpt><trkpt lat="55.9278497" lon="49.2229532"><time>2023-06-03T07:38:39.843</time></trkpt><trkpt lat="55.9279199" lon="49.2229410"><time>2023-06-03T07:38:41.837</time></trkpt><trkpt lat="55.9279962" lon="49.2229383"><time>2023-06-03T07:38:43.833</time></trkpt><trkpt lat="55.9280590" lon="49.2229332"><time>2023-06-03T07:38:45.847</time></trkpt><trkpt lat="55.9281209" lon="49.2229355"><time>2023-06-03T07:38:47.850</time></trkpt><trkpt lat="55.9281790" lon="49.2229565"><time>2023-06-03T07:38:49.850</time></trkpt><trkpt lat="55.9282237" lon="49.2229882"><time>2023-06-03T07:38:51.850</time></trkpt><trkpt lat="55.9282789" lon="49.2230721"><time>2023-06-03T07:38:54.857</time></trkpt><trkpt lat="55.9283184" lon="49.2231639"><time>2023-06-03T07:38:56.837</time></trkpt><trkpt lat="55.9283479" lon="49.2232782"><time>2023-06-03T07:38:58.830</time></trkpt><trkpt lat="55.9283817" lon="49.2234158"><time>2023-06-03T07:39:00.867</time></trkpt><trkpt lat="55.9284061" lon="49.2234866"><time>2023-06-03T07:39:01.840</time></trkpt><trkpt lat="55.9284356" lon="49.2235489"><time>2023-06-03T07:39:02.837</time></trkpt><trkpt lat="55.9284694" lon="49.2236029"><time>2023-06-03T07:39:03.830</time></trkpt><trkpt lat="55.9285428" lon="49.2236747"><time>2023-06-03T07:39:05.840</time></trkpt><trkpt lat="55.9286166" lon="49.2237171"><time>2023-06-03T07:39:07.827</time></trkpt><trkpt lat="55.9286892" lon="49.2237667"><time>2023-06-03T07:39:09.840</time></trkpt><trkpt lat="55.9287600" lon="49.2238247"><time>2023-06-03T07:39:11.837</time></trkpt><trkpt lat="55.9288264" lon="49.2238966"><time>2023-06-03T07:39:13.850</time></trkpt><trkpt lat="55.9288873" lon="49.2239704"><time>2023-06-03T07:39:15.827</time></trkpt><trkpt lat="55.9289364" lon="49.2240347"><time>2023-06-03T07:39:17.830</time></trkpt><trkpt lat="55.9289649" lon="49.2241196"><time>2023-06-03T07:39:19.833</time></trkpt><trkpt lat="55.9289768" lon="49.2242377"><time>2023-06-03T07:39:21.837</time></trkpt><trkpt lat="55.9289969" lon="49.2244153"><time>2023-06-03T07:39:23.837</time></trkpt><trkpt lat="55.9290492" lon="49.2244970"><time>2023-06-03T07:39:25.840</time></trkpt><trkpt lat="55.9290828" lon="49.2245834"><time>2023-06-03T07:39:27.837</time></trkpt><trkpt lat="55.9291170" lon="49.2246624"><time>2023-06-03T07:39:29.847</time></trkpt><trkpt lat="55.9291581" lon="49.2247273"><time>2023-06-03T07:39:31.833</time></trkpt><trkpt lat="55.9291969" lon="49.2247998"><time>2023-06-03T07:39:33.833</time></trkpt><trkpt lat="55.9292412" lon="49.2248715"><time>2023-06-03T07:39:36.833</time></trkpt><trkpt lat="55.9292994" lon="49.2249385"><time>2023-06-03T07:39:39.833</time></trkpt><trkpt lat="55.9293557" lon="49.2249616"><time>2023-06-03T07:39:41.847</time></trkpt><trkpt lat="55.9294155" lon="49.2249877"><time>2023-06-03T07:39:43.837</time></trkpt><trkpt lat="55.9294732" lon="49.2250317"><time>2023-06-03T07:39:45.837</time></trkpt><trkpt lat="55.9295283" lon="49.2251045"><time>2023-06-03T07:39:47.870</time></trkpt><trkpt lat="55.9295916" lon="49.2252090"><time>2023-06-03T07:39:49.840</time></trkpt><trkpt lat="55.9296543" lon="49.2253099"><time>2023-06-03T07:39:51.830</time></trkpt><trkpt lat="55.9297164" lon="49.2254487"><time>2023-06-03T07:39:53.833</time></trkpt><trkpt lat="55.9297770" lon="49.2255162"><time>2023-06-03T07:39:55.843</time></trkpt><trkpt lat="55.9298223" lon="49.2255852"><time>2023-06-03T07:39:57.837</time></trkpt><trkpt lat="55.9298685" lon="49.2256374"><time>2023-06-03T07:39:59.833</time></trkpt><trkpt lat="55.9298911" lon="49.2257101"><time>2023-06-03T07:40:01.840</time></trkpt><trkpt lat="55.9299340" lon="49.2257642"><time>2023-06-03T07:40:04.853</time></trkpt><trkpt lat="55.9299733" lon="49.2258482"><time>2023-06-03T07:40:07.837</time></trkpt><trkpt lat="55.9300404" lon="49.2258533"><time>2023-06-03T07:40:43.840</time></trkpt><trkpt lat="55.9300924" lon="49.2258586"><time>2023-06-03T07:40:45.837</time></trkpt><trkpt lat="55.9301605" lon="49.2258632"><time>2023-06-03T07:40:47.847</time></trkpt><trkpt lat="55.9302199" lon="49.2258823"><time>2023-06-03T07:40:49.850</time></trkpt><trkpt lat="55.9302815" lon="49.2259040"><time>2023-06-03T07:40:51.843</time></trkpt><trkpt lat="55.9303437" lon="49.2259138"><time>2023-06-03T07:40:53.830</time></trkpt><trkpt lat="55.9304089" lon="49.2259181"><time>2023-06-03T07:40:55.837</time></trkpt><trkpt lat="55.9304732" lon="49.2259118"><time>2023-06-03T07:40:57.840</time></trkpt><trkpt lat="55.9305357" lon="49.2259100"><time>2023-06-03T07:40:59.847</time></trkpt><trkpt lat="55.9305997" lon="49.2259323"><time>2023-06-03T07:41:01.847</time></trkpt><trkpt lat="55.9306686" lon="49.2259689"><time>2023-06-03T07:41:03.840</time></trkpt><trkpt lat="55.9307496" lon="49.2260116"><time>2023-06-03T07:41:05.847</time></trkpt><trkpt lat="55.9308195" lon="49.2260615"><time>2023-06-03T07:41:07.840</time></trkpt><trkpt lat="55.9308889" lon="49.2261193"><time>2023-06-03T07:41:09.833</time></trkpt><trkpt lat="55.9309400" lon="49.2261765"><time>2023-06-03T07:41:11.827</time></trkpt><trkpt lat="55.9309827" lon="49.2262593"><time>2023-06-03T07:41:13.837</time></trkpt><trkpt lat="55.9310254" lon="49.2263285"><time>2023-06-03T07:41:15.837</time></trkpt><trkpt lat="55.9310729" lon="49.2264101"><time>2023-06-03T07:41:17.830</time></trkpt><trkpt lat="55.9311031" lon="49.2264942"><time>2023-06-03T07:41:19.830</time></trkpt><trkpt lat="55.9311385" lon="49.2265766"><time>2023-06-03T07:41:21.833</time></trkpt><trkpt lat="55.9311821" lon="49.2266523"><time>2023-06-03T07:41:23.837</time></trkpt><trkpt lat="55.9312254" lon="49.2267147"><time>2023-06-03T07:41:25.830</time></trkpt><trkpt lat="55.9312758" lon="49.2267932"><time>2023-06-03T07:41:27.840</time></trkpt><trkpt lat="55.9313243" lon="49.2268838"><time>2023-06-03T07:41:29.837</time></trkpt><trkpt lat="55.9313738" lon="49.2269630"><time>2023-06-03T07:41:31.847</time></trkpt><trkpt lat="55.9314270" lon="49.2270353"><time>2023-06-03T07:41:33.837</time></trkpt><trkpt lat="55.9314805" lon="49.2271069"><time>2023-06-03T07:41:35.850</time></trkpt><trkpt lat="55.9315340" lon="49.2271828"><time>2023-06-03T07:41:37.837</time></trkpt><trkpt lat="55.9315892" lon="49.2272537"><time>2023-06-03T07:41:39.833</time></trkpt><trkpt lat="55.9316411" lon="49.2273287"><time>2023-06-03T07:41:41.847</time></trkpt><trkpt lat="55.9316715" lon="49.2274246"><time>2023-06-03T07:41:43.843</time></trkpt><trkpt lat="55.9317034" lon="49.2275286"><time>2023-06-03T07:41:45.840</time></trkpt><trkpt lat="55.9317425" lon="49.2276291"><time>2023-06-03T07:41:47.833</time></trkpt><trkpt lat="55.9317879" lon="49.2277409"><time>2023-06-03T07:41:49.837</time></trkpt><trkpt lat="55.9318228" lon="49.2278308"><time>2023-06-03T07:41:51.837</time></trkpt><trkpt lat="55.9318590" lon="49.2278999"><time>2023-06-03T07:41:53.837</time></trkpt><trkpt lat="55.9318744" lon="49.2279752"><time>2023-06-03T07:42:35.843</time></trkpt><trkpt lat="55.9318634" lon="49.2280836"><time>2023-06-03T07:42:38.833</time></trkpt><trkpt lat="55.9318488" lon="49.2281932"><time>2023-06-03T07:42:40.830</time></trkpt><trkpt lat="55.9318199" lon="49.2282839"><time>2023-06-03T07:42:42.850</time></trkpt><trkpt lat="55.9317822" lon="49.2283532"><time>2023-06-03T07:42:44.830</time></trkpt><trkpt lat="55.9317435" lon="49.2283965"><time>2023-06-03T07:42:46.837</time></trkpt><trkpt lat="55.9316868" lon="49.2284593"><time>2023-06-03T07:42:49.837</time></trkpt><trkpt lat="55.9316366" lon="49.2284915"><time>2023-06-03T07:42:51.847</time></trkpt><trkpt lat="55.9315850" lon="49.2285335"><time>2023-06-03T07:42:53.837</time></trkpt><trkpt lat="55.9315126" lon="49.2285852"><time>2023-06-03T07:42:55.837</time></trkpt><trkpt lat="55.9314441" lon="49.2286377"><time>2023-06-03T07:42:57.833</time></trkpt><trkpt lat="55.9313899" lon="49.2286717"><time>2023-06-03T07:42:59.840</time></trkpt><trkpt lat="55.9313389" lon="49.2287005"><time>2023-06-03T07:43:01.833</time></trkpt><trkpt lat="55.9312858" lon="49.2287444"><time>2023-06-03T07:43:03.843</time></trkpt><trkpt lat="55.9312273" lon="49.2287818"><time>2023-06-03T07:43:05.843</time></trkpt><trkpt lat="55.9311707" lon="49.2288091"><time>2023-06-03T07:43:07.833</time></trkpt><trkpt lat="55.9311179" lon="49.2288560"><time>2023-06-03T07:43:09.850</time></trkpt><trkpt lat="55.9310688" lon="49.2289125"><time>2023-06-03T07:43:11.833</time></trkpt><trkpt lat="55.9310141" lon="49.2289548"><time>2023-06-03T07:43:13.830</time></trkpt><trkpt lat="55.9309565" lon="49.2289874"><time>2023-06-03T07:43:15.840</time></trkpt><trkpt lat="55.9309074" lon="49.2290051"><time>2023-06-03T07:43:18.830</time></trkpt><trkpt lat="55.9308364" lon="49.2290443"><time>2023-06-03T07:43:47.843</time></trkpt><trkpt lat="55.9307708" lon="49.2291024"><time>2023-06-03T07:43:49.847</time></trkpt><trkpt lat="55.9307040" lon="49.2291623"><time>2023-06-03T07:43:51.843</time></trkpt><trkpt lat="55.9306552" lon="49.2292102"><time>2023-06-03T07:43:53.843</time></trkpt><trkpt lat="55.9306057" lon="49.2292532"><time>2023-06-03T07:43:55.833</time></trkpt><trkpt lat="55.9305622" lon="49.2292828"><time>2023-06-03T07:43:57.837</time></trkpt><trkpt lat="55.9305177" lon="49.2293169"><time>2023-06-03T07:43:59.837</time></trkpt><trkpt lat="55.9304628" lon="49.2293515"><time>2023-06-03T07:44:01.843</time></trkpt><trkpt lat="55.9304175" lon="49.2293451"><time>2023-06-03T07:44:16.843</time></trkpt><trkpt lat="55.9303590" lon="49.2293997"><time>2023-06-03T07:44:27.830</time></trkpt><trkpt lat="55.9302990" lon="49.2294417"><time>2023-06-03T07:44:29.837</time></trkpt><trkpt lat="55.9302360" lon="49.2294918"><time>2023-06-03T07:44:31.837</time></trkpt><trkpt lat="55.9301784" lon="49.2295218"><time>2023-06-03T07:44:33.833</time></trkpt><trkpt lat="55.9301256" lon="49.2295435"><time>2023-06-03T07:44:36.847</time></trkpt><trkpt lat="55.9300816" lon="49.2295657"><time>2023-06-03T07:44:39.840</time></trkpt><trkpt lat="55.9300220" lon="49.2296151"><time>2023-06-03T07:44:42.827</time></trkpt><trkpt lat="55.9299734" lon="49.2296673"><time>2023-06-03T07:44:44.867</time></trkpt><trkpt lat="55.9299179" lon="49.2297093"><time>2023-06-03T07:44:46.837</time></trkpt><trkpt lat="55.9298518" lon="49.2297437"><time>2023-06-03T07:44:48.833</time></trkpt><trkpt lat="55.9297696" lon="49.2297994"><time>2023-06-03T07:44:50.857</time></trkpt><trkpt lat="55.9296996" lon="49.2298417"><time>2023-06-03T07:44:52.840</time></trkpt><trkpt lat="55.9296469" lon="49.2298772"><time>2023-06-03T07:44:54.840</time></trkpt><trkpt lat="55.9296018" lon="49.2299125"><time>2023-06-03T07:44:57.837</time></trkpt><trkpt lat="55.9295449" lon="49.2299519"><time>2023-06-03T07:45:00.853</time></trkpt><trkpt lat="55.9294963" lon="49.2299690"><time>2023-06-03T07:45:02.847</time></trkpt><trkpt lat="55.9294427" lon="49.2299920"><time>2023-06-03T07:45:04.833</time></trkpt><trkpt lat="55.9293885" lon="49.2300228"><time>2023-06-03T07:45:06.830</time></trkpt><trkpt lat="55.9293399" lon="49.2300532"><time>2023-06-03T07:45:08.830</time></trkpt><trkpt lat="55.9292889" lon="49.2300988"><time>2023-06-03T07:45:10.833</time></trkpt><trkpt lat="55.9292368" lon="49.2301488"><time>2023-06-03T07:45:12.827</time></trkpt><trkpt lat="55.9291846" lon="49.2301759"><time>2023-06-03T07:45:14.833</time></trkpt><trkpt lat="55.9291297" lon="49.2301917"><time>2023-06-03T07:45:16.847</time></trkpt><trkpt lat="55.9290805" lon="49.2302109"><time>2023-06-03T07:45:18.827</time></trkpt><trkpt lat="55.9290263" lon="49.2302568"><time>2023-06-03T07:45:50.837</time></trkpt><trkpt lat="55.9289788" lon="49.2303094"><time>2023-06-03T07:45:52.840</time></trkpt><trkpt lat="55.9289137" lon="49.2303638"><time>2023-06-03T07:45:54.847</time></trkpt><trkpt lat="55.9288487" lon="49.2304217"><time>2023-06-03T07:45:56.833</time></trkpt><trkpt lat="55.9287846" lon="49.2304725"><time>2023-06-03T07:45:58.833</time></trkpt><trkpt lat="55.9287234" lon="49.2305099"><time>2023-06-03T07:46:00.830</time></trkpt><trkpt lat="55.9286732" lon="49.2305574"><time>2023-06-03T07:46:02.830</time></trkpt><trkpt lat="55.9286390" lon="49.2306335"><time>2023-06-03T07:46:04.837</time></trkpt><trkpt lat="55.9286295" lon="49.2307417"><time>2023-06-03T07:46:06.833</time></trkpt><trkpt lat="55.9286392" lon="49.2308570"><time>2023-06-03T07:46:08.840</time></trkpt><trkpt lat="55.9286409" lon="49.2309603"><time>2023-06-03T07:46:10.820</time></trkpt><trkpt lat="55.9286342" lon="49.2310555"><time>2023-06-03T07:46:12.843</time></trkpt><trkpt lat="55.9286275" lon="49.2311696"><time>2023-06-03T07:46:14.837</time></trkpt><trkpt lat="55.9286122" lon="49.2312808"><time>2023-06-03T07:46:16.837</time></trkpt><trkpt lat="55.9285883" lon="49.2313851"><time>2023-06-03T07:46:18.850</time></trkpt><trkpt lat="55.9285784" lon="49.2314221"><time>2023-06-03T07:46:19.853</time></trkpt><trkpt lat="55.9285552" lon="49.2314925"><time>2023-06-03T07:46:30.837</time></trkpt><trkpt lat="55.9285206" lon="49.2315473"><time>2023-06-03T07:46:36.827</time></trkpt><trkpt lat="55.9284854" lon="49.2316091"><time>2023-06-03T07:46:40.833</time></trkpt><trkpt lat="55.9284559" lon="49.2316867"><time>2023-06-03T07:46:43.837</time></trkpt><trkpt lat="55.9284237" lon="49.2317503"><time>2023-06-03T07:46:45.847</time></trkpt><trkpt lat="55.9283881" lon="49.2318246"><time>2023-06-03T07:46:47.840</time></trkpt><trkpt lat="55.9283639" lon="49.2319090"><time>2023-06-03T07:46:49.840</time></trkpt><trkpt lat="55.9283469" lon="49.2319995"><time>2023-06-03T07:46:51.827</time></trkpt><trkpt lat="55.9283596" lon="49.2321184"><time>2023-06-03T07:46:54.833</time></trkpt><trkpt lat="55.9283751" lon="49.2322158"><time>2023-06-03T07:46:56.837</time></trkpt><trkpt lat="55.9283705" lon="49.2323403"><time>2023-06-03T07:46:58.837</time></trkpt><trkpt lat="55.9283549" lon="49.2324690"><time>2023-06-03T07:47:00.847</time></trkpt><trkpt lat="55.9283442" lon="49.2325819"><time>2023-06-03T07:47:02.833</time></trkpt><trkpt lat="55.9283425" lon="49.2326713"><time>2023-06-03T07:47:04.833</time></trkpt><trkpt lat="55.9283390" lon="49.2327671"><time>2023-06-03T07:47:07.837</time></trkpt><trkpt lat="55.9283314" lon="49.2328476"><time>2023-06-03T07:47:10.833</time></trkpt><trkpt lat="55.9283127" lon="49.2329454"><time>2023-06-03T07:47:13.857</time></trkpt><trkpt lat="55.9283061" lon="49.2329760"><time>2023-06-03T07:47:14.837</time></trkpt><trkpt lat="55.9282901" lon="49.2330634"><time>2023-06-03T07:47:17.850</time></trkpt><trkpt lat="55.9282791" lon="49.2331495"><time>2023-06-03T07:47:21.843</time></trkpt><trkpt lat="55.9282684" lon="49.2332296"><time>2023-06-03T07:47:24.830</time></trkpt><trkpt lat="55.9282558" lon="49.2333122"><time>2023-06-03T07:47:29.847</time></trkpt><trkpt lat="55.9282551" lon="49.2333984"><time>2023-06-03T07:47:32.847</time></trkpt><trkpt lat="55.9282438" lon="49.2334869"><time>2023-06-03T07:47:34.837</time></trkpt><trkpt lat="55.9282418" lon="49.2335876"><time>2023-06-03T07:47:36.837</time></trkpt><trkpt lat="55.9282421" lon="49.2336729"><time>2023-06-03T07:47:38.837</time></trkpt><trkpt lat="55.9282507" lon="49.2337575"><time>2023-06-03T07:47:40.830</time></trkpt><trkpt lat="55.9282616" lon="49.2338603"><time>2023-06-03T07:47:44.847</time></trkpt><trkpt lat="55.9282605" lon="49.2338876"><time>2023-06-03T07:47:45.853</time></trkpt><trkpt lat="55.9282576" lon="49.2340019"><time>2023-06-03T07:47:48.830</time></trkpt><trkpt lat="55.9282697" lon="49.2340809"><time>2023-06-03T07:47:52.833</time></trkpt><trkpt lat="55.9282872" lon="49.2341720"><time>2023-06-03T07:47:56.850</time></trkpt><trkpt lat="55.9283184" lon="49.2342444"><time>2023-06-03T07:47:58.837</time></trkpt><trkpt lat="55.9283506" lon="49.2343075"><time>2023-06-03T07:48:00.843</time></trkpt><trkpt lat="55.9283506" lon="49.2343075"><time>2023-06-03T07:48:00.880</time></trkpt><trkpt lat="55.9283875" lon="49.2343558"><time>2023-06-03T07:48:03.877</time></trkpt><trkpt lat="55.9283922" lon="49.2343546"><time>2023-06-03T07:48:04.833</time></trkpt><trkpt lat="55.9283515" lon="49.2342583"><time>2023-06-03T07:48:27.837</time></trkpt><trkpt lat="55.9283199" lon="49.2341869"><time>2023-06-03T07:48:29.833</time></trkpt><trkpt lat="55.9282892" lon="49.2341260"><time>2023-06-03T07:48:31.847</time></trkpt><trkpt lat="55.9282784" lon="49.2340222"><time>2023-06-03T07:48:34.833</time></trkpt><trkpt lat="55.9282766" lon="49.2339282"><time>2023-06-03T07:48:36.843</time></trkpt><trkpt lat="55.9282578" lon="49.2338109"><time>2023-06-03T07:48:39.837</time></trkpt><trkpt lat="55.9282493" lon="49.2337319"><time>2023-06-03T07:48:41.823</time></trkpt><trkpt lat="55.9282374" lon="49.2336199"><time>2023-06-03T07:48:44.847</time></trkpt><trkpt lat="55.9282343" lon="49.2335325"><time>2023-06-03T07:48:46.837</time></trkpt><trkpt lat="55.9282334" lon="49.2334394"><time>2023-06-03T07:48:48.830</time></trkpt><trkpt lat="55.9282363" lon="49.2333390"><time>2023-06-03T07:48:50.863</time></trkpt><trkpt lat="55.9282435" lon="49.2332453"><time>2023-06-03T07:48:52.827</time></trkpt><trkpt lat="55.9282530" lon="49.2331609"><time>2023-06-03T07:48:55.840</time></trkpt><trkpt lat="55.9282612" lon="49.2330622"><time>2023-06-03T07:49:00.830</time></trkpt><trkpt lat="55.9282728" lon="49.2329632"><time>2023-06-03T07:49:03.833</time></trkpt><trkpt lat="55.9282863" lon="49.2328439"><time>2023-06-03T07:49:06.833</time></trkpt><trkpt lat="55.9282909" lon="49.2327479"><time>2023-06-03T07:49:08.833</time></trkpt><trkpt lat="55.9282991" lon="49.2326557"><time>2023-06-03T07:49:10.833</time></trkpt><trkpt lat="55.9283044" lon="49.2325759"><time>2023-06-03T07:49:12.833</time></trkpt><trkpt lat="55.9282967" lon="49.2324883"><time>2023-06-03T07:49:14.830</time></trkpt><trkpt lat="55.9282886" lon="49.2323659"><time>2023-06-03T07:49:16.837</time></trkpt><trkpt lat="55.9282999" lon="49.2322422"><time>2023-06-03T07:49:18.833</time></trkpt><trkpt lat="55.9283121" lon="49.2321118"><time>2023-06-03T07:49:20.830</time></trkpt><trkpt lat="55.9283312" lon="49.2320079"><time>2023-06-03T07:49:22.837</time></trkpt><trkpt lat="55.9283471" lon="49.2319321"><time>2023-06-03T07:49:24.830</time></trkpt><trkpt lat="55.9283729" lon="49.2318241"><time>2023-06-03T07:49:26.833</time></trkpt><trkpt lat="55.9284086" lon="49.2317248"><time>2023-06-03T07:49:28.840</time></trkpt><trkpt lat="55.9284623" lon="49.2316086"><time>2023-06-03T07:49:30.827</time></trkpt><trkpt lat="55.9285154" lon="49.2315180"><time>2023-06-03T07:49:32.827</time></trkpt><trkpt lat="55.9285536" lon="49.2314432"><time>2023-06-03T07:49:34.830</time></trkpt><trkpt lat="55.9285922" lon="49.2313475"><time>2023-06-03T07:49:37.857</time></trkpt><trkpt lat="55.9286142" lon="49.2312739"><time>2023-06-03T07:49:39.843</time></trkpt><trkpt lat="55.9286291" lon="49.2311840"><time>2023-06-03T07:49:41.833</time></trkpt><trkpt lat="55.9286303" lon="49.2310809"><time>2023-06-03T07:49:43.857</time></trkpt><trkpt lat="55.9286420" lon="49.2309887"><time>2023-06-03T07:49:45.840</time></trkpt><trkpt lat="55.9286496" lon="49.2309085"><time>2023-06-03T07:49:47.840</time></trkpt><trkpt lat="55.9286585" lon="49.2307785"><time>2023-06-03T07:49:50.840</time></trkpt><trkpt lat="55.9286895" lon="49.2306933"><time>2023-06-03T07:49:52.833</time></trkpt><trkpt lat="55.9287292" lon="49.2306235"><time>2023-06-03T07:49:54.830</time></trkpt><trkpt lat="55.9287960" lon="49.2305665"><time>2023-06-03T07:49:56.833</time></trkpt><trkpt lat="55.9288588" lon="49.2305330"><time>2023-06-03T07:49:58.833</time></trkpt><trkpt lat="55.9289246" lon="49.2304952"><time>2023-06-03T07:50:00.830</time></trkpt><trkpt lat="55.9289852" lon="49.2304506"><time>2023-06-03T07:50:02.843</time></trkpt><trkpt lat="55.9290334" lon="49.2304084"><time>2023-06-03T07:50:04.870</time></trkpt><trkpt lat="55.9290686" lon="49.2303547"><time>2023-06-03T07:50:06.830</time></trkpt><trkpt lat="55.9291125" lon="49.2303066"><time>2023-06-03T07:50:08.837</time></trkpt><trkpt lat="55.9291547" lon="49.2302756"><time>2023-06-03T07:50:10.827</time></trkpt><trkpt lat="55.9292118" lon="49.2302441"><time>2023-06-03T07:50:12.830</time></trkpt><trkpt lat="55.9292573" lon="49.2302209"><time>2023-06-03T07:50:13.877</time></trkpt><trkpt lat="55.9293010" lon="49.2301978"><time>2023-06-03T07:50:14.830</time></trkpt><trkpt lat="55.9293447" lon="49.2301747"><time>2023-06-03T07:50:15.840</time></trkpt><trkpt lat="55.9294217" lon="49.2301336"><time>2023-06-03T07:50:17.827</time></trkpt><trkpt lat="55.9294816" lon="49.2300980"><time>2023-06-03T07:50:19.847</time></trkpt><trkpt lat="55.9295310" lon="49.2300690"><time>2023-06-03T07:50:21.843</time></trkpt><trkpt lat="55.9295957" lon="49.2300054"><time>2023-06-03T07:50:23.840</time></trkpt><trkpt lat="55.9296556" lon="49.2299404"><time>2023-06-03T07:50:25.867</time></trkpt><trkpt lat="55.9297153" lon="49.2298519"><time>2023-06-03T07:50:27.843</time></trkpt><trkpt lat="55.9297772" lon="49.2297833"><time>2023-06-03T07:50:29.847</time></trkpt><trkpt lat="55.9298401" lon="49.2297672"><time>2023-06-03T07:50:31.863</time></trkpt><trkpt lat="55.9299025" lon="49.2297524"><time>2023-06-03T07:50:33.837</time></trkpt><trkpt lat="55.9299650" lon="49.2297191"><time>2023-06-03T07:50:35.837</time></trkpt><trkpt lat="55.9300372" lon="49.2296603"><time>2023-06-03T07:50:37.860</time></trkpt><trkpt lat="55.9300786" lon="49.2296248"><time>2023-06-03T07:50:38.833</time></trkpt><trkpt lat="55.9301230" lon="49.2295875"><time>2023-06-03T07:50:39.843</time></trkpt><trkpt lat="55.9302268" lon="49.2295280"><time>2023-06-03T07:50:40.833</time></trkpt><trkpt lat="55.9302754" lon="49.2294938"><time>2023-06-03T07:50:41.847</time></trkpt><trkpt lat="55.9303339" lon="49.2294500"><time>2023-06-03T07:50:42.830</time></trkpt><trkpt lat="55.9304059" lon="49.2293706"><time>2023-06-03T07:50:44.830</time></trkpt><trkpt lat="55.9304492" lon="49.2293431"><time>2023-06-03T07:50:45.837</time></trkpt><trkpt lat="55.9305294" lon="49.2292882"><time>2023-06-03T07:50:47.830</time></trkpt><trkpt lat="55.9306004" lon="49.2292302"><time>2023-06-03T07:50:49.873</time></trkpt><trkpt lat="55.9306932" lon="49.2291825"><time>2023-06-03T07:50:51.837</time></trkpt><trkpt lat="55.9307790" lon="49.2291373"><time>2023-06-03T07:50:53.827</time></trkpt><trkpt lat="55.9308533" lon="49.2290952"><time>2023-06-03T07:50:55.850</time></trkpt><trkpt lat="55.9309292" lon="49.2290641"><time>2023-06-03T07:50:57.847</time></trkpt><trkpt lat="55.9310031" lon="49.2290193"><time>2023-06-03T07:50:59.843</time></trkpt><trkpt lat="55.9310621" lon="49.2289582"><time>2023-06-03T07:51:01.873</time></trkpt><trkpt lat="55.9311415" lon="49.2289029"><time>2023-06-03T07:51:03.843</time></trkpt><trkpt lat="55.9312224" lon="49.2288581"><time>2023-06-03T07:51:05.837</time></trkpt><trkpt lat="55.9312995" lon="49.2288129"><time>2023-06-03T07:51:07.853</time></trkpt><trkpt lat="55.9313666" lon="49.2287587"><time>2023-06-03T07:51:09.843</time></trkpt><trkpt lat="55.9314230" lon="49.2287089"><time>2023-06-03T07:51:11.837</time></trkpt><trkpt lat="55.9314807" lon="49.2286820"><time>2023-06-03T07:51:13.870</time></trkpt><trkpt lat="55.9315512" lon="49.2286469"><time>2023-06-03T07:51:15.843</time></trkpt><trkpt lat="55.9316192" lon="49.2286101"><time>2023-06-03T07:51:17.833</time></trkpt><trkpt lat="55.9316874" lon="49.2285605"><time>2023-06-03T07:51:19.860</time></trkpt><trkpt lat="55.9317517" lon="49.2284919"><time>2023-06-03T07:51:21.840</time></trkpt><trkpt lat="55.9318048" lon="49.2284265"><time>2023-06-03T07:51:23.833</time></trkpt><trkpt lat="55.9318688" lon="49.2283807"><time>2023-06-03T07:51:25.863</time></trkpt><trkpt lat="55.9319336" lon="49.2283417"><time>2023-06-03T07:51:27.837</time></trkpt><trkpt lat="55.9319904" lon="49.2283399"><time>2023-06-03T07:51:29.830</time></trkpt><trkpt lat="55.9320317" lon="49.2283787"><time>2023-06-03T07:51:31.853</time></trkpt><trkpt lat="55.9320645" lon="49.2284658"><time>2023-06-03T07:51:34.837</time></trkpt><trkpt lat="55.9320811" lon="49.2286004"><time>2023-06-03T07:51:36.833</time></trkpt><trkpt lat="55.9320880" lon="49.2287426"><time>2023-06-03T07:51:38.830</time></trkpt><trkpt lat="55.9320963" lon="49.2288681"><time>2023-06-03T07:51:40.833</time></trkpt><trkpt lat="55.9321095" lon="49.2289747"><time>2023-06-03T07:51:42.830</time></trkpt><trkpt lat="55.9321298" lon="49.2290539"><time>2023-06-03T07:51:44.833</time></trkpt><trkpt lat="55.9321651" lon="49.2291275"><time>2023-06-03T07:51:46.833</time></trkpt><trkpt lat="55.9322087" lon="49.2292328"><time>2023-06-03T07:51:48.827</time></trkpt><trkpt lat="55.9322435" lon="49.2293445"><time>2023-06-03T07:51:50.830</time></trkpt><trkpt lat="55.9322753" lon="49.2294518"><time>2023-06-03T07:51:52.837</time></trkpt><trkpt lat="55.9322954" lon="49.2295330"><time>2023-06-03T07:51:54.837</time></trkpt><trkpt lat="55.9323054" lon="49.2296595"><time>2023-06-03T07:51:56.830</time></trkpt><trkpt lat="55.9323181" lon="49.2298155"><time>2023-06-03T07:51:58.830</time></trkpt><trkpt lat="55.9323347" lon="49.2299613"><time>2023-06-03T07:52:00.837</time></trkpt><trkpt lat="55.9323660" lon="49.2301024"><time>2023-06-03T07:52:02.833</time></trkpt><trkpt lat="55.9323835" lon="49.2301806"><time>2023-06-03T07:52:03.837</time></trkpt><trkpt lat="55.9324067" lon="49.2303144"><time>2023-06-03T07:52:05.837</time></trkpt><trkpt lat="55.9324288" lon="49.2304134"><time>2023-06-03T07:52:07.843</time></trkpt><trkpt lat="55.9324556" lon="49.2305077"><time>2023-06-03T07:52:09.833</time></trkpt><trkpt lat="55.9324805" lon="49.2305930"><time>2023-06-03T07:52:11.840</time></trkpt><trkpt lat="55.9325053" lon="49.2306807"><time>2023-06-03T07:52:13.877</time></trkpt><trkpt lat="55.9325318" lon="49.2307884"><time>2023-06-03T07:52:15.833</time></trkpt><trkpt lat="55.9325535" lon="49.2308942"><time>2023-06-03T07:52:17.850</time></trkpt><trkpt lat="55.9325860" lon="49.2310034"><time>2023-06-03T07:52:19.853</time></trkpt><trkpt lat="55.9326273" lon="49.2311119"><time>2023-06-03T07:52:21.833</time></trkpt><trkpt lat="55.9326608" lon="49.2312192"><time>2023-06-03T07:52:23.837</time></trkpt><trkpt lat="55.9326884" lon="49.2313361"><time>2023-06-03T07:52:25.860</time></trkpt><trkpt lat="55.9327217" lon="49.2314597"><time>2023-06-03T07:52:27.837</time></trkpt><trkpt lat="55.9327575" lon="49.2315935"><time>2023-06-03T07:52:29.840</time></trkpt><trkpt lat="55.9327845" lon="49.2316931"><time>2023-06-03T07:52:31.850</time></trkpt><trkpt lat="55.9328168" lon="49.2317943"><time>2023-06-03T07:52:33.837</time></trkpt><trkpt lat="55.9328469" lon="49.2318986"><time>2023-06-03T07:52:35.830</time></trkpt><trkpt lat="55.9328674" lon="49.2320077"><time>2023-06-03T07:52:37.867</time></trkpt><trkpt lat="55.9328794" lon="49.2321277"><time>2023-06-03T07:52:39.853</time></trkpt><trkpt lat="55.9328979" lon="49.2322487"><time>2023-06-03T07:52:41.833</time></trkpt><trkpt lat="55.9329285" lon="49.2323730"><time>2023-06-03T07:52:43.860</time></trkpt><trkpt lat="55.9329634" lon="49.2324884"><time>2023-06-03T07:52:45.830</time></trkpt><trkpt lat="55.9329970" lon="49.2326013"><time>2023-06-03T07:52:47.830</time></trkpt><trkpt lat="55.9330230" lon="49.2327224"><time>2023-06-03T07:52:49.860</time></trkpt><trkpt lat="55.9330441" lon="49.2328454"><time>2023-06-03T07:52:51.837</time></trkpt><trkpt lat="55.9330646" lon="49.2329589"><time>2023-06-03T07:52:53.843</time></trkpt><trkpt lat="55.9330897" lon="49.2330733"><time>2023-06-03T07:52:55.840</time></trkpt><trkpt lat="55.9331161" lon="49.2331553"><time>2023-06-03T07:52:58.840</time></trkpt><trkpt lat="55.9331296" lon="49.2332551"><time>2023-06-03T07:53:02.830</time></trkpt><trkpt lat="55.9331589" lon="49.2333667"><time>2023-06-03T07:53:05.847</time></trkpt><trkpt lat="55.9331834" lon="49.2334389"><time>2023-06-03T07:53:07.837</time></trkpt><trkpt lat="55.9332062" lon="49.2335449"><time>2023-06-03T07:53:10.833</time></trkpt><trkpt lat="55.9332179" lon="49.2336490"><time>2023-06-03T07:53:13.830</time></trkpt><trkpt lat="55.9331886" lon="49.2337350"><time>2023-06-03T07:53:18.827</time></trkpt><trkpt lat="55.9331425" lon="49.2337654"><time>2023-06-03T07:53:23.880</time></trkpt><trkpt lat="55.9330910" lon="49.2337215"><time>2023-06-03T07:53:26.830</time></trkpt><trkpt lat="55.9330379" lon="49.2337501"><time>2023-06-03T07:53:29.857</time></trkpt><trkpt lat="55.9329724" lon="49.2338076"><time>2023-06-03T07:53:32.830</time></trkpt><trkpt lat="55.9329187" lon="49.2338398"><time>2023-06-03T07:53:34.830</time></trkpt><trkpt lat="55.9328725" lon="49.2338771"><time>2023-06-03T07:53:36.840</time></trkpt><trkpt lat="55.9328278" lon="49.2338969"><time>2023-06-03T07:53:38.830</time></trkpt><trkpt lat="55.9327815" lon="49.2339058"><time>2023-06-03T07:53:43.040</time></trkpt><trkpt lat="55.9327295" lon="49.2339320"><time>2023-06-03T07:53:43.827</time></trkpt><trkpt lat="55.9326902" lon="49.2339712"><time>2023-06-03T07:53:46.830</time></trkpt><trkpt lat="55.9326459" lon="49.2340144"><time>2023-06-03T07:53:50.823</time></trkpt><trkpt lat="55.9327064" lon="49.2340011"><time>2023-06-03T07:54:32.843</time></trkpt><trkpt lat="55.9327604" lon="49.2339509"><time>2023-06-03T07:54:34.870</time></trkpt><trkpt lat="55.9328188" lon="49.2339208"><time>2023-06-03T07:54:36.843</time></trkpt><trkpt lat="55.9328647" lon="49.2338899"><time>2023-06-03T07:54:38.837</time></trkpt><trkpt lat="55.9329083" lon="49.2338478"><time>2023-06-03T07:54:40.853</time></trkpt><trkpt lat="55.9329647" lon="49.2338021"><time>2023-06-03T07:54:43.850</time></trkpt><trkpt lat="55.9330028" lon="49.2337563"><time>2023-06-03T07:54:45.833</time></trkpt><trkpt lat="55.9330599" lon="49.2337202"><time>2023-06-03T07:54:48.837</time></trkpt><trkpt lat="55.9331090" lon="49.2337282"><time>2023-06-03T07:54:50.837</time></trkpt><trkpt lat="55.9331490" lon="49.2337698"><time>2023-06-03T07:54:52.843</time></trkpt><trkpt lat="55.9331799" lon="49.2338286"><time>2023-06-03T07:54:55.843</time></trkpt><trkpt lat="55.9332009" lon="49.2339270"><time>2023-06-03T07:54:58.863</time></trkpt><trkpt lat="55.9332088" lon="49.2340315"><time>2023-06-03T07:55:01.857</time></trkpt><trkpt lat="55.9332135" lon="49.2341508"><time>2023-06-03T07:55:04.830</time></trkpt><trkpt lat="55.9332003" lon="49.2342819"><time>2023-06-03T07:55:06.837</time></trkpt><trkpt lat="55.9331755" lon="49.2344074"><time>2023-06-03T07:55:08.840</time></trkpt><trkpt lat="55.9331571" lon="49.2345377"><time>2023-06-03T07:55:10.837</time></trkpt><trkpt lat="55.9331599" lon="49.2346616"><time>2023-06-03T07:55:12.837</time></trkpt><trkpt lat="55.9331736" lon="49.2347794"><time>2023-06-03T07:55:14.867</time></trkpt><trkpt lat="55.9331871" lon="49.2349005"><time>2023-06-03T07:55:16.837</time></trkpt><trkpt lat="55.9331951" lon="49.2350235"><time>2023-06-03T07:55:18.833</time></trkpt><trkpt lat="55.9331956" lon="49.2351441"><time>2023-06-03T07:55:20.847</time></trkpt><trkpt lat="55.9331841" lon="49.2352602"><time>2023-06-03T07:55:22.827</time></trkpt><trkpt lat="55.9331721" lon="49.2353544"><time>2023-06-03T07:55:24.833</time></trkpt><trkpt lat="55.9331618" lon="49.2354682"><time>2023-06-03T07:55:26.880</time></trkpt><trkpt lat="55.9331494" lon="49.2355855"><time>2023-06-03T07:55:28.833</time></trkpt><trkpt lat="55.9331392" lon="49.2357120"><time>2023-06-03T07:55:31.833</time></trkpt><trkpt lat="55.9331223" lon="49.2358343"><time>2023-06-03T07:55:33.830</time></trkpt><trkpt lat="55.9330956" lon="49.2359231"><time>2023-06-03T07:55:35.837</time></trkpt><trkpt lat="55.9330673" lon="49.2360383"><time>2023-06-03T07:55:37.847</time></trkpt><trkpt lat="55.9330643" lon="49.2361611"><time>2023-06-03T07:55:39.840</time></trkpt><trkpt lat="55.9330521" lon="49.2362966"><time>2023-06-03T07:55:41.840</time></trkpt><trkpt lat="55.9330352" lon="49.2364336"><time>2023-06-03T07:55:43.830</time></trkpt><trkpt lat="55.9330172" lon="49.2365803"><time>2023-06-03T07:55:45.827</time></trkpt><trkpt lat="55.9329919" lon="49.2367105"><time>2023-06-03T07:55:47.837</time></trkpt><trkpt lat="55.9329723" lon="49.2368164"><time>2023-06-03T07:55:49.837</time></trkpt><trkpt lat="55.9329468" lon="49.2369542"><time>2023-06-03T07:55:51.847</time></trkpt><trkpt lat="55.9329321" lon="49.2370322"><time>2023-06-03T07:55:52.830</time></trkpt><trkpt lat="55.9329171" lon="49.2371162"><time>2023-06-03T07:55:53.833</time></trkpt><trkpt lat="55.9329022" lon="49.2371958"><time>2023-06-03T07:55:54.827</time></trkpt><trkpt lat="55.9328595" lon="49.2373303"><time>2023-06-03T07:55:55.830</time></trkpt><trkpt lat="55.9328086" lon="49.2374380"><time>2023-06-03T07:55:57.837</time></trkpt><trkpt lat="55.9327809" lon="49.2375722"><time>2023-06-03T07:55:59.843</time></trkpt><trkpt lat="55.9327519" lon="49.2377174"><time>2023-06-03T07:56:01.830</time></trkpt><trkpt lat="55.9327368" lon="49.2377946"><time>2023-06-03T07:56:02.867</time></trkpt><trkpt lat="55.9327266" lon="49.2378728"><time>2023-06-03T07:56:03.843</time></trkpt><trkpt lat="55.9327170" lon="49.2379929"><time>2023-06-03T07:56:05.837</time></trkpt><trkpt lat="55.9326793" lon="49.2380885"><time>2023-06-03T07:56:07.830</time></trkpt><trkpt lat="55.9326618" lon="49.2381906"><time>2023-06-03T07:56:09.833</time></trkpt><trkpt lat="55.9326486" lon="49.2383295"><time>2023-06-03T07:56:11.853</time></trkpt><trkpt lat="55.9326222" lon="49.2384500"><time>2023-06-03T07:56:12.833</time></trkpt><trkpt lat="55.9326084" lon="49.2385768"><time>2023-06-03T07:56:14.853</time></trkpt><trkpt lat="55.9325935" lon="49.2387066"><time>2023-06-03T07:56:16.833</time></trkpt><trkpt lat="55.9325589" lon="49.2388386"><time>2023-06-03T07:56:18.837</time></trkpt><trkpt lat="55.9325326" lon="49.2389848"><time>2023-06-03T07:56:20.850</time></trkpt><trkpt lat="55.9325103" lon="49.2391080"><time>2023-06-03T07:56:22.840</time></trkpt><trkpt lat="55.9324967" lon="49.2392418"><time>2023-06-03T07:56:24.837</time></trkpt><trkpt lat="55.9324807" lon="49.2393868"><time>2023-06-03T07:56:26.867</time></trkpt><trkpt lat="55.9324643" lon="49.2395273"><time>2023-06-03T07:56:28.830</time></trkpt><trkpt lat="55.9324494" lon="49.2396687"><time>2023-06-03T07:56:30.847</time></trkpt><trkpt lat="55.9324369" lon="49.2398167"><time>2023-06-03T07:56:32.847</time></trkpt><trkpt lat="55.9324296" lon="49.2399593"><time>2023-06-03T07:56:34.833</time></trkpt><trkpt lat="55.9324328" lon="49.2400933"><time>2023-06-03T07:56:36.827</time></trkpt><trkpt lat="55.9324323" lon="49.2402333"><time>2023-06-03T07:56:38.857</time></trkpt><trkpt lat="55.9324317" lon="49.2403786"><time>2023-06-03T07:56:40.840</time></trkpt><trkpt lat="55.9324293" lon="49.2404595"><time>2023-06-03T07:56:41.833</time></trkpt><trkpt lat="55.9324255" lon="49.2405813"><time>2023-06-03T07:56:43.830</time></trkpt><trkpt lat="55.9324070" lon="49.2406654"><time>2023-06-03T07:56:46.837</time></trkpt><trkpt lat="55.9323586" lon="49.2407111"><time>2023-06-03T07:56:50.867</time></trkpt><trkpt lat="55.9322992" lon="49.2407661"><time>2023-06-03T07:56:58.827</time></trkpt><trkpt lat="55.9322495" lon="49.2408373"><time>2023-06-03T07:57:00.827</time></trkpt><trkpt lat="55.9322057" lon="49.2409237"><time>2023-06-03T07:57:02.863</time></trkpt><trkpt lat="55.9321722" lon="49.2410442"><time>2023-06-03T07:57:04.830</time></trkpt><trkpt lat="55.9321393" lon="49.2411807"><time>2023-06-03T07:57:06.827</time></trkpt><trkpt lat="55.9321059" lon="49.2412969"><time>2023-06-03T07:57:08.850</time></trkpt><trkpt lat="55.9320754" lon="49.2414250"><time>2023-06-03T07:57:10.830</time></trkpt><trkpt lat="55.9320623" lon="49.2415415"><time>2023-06-03T07:57:12.830</time></trkpt><trkpt lat="55.9320560" lon="49.2416584"><time>2023-06-03T07:57:14.860</time></trkpt><trkpt lat="55.9320551" lon="49.2417728"><time>2023-06-03T07:57:16.823</time></trkpt><trkpt lat="55.9320616" lon="49.2418899"><time>2023-06-03T07:57:18.827</time></trkpt><trkpt lat="55.9320789" lon="49.2420085"><time>2023-06-03T07:57:21.837</time></trkpt><trkpt lat="55.9321024" lon="49.2421007"><time>2023-06-03T07:57:23.840</time></trkpt><trkpt lat="55.9321248" lon="49.2422001"><time>2023-06-03T07:57:25.833</time></trkpt><trkpt lat="55.9321538" lon="49.2422862"><time>2023-06-03T07:57:27.830</time></trkpt><trkpt lat="55.9321958" lon="49.2423649"><time>2023-06-03T07:57:29.830</time></trkpt><trkpt lat="55.9322410" lon="49.2424456"><time>2023-06-03T07:57:31.847</time></trkpt><trkpt lat="55.9322782" lon="49.2425239"><time>2023-06-03T07:57:33.853</time></trkpt><trkpt lat="55.9323054" lon="49.2426076"><time>2023-06-03T07:57:35.837</time></trkpt><trkpt lat="55.9323245" lon="49.2426883"><time>2023-06-03T07:57:37.830</time></trkpt><trkpt lat="55.9323505" lon="49.2427764"><time>2023-06-03T07:57:39.833</time></trkpt><trkpt lat="55.9323656" lon="49.2428807"><time>2023-06-03T07:57:41.850</time></trkpt><trkpt lat="55.9323758" lon="49.2430126"><time>2023-06-03T07:57:43.853</time></trkpt><trkpt lat="55.9323878" lon="49.2431230"><time>2023-06-03T07:57:45.823</time></trkpt><trkpt lat="55.9324076" lon="49.2432267"><time>2023-06-03T07:57:47.840</time></trkpt><trkpt lat="55.9324200" lon="49.2433321"><time>2023-06-03T07:57:49.840</time></trkpt><trkpt lat="55.9324369" lon="49.2434382"><time>2023-06-03T07:57:51.837</time></trkpt><trkpt lat="55.9324543" lon="49.2435304"><time>2023-06-03T07:57:53.840</time></trkpt><trkpt lat="55.9324785" lon="49.2436438"><time>2023-06-03T07:57:55.837</time></trkpt><trkpt lat="55.9324940" lon="49.2437623"><time>2023-06-03T07:57:57.840</time></trkpt><trkpt lat="55.9325068" lon="49.2438826"><time>2023-06-03T07:57:59.833</time></trkpt><trkpt lat="55.9325200" lon="49.2439986"><time>2023-06-03T07:58:01.837</time></trkpt><trkpt lat="55.9325304" lon="49.2441185"><time>2023-06-03T07:58:03.840</time></trkpt><trkpt lat="55.9325332" lon="49.2442379"><time>2023-06-03T07:58:05.837</time></trkpt><trkpt lat="55.9325372" lon="49.2443659"><time>2023-06-03T07:58:07.853</time></trkpt><trkpt lat="55.9325391" lon="49.2444224"><time>2023-06-03T07:58:08.857</time></trkpt><trkpt lat="55.9325410" lon="49.2445153"><time>2023-06-03T07:58:10.827</time></trkpt><trkpt lat="55.9325316" lon="49.2446299"><time>2023-06-03T07:58:12.827</time></trkpt><trkpt lat="55.9325232" lon="49.2447481"><time>2023-06-03T07:58:14.867</time></trkpt><trkpt lat="55.9325234" lon="49.2448564"><time>2023-06-03T07:58:16.830</time></trkpt><trkpt lat="55.9325279" lon="49.2449669"><time>2023-06-03T07:58:18.827</time></trkpt><trkpt lat="55.9325243" lon="49.2450517"><time>2023-06-03T07:58:20.850</time></trkpt><trkpt lat="55.9325110" lon="49.2451351"><time>2023-06-03T07:58:22.837</time></trkpt><trkpt lat="55.9324948" lon="49.2452366"><time>2023-06-03T07:58:25.833</time></trkpt><trkpt lat="55.9324782" lon="49.2453225"><time>2023-06-03T07:58:27.830</time></trkpt><trkpt lat="55.9324601" lon="49.2454199"><time>2023-06-03T07:58:29.830</time></trkpt><trkpt lat="55.9324404" lon="49.2455072"><time>2023-06-03T07:58:31.837</time></trkpt><trkpt lat="55.9324133" lon="49.2455738"><time>2023-06-03T07:58:33.837</time></trkpt><trkpt lat="55.9323967" lon="49.2456509"><time>2023-06-03T07:58:36.827</time></trkpt><trkpt lat="55.9323673" lon="49.2457352"><time>2023-06-03T07:58:38.867</time></trkpt><trkpt lat="55.9323407" lon="49.2458242"><time>2023-06-03T07:58:40.837</time></trkpt><trkpt lat="55.9323261" lon="49.2459024"><time>2023-06-03T07:58:42.847</time></trkpt><trkpt lat="55.9323169" lon="49.2459400"><time>2023-06-03T07:58:43.837</time></trkpt><trkpt lat="55.9322840" lon="49.2460392"><time>2023-06-03T07:58:45.847</time></trkpt><trkpt lat="55.9322499" lon="49.2461535"><time>2023-06-03T07:58:47.833</time></trkpt><trkpt lat="55.9322134" lon="49.2462616"><time>2023-06-03T07:58:49.837</time></trkpt><trkpt lat="55.9321934" lon="49.2463362"><time>2023-06-03T07:58:51.833</time></trkpt><trkpt lat="55.9321746" lon="49.2464254"><time>2023-06-03T07:58:53.843</time></trkpt><trkpt lat="55.9321534" lon="49.2465502"><time>2023-06-03T07:58:55.837</time></trkpt><trkpt lat="55.9321490" lon="49.2466745"><time>2023-06-03T07:58:57.867</time></trkpt><trkpt lat="55.9321477" lon="49.2467381"><time>2023-06-03T07:58:58.833</time></trkpt><trkpt lat="55.9321490" lon="49.2468479"><time>2023-06-03T07:59:00.830</time></trkpt><trkpt lat="55.9321674" lon="49.2469721"><time>2023-06-03T07:59:03.837</time></trkpt><trkpt lat="55.9321791" lon="49.2470634"><time>2023-06-03T07:59:05.833</time></trkpt><trkpt lat="55.9321558" lon="49.2471415"><time>2023-06-03T07:59:08.860</time></trkpt><trkpt lat="55.9321558" lon="49.2471415"><time>2023-06-03T07:59:08.890</time></trkpt><trkpt lat="55.9321087" lon="49.2471827"><time>2023-06-03T08:01:33.850</time></trkpt><trkpt lat="55.9320776" lon="49.2472117"><time>2023-06-03T08:01:34.863</time></trkpt><trkpt lat="55.9320151" lon="49.2472544"><time>2023-06-03T08:01:36.833</time></trkpt><trkpt lat="55.9319565" lon="49.2472975"><time>2023-06-03T08:01:38.833</time></trkpt><trkpt lat="55.9319025" lon="49.2473515"><time>2023-06-03T08:01:40.853</time></trkpt><trkpt lat="55.9318476" lon="49.2473941"><time>2023-06-03T08:01:42.837</time></trkpt><trkpt lat="55.9318002" lon="49.2474315"><time>2023-06-03T08:01:44.827</time></trkpt><trkpt lat="55.9317531" lon="49.2474586"><time>2023-06-03T08:01:46.857</time></trkpt><trkpt lat="55.9317064" lon="49.2474792"><time>2023-06-03T08:01:48.840</time></trkpt><trkpt lat="55.9316541" lon="49.2475130"><time>2023-06-03T08:01:50.823</time></trkpt><trkpt lat="55.9316108" lon="49.2475549"><time>2023-06-03T08:01:52.847</time></trkpt><trkpt lat="55.9315651" lon="49.2475943"><time>2023-06-03T08:01:54.830</time></trkpt><trkpt lat="55.9315044" lon="49.2476357"><time>2023-06-03T08:01:56.833</time></trkpt><trkpt lat="55.9314428" lon="49.2476860"><time>2023-06-03T08:01:58.873</time></trkpt><trkpt lat="55.9313875" lon="49.2477369"><time>2023-06-03T08:02:00.827</time></trkpt><trkpt lat="55.9313249" lon="49.2477949"><time>2023-06-03T08:02:02.833</time></trkpt><trkpt lat="55.9312754" lon="49.2478264"><time>2023-06-03T08:02:04.847</time></trkpt><trkpt lat="55.9312284" lon="49.2478373"><time>2023-06-03T08:02:09.880</time></trkpt><trkpt lat="55.9311690" lon="49.2478490"><time>2023-06-03T08:02:12.827</time></trkpt><trkpt lat="55.9311168" lon="49.2478634"><time>2023-06-03T08:02:14.830</time></trkpt><trkpt lat="55.9310567" lon="49.2478602"><time>2023-06-03T08:02:16.833</time></trkpt><trkpt lat="55.9310042" lon="49.2478689"><time>2023-06-03T08:02:18.827</time></trkpt><trkpt lat="55.9309324" lon="49.2478737"><time>2023-06-03T08:02:21.840</time></trkpt><trkpt lat="55.9308683" lon="49.2478929"><time>2023-06-03T08:02:23.843</time></trkpt><trkpt lat="55.9308008" lon="49.2479212"><time>2023-06-03T08:02:25.837</time></trkpt><trkpt lat="55.9307490" lon="49.2479549"><time>2023-06-03T08:02:27.843</time></trkpt><trkpt lat="55.9307002" lon="49.2479733"><time>2023-06-03T08:02:41.830</time></trkpt><trkpt lat="55.9306452" lon="49.2480232"><time>2023-06-03T08:02:44.833</time></trkpt><trkpt lat="55.9305999" lon="49.2480647"><time>2023-06-03T08:02:46.860</time></trkpt><trkpt lat="55.9305430" lon="49.2480904"><time>2023-06-03T08:02:48.827</time></trkpt><trkpt lat="55.9304777" lon="49.2481188"><time>2023-06-03T08:02:50.840</time></trkpt><trkpt lat="55.9304164" lon="49.2481622"><time>2023-06-03T08:02:52.847</time></trkpt><trkpt lat="55.9303593" lon="49.2481999"><time>2023-06-03T08:02:54.827</time></trkpt><trkpt lat="55.9303101" lon="49.2482416"><time>2023-06-03T08:02:57.837</time></trkpt><trkpt lat="55.9302652" lon="49.2482632"><time>2023-06-03T08:03:02.827</time></trkpt><trkpt lat="55.9302208" lon="49.2483011"><time>2023-06-03T08:03:09.843</time></trkpt><trkpt lat="55.9301783" lon="49.2483406"><time>2023-06-03T08:03:13.893</time></trkpt><trkpt lat="55.9301338" lon="49.2483619"><time>2023-06-03T08:03:17.830</time></trkpt><trkpt lat="55.9300845" lon="49.2483717"><time>2023-06-03T08:03:20.817</time></trkpt><trkpt lat="55.9300370" lon="49.2483685"><time>2023-06-03T08:03:23.840</time></trkpt><trkpt lat="55.9299867" lon="49.2483947"><time>2023-06-03T08:03:28.853</time></trkpt><trkpt lat="55.9299260" lon="49.2483741"><time>2023-06-03T08:03:44.837</time></trkpt><trkpt lat="55.9298763" lon="49.2483831"><time>2023-06-03T08:03:46.863</time></trkpt><trkpt lat="55.9298221" lon="49.2483804"><time>2023-06-03T08:03:48.837</time></trkpt><trkpt lat="55.9297706" lon="49.2483678"><time>2023-06-03T08:03:50.843</time></trkpt><trkpt lat="55.9297186" lon="49.2483493"><time>2023-06-03T08:03:52.843</time></trkpt><trkpt lat="55.9296740" lon="49.2483172"><time>2023-06-03T08:03:54.837</time></trkpt><trkpt lat="55.9296276" lon="49.2483008"><time>2023-06-03T08:03:58.867</time></trkpt><trkpt lat="55.9296126" lon="49.2483797"><time>2023-06-03T08:04:12.837</time></trkpt><trkpt lat="55.9296263" lon="49.2484646"><time>2023-06-03T08:04:15.827</time></trkpt><trkpt lat="55.9296375" lon="49.2485491"><time>2023-06-03T08:04:25.833</time></trkpt><trkpt lat="55.9296563" lon="49.2486541"><time>2023-06-03T08:04:27.833</time></trkpt><trkpt lat="55.9296822" lon="49.2487516"><time>2023-06-03T08:04:29.830</time></trkpt><trkpt lat="55.9297053" lon="49.2488425"><time>2023-06-03T08:04:31.837</time></trkpt><trkpt lat="55.9297302" lon="49.2489275"><time>2023-06-03T08:04:33.840</time></trkpt><trkpt lat="55.9297578" lon="49.2490157"><time>2023-06-03T08:04:35.840</time></trkpt><trkpt lat="55.9297808" lon="49.2490971"><time>2023-06-03T08:04:37.827</time></trkpt><trkpt lat="55.9298069" lon="49.2492029"><time>2023-06-03T08:04:39.843</time></trkpt><trkpt lat="55.9298386" lon="49.2493018"><time>2023-06-03T08:04:41.837</time></trkpt><trkpt lat="55.9298725" lon="49.2493697"><time>2023-06-03T08:04:43.850</time></trkpt><trkpt lat="55.9299038" lon="49.2494589"><time>2023-06-03T08:04:45.833</time></trkpt><trkpt lat="55.9299286" lon="49.2495390"><time>2023-06-03T08:04:47.830</time></trkpt><trkpt lat="55.9299502" lon="49.2496256"><time>2023-06-03T08:04:49.847</time></trkpt><trkpt lat="55.9299818" lon="49.2497205"><time>2023-06-03T08:04:51.823</time></trkpt><trkpt lat="55.9300074" lon="49.2498173"><time>2023-06-03T08:04:53.833</time></trkpt><trkpt lat="55.9300290" lon="49.2499054"><time>2023-06-03T08:04:55.833</time></trkpt><trkpt lat="55.9300519" lon="49.2499913"><time>2023-06-03T08:04:57.833</time></trkpt><trkpt lat="55.9300706" lon="49.2500809"><time>2023-06-03T08:04:59.833</time></trkpt><trkpt lat="55.9300833" lon="49.2501847"><time>2023-06-03T08:05:01.833</time></trkpt><trkpt lat="55.9301058" lon="49.2503109"><time>2023-06-03T08:05:03.837</time></trkpt><trkpt lat="55.9301406" lon="49.2504257"><time>2023-06-03T08:05:05.833</time></trkpt><trkpt lat="55.9301748" lon="49.2505453"><time>2023-06-03T08:05:07.833</time></trkpt><trkpt lat="55.9301938" lon="49.2506371"><time>2023-06-03T08:05:09.827</time></trkpt><trkpt lat="55.9302162" lon="49.2507266"><time>2023-06-03T08:05:11.823</time></trkpt><trkpt lat="55.9302523" lon="49.2508113"><time>2023-06-03T08:05:13.837</time></trkpt><trkpt lat="55.9302746" lon="49.2508985"><time>2023-06-03T08:05:15.837</time></trkpt><trkpt lat="55.9302856" lon="49.2509935"><time>2023-06-03T08:05:17.830</time></trkpt><trkpt lat="55.9302909" lon="49.2510845"><time>2023-06-03T08:05:19.827</time></trkpt><trkpt lat="55.9302973" lon="49.2511910"><time>2023-06-03T08:05:21.833</time></trkpt><trkpt lat="55.9303030" lon="49.2512855"><time>2023-06-03T08:05:23.830</time></trkpt><trkpt lat="55.9303224" lon="49.2513751"><time>2023-06-03T08:05:26.823</time></trkpt><trkpt lat="55.9303414" lon="49.2514585"><time>2023-06-03T08:05:28.850</time></trkpt><trkpt lat="55.9303555" lon="49.2515719"><time>2023-06-03T08:05:30.833</time></trkpt><trkpt lat="55.9303749" lon="49.2516794"><time>2023-06-03T08:05:32.830</time></trkpt><trkpt lat="55.9303976" lon="49.2517593"><time>2023-06-03T08:05:34.860</time></trkpt><trkpt lat="55.9304179" lon="49.2518367"><time>2023-06-03T08:05:38.833</time></trkpt><trkpt lat="55.9304591" lon="49.2519094"><time>2023-06-03T08:05:44.830</time></trkpt><trkpt lat="55.9304782" lon="49.2519921"><time>2023-06-03T08:05:48.833</time></trkpt><trkpt lat="55.9304688" lon="49.2520906"><time>2023-06-03T08:05:54.837</time></trkpt><trkpt lat="55.9304831" lon="49.2521910"><time>2023-06-03T08:05:57.837</time></trkpt><trkpt lat="55.9305058" lon="49.2522855"><time>2023-06-03T08:06:00.830</time></trkpt><trkpt lat="55.9305269" lon="49.2523575"><time>2023-06-03T08:06:02.840</time></trkpt><trkpt lat="55.9305552" lon="49.2524367"><time>2023-06-03T08:06:04.837</time></trkpt><trkpt lat="55.9305819" lon="49.2525129"><time>2023-06-03T08:06:06.830</time></trkpt><trkpt lat="55.9306063" lon="49.2525866"><time>2023-06-03T08:06:08.837</time></trkpt><trkpt lat="55.9306252" lon="49.2526627"><time>2023-06-03T08:06:10.870</time></trkpt><trkpt lat="55.9306445" lon="49.2527401"><time>2023-06-03T08:06:12.847</time></trkpt><trkpt lat="55.9306716" lon="49.2528170"><time>2023-06-03T08:06:15.840</time></trkpt><trkpt lat="55.9306980" lon="49.2528976"><time>2023-06-03T08:06:22.873</time></trkpt><trkpt lat="55.9307027" lon="49.2529848"><time>2023-06-03T08:06:27.833</time></trkpt><trkpt lat="55.9307397" lon="49.2530383"><time>2023-06-03T08:06:31.830</time></trkpt><trkpt lat="55.9307684" lon="49.2531080"><time>2023-06-03T08:06:35.833</time></trkpt><trkpt lat="55.9307606" lon="49.2532210"><time>2023-06-03T08:06:41.833</time></trkpt><trkpt lat="55.9307598" lon="49.2533203"><time>2023-06-03T08:06:44.837</time></trkpt><trkpt lat="55.9307504" lon="49.2534036"><time>2023-06-03T08:06:57.840</time></trkpt><trkpt lat="55.9307521" lon="49.2534880"><time>2023-06-03T08:07:00.833</time></trkpt><trkpt lat="55.9307731" lon="49.2535777"><time>2023-06-03T08:07:02.833</time></trkpt><trkpt lat="55.9307970" lon="49.2536756"><time>2023-06-03T08:07:04.843</time></trkpt><trkpt lat="55.9308103" lon="49.2537965"><time>2023-06-03T08:07:06.833</time></trkpt><trkpt lat="55.9308278" lon="49.2539115"><time>2023-06-03T08:07:08.837</time></trkpt><trkpt lat="55.9308510" lon="49.2540196"><time>2023-06-03T08:07:10.867</time></trkpt><trkpt lat="55.9308823" lon="49.2541379"><time>2023-06-03T08:07:12.823</time></trkpt><trkpt lat="55.9309190" lon="49.2542424"><time>2023-06-03T08:07:14.853</time></trkpt><trkpt lat="55.9309482" lon="49.2543351"><time>2023-06-03T08:07:16.843</time></trkpt><trkpt lat="55.9309711" lon="49.2544418"><time>2023-06-03T08:07:18.833</time></trkpt><trkpt lat="55.9309907" lon="49.2545616"><time>2023-06-03T08:07:20.830</time></trkpt><trkpt lat="55.9310093" lon="49.2546639"><time>2023-06-03T08:07:22.863</time></trkpt><trkpt lat="55.9310416" lon="49.2547627"><time>2023-06-03T08:07:24.827</time></trkpt><trkpt lat="55.9310849" lon="49.2548527"><time>2023-06-03T08:07:26.830</time></trkpt><trkpt lat="55.9311165" lon="49.2549310"><time>2023-06-03T08:07:28.840</time></trkpt><trkpt lat="55.9311375" lon="49.2550524"><time>2023-06-03T08:07:30.837</time></trkpt><trkpt lat="55.9311504" lon="49.2551631"><time>2023-06-03T08:07:32.830</time></trkpt><trkpt lat="55.9311569" lon="49.2552546"><time>2023-06-03T08:07:34.860</time></trkpt><trkpt lat="55.9311687" lon="49.2553550"><time>2023-06-03T08:07:36.833</time></trkpt><trkpt lat="55.9311817" lon="49.2554500"><time>2023-06-03T08:07:38.837</time></trkpt><trkpt lat="55.9311983" lon="49.2555422"><time>2023-06-03T08:07:40.850</time></trkpt><trkpt lat="55.9312248" lon="49.2556547"><time>2023-06-03T08:07:42.830</time></trkpt><trkpt lat="55.9312526" lon="49.2557630"><time>2023-06-03T08:07:44.833</time></trkpt><trkpt lat="55.9312816" lon="49.2558611"><time>2023-06-03T08:07:46.857</time></trkpt><trkpt lat="55.9313069" lon="49.2559357"><time>2023-06-03T08:07:48.830</time></trkpt><trkpt lat="55.9313402" lon="49.2560028"><time>2023-06-03T08:07:50.830</time></trkpt><trkpt lat="55.9313706" lon="49.2560941"><time>2023-06-03T08:07:52.840</time></trkpt><trkpt lat="55.9313905" lon="49.2561932"><time>2023-06-03T08:07:54.830</time></trkpt><trkpt lat="55.9314196" lon="49.2563294"><time>2023-06-03T08:07:56.837</time></trkpt><trkpt lat="55.9314439" lon="49.2564513"><time>2023-06-03T08:07:58.857</time></trkpt><trkpt lat="55.9314609" lon="49.2565730"><time>2023-06-03T08:08:00.840</time></trkpt><trkpt lat="55.9314855" lon="49.2567147"><time>2023-06-03T08:08:02.833</time></trkpt><trkpt lat="55.9315243" lon="49.2568409"><time>2023-06-03T08:08:04.850</time></trkpt><trkpt lat="55.9315643" lon="49.2569517"><time>2023-06-03T08:08:06.830</time></trkpt><trkpt lat="55.9316085" lon="49.2570554"><time>2023-06-03T08:08:08.840</time></trkpt><trkpt lat="55.9316445" lon="49.2571474"><time>2023-06-03T08:08:10.867</time></trkpt><trkpt lat="55.9316669" lon="49.2572386"><time>2023-06-03T08:08:12.830</time></trkpt><trkpt lat="55.9316852" lon="49.2573404"><time>2023-06-03T08:08:14.827</time></trkpt><trkpt lat="55.9317013" lon="49.2574481"><time>2023-06-03T08:08:16.853</time></trkpt><trkpt lat="55.9317210" lon="49.2575262"><time>2023-06-03T08:08:18.837</time></trkpt><trkpt lat="55.9317365" lon="49.2576050"><time>2023-06-03T08:08:20.830</time></trkpt><trkpt lat="55.9317562" lon="49.2577035"><time>2023-06-03T08:08:22.870</time></trkpt><trkpt lat="55.9317722" lon="49.2577990"><time>2023-06-03T08:08:24.823</time></trkpt><trkpt lat="55.9317807" lon="49.2579099"><time>2023-06-03T08:08:26.840</time></trkpt><trkpt lat="55.9317997" lon="49.2580255"><time>2023-06-03T08:08:28.847</time></trkpt><trkpt lat="55.9318278" lon="49.2581475"><time>2023-06-03T08:08:30.837</time></trkpt><trkpt lat="55.9318542" lon="49.2582553"><time>2023-06-03T08:08:32.823</time></trkpt><trkpt lat="55.9318870" lon="49.2583619"><time>2023-06-03T08:08:34.853</time></trkpt><trkpt lat="55.9319125" lon="49.2584823"><time>2023-06-03T08:08:36.827</time></trkpt><trkpt lat="55.9319363" lon="49.2586110"><time>2023-06-03T08:08:38.830</time></trkpt><trkpt lat="55.9319619" lon="49.2587487"><time>2023-06-03T08:08:40.850</time></trkpt><trkpt lat="55.9319796" lon="49.2588617"><time>2023-06-03T08:08:42.827</time></trkpt><trkpt lat="55.9319999" lon="49.2589562"><time>2023-06-03T08:08:44.827</time></trkpt><trkpt lat="55.9320157" lon="49.2590605"><time>2023-06-03T08:08:46.880</time></trkpt><trkpt lat="55.9320355" lon="49.2591690"><time>2023-06-03T08:08:48.847</time></trkpt><trkpt lat="55.9320560" lon="49.2592856"><time>2023-06-03T08:08:50.840</time></trkpt><trkpt lat="55.9320806" lon="49.2593918"><time>2023-06-03T08:08:52.837</time></trkpt><trkpt lat="55.9321139" lon="49.2595196"><time>2023-06-03T08:08:54.840</time></trkpt><trkpt lat="55.9321370" lon="49.2596319"><time>2023-06-03T08:08:56.837</time></trkpt><trkpt lat="55.9321602" lon="49.2597771"><time>2023-06-03T08:08:58.853</time></trkpt><trkpt lat="55.9321928" lon="49.2599162"><time>2023-06-03T08:09:00.837</time></trkpt><trkpt lat="55.9322252" lon="49.2600384"><time>2023-06-03T08:09:02.830</time></trkpt><trkpt lat="55.9322479" lon="49.2601604"><time>2023-06-03T08:09:04.843</time></trkpt><trkpt lat="55.9322725" lon="49.2603032"><time>2023-06-03T08:09:06.827</time></trkpt><trkpt lat="55.9322983" lon="49.2604196"><time>2023-06-03T08:09:08.840</time></trkpt><trkpt lat="55.9323269" lon="49.2605172"><time>2023-06-03T08:09:10.867</time></trkpt><trkpt lat="55.9323471" lon="49.2606224"><time>2023-06-03T08:09:12.833</time></trkpt><trkpt lat="55.9323641" lon="49.2607240"><time>2023-06-03T08:09:14.827</time></trkpt><trkpt lat="55.9323849" lon="49.2608150"><time>2023-06-03T08:09:16.850</time></trkpt><trkpt lat="55.9324064" lon="49.2609280"><time>2023-06-03T08:09:18.833</time></trkpt><trkpt lat="55.9324370" lon="49.2610557"><time>2023-06-03T08:09:20.833</time></trkpt><trkpt lat="55.9324656" lon="49.2611733"><time>2023-06-03T08:09:22.873</time></trkpt><trkpt lat="55.9324882" lon="49.2612848"><time>2023-06-03T08:09:24.833</time></trkpt><trkpt lat="55.9325169" lon="49.2613985"><time>2023-06-03T08:09:26.830</time></trkpt><trkpt lat="55.9325410" lon="49.2615063"><time>2023-06-03T08:09:28.847</time></trkpt><trkpt lat="55.9325489" lon="49.2615904"><time>2023-06-03T08:09:30.840</time></trkpt><trkpt lat="55.9325450" lon="49.2616762"><time>2023-06-03T08:09:32.837</time></trkpt><trkpt lat="55.9325581" lon="49.2618028"><time>2023-06-03T08:09:34.857</time></trkpt><trkpt lat="55.9325843" lon="49.2619400"><time>2023-06-03T08:09:36.833</time></trkpt><trkpt lat="55.9326041" lon="49.2620606"><time>2023-06-03T08:09:38.840</time></trkpt><trkpt lat="55.9326198" lon="49.2621635"><time>2023-06-03T08:09:40.860</time></trkpt><trkpt lat="55.9326464" lon="49.2622574"><time>2023-06-03T08:09:43.837</time></trkpt><trkpt lat="55.9326702" lon="49.2623510"><time>2023-06-03T08:09:45.840</time></trkpt><trkpt lat="55.9326997" lon="49.2624453"><time>2023-06-03T08:09:47.843</time></trkpt><trkpt lat="55.9327506" lon="49.2625604"><time>2023-06-03T08:09:49.843</time></trkpt><trkpt lat="55.9327734" lon="49.2626344"><time>2023-06-03T08:09:50.817</time></trkpt><trkpt lat="55.9328040" lon="49.2627623"><time>2023-06-03T08:09:52.843</time></trkpt><trkpt lat="55.9328207" lon="49.2628687"><time>2023-06-03T08:09:54.833</time></trkpt><trkpt lat="55.9328518" lon="49.2629839"><time>2023-06-03T08:09:56.827</time></trkpt><trkpt lat="55.9328767" lon="49.2631009"><time>2023-06-03T08:09:58.863</time></trkpt><trkpt lat="55.9328933" lon="49.2632016"><time>2023-06-03T08:10:00.833</time></trkpt><trkpt lat="55.9329158" lon="49.2632752"><time>2023-06-03T08:10:02.830</time></trkpt><trkpt lat="55.9329429" lon="49.2633509"><time>2023-06-03T08:10:04.840</time></trkpt><trkpt lat="55.9329768" lon="49.2634767"><time>2023-06-03T08:10:06.840</time></trkpt><trkpt lat="55.9329952" lon="49.2635576"><time>2023-06-03T08:10:07.833</time></trkpt><trkpt lat="55.9330131" lon="49.2637292"><time>2023-06-03T08:10:08.823</time></trkpt><trkpt lat="55.9330366" lon="49.2638238"><time>2023-06-03T08:10:09.840</time></trkpt><trkpt lat="55.9330774" lon="49.2639650"><time>2023-06-03T08:10:11.830</time></trkpt><trkpt lat="55.9331155" lon="49.2641066"><time>2023-06-03T08:10:13.833</time></trkpt><trkpt lat="55.9331295" lon="49.2641898"><time>2023-06-03T08:10:14.840</time></trkpt><trkpt lat="55.9331515" lon="49.2642601"><time>2023-06-03T08:10:15.837</time></trkpt><trkpt lat="55.9331812" lon="49.2643944"><time>2023-06-03T08:10:17.837</time></trkpt><trkpt lat="55.9332140" lon="49.2645194"><time>2023-06-03T08:10:19.837</time></trkpt><trkpt lat="55.9332583" lon="49.2646425"><time>2023-06-03T08:10:21.853</time></trkpt><trkpt lat="55.9332833" lon="49.2647096"><time>2023-06-03T08:10:22.863</time></trkpt><trkpt lat="55.9333259" lon="49.2648208"><time>2023-06-03T08:10:24.830</time></trkpt><trkpt lat="55.9333626" lon="49.2649222"><time>2023-06-03T08:10:26.830</time></trkpt><trkpt lat="55.9333870" lon="49.2649927"><time>2023-06-03T08:10:27.837</time></trkpt><trkpt lat="55.9334024" lon="49.2651400"><time>2023-06-03T08:10:28.847</time></trkpt><trkpt lat="55.9334079" lon="49.2652437"><time>2023-06-03T08:10:29.837</time></trkpt><trkpt lat="55.9334150" lon="49.2653292"><time>2023-06-03T08:10:30.830</time></trkpt><trkpt lat="55.9334347" lon="49.2654312"><time>2023-06-03T08:10:32.830</time></trkpt><trkpt lat="55.9334480" lon="49.2655124"><time>2023-06-03T08:10:33.837</time></trkpt><trkpt lat="55.9334601" lon="49.2655922"><time>2023-06-03T08:10:34.857</time></trkpt><trkpt lat="55.9334642" lon="49.2656834"><time>2023-06-03T08:10:35.843</time></trkpt><trkpt lat="55.9334770" lon="49.2657815"><time>2023-06-03T08:10:36.833</time></trkpt><trkpt lat="55.9334936" lon="49.2658577"><time>2023-06-03T08:10:37.833</time></trkpt><trkpt lat="55.9335083" lon="49.2659518"><time>2023-06-03T08:10:38.837</time></trkpt><trkpt lat="55.9335309" lon="49.2660401"><time>2023-06-03T08:10:39.840</time></trkpt><trkpt lat="55.9335624" lon="49.2661258"><time>2023-06-03T08:10:40.850</time></trkpt><trkpt lat="55.9335887" lon="49.2662281"><time>2023-06-03T08:10:41.837</time></trkpt><trkpt lat="55.9336255" lon="49.2663191"><time>2023-06-03T08:10:42.827</time></trkpt><trkpt lat="55.9336415" lon="49.2664339"><time>2023-06-03T08:10:43.833</time></trkpt><trkpt lat="55.9336561" lon="49.2665383"><time>2023-06-03T08:10:44.827</time></trkpt><trkpt lat="55.9336647" lon="49.2666626"><time>2023-06-03T08:10:45.830</time></trkpt><trkpt lat="55.9336930" lon="49.2667450"><time>2023-06-03T08:10:46.870</time></trkpt><trkpt lat="55.9337084" lon="49.2668631"><time>2023-06-03T08:10:47.833</time></trkpt><trkpt lat="55.9337231" lon="49.2669598"><time>2023-06-03T08:10:48.837</time></trkpt><trkpt lat="55.9337323" lon="49.2670412"><time>2023-06-03T08:10:49.840</time></trkpt><trkpt lat="55.9337569" lon="49.2671127"><time>2023-06-03T08:10:51.820</time></trkpt><trkpt lat="55.9337801" lon="49.2672600"><time>2023-06-03T08:10:53.833</time></trkpt><trkpt lat="55.9337833" lon="49.2673510"><time>2023-06-03T08:10:54.833</time></trkpt><trkpt lat="55.9337919" lon="49.2674768"><time>2023-06-03T08:10:56.843</time></trkpt><trkpt lat="55.9337758" lon="49.2676173"><time>2023-06-03T08:10:58.870</time></trkpt><trkpt lat="55.9337718" lon="49.2677451"><time>2023-06-03T08:11:00.827</time></trkpt><trkpt lat="55.9337681" lon="49.2678660"><time>2023-06-03T08:11:02.840</time></trkpt><trkpt lat="55.9337511" lon="49.2679927"><time>2023-06-03T08:11:04.843</time></trkpt><trkpt lat="55.9337320" lon="49.2680881"><time>2023-06-03T08:11:06.840</time></trkpt><trkpt lat="55.9337188" lon="49.2681731"><time>2023-06-03T08:11:09.830</time></trkpt><trkpt lat="55.9337207" lon="49.2682533"><time>2023-06-03T08:11:11.837</time></trkpt><trkpt lat="55.9337461" lon="49.2683433"><time>2023-06-03T08:11:13.847</time></trkpt><trkpt lat="55.9337835" lon="49.2684206"><time>2023-06-03T08:11:16.850</time></trkpt><trkpt lat="55.9338318" lon="49.2684983"><time>2023-06-03T08:11:18.827</time></trkpt><trkpt lat="55.9338824" lon="49.2685893"><time>2023-06-03T08:11:20.830</time></trkpt><trkpt lat="55.9339350" lon="49.2686708"><time>2023-06-03T08:11:22.853</time></trkpt><trkpt lat="55.9339989" lon="49.2687568"><time>2023-06-03T08:11:24.830</time></trkpt><trkpt lat="55.9340585" lon="49.2688410"><time>2023-06-03T08:11:26.837</time></trkpt><trkpt lat="55.9341193" lon="49.2689194"><time>2023-06-03T08:11:28.843</time></trkpt><trkpt lat="55.9341891" lon="49.2690077"><time>2023-06-03T08:11:30.833</time></trkpt><trkpt lat="55.9342552" lon="49.2690793"><time>2023-06-03T08:11:32.840</time></trkpt><trkpt lat="55.9343250" lon="49.2691473"><time>2023-06-03T08:11:34.857</time></trkpt><trkpt lat="55.9343713" lon="49.2691560"><time>2023-06-03T08:11:35.827</time></trkpt><trkpt lat="55.9344254" lon="49.2691635"><time>2023-06-03T08:11:36.843</time></trkpt><trkpt lat="55.9344941" lon="49.2692176"><time>2023-06-03T08:11:38.840</time></trkpt><trkpt lat="55.9345692" lon="49.2692583"><time>2023-06-03T08:11:40.843</time></trkpt><trkpt lat="55.9346569" lon="49.2692657"><time>2023-06-03T08:11:42.840</time></trkpt><trkpt lat="55.9347257" lon="49.2693224"><time>2023-06-03T08:11:44.833</time></trkpt><trkpt lat="55.9348053" lon="49.2693825"><time>2023-06-03T08:11:46.850</time></trkpt><trkpt lat="55.9348806" lon="49.2694165"><time>2023-06-03T08:11:48.833</time></trkpt><trkpt lat="55.9349569" lon="49.2694458"><time>2023-06-03T08:11:50.833</time></trkpt><trkpt lat="55.9350383" lon="49.2694656"><time>2023-06-03T08:11:52.850</time></trkpt><trkpt lat="55.9351177" lon="49.2694796"><time>2023-06-03T08:11:54.827</time></trkpt><trkpt lat="55.9351910" lon="49.2694827"><time>2023-06-03T08:11:56.840</time></trkpt><trkpt lat="55.9352657" lon="49.2695123"><time>2023-06-03T08:11:58.833</time></trkpt><trkpt lat="55.9353303" lon="49.2695755"><time>2023-06-03T08:12:00.837</time></trkpt><trkpt lat="55.9354041" lon="49.2696554"><time>2023-06-03T08:12:02.833</time></trkpt><trkpt lat="55.9354697" lon="49.2697430"><time>2023-06-03T08:12:04.847</time></trkpt><trkpt lat="55.9355263" lon="49.2698237"><time>2023-06-03T08:12:06.827</time></trkpt><trkpt lat="55.9355854" lon="49.2698962"><time>2023-06-03T08:12:08.837</time></trkpt><trkpt lat="55.9356470" lon="49.2699537"><time>2023-06-03T08:12:10.850</time></trkpt><trkpt lat="55.9357117" lon="49.2700029"><time>2023-06-03T08:12:12.823</time></trkpt><trkpt lat="55.9357804" lon="49.2700472"><time>2023-06-03T08:12:14.827</time></trkpt><trkpt lat="55.9358505" lon="49.2700916"><time>2023-06-03T08:12:16.833</time></trkpt><trkpt lat="55.9359204" lon="49.2701243"><time>2023-06-03T08:12:18.837</time></trkpt><trkpt lat="55.9359915" lon="49.2701591"><time>2023-06-03T08:12:20.830</time></trkpt><trkpt lat="55.9360623" lon="49.2701968"><time>2023-06-03T08:12:22.853</time></trkpt><trkpt lat="55.9361256" lon="49.2702307"><time>2023-06-03T08:12:24.823</time></trkpt><trkpt lat="55.9361911" lon="49.2702706"><time>2023-06-03T08:12:26.827</time></trkpt><trkpt lat="55.9362602" lon="49.2703095"><time>2023-06-03T08:12:28.847</time></trkpt><trkpt lat="55.9363297" lon="49.2703477"><time>2023-06-03T08:12:30.840</time></trkpt><trkpt lat="55.9363996" lon="49.2703946"><time>2023-06-03T08:12:32.830</time></trkpt><trkpt lat="55.9364701" lon="49.2704389"><time>2023-06-03T08:12:34.857</time></trkpt><trkpt lat="55.9365433" lon="49.2704764"><time>2023-06-03T08:12:36.823</time></trkpt><trkpt lat="55.9366152" lon="49.2705051"><time>2023-06-03T08:12:38.837</time></trkpt><trkpt lat="55.9366836" lon="49.2705265"><time>2023-06-03T08:12:40.840</time></trkpt><trkpt lat="55.9367595" lon="49.2705574"><time>2023-06-03T08:12:42.830</time></trkpt><trkpt lat="55.9368364" lon="49.2705949"><time>2023-06-03T08:12:44.827</time></trkpt><trkpt lat="55.9369205" lon="49.2706337"><time>2023-06-03T08:12:46.857</time></trkpt><trkpt lat="55.9370043" lon="49.2706773"><time>2023-06-03T08:12:48.840</time></trkpt><trkpt lat="55.9370688" lon="49.2707248"><time>2023-06-03T08:12:50.853</time></trkpt><trkpt lat="55.9371017" lon="49.2707509"><time>2023-06-03T08:12:51.837</time></trkpt><trkpt lat="55.9371606" lon="49.2707959"><time>2023-06-03T08:12:53.837</time></trkpt><trkpt lat="55.9372157" lon="49.2708495"><time>2023-06-03T08:12:55.830</time></trkpt><trkpt lat="55.9372768" lon="49.2709185"><time>2023-06-03T08:12:57.843</time></trkpt><trkpt lat="55.9373471" lon="49.2709829"><time>2023-06-03T08:12:59.830</time></trkpt><trkpt lat="55.9373604" lon="49.2710662"><time>2023-06-03T08:13:06.840</time></trkpt><trkpt lat="55.9373776" lon="49.2711636"><time>2023-06-03T08:13:14.830</time></trkpt><trkpt lat="55.9373919" lon="49.2712443"><time>2023-06-03T08:13:16.853</time></trkpt><trkpt lat="55.9374127" lon="49.2713339"><time>2023-06-03T08:13:18.827</time></trkpt><trkpt lat="55.9374470" lon="49.2714180"><time>2023-06-03T08:13:20.833</time></trkpt><trkpt lat="55.9374947" lon="49.2715062"><time>2023-06-03T08:13:22.850</time></trkpt><trkpt lat="55.9375339" lon="49.2715834"><time>2023-06-03T08:13:24.830</time></trkpt><trkpt lat="55.9375696" lon="49.2716720"><time>2023-06-03T08:13:26.827</time></trkpt><trkpt lat="55.9376029" lon="49.2717584"><time>2023-06-03T08:13:29.847</time></trkpt><trkpt lat="55.9376392" lon="49.2718348"><time>2023-06-03T08:13:32.833</time></trkpt><trkpt lat="55.9376889" lon="49.2718945"><time>2023-06-03T08:13:35.863</time></trkpt><trkpt lat="55.9377128" lon="49.2719054"><time>2023-06-03T08:13:36.837</time></trkpt><trkpt lat="55.9377708" lon="49.2719122"><time>2023-06-03T08:13:38.830</time></trkpt><trkpt lat="55.9378321" lon="49.2719505"><time>2023-06-03T08:13:40.847</time></trkpt><trkpt lat="55.9378804" lon="49.2720260"><time>2023-06-03T08:13:42.823</time></trkpt><trkpt lat="55.9379220" lon="49.2721043"><time>2023-06-03T08:13:44.830</time></trkpt><trkpt lat="55.9379547" lon="49.2721828"><time>2023-06-03T08:13:46.867</time></trkpt><trkpt lat="55.9379888" lon="49.2722564"><time>2023-06-03T08:14:02.833</time></trkpt><trkpt lat="55.9380225" lon="49.2723197"><time>2023-06-03T08:14:05.837</time></trkpt><trkpt lat="55.9380592" lon="49.2724021"><time>2023-06-03T08:14:07.827</time></trkpt><trkpt lat="55.9381027" lon="49.2725012"><time>2023-06-03T08:14:09.867</time></trkpt><trkpt lat="55.9381241" lon="49.2725556"><time>2023-06-03T08:14:10.853</time></trkpt><trkpt lat="55.9381594" lon="49.2726667"><time>2023-06-03T08:14:12.833</time></trkpt><trkpt lat="55.9381968" lon="49.2727538"><time>2023-06-03T08:14:14.830</time></trkpt><trkpt lat="55.9382220" lon="49.2728216"><time>2023-06-03T08:14:16.850</time></trkpt><trkpt lat="55.9381949" lon="49.2728961"><time>2023-06-03T08:14:22.863</time></trkpt><trkpt lat="55.9381690" lon="49.2729661"><time>2023-06-03T08:14:31.847</time></trkpt><trkpt lat="55.9381690" lon="49.2729661"><time>2023-06-03T08:14:31.940</time></trkpt><trkpt lat="55.9381785" lon="49.2730500"><time>2023-06-03T08:14:41.863</time></trkpt><trkpt lat="55.9381815" lon="49.2730461"><time>2023-06-03T08:14:42.837</time></trkpt><trkpt lat="55.9381598" lon="49.2729618"><time>2023-06-03T08:14:50.883</time></trkpt><trkpt lat="55.9381733" lon="49.2728847"><time>2023-06-03T08:15:29.833</time></trkpt><trkpt lat="55.9381652" lon="49.2727829"><time>2023-06-03T08:15:54.847</time></trkpt><trkpt lat="55.9381333" lon="49.2727139"><time>2023-06-03T08:15:56.863</time></trkpt><trkpt lat="55.9380995" lon="49.2726346"><time>2023-06-03T08:15:58.833</time></trkpt><trkpt lat="55.9380724" lon="49.2725431"><time>2023-06-03T08:16:00.833</time></trkpt><trkpt lat="55.9380508" lon="49.2724586"><time>2023-06-03T08:16:02.843</time></trkpt><trkpt lat="55.9380224" lon="49.2723759"><time>2023-06-03T08:16:04.833</time></trkpt><trkpt lat="55.9379940" lon="49.2723048"><time>2023-06-03T08:16:06.833</time></trkpt><trkpt lat="55.9379482" lon="49.2722261"><time>2023-06-03T08:16:08.863</time></trkpt><trkpt lat="55.9378989" lon="49.2721395"><time>2023-06-03T08:16:10.837</time></trkpt><trkpt lat="55.9378442" lon="49.2720348"><time>2023-06-03T08:16:12.823</time></trkpt><trkpt lat="55.9377854" lon="49.2719529"><time>2023-06-03T08:16:14.853</time></trkpt><trkpt lat="55.9377217" lon="49.2719090"><time>2023-06-03T08:16:16.827</time></trkpt><trkpt lat="55.9376772" lon="49.2718909"><time>2023-06-03T08:16:18.830</time></trkpt><trkpt lat="55.9376285" lon="49.2718494"><time>2023-06-03T08:16:20.850</time></trkpt><trkpt lat="55.9375924" lon="49.2717760"><time>2023-06-03T08:16:22.840</time></trkpt><trkpt lat="55.9375549" lon="49.2716959"><time>2023-06-03T08:16:24.827</time></trkpt><trkpt lat="55.9375177" lon="49.2716098"><time>2023-06-03T08:16:26.843</time></trkpt><trkpt lat="55.9374853" lon="49.2715076"><time>2023-06-03T08:16:28.830</time></trkpt><trkpt lat="55.9374482" lon="49.2714017"><time>2023-06-03T08:16:30.823</time></trkpt><trkpt lat="55.9374185" lon="49.2713171"><time>2023-06-03T08:16:32.853</time></trkpt><trkpt lat="55.9373934" lon="49.2712445"><time>2023-06-03T08:16:34.830</time></trkpt><trkpt lat="55.9373641" lon="49.2711803"><time>2023-06-03T08:16:36.830</time></trkpt><trkpt lat="55.9373391" lon="49.2710900"><time>2023-06-03T08:16:39.837</time></trkpt><trkpt lat="55.9373694" lon="49.2710136"><time>2023-06-03T08:16:43.843</time></trkpt><trkpt lat="55.9374283" lon="49.2710110"><time>2023-06-03T08:16:45.837</time></trkpt><trkpt lat="55.9375014" lon="49.2710048"><time>2023-06-03T08:16:47.830</time></trkpt><trkpt lat="55.9375761" lon="49.2709970"><time>2023-06-03T08:16:49.823</time></trkpt><trkpt lat="55.9376452" lon="49.2709971"><time>2023-06-03T08:16:51.843</time></trkpt><trkpt lat="55.9377109" lon="49.2709962"><time>2023-06-03T08:16:53.823</time></trkpt><trkpt lat="55.9377855" lon="49.2709856"><time>2023-06-03T08:16:55.827</time></trkpt><trkpt lat="55.9378621" lon="49.2709780"><time>2023-06-03T08:16:57.830</time></trkpt><trkpt lat="55.9379402" lon="49.2709831"><time>2023-06-03T08:16:59.837</time></trkpt><trkpt lat="55.9379885" lon="49.2709877"><time>2023-06-03T08:17:00.830</time></trkpt><trkpt lat="55.9380364" lon="49.2709939"><time>2023-06-03T08:17:01.837</time></trkpt><trkpt lat="55.9381184" lon="49.2710082"><time>2023-06-03T08:17:03.833</time></trkpt><trkpt lat="55.9382058" lon="49.2710363"><time>2023-06-03T08:17:05.837</time></trkpt><trkpt lat="55.9382506" lon="49.2710617"><time>2023-06-03T08:17:06.833</time></trkpt><trkpt lat="55.9383053" lon="49.2711138"><time>2023-06-03T08:17:08.850</time></trkpt><trkpt lat="55.9383632" lon="49.2711679"><time>2023-06-03T08:17:10.833</time></trkpt><trkpt lat="55.9384297" lon="49.2712170"><time>2023-06-03T08:17:12.837</time></trkpt><trkpt lat="55.9385037" lon="49.2712527"><time>2023-06-03T08:17:14.837</time></trkpt><trkpt lat="55.9385591" lon="49.2712702"><time>2023-06-03T08:17:16.837</time></trkpt><trkpt lat="55.9386096" lon="49.2712803"><time>2023-06-03T08:17:18.830</time></trkpt><trkpt lat="55.9386729" lon="49.2712979"><time>2023-06-03T08:17:20.860</time></trkpt><trkpt lat="55.9387496" lon="49.2713257"><time>2023-06-03T08:17:22.827</time></trkpt><trkpt lat="55.9388371" lon="49.2713553"><time>2023-06-03T08:17:24.827</time></trkpt><trkpt lat="55.9388836" lon="49.2713778"><time>2023-06-03T08:17:25.837</time></trkpt><trkpt lat="55.9389681" lon="49.2714146"><time>2023-06-03T08:17:27.830</time></trkpt><trkpt lat="55.9390422" lon="49.2714544"><time>2023-06-03T08:17:29.847</time></trkpt><trkpt lat="55.9391298" lon="49.2715085"><time>2023-06-03T08:17:31.827</time></trkpt><trkpt lat="55.9391781" lon="49.2715311"><time>2023-06-03T08:17:32.860</time></trkpt><trkpt lat="55.9392259" lon="49.2715528"><time>2023-06-03T08:17:33.833</time></trkpt><trkpt lat="55.9392719" lon="49.2715805"><time>2023-06-03T08:17:34.827</time></trkpt><trkpt lat="55.9393152" lon="49.2716139"><time>2023-06-03T08:17:35.830</time></trkpt><trkpt lat="55.9393901" lon="49.2716784"><time>2023-06-03T08:17:36.850</time></trkpt><trkpt lat="55.9394797" lon="49.2717201"><time>2023-06-03T08:17:38.837</time></trkpt><trkpt lat="55.9395244" lon="49.2717524"><time>2023-06-03T08:17:40.827</time></trkpt><trkpt lat="55.9395835" lon="49.2718049"><time>2023-06-03T08:17:42.837</time></trkpt><trkpt lat="55.9396416" lon="49.2718511"><time>2023-06-03T08:17:44.857</time></trkpt><trkpt lat="55.9396911" lon="49.2719000"><time>2023-06-03T08:17:46.830</time></trkpt><trkpt lat="55.9397395" lon="49.2719367"><time>2023-06-03T08:17:48.833</time></trkpt><trkpt lat="55.9398177" lon="49.2719930"><time>2023-06-03T08:17:50.850</time></trkpt><trkpt lat="55.9398592" lon="49.2720303"><time>2023-06-03T08:17:51.830</time></trkpt><trkpt lat="55.9399334" lon="49.2721103"><time>2023-06-03T08:17:53.837</time></trkpt><trkpt lat="55.9400004" lon="49.2721941"><time>2023-06-03T08:17:55.837</time></trkpt><trkpt lat="55.9400404" lon="49.2722417"><time>2023-06-03T08:17:56.873</time></trkpt><trkpt lat="55.9400839" lon="49.2722892"><time>2023-06-03T08:17:57.827</time></trkpt><trkpt lat="55.9401256" lon="49.2723291"><time>2023-06-03T08:17:58.827</time></trkpt><trkpt lat="55.9401933" lon="49.2723977"><time>2023-06-03T08:18:00.833</time></trkpt><trkpt lat="55.9402562" lon="49.2724771"><time>2023-06-03T08:18:02.847</time></trkpt><trkpt lat="55.9403174" lon="49.2725612"><time>2023-06-03T08:18:04.823</time></trkpt><trkpt lat="55.9403835" lon="49.2726482"><time>2023-06-03T08:18:06.833</time></trkpt><trkpt lat="55.9404584" lon="49.2727044"><time>2023-06-03T08:18:08.857</time></trkpt><trkpt lat="55.9405335" lon="49.2727742"><time>2023-06-03T08:18:10.837</time></trkpt><trkpt lat="55.9405956" lon="49.2728436"><time>2023-06-03T08:18:12.830</time></trkpt><trkpt lat="55.9406489" lon="49.2729372"><time>2023-06-03T08:18:14.850</time></trkpt><trkpt lat="55.9407055" lon="49.2730396"><time>2023-06-03T08:18:16.833</time></trkpt><trkpt lat="55.9407655" lon="49.2731224"><time>2023-06-03T08:18:18.827</time></trkpt><trkpt lat="55.9408184" lon="49.2731197"><time>2023-06-03T08:18:21.827</time></trkpt><trkpt lat="55.9408308" lon="49.2730093"><time>2023-06-03T08:18:24.843</time></trkpt><trkpt lat="55.9408227" lon="49.2729086"><time>2023-06-03T08:18:26.850</time></trkpt><trkpt lat="55.9408162" lon="49.2728028"><time>2023-06-03T08:18:28.830</time></trkpt><trkpt lat="55.9408102" lon="49.2726746"><time>2023-06-03T08:18:30.830</time></trkpt><trkpt lat="55.9407917" lon="49.2725441"><time>2023-06-03T08:18:32.857</time></trkpt><trkpt lat="55.9407503" lon="49.2724358"><time>2023-06-03T08:18:33.827</time></trkpt><trkpt lat="55.9407289" lon="49.2723581"><time>2023-06-03T08:18:34.823</time></trkpt><trkpt lat="55.9406842" lon="49.2722271"><time>2023-06-03T08:18:36.827</time></trkpt><trkpt lat="55.9406779" lon="49.2721353"><time>2023-06-03T08:18:37.830</time></trkpt><trkpt lat="55.9406812" lon="49.2720485"><time>2023-06-03T08:18:38.850</time></trkpt><trkpt lat="55.9406614" lon="49.2718949"><time>2023-06-03T08:18:40.820</time></trkpt><trkpt lat="55.9406541" lon="49.2717997"><time>2023-06-03T08:18:41.837</time></trkpt><trkpt lat="55.9406428" lon="49.2716664"><time>2023-06-03T08:18:43.823</time></trkpt><trkpt lat="55.9406235" lon="49.2715226"><time>2023-06-03T08:18:45.837</time></trkpt><trkpt lat="55.9406062" lon="49.2714255"><time>2023-06-03T08:18:46.817</time></trkpt><trkpt lat="55.9406266" lon="49.2713208"><time>2023-06-03T08:18:47.837</time></trkpt><trkpt lat="55.9406114" lon="49.2711753"><time>2023-06-03T08:18:49.820</time></trkpt><trkpt lat="55.9405943" lon="49.2710787"><time>2023-06-03T08:18:51.840</time></trkpt><trkpt lat="55.9405898" lon="49.2709505"><time>2023-06-03T08:18:53.827</time></trkpt><trkpt lat="55.9405730" lon="49.2708090"><time>2023-06-03T08:18:55.833</time></trkpt><trkpt lat="55.9405538" lon="49.2706999"><time>2023-06-03T08:18:57.830</time></trkpt><trkpt lat="55.9405440" lon="49.2706199"><time>2023-06-03T08:18:59.833</time></trkpt><trkpt lat="55.9405299" lon="49.2705148"><time>2023-06-03T08:19:02.843</time></trkpt><trkpt lat="55.9404914" lon="49.2704142"><time>2023-06-03T08:19:05.827</time></trkpt><trkpt lat="55.9404619" lon="49.2703354"><time>2023-06-03T08:19:07.833</time></trkpt><trkpt lat="55.9404513" lon="49.2702474"><time>2023-06-03T08:19:09.837</time></trkpt><trkpt lat="55.9404706" lon="49.2701374"><time>2023-06-03T08:19:11.833</time></trkpt><trkpt lat="55.9404972" lon="49.2700386"><time>2023-06-03T08:19:13.843</time></trkpt><trkpt lat="55.9405469" lon="49.2699455"><time>2023-06-03T08:19:15.843</time></trkpt><trkpt lat="55.9406092" lon="49.2698683"><time>2023-06-03T08:19:17.827</time></trkpt><trkpt lat="55.9406651" lon="49.2697618"><time>2023-06-03T08:19:19.833</time></trkpt><trkpt lat="55.9406963" lon="49.2696450"><time>2023-06-03T08:19:21.840</time></trkpt><trkpt lat="55.9407077" lon="49.2695196"><time>2023-06-03T08:19:23.847</time></trkpt><trkpt lat="55.9407134" lon="49.2693888"><time>2023-06-03T08:19:25.827</time></trkpt><trkpt lat="55.9407207" lon="49.2692629"><time>2023-06-03T08:19:27.823</time></trkpt><trkpt lat="55.9407360" lon="49.2691406"><time>2023-06-03T08:19:29.827</time></trkpt><trkpt lat="55.9407497" lon="49.2690135"><time>2023-06-03T08:19:31.840</time></trkpt><trkpt lat="55.9407418" lon="49.2688808"><time>2023-06-03T08:19:33.827</time></trkpt><trkpt lat="55.9407317" lon="49.2687333"><time>2023-06-03T08:19:35.827</time></trkpt><trkpt lat="55.9407397" lon="49.2686042"><time>2023-06-03T08:19:37.850</time></trkpt><trkpt lat="55.9407540" lon="49.2685029"><time>2023-06-03T08:19:39.837</time></trkpt><trkpt lat="55.9407543" lon="49.2683735"><time>2023-06-03T08:21:09.827</time></trkpt><trkpt lat="55.9407387" lon="49.2682638"><time>2023-06-03T08:21:11.840</time></trkpt><trkpt lat="55.9407272" lon="49.2681439"><time>2023-06-03T08:21:13.837</time></trkpt><trkpt lat="55.9407176" lon="49.2680301"><time>2023-06-03T08:21:15.833</time></trkpt><trkpt lat="55.9407210" lon="49.2679388"><time>2023-06-03T08:21:17.827</time></trkpt><trkpt lat="55.9407263" lon="49.2678579"><time>2023-06-03T08:21:19.833</time></trkpt><trkpt lat="55.9407423" lon="49.2677490"><time>2023-06-03T08:21:21.840</time></trkpt><trkpt lat="55.9407753" lon="49.2676174"><time>2023-06-03T08:21:23.833</time></trkpt><trkpt lat="55.9408101" lon="49.2675078"><time>2023-06-03T08:21:25.837</time></trkpt><trkpt lat="55.9408250" lon="49.2673878"><time>2023-06-03T08:21:27.827</time></trkpt><trkpt lat="55.9408214" lon="49.2672751"><time>2023-06-03T08:21:29.830</time></trkpt><trkpt lat="55.9408164" lon="49.2671849"><time>2023-06-03T08:21:31.823</time></trkpt><trkpt lat="55.9407950" lon="49.2670827"><time>2023-06-03T08:21:34.827</time></trkpt><trkpt lat="55.9407668" lon="49.2669919"><time>2023-06-03T08:21:36.823</time></trkpt><trkpt lat="55.9407447" lon="49.2668686"><time>2023-06-03T08:21:38.837</time></trkpt><trkpt lat="55.9407327" lon="49.2667595"><time>2023-06-03T08:21:40.833</time></trkpt><trkpt lat="55.9407257" lon="49.2666565"><time>2023-06-03T08:21:42.823</time></trkpt><trkpt lat="55.9407271" lon="49.2665546"><time>2023-06-03T08:21:44.853</time></trkpt><trkpt lat="55.9407408" lon="49.2664751"><time>2023-06-03T08:21:46.840</time></trkpt><trkpt lat="55.9407279" lon="49.2663489"><time>2023-06-03T08:21:49.830</time></trkpt><trkpt lat="55.9407187" lon="49.2662495"><time>2023-06-03T08:21:51.840</time></trkpt><trkpt lat="55.9407249" lon="49.2661545"><time>2023-06-03T08:21:53.827</time></trkpt><trkpt lat="55.9407416" lon="49.2660403"><time>2023-06-03T08:21:55.817</time></trkpt><trkpt lat="55.9407744" lon="49.2659171"><time>2023-06-03T08:21:57.833</time></trkpt><trkpt lat="55.9408033" lon="49.2657995"><time>2023-06-03T08:21:59.840</time></trkpt><trkpt lat="55.9408476" lon="49.2656554"><time>2023-06-03T08:22:01.840</time></trkpt><trkpt lat="55.9408703" lon="49.2655841"><time>2023-06-03T08:22:02.843</time></trkpt><trkpt lat="55.9409094" lon="49.2654562"><time>2023-06-03T08:22:04.830</time></trkpt><trkpt lat="55.9409412" lon="49.2653441"><time>2023-06-03T08:22:06.830</time></trkpt><trkpt lat="55.9409705" lon="49.2652211"><time>2023-06-03T08:22:08.857</time></trkpt><trkpt lat="55.9410075" lon="49.2650717"><time>2023-06-03T08:22:10.823</time></trkpt><trkpt lat="55.9410243" lon="49.2649938"><time>2023-06-03T08:22:11.830</time></trkpt><trkpt lat="55.9410476" lon="49.2648436"><time>2023-06-03T08:22:13.840</time></trkpt><trkpt lat="55.9410597" lon="49.2646983"><time>2023-06-03T08:22:15.853</time></trkpt><trkpt lat="55.9410571" lon="49.2645551"><time>2023-06-03T08:22:17.820</time></trkpt><trkpt lat="55.9410393" lon="49.2644616"><time>2023-06-03T08:22:18.830</time></trkpt><trkpt lat="55.9410511" lon="49.2643752"><time>2023-06-03T08:22:19.830</time></trkpt><trkpt lat="55.9410650" lon="49.2642927"><time>2023-06-03T08:22:20.860</time></trkpt><trkpt lat="55.9410854" lon="49.2642094"><time>2023-06-03T08:22:21.827</time></trkpt><trkpt lat="55.9411031" lon="49.2640711"><time>2023-06-03T08:22:23.830</time></trkpt><trkpt lat="55.9411139" lon="49.2639138"><time>2023-06-03T08:22:25.830</time></trkpt><trkpt lat="55.9411235" lon="49.2638206"><time>2023-06-03T08:22:26.857</time></trkpt><trkpt lat="55.9411507" lon="49.2636784"><time>2023-06-03T08:22:28.823</time></trkpt><trkpt lat="55.9411755" lon="49.2635964"><time>2023-06-03T08:22:29.833</time></trkpt><trkpt lat="55.9411890" lon="49.2635165"><time>2023-06-03T08:22:30.830</time></trkpt><trkpt lat="55.9412077" lon="49.2633811"><time>2023-06-03T08:22:32.857</time></trkpt><trkpt lat="55.9412237" lon="49.2632442"><time>2023-06-03T08:22:34.843</time></trkpt><trkpt lat="55.9412352" lon="49.2631269"><time>2023-06-03T08:22:36.827</time></trkpt><trkpt lat="55.9412562" lon="49.2630210"><time>2023-06-03T08:22:38.840</time></trkpt><trkpt lat="55.9412745" lon="49.2629103"><time>2023-06-03T08:22:40.830</time></trkpt><trkpt lat="55.9412961" lon="49.2627742"><time>2023-06-03T08:22:42.823</time></trkpt><trkpt lat="55.9413167" lon="49.2626421"><time>2023-06-03T08:22:44.863</time></trkpt><trkpt lat="55.9413454" lon="49.2625147"><time>2023-06-03T08:22:46.827</time></trkpt><trkpt lat="55.9413687" lon="49.2623893"><time>2023-06-03T08:22:48.827</time></trkpt><trkpt lat="55.9413755" lon="49.2622684"><time>2023-06-03T08:22:50.850</time></trkpt><trkpt lat="55.9413834" lon="49.2621505"><time>2023-06-03T08:22:52.823</time></trkpt><trkpt lat="55.9413964" lon="49.2620266"><time>2023-06-03T08:22:54.837</time></trkpt><trkpt lat="55.9414084" lon="49.2618997"><time>2023-06-03T08:22:56.860</time></trkpt><trkpt lat="55.9414244" lon="49.2617707"><time>2023-06-03T08:22:58.830</time></trkpt><trkpt lat="55.9414469" lon="49.2616410"><time>2023-06-03T08:23:00.837</time></trkpt><trkpt lat="55.9414729" lon="49.2615157"><time>2023-06-03T08:23:02.843</time></trkpt><trkpt lat="55.9415069" lon="49.2613903"><time>2023-06-03T08:23:04.827</time></trkpt><trkpt lat="55.9415559" lon="49.2612829"><time>2023-06-03T08:23:06.833</time></trkpt><trkpt lat="55.9416119" lon="49.2611703"><time>2023-06-03T08:23:08.853</time></trkpt><trkpt lat="55.9416574" lon="49.2610490"><time>2023-06-03T08:23:10.827</time></trkpt><trkpt lat="55.9416884" lon="49.2608986"><time>2023-06-03T08:23:12.827</time></trkpt><trkpt lat="55.9416992" lon="49.2608205"><time>2023-06-03T08:23:13.833</time></trkpt><trkpt lat="55.9417178" lon="49.2606743"><time>2023-06-03T08:23:15.830</time></trkpt><trkpt lat="55.9417438" lon="49.2605475"><time>2023-06-03T08:23:17.823</time></trkpt><trkpt lat="55.9417730" lon="49.2604183"><time>2023-06-03T08:23:19.837</time></trkpt><trkpt lat="55.9417982" lon="49.2602719"><time>2023-06-03T08:23:21.833</time></trkpt><trkpt lat="55.9418228" lon="49.2601350"><time>2023-06-03T08:23:23.827</time></trkpt><trkpt lat="55.9418529" lon="49.2600093"><time>2023-06-03T08:23:25.830</time></trkpt><trkpt lat="55.9418711" lon="49.2598972"><time>2023-06-03T08:23:27.833</time></trkpt><trkpt lat="55.9418694" lon="49.2597754"><time>2023-06-03T08:23:29.830</time></trkpt><trkpt lat="55.9418536" lon="49.2596436"><time>2023-06-03T08:23:31.827</time></trkpt><trkpt lat="55.9418294" lon="49.2595112"><time>2023-06-03T08:23:33.830</time></trkpt><trkpt lat="55.9417985" lon="49.2593861"><time>2023-06-03T08:23:35.833</time></trkpt><trkpt lat="55.9417705" lon="49.2592504"><time>2023-06-03T08:23:37.837</time></trkpt><trkpt lat="55.9417494" lon="49.2591035"><time>2023-06-03T08:23:39.833</time></trkpt><trkpt lat="55.9417228" lon="49.2589845"><time>2023-06-03T08:23:41.833</time></trkpt><trkpt lat="55.9416813" lon="49.2588798"><time>2023-06-03T08:23:43.837</time></trkpt><trkpt lat="55.9416394" lon="49.2587793"><time>2023-06-03T08:23:45.833</time></trkpt><trkpt lat="55.9416096" lon="49.2586627"><time>2023-06-03T08:23:47.837</time></trkpt><trkpt lat="55.9415967" lon="49.2585612"><time>2023-06-03T08:23:49.807</time></trkpt><trkpt lat="55.9415920" lon="49.2584696"><time>2023-06-03T08:23:51.833</time></trkpt><trkpt lat="55.9416034" lon="49.2583737"><time>2023-06-03T08:23:53.840</time></trkpt><trkpt lat="55.9416448" lon="49.2582938"><time>2023-06-03T08:23:55.830</time></trkpt><trkpt lat="55.9416961" lon="49.2582246"><time>2023-06-03T08:23:57.830</time></trkpt><trkpt lat="55.9417462" lon="49.2581559"><time>2023-06-03T08:23:59.823</time></trkpt><trkpt lat="55.9417993" lon="49.2580742"><time>2023-06-03T08:24:01.837</time></trkpt><trkpt lat="55.9418531" lon="49.2579932"><time>2023-06-03T08:24:03.830</time></trkpt><trkpt lat="55.9419095" lon="49.2579029"><time>2023-06-03T08:24:05.823</time></trkpt><trkpt lat="55.9419715" lon="49.2578082"><time>2023-06-03T08:24:07.833</time></trkpt><trkpt lat="55.9420371" lon="49.2577099"><time>2023-06-03T08:24:09.830</time></trkpt><trkpt lat="55.9421056" lon="49.2576200"><time>2023-06-03T08:24:11.847</time></trkpt><trkpt lat="55.9421747" lon="49.2575428"><time>2023-06-03T08:24:13.830</time></trkpt><trkpt lat="55.9422475" lon="49.2574779"><time>2023-06-03T08:24:15.827</time></trkpt><trkpt lat="55.9423252" lon="49.2574225"><time>2023-06-03T08:24:17.827</time></trkpt><trkpt lat="55.9424022" lon="49.2573763"><time>2023-06-03T08:24:19.827</time></trkpt><trkpt lat="55.9424753" lon="49.2573308"><time>2023-06-03T08:24:21.867</time></trkpt><trkpt lat="55.9425563" lon="49.2572948"><time>2023-06-03T08:24:23.833</time></trkpt><trkpt lat="55.9426278" lon="49.2572730"><time>2023-06-03T08:24:25.827</time></trkpt><trkpt lat="55.9426900" lon="49.2572563"><time>2023-06-03T08:24:27.837</time></trkpt><trkpt lat="55.9427416" lon="49.2572278"><time>2023-06-03T08:24:29.830</time></trkpt><trkpt lat="55.9427749" lon="49.2571304"><time>2023-06-03T08:24:31.837</time></trkpt><trkpt lat="55.9427734" lon="49.2569804"><time>2023-06-03T08:24:33.857</time></trkpt><trkpt lat="55.9427398" lon="49.2568408"><time>2023-06-03T08:24:35.837</time></trkpt><trkpt lat="55.9426890" lon="49.2567156"><time>2023-06-03T08:24:37.823</time></trkpt><trkpt lat="55.9426374" lon="49.2565849"><time>2023-06-03T08:24:39.853</time></trkpt><trkpt lat="55.9425774" lon="49.2564705"><time>2023-06-03T08:24:41.827</time></trkpt><trkpt lat="55.9425398" lon="49.2564260"><time>2023-06-03T08:24:42.837</time></trkpt><trkpt lat="55.9425002" lon="49.2563846"><time>2023-06-03T08:24:43.827</time></trkpt><trkpt lat="55.9424596" lon="49.2563423"><time>2023-06-03T08:24:44.827</time></trkpt><trkpt lat="55.9424190" lon="49.2563003"><time>2023-06-03T08:24:45.867</time></trkpt><trkpt lat="55.9423601" lon="49.2562772"><time>2023-06-03T08:24:46.817</time></trkpt><trkpt lat="55.9423190" lon="49.2562444"><time>2023-06-03T08:24:47.830</time></trkpt><trkpt lat="55.9422756" lon="49.2562134"><time>2023-06-03T08:24:48.813</time></trkpt><trkpt lat="55.9422035" lon="49.2561345"><time>2023-06-03T08:24:50.850</time></trkpt><trkpt lat="55.9421731" lon="49.2560669"><time>2023-06-03T08:24:51.843</time></trkpt><trkpt lat="55.9421408" lon="49.2560110"><time>2023-06-03T08:24:52.833</time></trkpt><trkpt lat="55.9420748" lon="49.2559177"><time>2023-06-03T08:24:54.827</time></trkpt><trkpt lat="55.9420137" lon="49.2558510"><time>2023-06-03T08:24:56.830</time></trkpt><trkpt lat="55.9419567" lon="49.2557566"><time>2023-06-03T08:24:58.827</time></trkpt><trkpt lat="55.9419015" lon="49.2556744"><time>2023-06-03T08:25:00.830</time></trkpt><trkpt lat="55.9418642" lon="49.2556081"><time>2023-06-03T08:25:02.827</time></trkpt><trkpt lat="55.9418191" lon="49.2555358"><time>2023-06-03T08:25:04.837</time></trkpt><trkpt lat="55.9417875" lon="49.2554542"><time>2023-06-03T08:25:06.833</time></trkpt><trkpt lat="55.9417616" lon="49.2553387"><time>2023-06-03T08:25:08.823</time></trkpt><trkpt lat="55.9417473" lon="49.2552095"><time>2023-06-03T08:25:10.830</time></trkpt><trkpt lat="55.9417501" lon="49.2550537"><time>2023-06-03T08:25:12.823</time></trkpt><trkpt lat="55.9417683" lon="49.2549018"><time>2023-06-03T08:25:14.827</time></trkpt><trkpt lat="55.9417883" lon="49.2547539"><time>2023-06-03T08:25:16.820</time></trkpt><trkpt lat="55.9418021" lon="49.2546191"><time>2023-06-03T08:25:18.830</time></trkpt><trkpt lat="55.9418102" lon="49.2544949"><time>2023-06-03T08:25:20.820</time></trkpt><trkpt lat="55.9418182" lon="49.2543647"><time>2023-06-03T08:25:22.827</time></trkpt><trkpt lat="55.9418228" lon="49.2542227"><time>2023-06-03T08:25:24.827</time></trkpt><trkpt lat="55.9418276" lon="49.2540794"><time>2023-06-03T08:25:26.830</time></trkpt><trkpt lat="55.9418314" lon="49.2539421"><time>2023-06-03T08:25:28.833</time></trkpt><trkpt lat="55.9418362" lon="49.2538049"><time>2023-06-03T08:25:30.830</time></trkpt><trkpt lat="55.9418455" lon="49.2536602"><time>2023-06-03T08:25:32.853</time></trkpt><trkpt lat="55.9418544" lon="49.2535227"><time>2023-06-03T08:25:34.827</time></trkpt><trkpt lat="55.9418580" lon="49.2533981"><time>2023-06-03T08:25:36.827</time></trkpt><trkpt lat="55.9418657" lon="49.2532564"><time>2023-06-03T08:25:38.847</time></trkpt><trkpt lat="55.9418715" lon="49.2531107"><time>2023-06-03T08:25:40.823</time></trkpt><trkpt lat="55.9418723" lon="49.2529612"><time>2023-06-03T08:25:42.827</time></trkpt><trkpt lat="55.9418581" lon="49.2528275"><time>2023-06-03T08:25:44.853</time></trkpt><trkpt lat="55.9418272" lon="49.2526910"><time>2023-06-03T08:25:46.823</time></trkpt><trkpt lat="55.9417724" lon="49.2525981"><time>2023-06-03T08:25:48.820</time></trkpt><trkpt lat="55.9417027" lon="49.2525377"><time>2023-06-03T08:25:50.837</time></trkpt><trkpt lat="55.9416278" lon="49.2524860"><time>2023-06-03T08:25:52.833</time></trkpt><trkpt lat="55.9415718" lon="49.2524393"><time>2023-06-03T08:25:54.837</time></trkpt><trkpt lat="55.9415566" lon="49.2523445"><time>2023-06-03T08:25:56.857</time></trkpt><trkpt lat="55.9415828" lon="49.2522175"><time>2023-06-03T08:25:58.850</time></trkpt><trkpt lat="55.9416155" lon="49.2520852"><time>2023-06-03T08:26:00.827</time></trkpt><trkpt lat="55.9416463" lon="49.2519519"><time>2023-06-03T08:26:02.847</time></trkpt><trkpt lat="55.9416730" lon="49.2518239"><time>2023-06-03T08:26:04.830</time></trkpt><trkpt lat="55.9416983" lon="49.2516978"><time>2023-06-03T08:26:06.830</time></trkpt><trkpt lat="55.9417203" lon="49.2515784"><time>2023-06-03T08:26:08.860</time></trkpt><trkpt lat="55.9417382" lon="49.2514690"><time>2023-06-03T08:26:10.827</time></trkpt><trkpt lat="55.9417539" lon="49.2513703"><time>2023-06-03T08:26:12.837</time></trkpt><trkpt lat="55.9417502" lon="49.2512548"><time>2023-06-03T08:26:14.837</time></trkpt><trkpt lat="55.9417325" lon="49.2511311"><time>2023-06-03T08:26:16.830</time></trkpt><trkpt lat="55.9417200" lon="49.2510076"><time>2023-06-03T08:26:18.833</time></trkpt><trkpt lat="55.9417127" lon="49.2508783"><time>2023-06-03T08:26:20.853</time></trkpt><trkpt lat="55.9416999" lon="49.2507575"><time>2023-06-03T08:26:22.833</time></trkpt><trkpt lat="55.9416828" lon="49.2506430"><time>2023-06-03T08:26:24.827</time></trkpt><trkpt lat="55.9416628" lon="49.2505154"><time>2023-06-03T08:26:26.850</time></trkpt><trkpt lat="55.9416434" lon="49.2503907"><time>2023-06-03T08:26:28.823</time></trkpt><trkpt lat="55.9416189" lon="49.2502713"><time>2023-06-03T08:26:30.827</time></trkpt><trkpt lat="55.9415928" lon="49.2501562"><time>2023-06-03T08:26:32.877</time></trkpt><trkpt lat="55.9415594" lon="49.2500505"><time>2023-06-03T08:26:34.833</time></trkpt><trkpt lat="55.9415230" lon="49.2499516"><time>2023-06-03T08:26:36.823</time></trkpt><trkpt lat="55.9414876" lon="49.2498638"><time>2023-06-03T08:26:38.843</time></trkpt><trkpt lat="55.9414477" lon="49.2497823"><time>2023-06-03T08:26:40.833</time></trkpt><trkpt lat="55.9413993" lon="49.2497025"><time>2023-06-03T08:26:42.837</time></trkpt><trkpt lat="55.9413435" lon="49.2496070"><time>2023-06-03T08:26:44.837</time></trkpt><trkpt lat="55.9412829" lon="49.2495045"><time>2023-06-03T08:26:46.817</time></trkpt><trkpt lat="55.9412318" lon="49.2494129"><time>2023-06-03T08:26:48.837</time></trkpt><trkpt lat="55.9411859" lon="49.2493326"><time>2023-06-03T08:26:50.823</time></trkpt><trkpt lat="55.9411361" lon="49.2492545"><time>2023-06-03T08:26:52.847</time></trkpt><trkpt lat="55.9410739" lon="49.2491666"><time>2023-06-03T08:26:54.827</time></trkpt><trkpt lat="55.9410108" lon="49.2490782"><time>2023-06-03T08:26:56.827</time></trkpt><trkpt lat="55.9409554" lon="49.2490224"><time>2023-06-03T08:26:58.853</time></trkpt><trkpt lat="55.9409121" lon="49.2489901"><time>2023-06-03T08:27:08.827</time></trkpt><trkpt lat="55.9408680" lon="49.2489582"><time>2023-06-03T08:27:10.877</time></trkpt><trkpt lat="55.9408173" lon="49.2489176"><time>2023-06-03T08:27:12.830</time></trkpt><trkpt lat="55.9407585" lon="49.2488649"><time>2023-06-03T08:27:14.827</time></trkpt><trkpt lat="55.9406978" lon="49.2488061"><time>2023-06-03T08:27:16.847</time></trkpt><trkpt lat="55.9406323" lon="49.2487412"><time>2023-06-03T08:27:18.820</time></trkpt><trkpt lat="55.9405654" lon="49.2486823"><time>2023-06-03T08:27:20.840</time></trkpt><trkpt lat="55.9404908" lon="49.2486183"><time>2023-06-03T08:27:22.860</time></trkpt><trkpt lat="55.9404120" lon="49.2485613"><time>2023-06-03T08:27:24.823</time></trkpt><trkpt lat="55.9403419" lon="49.2485203"><time>2023-06-03T08:27:26.820</time></trkpt><trkpt lat="55.9402759" lon="49.2484572"><time>2023-06-03T08:27:28.843</time></trkpt><trkpt lat="55.9402194" lon="49.2483820"><time>2023-06-03T08:27:30.840</time></trkpt><trkpt lat="55.9401730" lon="49.2483222"><time>2023-06-03T08:27:32.827</time></trkpt><trkpt lat="55.9401266" lon="49.2482643"><time>2023-06-03T08:27:34.847</time></trkpt><trkpt lat="55.9400791" lon="49.2482035"><time>2023-06-03T08:27:36.817</time></trkpt><trkpt lat="55.9400326" lon="49.2481439"><time>2023-06-03T08:27:38.827</time></trkpt><trkpt lat="55.9399901" lon="49.2480602"><time>2023-06-03T08:27:41.837</time></trkpt><trkpt lat="55.9400042" lon="49.2479717"><time>2023-06-03T08:27:45.827</time></trkpt><trkpt lat="55.9400500" lon="49.2478732"><time>2023-06-03T08:27:48.830</time></trkpt><trkpt lat="55.9400970" lon="49.2477861"><time>2023-06-03T08:27:50.827</time></trkpt><trkpt lat="55.9401420" lon="49.2476955"><time>2023-06-03T08:27:52.837</time></trkpt><trkpt lat="55.9401832" lon="49.2476029"><time>2023-06-03T08:27:54.827</time></trkpt><trkpt lat="55.9402235" lon="49.2475082"><time>2023-06-03T08:27:56.823</time></trkpt><trkpt lat="55.9402656" lon="49.2474152"><time>2023-06-03T08:27:58.857</time></trkpt><trkpt lat="55.9403095" lon="49.2473342"><time>2023-06-03T08:28:00.820</time></trkpt><trkpt lat="55.9403538" lon="49.2472714"><time>2023-06-03T08:28:02.823</time></trkpt><trkpt lat="55.9403974" lon="49.2472397"><time>2023-06-03T08:28:04.837</time></trkpt><trkpt lat="55.9404467" lon="49.2472031"><time>2023-06-03T08:28:06.827</time></trkpt><trkpt lat="55.9404974" lon="49.2471539"><time>2023-06-03T08:28:08.830</time></trkpt><trkpt lat="55.9405451" lon="49.2470856"><time>2023-06-03T08:28:10.867</time></trkpt><trkpt lat="55.9405865" lon="49.2470011"><time>2023-06-03T08:28:12.827</time></trkpt><trkpt lat="55.9406290" lon="49.2469145"><time>2023-06-03T08:28:14.823</time></trkpt><trkpt lat="55.9406742" lon="49.2468243"><time>2023-06-03T08:28:16.843</time></trkpt><trkpt lat="55.9407281" lon="49.2467381"><time>2023-06-03T08:28:18.827</time></trkpt><trkpt lat="55.9407866" lon="49.2466638"><time>2023-06-03T08:28:20.833</time></trkpt><trkpt lat="55.9408467" lon="49.2466007"><time>2023-06-03T08:28:22.867</time></trkpt><trkpt lat="55.9409160" lon="49.2465585"><time>2023-06-03T08:28:24.820</time></trkpt><trkpt lat="55.9409842" lon="49.2465301"><time>2023-06-03T08:28:26.830</time></trkpt><trkpt lat="55.9410528" lon="49.2464973"><time>2023-06-03T08:28:28.847</time></trkpt><trkpt lat="55.9411213" lon="49.2464382"><time>2023-06-03T08:28:30.827</time></trkpt><trkpt lat="55.9411905" lon="49.2463636"><time>2023-06-03T08:28:32.830</time></trkpt><trkpt lat="55.9412529" lon="49.2463075"><time>2023-06-03T08:28:34.853</time></trkpt><trkpt lat="55.9413096" lon="49.2462694"><time>2023-06-03T08:28:36.830</time></trkpt><trkpt lat="55.9413662" lon="49.2462273"><time>2023-06-03T08:28:38.837</time></trkpt><trkpt lat="55.9414183" lon="49.2461774"><time>2023-06-03T08:28:40.857</time></trkpt><trkpt lat="55.9414401" lon="49.2461493"><time>2023-06-03T08:28:41.837</time></trkpt><trkpt lat="55.9414651" lon="49.2460784"><time>2023-06-03T08:28:43.830</time></trkpt><trkpt lat="55.9414903" lon="49.2459970"><time>2023-06-03T08:28:45.827</time></trkpt><trkpt lat="55.9415185" lon="49.2459153"><time>2023-06-03T08:28:47.837</time></trkpt><trkpt lat="55.9415574" lon="49.2458219"><time>2023-06-03T08:28:49.827</time></trkpt><trkpt lat="55.9416065" lon="49.2457454"><time>2023-06-03T08:28:51.820</time></trkpt><trkpt lat="55.9416580" lon="49.2457034"><time>2023-06-03T08:28:53.830</time></trkpt><trkpt lat="55.9417133" lon="49.2456679"><time>2023-06-03T08:28:55.820</time></trkpt><trkpt lat="55.9417665" lon="49.2456206"><time>2023-06-03T08:28:57.833</time></trkpt><trkpt lat="55.9418280" lon="49.2455983"><time>2023-06-03T08:29:00.827</time></trkpt><trkpt lat="55.9418679" lon="49.2456472"><time>2023-06-03T08:29:02.827</time></trkpt><trkpt lat="55.9419022" lon="49.2457392"><time>2023-06-03T08:29:04.843</time></trkpt><trkpt lat="55.9419274" lon="49.2458239"><time>2023-06-03T08:29:06.823</time></trkpt><trkpt lat="55.9419786" lon="49.2458884"><time>2023-06-03T08:29:09.833</time></trkpt><trkpt lat="55.9420241" lon="49.2459060"><time>2023-06-03T08:29:11.843</time></trkpt><trkpt lat="55.9420696" lon="49.2459469"><time>2023-06-03T08:29:13.840</time></trkpt><trkpt lat="55.9421193" lon="49.2460093"><time>2023-06-03T08:29:16.860</time></trkpt><trkpt lat="55.9421793" lon="49.2460454"><time>2023-06-03T08:29:18.833</time></trkpt><trkpt lat="55.9422528" lon="49.2460734"><time>2023-06-03T08:29:20.827</time></trkpt><trkpt lat="55.9423266" lon="49.2460830"><time>2023-06-03T08:29:22.867</time></trkpt><trkpt lat="55.9423641" lon="49.2460863"><time>2023-06-03T08:29:23.830</time></trkpt><trkpt lat="55.9424391" lon="49.2460900"><time>2023-06-03T08:29:25.830</time></trkpt><trkpt lat="55.9425193" lon="49.2460966"><time>2023-06-03T08:29:28.350</time></trkpt><trkpt lat="55.9425911" lon="49.2461211"><time>2023-06-03T08:29:29.817</time></trkpt><trkpt lat="55.9426530" lon="49.2461563"><time>2023-06-03T08:29:31.827</time></trkpt><trkpt lat="55.9427112" lon="49.2461987"><time>2023-06-03T08:29:33.837</time></trkpt><trkpt lat="55.9427671" lon="49.2462286"><time>2023-06-03T08:29:35.863</time></trkpt><trkpt lat="55.9427951" lon="49.2462353"><time>2023-06-03T08:29:36.843</time></trkpt><trkpt lat="55.9428477" lon="49.2462382"><time>2023-06-03T08:29:38.870</time></trkpt><trkpt lat="55.9428993" lon="49.2462364"><time>2023-06-03T08:29:40.827</time></trkpt><trkpt lat="55.9429541" lon="49.2462486"><time>2023-06-03T08:29:42.830</time></trkpt><trkpt lat="55.9430010" lon="49.2462789"><time>2023-06-03T08:29:44.830</time></trkpt><trkpt lat="55.9430419" lon="49.2463220"><time>2023-06-03T08:29:47.840</time></trkpt><trkpt lat="55.9430419" lon="49.2463220"><time>2023-06-03T08:29:47.907</time></trkpt><trkpt lat="55.9430257" lon="49.2462395"><time>2023-06-03T08:30:14.843</time></trkpt><trkpt lat="55.9430095" lon="49.2462206"><time>2023-06-03T08:30:15.840</time></trkpt><trkpt lat="55.9429467" lon="49.2461736"><time>2023-06-03T08:30:18.857</time></trkpt><trkpt lat="55.9428951" lon="49.2461770"><time>2023-06-03T08:30:20.830</time></trkpt><trkpt lat="55.9428402" lon="49.2461924"><time>2023-06-03T08:30:22.827</time></trkpt><trkpt lat="55.9427849" lon="49.2462010"><time>2023-06-03T08:30:24.850</time></trkpt><trkpt lat="55.9427324" lon="49.2461957"><time>2023-06-03T08:30:26.823</time></trkpt><trkpt lat="55.9426721" lon="49.2461682"><time>2023-06-03T08:30:28.827</time></trkpt><trkpt lat="55.9426166" lon="49.2461169"><time>2023-06-03T08:30:30.860</time></trkpt><trkpt lat="55.9425612" lon="49.2460713"><time>2023-06-03T08:30:32.867</time></trkpt><trkpt lat="55.9424958" lon="49.2460399"><time>2023-06-03T08:30:34.837</time></trkpt><trkpt lat="55.9424340" lon="49.2460303"><time>2023-06-03T08:30:36.843</time></trkpt><trkpt lat="55.9423691" lon="49.2460271"><time>2023-06-03T08:30:38.830</time></trkpt><trkpt lat="55.9422991" lon="49.2460208"><time>2023-06-03T08:30:40.837</time></trkpt><trkpt lat="55.9422372" lon="49.2460181"><time>2023-06-03T08:30:42.860</time></trkpt><trkpt lat="55.9421743" lon="49.2459966"><time>2023-06-03T08:30:44.833</time></trkpt><trkpt lat="55.9421060" lon="49.2459615"><time>2023-06-03T08:30:46.820</time></trkpt><trkpt lat="55.9420553" lon="49.2459401"><time>2023-06-03T08:30:48.837</time></trkpt><trkpt lat="55.9420077" lon="49.2459324"><time>2023-06-03T08:30:50.820</time></trkpt><trkpt lat="55.9419617" lon="49.2459476"><time>2023-06-03T08:30:52.827</time></trkpt><trkpt lat="55.9418988" lon="49.2458700"><time>2023-06-03T08:30:55.843</time></trkpt><trkpt lat="55.9418634" lon="49.2457399"><time>2023-06-03T08:30:57.827</time></trkpt><trkpt lat="55.9418199" lon="49.2456542"><time>2023-06-03T08:30:59.827</time></trkpt><trkpt lat="55.9417654" lon="49.2456338"><time>2023-06-03T08:31:01.833</time></trkpt><trkpt lat="55.9417184" lon="49.2456823"><time>2023-06-03T08:31:03.827</time></trkpt><trkpt lat="55.9416689" lon="49.2457418"><time>2023-06-03T08:31:05.833</time></trkpt><trkpt lat="55.9416126" lon="49.2458035"><time>2023-06-03T08:31:07.843</time></trkpt><trkpt lat="55.9415543" lon="49.2458804"><time>2023-06-03T08:31:09.840</time></trkpt><trkpt lat="55.9415035" lon="49.2459742"><time>2023-06-03T08:31:11.843</time></trkpt><trkpt lat="55.9414753" lon="49.2460569"><time>2023-06-03T08:31:13.827</time></trkpt><trkpt lat="55.9414414" lon="49.2461297"><time>2023-06-03T08:31:15.827</time></trkpt><trkpt lat="55.9413821" lon="49.2461996"><time>2023-06-03T08:31:17.830</time></trkpt><trkpt lat="55.9413093" lon="49.2462653"><time>2023-06-03T08:31:19.837</time></trkpt><trkpt lat="55.9412378" lon="49.2463167"><time>2023-06-03T08:31:21.833</time></trkpt><trkpt lat="55.9411672" lon="49.2463718"><time>2023-06-03T08:31:23.837</time></trkpt><trkpt lat="55.9410981" lon="49.2464449"><time>2023-06-03T08:31:25.827</time></trkpt><trkpt lat="55.9410320" lon="49.2465197"><time>2023-06-03T08:31:27.833</time></trkpt><trkpt lat="55.9409626" lon="49.2465737"><time>2023-06-03T08:31:29.810</time></trkpt><trkpt lat="55.9408849" lon="49.2466159"><time>2023-06-03T08:31:31.833</time></trkpt><trkpt lat="55.9408124" lon="49.2466568"><time>2023-06-03T08:31:33.833</time></trkpt><trkpt lat="55.9407414" lon="49.2467200"><time>2023-06-03T08:31:35.830</time></trkpt><trkpt lat="55.9406769" lon="49.2468071"><time>2023-06-03T08:31:37.833</time></trkpt><trkpt lat="55.9406155" lon="49.2469088"><time>2023-06-03T08:31:39.830</time></trkpt><trkpt lat="55.9405555" lon="49.2470170"><time>2023-06-03T08:31:41.833</time></trkpt><trkpt lat="55.9404979" lon="49.2471209"><time>2023-06-03T08:31:43.823</time></trkpt><trkpt lat="55.9404461" lon="49.2472105"><time>2023-06-03T08:31:45.837</time></trkpt><trkpt lat="55.9403915" lon="49.2472819"><time>2023-06-03T08:31:47.827</time></trkpt><trkpt lat="55.9403489" lon="49.2473255"><time>2023-06-03T08:31:49.817</time></trkpt><trkpt lat="55.9403051" lon="49.2473663"><time>2023-06-03T08:31:51.830</time></trkpt><trkpt lat="55.9402502" lon="49.2474362"><time>2023-06-03T08:31:53.837</time></trkpt><trkpt lat="55.9402015" lon="49.2475347"><time>2023-06-03T08:31:55.833</time></trkpt><trkpt lat="55.9401600" lon="49.2476381"><time>2023-06-03T08:31:57.833</time></trkpt><trkpt lat="55.9401248" lon="49.2477322"><time>2023-06-03T08:31:59.857</time></trkpt><trkpt lat="55.9400971" lon="49.2478068"><time>2023-06-03T08:32:01.823</time></trkpt><trkpt lat="55.9400673" lon="49.2478812"><time>2023-06-03T08:32:03.827</time></trkpt><trkpt lat="55.9400283" lon="49.2479682"><time>2023-06-03T08:32:06.820</time></trkpt><trkpt lat="55.9399878" lon="49.2480295"><time>2023-06-03T08:32:09.823</time></trkpt><trkpt lat="55.9399307" lon="49.2480123"><time>2023-06-03T08:32:12.817</time></trkpt><trkpt lat="55.9398976" lon="49.2479428"><time>2023-06-03T08:32:14.823</time></trkpt><trkpt lat="55.9398433" lon="49.2478630"><time>2023-06-03T08:32:17.867</time></trkpt><trkpt lat="55.9397913" lon="49.2477842"><time>2023-06-03T08:32:19.830</time></trkpt><trkpt lat="55.9397418" lon="49.2477070"><time>2023-06-03T08:32:21.833</time></trkpt><trkpt lat="55.9396926" lon="49.2476316"><time>2023-06-03T08:32:23.857</time></trkpt><trkpt lat="55.9396480" lon="49.2475648"><time>2023-06-03T08:32:25.830</time></trkpt><trkpt lat="55.9396065" lon="49.2475137"><time>2023-06-03T08:32:27.833</time></trkpt><trkpt lat="55.9395658" lon="49.2474606"><time>2023-06-03T08:32:29.863</time></trkpt><trkpt lat="55.9395245" lon="49.2474050"><time>2023-06-03T08:32:31.827</time></trkpt><trkpt lat="55.9394801" lon="49.2473610"><time>2023-06-03T08:32:36.420</time></trkpt><trkpt lat="55.9394287" lon="49.2473155"><time>2023-06-03T08:32:36.813</time></trkpt><trkpt lat="55.9393867" lon="49.2472741"><time>2023-06-03T08:32:38.813</time></trkpt><trkpt lat="55.9393382" lon="49.2472309"><time>2023-06-03T08:32:40.820</time></trkpt><trkpt lat="55.9392827" lon="49.2471897"><time>2023-06-03T08:32:42.817</time></trkpt><trkpt lat="55.9392332" lon="49.2471701"><time>2023-06-03T08:32:44.820</time></trkpt><trkpt lat="55.9391843" lon="49.2471683"><time>2023-06-03T08:32:46.800</time></trkpt><trkpt lat="55.9391355" lon="49.2471628"><time>2023-06-03T08:32:48.837</time></trkpt><trkpt lat="55.9390872" lon="49.2471519"><time>2023-06-03T08:32:50.823</time></trkpt><trkpt lat="55.9390413" lon="49.2471496"><time>2023-06-03T08:32:52.827</time></trkpt><trkpt lat="55.9389957" lon="49.2471479"><time>2023-06-03T08:32:54.847</time></trkpt><trkpt lat="55.9389493" lon="49.2471476"><time>2023-06-03T08:32:56.820</time></trkpt><trkpt lat="55.9388962" lon="49.2471422"><time>2023-06-03T08:32:58.820</time></trkpt><trkpt lat="55.9388340" lon="49.2471434"><time>2023-06-03T08:33:00.843</time></trkpt><trkpt lat="55.9387668" lon="49.2471532"><time>2023-06-03T08:33:02.847</time></trkpt><trkpt lat="55.9386986" lon="49.2471531"><time>2023-06-03T08:33:04.837</time></trkpt><trkpt lat="55.9386354" lon="49.2471559"><time>2023-06-03T08:33:06.860</time></trkpt><trkpt lat="55.9385728" lon="49.2471623"><time>2023-06-03T08:33:08.823</time></trkpt><trkpt lat="55.9385074" lon="49.2471642"><time>2023-06-03T08:33:10.823</time></trkpt><trkpt lat="55.9384390" lon="49.2471585"><time>2023-06-03T08:33:12.840</time></trkpt><trkpt lat="55.9383672" lon="49.2471590"><time>2023-06-03T08:33:14.830</time></trkpt><trkpt lat="55.9382948" lon="49.2471645"><time>2023-06-03T08:33:16.820</time></trkpt><trkpt lat="55.9382262" lon="49.2471658"><time>2023-06-03T08:33:18.860</time></trkpt><trkpt lat="55.9381598" lon="49.2471632"><time>2023-06-03T08:33:20.823</time></trkpt><trkpt lat="55.9380982" lon="49.2471658"><time>2023-06-03T08:33:22.823</time></trkpt><trkpt lat="55.9380407" lon="49.2471761"><time>2023-06-03T08:33:24.837</time></trkpt><trkpt lat="55.9379862" lon="49.2471832"><time>2023-06-03T08:33:26.820</time></trkpt><trkpt lat="55.9379336" lon="49.2471778"><time>2023-06-03T08:33:29.833</time></trkpt><trkpt lat="55.9378834" lon="49.2471673"><time>2023-06-03T08:33:33.823</time></trkpt><trkpt lat="55.9379216" lon="49.2472537"><time>2023-06-03T08:33:37.830</time></trkpt><trkpt lat="55.9379991" lon="49.2472441"><time>2023-06-03T08:33:39.830</time></trkpt><trkpt lat="55.9380802" lon="49.2472380"><time>2023-06-03T08:33:41.830</time></trkpt><trkpt lat="55.9381253" lon="49.2472379"><time>2023-06-03T08:33:42.853</time></trkpt><trkpt lat="55.9382078" lon="49.2472371"><time>2023-06-03T08:33:44.827</time></trkpt><trkpt lat="55.9382935" lon="49.2472326"><time>2023-06-03T08:33:46.830</time></trkpt><trkpt lat="55.9383831" lon="49.2472190"><time>2023-06-03T08:33:48.830</time></trkpt><trkpt lat="55.9384297" lon="49.2472143"><time>2023-06-03T08:33:49.833</time></trkpt><trkpt lat="55.9384746" lon="49.2472141"><time>2023-06-03T08:33:50.823</time></trkpt><trkpt lat="55.9385606" lon="49.2472199"><time>2023-06-03T08:33:52.830</time></trkpt><trkpt lat="55.9386498" lon="49.2472250"><time>2023-06-03T08:33:54.833</time></trkpt><trkpt lat="55.9387331" lon="49.2472253"><time>2023-06-03T08:33:56.827</time></trkpt><trkpt lat="55.9388092" lon="49.2472285"><time>2023-06-03T08:33:58.820</time></trkpt><trkpt lat="55.9388803" lon="49.2472167"><time>2023-06-03T08:34:00.820</time></trkpt><trkpt lat="55.9389580" lon="49.2472069"><time>2023-06-03T08:34:02.820</time></trkpt><trkpt lat="55.9390390" lon="49.2472036"><time>2023-06-03T08:34:04.830</time></trkpt><trkpt lat="55.9391224" lon="49.2472078"><time>2023-06-03T08:34:06.823</time></trkpt><trkpt lat="55.9392044" lon="49.2472238"><time>2023-06-03T08:34:08.830</time></trkpt><trkpt lat="55.9392824" lon="49.2472448"><time>2023-06-03T08:34:10.827</time></trkpt><trkpt lat="55.9393642" lon="49.2472761"><time>2023-06-03T08:34:12.827</time></trkpt><trkpt lat="55.9394348" lon="49.2473152"><time>2023-06-03T08:34:14.827</time></trkpt><trkpt lat="55.9395032" lon="49.2473746"><time>2023-06-03T08:34:16.810</time></trkpt><trkpt lat="55.9395708" lon="49.2474521"><time>2023-06-03T08:34:18.820</time></trkpt><trkpt lat="55.9396403" lon="49.2475371"><time>2023-06-03T08:34:20.827</time></trkpt><trkpt lat="55.9397095" lon="49.2476277"><time>2023-06-03T08:34:22.830</time></trkpt><trkpt lat="55.9397734" lon="49.2477228"><time>2023-06-03T08:34:24.823</time></trkpt><trkpt lat="55.9398349" lon="49.2478149"><time>2023-06-03T08:34:26.823</time></trkpt><trkpt lat="55.9398947" lon="49.2479076"><time>2023-06-03T08:34:28.820</time></trkpt><trkpt lat="55.9399516" lon="49.2479928"><time>2023-06-03T08:34:30.843</time></trkpt><trkpt lat="55.9400122" lon="49.2480277"><time>2023-06-03T08:34:32.837</time></trkpt><trkpt lat="55.9400706" lon="49.2479739"><time>2023-06-03T08:34:34.840</time></trkpt><trkpt lat="55.9401093" lon="49.2478501"><time>2023-06-03T08:34:36.823</time></trkpt><trkpt lat="55.9401510" lon="49.2477149"><time>2023-06-03T08:34:38.817</time></trkpt><trkpt lat="55.9401961" lon="49.2475851"><time>2023-06-03T08:34:40.860</time></trkpt><trkpt lat="55.9402454" lon="49.2474479"><time>2023-06-03T08:34:42.820</time></trkpt><trkpt lat="55.9402765" lon="49.2473776"><time>2023-06-03T08:34:43.837</time></trkpt><trkpt lat="55.9403033" lon="49.2472362"><time>2023-06-03T08:34:45.833</time></trkpt><trkpt lat="55.9403024" lon="49.2471556"><time>2023-06-03T08:34:46.843</time></trkpt><trkpt lat="55.9402626" lon="49.2470399"><time>2023-06-03T08:34:48.827</time></trkpt><trkpt lat="55.9402120" lon="49.2469599"><time>2023-06-03T08:34:50.820</time></trkpt><trkpt lat="55.9401422" lon="49.2468771"><time>2023-06-03T08:34:52.853</time></trkpt><trkpt lat="55.9400746" lon="49.2467923"><time>2023-06-03T08:34:54.817</time></trkpt><trkpt lat="55.9400137" lon="49.2466962"><time>2023-06-03T08:34:56.827</time></trkpt><trkpt lat="55.9399605" lon="49.2465710"><time>2023-06-03T08:34:58.843</time></trkpt><trkpt lat="55.9399107" lon="49.2464577"><time>2023-06-03T08:35:00.820</time></trkpt><trkpt lat="55.9398579" lon="49.2463532"><time>2023-06-03T08:35:02.817</time></trkpt><trkpt lat="55.9397990" lon="49.2462610"><time>2023-06-03T08:35:04.863</time></trkpt><trkpt lat="55.9397389" lon="49.2461712"><time>2023-06-03T08:35:06.823</time></trkpt><trkpt lat="55.9396743" lon="49.2460792"><time>2023-06-03T08:35:08.820</time></trkpt><trkpt lat="55.9396121" lon="49.2459982"><time>2023-06-03T08:35:10.837</time></trkpt><trkpt lat="55.9395453" lon="49.2459215"><time>2023-06-03T08:35:12.833</time></trkpt><trkpt lat="55.9394765" lon="49.2458443"><time>2023-06-03T08:35:14.820</time></trkpt><trkpt lat="55.9394073" lon="49.2457688"><time>2023-06-03T08:35:16.850</time></trkpt><trkpt lat="55.9393376" lon="49.2456796"><time>2023-06-03T08:35:18.827</time></trkpt><trkpt lat="55.9392750" lon="49.2455871"><time>2023-06-03T08:35:20.817</time></trkpt><trkpt lat="55.9392170" lon="49.2454780"><time>2023-06-03T08:35:22.847</time></trkpt><trkpt lat="55.9391599" lon="49.2453651"><time>2023-06-03T08:35:24.817</time></trkpt><trkpt lat="55.9390993" lon="49.2452629"><time>2023-06-03T08:35:26.813</time></trkpt><trkpt lat="55.9390379" lon="49.2451612"><time>2023-06-03T08:35:28.853</time></trkpt><trkpt lat="55.9389835" lon="49.2450632"><time>2023-06-03T08:35:30.820</time></trkpt><trkpt lat="55.9389257" lon="49.2449601"><time>2023-06-03T08:35:32.817</time></trkpt><trkpt lat="55.9388950" lon="49.2448963"><time>2023-06-03T08:35:33.843</time></trkpt><trkpt lat="55.9388347" lon="49.2448106"><time>2023-06-03T08:35:35.840</time></trkpt><trkpt lat="55.9387702" lon="49.2447026"><time>2023-06-03T08:35:37.820</time></trkpt><trkpt lat="55.9387023" lon="49.2445915"><time>2023-06-03T08:35:39.837</time></trkpt><trkpt lat="55.9386410" lon="49.2444812"><time>2023-06-03T08:35:41.827</time></trkpt><trkpt lat="55.9386102" lon="49.2444189"><time>2023-06-03T08:35:42.820</time></trkpt><trkpt lat="55.9385529" lon="49.2442996"><time>2023-06-03T08:35:44.810</time></trkpt><trkpt lat="55.9385047" lon="49.2441714"><time>2023-06-03T08:35:46.837</time></trkpt><trkpt lat="55.9384674" lon="49.2440534"><time>2023-06-03T08:35:48.837</time></trkpt><trkpt lat="55.9384213" lon="49.2439271"><time>2023-06-03T08:35:50.823</time></trkpt><trkpt lat="55.9383897" lon="49.2437883"><time>2023-06-03T08:35:52.850</time></trkpt><trkpt lat="55.9383835" lon="49.2437078"><time>2023-06-03T08:35:53.827</time></trkpt><trkpt lat="55.9383801" lon="49.2435599"><time>2023-06-03T08:35:55.837</time></trkpt><trkpt lat="55.9383767" lon="49.2434206"><time>2023-06-03T08:35:57.833</time></trkpt><trkpt lat="55.9383797" lon="49.2432819"><time>2023-06-03T08:35:59.833</time></trkpt><trkpt lat="55.9383848" lon="49.2431473"><time>2023-06-03T08:36:01.810</time></trkpt><trkpt lat="55.9383923" lon="49.2430063"><time>2023-06-03T08:36:03.833</time></trkpt><trkpt lat="55.9384047" lon="49.2428552"><time>2023-06-03T08:36:05.830</time></trkpt><trkpt lat="55.9384177" lon="49.2427033"><time>2023-06-03T08:36:07.840</time></trkpt><trkpt lat="55.9384211" lon="49.2425583"><time>2023-06-03T08:36:09.833</time></trkpt><trkpt lat="55.9384192" lon="49.2424114"><time>2023-06-03T08:36:11.843</time></trkpt><trkpt lat="55.9384191" lon="49.2422607"><time>2023-06-03T08:36:13.843</time></trkpt><trkpt lat="55.9384182" lon="49.2421038"><time>2023-06-03T08:36:15.820</time></trkpt><trkpt lat="55.9384155" lon="49.2420228"><time>2023-06-03T08:36:16.843</time></trkpt><trkpt lat="55.9384068" lon="49.2418708"><time>2023-06-03T08:36:18.820</time></trkpt><trkpt lat="55.9383961" lon="49.2417374"><time>2023-06-03T08:36:20.820</time></trkpt><trkpt lat="55.9383850" lon="49.2415933"><time>2023-06-03T08:36:22.830</time></trkpt><trkpt lat="55.9383685" lon="49.2414446"><time>2023-06-03T08:36:24.840</time></trkpt><trkpt lat="55.9383596" lon="49.2412900"><time>2023-06-03T08:36:26.827</time></trkpt><trkpt lat="55.9383527" lon="49.2412069"><time>2023-06-03T08:36:27.833</time></trkpt><trkpt lat="55.9383295" lon="49.2410403"><time>2023-06-03T08:36:29.827</time></trkpt><trkpt lat="55.9383193" lon="49.2409146"><time>2023-06-03T08:36:31.843</time></trkpt><trkpt lat="55.9383097" lon="49.2407789"><time>2023-06-03T08:36:33.833</time></trkpt><trkpt lat="55.9382936" lon="49.2406600"><time>2023-06-03T08:36:35.827</time></trkpt><trkpt lat="55.9382765" lon="49.2405135"><time>2023-06-03T08:36:37.840</time></trkpt><trkpt lat="55.9382618" lon="49.2403757"><time>2023-06-03T08:36:39.830</time></trkpt><trkpt lat="55.9382405" lon="49.2402260"><time>2023-06-03T08:36:41.837</time></trkpt><trkpt lat="55.9382297" lon="49.2401481"><time>2023-06-03T08:36:42.823</time></trkpt><trkpt lat="55.9382143" lon="49.2400693"><time>2023-06-03T08:36:43.823</time></trkpt><trkpt lat="55.9382077" lon="49.2399815"><time>2023-06-03T08:36:44.827</time></trkpt><trkpt lat="55.9382029" lon="49.2398999"><time>2023-06-03T08:36:45.833</time></trkpt><trkpt lat="55.9382054" lon="49.2397410"><time>2023-06-03T08:36:47.827</time></trkpt><trkpt lat="55.9382000" lon="49.2395932"><time>2023-06-03T08:36:49.840</time></trkpt><trkpt lat="55.9381799" lon="49.2394723"><time>2023-06-03T08:36:51.833</time></trkpt><trkpt lat="55.9381753" lon="49.2393252"><time>2023-06-03T08:36:53.827</time></trkpt><trkpt lat="55.9381676" lon="49.2391628"><time>2023-06-03T08:36:55.827</time></trkpt><trkpt lat="55.9381526" lon="49.2390238"><time>2023-06-03T08:36:57.843</time></trkpt><trkpt lat="55.9381355" lon="49.2388863"><time>2023-06-03T08:36:59.823</time></trkpt><trkpt lat="55.9381239" lon="49.2387565"><time>2023-06-03T08:37:01.817</time></trkpt><trkpt lat="55.9381108" lon="49.2386220"><time>2023-06-03T08:37:03.833</time></trkpt><trkpt lat="55.9380976" lon="49.2384825"><time>2023-06-03T08:37:05.820</time></trkpt><trkpt lat="55.9380849" lon="49.2383388"><time>2023-06-03T08:37:07.833</time></trkpt><trkpt lat="55.9380721" lon="49.2382009"><time>2023-06-03T08:37:09.817</time></trkpt><trkpt lat="55.9380635" lon="49.2380597"><time>2023-06-03T08:37:11.837</time></trkpt><trkpt lat="55.9380562" lon="49.2379155"><time>2023-06-03T08:37:13.833</time></trkpt><trkpt lat="55.9380530" lon="49.2377691"><time>2023-06-03T08:37:15.827</time></trkpt><trkpt lat="55.9380551" lon="49.2376889"><time>2023-06-03T08:37:16.863</time></trkpt><trkpt lat="55.9380583" lon="49.2376069"><time>2023-06-03T08:37:17.817</time></trkpt><trkpt lat="55.9380596" lon="49.2374481"><time>2023-06-03T08:37:19.830</time></trkpt><trkpt lat="55.9380578" lon="49.2372946"><time>2023-06-03T08:37:21.827</time></trkpt><trkpt lat="55.9380521" lon="49.2371429"><time>2023-06-03T08:37:23.823</time></trkpt><trkpt lat="55.9380439" lon="49.2369962"><time>2023-06-03T08:37:25.843</time></trkpt><trkpt lat="55.9380283" lon="49.2368493"><time>2023-06-03T08:37:27.817</time></trkpt><trkpt lat="55.9380108" lon="49.2367059"><time>2023-06-03T08:37:29.820</time></trkpt><trkpt lat="55.9379951" lon="49.2365535"><time>2023-06-03T08:37:31.833</time></trkpt><trkpt lat="55.9379720" lon="49.2364107"><time>2023-06-03T08:37:33.837</time></trkpt><trkpt lat="55.9379510" lon="49.2362782"><time>2023-06-03T08:37:35.827</time></trkpt><trkpt lat="55.9379360" lon="49.2361476"><time>2023-06-03T08:37:37.830</time></trkpt><trkpt lat="55.9379209" lon="49.2360148"><time>2023-06-03T08:37:39.823</time></trkpt><trkpt lat="55.9379177" lon="49.2358716"><time>2023-06-03T08:37:41.833</time></trkpt><trkpt lat="55.9379193" lon="49.2357343"><time>2023-06-03T08:37:43.830</time></trkpt><trkpt lat="55.9379317" lon="49.2355981"><time>2023-06-03T08:37:45.813</time></trkpt><trkpt lat="55.9379573" lon="49.2354588"><time>2023-06-03T08:37:47.843</time></trkpt><trkpt lat="55.9379890" lon="49.2353381"><time>2023-06-03T08:37:49.810</time></trkpt><trkpt lat="55.9380388" lon="49.2352282"><time>2023-06-03T08:37:51.837</time></trkpt><trkpt lat="55.9381001" lon="49.2351361"><time>2023-06-03T08:37:53.817</time></trkpt><trkpt lat="55.9381707" lon="49.2350424"><time>2023-06-03T08:37:55.837</time></trkpt><trkpt lat="55.9382377" lon="49.2349408"><time>2023-06-03T08:37:57.820</time></trkpt><trkpt lat="55.9383001" lon="49.2348329"><time>2023-06-03T08:37:59.817</time></trkpt><trkpt lat="55.9383642" lon="49.2347242"><time>2023-06-03T08:38:01.837</time></trkpt><trkpt lat="55.9384210" lon="49.2346165"><time>2023-06-03T08:38:03.827</time></trkpt><trkpt lat="55.9384712" lon="49.2345108"><time>2023-06-03T08:38:05.823</time></trkpt><trkpt lat="55.9385205" lon="49.2344051"><time>2023-06-03T08:38:07.820</time></trkpt><trkpt lat="55.9385731" lon="49.2342970"><time>2023-06-03T08:38:09.823</time></trkpt><trkpt lat="55.9386248" lon="49.2341860"><time>2023-06-03T08:38:11.830</time></trkpt><trkpt lat="55.9386866" lon="49.2340818"><time>2023-06-03T08:38:13.820</time></trkpt><trkpt lat="55.9387351" lon="49.2339605"><time>2023-06-03T08:38:15.830</time></trkpt><trkpt lat="55.9387663" lon="49.2338835"><time>2023-06-03T08:38:16.870</time></trkpt><trkpt lat="55.9387766" lon="49.2338052"><time>2023-06-03T08:38:17.840</time></trkpt><trkpt lat="55.9388295" lon="49.2336718"><time>2023-06-03T08:38:19.830</time></trkpt><trkpt lat="55.9388808" lon="49.2335412"><time>2023-06-03T08:38:21.827</time></trkpt><trkpt lat="55.9389216" lon="49.2334192"><time>2023-06-03T08:38:23.830</time></trkpt><trkpt lat="55.9389425" lon="49.2333464"><time>2023-06-03T08:38:24.827</time></trkpt><trkpt lat="55.9389867" lon="49.2332069"><time>2023-06-03T08:38:26.820</time></trkpt><trkpt lat="55.9390285" lon="49.2330730"><time>2023-06-03T08:38:28.883</time></trkpt><trkpt lat="55.9390695" lon="49.2329205"><time>2023-06-03T08:38:30.827</time></trkpt><trkpt lat="55.9390956" lon="49.2328464"><time>2023-06-03T08:38:31.867</time></trkpt><trkpt lat="55.9391320" lon="49.2327106"><time>2023-06-03T08:38:33.827</time></trkpt><trkpt lat="55.9391547" lon="49.2326341"><time>2023-06-03T08:38:34.833</time></trkpt><trkpt lat="55.9392004" lon="49.2324867"><time>2023-06-03T08:38:36.823</time></trkpt><trkpt lat="55.9392358" lon="49.2323509"><time>2023-06-03T08:38:38.823</time></trkpt><trkpt lat="55.9392579" lon="49.2322754"><time>2023-06-03T08:38:39.837</time></trkpt><trkpt lat="55.9392841" lon="49.2321345"><time>2023-06-03T08:38:41.820</time></trkpt><trkpt lat="55.9393195" lon="49.2319920"><time>2023-06-03T08:38:43.827</time></trkpt><trkpt lat="55.9393322" lon="49.2319048"><time>2023-06-03T08:38:44.817</time></trkpt><trkpt lat="55.9393745" lon="49.2317646"><time>2023-06-03T08:38:46.847</time></trkpt><trkpt lat="55.9393946" lon="49.2316396"><time>2023-06-03T08:38:48.817</time></trkpt><trkpt lat="55.9394123" lon="49.2315037"><time>2023-06-03T08:38:50.840</time></trkpt><trkpt lat="55.9394413" lon="49.2313717"><time>2023-06-03T08:38:52.857</time></trkpt><trkpt lat="55.9394759" lon="49.2312227"><time>2023-06-03T08:38:54.817</time></trkpt><trkpt lat="55.9394999" lon="49.2311033"><time>2023-06-03T08:38:56.823</time></trkpt><trkpt lat="55.9395291" lon="49.2309944"><time>2023-06-03T08:38:58.840</time></trkpt><trkpt lat="55.9395603" lon="49.2308763"><time>2023-06-03T08:39:00.817</time></trkpt><trkpt lat="55.9396001" lon="49.2307450"><time>2023-06-03T08:39:02.823</time></trkpt><trkpt lat="55.9396208" lon="49.2306575"><time>2023-06-03T08:39:03.823</time></trkpt><trkpt lat="55.9396327" lon="49.2305751"><time>2023-06-03T08:39:04.873</time></trkpt><trkpt lat="55.9396682" lon="49.2304285"><time>2023-06-03T08:39:06.833</time></trkpt><trkpt lat="55.9396890" lon="49.2303538"><time>2023-06-03T08:39:07.833</time></trkpt><trkpt lat="55.9397063" lon="49.2302796"><time>2023-06-03T08:39:08.820</time></trkpt><trkpt lat="55.9397289" lon="49.2302049"><time>2023-06-03T08:39:09.843</time></trkpt><trkpt lat="55.9397573" lon="49.2300784"><time>2023-06-03T08:39:11.827</time></trkpt><trkpt lat="55.9397829" lon="49.2299431"><time>2023-06-03T08:39:13.813</time></trkpt><trkpt lat="55.9398141" lon="49.2298197"><time>2023-06-03T08:39:15.833</time></trkpt><trkpt lat="55.9398377" lon="49.2296817"><time>2023-06-03T08:39:17.823</time></trkpt><trkpt lat="55.9398576" lon="49.2296043"><time>2023-06-03T08:39:18.827</time></trkpt><trkpt lat="55.9398784" lon="49.2295317"><time>2023-06-03T08:39:19.803</time></trkpt><trkpt lat="55.9399060" lon="49.2294662"><time>2023-06-03T08:39:20.827</time></trkpt><trkpt lat="55.9399331" lon="49.2293963"><time>2023-06-03T08:39:21.827</time></trkpt><trkpt lat="55.9399574" lon="49.2293248"><time>2023-06-03T08:39:22.837</time></trkpt><trkpt lat="55.9399830" lon="49.2292444"><time>2023-06-03T08:39:23.833</time></trkpt><trkpt lat="55.9400240" lon="49.2291145"><time>2023-06-03T08:39:25.827</time></trkpt><trkpt lat="55.9400731" lon="49.2289877"><time>2023-06-03T08:39:27.833</time></trkpt><trkpt lat="55.9401170" lon="49.2288469"><time>2023-06-03T08:39:29.820</time></trkpt><trkpt lat="55.9401366" lon="49.2287696"><time>2023-06-03T08:39:30.833</time></trkpt><trkpt lat="55.9401659" lon="49.2286891"><time>2023-06-03T08:39:31.837</time></trkpt><trkpt lat="55.9402133" lon="49.2285428"><time>2023-06-03T08:39:33.837</time></trkpt><trkpt lat="55.9402599" lon="49.2283982"><time>2023-06-03T08:39:35.843</time></trkpt><trkpt lat="55.9403011" lon="49.2282630"><time>2023-06-03T08:39:37.817</time></trkpt><trkpt lat="55.9403349" lon="49.2281316"><time>2023-06-03T08:39:39.803</time></trkpt><trkpt lat="55.9403781" lon="49.2280026"><time>2023-06-03T08:39:41.827</time></trkpt><trkpt lat="55.9404153" lon="49.2278773"><time>2023-06-03T08:39:43.833</time></trkpt><trkpt lat="55.9404347" lon="49.2277465"><time>2023-06-03T08:39:45.817</time></trkpt><trkpt lat="55.9404550" lon="49.2276113"><time>2023-06-03T08:39:47.827</time></trkpt><trkpt lat="55.9404730" lon="49.2274704"><time>2023-06-03T08:39:49.817</time></trkpt><trkpt lat="55.9405000" lon="49.2273181"><time>2023-06-03T08:39:51.817</time></trkpt><trkpt lat="55.9405230" lon="49.2272417"><time>2023-06-03T08:39:52.853</time></trkpt><trkpt lat="55.9405679" lon="49.2271188"><time>2023-06-03T08:39:54.820</time></trkpt><trkpt lat="55.9405911" lon="49.2270406"><time>2023-06-03T08:39:56.827</time></trkpt><trkpt lat="55.9405805" lon="49.2269147"><time>2023-06-03T08:39:59.833</time></trkpt><trkpt lat="55.9405575" lon="49.2268004"><time>2023-06-03T08:40:01.830</time></trkpt><trkpt lat="55.9405717" lon="49.2266867"><time>2023-06-03T08:40:02.833</time></trkpt><trkpt lat="55.9405512" lon="49.2265707"><time>2023-06-03T08:40:04.853</time></trkpt><trkpt lat="55.9405488" lon="49.2264595"><time>2023-06-03T08:40:06.820</time></trkpt><trkpt lat="55.9405724" lon="49.2263633"><time>2023-06-03T08:40:08.820</time></trkpt><trkpt lat="55.9406022" lon="49.2262853"><time>2023-06-03T08:40:10.837</time></trkpt><trkpt lat="55.9406483" lon="49.2262105"><time>2023-06-03T08:40:12.833</time></trkpt><trkpt lat="55.9406954" lon="49.2261519"><time>2023-06-03T08:40:14.820</time></trkpt><trkpt lat="55.9407500" lon="49.2260763"><time>2023-06-03T08:40:16.860</time></trkpt><trkpt lat="55.9407903" lon="49.2260070"><time>2023-06-03T08:40:18.827</time></trkpt><trkpt lat="55.9408376" lon="49.2259231"><time>2023-06-03T08:40:21.830</time></trkpt><trkpt lat="55.9408547" lon="49.2258321"><time>2023-06-03T08:40:23.820</time></trkpt><trkpt lat="55.9408566" lon="49.2257266"><time>2023-06-03T08:40:25.823</time></trkpt><trkpt lat="55.9408606" lon="49.2256240"><time>2023-06-03T08:40:27.833</time></trkpt><trkpt lat="55.9408736" lon="49.2255191"><time>2023-06-03T08:40:29.817</time></trkpt><trkpt lat="55.9408904" lon="49.2254043"><time>2023-06-03T08:40:31.833</time></trkpt><trkpt lat="55.9409199" lon="49.2252909"><time>2023-06-03T08:40:33.810</time></trkpt><trkpt lat="55.9409475" lon="49.2251752"><time>2023-06-03T08:40:35.823</time></trkpt><trkpt lat="55.9409682" lon="49.2250934"><time>2023-06-03T08:40:37.823</time></trkpt><trkpt lat="55.9409851" lon="49.2250050"><time>2023-06-03T08:41:09.833</time></trkpt><trkpt lat="55.9410183" lon="49.2249067"><time>2023-06-03T08:41:12.827</time></trkpt><trkpt lat="55.9410452" lon="49.2248278"><time>2023-06-03T08:41:14.817</time></trkpt><trkpt lat="55.9410763" lon="49.2247413"><time>2023-06-03T08:41:16.850</time></trkpt><trkpt lat="55.9411131" lon="49.2246458"><time>2023-06-03T08:41:18.830</time></trkpt><trkpt lat="55.9411502" lon="49.2245470"><time>2023-06-03T08:41:20.820</time></trkpt><trkpt lat="55.9411946" lon="49.2244345"><time>2023-06-03T08:41:22.837</time></trkpt><trkpt lat="55.9412291" lon="49.2243367"><time>2023-06-03T08:41:24.827</time></trkpt><trkpt lat="55.9412576" lon="49.2242478"><time>2023-06-03T08:41:26.823</time></trkpt><trkpt lat="55.9412821" lon="49.2241463"><time>2023-06-03T08:41:28.850</time></trkpt><trkpt lat="55.9413034" lon="49.2240488"><time>2023-06-03T08:41:30.827</time></trkpt><trkpt lat="55.9413170" lon="49.2239415"><time>2023-06-03T08:41:32.820</time></trkpt><trkpt lat="55.9413014" lon="49.2238318"><time>2023-06-03T08:41:34.847</time></trkpt><trkpt lat="55.9412762" lon="49.2237044"><time>2023-06-03T08:41:36.837</time></trkpt><trkpt lat="55.9412905" lon="49.2235842"><time>2023-06-03T08:41:38.837</time></trkpt><trkpt lat="55.9413237" lon="49.2234966"><time>2023-06-03T08:41:40.847</time></trkpt><trkpt lat="55.9413538" lon="49.2234275"><time>2023-06-03T08:41:42.823</time></trkpt><trkpt lat="55.9413801" lon="49.2233394"><time>2023-06-03T08:41:45.827</time></trkpt><trkpt lat="55.9414116" lon="49.2232552"><time>2023-06-03T08:41:48.827</time></trkpt><trkpt lat="55.9414478" lon="49.2231875"><time>2023-06-03T08:41:51.837</time></trkpt><trkpt lat="55.9414871" lon="49.2231112"><time>2023-06-03T08:41:53.883</time></trkpt><trkpt lat="55.9415458" lon="49.2230150"><time>2023-06-03T08:41:55.833</time></trkpt><trkpt lat="55.9416066" lon="49.2229280"><time>2023-06-03T08:41:57.833</time></trkpt><trkpt lat="55.9416622" lon="49.2228510"><time>2023-06-03T08:41:59.823</time></trkpt><trkpt lat="55.9417244" lon="49.2227876"><time>2023-06-03T08:42:01.827</time></trkpt><trkpt lat="55.9417824" lon="49.2227228"><time>2023-06-03T08:42:03.877</time></trkpt><trkpt lat="55.9418365" lon="49.2226467"><time>2023-06-03T08:42:05.837</time></trkpt><trkpt lat="55.9418826" lon="49.2225492"><time>2023-06-03T08:42:07.827</time></trkpt><trkpt lat="55.9419197" lon="49.2224539"><time>2023-06-03T08:42:09.840</time></trkpt><trkpt lat="55.9419759" lon="49.2223607"><time>2023-06-03T08:42:11.833</time></trkpt><trkpt lat="55.9420409" lon="49.2222889"><time>2023-06-03T08:42:13.830</time></trkpt><trkpt lat="55.9420837" lon="49.2222117"><time>2023-06-03T08:42:15.840</time></trkpt><trkpt lat="55.9421430" lon="49.2220972"><time>2023-06-03T08:42:17.833</time></trkpt><trkpt lat="55.9422067" lon="49.2220065"><time>2023-06-03T08:42:19.830</time></trkpt><trkpt lat="55.9422538" lon="49.2219404"><time>2023-06-03T08:42:21.840</time></trkpt><trkpt lat="55.9423071" lon="49.2218686"><time>2023-06-03T08:42:23.830</time></trkpt><trkpt lat="55.9423652" lon="49.2217966"><time>2023-06-03T08:42:25.867</time></trkpt><trkpt lat="55.9424159" lon="49.2217129"><time>2023-06-03T08:42:27.827</time></trkpt><trkpt lat="55.9424598" lon="49.2216404"><time>2023-06-03T08:42:29.833</time></trkpt><trkpt lat="55.9425045" lon="49.2215554"><time>2023-06-03T08:42:31.843</time></trkpt><trkpt lat="55.9425452" lon="49.2214672"><time>2023-06-03T08:42:33.830</time></trkpt><trkpt lat="55.9425928" lon="49.2213796"><time>2023-06-03T08:42:35.833</time></trkpt><trkpt lat="55.9426457" lon="49.2213033"><time>2023-06-03T08:42:37.850</time></trkpt><trkpt lat="55.9426995" lon="49.2212264"><time>2023-06-03T08:42:39.833</time></trkpt><trkpt lat="55.9427439" lon="49.2211404"><time>2023-06-03T08:42:41.830</time></trkpt><trkpt lat="55.9427944" lon="49.2210538"><time>2023-06-03T08:42:43.843</time></trkpt><trkpt lat="55.9428438" lon="49.2209718"><time>2023-06-03T08:42:45.830</time></trkpt><trkpt lat="55.9428672" lon="49.2208707"><time>2023-06-03T08:42:48.817</time></trkpt><trkpt lat="55.9428726" lon="49.2207517"><time>2023-06-03T08:42:51.840</time></trkpt><trkpt lat="55.9428863" lon="49.2206574"><time>2023-06-03T08:42:53.833</time></trkpt><trkpt lat="55.9429106" lon="49.2205831"><time>2023-06-03T08:42:55.833</time></trkpt><trkpt lat="55.9429565" lon="49.2205169"><time>2023-06-03T08:42:57.820</time></trkpt><trkpt lat="55.9430170" lon="49.2204670"><time>2023-06-03T08:42:59.837</time></trkpt><trkpt lat="55.9430669" lon="49.2204169"><time>2023-06-03T08:43:01.860</time></trkpt><trkpt lat="55.9431172" lon="49.2203501"><time>2023-06-03T08:43:03.833</time></trkpt><trkpt lat="55.9431576" lon="49.2202843"><time>2023-06-03T08:43:05.817</time></trkpt><trkpt lat="55.9432018" lon="49.2202155"><time>2023-06-03T08:43:07.847</time></trkpt><trkpt lat="55.9432407" lon="49.2201434"><time>2023-06-03T08:43:09.817</time></trkpt><trkpt lat="55.9432735" lon="49.2200860"><time>2023-06-03T08:43:11.820</time></trkpt><trkpt lat="55.9433238" lon="49.2200489"><time>2023-06-03T08:43:13.823</time></trkpt><trkpt lat="55.9433721" lon="49.2199971"><time>2023-06-03T08:43:15.830</time></trkpt><trkpt lat="55.9434082" lon="49.2199228"><time>2023-06-03T08:43:17.830</time></trkpt><trkpt lat="55.9434265" lon="49.2198422"><time>2023-06-03T08:43:19.843</time></trkpt><trkpt lat="55.9434487" lon="49.2197530"><time>2023-06-03T08:43:21.833</time></trkpt><trkpt lat="55.9434809" lon="49.2196612"><time>2023-06-03T08:43:23.843</time></trkpt><trkpt lat="55.9435263" lon="49.2195729"><time>2023-06-03T08:43:25.833</time></trkpt><trkpt lat="55.9435728" lon="49.2194850"><time>2023-06-03T08:43:27.830</time></trkpt><trkpt lat="55.9436140" lon="49.2193986"><time>2023-06-03T08:43:29.840</time></trkpt><trkpt lat="55.9436637" lon="49.2193136"><time>2023-06-03T08:43:31.843</time></trkpt><trkpt lat="55.9437216" lon="49.2192334"><time>2023-06-03T08:43:33.833</time></trkpt><trkpt lat="55.9437733" lon="49.2191468"><time>2023-06-03T08:43:35.847</time></trkpt><trkpt lat="55.9438164" lon="49.2190457"><time>2023-06-03T08:43:37.813</time></trkpt><trkpt lat="55.9438548" lon="49.2189469"><time>2023-06-03T08:43:39.837</time></trkpt><trkpt lat="55.9438851" lon="49.2188678"><time>2023-06-03T08:43:41.843</time></trkpt><trkpt lat="55.9439204" lon="49.2187887"><time>2023-06-03T08:43:44.820</time></trkpt><trkpt lat="55.9439437" lon="49.2187124"><time>2023-06-03T08:43:47.830</time></trkpt><trkpt lat="55.9439619" lon="49.2186248"><time>2023-06-03T08:43:49.817</time></trkpt><trkpt lat="55.9439715" lon="49.2185185"><time>2023-06-03T08:43:51.827</time></trkpt><trkpt lat="55.9439546" lon="49.2184179"><time>2023-06-03T08:43:53.823</time></trkpt><trkpt lat="55.9439244" lon="49.2183224"><time>2023-06-03T08:43:55.833</time></trkpt><trkpt lat="55.9439245" lon="49.2182168"><time>2023-06-03T08:43:58.820</time></trkpt><trkpt lat="55.9439794" lon="49.2181533"><time>2023-06-03T08:44:01.833</time></trkpt><trkpt lat="55.9440132" lon="49.2180880"><time>2023-06-03T08:44:03.820</time></trkpt><trkpt lat="55.9440171" lon="49.2180027"><time>2023-06-03T08:44:05.830</time></trkpt><trkpt lat="55.9440337" lon="49.2178752"><time>2023-06-03T08:44:07.827</time></trkpt><trkpt lat="55.9440394" lon="49.2177727"><time>2023-06-03T08:44:09.833</time></trkpt><trkpt lat="55.9440391" lon="49.2176577"><time>2023-06-03T08:44:11.827</time></trkpt><trkpt lat="55.9440495" lon="49.2175549"><time>2023-06-03T08:44:13.827</time></trkpt><trkpt lat="55.9440557" lon="49.2174351"><time>2023-06-03T08:44:15.837</time></trkpt><trkpt lat="55.9440655" lon="49.2173097"><time>2023-06-03T08:44:17.927</time></trkpt><trkpt lat="55.9440652" lon="49.2172541"><time>2023-06-03T08:44:18.827</time></trkpt><trkpt lat="55.9440499" lon="49.2171455"><time>2023-06-03T08:44:20.823</time></trkpt><trkpt lat="55.9440171" lon="49.2170433"><time>2023-06-03T08:44:22.813</time></trkpt><trkpt lat="55.9439869" lon="49.2169250"><time>2023-06-03T08:44:24.817</time></trkpt><trkpt lat="55.9439642" lon="49.2168333"><time>2023-06-03T08:44:26.837</time></trkpt><trkpt lat="55.9439533" lon="49.2167413"><time>2023-06-03T08:44:28.843</time></trkpt><trkpt lat="55.9439422" lon="49.2166281"><time>2023-06-03T08:44:30.823</time></trkpt><trkpt lat="55.9439396" lon="49.2165015"><time>2023-06-03T08:44:32.820</time></trkpt><trkpt lat="55.9439530" lon="49.2163785"><time>2023-06-03T08:44:34.857</time></trkpt><trkpt lat="55.9439652" lon="49.2162721"><time>2023-06-03T08:44:36.820</time></trkpt><trkpt lat="55.9439616" lon="49.2161623"><time>2023-06-03T08:44:38.817</time></trkpt><trkpt lat="55.9439600" lon="49.2160674"><time>2023-06-03T08:44:40.837</time></trkpt><trkpt lat="55.9439672" lon="49.2159650"><time>2023-06-03T08:44:42.830</time></trkpt><trkpt lat="55.9439745" lon="49.2158648"><time>2023-06-03T08:44:44.833</time></trkpt><trkpt lat="55.9439856" lon="49.2157684"><time>2023-06-03T08:44:46.860</time></trkpt><trkpt lat="55.9439990" lon="49.2156830"><time>2023-06-03T08:44:48.833</time></trkpt><trkpt lat="55.9440119" lon="49.2156393"><time>2023-06-03T08:44:49.827</time></trkpt><trkpt lat="55.9440336" lon="49.2155687"><time>2023-06-03T08:45:06.807</time></trkpt><trkpt lat="55.9440557" lon="49.2154894"><time>2023-06-03T08:45:37.827</time></trkpt><trkpt lat="55.9440691" lon="49.2154086"><time>2023-06-03T08:45:39.860</time></trkpt><trkpt lat="55.9440762" lon="49.2153110"><time>2023-06-03T08:45:41.837</time></trkpt><trkpt lat="55.9440866" lon="49.2151990"><time>2023-06-03T08:45:43.817</time></trkpt><trkpt lat="55.9440922" lon="49.2150930"><time>2023-06-03T08:45:45.847</time></trkpt><trkpt lat="55.9440918" lon="49.2149900"><time>2023-06-03T08:45:47.827</time></trkpt><trkpt lat="55.9440834" lon="49.2149057"><time>2023-06-03T08:45:49.823</time></trkpt><trkpt lat="55.9441168" lon="49.2148436"><time>2023-06-03T08:46:01.863</time></trkpt><trkpt lat="55.9441190" lon="49.2148386"><time>2023-06-03T08:46:02.813</time></trkpt><trkpt lat="55.9441423" lon="49.2147619"><time>2023-06-03T08:46:06.820</time></trkpt><trkpt lat="55.9441665" lon="49.2146745"><time>2023-06-03T08:46:09.857</time></trkpt><trkpt lat="55.9441877" lon="49.2145932"><time>2023-06-03T08:46:14.823</time></trkpt><trkpt lat="55.9441963" lon="49.2144933"><time>2023-06-03T08:46:18.843</time></trkpt><trkpt lat="55.9442014" lon="49.2144015"><time>2023-06-03T08:46:23.843</time></trkpt><trkpt lat="55.9442014" lon="49.2144015"><time>2023-06-03T08:46:23.933</time></trkpt><trkpt lat="55.9442036" lon="49.2143152"><time>2023-06-03T08:46:28.853</time></trkpt><trkpt lat="55.9442073" lon="49.2142971"><time>2023-06-03T08:46:29.827</time></trkpt><trkpt lat="55.9441881" lon="49.2143786"><time>2023-06-03T08:46:42.820</time></trkpt><trkpt lat="55.9441743" lon="49.2144718"><time>2023-06-03T08:46:46.807</time></trkpt><trkpt lat="55.9441706" lon="49.2145525"><time>2023-06-03T08:46:51.830</time></trkpt><trkpt lat="55.9441677" lon="49.2146367"><time>2023-06-03T08:46:55.823</time></trkpt><trkpt lat="55.9441562" lon="49.2147155"><time>2023-06-03T08:46:59.823</time></trkpt><trkpt lat="55.9441378" lon="49.2148051"><time>2023-06-03T08:47:05.823</time></trkpt><trkpt lat="55.9441083" lon="49.2148723"><time>2023-06-03T08:47:11.827</time></trkpt><trkpt lat="55.9440672" lon="49.2149184"><time>2023-06-03T08:47:47.820</time></trkpt><trkpt lat="55.9440789" lon="49.2150093"><time>2023-06-03T08:49:14.837</time></trkpt><trkpt lat="55.9441244" lon="49.2150759"><time>2023-06-03T08:49:31.817</time></trkpt><trkpt lat="55.9441239" lon="49.2151795"><time>2023-06-03T08:49:33.827</time></trkpt><trkpt lat="55.9441192" lon="49.2152789"><time>2023-06-03T08:49:35.827</time></trkpt><trkpt lat="55.9441131" lon="49.2153835"><time>2023-06-03T08:49:37.820</time></trkpt><trkpt lat="55.9440999" lon="49.2154909"><time>2023-06-03T08:49:39.823</time></trkpt><trkpt lat="55.9440777" lon="49.2155947"><time>2023-06-03T08:49:41.823</time></trkpt><trkpt lat="55.9440431" lon="49.2157132"><time>2023-06-03T08:49:43.830</time></trkpt><trkpt lat="55.9440139" lon="49.2158261"><time>2023-06-03T08:49:45.837</time></trkpt><trkpt lat="55.9439992" lon="49.2159404"><time>2023-06-03T08:49:47.823</time></trkpt><trkpt lat="55.9439974" lon="49.2160592"><time>2023-06-03T08:49:49.830</time></trkpt><trkpt lat="55.9440049" lon="49.2161871"><time>2023-06-03T08:49:51.840</time></trkpt><trkpt lat="55.9440164" lon="49.2163127"><time>2023-06-03T08:49:53.837</time></trkpt><trkpt lat="55.9440261" lon="49.2164378"><time>2023-06-03T08:49:55.830</time></trkpt><trkpt lat="55.9440344" lon="49.2165432"><time>2023-06-03T08:49:57.830</time></trkpt><trkpt lat="55.9440439" lon="49.2166457"><time>2023-06-03T08:49:59.853</time></trkpt><trkpt lat="55.9440620" lon="49.2167508"><time>2023-06-03T08:50:01.817</time></trkpt><trkpt lat="55.9440880" lon="49.2168678"><time>2023-06-03T08:50:03.813</time></trkpt><trkpt lat="55.9441040" lon="49.2169600"><time>2023-06-03T08:50:05.827</time></trkpt><trkpt lat="55.9441339" lon="49.2170328"><time>2023-06-03T08:50:07.820</time></trkpt><trkpt lat="55.9441862" lon="49.2171039"><time>2023-06-03T08:50:09.807</time></trkpt><trkpt lat="55.9442008" lon="49.2171801"><time>2023-06-03T08:50:11.830</time></trkpt><trkpt lat="55.9441820" lon="49.2173080"><time>2023-06-03T08:50:13.830</time></trkpt><trkpt lat="55.9441524" lon="49.2174521"><time>2023-06-03T08:50:15.830</time></trkpt><trkpt lat="55.9441282" lon="49.2175850"><time>2023-06-03T08:50:17.823</time></trkpt><trkpt lat="55.9441086" lon="49.2177260"><time>2023-06-03T08:50:19.820</time></trkpt><trkpt lat="55.9440879" lon="49.2178615"><time>2023-06-03T08:50:21.827</time></trkpt><trkpt lat="55.9440584" lon="49.2179902"><time>2023-06-03T08:50:23.830</time></trkpt><trkpt lat="55.9440061" lon="49.2180861"><time>2023-06-03T08:50:25.820</time></trkpt><trkpt lat="55.9439650" lon="49.2181661"><time>2023-06-03T08:50:27.830</time></trkpt><trkpt lat="55.9439501" lon="49.2182678"><time>2023-06-03T08:50:29.823</time></trkpt><trkpt lat="55.9439530" lon="49.2183705"><time>2023-06-03T08:50:32.820</time></trkpt><trkpt lat="55.9439650" lon="49.2184847"><time>2023-06-03T08:50:35.823</time></trkpt><trkpt lat="55.9439591" lon="49.2185650"><time>2023-06-03T08:50:37.827</time></trkpt><trkpt lat="55.9439288" lon="49.2186568"><time>2023-06-03T08:50:39.840</time></trkpt><trkpt lat="55.9438926" lon="49.2187552"><time>2023-06-03T08:50:41.830</time></trkpt><trkpt lat="55.9438541" lon="49.2188655"><time>2023-06-03T08:50:43.827</time></trkpt><trkpt lat="55.9438146" lon="49.2189827"><time>2023-06-03T08:50:45.853</time></trkpt><trkpt lat="55.9437746" lon="49.2190988"><time>2023-06-03T08:50:47.823</time></trkpt><trkpt lat="55.9437278" lon="49.2191946"><time>2023-06-03T08:50:49.823</time></trkpt><trkpt lat="55.9436738" lon="49.2192969"><time>2023-06-03T08:50:51.840</time></trkpt><trkpt lat="55.9436268" lon="49.2193925"><time>2023-06-03T08:50:53.820</time></trkpt><trkpt lat="55.9435790" lon="49.2194792"><time>2023-06-03T08:50:55.827</time></trkpt><trkpt lat="55.9435268" lon="49.2195689"><time>2023-06-03T08:50:57.843</time></trkpt><trkpt lat="55.9434801" lon="49.2196641"><time>2023-06-03T08:50:59.847</time></trkpt><trkpt lat="55.9434512" lon="49.2197757"><time>2023-06-03T08:51:01.823</time></trkpt><trkpt lat="55.9434294" lon="49.2198829"><time>2023-06-03T08:51:03.840</time></trkpt><trkpt lat="55.9433939" lon="49.2199911"><time>2023-06-03T08:51:05.823</time></trkpt><trkpt lat="55.9433416" lon="49.2200698"><time>2023-06-03T08:51:07.820</time></trkpt><trkpt lat="55.9432898" lon="49.2201189"><time>2023-06-03T08:51:09.853</time></trkpt><trkpt lat="55.9432347" lon="49.2201366"><time>2023-06-03T08:51:11.817</time></trkpt><trkpt lat="55.9431870" lon="49.2201759"><time>2023-06-03T08:51:13.823</time></trkpt><trkpt lat="55.9431509" lon="49.2202453"><time>2023-06-03T08:51:15.853</time></trkpt><trkpt lat="55.9431114" lon="49.2203226"><time>2023-06-03T08:51:17.827</time></trkpt><trkpt lat="55.9430643" lon="49.2204077"><time>2023-06-03T08:51:19.823</time></trkpt><trkpt lat="55.9430179" lon="49.2204929"><time>2023-06-03T08:51:21.867</time></trkpt><trkpt lat="55.9429777" lon="49.2205694"><time>2023-06-03T08:51:23.833</time></trkpt><trkpt lat="55.9429338" lon="49.2206320"><time>2023-06-03T08:51:25.820</time></trkpt><trkpt lat="55.9428808" lon="49.2206866"><time>2023-06-03T08:51:27.840</time></trkpt><trkpt lat="55.9428506" lon="49.2207644"><time>2023-06-03T08:51:29.813</time></trkpt><trkpt lat="55.9428429" lon="49.2208510"><time>2023-06-03T08:51:31.823</time></trkpt><trkpt lat="55.9428466" lon="49.2209616"><time>2023-06-03T08:51:33.857</time></trkpt><trkpt lat="55.9428403" lon="49.2210630"><time>2023-06-03T08:51:35.820</time></trkpt><trkpt lat="55.9428046" lon="49.2211427"><time>2023-06-03T08:51:37.817</time></trkpt><trkpt lat="55.9427595" lon="49.2211989"><time>2023-06-03T08:51:39.850</time></trkpt><trkpt lat="55.9427140" lon="49.2212637"><time>2023-06-03T08:51:41.840</time></trkpt><trkpt lat="55.9426682" lon="49.2213147"><time>2023-06-03T08:51:43.823</time></trkpt><trkpt lat="55.9426130" lon="49.2213591"><time>2023-06-03T08:51:45.867</time></trkpt><trkpt lat="55.9425564" lon="49.2214004"><time>2023-06-03T08:51:47.840</time></trkpt><trkpt lat="55.9424999" lon="49.2214520"><time>2023-06-03T08:51:49.830</time></trkpt><trkpt lat="55.9424541" lon="49.2215129"><time>2023-06-03T08:51:51.853</time></trkpt><trkpt lat="55.9424107" lon="49.2215830"><time>2023-06-03T08:51:53.833</time></trkpt><trkpt lat="55.9423651" lon="49.2216551"><time>2023-06-03T08:51:55.827</time></trkpt><trkpt lat="55.9423287" lon="49.2217173"><time>2023-06-03T08:51:57.857</time></trkpt><trkpt lat="55.9422872" lon="49.2217800"><time>2023-06-03T08:51:59.837</time></trkpt><trkpt lat="55.9422369" lon="49.2218460"><time>2023-06-03T08:52:01.843</time></trkpt><trkpt lat="55.9421958" lon="49.2219084"><time>2023-06-03T08:52:03.837</time></trkpt><trkpt lat="55.9421598" lon="49.2219724"><time>2023-06-03T08:52:05.823</time></trkpt><trkpt lat="55.9421222" lon="49.2220651"><time>2023-06-03T08:52:07.827</time></trkpt><trkpt lat="55.9420877" lon="49.2221633"><time>2023-06-03T08:52:09.867</time></trkpt><trkpt lat="55.9420515" lon="49.2222403"><time>2023-06-03T08:52:11.823</time></trkpt><trkpt lat="55.9420091" lon="49.2223078"><time>2023-06-03T08:52:13.817</time></trkpt><trkpt lat="55.9419637" lon="49.2223955"><time>2023-06-03T08:52:15.830</time></trkpt><trkpt lat="55.9419336" lon="49.2224995"><time>2023-06-03T08:52:17.833</time></trkpt><trkpt lat="55.9419023" lon="49.2225770"><time>2023-06-03T08:52:19.833</time></trkpt><trkpt lat="55.9418474" lon="49.2226395"><time>2023-06-03T08:52:21.843</time></trkpt><trkpt lat="55.9417902" lon="49.2227100"><time>2023-06-03T08:52:23.820</time></trkpt><trkpt lat="55.9417334" lon="49.2227831"><time>2023-06-03T08:52:25.830</time></trkpt><trkpt lat="55.9416762" lon="49.2228516"><time>2023-06-03T08:52:27.843</time></trkpt><trkpt lat="55.9416352" lon="49.2229218"><time>2023-06-03T08:52:29.817</time></trkpt><trkpt lat="55.9415980" lon="49.2229962"><time>2023-06-03T08:52:31.823</time></trkpt><trkpt lat="55.9415558" lon="49.2230799"><time>2023-06-03T08:52:33.817</time></trkpt><trkpt lat="55.9415050" lon="49.2231617"><time>2023-06-03T08:52:35.820</time></trkpt><trkpt lat="55.9414515" lon="49.2232207"><time>2023-06-03T08:52:37.817</time></trkpt><trkpt lat="55.9414034" lon="49.2232869"><time>2023-06-03T08:52:39.820</time></trkpt><trkpt lat="55.9413701" lon="49.2233691"><time>2023-06-03T08:52:41.823</time></trkpt><trkpt lat="55.9413377" lon="49.2234687"><time>2023-06-03T08:52:43.823</time></trkpt><trkpt lat="55.9412983" lon="49.2235662"><time>2023-06-03T08:52:45.823</time></trkpt><trkpt lat="55.9412737" lon="49.2236640"><time>2023-06-03T08:52:47.830</time></trkpt><trkpt lat="55.9412717" lon="49.2237682"><time>2023-06-03T08:52:49.823</time></trkpt><trkpt lat="55.9412856" lon="49.2238810"><time>2023-06-03T08:52:51.830</time></trkpt><trkpt lat="55.9412884" lon="49.2239900"><time>2023-06-03T08:52:53.820</time></trkpt><trkpt lat="55.9412783" lon="49.2241069"><time>2023-06-03T08:52:55.813</time></trkpt><trkpt lat="55.9412582" lon="49.2242204"><time>2023-06-03T08:52:57.820</time></trkpt><trkpt lat="55.9412316" lon="49.2243242"><time>2023-06-03T08:52:59.820</time></trkpt><trkpt lat="55.9412021" lon="49.2244332"><time>2023-06-03T08:53:01.827</time></trkpt><trkpt lat="55.9411803" lon="49.2245347"><time>2023-06-03T08:53:03.817</time></trkpt><trkpt lat="55.9411590" lon="49.2246398"><time>2023-06-03T08:53:05.827</time></trkpt><trkpt lat="55.9411362" lon="49.2247225"><time>2023-06-03T08:53:07.807</time></trkpt><trkpt lat="55.9411054" lon="49.2248138"><time>2023-06-03T08:53:09.833</time></trkpt><trkpt lat="55.9410696" lon="49.2249230"><time>2023-06-03T08:53:11.813</time></trkpt><trkpt lat="55.9410447" lon="49.2250150"><time>2023-06-03T08:53:13.837</time></trkpt><trkpt lat="55.9410254" lon="49.2250956"><time>2023-06-03T08:53:15.830</time></trkpt><trkpt lat="55.9410111" lon="49.2251726"><time>2023-06-03T08:53:19.830</time></trkpt><trkpt lat="55.9410387" lon="49.2251007"><time>2023-06-03T08:53:23.817</time></trkpt><trkpt lat="55.9410314" lon="49.2250024"><time>2023-06-03T08:53:25.817</time></trkpt><trkpt lat="55.9410218" lon="49.2248900"><time>2023-06-03T08:53:27.817</time></trkpt><trkpt lat="55.9409990" lon="49.2247855"><time>2023-06-03T08:53:29.817</time></trkpt><trkpt lat="55.9409661" lon="49.2246809"><time>2023-06-03T08:53:31.840</time></trkpt><trkpt lat="55.9409287" lon="49.2245716"><time>2023-06-03T08:53:33.820</time></trkpt><trkpt lat="55.9408899" lon="49.2244644"><time>2023-06-03T08:53:35.820</time></trkpt><trkpt lat="55.9408448" lon="49.2243739"><time>2023-06-03T08:53:37.817</time></trkpt><trkpt lat="55.9407875" lon="49.2242972"><time>2023-06-03T08:53:39.823</time></trkpt><trkpt lat="55.9407120" lon="49.2242308"><time>2023-06-03T08:53:41.847</time></trkpt><trkpt lat="55.9406384" lon="49.2241620"><time>2023-06-03T08:53:43.823</time></trkpt><trkpt lat="55.9405696" lon="49.2240847"><time>2023-06-03T08:53:45.817</time></trkpt><trkpt lat="55.9405179" lon="49.2240197"><time>2023-06-03T08:53:47.833</time></trkpt><trkpt lat="55.9404661" lon="49.2239704"><time>2023-06-03T08:53:49.813</time></trkpt><trkpt lat="55.9404086" lon="49.2239196"><time>2023-06-03T08:53:51.823</time></trkpt><trkpt lat="55.9403442" lon="49.2238669"><time>2023-06-03T08:53:53.823</time></trkpt><trkpt lat="55.9402757" lon="49.2238306"><time>2023-06-03T08:53:55.837</time></trkpt><trkpt lat="55.9402043" lon="49.2238127"><time>2023-06-03T08:53:57.833</time></trkpt><trkpt lat="55.9401408" lon="49.2237766"><time>2023-06-03T08:53:59.833</time></trkpt><trkpt lat="55.9400817" lon="49.2237187"><time>2023-06-03T08:54:01.823</time></trkpt><trkpt lat="55.9400233" lon="49.2236325"><time>2023-06-03T08:54:03.830</time></trkpt><trkpt lat="55.9399763" lon="49.2235504"><time>2023-06-03T08:54:05.857</time></trkpt><trkpt lat="55.9399302" lon="49.2234830"><time>2023-06-03T08:54:07.827</time></trkpt><trkpt lat="55.9398786" lon="49.2234037"><time>2023-06-03T08:54:09.827</time></trkpt><trkpt lat="55.9398293" lon="49.2233380"><time>2023-06-03T08:54:11.833</time></trkpt><trkpt lat="55.9397700" lon="49.2232788"><time>2023-06-03T08:54:13.827</time></trkpt><trkpt lat="55.9397344" lon="49.2232292"><time>2023-06-03T08:54:15.820</time></trkpt><trkpt lat="55.9397047" lon="49.2231519"><time>2023-06-03T08:54:17.833</time></trkpt><trkpt lat="55.9396788" lon="49.2230554"><time>2023-06-03T08:54:19.833</time></trkpt><trkpt lat="55.9396439" lon="49.2229750"><time>2023-06-03T08:54:21.837</time></trkpt><trkpt lat="55.9395928" lon="49.2229359"><time>2023-06-03T08:54:23.820</time></trkpt><trkpt lat="55.9395302" lon="49.2229328"><time>2023-06-03T08:54:25.817</time></trkpt><trkpt lat="55.9394811" lon="49.2229814"><time>2023-06-03T08:54:27.847</time></trkpt><trkpt lat="55.9394347" lon="49.2230498"><time>2023-06-03T08:54:29.817</time></trkpt><trkpt lat="55.9393891" lon="49.2230844"><time>2023-06-03T08:54:31.837</time></trkpt><trkpt lat="55.9393379" lon="49.2231069"><time>2023-06-03T08:54:33.843</time></trkpt><trkpt lat="55.9392732" lon="49.2231233"><time>2023-06-03T08:54:35.810</time></trkpt><trkpt lat="55.9392122" lon="49.2231395"><time>2023-06-03T08:54:37.827</time></trkpt><trkpt lat="55.9391407" lon="49.2231700"><time>2023-06-03T08:54:39.850</time></trkpt><trkpt lat="55.9390789" lon="49.2232093"><time>2023-06-03T08:54:41.817</time></trkpt><trkpt lat="55.9390222" lon="49.2232471"><time>2023-06-03T08:54:43.827</time></trkpt><trkpt lat="55.9389595" lon="49.2232856"><time>2023-06-03T08:54:45.840</time></trkpt><trkpt lat="55.9388948" lon="49.2233156"><time>2023-06-03T08:54:47.817</time></trkpt><trkpt lat="55.9388182" lon="49.2233405"><time>2023-06-03T08:54:49.823</time></trkpt><trkpt lat="55.9387684" lon="49.2233389"><time>2023-06-03T08:54:51.850</time></trkpt><trkpt lat="55.9387155" lon="49.2233271"><time>2023-06-03T08:54:53.833</time></trkpt><trkpt lat="55.9386683" lon="49.2232880"><time>2023-06-03T08:54:55.803</time></trkpt><trkpt lat="55.9386137" lon="49.2232085"><time>2023-06-03T08:54:58.817</time></trkpt><trkpt lat="55.9385431" lon="49.2231516"><time>2023-06-03T08:55:00.817</time></trkpt><trkpt lat="55.9384664" lon="49.2231091"><time>2023-06-03T08:55:02.817</time></trkpt><trkpt lat="55.9383991" lon="49.2230463"><time>2023-06-03T08:55:04.827</time></trkpt><trkpt lat="55.9383428" lon="49.2229753"><time>2023-06-03T08:55:06.817</time></trkpt><trkpt lat="55.9382971" lon="49.2228953"><time>2023-06-03T08:55:08.820</time></trkpt><trkpt lat="55.9382636" lon="49.2227913"><time>2023-06-03T08:55:10.813</time></trkpt><trkpt lat="55.9382304" lon="49.2226913"><time>2023-06-03T08:55:12.817</time></trkpt><trkpt lat="55.9381890" lon="49.2225975"><time>2023-06-03T08:55:14.820</time></trkpt><trkpt lat="55.9381457" lon="49.2225374"><time>2023-06-03T08:55:16.817</time></trkpt><trkpt lat="55.9380863" lon="49.2224820"><time>2023-06-03T08:55:18.840</time></trkpt><trkpt lat="55.9380377" lon="49.2224078"><time>2023-06-03T08:55:20.827</time></trkpt><trkpt lat="55.9380054" lon="49.2223359"><time>2023-06-03T08:55:22.817</time></trkpt><trkpt lat="55.9379599" lon="49.2222384"><time>2023-06-03T08:55:25.827</time></trkpt><trkpt lat="55.9379254" lon="49.2221634"><time>2023-06-03T08:55:27.820</time></trkpt><trkpt lat="55.9378904" lon="49.2220658"><time>2023-06-03T08:55:30.813</time></trkpt><trkpt lat="55.9378388" lon="49.2219800"><time>2023-06-03T08:55:33.827</time></trkpt><trkpt lat="55.9378015" lon="49.2218894"><time>2023-06-03T08:55:35.827</time></trkpt><trkpt lat="55.9377709" lon="49.2217999"><time>2023-06-03T08:55:37.820</time></trkpt><trkpt lat="55.9377391" lon="49.2217072"><time>2023-06-03T08:55:39.820</time></trkpt><trkpt lat="55.9377164" lon="49.2216031"><time>2023-06-03T08:55:42.820</time></trkpt><trkpt lat="55.9376838" lon="49.2214993"><time>2023-06-03T08:55:44.857</time></trkpt><trkpt lat="55.9376608" lon="49.2213289"><time>2023-06-03T08:55:46.810</time></trkpt><trkpt lat="55.9376115" lon="49.2212061"><time>2023-06-03T08:55:48.830</time></trkpt><trkpt lat="55.9375875" lon="49.2211667"><time>2023-06-03T08:55:49.833</time></trkpt><trkpt lat="55.9375431" lon="49.2211118"><time>2023-06-03T08:55:51.830</time></trkpt><trkpt lat="55.9375595" lon="49.2210021"><time>2023-06-03T08:55:53.817</time></trkpt><trkpt lat="55.9375585" lon="49.2209041"><time>2023-06-03T08:55:55.817</time></trkpt><trkpt lat="55.9375166" lon="49.2208371"><time>2023-06-03T08:55:58.813</time></trkpt><trkpt lat="55.9374918" lon="49.2207462"><time>2023-06-03T08:56:01.833</time></trkpt><trkpt lat="55.9374582" lon="49.2206757"><time>2023-06-03T08:56:21.827</time></trkpt><trkpt lat="55.9374407" lon="49.2205660"><time>2023-06-03T08:56:23.820</time></trkpt><trkpt lat="55.9374417" lon="49.2204693"><time>2023-06-03T08:56:25.830</time></trkpt><trkpt lat="55.9374510" lon="49.2203886"><time>2023-06-03T08:56:27.827</time></trkpt><trkpt lat="55.9374433" lon="49.2202913"><time>2023-06-03T08:56:30.820</time></trkpt><trkpt lat="55.9374180" lon="49.2202207"><time>2023-06-03T08:56:32.843</time></trkpt><trkpt lat="55.9373864" lon="49.2201502"><time>2023-06-03T08:56:35.823</time></trkpt><trkpt lat="55.9373299" lon="49.2200874"><time>2023-06-03T08:56:38.840</time></trkpt><trkpt lat="55.9372813" lon="49.2199886"><time>2023-06-03T08:56:41.817</time></trkpt><trkpt lat="55.9372414" lon="49.2199067"><time>2023-06-03T08:56:43.823</time></trkpt><trkpt lat="55.9372098" lon="49.2198363"><time>2023-06-03T08:56:45.863</time></trkpt><trkpt lat="55.9371995" lon="49.2197941"><time>2023-06-03T08:56:46.820</time></trkpt><trkpt lat="55.9371850" lon="49.2197047"><time>2023-06-03T08:56:48.817</time></trkpt><trkpt lat="55.9371511" lon="49.2196097"><time>2023-06-03T08:56:50.830</time></trkpt><trkpt lat="55.9371115" lon="49.2195150"><time>2023-06-03T08:56:52.817</time></trkpt><trkpt lat="55.9370875" lon="49.2194279"><time>2023-06-03T08:56:54.817</time></trkpt><trkpt lat="55.9370651" lon="49.2193397"><time>2023-06-03T08:56:56.847</time></trkpt><trkpt lat="55.9370461" lon="49.2192443"><time>2023-06-03T08:56:58.817</time></trkpt><trkpt lat="55.9370319" lon="49.2191489"><time>2023-06-03T08:57:00.840</time></trkpt><trkpt lat="55.9370232" lon="49.2191032"><time>2023-06-03T08:57:01.843</time></trkpt><trkpt lat="55.9369963" lon="49.2190213"><time>2023-06-03T08:57:03.830</time></trkpt><trkpt lat="55.9369760" lon="49.2189215"><time>2023-06-03T08:57:05.820</time></trkpt><trkpt lat="55.9369603" lon="49.2188306"><time>2023-06-03T08:57:07.820</time></trkpt><trkpt lat="55.9369364" lon="49.2187218"><time>2023-06-03T08:57:10.827</time></trkpt><trkpt lat="55.9369187" lon="49.2186442"><time>2023-06-03T08:57:12.833</time></trkpt><trkpt lat="55.9369187" lon="49.2186442"><time>2023-06-03T08:57:12.893</time></trkpt><trkpt lat="55.9369061" lon="49.2185644"><time>2023-06-03T08:57:14.840</time></trkpt><trkpt lat="55.9368999" lon="49.2185218"><time>2023-06-03T08:57:15.810</time></trkpt><trkpt lat="55.9368868" lon="49.2184267"><time>2023-06-03T08:57:17.807</time></trkpt><trkpt lat="55.9368677" lon="49.2183244"><time>2023-06-03T08:57:19.860</time></trkpt><trkpt lat="55.9368435" lon="49.2182232"><time>2023-06-03T08:57:21.820</time></trkpt><trkpt lat="55.9368028" lon="49.2181261"><time>2023-06-03T08:57:23.843</time></trkpt><trkpt lat="55.9367670" lon="49.2180279"><time>2023-06-03T08:57:25.827</time></trkpt><trkpt lat="55.9367558" lon="49.2179100"><time>2023-06-03T08:57:27.820</time></trkpt><trkpt lat="55.9367442" lon="49.2178029"><time>2023-06-03T08:57:29.833</time></trkpt><trkpt lat="55.9367367" lon="49.2176921"><time>2023-06-03T08:57:31.857</time></trkpt><trkpt lat="55.9367267" lon="49.2175809"><time>2023-06-03T08:57:33.820</time></trkpt><trkpt lat="55.9367212" lon="49.2174722"><time>2023-06-03T08:57:35.830</time></trkpt><trkpt lat="55.9367127" lon="49.2173741"><time>2023-06-03T08:57:37.827</time></trkpt><trkpt lat="55.9366947" lon="49.2172755"><time>2023-06-03T08:57:39.820</time></trkpt><trkpt lat="55.9366803" lon="49.2171597"><time>2023-06-03T08:57:41.827</time></trkpt><trkpt lat="55.9366741" lon="49.2170308"><time>2023-06-03T08:57:43.820</time></trkpt><trkpt lat="55.9366660" lon="49.2169066"><time>2023-06-03T08:57:45.827</time></trkpt><trkpt lat="55.9366588" lon="49.2168227"><time>2023-06-03T08:57:47.837</time></trkpt><trkpt lat="55.9366280" lon="49.2167334"><time>2023-06-03T08:57:50.820</time></trkpt><trkpt lat="55.9365930" lon="49.2166809"><time>2023-06-03T08:57:52.813</time></trkpt><trkpt lat="55.9365479" lon="49.2166072"><time>2023-06-03T08:57:54.867</time></trkpt><trkpt lat="55.9364859" lon="49.2165137"><time>2023-06-03T08:57:56.817</time></trkpt><trkpt lat="55.9364481" lon="49.2164200"><time>2023-06-03T08:57:58.843</time></trkpt><trkpt lat="55.9364226" lon="49.2163180"><time>2023-06-03T08:58:00.843</time></trkpt><trkpt lat="55.9364019" lon="49.2162071"><time>2023-06-03T08:58:02.810</time></trkpt><trkpt lat="55.9363870" lon="49.2160993"><time>2023-06-03T08:58:04.813</time></trkpt><trkpt lat="55.9363471" lon="49.2159674"><time>2023-06-03T08:58:06.853</time></trkpt><trkpt lat="55.9363247" lon="49.2158516"><time>2023-06-03T08:58:08.813</time></trkpt><trkpt lat="55.9362941" lon="49.2157220"><time>2023-06-03T08:58:10.813</time></trkpt><trkpt lat="55.9362473" lon="49.2155977"><time>2023-06-03T08:58:12.837</time></trkpt><trkpt lat="55.9361962" lon="49.2154917"><time>2023-06-03T08:58:14.817</time></trkpt><trkpt lat="55.9361471" lon="49.2154065"><time>2023-06-03T08:58:16.817</time></trkpt><trkpt lat="55.9361030" lon="49.2153161"><time>2023-06-03T08:58:18.847</time></trkpt><trkpt lat="55.9360918" lon="49.2152015"><time>2023-06-03T08:58:20.823</time></trkpt><trkpt lat="55.9361079" lon="49.2150453"><time>2023-06-03T08:58:22.827</time></trkpt><trkpt lat="55.9361158" lon="49.2149602"><time>2023-06-03T08:58:23.817</time></trkpt><trkpt lat="55.9361211" lon="49.2148784"><time>2023-06-03T08:58:24.837</time></trkpt><trkpt lat="55.9361193" lon="49.2147420"><time>2023-06-03T08:58:26.820</time></trkpt><trkpt lat="55.9361026" lon="49.2146046"><time>2023-06-03T08:58:28.820</time></trkpt><trkpt lat="55.9360827" lon="49.2144904"><time>2023-06-03T08:58:30.857</time></trkpt><trkpt lat="55.9360536" lon="49.2143833"><time>2023-06-03T08:58:32.810</time></trkpt><trkpt lat="55.9360049" lon="49.2142883"><time>2023-06-03T08:58:34.830</time></trkpt><trkpt lat="55.9359423" lon="49.2142205"><time>2023-06-03T08:58:36.850</time></trkpt><trkpt lat="55.9358761" lon="49.2141901"><time>2023-06-03T08:58:38.813</time></trkpt><trkpt lat="55.9358076" lon="49.2141990"><time>2023-06-03T08:58:40.827</time></trkpt><trkpt lat="55.9357614" lon="49.2141995"><time>2023-06-03T08:58:42.853</time></trkpt><trkpt lat="55.9356976" lon="49.2141331"><time>2023-06-03T08:58:44.820</time></trkpt><trkpt lat="55.9356585" lon="49.2140172"><time>2023-06-03T08:58:46.817</time></trkpt><trkpt lat="55.9356469" lon="49.2138789"><time>2023-06-03T08:58:48.827</time></trkpt><trkpt lat="55.9356324" lon="49.2137621"><time>2023-06-03T08:58:50.810</time></trkpt><trkpt lat="55.9355901" lon="49.2136717"><time>2023-06-03T08:58:52.810</time></trkpt><trkpt lat="55.9355404" lon="49.2135693"><time>2023-06-03T08:58:54.820</time></trkpt><trkpt lat="55.9355020" lon="49.2135065"><time>2023-06-03T08:58:56.817</time></trkpt><trkpt lat="55.9354410" lon="49.2134374"><time>2023-06-03T08:58:58.817</time></trkpt><trkpt lat="55.9354057" lon="49.2133684"><time>2023-06-03T08:59:00.817</time></trkpt><trkpt lat="55.9353823" lon="49.2132980"><time>2023-06-03T08:59:02.817</time></trkpt><trkpt lat="55.9353628" lon="49.2132256"><time>2023-06-03T08:59:05.853</time></trkpt><trkpt lat="55.9353586" lon="49.2131195"><time>2023-06-03T08:59:14.817</time></trkpt><trkpt lat="55.9353647" lon="49.2130214"><time>2023-06-03T08:59:16.817</time></trkpt><trkpt lat="55.9353391" lon="49.2129252"><time>2023-06-03T08:59:18.817</time></trkpt><trkpt lat="55.9352998" lon="49.2128441"><time>2023-06-03T08:59:20.817</time></trkpt><trkpt lat="55.9352862" lon="49.2127511"><time>2023-06-03T08:59:22.817</time></trkpt><trkpt lat="55.9352938" lon="49.2126674"><time>2023-06-03T08:59:24.817</time></trkpt><trkpt lat="55.9353095" lon="49.2125427"><time>2023-06-03T08:59:26.817</time></trkpt><trkpt lat="55.9353075" lon="49.2124376"><time>2023-06-03T08:59:28.817</time></trkpt><trkpt lat="55.9352860" lon="49.2123599"><time>2023-06-03T08:59:30.827</time></trkpt><trkpt lat="55.9352411" lon="49.2122804"><time>2023-06-03T08:59:32.823</time></trkpt><trkpt lat="55.9352030" lon="49.2121951"><time>2023-06-03T08:59:34.817</time></trkpt><trkpt lat="55.9351631" lon="49.2121071"><time>2023-06-03T08:59:36.817</time></trkpt><trkpt lat="55.9351272" lon="49.2120208"><time>2023-06-03T08:59:38.820</time></trkpt><trkpt lat="55.9350993" lon="49.2119443"><time>2023-06-03T08:59:40.817</time></trkpt><trkpt lat="55.9350914" lon="49.2118147"><time>2023-06-03T08:59:43.820</time></trkpt><trkpt lat="55.9351192" lon="49.2116690"><time>2023-06-03T08:59:45.810</time></trkpt><trkpt lat="55.9351623" lon="49.2115143"><time>2023-06-03T08:59:46.803</time></trkpt><trkpt lat="55.9351856" lon="49.2113978"><time>2023-06-03T08:59:47.843</time></trkpt><trkpt lat="55.9351886" lon="49.2112990"><time>2023-06-03T08:59:48.813</time></trkpt><trkpt lat="55.9351963" lon="49.2112122"><time>2023-06-03T08:59:49.817</time></trkpt><trkpt lat="55.9352244" lon="49.2110972"><time>2023-06-03T08:59:51.817</time></trkpt><trkpt lat="55.9352520" lon="49.2110026"><time>2023-06-03T08:59:53.837</time></trkpt><trkpt lat="55.9352757" lon="49.2109288"><time>2023-06-03T08:59:55.830</time></trkpt><trkpt lat="55.9352858" lon="49.2108315"><time>2023-06-03T08:59:58.817</time></trkpt><trkpt lat="55.9352939" lon="49.2107438"><time>2023-06-03T09:00:00.817</time></trkpt><trkpt lat="55.9353249" lon="49.2106447"><time>2023-06-03T09:00:02.813</time></trkpt><trkpt lat="55.9353414" lon="49.2105459"><time>2023-06-03T09:00:04.813</time></trkpt><trkpt lat="55.9353515" lon="49.2104558"><time>2023-06-03T09:00:07.823</time></trkpt><trkpt lat="55.9353754" lon="49.2103708"><time>2023-06-03T09:00:50.817</time></trkpt><trkpt lat="55.9354138" lon="49.2103120"><time>2023-06-03T09:01:01.810</time></trkpt><trkpt lat="55.9354431" lon="49.2102378"><time>2023-06-03T09:01:04.823</time></trkpt><trkpt lat="55.9354522" lon="49.2101546"><time>2023-06-03T09:01:15.813</time></trkpt><trkpt lat="55.9354709" lon="49.2100697"><time>2023-06-03T09:01:25.817</time></trkpt><trkpt lat="55.9354918" lon="49.2099955"><time>2023-06-03T09:01:28.803</time></trkpt><trkpt lat="55.9355107" lon="49.2099197"><time>2023-06-03T09:01:31.813</time></trkpt><trkpt lat="55.9355330" lon="49.2098321"><time>2023-06-03T09:01:35.807</time></trkpt><trkpt lat="55.9355655" lon="49.2097571"><time>2023-06-03T09:01:44.813</time></trkpt><trkpt lat="55.9355867" lon="49.2096825"><time>2023-06-03T09:01:47.820</time></trkpt><trkpt lat="55.9356117" lon="49.2096093"><time>2023-06-03T09:01:51.843</time></trkpt><trkpt lat="55.9356112" lon="49.2095194"><time>2023-06-03T09:02:13.827</time></trkpt><trkpt lat="55.9356511" lon="49.2094597"><time>2023-06-03T09:02:31.823</time></trkpt><trkpt lat="55.9356981" lon="49.2094231"><time>2023-06-03T09:02:33.847</time></trkpt><trkpt lat="55.9357469" lon="49.2093647"><time>2023-06-03T09:02:35.813</time></trkpt><trkpt lat="55.9357857" lon="49.2092751"><time>2023-06-03T09:02:37.810</time></trkpt><trkpt lat="55.9358171" lon="49.2091457"><time>2023-06-03T09:02:39.810</time></trkpt><trkpt lat="55.9358304" lon="49.2090692"><time>2023-06-03T09:02:40.813</time></trkpt><trkpt lat="55.9358569" lon="49.2089346"><time>2023-06-03T09:02:42.800</time></trkpt><trkpt lat="55.9359034" lon="49.2088328"><time>2023-06-03T09:02:44.840</time></trkpt><trkpt lat="55.9359482" lon="49.2087486"><time>2023-06-03T09:02:46.827</time></trkpt><trkpt lat="55.9359840" lon="49.2086699"><time>2023-06-03T09:02:48.817</time></trkpt><trkpt lat="55.9360319" lon="49.2085682"><time>2023-06-03T09:02:50.860</time></trkpt><trkpt lat="55.9360693" lon="49.2084530"><time>2023-06-03T09:02:52.817</time></trkpt><trkpt lat="55.9360898" lon="49.2083437"><time>2023-06-03T09:02:54.817</time></trkpt><trkpt lat="55.9360947" lon="49.2082281"><time>2023-06-03T09:02:56.837</time></trkpt><trkpt lat="55.9360935" lon="49.2081079"><time>2023-06-03T09:02:58.820</time></trkpt><trkpt lat="55.9361044" lon="49.2079871"><time>2023-06-03T09:03:00.837</time></trkpt><trkpt lat="55.9361229" lon="49.2078684"><time>2023-06-03T09:03:02.847</time></trkpt><trkpt lat="55.9361540" lon="49.2077590"><time>2023-06-03T09:03:04.817</time></trkpt><trkpt lat="55.9361961" lon="49.2076752"><time>2023-06-03T09:03:06.817</time></trkpt><trkpt lat="55.9362392" lon="49.2075778"><time>2023-06-03T09:03:08.833</time></trkpt><trkpt lat="55.9362822" lon="49.2074783"><time>2023-06-03T09:03:10.820</time></trkpt><trkpt lat="55.9363217" lon="49.2074170"><time>2023-06-03T09:03:12.817</time></trkpt><trkpt lat="55.9363672" lon="49.2073543"><time>2023-06-03T09:03:15.817</time></trkpt><trkpt lat="55.9363817" lon="49.2072782"><time>2023-06-03T09:03:19.820</time></trkpt><trkpt lat="55.9364501" lon="49.2072908"><time>2023-06-03T09:03:22.797</time></trkpt><trkpt lat="55.9365267" lon="49.2072603"><time>2023-06-03T09:03:24.813</time></trkpt><trkpt lat="55.9366026" lon="49.2071964"><time>2023-06-03T09:03:26.847</time></trkpt><trkpt lat="55.9366520" lon="49.2071378"><time>2023-06-03T09:03:28.813</time></trkpt><trkpt lat="55.9366879" lon="49.2070728"><time>2023-06-03T09:03:33.817</time></trkpt><trkpt lat="55.9367133" lon="49.2069911"><time>2023-06-03T09:03:43.813</time></trkpt><trkpt lat="55.9367226" lon="49.2068978"><time>2023-06-03T09:03:45.820</time></trkpt><trkpt lat="55.9367536" lon="49.2068047"><time>2023-06-03T09:03:47.813</time></trkpt><trkpt lat="55.9368005" lon="49.2067344"><time>2023-06-03T09:03:49.840</time></trkpt><trkpt lat="55.9368542" lon="49.2066630"><time>2023-06-03T09:03:51.820</time></trkpt><trkpt lat="55.9369039" lon="49.2065982"><time>2023-06-03T09:03:53.823</time></trkpt><trkpt lat="55.9369472" lon="49.2065492"><time>2023-06-03T09:03:56.827</time></trkpt><trkpt lat="55.9369913" lon="49.2065267"><time>2023-06-03T09:04:05.823</time></trkpt><trkpt lat="55.9369442" lon="49.2065258"><time>2023-06-03T09:05:09.807</time></trkpt><trkpt lat="55.9368998" lon="49.2065378"><time>2023-06-03T09:05:14.817</time></trkpt><trkpt lat="55.9369604" lon="49.2065344"><time>2023-06-03T09:05:44.817</time></trkpt><trkpt lat="55.9370210" lon="49.2065342"><time>2023-06-03T09:05:46.817</time></trkpt><trkpt lat="55.9370799" lon="49.2065215"><time>2023-06-03T09:05:48.817</time></trkpt><trkpt lat="55.9371389" lon="49.2064861"><time>2023-06-03T09:05:50.817</time></trkpt><trkpt lat="55.9371978" lon="49.2064447"><time>2023-06-03T09:05:52.810</time></trkpt><trkpt lat="55.9372600" lon="49.2064147"><time>2023-06-03T09:05:54.817</time></trkpt><trkpt lat="55.9373269" lon="49.2063895"><time>2023-06-03T09:05:56.810</time></trkpt><trkpt lat="55.9373932" lon="49.2063804"><time>2023-06-03T09:05:58.813</time></trkpt><trkpt lat="55.9374601" lon="49.2063754"><time>2023-06-03T09:06:00.820</time></trkpt><trkpt lat="55.9375148" lon="49.2063486"><time>2023-06-03T09:06:02.810</time></trkpt><trkpt lat="55.9375579" lon="49.2062917"><time>2023-06-03T09:06:04.817</time></trkpt><trkpt lat="55.9376049" lon="49.2062253"><time>2023-06-03T09:06:06.820</time></trkpt><trkpt lat="55.9376516" lon="49.2061520"><time>2023-06-03T09:06:08.820</time></trkpt><trkpt lat="55.9377057" lon="49.2060862"><time>2023-06-03T09:06:10.817</time></trkpt><trkpt lat="55.9377627" lon="49.2060216"><time>2023-06-03T09:06:12.810</time></trkpt><trkpt lat="55.9378160" lon="49.2059579"><time>2023-06-03T09:06:14.817</time></trkpt><trkpt lat="55.9378575" lon="49.2059093"><time>2023-06-03T09:06:16.833</time></trkpt><trkpt lat="55.9379227" lon="49.2058649"><time>2023-06-03T09:06:19.817</time></trkpt><trkpt lat="55.9379724" lon="49.2058334"><time>2023-06-03T09:06:21.840</time></trkpt><trkpt lat="55.9380249" lon="49.2058168"><time>2023-06-03T09:06:23.817</time></trkpt><trkpt lat="55.9380869" lon="49.2058152"><time>2023-06-03T09:06:25.817</time></trkpt><trkpt lat="55.9381500" lon="49.2058032"><time>2023-06-03T09:06:27.830</time></trkpt><trkpt lat="55.9382090" lon="49.2057886"><time>2023-06-03T09:06:29.860</time></trkpt><trkpt lat="55.9382640" lon="49.2057949"><time>2023-06-03T09:06:31.820</time></trkpt><trkpt lat="55.9383081" lon="49.2058168"><time>2023-06-03T09:06:33.817</time></trkpt><trkpt lat="55.9383579" lon="49.2058532"><time>2023-06-03T09:06:35.850</time></trkpt><trkpt lat="55.9384185" lon="49.2058983"><time>2023-06-03T09:06:37.810</time></trkpt><trkpt lat="55.9384797" lon="49.2059409"><time>2023-06-03T09:06:39.810</time></trkpt><trkpt lat="55.9385294" lon="49.2059867"><time>2023-06-03T09:06:41.823</time></trkpt><trkpt lat="55.9385917" lon="49.2060304"><time>2023-06-03T09:06:43.817</time></trkpt><trkpt lat="55.9386669" lon="49.2060538"><time>2023-06-03T09:06:45.827</time></trkpt><trkpt lat="55.9387448" lon="49.2060775"><time>2023-06-03T09:06:47.817</time></trkpt><trkpt lat="55.9388201" lon="49.2060920"><time>2023-06-03T09:06:49.800</time></trkpt><trkpt lat="55.9388857" lon="49.2060851"><time>2023-06-03T09:06:51.817</time></trkpt><trkpt lat="55.9389764" lon="49.2060845"><time>2023-06-03T09:06:53.823</time></trkpt><trkpt lat="55.9390475" lon="49.2060846"><time>2023-06-03T09:06:55.823</time></trkpt><trkpt lat="55.9391047" lon="49.2060735"><time>2023-06-03T09:06:57.820</time></trkpt><trkpt lat="55.9391815" lon="49.2060799"><time>2023-06-03T09:06:59.827</time></trkpt><trkpt lat="55.9392488" lon="49.2060726"><time>2023-06-03T09:07:01.830</time></trkpt><trkpt lat="55.9392940" lon="49.2060473"><time>2023-06-03T09:07:03.820</time></trkpt><trkpt lat="55.9393373" lon="49.2060188"><time>2023-06-03T09:07:05.810</time></trkpt><trkpt lat="55.9393793" lon="49.2059901"><time>2023-06-03T09:07:07.810</time></trkpt><trkpt lat="55.9394433" lon="49.2059752"><time>2023-06-03T09:07:09.817</time></trkpt><trkpt lat="55.9395102" lon="49.2059685"><time>2023-06-03T09:07:11.820</time></trkpt><trkpt lat="55.9395744" lon="49.2059634"><time>2023-06-03T09:07:13.817</time></trkpt><trkpt lat="55.9396397" lon="49.2059463"><time>2023-06-03T09:07:15.850</time></trkpt><trkpt lat="55.9396935" lon="49.2059263"><time>2023-06-03T09:07:17.817</time></trkpt><trkpt lat="55.9397634" lon="49.2059268"><time>2023-06-03T09:07:19.823</time></trkpt><trkpt lat="55.9398423" lon="49.2059480"><time>2023-06-03T09:07:21.817</time></trkpt><trkpt lat="55.9399166" lon="49.2059745"><time>2023-06-03T09:07:23.823</time></trkpt><trkpt lat="55.9399733" lon="49.2060139"><time>2023-06-03T09:07:25.823</time></trkpt><trkpt lat="55.9400319" lon="49.2060396"><time>2023-06-03T09:07:27.820</time></trkpt><trkpt lat="55.9401103" lon="49.2060669"><time>2023-06-03T09:07:29.817</time></trkpt><trkpt lat="55.9401783" lon="49.2060952"><time>2023-06-03T09:07:31.813</time></trkpt><trkpt lat="55.9402564" lon="49.2061239"><time>2023-06-03T09:07:33.817</time></trkpt><trkpt lat="55.9403034" lon="49.2061573"><time>2023-06-03T09:07:35.817</time></trkpt><trkpt lat="55.9403469" lon="49.2061986"><time>2023-06-03T09:07:37.823</time></trkpt><trkpt lat="55.9404051" lon="49.2062452"><time>2023-06-03T09:07:39.830</time></trkpt><trkpt lat="55.9404752" lon="49.2062675"><time>2023-06-03T09:07:41.810</time></trkpt><trkpt lat="55.9405279" lon="49.2062768"><time>2023-06-03T09:07:42.810</time></trkpt><trkpt lat="55.9405772" lon="49.2062778"><time>2023-06-03T09:07:43.813</time></trkpt><trkpt lat="55.9406545" lon="49.2062836"><time>2023-06-03T09:07:45.817</time></trkpt><trkpt lat="55.9407248" lon="49.2063048"><time>2023-06-03T09:07:47.817</time></trkpt><trkpt lat="55.9408040" lon="49.2063295"><time>2023-06-03T09:07:49.820</time></trkpt><trkpt lat="55.9408750" lon="49.2063661"><time>2023-06-03T09:07:51.817</time></trkpt><trkpt lat="55.9409423" lon="49.2064058"><time>2023-06-03T09:07:53.827</time></trkpt><trkpt lat="55.9410170" lon="49.2064450"><time>2023-06-03T09:07:55.817</time></trkpt><trkpt lat="55.9410924" lon="49.2064889"><time>2023-06-03T09:07:57.817</time></trkpt><trkpt lat="55.9411468" lon="49.2065273"><time>2023-06-03T09:07:59.817</time></trkpt><trkpt lat="55.9412093" lon="49.2065541"><time>2023-06-03T09:08:01.820</time></trkpt><trkpt lat="55.9412930" lon="49.2065668"><time>2023-06-03T09:08:03.830</time></trkpt><trkpt lat="55.9413662" lon="49.2065711"><time>2023-06-03T09:08:05.827</time></trkpt><trkpt lat="55.9414432" lon="49.2065546"><time>2023-06-03T09:08:07.817</time></trkpt><trkpt lat="55.9415219" lon="49.2065493"><time>2023-06-03T09:08:09.820</time></trkpt><trkpt lat="55.9416011" lon="49.2065439"><time>2023-06-03T09:08:11.810</time></trkpt><trkpt lat="55.9416870" lon="49.2065430"><time>2023-06-03T09:08:13.813</time></trkpt><trkpt lat="55.9417760" lon="49.2065518"><time>2023-06-03T09:08:15.817</time></trkpt><trkpt lat="55.9418246" lon="49.2065851"><time>2023-06-03T09:08:16.817</time></trkpt><trkpt lat="55.9419052" lon="49.2066215"><time>2023-06-03T09:08:18.820</time></trkpt><trkpt lat="55.9419564" lon="49.2066091"><time>2023-06-03T09:08:19.813</time></trkpt><trkpt lat="55.9420097" lon="49.2065872"><time>2023-06-03T09:08:20.843</time></trkpt><trkpt lat="55.9420737" lon="49.2066728"><time>2023-06-03T09:08:22.813</time></trkpt><trkpt lat="55.9421472" lon="49.2067058"><time>2023-06-03T09:08:24.817</time></trkpt><trkpt lat="55.9422316" lon="49.2067330"><time>2023-06-03T09:08:26.827</time></trkpt><trkpt lat="55.9422770" lon="49.2067375"><time>2023-06-03T09:08:27.810</time></trkpt><trkpt lat="55.9423255" lon="49.2067500"><time>2023-06-03T09:08:28.810</time></trkpt><trkpt lat="55.9423711" lon="49.2067984"><time>2023-06-03T09:08:30.810</time></trkpt><trkpt lat="55.9424328" lon="49.2068536"><time>2023-06-03T09:08:32.857</time></trkpt><trkpt lat="55.9425090" lon="49.2068920"><time>2023-06-03T09:08:34.823</time></trkpt><trkpt lat="55.9425859" lon="49.2069034"><time>2023-06-03T09:08:36.823</time></trkpt><trkpt lat="55.9426590" lon="49.2069013"><time>2023-06-03T09:08:37.810</time></trkpt><trkpt lat="55.9427093" lon="49.2069370"><time>2023-06-03T09:08:38.830</time></trkpt><trkpt lat="55.9427730" lon="49.2069702"><time>2023-06-03T09:08:40.813</time></trkpt><trkpt lat="55.9428189" lon="49.2069852"><time>2023-06-03T09:08:41.817</time></trkpt><trkpt lat="55.9428662" lon="49.2069875"><time>2023-06-03T09:08:42.813</time></trkpt><trkpt lat="55.9429112" lon="49.2070090"><time>2023-06-03T09:08:43.830</time></trkpt><trkpt lat="55.9429580" lon="49.2070224"><time>2023-06-03T09:08:44.843</time></trkpt><trkpt lat="55.9430360" lon="49.2070238"><time>2023-06-03T09:08:46.817</time></trkpt><trkpt lat="55.9431031" lon="49.2070671"><time>2023-06-03T09:08:48.813</time></trkpt><trkpt lat="55.9431841" lon="49.2071112"><time>2023-06-03T09:08:50.827</time></trkpt><trkpt lat="55.9432588" lon="49.2071423"><time>2023-06-03T09:08:52.820</time></trkpt><trkpt lat="55.9433418" lon="49.2071647"><time>2023-06-03T09:08:54.813</time></trkpt><trkpt lat="55.9433875" lon="49.2071634"><time>2023-06-03T09:08:55.817</time></trkpt><trkpt lat="55.9434458" lon="49.2071212"><time>2023-06-03T09:08:56.840</time></trkpt><trkpt lat="55.9434914" lon="49.2071021"><time>2023-06-03T09:08:57.813</time></trkpt><trkpt lat="55.9435421" lon="49.2070850"><time>2023-06-03T09:08:58.813</time></trkpt><trkpt lat="55.9435894" lon="49.2070707"><time>2023-06-03T09:08:59.823</time></trkpt><trkpt lat="55.9436599" lon="49.2070280"><time>2023-06-03T09:09:01.820</time></trkpt><trkpt lat="55.9437249" lon="49.2069996"><time>2023-06-03T09:09:03.820</time></trkpt><trkpt lat="55.9437801" lon="49.2069373"><time>2023-06-03T09:09:05.813</time></trkpt><trkpt lat="55.9438406" lon="49.2068842"><time>2023-06-03T09:09:07.817</time></trkpt><trkpt lat="55.9438987" lon="49.2068308"><time>2023-06-03T09:09:09.810</time></trkpt><trkpt lat="55.9439504" lon="49.2067942"><time>2023-06-03T09:09:11.817</time></trkpt><trkpt lat="55.9440137" lon="49.2067571"><time>2023-06-03T09:09:13.810</time></trkpt><trkpt lat="55.9440876" lon="49.2067297"><time>2023-06-03T09:09:15.830</time></trkpt><trkpt lat="55.9441581" lon="49.2067296"><time>2023-06-03T09:09:17.827</time></trkpt><trkpt lat="55.9442270" lon="49.2067441"><time>2023-06-03T09:09:19.817</time></trkpt><trkpt lat="55.9442974" lon="49.2067351"><time>2023-06-03T09:09:21.810</time></trkpt><trkpt lat="55.9443520" lon="49.2066996"><time>2023-06-03T09:09:23.810</time></trkpt><trkpt lat="55.9444044" lon="49.2066685"><time>2023-06-03T09:09:25.813</time></trkpt><trkpt lat="55.9444658" lon="49.2066456"><time>2023-06-03T09:09:27.817</time></trkpt><trkpt lat="55.9445257" lon="49.2066160"><time>2023-06-03T09:09:29.810</time></trkpt><trkpt lat="55.9445991" lon="49.2065891"><time>2023-06-03T09:09:31.810</time></trkpt><trkpt lat="55.9446457" lon="49.2065833"><time>2023-06-03T09:09:32.843</time></trkpt><trkpt lat="55.9446939" lon="49.2065773"><time>2023-06-03T09:09:34.823</time></trkpt><trkpt lat="55.9447477" lon="49.2066143"><time>2023-06-03T09:09:37.820</time></trkpt><trkpt lat="55.9448054" lon="49.2066439"><time>2023-06-03T09:09:39.813</time></trkpt><trkpt lat="55.9448657" lon="49.2066381"><time>2023-06-03T09:09:41.817</time></trkpt><trkpt lat="55.9449149" lon="49.2066347"><time>2023-06-03T09:09:43.823</time></trkpt><trkpt lat="55.9449608" lon="49.2066635"><time>2023-06-03T09:09:45.813</time></trkpt><trkpt lat="55.9450021" lon="49.2066966"><time>2023-06-03T09:09:49.813</time></trkpt><trkpt lat="55.9450472" lon="49.2067817"><time>2023-06-03T09:10:05.817</time></trkpt><trkpt lat="55.9450897" lon="49.2068406"><time>2023-06-03T09:10:07.820</time></trkpt><trkpt lat="55.9451469" lon="49.2068947"><time>2023-06-03T09:10:09.813</time></trkpt><trkpt lat="55.9452085" lon="49.2069216"><time>2023-06-03T09:10:11.820</time></trkpt><trkpt lat="55.9452805" lon="49.2069347"><time>2023-06-03T09:10:13.827</time></trkpt><trkpt lat="55.9453420" lon="49.2069618"><time>2023-06-03T09:10:15.817</time></trkpt><trkpt lat="55.9454135" lon="49.2070212"><time>2023-06-03T09:10:17.810</time></trkpt><trkpt lat="55.9454825" lon="49.2070743"><time>2023-06-03T09:10:19.817</time></trkpt><trkpt lat="55.9455507" lon="49.2071331"><time>2023-06-03T09:10:21.817</time></trkpt><trkpt lat="55.9456086" lon="49.2072234"><time>2023-06-03T09:10:23.817</time></trkpt><trkpt lat="55.9456608" lon="49.2073276"><time>2023-06-03T09:10:25.813</time></trkpt><trkpt lat="55.9457160" lon="49.2074293"><time>2023-06-03T09:10:27.810</time></trkpt><trkpt lat="55.9457834" lon="49.2075012"><time>2023-06-03T09:10:29.817</time></trkpt><trkpt lat="55.9458612" lon="49.2075349"><time>2023-06-03T09:10:31.827</time></trkpt><trkpt lat="55.9459382" lon="49.2075553"><time>2023-06-03T09:10:33.823</time></trkpt><trkpt lat="55.9460066" lon="49.2075968"><time>2023-06-03T09:10:35.807</time></trkpt><trkpt lat="55.9460723" lon="49.2076695"><time>2023-06-03T09:10:37.820</time></trkpt><trkpt lat="55.9461373" lon="49.2077589"><time>2023-06-03T09:10:39.817</time></trkpt><trkpt lat="55.9461740" lon="49.2078050"><time>2023-06-03T09:10:40.817</time></trkpt><trkpt lat="55.9462441" lon="49.2078840"><time>2023-06-03T09:10:42.817</time></trkpt><trkpt lat="55.9463110" lon="49.2079527"><time>2023-06-03T09:10:44.837</time></trkpt><trkpt lat="55.9463721" lon="49.2080272"><time>2023-06-03T09:10:46.807</time></trkpt><trkpt lat="55.9464363" lon="49.2081127"><time>2023-06-03T09:10:48.820</time></trkpt><trkpt lat="55.9464898" lon="49.2082316"><time>2023-06-03T09:10:50.847</time></trkpt><trkpt lat="55.9465319" lon="49.2083680"><time>2023-06-03T09:10:52.810</time></trkpt><trkpt lat="55.9465528" lon="49.2084415"><time>2023-06-03T09:10:53.807</time></trkpt><trkpt lat="55.9465770" lon="49.2085332"><time>2023-06-03T09:10:54.813</time></trkpt><trkpt lat="55.9466109" lon="49.2085978"><time>2023-06-03T09:10:55.817</time></trkpt><trkpt lat="55.9466451" lon="49.2086606"><time>2023-06-03T09:10:56.840</time></trkpt><trkpt lat="55.9466742" lon="49.2087331"><time>2023-06-03T09:10:57.810</time></trkpt><trkpt lat="55.9467072" lon="49.2088010"><time>2023-06-03T09:10:58.810</time></trkpt><trkpt lat="55.9467616" lon="49.2087807"><time>2023-06-03T09:10:59.813</time></trkpt><trkpt lat="55.9467924" lon="49.2088659"><time>2023-06-03T09:11:00.820</time></trkpt><trkpt lat="55.9468335" lon="49.2089005"><time>2023-06-03T09:11:01.813</time></trkpt><trkpt lat="55.9468609" lon="49.2089789"><time>2023-06-03T09:11:02.840</time></trkpt><trkpt lat="55.9468995" lon="49.2090298"><time>2023-06-03T09:11:03.823</time></trkpt><trkpt lat="55.9469613" lon="49.2091533"><time>2023-06-03T09:11:05.800</time></trkpt><trkpt lat="55.9470251" lon="49.2092657"><time>2023-06-03T09:11:07.817</time></trkpt><trkpt lat="55.9470498" lon="49.2093326"><time>2023-06-03T09:11:08.840</time></trkpt><trkpt lat="55.9471004" lon="49.2092748"><time>2023-06-03T09:11:09.817</time></trkpt><trkpt lat="55.9471232" lon="49.2093488"><time>2023-06-03T09:11:10.817</time></trkpt><trkpt lat="55.9471423" lon="49.2094235"><time>2023-06-03T09:11:11.813</time></trkpt><trkpt lat="55.9471945" lon="49.2095496"><time>2023-06-03T09:11:13.817</time></trkpt><trkpt lat="55.9472364" lon="49.2096508"><time>2023-06-03T09:11:15.810</time></trkpt><trkpt lat="55.9473148" lon="49.2097090"><time>2023-06-03T09:11:17.810</time></trkpt><trkpt lat="55.9473839" lon="49.2098140"><time>2023-06-03T09:11:19.807</time></trkpt><trkpt lat="55.9474294" lon="49.2098347"><time>2023-06-03T09:11:20.853</time></trkpt><trkpt lat="55.9474575" lon="49.2099218"><time>2023-06-03T09:11:21.810</time></trkpt><trkpt lat="55.9474895" lon="49.2099980"><time>2023-06-03T09:11:22.827</time></trkpt><trkpt lat="55.9475262" lon="49.2100488"><time>2023-06-03T09:11:23.820</time></trkpt><trkpt lat="55.9476114" lon="49.2101082"><time>2023-06-03T09:11:25.807</time></trkpt><trkpt lat="55.9476666" lon="49.2101600"><time>2023-06-03T09:11:27.807</time></trkpt><trkpt lat="55.9477220" lon="49.2102214"><time>2023-06-03T09:11:29.810</time></trkpt><trkpt lat="55.9477907" lon="49.2102280"><time>2023-06-03T09:11:31.810</time></trkpt><trkpt lat="55.9478490" lon="49.2103045"><time>2023-06-03T09:11:33.813</time></trkpt><trkpt lat="55.9478926" lon="49.2103453"><time>2023-06-03T09:11:35.813</time></trkpt><trkpt lat="55.9479478" lon="49.2103926"><time>2023-06-03T09:11:37.813</time></trkpt><trkpt lat="55.9480142" lon="49.2104251"><time>2023-06-03T09:11:39.817</time></trkpt><trkpt lat="55.9480803" lon="49.2104482"><time>2023-06-03T09:11:41.810</time></trkpt><trkpt lat="55.9481470" lon="49.2104911"><time>2023-06-03T09:11:43.813</time></trkpt><trkpt lat="55.9482121" lon="49.2105412"><time>2023-06-03T09:11:45.820</time></trkpt><trkpt lat="55.9482761" lon="49.2106062"><time>2023-06-03T09:11:47.823</time></trkpt><trkpt lat="55.9483383" lon="49.2106761"><time>2023-06-03T09:11:49.817</time></trkpt><trkpt lat="55.9484024" lon="49.2107500"><time>2023-06-03T09:11:51.830</time></trkpt><trkpt lat="55.9484702" lon="49.2108297"><time>2023-06-03T09:11:53.807</time></trkpt><trkpt lat="55.9485393" lon="49.2108942"><time>2023-06-03T09:11:55.820</time></trkpt><trkpt lat="55.9486009" lon="49.2109463"><time>2023-06-03T09:11:57.807</time></trkpt><trkpt lat="55.9486597" lon="49.2109798"><time>2023-06-03T09:11:59.817</time></trkpt><trkpt lat="55.9487139" lon="49.2110185"><time>2023-06-03T09:12:01.813</time></trkpt><trkpt lat="55.9487673" lon="49.2110707"><time>2023-06-03T09:12:03.823</time></trkpt><trkpt lat="55.9488126" lon="49.2111192"><time>2023-06-03T09:12:05.803</time></trkpt><trkpt lat="55.9488573" lon="49.2111840"><time>2023-06-03T09:12:07.813</time></trkpt><trkpt lat="55.9488965" lon="49.2112615"><time>2023-06-03T09:12:09.813</time></trkpt><trkpt lat="55.9489370" lon="49.2113459"><time>2023-06-03T09:12:11.817</time></trkpt><trkpt lat="55.9489832" lon="49.2114248"><time>2023-06-03T09:12:13.817</time></trkpt><trkpt lat="55.9490317" lon="49.2114843"><time>2023-06-03T09:12:15.820</time></trkpt><trkpt lat="55.9490822" lon="49.2115437"><time>2023-06-03T09:12:17.813</time></trkpt><trkpt lat="55.9491363" lon="49.2116142"><time>2023-06-03T09:12:19.813</time></trkpt><trkpt lat="55.9491869" lon="49.2116760"><time>2023-06-03T09:12:21.837</time></trkpt><trkpt lat="55.9492306" lon="49.2117361"><time>2023-06-03T09:12:23.810</time></trkpt><trkpt lat="55.9492692" lon="49.2117955"><time>2023-06-03T09:12:25.820</time></trkpt><trkpt lat="55.9492342" lon="49.2118682"><time>2023-06-03T09:12:41.817</time></trkpt><trkpt lat="55.9491766" lon="49.2118811"><time>2023-06-03T09:12:43.813</time></trkpt><trkpt lat="55.9491061" lon="49.2118895"><time>2023-06-03T09:12:45.837</time></trkpt><trkpt lat="55.9490191" lon="49.2118941"><time>2023-06-03T09:12:47.813</time></trkpt><trkpt lat="55.9489599" lon="49.2118908"><time>2023-06-03T09:12:48.813</time></trkpt><trkpt lat="55.9489131" lon="49.2118951"><time>2023-06-03T09:12:49.810</time></trkpt><trkpt lat="55.9488649" lon="49.2119056"><time>2023-06-03T09:12:50.847</time></trkpt><trkpt lat="55.9488176" lon="49.2119322"><time>2023-06-03T09:12:51.810</time></trkpt><trkpt lat="55.9487381" lon="49.2119711"><time>2023-06-03T09:12:53.823</time></trkpt><trkpt lat="55.9486626" lon="49.2119975"><time>2023-06-03T09:12:55.820</time></trkpt><trkpt lat="55.9485936" lon="49.2120442"><time>2023-06-03T09:12:57.813</time></trkpt><trkpt lat="55.9485233" lon="49.2121152"><time>2023-06-03T09:12:59.817</time></trkpt><trkpt lat="55.9484536" lon="49.2122106"><time>2023-06-03T09:13:01.820</time></trkpt><trkpt lat="55.9483855" lon="49.2123030"><time>2023-06-03T09:13:03.810</time></trkpt><trkpt lat="55.9483132" lon="49.2123861"><time>2023-06-03T09:13:05.843</time></trkpt><trkpt lat="55.9482761" lon="49.2124255"><time>2023-06-03T09:13:06.803</time></trkpt><trkpt lat="55.9482086" lon="49.2124964"><time>2023-06-03T09:13:08.837</time></trkpt><trkpt lat="55.9481476" lon="49.2125625"><time>2023-06-03T09:13:10.810</time></trkpt><trkpt lat="55.9480931" lon="49.2126253"><time>2023-06-03T09:13:12.810</time></trkpt><trkpt lat="55.9480358" lon="49.2127076"><time>2023-06-03T09:13:14.837</time></trkpt><trkpt lat="55.9479884" lon="49.2128060"><time>2023-06-03T09:13:16.807</time></trkpt><trkpt lat="55.9479480" lon="49.2129143"><time>2023-06-03T09:13:18.813</time></trkpt><trkpt lat="55.9479123" lon="49.2130116"><time>2023-06-03T09:13:20.867</time></trkpt><trkpt lat="55.9478707" lon="49.2131073"><time>2023-06-03T09:13:22.823</time></trkpt><trkpt lat="55.9478319" lon="49.2132085"><time>2023-06-03T09:13:24.820</time></trkpt><trkpt lat="55.9478014" lon="49.2133279"><time>2023-06-03T09:13:26.827</time></trkpt><trkpt lat="55.9477706" lon="49.2134574"><time>2023-06-03T09:13:28.820</time></trkpt><trkpt lat="55.9477511" lon="49.2135801"><time>2023-06-03T09:13:30.810</time></trkpt><trkpt lat="55.9477383" lon="49.2137169"><time>2023-06-03T09:13:32.857</time></trkpt><trkpt lat="55.9477376" lon="49.2137817"><time>2023-06-03T09:13:33.810</time></trkpt><trkpt lat="55.9477399" lon="49.2139132"><time>2023-06-03T09:13:35.810</time></trkpt><trkpt lat="55.9477402" lon="49.2140563"><time>2023-06-03T09:13:37.823</time></trkpt><trkpt lat="55.9477391" lon="49.2142028"><time>2023-06-03T09:13:39.813</time></trkpt><trkpt lat="55.9477472" lon="49.2143427"><time>2023-06-03T09:13:41.817</time></trkpt><trkpt lat="55.9477453" lon="49.2144846"><time>2023-06-03T09:13:43.827</time></trkpt><trkpt lat="55.9477423" lon="49.2146186"><time>2023-06-03T09:13:45.830</time></trkpt><trkpt lat="55.9477418" lon="49.2146765"><time>2023-06-03T09:13:46.807</time></trkpt><trkpt lat="55.9477373" lon="49.2147850"><time>2023-06-03T09:13:48.807</time></trkpt><trkpt lat="55.9477216" lon="49.2149013"><time>2023-06-03T09:13:50.823</time></trkpt><trkpt lat="55.9476914" lon="49.2150155"><time>2023-06-03T09:13:52.883</time></trkpt><trkpt lat="55.9476914" lon="49.2150155"><time>2023-06-03T09:13:52.957</time></trkpt><trkpt lat="55.9476708" lon="49.2151137"><time>2023-06-03T09:13:54.833</time></trkpt><trkpt lat="55.9476643" lon="49.2151575"><time>2023-06-03T09:13:55.817</time></trkpt><trkpt lat="55.9476829" lon="49.2152385"><time>2023-06-03T09:14:00.810</time></trkpt><trkpt lat="55.9476997" lon="49.2151392"><time>2023-06-03T09:14:03.813</time></trkpt><trkpt lat="55.9476927" lon="49.2150422"><time>2023-06-03T09:14:05.820</time></trkpt><trkpt lat="55.9477041" lon="49.2149350"><time>2023-06-03T09:14:07.827</time></trkpt><trkpt lat="55.9477246" lon="49.2148342"><time>2023-06-03T09:14:09.817</time></trkpt><trkpt lat="55.9477494" lon="49.2147234"><time>2023-06-03T09:14:11.827</time></trkpt><trkpt lat="55.9477583" lon="49.2146049"><time>2023-06-03T09:14:13.820</time></trkpt><trkpt lat="55.9477558" lon="49.2144792"><time>2023-06-03T09:14:15.817</time></trkpt><trkpt lat="55.9477498" lon="49.2143558"><time>2023-06-03T09:14:17.813</time></trkpt><trkpt lat="55.9477456" lon="49.2142398"><time>2023-06-03T09:14:19.807</time></trkpt><trkpt lat="55.9477463" lon="49.2141214"><time>2023-06-03T09:14:21.817</time></trkpt><trkpt lat="55.9477471" lon="49.2139984"><time>2023-06-03T09:14:23.813</time></trkpt><trkpt lat="55.9477467" lon="49.2138776"><time>2023-06-03T09:14:25.813</time></trkpt><trkpt lat="55.9477460" lon="49.2137525"><time>2023-06-03T09:14:27.817</time></trkpt><trkpt lat="55.9477508" lon="49.2136194"><time>2023-06-03T09:14:29.817</time></trkpt><trkpt lat="55.9477688" lon="49.2134780"><time>2023-06-03T09:14:31.817</time></trkpt><trkpt lat="55.9477931" lon="49.2133485"><time>2023-06-03T09:14:33.813</time></trkpt><trkpt lat="55.9478220" lon="49.2132284"><time>2023-06-03T09:14:35.820</time></trkpt><trkpt lat="55.9478583" lon="49.2131226"><time>2023-06-03T09:14:37.817</time></trkpt><trkpt lat="55.9479011" lon="49.2130318"><time>2023-06-03T09:14:39.823</time></trkpt><trkpt lat="55.9479446" lon="49.2129460"><time>2023-06-03T09:14:41.813</time></trkpt><trkpt lat="55.9479830" lon="49.2128603"><time>2023-06-03T09:14:43.817</time></trkpt><trkpt lat="55.9480215" lon="49.2127643"><time>2023-06-03T09:14:45.813</time></trkpt><trkpt lat="55.9480699" lon="49.2126720"><time>2023-06-03T09:14:47.840</time></trkpt><trkpt lat="55.9481293" lon="49.2125954"><time>2023-06-03T09:14:49.827</time></trkpt><trkpt lat="55.9481904" lon="49.2125268"><time>2023-06-03T09:14:51.820</time></trkpt><trkpt lat="55.9482488" lon="49.2124674"><time>2023-06-03T09:14:53.813</time></trkpt><trkpt lat="55.9483037" lon="49.2124055"><time>2023-06-03T09:14:55.820</time></trkpt><trkpt lat="55.9483573" lon="49.2123280"><time>2023-06-03T09:14:57.820</time></trkpt><trkpt lat="55.9484178" lon="49.2122485"><time>2023-06-03T09:14:59.843</time></trkpt><trkpt lat="55.9484887" lon="49.2121620"><time>2023-06-03T09:15:01.817</time></trkpt><trkpt lat="55.9485605" lon="49.2120831"><time>2023-06-03T09:15:03.813</time></trkpt><trkpt lat="55.9486343" lon="49.2120182"><time>2023-06-03T09:15:05.817</time></trkpt><trkpt lat="55.9487105" lon="49.2119708"><time>2023-06-03T09:15:07.823</time></trkpt><trkpt lat="55.9487836" lon="49.2119418"><time>2023-06-03T09:15:09.827</time></trkpt><trkpt lat="55.9488538" lon="49.2119114"><time>2023-06-03T09:15:11.817</time></trkpt><trkpt lat="55.9489272" lon="49.2118964"><time>2023-06-03T09:15:13.823</time></trkpt><trkpt lat="55.9489942" lon="49.2118981"><time>2023-06-03T09:15:15.820</time></trkpt><trkpt lat="55.9490554" lon="49.2119006"><time>2023-06-03T09:15:17.827</time></trkpt><trkpt lat="55.9491210" lon="49.2118985"><time>2023-06-03T09:15:19.833</time></trkpt><trkpt lat="55.9491783" lon="49.2118897"><time>2023-06-03T09:15:21.817</time></trkpt><trkpt lat="55.9492351" lon="49.2118722"><time>2023-06-03T09:15:23.813</time></trkpt><trkpt lat="55.9492878" lon="49.2118633"><time>2023-06-03T09:15:25.817</time></trkpt><trkpt lat="55.9493518" lon="49.2118696"><time>2023-06-03T09:15:27.810</time></trkpt><trkpt lat="55.9494273" lon="49.2119232"><time>2023-06-03T09:15:29.837</time></trkpt><trkpt lat="55.9494669" lon="49.2119621"><time>2023-06-03T09:15:30.810</time></trkpt><trkpt lat="55.9495412" lon="49.2120408"><time>2023-06-03T09:15:32.840</time></trkpt><trkpt lat="55.9496158" lon="49.2121186"><time>2023-06-03T09:15:34.820</time></trkpt><trkpt lat="55.9496874" lon="49.2121934"><time>2023-06-03T09:15:36.820</time></trkpt><trkpt lat="55.9497531" lon="49.2122725"><time>2023-06-03T09:15:38.833</time></trkpt><trkpt lat="55.9498137" lon="49.2123605"><time>2023-06-03T09:15:40.813</time></trkpt><trkpt lat="55.9498676" lon="49.2124735"><time>2023-06-03T09:15:42.810</time></trkpt><trkpt lat="55.9499081" lon="49.2125949"><time>2023-06-03T09:15:44.843</time></trkpt><trkpt lat="55.9499339" lon="49.2127670"><time>2023-06-03T09:15:46.810</time></trkpt><trkpt lat="55.9499562" lon="49.2128398"><time>2023-06-03T09:15:47.817</time></trkpt><trkpt lat="55.9499892" lon="49.2129675"><time>2023-06-03T09:15:49.813</time></trkpt><trkpt lat="55.9500179" lon="49.2131015"><time>2023-06-03T09:15:51.817</time></trkpt><trkpt lat="55.9500364" lon="49.2132429"><time>2023-06-03T09:15:53.820</time></trkpt><trkpt lat="55.9500532" lon="49.2133559"><time>2023-06-03T09:15:55.823</time></trkpt><trkpt lat="55.9500270" lon="49.2134683"><time>2023-06-03T09:15:57.813</time></trkpt><trkpt lat="55.9500049" lon="49.2136130"><time>2023-06-03T09:15:59.807</time></trkpt><trkpt lat="55.9499822" lon="49.2137458"><time>2023-06-03T09:16:01.817</time></trkpt><trkpt lat="55.9499761" lon="49.2138986"><time>2023-06-03T09:16:03.830</time></trkpt><trkpt lat="55.9499933" lon="49.2140374"><time>2023-06-03T09:16:05.817</time></trkpt><trkpt lat="55.9500285" lon="49.2141804"><time>2023-06-03T09:16:07.830</time></trkpt><trkpt lat="55.9500290" lon="49.2142818"><time>2023-06-03T09:16:08.837</time></trkpt><trkpt lat="55.9500318" lon="49.2143623"><time>2023-06-03T09:16:09.817</time></trkpt><trkpt lat="55.9500321" lon="49.2144637"><time>2023-06-03T09:16:10.807</time></trkpt><trkpt lat="55.9500401" lon="49.2145625"><time>2023-06-03T09:16:11.823</time></trkpt><trkpt lat="55.9500609" lon="49.2146511"><time>2023-06-03T09:16:12.807</time></trkpt><trkpt lat="55.9500660" lon="49.2147502"><time>2023-06-03T09:16:13.820</time></trkpt><trkpt lat="55.9500795" lon="49.2148502"><time>2023-06-03T09:16:14.823</time></trkpt><trkpt lat="55.9500589" lon="49.2149313"><time>2023-06-03T09:16:15.817</time></trkpt><trkpt lat="55.9500344" lon="49.2150202"><time>2023-06-03T09:16:16.820</time></trkpt><trkpt lat="55.9499979" lon="49.2151529"><time>2023-06-03T09:16:18.813</time></trkpt><trkpt lat="55.9499808" lon="49.2152809"><time>2023-06-03T09:16:20.847</time></trkpt><trkpt lat="55.9499719" lon="49.2154456"><time>2023-06-03T09:16:22.810</time></trkpt><trkpt lat="55.9499644" lon="49.2155507"><time>2023-06-03T09:16:23.813</time></trkpt><trkpt lat="55.9499610" lon="49.2156319"><time>2023-06-03T09:16:24.807</time></trkpt><trkpt lat="55.9499558" lon="49.2157275"><time>2023-06-03T09:16:25.823</time></trkpt><trkpt lat="55.9499611" lon="49.2158387"><time>2023-06-03T09:16:26.837</time></trkpt><trkpt lat="55.9499755" lon="49.2159350"><time>2023-06-03T09:16:27.827</time></trkpt><trkpt lat="55.9499678" lon="49.2160307"><time>2023-06-03T09:16:28.807</time></trkpt><trkpt lat="55.9499767" lon="49.2161709"><time>2023-06-03T09:16:30.817</time></trkpt><trkpt lat="55.9499961" lon="49.2162555"><time>2023-06-03T09:16:31.813</time></trkpt><trkpt lat="55.9499948" lon="49.2163673"><time>2023-06-03T09:16:33.817</time></trkpt><trkpt lat="55.9499850" lon="49.2165155"><time>2023-06-03T09:16:35.803</time></trkpt><trkpt lat="55.9499804" lon="49.2165968"><time>2023-06-03T09:16:36.797</time></trkpt><trkpt lat="55.9500003" lon="49.2167276"><time>2023-06-03T09:16:38.830</time></trkpt><trkpt lat="55.9500192" lon="49.2168638"><time>2023-06-03T09:16:40.813</time></trkpt><trkpt lat="55.9500455" lon="49.2169667"><time>2023-06-03T09:16:42.813</time></trkpt><trkpt lat="55.9500528" lon="49.2170534"><time>2023-06-03T09:16:43.813</time></trkpt><trkpt lat="55.9500729" lon="49.2171463"><time>2023-06-03T09:16:44.837</time></trkpt><trkpt lat="55.9501001" lon="49.2172934"><time>2023-06-03T09:16:46.817</time></trkpt><trkpt lat="55.9501214" lon="49.2173833"><time>2023-06-03T09:16:47.813</time></trkpt><trkpt lat="55.9501402" lon="49.2174998"><time>2023-06-03T09:16:49.820</time></trkpt><trkpt lat="55.9501695" lon="49.2176269"><time>2023-06-03T09:16:51.823</time></trkpt><trkpt lat="55.9501641" lon="49.2177555"><time>2023-06-03T09:16:53.823</time></trkpt><trkpt lat="55.9501966" lon="49.2178740"><time>2023-06-03T09:16:55.827</time></trkpt><trkpt lat="55.9502162" lon="49.2179834"><time>2023-06-03T09:16:57.827</time></trkpt><trkpt lat="55.9502193" lon="49.2180867"><time>2023-06-03T09:16:59.793</time></trkpt><trkpt lat="55.9502288" lon="49.2182306"><time>2023-06-03T09:17:01.830</time></trkpt><trkpt lat="55.9502485" lon="49.2183740"><time>2023-06-03T09:17:02.827</time></trkpt><trkpt lat="55.9502348" lon="49.2184882"><time>2023-06-03T09:17:03.817</time></trkpt><trkpt lat="55.9502411" lon="49.2185758"><time>2023-06-03T09:17:04.817</time></trkpt><trkpt lat="55.9502768" lon="49.2187253"><time>2023-06-03T09:17:06.807</time></trkpt><trkpt lat="55.9503125" lon="49.2187879"><time>2023-06-03T09:17:07.813</time></trkpt><trkpt lat="55.9503441" lon="49.2189225"><time>2023-06-03T09:17:09.810</time></trkpt><trkpt lat="55.9503683" lon="49.2190232"><time>2023-06-03T09:17:11.813</time></trkpt><trkpt lat="55.9503656" lon="49.2191034"><time>2023-06-03T09:17:12.817</time></trkpt><trkpt lat="55.9503725" lon="49.2192409"><time>2023-06-03T09:17:14.830</time></trkpt><trkpt lat="55.9504016" lon="49.2193706"><time>2023-06-03T09:17:16.813</time></trkpt><trkpt lat="55.9504071" lon="49.2194516"><time>2023-06-03T09:17:17.827</time></trkpt><trkpt lat="55.9504414" lon="49.2195710"><time>2023-06-03T09:17:19.817</time></trkpt><trkpt lat="55.9504639" lon="49.2196468"><time>2023-06-03T09:17:20.850</time></trkpt><trkpt lat="55.9505112" lon="49.2197408"><time>2023-06-03T09:17:22.810</time></trkpt><trkpt lat="55.9505429" lon="49.2198188"><time>2023-06-03T09:17:23.813</time></trkpt><trkpt lat="55.9505920" lon="49.2199411"><time>2023-06-03T09:17:25.820</time></trkpt><trkpt lat="55.9506280" lon="49.2200390"><time>2023-06-03T09:17:27.837</time></trkpt><trkpt lat="55.9506658" lon="49.2201450"><time>2023-06-03T09:17:29.797</time></trkpt><trkpt lat="55.9507202" lon="49.2202567"><time>2023-06-03T09:17:31.797</time></trkpt><trkpt lat="55.9507521" lon="49.2203675"><time>2023-06-03T09:17:33.827</time></trkpt><trkpt lat="55.9507886" lon="49.2204960"><time>2023-06-03T09:17:35.817</time></trkpt><trkpt lat="55.9508293" lon="49.2206107"><time>2023-06-03T09:17:37.810</time></trkpt><trkpt lat="55.9508736" lon="49.2207045"><time>2023-06-03T09:17:39.813</time></trkpt><trkpt lat="55.9509195" lon="49.2208014"><time>2023-06-03T09:17:41.817</time></trkpt><trkpt lat="55.9509632" lon="49.2209199"><time>2023-06-03T09:17:43.813</time></trkpt><trkpt lat="55.9510012" lon="49.2210336"><time>2023-06-03T09:17:45.810</time></trkpt><trkpt lat="55.9510525" lon="49.2211531"><time>2023-06-03T09:17:47.813</time></trkpt><trkpt lat="55.9511002" lon="49.2212672"><time>2023-06-03T09:17:49.817</time></trkpt><trkpt lat="55.9511571" lon="49.2213869"><time>2023-06-03T09:17:51.830</time></trkpt><trkpt lat="55.9512028" lon="49.2214401"><time>2023-06-03T09:17:52.813</time></trkpt><trkpt lat="55.9512678" lon="49.2215109"><time>2023-06-03T09:17:54.827</time></trkpt><trkpt lat="55.9513462" lon="49.2215233"><time>2023-06-03T09:17:56.850</time></trkpt><trkpt lat="55.9513597" lon="49.2216144"><time>2023-06-03T09:17:57.817</time></trkpt><trkpt lat="55.9513731" lon="49.2217220"><time>2023-06-03T09:17:58.813</time></trkpt><trkpt lat="55.9513945" lon="49.2218808"><time>2023-06-03T09:18:00.820</time></trkpt><trkpt lat="55.9514090" lon="49.2220278"><time>2023-06-03T09:18:02.833</time></trkpt><trkpt lat="55.9514286" lon="49.2221498"><time>2023-06-03T09:18:04.813</time></trkpt><trkpt lat="55.9514481" lon="49.2222888"><time>2023-06-03T09:18:06.817</time></trkpt><trkpt lat="55.9514653" lon="49.2223652"><time>2023-06-03T09:18:07.830</time></trkpt><trkpt lat="55.9515016" lon="49.2224657"><time>2023-06-03T09:18:09.810</time></trkpt><trkpt lat="55.9514951" lon="49.2225905"><time>2023-06-03T09:18:10.810</time></trkpt><trkpt lat="55.9515289" lon="49.2227397"><time>2023-06-03T09:18:12.807</time></trkpt><trkpt lat="55.9515643" lon="49.2228699"><time>2023-06-03T09:18:14.830</time></trkpt><trkpt lat="55.9515926" lon="49.2230234"><time>2023-06-03T09:18:16.807</time></trkpt><trkpt lat="55.9516197" lon="49.2230959"><time>2023-06-03T09:18:17.823</time></trkpt><trkpt lat="55.9516081" lon="49.2231765"><time>2023-06-03T09:18:18.813</time></trkpt><trkpt lat="55.9516121" lon="49.2233104"><time>2023-06-03T09:18:20.843</time></trkpt><trkpt lat="55.9516079" lon="49.2234447"><time>2023-06-03T09:18:22.813</time></trkpt><trkpt lat="55.9516176" lon="49.2235891"><time>2023-06-03T09:18:24.813</time></trkpt><trkpt lat="55.9516715" lon="49.2236592"><time>2023-06-03T09:18:26.830</time></trkpt><trkpt lat="55.9517160" lon="49.2237466"><time>2023-06-03T09:18:28.820</time></trkpt><trkpt lat="55.9517757" lon="49.2237904"><time>2023-06-03T09:18:30.810</time></trkpt><trkpt lat="55.9518217" lon="49.2237656"><time>2023-06-03T09:18:31.813</time></trkpt><trkpt lat="55.9518792" lon="49.2237041"><time>2023-06-03T09:18:33.810</time></trkpt><trkpt lat="55.9519266" lon="49.2236368"><time>2023-06-03T09:18:35.817</time></trkpt><trkpt lat="55.9519800" lon="49.2235776"><time>2023-06-03T09:18:37.813</time></trkpt><trkpt lat="55.9520318" lon="49.2235311"><time>2023-06-03T09:18:39.820</time></trkpt><trkpt lat="55.9520774" lon="49.2234994"><time>2023-06-03T09:18:41.810</time></trkpt><trkpt lat="55.9521278" lon="49.2235056"><time>2023-06-03T09:18:43.817</time></trkpt><trkpt lat="55.9521791" lon="49.2235555"><time>2023-06-03T09:18:45.820</time></trkpt><trkpt lat="55.9522297" lon="49.2236076"><time>2023-06-03T09:18:47.833</time></trkpt><trkpt lat="55.9522823" lon="49.2236971"><time>2023-06-03T09:18:49.817</time></trkpt><trkpt lat="55.9523009" lon="49.2238370"><time>2023-06-03T09:18:51.817</time></trkpt><trkpt lat="55.9522864" lon="49.2239817"><time>2023-06-03T09:18:53.817</time></trkpt><trkpt lat="55.9522418" lon="49.2241399"><time>2023-06-03T09:18:55.817</time></trkpt><trkpt lat="55.9522224" lon="49.2242175"><time>2023-06-03T09:18:56.847</time></trkpt><trkpt lat="55.9522208" lon="49.2243670"><time>2023-06-03T09:18:58.813</time></trkpt><trkpt lat="55.9522149" lon="49.2244805"><time>2023-06-03T09:19:00.820</time></trkpt><trkpt lat="55.9521796" lon="49.2245815"><time>2023-06-03T09:19:02.820</time></trkpt><trkpt lat="55.9521436" lon="49.2246379"><time>2023-06-03T09:19:04.817</time></trkpt><trkpt lat="55.9520854" lon="49.2247382"><time>2023-06-03T09:19:06.817</time></trkpt><trkpt lat="55.9520279" lon="49.2248381"><time>2023-06-03T09:19:08.850</time></trkpt><trkpt lat="55.9519723" lon="49.2249238"><time>2023-06-03T09:19:10.817</time></trkpt><trkpt lat="55.9519102" lon="49.2250212"><time>2023-06-03T09:19:12.820</time></trkpt><trkpt lat="55.9518516" lon="49.2251227"><time>2023-06-03T09:19:14.827</time></trkpt><trkpt lat="55.9517881" lon="49.2252212"><time>2023-06-03T09:19:16.813</time></trkpt><trkpt lat="55.9517436" lon="49.2252525"><time>2023-06-03T09:19:17.820</time></trkpt><trkpt lat="55.9516700" lon="49.2253577"><time>2023-06-03T09:19:19.817</time></trkpt><trkpt lat="55.9516008" lon="49.2254444"><time>2023-06-03T09:19:21.817</time></trkpt><trkpt lat="55.9515615" lon="49.2254851"><time>2023-06-03T09:19:22.810</time></trkpt><trkpt lat="55.9514899" lon="49.2255160"><time>2023-06-03T09:19:24.810</time></trkpt><trkpt lat="55.9514176" lon="49.2255301"><time>2023-06-03T09:19:26.830</time></trkpt><trkpt lat="55.9513592" lon="49.2255675"><time>2023-06-03T09:19:28.807</time></trkpt><trkpt lat="55.9512983" lon="49.2255986"><time>2023-06-03T09:19:30.803</time></trkpt><trkpt lat="55.9512324" lon="49.2256303"><time>2023-06-03T09:19:32.843</time></trkpt><trkpt lat="55.9511669" lon="49.2256612"><time>2023-06-03T09:19:34.833</time></trkpt><trkpt lat="55.9511010" lon="49.2256955"><time>2023-06-03T09:19:36.810</time></trkpt><trkpt lat="55.9510245" lon="49.2257331"><time>2023-06-03T09:19:38.827</time></trkpt><trkpt lat="55.9509638" lon="49.2257758"><time>2023-06-03T09:19:40.810</time></trkpt><trkpt lat="55.9508986" lon="49.2258288"><time>2023-06-03T09:19:42.813</time></trkpt><trkpt lat="55.9508293" lon="49.2259024"><time>2023-06-03T09:19:44.850</time></trkpt><trkpt lat="55.9507603" lon="49.2259692"><time>2023-06-03T09:19:46.807</time></trkpt><trkpt lat="55.9507168" lon="49.2259926"><time>2023-06-03T09:19:47.817</time></trkpt><trkpt lat="55.9506693" lon="49.2260124"><time>2023-06-03T09:19:48.807</time></trkpt><trkpt lat="55.9505969" lon="49.2260152"><time>2023-06-03T09:19:49.807</time></trkpt><trkpt lat="55.9505401" lon="49.2260441"><time>2023-06-03T09:19:50.823</time></trkpt><trkpt lat="55.9504829" lon="49.2260923"><time>2023-06-03T09:19:51.810</time></trkpt><trkpt lat="55.9504404" lon="49.2261385"><time>2023-06-03T09:19:52.810</time></trkpt><trkpt lat="55.9504211" lon="49.2262137"><time>2023-06-03T09:19:53.820</time></trkpt><trkpt lat="55.9504235" lon="49.2263048"><time>2023-06-03T09:19:54.810</time></trkpt><trkpt lat="55.9503892" lon="49.2264653"><time>2023-06-03T09:19:56.837</time></trkpt><trkpt lat="55.9503808" lon="49.2265503"><time>2023-06-03T09:19:57.810</time></trkpt><trkpt lat="55.9503678" lon="49.2266444"><time>2023-06-03T09:19:58.813</time></trkpt><trkpt lat="55.9503482" lon="49.2267253"><time>2023-06-03T09:19:59.823</time></trkpt><trkpt lat="55.9503179" lon="49.2268514"><time>2023-06-03T09:20:01.823</time></trkpt><trkpt lat="55.9502842" lon="49.2269102"><time>2023-06-03T09:20:02.827</time></trkpt><trkpt lat="55.9502673" lon="49.2270419"><time>2023-06-03T09:20:04.807</time></trkpt><trkpt lat="55.9502591" lon="49.2271231"><time>2023-06-03T09:20:05.810</time></trkpt><trkpt lat="55.9502363" lon="49.2272740"><time>2023-06-03T09:20:07.813</time></trkpt><trkpt lat="55.9501920" lon="49.2274113"><time>2023-06-03T09:20:09.820</time></trkpt><trkpt lat="55.9501669" lon="49.2274821"><time>2023-06-03T09:20:10.820</time></trkpt><trkpt lat="55.9501475" lon="49.2275548"><time>2023-06-03T09:20:11.813</time></trkpt><trkpt lat="55.9501260" lon="49.2276260"><time>2023-06-03T09:20:12.823</time></trkpt><trkpt lat="55.9500937" lon="49.2277063"><time>2023-06-03T09:20:13.813</time></trkpt><trkpt lat="55.9500769" lon="49.2278318"><time>2023-06-03T09:20:15.823</time></trkpt><trkpt lat="55.9500241" lon="49.2279489"><time>2023-06-03T09:20:17.813</time></trkpt><trkpt lat="55.9499672" lon="49.2280359"><time>2023-06-03T09:20:19.817</time></trkpt><trkpt lat="55.9499201" lon="49.2280912"><time>2023-06-03T09:20:21.810</time></trkpt><trkpt lat="55.9498757" lon="49.2281118"><time>2023-06-03T09:20:38.827</time></trkpt><trkpt lat="55.9498400" lon="49.2281897"><time>2023-06-03T09:20:41.810</time></trkpt><trkpt lat="55.9498298" lon="49.2282918"><time>2023-06-03T09:20:43.830</time></trkpt><trkpt lat="55.9498432" lon="49.2284449"><time>2023-06-03T09:20:45.810</time></trkpt><trkpt lat="55.9498555" lon="49.2285263"><time>2023-06-03T09:20:46.813</time></trkpt><trkpt lat="55.9498818" lon="49.2286366"><time>2023-06-03T09:20:47.813</time></trkpt><trkpt lat="55.9498831" lon="49.2287251"><time>2023-06-03T09:20:48.807</time></trkpt><trkpt lat="55.9498998" lon="49.2288838"><time>2023-06-03T09:20:50.827</time></trkpt><trkpt lat="55.9499136" lon="49.2289803"><time>2023-06-03T09:20:51.807</time></trkpt><trkpt lat="55.9499372" lon="49.2291474"><time>2023-06-03T09:20:53.807</time></trkpt><trkpt lat="55.9499467" lon="49.2292491"><time>2023-06-03T09:20:54.807</time></trkpt><trkpt lat="55.9499625" lon="49.2293421"><time>2023-06-03T09:20:55.817</time></trkpt><trkpt lat="55.9499729" lon="49.2294238"><time>2023-06-03T09:20:56.847</time></trkpt><trkpt lat="55.9499863" lon="49.2295154"><time>2023-06-03T09:20:57.813</time></trkpt><trkpt lat="55.9499953" lon="49.2296044"><time>2023-06-03T09:20:58.817</time></trkpt><trkpt lat="55.9500081" lon="49.2296988"><time>2023-06-03T09:20:59.817</time></trkpt><trkpt lat="55.9500127" lon="49.2298066"><time>2023-06-03T09:21:00.813</time></trkpt><trkpt lat="55.9500298" lon="49.2298968"><time>2023-06-03T09:21:01.823</time></trkpt><trkpt lat="55.9500430" lon="49.2299832"><time>2023-06-03T09:21:02.820</time></trkpt><trkpt lat="55.9500582" lon="49.2300905"><time>2023-06-03T09:21:03.813</time></trkpt><trkpt lat="55.9500715" lon="49.2301908"><time>2023-06-03T09:21:04.810</time></trkpt><trkpt lat="55.9500827" lon="49.2302791"><time>2023-06-03T09:21:05.810</time></trkpt><trkpt lat="55.9501031" lon="49.2303667"><time>2023-06-03T09:21:06.797</time></trkpt><trkpt lat="55.9501274" lon="49.2304649"><time>2023-06-03T09:21:07.813</time></trkpt><trkpt lat="55.9501393" lon="49.2305823"><time>2023-06-03T09:21:08.830</time></trkpt><trkpt lat="55.9501574" lon="49.2306948"><time>2023-06-03T09:21:09.810</time></trkpt><trkpt lat="55.9501832" lon="49.2307965"><time>2023-06-03T09:21:10.813</time></trkpt><trkpt lat="55.9501959" lon="49.2309082"><time>2023-06-03T09:21:11.807</time></trkpt><trkpt lat="55.9502240" lon="49.2310142"><time>2023-06-03T09:21:12.813</time></trkpt><trkpt lat="55.9502450" lon="49.2311066"><time>2023-06-03T09:21:13.810</time></trkpt><trkpt lat="55.9502540" lon="49.2312128"><time>2023-06-03T09:21:14.820</time></trkpt><trkpt lat="55.9502604" lon="49.2313293"><time>2023-06-03T09:21:15.813</time></trkpt><trkpt lat="55.9502679" lon="49.2314318"><time>2023-06-03T09:21:16.817</time></trkpt><trkpt lat="55.9502793" lon="49.2315359"><time>2023-06-03T09:21:17.817</time></trkpt><trkpt lat="55.9503014" lon="49.2316557"><time>2023-06-03T09:21:18.813</time></trkpt><trkpt lat="55.9503124" lon="49.2317490"><time>2023-06-03T09:21:19.817</time></trkpt><trkpt lat="55.9503231" lon="49.2318291"><time>2023-06-03T09:21:20.813</time></trkpt><trkpt lat="55.9503575" lon="49.2318888"><time>2023-06-03T09:21:21.813</time></trkpt><trkpt lat="55.9503733" lon="49.2319830"><time>2023-06-03T09:21:22.837</time></trkpt><trkpt lat="55.9503827" lon="49.2320682"><time>2023-06-03T09:21:23.810</time></trkpt><trkpt lat="55.9503916" lon="49.2321808"><time>2023-06-03T09:21:24.810</time></trkpt><trkpt lat="55.9503959" lon="49.2322867"><time>2023-06-03T09:21:25.813</time></trkpt><trkpt lat="55.9504155" lon="49.2324205"><time>2023-06-03T09:21:26.810</time></trkpt><trkpt lat="55.9504371" lon="49.2325409"><time>2023-06-03T09:21:27.807</time></trkpt><trkpt lat="55.9504438" lon="49.2326534"><time>2023-06-03T09:21:28.830</time></trkpt><trkpt lat="55.9504554" lon="49.2327519"><time>2023-06-03T09:21:29.817</time></trkpt><trkpt lat="55.9504827" lon="49.2328490"><time>2023-06-03T09:21:30.813</time></trkpt><trkpt lat="55.9504975" lon="49.2329554"><time>2023-06-03T09:21:31.810</time></trkpt><trkpt lat="55.9505180" lon="49.2330643"><time>2023-06-03T09:21:32.813</time></trkpt><trkpt lat="55.9505127" lon="49.2332117"><time>2023-06-03T09:21:33.843</time></trkpt><trkpt lat="55.9505243" lon="49.2333426"><time>2023-06-03T09:21:34.853</time></trkpt><trkpt lat="55.9505498" lon="49.2334240"><time>2023-06-03T09:21:35.807</time></trkpt><trkpt lat="55.9505692" lon="49.2335142"><time>2023-06-03T09:21:36.813</time></trkpt><trkpt lat="55.9505893" lon="49.2336439"><time>2023-06-03T09:21:37.813</time></trkpt><trkpt lat="55.9506008" lon="49.2337701"><time>2023-06-03T09:21:38.810</time></trkpt><trkpt lat="55.9506167" lon="49.2338966"><time>2023-06-03T09:21:39.827</time></trkpt><trkpt lat="55.9506291" lon="49.2340239"><time>2023-06-03T09:21:40.827</time></trkpt><trkpt lat="55.9506345" lon="49.2341369"><time>2023-06-03T09:21:41.810</time></trkpt><trkpt lat="55.9506402" lon="49.2342394"><time>2023-06-03T09:21:42.807</time></trkpt><trkpt lat="55.9506335" lon="49.2343388"><time>2023-06-03T09:21:43.823</time></trkpt><trkpt lat="55.9506143" lon="49.2344517"><time>2023-06-03T09:21:44.810</time></trkpt><trkpt lat="55.9506079" lon="49.2345654"><time>2023-06-03T09:21:45.817</time></trkpt><trkpt lat="55.9506018" lon="49.2346681"><time>2023-06-03T09:21:46.847</time></trkpt><trkpt lat="55.9505906" lon="49.2347598"><time>2023-06-03T09:21:47.820</time></trkpt><trkpt lat="55.9505821" lon="49.2348758"><time>2023-06-03T09:21:48.813</time></trkpt><trkpt lat="55.9505694" lon="49.2349795"><time>2023-06-03T09:21:49.827</time></trkpt><trkpt lat="55.9505581" lon="49.2350732"><time>2023-06-03T09:21:50.817</time></trkpt><trkpt lat="55.9505442" lon="49.2351730"><time>2023-06-03T09:21:51.807</time></trkpt><trkpt lat="55.9505389" lon="49.2352741"><time>2023-06-03T09:21:52.837</time></trkpt><trkpt lat="55.9505318" lon="49.2353690"><time>2023-06-03T09:21:53.827</time></trkpt><trkpt lat="55.9505137" lon="49.2354783"><time>2023-06-03T09:21:54.820</time></trkpt><trkpt lat="55.9505046" lon="49.2355773"><time>2023-06-03T09:21:55.830</time></trkpt><trkpt lat="55.9504895" lon="49.2356726"><time>2023-06-03T09:21:56.817</time></trkpt><trkpt lat="55.9504683" lon="49.2357955"><time>2023-06-03T09:21:57.817</time></trkpt><trkpt lat="55.9504340" lon="49.2358684"><time>2023-06-03T09:21:58.837</time></trkpt><trkpt lat="55.9504206" lon="49.2359601"><time>2023-06-03T09:21:59.810</time></trkpt><trkpt lat="55.9504026" lon="49.2360647"><time>2023-06-03T09:22:00.810</time></trkpt><trkpt lat="55.9503803" lon="49.2361724"><time>2023-06-03T09:22:01.807</time></trkpt><trkpt lat="55.9503429" lon="49.2362834"><time>2023-06-03T09:22:02.810</time></trkpt><trkpt lat="55.9503189" lon="49.2363839"><time>2023-06-03T09:22:03.830</time></trkpt><trkpt lat="55.9502947" lon="49.2364923"><time>2023-06-03T09:22:04.837</time></trkpt><trkpt lat="55.9502745" lon="49.2365799"><time>2023-06-03T09:22:05.807</time></trkpt><trkpt lat="55.9502446" lon="49.2366716"><time>2023-06-03T09:22:06.813</time></trkpt><trkpt lat="55.9502014" lon="49.2367541"><time>2023-06-03T09:22:07.823</time></trkpt><trkpt lat="55.9501658" lon="49.2368284"><time>2023-06-03T09:22:08.833</time></trkpt><trkpt lat="55.9501293" lon="49.2369068"><time>2023-06-03T09:22:09.817</time></trkpt><trkpt lat="55.9500807" lon="49.2369731"><time>2023-06-03T09:22:10.850</time></trkpt><trkpt lat="55.9500367" lon="49.2370427"><time>2023-06-03T09:22:11.867</time></trkpt><trkpt lat="55.9499874" lon="49.2371031"><time>2023-06-03T09:22:12.813</time></trkpt><trkpt lat="55.9499356" lon="49.2371543"><time>2023-06-03T09:22:13.827</time></trkpt><trkpt lat="55.9498939" lon="49.2372145"><time>2023-06-03T09:22:14.810</time></trkpt><trkpt lat="55.9498356" lon="49.2372574"><time>2023-06-03T09:22:15.823</time></trkpt><trkpt lat="55.9497841" lon="49.2373098"><time>2023-06-03T09:22:16.820</time></trkpt><trkpt lat="55.9497303" lon="49.2373729"><time>2023-06-03T09:22:17.817</time></trkpt><trkpt lat="55.9496783" lon="49.2374194"><time>2023-06-03T09:22:18.803</time></trkpt><trkpt lat="55.9496271" lon="49.2374625"><time>2023-06-03T09:22:19.820</time></trkpt><trkpt lat="55.9495712" lon="49.2375096"><time>2023-06-03T09:22:20.817</time></trkpt><trkpt lat="55.9495184" lon="49.2375533"><time>2023-06-03T09:22:21.817</time></trkpt><trkpt lat="55.9494640" lon="49.2375987"><time>2023-06-03T09:22:22.843</time></trkpt><trkpt lat="55.9494024" lon="49.2376465"><time>2023-06-03T09:22:23.823</time></trkpt><trkpt lat="55.9493460" lon="49.2376957"><time>2023-06-03T09:22:24.810</time></trkpt><trkpt lat="55.9492966" lon="49.2377641"><time>2023-06-03T09:22:25.817</time></trkpt><trkpt lat="55.9492432" lon="49.2377798"><time>2023-06-03T09:22:26.817</time></trkpt><trkpt lat="55.9491850" lon="49.2378242"><time>2023-06-03T09:22:27.820</time></trkpt><trkpt lat="55.9491316" lon="49.2378873"><time>2023-06-03T09:22:28.823</time></trkpt><trkpt lat="55.9490760" lon="49.2379432"><time>2023-06-03T09:22:29.823</time></trkpt><trkpt lat="55.9490114" lon="49.2379799"><time>2023-06-03T09:22:30.810</time></trkpt><trkpt lat="55.9489521" lon="49.2380325"><time>2023-06-03T09:22:31.810</time></trkpt><trkpt lat="55.9488942" lon="49.2380758"><time>2023-06-03T09:22:32.807</time></trkpt><trkpt lat="55.9488390" lon="49.2381369"><time>2023-06-03T09:22:33.817</time></trkpt><trkpt lat="55.9487799" lon="49.2381723"><time>2023-06-03T09:22:34.840</time></trkpt><trkpt lat="55.9487225" lon="49.2382155"><time>2023-06-03T09:22:35.807</time></trkpt><trkpt lat="55.9486555" lon="49.2382645"><time>2023-06-03T09:22:36.810</time></trkpt><trkpt lat="55.9485929" lon="49.2383152"><time>2023-06-03T09:22:37.817</time></trkpt><trkpt lat="55.9485325" lon="49.2383734"><time>2023-06-03T09:22:38.813</time></trkpt><trkpt lat="55.9484783" lon="49.2384119"><time>2023-06-03T09:22:39.813</time></trkpt><trkpt lat="55.9484208" lon="49.2384496"><time>2023-06-03T09:22:40.830</time></trkpt><trkpt lat="55.9483623" lon="49.2384984"><time>2023-06-03T09:22:41.807</time></trkpt><trkpt lat="55.9483149" lon="49.2385430"><time>2023-06-03T09:22:42.813</time></trkpt><trkpt lat="55.9482554" lon="49.2385876"><time>2023-06-03T09:22:43.810</time></trkpt><trkpt lat="55.9481954" lon="49.2386420"><time>2023-06-03T09:22:44.810</time></trkpt><trkpt lat="55.9481411" lon="49.2386834"><time>2023-06-03T09:22:45.817</time></trkpt><trkpt lat="55.9480873" lon="49.2387434"><time>2023-06-03T09:22:46.847</time></trkpt><trkpt lat="55.9480341" lon="49.2387881"><time>2023-06-03T09:22:47.810</time></trkpt><trkpt lat="55.9479784" lon="49.2388466"><time>2023-06-03T09:22:48.807</time></trkpt><trkpt lat="55.9479213" lon="49.2388949"><time>2023-06-03T09:22:49.813</time></trkpt><trkpt lat="55.9478643" lon="49.2389441"><time>2023-06-03T09:22:50.810</time></trkpt><trkpt lat="55.9478041" lon="49.2389910"><time>2023-06-03T09:22:51.823</time></trkpt><trkpt lat="55.9477530" lon="49.2390372"><time>2023-06-03T09:22:52.823</time></trkpt><trkpt lat="55.9476952" lon="49.2390892"><time>2023-06-03T09:22:53.813</time></trkpt><trkpt lat="55.9476307" lon="49.2391399"><time>2023-06-03T09:22:54.810</time></trkpt><trkpt lat="55.9475748" lon="49.2391727"><time>2023-06-03T09:22:55.817</time></trkpt><trkpt lat="55.9475158" lon="49.2392304"><time>2023-06-03T09:22:56.803</time></trkpt><trkpt lat="55.9474554" lon="49.2392753"><time>2023-06-03T09:22:57.807</time></trkpt><trkpt lat="55.9473968" lon="49.2393295"><time>2023-06-03T09:22:58.837</time></trkpt><trkpt lat="55.9473391" lon="49.2393755"><time>2023-06-03T09:22:59.810</time></trkpt><trkpt lat="55.9472834" lon="49.2394223"><time>2023-06-03T09:23:00.817</time></trkpt><trkpt lat="55.9472283" lon="49.2394751"><time>2023-06-03T09:23:01.810</time></trkpt><trkpt lat="55.9471726" lon="49.2395275"><time>2023-06-03T09:23:02.810</time></trkpt><trkpt lat="55.9471130" lon="49.2395711"><time>2023-06-03T09:23:03.817</time></trkpt><trkpt lat="55.9470570" lon="49.2396180"><time>2023-06-03T09:23:04.817</time></trkpt><trkpt lat="55.9470070" lon="49.2396581"><time>2023-06-03T09:23:05.807</time></trkpt><trkpt lat="55.9469556" lon="49.2397083"><time>2023-06-03T09:23:06.820</time></trkpt><trkpt lat="55.9468946" lon="49.2397583"><time>2023-06-03T09:23:07.823</time></trkpt><trkpt lat="55.9468428" lon="49.2398244"><time>2023-06-03T09:23:08.810</time></trkpt><trkpt lat="55.9467858" lon="49.2398831"><time>2023-06-03T09:23:09.820</time></trkpt><trkpt lat="55.9467365" lon="49.2399500"><time>2023-06-03T09:23:10.837</time></trkpt><trkpt lat="55.9466802" lon="49.2400202"><time>2023-06-03T09:23:11.810</time></trkpt><trkpt lat="55.9466352" lon="49.2401008"><time>2023-06-03T09:23:12.813</time></trkpt><trkpt lat="55.9466017" lon="49.2401770"><time>2023-06-03T09:23:13.813</time></trkpt><trkpt lat="55.9465477" lon="49.2402614"><time>2023-06-03T09:23:14.817</time></trkpt><trkpt lat="55.9465013" lon="49.2403400"><time>2023-06-03T09:23:15.813</time></trkpt><trkpt lat="55.9464529" lon="49.2404181"><time>2023-06-03T09:23:16.827</time></trkpt><trkpt lat="55.9464106" lon="49.2404942"><time>2023-06-03T09:23:17.810</time></trkpt><trkpt lat="55.9463636" lon="49.2405843"><time>2023-06-03T09:23:18.813</time></trkpt><trkpt lat="55.9463303" lon="49.2406661"><time>2023-06-03T09:23:19.817</time></trkpt><trkpt lat="55.9462959" lon="49.2407415"><time>2023-06-03T09:23:20.810</time></trkpt><trkpt lat="55.9462570" lon="49.2408220"><time>2023-06-03T09:23:21.817</time></trkpt><trkpt lat="55.9462267" lon="49.2408893"><time>2023-06-03T09:23:22.840</time></trkpt><trkpt lat="55.9461703" lon="49.2409150"><time>2023-06-03T09:23:25.820</time></trkpt><trkpt lat="55.9461402" lon="49.2408520"><time>2023-06-03T09:23:27.813</time></trkpt><trkpt lat="55.9461084" lon="49.2407773"><time>2023-06-03T09:23:29.813</time></trkpt><trkpt lat="55.9460615" lon="49.2407249"><time>2023-06-03T09:23:31.810</time></trkpt><trkpt lat="55.9460040" lon="49.2406626"><time>2023-06-03T09:23:33.827</time></trkpt><trkpt lat="55.9459379" lon="49.2405860"><time>2023-06-03T09:23:35.817</time></trkpt><trkpt lat="55.9458761" lon="49.2404976"><time>2023-06-03T09:23:37.810</time></trkpt><trkpt lat="55.9458147" lon="49.2404081"><time>2023-06-03T09:23:39.813</time></trkpt><trkpt lat="55.9457431" lon="49.2403336"><time>2023-06-03T09:23:41.817</time></trkpt><trkpt lat="55.9456800" lon="49.2402168"><time>2023-06-03T09:23:43.813</time></trkpt><trkpt lat="55.9456154" lon="49.2401141"><time>2023-06-03T09:23:45.817</time></trkpt><trkpt lat="55.9455576" lon="49.2400332"><time>2023-06-03T09:23:47.827</time></trkpt><trkpt lat="55.9455077" lon="49.2399171"><time>2023-06-03T09:23:49.820</time></trkpt><trkpt lat="55.9454833" lon="49.2398457"><time>2023-06-03T09:23:50.817</time></trkpt><trkpt lat="55.9454622" lon="49.2397698"><time>2023-06-03T09:23:51.807</time></trkpt><trkpt lat="55.9454356" lon="49.2396318"><time>2023-06-03T09:23:53.810</time></trkpt><trkpt lat="55.9454103" lon="49.2394908"><time>2023-06-03T09:23:55.813</time></trkpt><trkpt lat="55.9453890" lon="49.2393486"><time>2023-06-03T09:23:57.813</time></trkpt><trkpt lat="55.9453705" lon="49.2391968"><time>2023-06-03T09:23:59.817</time></trkpt><trkpt lat="55.9453439" lon="49.2390543"><time>2023-06-03T09:24:01.810</time></trkpt><trkpt lat="55.9453189" lon="49.2389027"><time>2023-06-03T09:24:03.813</time></trkpt><trkpt lat="55.9452904" lon="49.2387621"><time>2023-06-03T09:24:05.810</time></trkpt><trkpt lat="55.9452739" lon="49.2386862"><time>2023-06-03T09:24:06.803</time></trkpt><trkpt lat="55.9452475" lon="49.2385419"><time>2023-06-03T09:24:08.813</time></trkpt><trkpt lat="55.9452241" lon="49.2384059"><time>2023-06-03T09:24:10.857</time></trkpt><trkpt lat="55.9452001" lon="49.2382567"><time>2023-06-03T09:24:12.817</time></trkpt><trkpt lat="55.9451751" lon="49.2381132"><time>2023-06-03T09:24:14.817</time></trkpt><trkpt lat="55.9451438" lon="49.2379730"><time>2023-06-03T09:24:16.827</time></trkpt><trkpt lat="55.9451083" lon="49.2378223"><time>2023-06-03T09:24:18.813</time></trkpt><trkpt lat="55.9450918" lon="49.2377400"><time>2023-06-03T09:24:19.833</time></trkpt><trkpt lat="55.9450897" lon="49.2376566"><time>2023-06-03T09:24:20.813</time></trkpt><trkpt lat="55.9450636" lon="49.2375244"><time>2023-06-03T09:24:22.813</time></trkpt><trkpt lat="55.9450544" lon="49.2374251"><time>2023-06-03T09:24:24.813</time></trkpt><trkpt lat="55.9450408" lon="49.2373229"><time>2023-06-03T09:24:26.803</time></trkpt><trkpt lat="55.9450290" lon="49.2372291"><time>2023-06-03T09:24:28.807</time></trkpt><trkpt lat="55.9450269" lon="49.2371014"><time>2023-06-03T09:24:30.807</time></trkpt><trkpt lat="55.9450213" lon="49.2369797"><time>2023-06-03T09:24:32.813</time></trkpt><trkpt lat="55.9450067" lon="49.2368697"><time>2023-06-03T09:24:34.813</time></trkpt><trkpt lat="55.9449804" lon="49.2367791"><time>2023-06-03T09:24:36.810</time></trkpt><trkpt lat="55.9449609" lon="49.2366461"><time>2023-06-03T09:24:56.847</time></trkpt><trkpt lat="55.9449453" lon="49.2365086"><time>2023-06-03T09:24:58.810</time></trkpt><trkpt lat="55.9449211" lon="49.2363595"><time>2023-06-03T09:25:00.817</time></trkpt><trkpt lat="55.9449037" lon="49.2361999"><time>2023-06-03T09:25:02.823</time></trkpt><trkpt lat="55.9448901" lon="49.2360476"><time>2023-06-03T09:25:04.817</time></trkpt><trkpt lat="55.9448728" lon="49.2359119"><time>2023-06-03T09:25:06.810</time></trkpt><trkpt lat="55.9448530" lon="49.2357805"><time>2023-06-03T09:25:08.847</time></trkpt><trkpt lat="55.9448372" lon="49.2356437"><time>2023-06-03T09:25:10.813</time></trkpt><trkpt lat="55.9448198" lon="49.2355008"><time>2023-06-03T09:25:12.813</time></trkpt><trkpt lat="55.9448032" lon="49.2353590"><time>2023-06-03T09:25:14.830</time></trkpt><trkpt lat="55.9447838" lon="49.2352298"><time>2023-06-03T09:25:16.817</time></trkpt><trkpt lat="55.9447664" lon="49.2351074"><time>2023-06-03T09:25:18.810</time></trkpt><trkpt lat="55.9447542" lon="49.2349747"><time>2023-06-03T09:25:20.850</time></trkpt><trkpt lat="55.9447517" lon="49.2348358"><time>2023-06-03T09:25:22.807</time></trkpt><trkpt lat="55.9447661" lon="49.2347170"><time>2023-06-03T09:25:24.810</time></trkpt><trkpt lat="55.9447874" lon="49.2346245"><time>2023-06-03T09:25:26.820</time></trkpt><trkpt lat="55.9448029" lon="49.2345160"><time>2023-06-03T09:25:29.813</time></trkpt><trkpt lat="55.9447757" lon="49.2344454"><time>2023-06-03T09:25:31.810</time></trkpt><trkpt lat="55.9447185" lon="49.2344055"><time>2023-06-03T09:25:33.810</time></trkpt><trkpt lat="55.9446598" lon="49.2344121"><time>2023-06-03T09:25:35.817</time></trkpt><trkpt lat="55.9446050" lon="49.2344185"><time>2023-06-03T09:25:37.810</time></trkpt><trkpt lat="55.9445522" lon="49.2344002"><time>2023-06-03T09:25:39.820</time></trkpt><trkpt lat="55.9445078" lon="49.2343494"><time>2023-06-03T09:25:41.817</time></trkpt><trkpt lat="55.9444587" lon="49.2342780"><time>2023-06-03T09:25:43.840</time></trkpt><trkpt lat="55.9444185" lon="49.2342042"><time>2023-06-03T09:25:45.823</time></trkpt><trkpt lat="55.9443777" lon="49.2341226"><time>2023-06-03T09:25:47.820</time></trkpt><trkpt lat="55.9443316" lon="49.2340308"><time>2023-06-03T09:25:49.810</time></trkpt><trkpt lat="55.9442846" lon="49.2339397"><time>2023-06-03T09:25:51.817</time></trkpt><trkpt lat="55.9442345" lon="49.2338583"><time>2023-06-03T09:25:53.810</time></trkpt><trkpt lat="55.9441814" lon="49.2337883"><time>2023-06-03T09:25:55.827</time></trkpt><trkpt lat="55.9441298" lon="49.2337214"><time>2023-06-03T09:25:57.817</time></trkpt><trkpt lat="55.9440752" lon="49.2336522"><time>2023-06-03T09:25:59.827</time></trkpt><trkpt lat="55.9440132" lon="49.2335849"><time>2023-06-03T09:26:01.817</time></trkpt><trkpt lat="55.9439415" lon="49.2335347"><time>2023-06-03T09:26:03.823</time></trkpt><trkpt lat="55.9438644" lon="49.2334879"><time>2023-06-03T09:26:05.817</time></trkpt><trkpt lat="55.9437899" lon="49.2334504"><time>2023-06-03T09:26:07.820</time></trkpt><trkpt lat="55.9437157" lon="49.2334251"><time>2023-06-03T09:26:09.817</time></trkpt><trkpt lat="55.9436372" lon="49.2334036"><time>2023-06-03T09:26:11.820</time></trkpt><trkpt lat="55.9435607" lon="49.2333821"><time>2023-06-03T09:26:13.827</time></trkpt><trkpt lat="55.9434873" lon="49.2333543"><time>2023-06-03T09:26:15.817</time></trkpt><trkpt lat="55.9434162" lon="49.2333318"><time>2023-06-03T09:26:17.817</time></trkpt><trkpt lat="55.9433458" lon="49.2333253"><time>2023-06-03T09:26:19.810</time></trkpt><trkpt lat="55.9432719" lon="49.2333189"><time>2023-06-03T09:26:21.823</time></trkpt><trkpt lat="55.9431973" lon="49.2333210"><time>2023-06-03T09:26:23.823</time></trkpt><trkpt lat="55.9431194" lon="49.2333315"><time>2023-06-03T09:26:25.813</time></trkpt><trkpt lat="55.9430434" lon="49.2333633"><time>2023-06-03T09:26:27.817</time></trkpt><trkpt lat="55.9429648" lon="49.2333943"><time>2023-06-03T09:26:29.813</time></trkpt><trkpt lat="55.9428908" lon="49.2334012"><time>2023-06-03T09:26:31.813</time></trkpt><trkpt lat="55.9428261" lon="49.2333507"><time>2023-06-03T09:26:33.827</time></trkpt><trkpt lat="55.9427830" lon="49.2332388"><time>2023-06-03T09:26:35.833</time></trkpt><trkpt lat="55.9427704" lon="49.2331721"><time>2023-06-03T09:26:36.833</time></trkpt><trkpt lat="55.9427478" lon="49.2330263"><time>2023-06-03T09:26:38.807</time></trkpt><trkpt lat="55.9427251" lon="49.2328940"><time>2023-06-03T09:26:40.817</time></trkpt><trkpt lat="55.9427045" lon="49.2327884"><time>2023-06-03T09:26:42.837</time></trkpt><trkpt lat="55.9426852" lon="49.2327003"><time>2023-06-03T09:26:44.810</time></trkpt><trkpt lat="55.9426654" lon="49.2326112"><time>2023-06-03T09:26:46.813</time></trkpt><trkpt lat="55.9426453" lon="49.2325153"><time>2023-06-03T09:26:48.823</time></trkpt><trkpt lat="55.9426246" lon="49.2324163"><time>2023-06-03T09:26:50.817</time></trkpt><trkpt lat="55.9426063" lon="49.2323093"><time>2023-06-03T09:26:52.817</time></trkpt><trkpt lat="55.9425930" lon="49.2322227"><time>2023-06-03T09:26:54.843</time></trkpt><trkpt lat="55.9425737" lon="49.2321504"><time>2023-06-03T09:26:56.810</time></trkpt><trkpt lat="55.9425475" lon="49.2320687"><time>2023-06-03T09:26:58.807</time></trkpt><trkpt lat="55.9425231" lon="49.2319751"><time>2023-06-03T09:27:00.827</time></trkpt><trkpt lat="55.9425068" lon="49.2318784"><time>2023-06-03T09:27:02.813</time></trkpt><trkpt lat="55.9424890" lon="49.2317844"><time>2023-06-03T09:27:04.813</time></trkpt><trkpt lat="55.9424697" lon="49.2316936"><time>2023-06-03T09:27:06.820</time></trkpt><trkpt lat="55.9424595" lon="49.2316478"><time>2023-06-03T09:27:07.823</time></trkpt><trkpt lat="55.9424464" lon="49.2315483"><time>2023-06-03T09:27:09.817</time></trkpt><trkpt lat="55.9424342" lon="49.2314494"><time>2023-06-03T09:27:11.827</time></trkpt><trkpt lat="55.9424123" lon="49.2313413"><time>2023-06-03T09:27:13.817</time></trkpt><trkpt lat="55.9423860" lon="49.2312346"><time>2023-06-03T09:27:15.817</time></trkpt><trkpt lat="55.9423574" lon="49.2311226"><time>2023-06-03T09:27:17.850</time></trkpt><trkpt lat="55.9423342" lon="49.2310159"><time>2023-06-03T09:27:19.823</time></trkpt><trkpt lat="55.9423241" lon="49.2309642"><time>2023-06-03T09:27:20.817</time></trkpt><trkpt lat="55.9423076" lon="49.2308551"><time>2023-06-03T09:27:22.813</time></trkpt><trkpt lat="55.9422962" lon="49.2307365"><time>2023-06-03T09:27:24.827</time></trkpt><trkpt lat="55.9422861" lon="49.2306175"><time>2023-06-03T09:27:26.813</time></trkpt><trkpt lat="55.9422807" lon="49.2305065"><time>2023-06-03T09:27:28.813</time></trkpt><trkpt lat="55.9422773" lon="49.2304076"><time>2023-06-03T09:27:30.827</time></trkpt><trkpt lat="55.9422773" lon="49.2304076"><time>2023-06-03T09:27:30.897</time></trkpt><trkpt lat="55.9422650" lon="49.2303218"><time>2023-06-03T09:27:32.833</time></trkpt><trkpt lat="55.9422579" lon="49.2302960"><time>2023-06-03T09:27:33.817</time></trkpt><trkpt lat="55.9422715" lon="49.2303864"><time>2023-06-03T09:27:50.803</time></trkpt><trkpt lat="55.9422812" lon="49.2305213"><time>2023-06-03T09:27:52.820</time></trkpt><trkpt lat="55.9422895" lon="49.2306647"><time>2023-06-03T09:27:54.817</time></trkpt><trkpt lat="55.9423042" lon="49.2307945"><time>2023-06-03T09:27:56.803</time></trkpt><trkpt lat="55.9423282" lon="49.2309068"><time>2023-06-03T09:27:58.810</time></trkpt><trkpt lat="55.9423592" lon="49.2310085"><time>2023-06-03T09:28:00.807</time></trkpt><trkpt lat="55.9423974" lon="49.2311323"><time>2023-06-03T09:28:02.813</time></trkpt><trkpt lat="55.9424123" lon="49.2312151"><time>2023-06-03T09:28:03.810</time></trkpt><trkpt lat="55.9424202" lon="49.2313124"><time>2023-06-03T09:28:04.830</time></trkpt><trkpt lat="55.9424307" lon="49.2314027"><time>2023-06-03T09:28:05.817</time></trkpt><trkpt lat="55.9424326" lon="49.2315552"><time>2023-06-03T09:28:06.823</time></trkpt><trkpt lat="55.9424366" lon="49.2316487"><time>2023-06-03T09:28:07.833</time></trkpt><trkpt lat="55.9424447" lon="49.2317276"><time>2023-06-03T09:28:08.820</time></trkpt><trkpt lat="55.9424434" lon="49.2318224"><time>2023-06-03T09:28:09.810</time></trkpt><trkpt lat="55.9424836" lon="49.2318610"><time>2023-06-03T09:28:11.820</time></trkpt><trkpt lat="55.9425299" lon="49.2319686"><time>2023-06-03T09:28:13.820</time></trkpt><trkpt lat="55.9425576" lon="49.2320335"><time>2023-06-03T09:28:15.807</time></trkpt><trkpt lat="55.9426029" lon="49.2321284"><time>2023-06-03T09:28:17.820</time></trkpt><trkpt lat="55.9426118" lon="49.2322265"><time>2023-06-03T09:28:18.803</time></trkpt><trkpt lat="55.9426239" lon="49.2323582"><time>2023-06-03T09:28:20.813</time></trkpt><trkpt lat="55.9426469" lon="49.2324841"><time>2023-06-03T09:28:22.833</time></trkpt><trkpt lat="55.9426685" lon="49.2326173"><time>2023-06-03T09:28:24.810</time></trkpt><trkpt lat="55.9426959" lon="49.2327446"><time>2023-06-03T09:28:26.817</time></trkpt><trkpt lat="55.9427245" lon="49.2328657"><time>2023-06-03T09:28:28.837</time></trkpt><trkpt lat="55.9427551" lon="49.2329869"><time>2023-06-03T09:28:30.810</time></trkpt><trkpt lat="55.9427922" lon="49.2330603"><time>2023-06-03T09:28:32.810</time></trkpt><trkpt lat="55.9428305" lon="49.2331417"><time>2023-06-03T09:28:34.820</time></trkpt><trkpt lat="55.9428730" lon="49.2332210"><time>2023-06-03T09:28:36.807</time></trkpt><trkpt lat="55.9429163" lon="49.2333042"><time>2023-06-03T09:28:38.807</time></trkpt><trkpt lat="55.9429806" lon="49.2333641"><time>2023-06-03T09:28:40.837</time></trkpt><trkpt lat="55.9430602" lon="49.2333558"><time>2023-06-03T09:28:42.807</time></trkpt><trkpt lat="55.9431401" lon="49.2333354"><time>2023-06-03T09:28:44.807</time></trkpt><trkpt lat="55.9432171" lon="49.2333232"><time>2023-06-03T09:28:46.817</time></trkpt><trkpt lat="55.9432959" lon="49.2333240"><time>2023-06-03T09:28:48.807</time></trkpt><trkpt lat="55.9433782" lon="49.2333469"><time>2023-06-03T09:28:50.817</time></trkpt><trkpt lat="55.9434622" lon="49.2333802"><time>2023-06-03T09:28:52.843</time></trkpt><trkpt lat="55.9435439" lon="49.2334130"><time>2023-06-03T09:28:54.813</time></trkpt><trkpt lat="55.9436228" lon="49.2334421"><time>2023-06-03T09:28:56.807</time></trkpt><trkpt lat="55.9437089" lon="49.2334859"><time>2023-06-03T09:28:58.820</time></trkpt><trkpt lat="55.9437923" lon="49.2335134"><time>2023-06-03T09:29:00.813</time></trkpt><trkpt lat="55.9438866" lon="49.2335556"><time>2023-06-03T09:29:02.807</time></trkpt><trkpt lat="55.9439493" lon="49.2335998"><time>2023-06-03T09:29:04.840</time></trkpt><trkpt lat="55.9440156" lon="49.2336405"><time>2023-06-03T09:29:06.807</time></trkpt><trkpt lat="55.9440733" lon="49.2337303"><time>2023-06-03T09:29:08.817</time></trkpt><trkpt lat="55.9441421" lon="49.2338077"><time>2023-06-03T09:29:10.817</time></trkpt><trkpt lat="55.9442042" lon="49.2338810"><time>2023-06-03T09:29:12.817</time></trkpt><trkpt lat="55.9442650" lon="49.2339667"><time>2023-06-03T09:29:14.813</time></trkpt><trkpt lat="55.9443319" lon="49.2340502"><time>2023-06-03T09:29:16.837</time></trkpt><trkpt lat="55.9443906" lon="49.2341364"><time>2023-06-03T09:29:18.817</time></trkpt><trkpt lat="55.9444403" lon="49.2342399"><time>2023-06-03T09:29:20.813</time></trkpt><trkpt lat="55.9444977" lon="49.2343379"><time>2023-06-03T09:29:22.837</time></trkpt><trkpt lat="55.9445671" lon="49.2344200"><time>2023-06-03T09:29:24.813</time></trkpt><trkpt lat="55.9446412" lon="49.2344782"><time>2023-06-03T09:29:26.810</time></trkpt><trkpt lat="55.9447149" lon="49.2344967"><time>2023-06-03T09:29:28.850</time></trkpt><trkpt lat="55.9447819" lon="49.2344871"><time>2023-06-03T09:29:30.813</time></trkpt><trkpt lat="55.9448296" lon="49.2344955"><time>2023-06-03T09:29:32.813</time></trkpt><trkpt lat="55.9448284" lon="49.2346040"><time>2023-06-03T09:29:35.810</time></trkpt><trkpt lat="55.9447958" lon="49.2347149"><time>2023-06-03T09:29:37.823</time></trkpt><trkpt lat="55.9447625" lon="49.2348447"><time>2023-06-03T09:29:39.830</time></trkpt><trkpt lat="55.9447513" lon="49.2349239"><time>2023-06-03T09:29:40.833</time></trkpt><trkpt lat="55.9447466" lon="49.2350045"><time>2023-06-03T09:29:41.820</time></trkpt><trkpt lat="55.9447522" lon="49.2351562"><time>2023-06-03T09:29:43.810</time></trkpt><trkpt lat="55.9447677" lon="49.2352979"><time>2023-06-03T09:29:45.820</time></trkpt><trkpt lat="55.9447861" lon="49.2354330"><time>2023-06-03T09:29:47.810</time></trkpt><trkpt lat="55.9447849" lon="49.2356358"><time>2023-06-03T09:29:49.820</time></trkpt><trkpt lat="55.9447810" lon="49.2357499"><time>2023-06-03T09:29:50.813</time></trkpt><trkpt lat="55.9447977" lon="49.2358809"><time>2023-06-03T09:29:52.837</time></trkpt><trkpt lat="55.9448352" lon="49.2359807"><time>2023-06-03T09:29:54.823</time></trkpt><trkpt lat="55.9449242" lon="49.2358435"><time>2023-06-03T09:29:55.840</time></trkpt><trkpt lat="55.9449025" lon="49.2360786"><time>2023-06-03T09:29:56.823</time></trkpt><trkpt lat="55.9449606" lon="49.2361218"><time>2023-06-03T09:29:58.840</time></trkpt><trkpt lat="55.9449775" lon="49.2362437"><time>2023-06-03T09:30:00.813</time></trkpt><trkpt lat="55.9449992" lon="49.2363912"><time>2023-06-03T09:30:02.813</time></trkpt><trkpt lat="55.9450066" lon="49.2364949"><time>2023-06-03T09:30:03.817</time></trkpt><trkpt lat="55.9450203" lon="49.2366640"><time>2023-06-03T09:30:05.807</time></trkpt><trkpt lat="55.9450588" lon="49.2367906"><time>2023-06-03T09:30:07.807</time></trkpt><trkpt lat="55.9450760" lon="49.2369313"><time>2023-06-03T09:30:09.807</time></trkpt><trkpt lat="55.9450821" lon="49.2370198"><time>2023-06-03T09:30:10.820</time></trkpt><trkpt lat="55.9450786" lon="49.2371065"><time>2023-06-03T09:30:11.810</time></trkpt><trkpt lat="55.9450786" lon="49.2372001"><time>2023-06-03T09:30:12.807</time></trkpt><trkpt lat="55.9450975" lon="49.2373651"><time>2023-06-03T09:30:14.810</time></trkpt><trkpt lat="55.9450833" lon="49.2374801"><time>2023-06-03T09:30:15.807</time></trkpt><trkpt lat="55.9450996" lon="49.2376239"><time>2023-06-03T09:30:17.823</time></trkpt><trkpt lat="55.9451170" lon="49.2377680"><time>2023-06-03T09:30:19.813</time></trkpt><trkpt lat="55.9451365" lon="49.2378970"><time>2023-06-03T09:30:21.813</time></trkpt><trkpt lat="55.9451693" lon="49.2380018"><time>2023-06-03T09:30:23.807</time></trkpt><trkpt lat="55.9451942" lon="49.2381461"><time>2023-06-03T09:30:25.797</time></trkpt><trkpt lat="55.9452097" lon="49.2382990"><time>2023-06-03T09:30:27.810</time></trkpt><trkpt lat="55.9452311" lon="49.2384176"><time>2023-06-03T09:30:29.813</time></trkpt><trkpt lat="55.9452532" lon="49.2385542"><time>2023-06-03T09:30:31.810</time></trkpt><trkpt lat="55.9452691" lon="49.2387088"><time>2023-06-03T09:30:33.817</time></trkpt><trkpt lat="55.9452797" lon="49.2388037"><time>2023-06-03T09:30:34.827</time></trkpt><trkpt lat="55.9453173" lon="49.2388949"><time>2023-06-03T09:30:36.803</time></trkpt><trkpt lat="55.9453282" lon="49.2389748"><time>2023-06-03T09:30:37.807</time></trkpt><trkpt lat="55.9453273" lon="49.2390698"><time>2023-06-03T09:30:38.813</time></trkpt><trkpt lat="55.9453738" lon="49.2392066"><time>2023-06-03T09:30:40.850</time></trkpt><trkpt lat="55.9453995" lon="49.2392775"><time>2023-06-03T09:30:41.813</time></trkpt><trkpt lat="55.9454190" lon="49.2393721"><time>2023-06-03T09:30:42.807</time></trkpt><trkpt lat="55.9454407" lon="49.2395226"><time>2023-06-03T09:30:44.813</time></trkpt><trkpt lat="55.9454360" lon="49.2396415"><time>2023-06-03T09:30:45.813</time></trkpt><trkpt lat="55.9454575" lon="49.2397987"><time>2023-06-03T09:30:47.813</time></trkpt><trkpt lat="55.9454836" lon="49.2398644"><time>2023-06-03T09:30:48.813</time></trkpt><trkpt lat="55.9455055" lon="49.2399360"><time>2023-06-03T09:30:49.823</time></trkpt><trkpt lat="55.9455608" lon="49.2400744"><time>2023-06-03T09:30:51.820</time></trkpt><trkpt lat="55.9455950" lon="49.2401395"><time>2023-06-03T09:30:52.837</time></trkpt><trkpt lat="55.9456352" lon="49.2402050"><time>2023-06-03T09:30:53.810</time></trkpt><trkpt lat="55.9456676" lon="49.2402651"><time>2023-06-03T09:30:54.807</time></trkpt><trkpt lat="55.9457316" lon="49.2403687"><time>2023-06-03T09:30:56.817</time></trkpt><trkpt lat="55.9457931" lon="49.2404638"><time>2023-06-03T09:30:58.833</time></trkpt><trkpt lat="55.9458565" lon="49.2405519"><time>2023-06-03T09:31:00.817</time></trkpt><trkpt lat="55.9459181" lon="49.2406232"><time>2023-06-03T09:31:02.803</time></trkpt><trkpt lat="55.9459817" lon="49.2407107"><time>2023-06-03T09:31:04.853</time></trkpt><trkpt lat="55.9460525" lon="49.2407829"><time>2023-06-03T09:31:06.817</time></trkpt><trkpt lat="55.9461232" lon="49.2408491"><time>2023-06-03T09:31:08.820</time></trkpt><trkpt lat="55.9461774" lon="49.2409261"><time>2023-06-03T09:31:10.820</time></trkpt><trkpt lat="55.9462180" lon="49.2410079"><time>2023-06-03T09:31:13.813</time></trkpt><trkpt lat="55.9462671" lon="49.2410119"><time>2023-06-03T09:31:15.813</time></trkpt><trkpt lat="55.9463161" lon="49.2409259"><time>2023-06-03T09:31:17.820</time></trkpt><trkpt lat="55.9463505" lon="49.2407959"><time>2023-06-03T09:31:19.820</time></trkpt><trkpt lat="55.9463947" lon="49.2406608"><time>2023-06-03T09:31:21.810</time></trkpt><trkpt lat="55.9464211" lon="49.2405916"><time>2023-06-03T09:31:22.827</time></trkpt><trkpt lat="55.9464479" lon="49.2405237"><time>2023-06-03T09:31:23.807</time></trkpt><trkpt lat="55.9464738" lon="49.2404555"><time>2023-06-03T09:31:24.807</time></trkpt><trkpt lat="55.9465085" lon="49.2403708"><time>2023-06-03T09:31:25.827</time></trkpt><trkpt lat="55.9465440" lon="49.2402989"><time>2023-06-03T09:31:26.810</time></trkpt><trkpt lat="55.9465796" lon="49.2402316"><time>2023-06-03T09:31:27.823</time></trkpt><trkpt lat="55.9466158" lon="49.2401695"><time>2023-06-03T09:31:28.843</time></trkpt><trkpt lat="55.9466557" lon="49.2401191"><time>2023-06-03T09:31:29.820</time></trkpt><trkpt lat="55.9466924" lon="49.2400431"><time>2023-06-03T09:31:30.810</time></trkpt><trkpt lat="55.9467306" lon="49.2399801"><time>2023-06-03T09:31:31.817</time></trkpt><trkpt lat="55.9467708" lon="49.2399292"><time>2023-06-03T09:31:32.807</time></trkpt><trkpt lat="55.9468092" lon="49.2398798"><time>2023-06-03T09:31:33.817</time></trkpt><trkpt lat="55.9468598" lon="49.2398305"><time>2023-06-03T09:31:34.830</time></trkpt><trkpt lat="55.9469025" lon="49.2397884"><time>2023-06-03T09:31:35.820</time></trkpt><trkpt lat="55.9469574" lon="49.2397459"><time>2023-06-03T09:31:36.810</time></trkpt><trkpt lat="55.9470081" lon="49.2397024"><time>2023-06-03T09:31:37.810</time></trkpt><trkpt lat="55.9470549" lon="49.2396479"><time>2023-06-03T09:31:38.810</time></trkpt><trkpt lat="55.9470983" lon="49.2396062"><time>2023-06-03T09:31:39.817</time></trkpt><trkpt lat="55.9471475" lon="49.2395522"><time>2023-06-03T09:31:40.853</time></trkpt><trkpt lat="55.9471893" lon="49.2395080"><time>2023-06-03T09:31:41.810</time></trkpt><trkpt lat="55.9472366" lon="49.2394660"><time>2023-06-03T09:31:42.813</time></trkpt><trkpt lat="55.9472810" lon="49.2394396"><time>2023-06-03T09:31:43.813</time></trkpt><trkpt lat="55.9473230" lon="49.2394018"><time>2023-06-03T09:31:44.807</time></trkpt><trkpt lat="55.9473725" lon="49.2393594"><time>2023-06-03T09:31:45.820</time></trkpt><trkpt lat="55.9474198" lon="49.2393145"><time>2023-06-03T09:31:46.830</time></trkpt><trkpt lat="55.9474724" lon="49.2392697"><time>2023-06-03T09:31:47.807</time></trkpt><trkpt lat="55.9475213" lon="49.2392321"><time>2023-06-03T09:31:48.807</time></trkpt><trkpt lat="55.9475723" lon="49.2391944"><time>2023-06-03T09:31:49.813</time></trkpt><trkpt lat="55.9476256" lon="49.2391614"><time>2023-06-03T09:31:50.810</time></trkpt><trkpt lat="55.9476791" lon="49.2391219"><time>2023-06-03T09:31:51.810</time></trkpt><trkpt lat="55.9477318" lon="49.2390841"><time>2023-06-03T09:31:52.840</time></trkpt><trkpt lat="55.9477805" lon="49.2390438"><time>2023-06-03T09:31:53.813</time></trkpt><trkpt lat="55.9478304" lon="49.2390015"><time>2023-06-03T09:31:54.807</time></trkpt><trkpt lat="55.9478749" lon="49.2389688"><time>2023-06-03T09:31:55.807</time></trkpt><trkpt lat="55.9479227" lon="49.2389277"><time>2023-06-03T09:31:56.803</time></trkpt><trkpt lat="55.9479642" lon="49.2388923"><time>2023-06-03T09:31:57.817</time></trkpt><trkpt lat="55.9480174" lon="49.2388532"><time>2023-06-03T09:31:58.850</time></trkpt><trkpt lat="55.9480653" lon="49.2388134"><time>2023-06-03T09:31:59.807</time></trkpt><trkpt lat="55.9481170" lon="49.2387775"><time>2023-06-03T09:32:00.807</time></trkpt><trkpt lat="55.9481623" lon="49.2387315"><time>2023-06-03T09:32:01.813</time></trkpt><trkpt lat="55.9482147" lon="49.2386881"><time>2023-06-03T09:32:02.803</time></trkpt><trkpt lat="55.9482660" lon="49.2386450"><time>2023-06-03T09:32:03.810</time></trkpt><trkpt lat="55.9483169" lon="49.2386020"><time>2023-06-03T09:32:04.837</time></trkpt><trkpt lat="55.9483746" lon="49.2385625"><time>2023-06-03T09:32:05.813</time></trkpt><trkpt lat="55.9484240" lon="49.2385222"><time>2023-06-03T09:32:06.817</time></trkpt><trkpt lat="55.9484763" lon="49.2384787"><time>2023-06-03T09:32:07.813</time></trkpt><trkpt lat="55.9485209" lon="49.2384339"><time>2023-06-03T09:32:08.810</time></trkpt><trkpt lat="55.9485760" lon="49.2383870"><time>2023-06-03T09:32:09.820</time></trkpt><trkpt lat="55.9486297" lon="49.2383411"><time>2023-06-03T09:32:10.833</time></trkpt><trkpt lat="55.9486802" lon="49.2382986"><time>2023-06-03T09:32:11.813</time></trkpt><trkpt lat="55.9487316" lon="49.2382542"><time>2023-06-03T09:32:12.807</time></trkpt><trkpt lat="55.9487869" lon="49.2382096"><time>2023-06-03T09:32:13.807</time></trkpt><trkpt lat="55.9488353" lon="49.2381567"><time>2023-06-03T09:32:14.813</time></trkpt><trkpt lat="55.9488837" lon="49.2380968"><time>2023-06-03T09:32:15.827</time></trkpt><trkpt lat="55.9489374" lon="49.2380553"><time>2023-06-03T09:32:16.837</time></trkpt><trkpt lat="55.9489928" lon="49.2380120"><time>2023-06-03T09:32:17.813</time></trkpt><trkpt lat="55.9490412" lon="49.2379720"><time>2023-06-03T09:32:18.813</time></trkpt><trkpt lat="55.9490940" lon="49.2379228"><time>2023-06-03T09:32:19.823</time></trkpt><trkpt lat="55.9491467" lon="49.2378812"><time>2023-06-03T09:32:20.807</time></trkpt><trkpt lat="55.9492020" lon="49.2378408"><time>2023-06-03T09:32:21.810</time></trkpt><trkpt lat="55.9492565" lon="49.2378064"><time>2023-06-03T09:32:22.833</time></trkpt><trkpt lat="55.9493069" lon="49.2377761"><time>2023-06-03T09:32:23.817</time></trkpt><trkpt lat="55.9493602" lon="49.2377414"><time>2023-06-03T09:32:24.807</time></trkpt><trkpt lat="55.9494069" lon="49.2376951"><time>2023-06-03T09:32:25.823</time></trkpt><trkpt lat="55.9494618" lon="49.2376560"><time>2023-06-03T09:32:26.820</time></trkpt><trkpt lat="55.9495079" lon="49.2376110"><time>2023-06-03T09:32:27.820</time></trkpt><trkpt lat="55.9495573" lon="49.2375708"><time>2023-06-03T09:32:28.840</time></trkpt><trkpt lat="55.9496055" lon="49.2375227"><time>2023-06-03T09:32:29.813</time></trkpt><trkpt lat="55.9496550" lon="49.2374756"><time>2023-06-03T09:32:30.817</time></trkpt><trkpt lat="55.9497066" lon="49.2374305"><time>2023-06-03T09:32:31.813</time></trkpt><trkpt lat="55.9497635" lon="49.2373780"><time>2023-06-03T09:32:32.807</time></trkpt><trkpt lat="55.9498198" lon="49.2373293"><time>2023-06-03T09:32:33.807</time></trkpt><trkpt lat="55.9498715" lon="49.2372760"><time>2023-06-03T09:32:34.817</time></trkpt><trkpt lat="55.9499198" lon="49.2372268"><time>2023-06-03T09:32:35.803</time></trkpt><trkpt lat="55.9499698" lon="49.2371686"><time>2023-06-03T09:32:36.813</time></trkpt><trkpt lat="55.9500153" lon="49.2371087"><time>2023-06-03T09:32:37.813</time></trkpt><trkpt lat="55.9500609" lon="49.2370441"><time>2023-06-03T09:32:38.810</time></trkpt><trkpt lat="55.9500978" lon="49.2369798"><time>2023-06-03T09:32:39.817</time></trkpt><trkpt lat="55.9501359" lon="49.2369009"><time>2023-06-03T09:32:40.860</time></trkpt><trkpt lat="55.9501797" lon="49.2368220"><time>2023-06-03T09:32:41.807</time></trkpt><trkpt lat="55.9502215" lon="49.2367428"><time>2023-06-03T09:32:42.817</time></trkpt><trkpt lat="55.9502449" lon="49.2366500"><time>2023-06-03T09:32:43.813</time></trkpt><trkpt lat="55.9502707" lon="49.2365742"><time>2023-06-03T09:32:44.820</time></trkpt><trkpt lat="55.9502929" lon="49.2364804"><time>2023-06-03T09:32:45.807</time></trkpt><trkpt lat="55.9503248" lon="49.2363844"><time>2023-06-03T09:32:46.827</time></trkpt><trkpt lat="55.9503545" lon="49.2362834"><time>2023-06-03T09:32:47.817</time></trkpt><trkpt lat="55.9503824" lon="49.2361731"><time>2023-06-03T09:32:48.813</time></trkpt><trkpt lat="55.9504182" lon="49.2360754"><time>2023-06-03T09:32:49.817</time></trkpt><trkpt lat="55.9504205" lon="49.2359854"><time>2023-06-03T09:32:50.807</time></trkpt><trkpt lat="55.9504582" lon="49.2358993"><time>2023-06-03T09:32:51.807</time></trkpt><trkpt lat="55.9504725" lon="49.2358200"><time>2023-06-03T09:32:52.847</time></trkpt><trkpt lat="55.9504867" lon="49.2357195"><time>2023-06-03T09:32:53.827</time></trkpt><trkpt lat="55.9505133" lon="49.2356354"><time>2023-06-03T09:32:54.817</time></trkpt><trkpt lat="55.9505374" lon="49.2355387"><time>2023-06-03T09:32:55.820</time></trkpt><trkpt lat="55.9505646" lon="49.2354457"><time>2023-06-03T09:32:56.817</time></trkpt><trkpt lat="55.9505931" lon="49.2353522"><time>2023-06-03T09:32:57.807</time></trkpt><trkpt lat="55.9506125" lon="49.2352649"><time>2023-06-03T09:32:58.833</time></trkpt><trkpt lat="55.9506178" lon="49.2351732"><time>2023-06-03T09:32:59.817</time></trkpt><trkpt lat="55.9506279" lon="49.2350814"><time>2023-06-03T09:33:00.813</time></trkpt><trkpt lat="55.9506386" lon="49.2349768"><time>2023-06-03T09:33:01.797</time></trkpt><trkpt lat="55.9506558" lon="49.2348862"><time>2023-06-03T09:33:02.810</time></trkpt><trkpt lat="55.9506631" lon="49.2347916"><time>2023-06-03T09:33:03.813</time></trkpt><trkpt lat="55.9506795" lon="49.2346179"><time>2023-06-03T09:33:05.817</time></trkpt><trkpt lat="55.9506883" lon="49.2345049"><time>2023-06-03T09:33:06.813</time></trkpt><trkpt lat="55.9507071" lon="49.2343915"><time>2023-06-03T09:33:07.813</time></trkpt><trkpt lat="55.9506922" lon="49.2343149"><time>2023-06-03T09:33:08.810</time></trkpt><trkpt lat="55.9507065" lon="49.2342121"><time>2023-06-03T09:33:09.813</time></trkpt><trkpt lat="55.9507113" lon="49.2341188"><time>2023-06-03T09:33:10.830</time></trkpt><trkpt lat="55.9506745" lon="49.2339497"><time>2023-06-03T09:33:12.817</time></trkpt><trkpt lat="55.9506449" lon="49.2338854"><time>2023-06-03T09:33:13.813</time></trkpt><trkpt lat="55.9506243" lon="49.2338046"><time>2023-06-03T09:33:14.817</time></trkpt><trkpt lat="55.9506113" lon="49.2336940"><time>2023-06-03T09:33:15.813</time></trkpt><trkpt lat="55.9506031" lon="49.2335936"><time>2023-06-03T09:33:16.837</time></trkpt><trkpt lat="55.9505906" lon="49.2335097"><time>2023-06-03T09:33:17.817</time></trkpt><trkpt lat="55.9505718" lon="49.2334219"><time>2023-06-03T09:33:18.817</time></trkpt><trkpt lat="55.9505531" lon="49.2333362"><time>2023-06-03T09:33:19.810</time></trkpt><trkpt lat="55.9505370" lon="49.2332563"><time>2023-06-03T09:33:20.817</time></trkpt><trkpt lat="55.9505206" lon="49.2331623"><time>2023-06-03T09:33:21.807</time></trkpt><trkpt lat="55.9505022" lon="49.2330718"><time>2023-06-03T09:33:22.827</time></trkpt><trkpt lat="55.9504969" lon="49.2329918"><time>2023-06-03T09:33:23.830</time></trkpt><trkpt lat="55.9504777" lon="49.2329036"><time>2023-06-03T09:33:24.817</time></trkpt><trkpt lat="55.9504733" lon="49.2328057"><time>2023-06-03T09:33:25.820</time></trkpt><trkpt lat="55.9504588" lon="49.2326326"><time>2023-06-03T09:33:27.810</time></trkpt><trkpt lat="55.9504412" lon="49.2324623"><time>2023-06-03T09:33:29.823</time></trkpt><trkpt lat="55.9504338" lon="49.2323656"><time>2023-06-03T09:33:30.810</time></trkpt><trkpt lat="55.9504287" lon="49.2322680"><time>2023-06-03T09:33:31.810</time></trkpt><trkpt lat="55.9504074" lon="49.2320859"><time>2023-06-03T09:33:33.803</time></trkpt><trkpt lat="55.9503681" lon="49.2319205"><time>2023-06-03T09:33:35.813</time></trkpt><trkpt lat="55.9503609" lon="49.2318272"><time>2023-06-03T09:33:36.800</time></trkpt><trkpt lat="55.9503580" lon="49.2317296"><time>2023-06-03T09:33:37.813</time></trkpt><trkpt lat="55.9503492" lon="49.2316183"><time>2023-06-03T09:33:38.810</time></trkpt><trkpt lat="55.9503369" lon="49.2315154"><time>2023-06-03T09:33:39.827</time></trkpt><trkpt lat="55.9503308" lon="49.2313611"><time>2023-06-03T09:33:40.847</time></trkpt><trkpt lat="55.9503204" lon="49.2312468"><time>2023-06-03T09:33:41.827</time></trkpt><trkpt lat="55.9503044" lon="49.2311592"><time>2023-06-03T09:33:42.807</time></trkpt><trkpt lat="55.9502910" lon="49.2310798"><time>2023-06-03T09:33:43.807</time></trkpt><trkpt lat="55.9502763" lon="49.2309514"><time>2023-06-03T09:33:44.827</time></trkpt><trkpt lat="55.9502502" lon="49.2308429"><time>2023-06-03T09:33:45.817</time></trkpt><trkpt lat="55.9502288" lon="49.2307305"><time>2023-06-03T09:33:46.827</time></trkpt><trkpt lat="55.9502046" lon="49.2306294"><time>2023-06-03T09:33:47.817</time></trkpt><trkpt lat="55.9501873" lon="49.2305224"><time>2023-06-03T09:33:48.810</time></trkpt><trkpt lat="55.9501697" lon="49.2304102"><time>2023-06-03T09:33:49.823</time></trkpt><trkpt lat="55.9501559" lon="49.2302797"><time>2023-06-03T09:33:50.813</time></trkpt><trkpt lat="55.9501389" lon="49.2301738"><time>2023-06-03T09:33:51.817</time></trkpt><trkpt lat="55.9501283" lon="49.2300729"><time>2023-06-03T09:33:52.850</time></trkpt><trkpt lat="55.9501099" lon="49.2299781"><time>2023-06-03T09:33:53.813</time></trkpt><trkpt lat="55.9500968" lon="49.2298803"><time>2023-06-03T09:33:54.807</time></trkpt><trkpt lat="55.9500784" lon="49.2297787"><time>2023-06-03T09:33:55.817</time></trkpt><trkpt lat="55.9500699" lon="49.2296862"><time>2023-06-03T09:33:56.807</time></trkpt><trkpt lat="55.9500594" lon="49.2295154"><time>2023-06-03T09:33:58.823</time></trkpt><trkpt lat="55.9500524" lon="49.2294221"><time>2023-06-03T09:33:59.807</time></trkpt><trkpt lat="55.9500333" lon="49.2293326"><time>2023-06-03T09:34:00.827</time></trkpt><trkpt lat="55.9500284" lon="49.2292506"><time>2023-06-03T09:34:01.807</time></trkpt><trkpt lat="55.9500311" lon="49.2291573"><time>2023-06-03T09:34:02.817</time></trkpt><trkpt lat="55.9500239" lon="49.2289949"><time>2023-06-03T09:34:04.850</time></trkpt><trkpt lat="55.9500120" lon="49.2288213"><time>2023-06-03T09:34:06.813</time></trkpt><trkpt lat="55.9499986" lon="49.2287433"><time>2023-06-03T09:34:07.820</time></trkpt><trkpt lat="55.9500033" lon="49.2286499"><time>2023-06-03T09:34:08.807</time></trkpt><trkpt lat="55.9500042" lon="49.2285440"><time>2023-06-03T09:34:09.817</time></trkpt><trkpt lat="55.9500048" lon="49.2284056"><time>2023-06-03T09:34:11.810</time></trkpt><trkpt lat="55.9500091" lon="49.2282567"><time>2023-06-03T09:34:13.830</time></trkpt><trkpt lat="55.9500245" lon="49.2281176"><time>2023-06-03T09:34:15.823</time></trkpt><trkpt lat="55.9500439" lon="49.2280120"><time>2023-06-03T09:34:17.817</time></trkpt><trkpt lat="55.9500653" lon="49.2279079"><time>2023-06-03T09:34:19.813</time></trkpt><trkpt lat="55.9501017" lon="49.2278168"><time>2023-06-03T09:34:21.817</time></trkpt><trkpt lat="55.9501388" lon="49.2277060"><time>2023-06-03T09:34:23.807</time></trkpt><trkpt lat="55.9501741" lon="49.2275801"><time>2023-06-03T09:34:25.820</time></trkpt><trkpt lat="55.9501958" lon="49.2274497"><time>2023-06-03T09:34:27.817</time></trkpt><trkpt lat="55.9502156" lon="49.2273319"><time>2023-06-03T09:34:29.807</time></trkpt><trkpt lat="55.9502365" lon="49.2272322"><time>2023-06-03T09:34:31.813</time></trkpt><trkpt lat="55.9502631" lon="49.2270937"><time>2023-06-03T09:34:33.817</time></trkpt><trkpt lat="55.9502821" lon="49.2269774"><time>2023-06-03T09:34:35.810</time></trkpt><trkpt lat="55.9502929" lon="49.2268556"><time>2023-06-03T09:34:37.813</time></trkpt><trkpt lat="55.9503043" lon="49.2267290"><time>2023-06-03T09:34:39.813</time></trkpt><trkpt lat="55.9503292" lon="49.2266053"><time>2023-06-03T09:34:41.817</time></trkpt><trkpt lat="55.9503441" lon="49.2265021"><time>2023-06-03T09:34:43.810</time></trkpt><trkpt lat="55.9503639" lon="49.2263687"><time>2023-06-03T09:34:45.823</time></trkpt><trkpt lat="55.9503780" lon="49.2262476"><time>2023-06-03T09:34:47.813</time></trkpt><trkpt lat="55.9504069" lon="49.2261431"><time>2023-06-03T09:34:49.820</time></trkpt><trkpt lat="55.9504691" lon="49.2260724"><time>2023-06-03T09:34:51.820</time></trkpt><trkpt lat="55.9505544" lon="49.2260112"><time>2023-06-03T09:34:53.830</time></trkpt><trkpt lat="55.9506001" lon="49.2259868"><time>2023-06-03T09:34:54.813</time></trkpt><trkpt lat="55.9506844" lon="49.2259756"><time>2023-06-03T09:34:56.813</time></trkpt><trkpt lat="55.9507618" lon="49.2259470"><time>2023-06-03T09:34:57.810</time></trkpt><trkpt lat="55.9508089" lon="49.2259213"><time>2023-06-03T09:34:58.823</time></trkpt><trkpt lat="55.9508758" lon="49.2258602"><time>2023-06-03T09:35:00.800</time></trkpt><trkpt lat="55.9509205" lon="49.2258378"><time>2023-06-03T09:35:01.810</time></trkpt><trkpt lat="55.9509749" lon="49.2258274"><time>2023-06-03T09:35:02.807</time></trkpt><trkpt lat="55.9510358" lon="49.2257833"><time>2023-06-03T09:35:04.847</time></trkpt><trkpt lat="55.9510979" lon="49.2257486"><time>2023-06-03T09:35:06.813</time></trkpt><trkpt lat="55.9511793" lon="49.2257133"><time>2023-06-03T09:35:08.793</time></trkpt><trkpt lat="55.9512219" lon="49.2256873"><time>2023-06-03T09:35:09.810</time></trkpt><trkpt lat="55.9513011" lon="49.2256398"><time>2023-06-03T09:35:11.817</time></trkpt><trkpt lat="55.9513820" lon="49.2256024"><time>2023-06-03T09:35:13.800</time></trkpt><trkpt lat="55.9514622" lon="49.2255674"><time>2023-06-03T09:35:15.817</time></trkpt><trkpt lat="55.9515304" lon="49.2255231"><time>2023-06-03T09:35:17.813</time></trkpt><trkpt lat="55.9516407" lon="49.2254664"><time>2023-06-03T09:35:19.820</time></trkpt><trkpt lat="55.9516797" lon="49.2254047"><time>2023-06-03T09:35:21.807</time></trkpt><trkpt lat="55.9517324" lon="49.2253367"><time>2023-06-03T09:35:23.803</time></trkpt><trkpt lat="55.9518004" lon="49.2252578"><time>2023-06-03T09:35:25.810</time></trkpt><trkpt lat="55.9518557" lon="49.2251659"><time>2023-06-03T09:35:27.807</time></trkpt><trkpt lat="55.9519180" lon="49.2250755"><time>2023-06-03T09:35:29.813</time></trkpt><trkpt lat="55.9519635" lon="49.2249951"><time>2023-06-03T09:35:31.810</time></trkpt><trkpt lat="55.9520097" lon="49.2248920"><time>2023-06-03T09:35:33.810</time></trkpt><trkpt lat="55.9520679" lon="49.2247965"><time>2023-06-03T09:35:35.800</time></trkpt><trkpt lat="55.9521070" lon="49.2247081"><time>2023-06-03T09:35:37.807</time></trkpt><trkpt lat="55.9521640" lon="49.2246111"><time>2023-06-03T09:35:39.810</time></trkpt><trkpt lat="55.9522099" lon="49.2245181"><time>2023-06-03T09:35:41.807</time></trkpt><trkpt lat="55.9522546" lon="49.2244348"><time>2023-06-03T09:35:43.810</time></trkpt><trkpt lat="55.9522930" lon="49.2243792"><time>2023-06-03T09:35:45.820</time></trkpt><trkpt lat="55.9523389" lon="49.2242939"><time>2023-06-03T09:35:48.807</time></trkpt><trkpt lat="55.9523779" lon="49.2241949"><time>2023-06-03T09:35:50.807</time></trkpt><trkpt lat="55.9524268" lon="49.2240913"><time>2023-06-03T09:35:52.847</time></trkpt><trkpt lat="55.9524743" lon="49.2240012"><time>2023-06-03T09:35:54.813</time></trkpt><trkpt lat="55.9525239" lon="49.2239220"><time>2023-06-03T09:35:56.800</time></trkpt><trkpt lat="55.9525729" lon="49.2238446"><time>2023-06-03T09:35:58.827</time></trkpt><trkpt lat="55.9526248" lon="49.2237653"><time>2023-06-03T09:36:00.810</time></trkpt><trkpt lat="55.9526736" lon="49.2236803"><time>2023-06-03T09:36:02.817</time></trkpt><trkpt lat="55.9527161" lon="49.2235951"><time>2023-06-03T09:36:04.837</time></trkpt><trkpt lat="55.9527538" lon="49.2235127"><time>2023-06-03T09:36:06.817</time></trkpt><trkpt lat="55.9527857" lon="49.2234376"><time>2023-06-03T09:36:08.790</time></trkpt><trkpt lat="55.9528305" lon="49.2233579"><time>2023-06-03T09:36:10.863</time></trkpt><trkpt lat="55.9528773" lon="49.2232937"><time>2023-06-03T09:36:12.817</time></trkpt><trkpt lat="55.9529265" lon="49.2232310"><time>2023-06-03T09:36:14.810</time></trkpt><trkpt lat="55.9529790" lon="49.2231708"><time>2023-06-03T09:36:16.837</time></trkpt><trkpt lat="55.9530243" lon="49.2231174"><time>2023-06-03T09:36:18.803</time></trkpt><trkpt lat="55.9530640" lon="49.2230702"><time>2023-06-03T09:36:20.803</time></trkpt><trkpt lat="55.9531014" lon="49.2230210"><time>2023-06-03T09:36:22.823</time></trkpt><trkpt lat="55.9531460" lon="49.2229471"><time>2023-06-03T09:36:46.827</time></trkpt><trkpt lat="55.9531830" lon="49.2229004"><time>2023-06-03T09:36:48.820</time></trkpt><trkpt lat="55.9532213" lon="49.2228505"><time>2023-06-03T09:36:50.813</time></trkpt><trkpt lat="55.9532629" lon="49.2227976"><time>2023-06-03T09:36:52.837</time></trkpt><trkpt lat="55.9533075" lon="49.2227458"><time>2023-06-03T09:36:54.817</time></trkpt><trkpt lat="55.9533551" lon="49.2227011"><time>2023-06-03T09:36:56.803</time></trkpt><trkpt lat="55.9534041" lon="49.2226652"><time>2023-06-03T09:36:58.830</time></trkpt><trkpt lat="55.9534536" lon="49.2226222"><time>2023-06-03T09:37:00.807</time></trkpt><trkpt lat="55.9535004" lon="49.2225754"><time>2023-06-03T09:37:02.800</time></trkpt><trkpt lat="55.9535484" lon="49.2225402"><time>2023-06-03T09:37:06.960</time></trkpt><trkpt lat="55.9535930" lon="49.2225107"><time>2023-06-03T09:37:06.973</time></trkpt><trkpt lat="55.9536441" lon="49.2224528"><time>2023-06-03T09:37:09.817</time></trkpt><trkpt lat="55.9536813" lon="49.2223907"><time>2023-06-03T09:37:12.810</time></trkpt><trkpt lat="55.9537329" lon="49.2223225"><time>2023-06-03T09:37:15.823</time></trkpt><trkpt lat="55.9537830" lon="49.2222868"><time>2023-06-03T09:37:17.807</time></trkpt><trkpt lat="55.9538416" lon="49.2222550"><time>2023-06-03T09:37:19.817</time></trkpt><trkpt lat="55.9538937" lon="49.2222214"><time>2023-06-03T09:37:21.813</time></trkpt><trkpt lat="55.9539470" lon="49.2221461"><time>2023-06-03T09:37:24.813</time></trkpt><trkpt lat="55.9539887" lon="49.2220958"><time>2023-06-03T09:37:26.803</time></trkpt><trkpt lat="55.9540166" lon="49.2220214"><time>2023-06-03T09:37:28.840</time></trkpt><trkpt lat="55.9540177" lon="49.2219197"><time>2023-06-03T09:37:30.817</time></trkpt><trkpt lat="55.9540149" lon="49.2218237"><time>2023-06-03T09:37:32.820</time></trkpt><trkpt lat="55.9540221" lon="49.2217254"><time>2023-06-03T09:37:34.820</time></trkpt><trkpt lat="55.9540268" lon="49.2216394"><time>2023-06-03T09:37:36.800</time></trkpt><trkpt lat="55.9540286" lon="49.2215394"><time>2023-06-03T09:37:39.817</time></trkpt><trkpt lat="55.9540248" lon="49.2214475"><time>2023-06-03T09:37:42.813</time></trkpt><trkpt lat="55.9540178" lon="49.2213647"><time>2023-06-03T09:37:45.803</time></trkpt><trkpt lat="55.9540322" lon="49.2214750"><time>2023-06-03T09:38:08.813</time></trkpt><trkpt lat="55.9540388" lon="49.2215852"><time>2023-06-03T09:38:10.817</time></trkpt><trkpt lat="55.9540340" lon="49.2217217"><time>2023-06-03T09:38:12.817</time></trkpt><trkpt lat="55.9540253" lon="49.2218593"><time>2023-06-03T09:38:14.823</time></trkpt><trkpt lat="55.9540204" lon="49.2219855"><time>2023-06-03T09:38:16.803</time></trkpt><trkpt lat="55.9540574" lon="49.2220672"><time>2023-06-03T09:38:19.813</time></trkpt><trkpt lat="55.9541076" lon="49.2220350"><time>2023-06-03T09:38:21.810</time></trkpt><trkpt lat="55.9541669" lon="49.2219626"><time>2023-06-03T09:38:23.833</time></trkpt><trkpt lat="55.9542269" lon="49.2218795"><time>2023-06-03T09:38:25.817</time></trkpt><trkpt lat="55.9542865" lon="49.2218014"><time>2023-06-03T09:38:27.807</time></trkpt><trkpt lat="55.9543452" lon="49.2217339"><time>2023-06-03T09:38:29.867</time></trkpt><trkpt lat="55.9544028" lon="49.2216730"><time>2023-06-03T09:38:31.820</time></trkpt><trkpt lat="55.9544574" lon="49.2216120"><time>2023-06-03T09:38:33.817</time></trkpt><trkpt lat="55.9545047" lon="49.2215475"><time>2023-06-03T09:38:35.840</time></trkpt><trkpt lat="55.9545465" lon="49.2214611"><time>2023-06-03T09:38:37.833</time></trkpt><trkpt lat="55.9545807" lon="49.2213621"><time>2023-06-03T09:38:39.807</time></trkpt><trkpt lat="55.9546088" lon="49.2212508"><time>2023-06-03T09:38:41.847</time></trkpt><trkpt lat="55.9546264" lon="49.2211403"><time>2023-06-03T09:38:43.803</time></trkpt><trkpt lat="55.9546448" lon="49.2210299"><time>2023-06-03T09:38:45.817</time></trkpt><trkpt lat="55.9546680" lon="49.2209271"><time>2023-06-03T09:38:47.840</time></trkpt><trkpt lat="55.9546887" lon="49.2208389"><time>2023-06-03T09:38:49.813</time></trkpt><trkpt lat="55.9547087" lon="49.2207668"><time>2023-06-03T09:38:51.813</time></trkpt><trkpt lat="55.9547313" lon="49.2206789"><time>2023-06-03T09:38:53.850</time></trkpt><trkpt lat="55.9547291" lon="49.2205731"><time>2023-06-03T09:38:55.813</time></trkpt><trkpt lat="55.9547019" lon="49.2204697"><time>2023-06-03T09:38:57.807</time></trkpt><trkpt lat="55.9546645" lon="49.2203702"><time>2023-06-03T09:38:59.827</time></trkpt><trkpt lat="55.9546323" lon="49.2202643"><time>2023-06-03T09:39:01.820</time></trkpt><trkpt lat="55.9546172" lon="49.2201498"><time>2023-06-03T09:39:03.820</time></trkpt><trkpt lat="55.9546172" lon="49.2200247"><time>2023-06-03T09:39:05.847</time></trkpt><trkpt lat="55.9546225" lon="49.2199081"><time>2023-06-03T09:39:07.813</time></trkpt><trkpt lat="55.9546360" lon="49.2197938"><time>2023-06-03T09:39:09.813</time></trkpt><trkpt lat="55.9546529" lon="49.2196812"><time>2023-06-03T09:39:11.837</time></trkpt><trkpt lat="55.9546708" lon="49.2195730"><time>2023-06-03T09:39:13.813</time></trkpt><trkpt lat="55.9546952" lon="49.2194663"><time>2023-06-03T09:39:15.810</time></trkpt><trkpt lat="55.9547144" lon="49.2193632"><time>2023-06-03T09:39:17.847</time></trkpt><trkpt lat="55.9547322" lon="49.2192656"><time>2023-06-03T09:39:19.817</time></trkpt><trkpt lat="55.9547589" lon="49.2191677"><time>2023-06-03T09:39:21.803</time></trkpt><trkpt lat="55.9547828" lon="49.2190702"><time>2023-06-03T09:39:23.830</time></trkpt><trkpt lat="55.9548042" lon="49.2189688"><time>2023-06-03T09:39:25.813</time></trkpt><trkpt lat="55.9548221" lon="49.2188675"><time>2023-06-03T09:39:27.820</time></trkpt><trkpt lat="55.9548342" lon="49.2187716"><time>2023-06-03T09:39:29.867</time></trkpt><trkpt lat="55.9548421" lon="49.2186808"><time>2023-06-03T09:39:31.883</time></trkpt><trkpt lat="55.9548482" lon="49.2185677"><time>2023-06-03T09:39:33.827</time></trkpt><trkpt lat="55.9548598" lon="49.2184550"><time>2023-06-03T09:39:35.837</time></trkpt><trkpt lat="55.9548738" lon="49.2183501"><time>2023-06-03T09:39:37.790</time></trkpt><trkpt lat="55.9548843" lon="49.2182551"><time>2023-06-03T09:39:39.830</time></trkpt><trkpt lat="55.9548957" lon="49.2181550"><time>2023-06-03T09:39:41.853</time></trkpt><trkpt lat="55.9549050" lon="49.2180549"><time>2023-06-03T09:39:43.813</time></trkpt><trkpt lat="55.9549154" lon="49.2179546"><time>2023-06-03T09:39:45.807</time></trkpt><trkpt lat="55.9549271" lon="49.2178489"><time>2023-06-03T09:39:47.830</time></trkpt><trkpt lat="55.9549411" lon="49.2177474"><time>2023-06-03T09:39:49.790</time></trkpt><trkpt lat="55.9549608" lon="49.2176426"><time>2023-06-03T09:39:51.817</time></trkpt><trkpt lat="55.9549799" lon="49.2175346"><time>2023-06-03T09:39:53.837</time></trkpt><trkpt lat="55.9549962" lon="49.2174305"><time>2023-06-03T09:39:55.807</time></trkpt><trkpt lat="55.9550099" lon="49.2173177"><time>2023-06-03T09:39:57.793</time></trkpt><trkpt lat="55.9550292" lon="49.2172107"><time>2023-06-03T09:39:59.833</time></trkpt><trkpt lat="55.9550515" lon="49.2171068"><time>2023-06-03T09:40:01.817</time></trkpt><trkpt lat="55.9550664" lon="49.2169985"><time>2023-06-03T09:40:03.813</time></trkpt><trkpt lat="55.9550776" lon="49.2168955"><time>2023-06-03T09:40:05.853</time></trkpt><trkpt lat="55.9550873" lon="49.2167954"><time>2023-06-03T09:40:07.820</time></trkpt><trkpt lat="55.9550976" lon="49.2166955"><time>2023-06-03T09:40:09.820</time></trkpt><trkpt lat="55.9551022" lon="49.2165965"><time>2023-06-03T09:40:11.837</time></trkpt><trkpt lat="55.9551134" lon="49.2164899"><time>2023-06-03T09:40:13.817</time></trkpt><trkpt lat="55.9551310" lon="49.2163920"><time>2023-06-03T09:40:15.813</time></trkpt><trkpt lat="55.9551466" lon="49.2162896"><time>2023-06-03T09:40:17.833</time></trkpt><trkpt lat="55.9551574" lon="49.2161896"><time>2023-06-03T09:40:19.813</time></trkpt><trkpt lat="55.9551693" lon="49.2160933"><time>2023-06-03T09:40:21.810</time></trkpt><trkpt lat="55.9551813" lon="49.2159932"><time>2023-06-03T09:40:23.823</time></trkpt><trkpt lat="55.9551942" lon="49.2158844"><time>2023-06-03T09:40:25.813</time></trkpt><trkpt lat="55.9552091" lon="49.2157762"><time>2023-06-03T09:40:27.823</time></trkpt><trkpt lat="55.9552260" lon="49.2156697"><time>2023-06-03T09:40:29.857</time></trkpt><trkpt lat="55.9552394" lon="49.2155643"><time>2023-06-03T09:40:31.820</time></trkpt><trkpt lat="55.9552528" lon="49.2154545"><time>2023-06-03T09:40:33.803</time></trkpt><trkpt lat="55.9552629" lon="49.2153524"><time>2023-06-03T09:40:35.830</time></trkpt><trkpt lat="55.9552723" lon="49.2152511"><time>2023-06-03T09:40:37.810</time></trkpt><trkpt lat="55.9552847" lon="49.2151462"><time>2023-06-03T09:40:39.810</time></trkpt><trkpt lat="55.9552927" lon="49.2150508"><time>2023-06-03T09:40:41.853</time></trkpt><trkpt lat="55.9552993" lon="49.2149569"><time>2023-06-03T09:40:43.803</time></trkpt><trkpt lat="55.9553121" lon="49.2148599"><time>2023-06-03T09:40:45.823</time></trkpt><trkpt lat="55.9553241" lon="49.2147637"><time>2023-06-03T09:40:47.810</time></trkpt><trkpt lat="55.9553355" lon="49.2146639"><time>2023-06-03T09:40:49.813</time></trkpt><trkpt lat="55.9553487" lon="49.2145445"><time>2023-06-03T09:40:51.803</time></trkpt><trkpt lat="55.9553621" lon="49.2144282"><time>2023-06-03T09:40:53.857</time></trkpt><trkpt lat="55.9553753" lon="49.2143221"><time>2023-06-03T09:40:55.820</time></trkpt><trkpt lat="55.9553880" lon="49.2142142"><time>2023-06-03T09:40:57.823</time></trkpt><trkpt lat="55.9553975" lon="49.2141014"><time>2023-06-03T09:40:59.827</time></trkpt><trkpt lat="55.9554011" lon="49.2139864"><time>2023-06-03T09:41:01.803</time></trkpt><trkpt lat="55.9553947" lon="49.2138679"><time>2023-06-03T09:41:03.843</time></trkpt><trkpt lat="55.9553888" lon="49.2138105"><time>2023-06-03T09:41:04.850</time></trkpt><trkpt lat="55.9553804" lon="49.2136903"><time>2023-06-03T09:41:06.793</time></trkpt><trkpt lat="55.9553778" lon="49.2135808"><time>2023-06-03T09:41:08.807</time></trkpt><trkpt lat="55.9553851" lon="49.2134601"><time>2023-06-03T09:41:10.820</time></trkpt><trkpt lat="55.9553951" lon="49.2133389"><time>2023-06-03T09:41:12.810</time></trkpt><trkpt lat="55.9554080" lon="49.2132209"><time>2023-06-03T09:41:14.817</time></trkpt><trkpt lat="55.9554217" lon="49.2131100"><time>2023-06-03T09:41:16.843</time></trkpt><trkpt lat="55.9554367" lon="49.2130073"><time>2023-06-03T09:41:18.820</time></trkpt><trkpt lat="55.9554552" lon="49.2129092"><time>2023-06-03T09:41:20.817</time></trkpt><trkpt lat="55.9554702" lon="49.2128059"><time>2023-06-03T09:41:22.847</time></trkpt><trkpt lat="55.9554788" lon="49.2127045"><time>2023-06-03T09:41:24.813</time></trkpt><trkpt lat="55.9554885" lon="49.2125826"><time>2023-06-03T09:41:26.807</time></trkpt><trkpt lat="55.9555014" lon="49.2124638"><time>2023-06-03T09:41:28.850</time></trkpt><trkpt lat="55.9555108" lon="49.2123604"><time>2023-06-03T09:41:30.820</time></trkpt><trkpt lat="55.9555223" lon="49.2122587"><time>2023-06-03T09:41:32.843</time></trkpt><trkpt lat="55.9555277" lon="49.2122079"><time>2023-06-03T09:41:33.810</time></trkpt><trkpt lat="55.9555353" lon="49.2120997"><time>2023-06-03T09:41:35.817</time></trkpt><trkpt lat="55.9555420" lon="49.2119862"><time>2023-06-03T09:41:37.820</time></trkpt><trkpt lat="55.9555496" lon="49.2118820"><time>2023-06-03T09:41:39.827</time></trkpt><trkpt lat="55.9555587" lon="49.2117724"><time>2023-06-03T09:41:41.813</time></trkpt><trkpt lat="55.9555668" lon="49.2116651"><time>2023-06-03T09:41:43.817</time></trkpt><trkpt lat="55.9555734" lon="49.2115638"><time>2023-06-03T09:41:45.810</time></trkpt><trkpt lat="55.9555907" lon="49.2114661"><time>2023-06-03T09:41:47.803</time></trkpt><trkpt lat="55.9556146" lon="49.2113712"><time>2023-06-03T09:41:50.830</time></trkpt><trkpt lat="55.9556168" lon="49.2113602"><time>2023-06-03T09:41:51.833</time></trkpt><trkpt lat="55.9555964" lon="49.2112716"><time>2023-06-03T09:42:18.813</time></trkpt><trkpt lat="55.9555877" lon="49.2111659"><time>2023-06-03T09:42:22.803</time></trkpt><trkpt lat="55.9555850" lon="49.2110857"><time>2023-06-03T09:42:25.817</time></trkpt><trkpt lat="55.9555863" lon="49.2110004"><time>2023-06-03T09:42:29.820</time></trkpt><trkpt lat="55.9556342" lon="49.2109491"><time>2023-06-03T09:42:34.807</time></trkpt><trkpt lat="55.9556682" lon="49.2108747"><time>2023-06-03T09:42:38.813</time></trkpt><trkpt lat="55.9556953" lon="49.2108044"><time>2023-06-03T09:42:44.833</time></trkpt><trkpt lat="55.9556953" lon="49.2108044"><time>2023-06-03T09:42:44.877</time></trkpt><trkpt lat="55.9556584" lon="49.2108867"><time>2023-06-03T09:42:59.837</time></trkpt><trkpt lat="55.9556548" lon="49.2109020"><time>2023-06-03T09:43:00.817</time></trkpt><trkpt lat="55.9556197" lon="49.2109728"><time>2023-06-03T09:43:06.807</time></trkpt><trkpt lat="55.9555852" lon="49.2110432"><time>2023-06-03T09:43:10.807</time></trkpt><trkpt lat="55.9555390" lon="49.2109598"><time>2023-06-03T09:44:07.817</time></trkpt><trkpt lat="55.9555176" lon="49.2108609"><time>2023-06-03T09:44:09.820</time></trkpt><trkpt lat="55.9554901" lon="49.2107578"><time>2023-06-03T09:44:11.830</time></trkpt><trkpt lat="55.9554597" lon="49.2106488"><time>2023-06-03T09:44:13.823</time></trkpt><trkpt lat="55.9554315" lon="49.2105467"><time>2023-06-03T09:44:15.817</time></trkpt><trkpt lat="55.9553963" lon="49.2104383"><time>2023-06-03T09:44:17.820</time></trkpt><trkpt lat="55.9553641" lon="49.2103311"><time>2023-06-03T09:44:19.810</time></trkpt><trkpt lat="55.9553328" lon="49.2102246"><time>2023-06-03T09:44:21.817</time></trkpt><trkpt lat="55.9553025" lon="49.2101202"><time>2023-06-03T09:44:23.827</time></trkpt><trkpt lat="55.9552722" lon="49.2100168"><time>2023-06-03T09:44:25.817</time></trkpt><trkpt lat="55.9552435" lon="49.2099121"><time>2023-06-03T09:44:27.827</time></trkpt><trkpt lat="55.9552201" lon="49.2098034"><time>2023-06-03T09:44:29.820</time></trkpt><trkpt lat="55.9551974" lon="49.2096884"><time>2023-06-03T09:44:31.813</time></trkpt><trkpt lat="55.9551688" lon="49.2095705"><time>2023-06-03T09:44:33.833</time></trkpt><trkpt lat="55.9551368" lon="49.2094500"><time>2023-06-03T09:44:35.853</time></trkpt><trkpt lat="55.9551009" lon="49.2093340"><time>2023-06-03T09:44:37.823</time></trkpt><trkpt lat="55.9550645" lon="49.2092127"><time>2023-06-03T09:44:39.813</time></trkpt><trkpt lat="55.9550367" lon="49.2090855"><time>2023-06-03T09:44:41.827</time></trkpt><trkpt lat="55.9550058" lon="49.2089740"><time>2023-06-03T09:44:43.810</time></trkpt><trkpt lat="55.9549710" lon="49.2088636"><time>2023-06-03T09:44:45.807</time></trkpt><trkpt lat="55.9549322" lon="49.2087460"><time>2023-06-03T09:44:47.853</time></trkpt><trkpt lat="55.9548959" lon="49.2086256"><time>2023-06-03T09:44:49.797</time></trkpt><trkpt lat="55.9548645" lon="49.2085107"><time>2023-06-03T09:44:51.817</time></trkpt><trkpt lat="55.9548320" lon="49.2084013"><time>2023-06-03T09:44:53.840</time></trkpt><trkpt lat="55.9547962" lon="49.2082885"><time>2023-06-03T09:44:55.813</time></trkpt><trkpt lat="55.9547574" lon="49.2081703"><time>2023-06-03T09:44:57.800</time></trkpt><trkpt lat="55.9547151" lon="49.2080545"><time>2023-06-03T09:44:59.850</time></trkpt><trkpt lat="55.9546805" lon="49.2079326"><time>2023-06-03T09:45:01.817</time></trkpt><trkpt lat="55.9546524" lon="49.2078371"><time>2023-06-03T09:45:03.807</time></trkpt><trkpt lat="55.9546243" lon="49.2077512"><time>2023-06-03T09:45:05.820</time></trkpt><trkpt lat="55.9545974" lon="49.2076777"><time>2023-06-03T09:45:07.827</time></trkpt><trkpt lat="55.9545717" lon="49.2076021"><time>2023-06-03T09:45:09.807</time></trkpt><trkpt lat="55.9545407" lon="49.2075168"><time>2023-06-03T09:45:11.837</time></trkpt><trkpt lat="55.9545063" lon="49.2074117"><time>2023-06-03T09:45:13.810</time></trkpt><trkpt lat="55.9544706" lon="49.2072838"><time>2023-06-03T09:45:15.817</time></trkpt><trkpt lat="55.9544370" lon="49.2071653"><time>2023-06-03T09:45:17.823</time></trkpt><trkpt lat="55.9544020" lon="49.2070595"><time>2023-06-03T09:45:19.803</time></trkpt><trkpt lat="55.9543694" lon="49.2069602"><time>2023-06-03T09:45:21.787</time></trkpt><trkpt lat="55.9543362" lon="49.2068495"><time>2023-06-03T09:45:23.813</time></trkpt><trkpt lat="55.9543065" lon="49.2067348"><time>2023-06-03T09:45:25.817</time></trkpt><trkpt lat="55.9542817" lon="49.2066160"><time>2023-06-03T09:45:27.807</time></trkpt><trkpt lat="55.9542552" lon="49.2064961"><time>2023-06-03T09:45:29.817</time></trkpt><trkpt lat="55.9542257" lon="49.2063894"><time>2023-06-03T09:45:31.810</time></trkpt><trkpt lat="55.9541894" lon="49.2062877"><time>2023-06-03T09:45:33.810</time></trkpt><trkpt lat="55.9541549" lon="49.2061940"><time>2023-06-03T09:45:35.813</time></trkpt><trkpt lat="55.9541197" lon="49.2060998"><time>2023-06-03T09:45:37.813</time></trkpt><trkpt lat="55.9540818" lon="49.2060080"><time>2023-06-03T09:45:39.810</time></trkpt><trkpt lat="55.9540439" lon="49.2059329"><time>2023-06-03T09:45:41.817</time></trkpt><trkpt lat="55.9539985" lon="49.2058434"><time>2023-06-03T09:45:43.817</time></trkpt><trkpt lat="55.9539618" lon="49.2057372"><time>2023-06-03T09:45:45.800</time></trkpt><trkpt lat="55.9539241" lon="49.2056326"><time>2023-06-03T09:45:47.810</time></trkpt><trkpt lat="55.9538853" lon="49.2055241"><time>2023-06-03T09:45:49.810</time></trkpt><trkpt lat="55.9538547" lon="49.2054202"><time>2023-06-03T09:45:51.817</time></trkpt><trkpt lat="55.9538302" lon="49.2053074"><time>2023-06-03T09:45:53.813</time></trkpt><trkpt lat="55.9538099" lon="49.2051828"><time>2023-06-03T09:45:55.787</time></trkpt><trkpt lat="55.9537900" lon="49.2050755"><time>2023-06-03T09:45:57.807</time></trkpt><trkpt lat="55.9537615" lon="49.2049652"><time>2023-06-03T09:45:59.813</time></trkpt><trkpt lat="55.9537215" lon="49.2048588"><time>2023-06-03T09:46:01.800</time></trkpt><trkpt lat="55.9536740" lon="49.2047612"><time>2023-06-03T09:46:03.800</time></trkpt><trkpt lat="55.9536240" lon="49.2046607"><time>2023-06-03T09:46:05.810</time></trkpt><trkpt lat="55.9535848" lon="49.2045643"><time>2023-06-03T09:46:07.827</time></trkpt><trkpt lat="55.9535427" lon="49.2044453"><time>2023-06-03T09:46:09.817</time></trkpt><trkpt lat="55.9535003" lon="49.2043211"><time>2023-06-03T09:46:11.803</time></trkpt><trkpt lat="55.9534526" lon="49.2041903"><time>2023-06-03T09:46:13.807</time></trkpt><trkpt lat="55.9534054" lon="49.2040478"><time>2023-06-03T09:46:15.807</time></trkpt><trkpt lat="55.9533645" lon="49.2039292"><time>2023-06-03T09:46:17.823</time></trkpt><trkpt lat="55.9533211" lon="49.2038048"><time>2023-06-03T09:46:19.817</time></trkpt><trkpt lat="55.9532971" lon="49.2036861"><time>2023-06-03T09:46:21.807</time></trkpt><trkpt lat="55.9532740" lon="49.2036155"><time>2023-06-03T09:46:22.850</time></trkpt><trkpt lat="55.9532377" lon="49.2034861"><time>2023-06-03T09:46:24.807</time></trkpt><trkpt lat="55.9531998" lon="49.2033668"><time>2023-06-03T09:46:26.813</time></trkpt><trkpt lat="55.9531667" lon="49.2032420"><time>2023-06-03T09:46:28.830</time></trkpt><trkpt lat="55.9531295" lon="49.2031150"><time>2023-06-03T09:46:30.797</time></trkpt><trkpt lat="55.9530934" lon="49.2029875"><time>2023-06-03T09:46:32.810</time></trkpt><trkpt lat="55.9530610" lon="49.2028678"><time>2023-06-03T09:46:34.837</time></trkpt><trkpt lat="55.9530258" lon="49.2027554"><time>2023-06-03T09:46:36.800</time></trkpt><trkpt lat="55.9529918" lon="49.2026398"><time>2023-06-03T09:46:38.827</time></trkpt><trkpt lat="55.9529555" lon="49.2025139"><time>2023-06-03T09:46:40.823</time></trkpt><trkpt lat="55.9529172" lon="49.2023890"><time>2023-06-03T09:46:42.817</time></trkpt><trkpt lat="55.9528800" lon="49.2022708"><time>2023-06-03T09:46:44.803</time></trkpt><trkpt lat="55.9528418" lon="49.2021502"><time>2023-06-03T09:46:46.843</time></trkpt><trkpt lat="55.9528083" lon="49.2020320"><time>2023-06-03T09:46:48.817</time></trkpt><trkpt lat="55.9527688" lon="49.2019198"><time>2023-06-03T09:46:50.813</time></trkpt><trkpt lat="55.9527284" lon="49.2018094"><time>2023-06-03T09:46:52.810</time></trkpt><trkpt lat="55.9526913" lon="49.2016903"><time>2023-06-03T09:46:54.813</time></trkpt><trkpt lat="55.9526586" lon="49.2015648"><time>2023-06-03T09:46:56.800</time></trkpt><trkpt lat="55.9526325" lon="49.2014321"><time>2023-06-03T09:46:58.847</time></trkpt><trkpt lat="55.9526106" lon="49.2013068"><time>2023-06-03T09:47:00.817</time></trkpt><trkpt lat="55.9525927" lon="49.2011841"><time>2023-06-03T09:47:02.803</time></trkpt><trkpt lat="55.9525746" lon="49.2010533"><time>2023-06-03T09:47:04.830</time></trkpt><trkpt lat="55.9525597" lon="49.2009263"><time>2023-06-03T09:47:06.813</time></trkpt><trkpt lat="55.9525593" lon="49.2007963"><time>2023-06-03T09:47:08.813</time></trkpt><trkpt lat="55.9525659" lon="49.2007158"><time>2023-06-03T09:47:10.807</time></trkpt><trkpt lat="55.9525755" lon="49.2006313"><time>2023-06-03T09:47:13.817</time></trkpt><trkpt lat="55.9525865" lon="49.2005453"><time>2023-06-03T09:47:26.813</time></trkpt><trkpt lat="55.9525823" lon="49.2004481"><time>2023-06-03T09:47:30.810</time></trkpt><trkpt lat="55.9526056" lon="49.2003397"><time>2023-06-03T09:47:34.807</time></trkpt><trkpt lat="55.9526331" lon="49.2002535"><time>2023-06-03T09:47:36.800</time></trkpt><trkpt lat="55.9526725" lon="49.2001653"><time>2023-06-03T09:47:38.817</time></trkpt><trkpt lat="55.9527115" lon="49.2000770"><time>2023-06-03T09:47:40.817</time></trkpt><trkpt lat="55.9527544" lon="49.1999796"><time>2023-06-03T09:47:42.807</time></trkpt><trkpt lat="55.9527934" lon="49.1998873"><time>2023-06-03T09:47:44.820</time></trkpt><trkpt lat="55.9528265" lon="49.1997802"><time>2023-06-03T09:47:46.817</time></trkpt><trkpt lat="55.9528444" lon="49.1996659"><time>2023-06-03T09:47:48.797</time></trkpt><trkpt lat="55.9528451" lon="49.1995543"><time>2023-06-03T09:47:50.810</time></trkpt><trkpt lat="55.9528395" lon="49.1994404"><time>2023-06-03T09:47:52.803</time></trkpt><trkpt lat="55.9528172" lon="49.1993458"><time>2023-06-03T09:47:55.817</time></trkpt><trkpt lat="55.9528192" lon="49.1992649"><time>2023-06-03T09:48:01.810</time></trkpt><trkpt lat="55.9528122" lon="49.1991697"><time>2023-06-03T09:48:03.807</time></trkpt><trkpt lat="55.9527961" lon="49.1990452"><time>2023-06-03T09:48:05.807</time></trkpt><trkpt lat="55.9527815" lon="49.1989190"><time>2023-06-03T09:48:07.807</time></trkpt><trkpt lat="55.9527718" lon="49.1987977"><time>2023-06-03T09:48:09.803</time></trkpt><trkpt lat="55.9527646" lon="49.1986929"><time>2023-06-03T09:48:11.813</time></trkpt><trkpt lat="55.9527535" lon="49.1985956"><time>2023-06-03T09:48:13.807</time></trkpt><trkpt lat="55.9527440" lon="49.1984819"><time>2023-06-03T09:48:15.813</time></trkpt><trkpt lat="55.9527375" lon="49.1983554"><time>2023-06-03T09:48:17.827</time></trkpt><trkpt lat="55.9527266" lon="49.1982373"><time>2023-06-03T09:48:19.813</time></trkpt><trkpt lat="55.9527170" lon="49.1981194"><time>2023-06-03T09:48:21.817</time></trkpt><trkpt lat="55.9527061" lon="49.1980011"><time>2023-06-03T09:48:23.817</time></trkpt><trkpt lat="55.9526976" lon="49.1978873"><time>2023-06-03T09:48:25.813</time></trkpt><trkpt lat="55.9526880" lon="49.1977840"><time>2023-06-03T09:48:27.803</time></trkpt><trkpt lat="55.9526719" lon="49.1976892"><time>2023-06-03T09:48:29.817</time></trkpt><trkpt lat="55.9526574" lon="49.1975863"><time>2023-06-03T09:48:31.810</time></trkpt><trkpt lat="55.9526502" lon="49.1974788"><time>2023-06-03T09:48:33.813</time></trkpt><trkpt lat="55.9526507" lon="49.1973681"><time>2023-06-03T09:48:35.810</time></trkpt><trkpt lat="55.9526472" lon="49.1972699"><time>2023-06-03T09:48:37.810</time></trkpt><trkpt lat="55.9526394" lon="49.1971669"><time>2023-06-03T09:48:39.817</time></trkpt><trkpt lat="55.9526307" lon="49.1970688"><time>2023-06-03T09:48:41.813</time></trkpt><trkpt lat="55.9526278" lon="49.1969673"><time>2023-06-03T09:48:43.833</time></trkpt><trkpt lat="55.9526060" lon="49.1968670"><time>2023-06-03T09:49:07.847</time></trkpt><trkpt lat="55.9526012" lon="49.1967806"><time>2023-06-03T09:49:09.817</time></trkpt><trkpt lat="55.9525959" lon="49.1966674"><time>2023-06-03T09:49:11.807</time></trkpt><trkpt lat="55.9525978" lon="49.1965503"><time>2023-06-03T09:49:13.830</time></trkpt><trkpt lat="55.9525916" lon="49.1964427"><time>2023-06-03T09:49:15.813</time></trkpt><trkpt lat="55.9525836" lon="49.1963434"><time>2023-06-03T09:49:17.827</time></trkpt><trkpt lat="55.9525849" lon="49.1962255"><time>2023-06-03T09:49:19.843</time></trkpt><trkpt lat="55.9525892" lon="49.1961106"><time>2023-06-03T09:49:21.807</time></trkpt><trkpt lat="55.9525846" lon="49.1960027"><time>2023-06-03T09:49:23.813</time></trkpt><trkpt lat="55.9525699" lon="49.1959029"><time>2023-06-03T09:49:25.820</time></trkpt><trkpt lat="55.9525572" lon="49.1957853"><time>2023-06-03T09:49:27.820</time></trkpt><trkpt lat="55.9525483" lon="49.1956694"><time>2023-06-03T09:49:29.807</time></trkpt><trkpt lat="55.9525514" lon="49.1955567"><time>2023-06-03T09:49:31.837</time></trkpt><trkpt lat="55.9525623" lon="49.1954211"><time>2023-06-03T09:49:33.817</time></trkpt><trkpt lat="55.9525673" lon="49.1953219"><time>2023-06-03T09:49:35.807</time></trkpt><trkpt lat="55.9525338" lon="49.1952341"><time>2023-06-03T09:49:54.817</time></trkpt><trkpt lat="55.9525177" lon="49.1951326"><time>2023-06-03T09:49:56.800</time></trkpt><trkpt lat="55.9524795" lon="49.1950426"><time>2023-06-03T09:49:58.807</time></trkpt><trkpt lat="55.9524318" lon="49.1949517"><time>2023-06-03T09:50:00.803</time></trkpt><trkpt lat="55.9523895" lon="49.1948653"><time>2023-06-03T09:50:02.803</time></trkpt><trkpt lat="55.9523520" lon="49.1947913"><time>2023-06-03T09:50:04.800</time></trkpt><trkpt lat="55.9523177" lon="49.1946937"><time>2023-06-03T09:50:06.803</time></trkpt><trkpt lat="55.9523047" lon="49.1945877"><time>2023-06-03T09:50:08.810</time></trkpt><trkpt lat="55.9523122" lon="49.1944938"><time>2023-06-03T09:50:10.803</time></trkpt><trkpt lat="55.9523514" lon="49.1943888"><time>2023-06-03T09:50:12.810</time></trkpt><trkpt lat="55.9523938" lon="49.1942957"><time>2023-06-03T09:50:14.817</time></trkpt><trkpt lat="55.9524361" lon="49.1941691"><time>2023-06-03T09:50:16.813</time></trkpt><trkpt lat="55.9524537" lon="49.1940405"><time>2023-06-03T09:50:18.797</time></trkpt><trkpt lat="55.9524501" lon="49.1938986"><time>2023-06-03T09:50:20.810</time></trkpt><trkpt lat="55.9524392" lon="49.1937617"><time>2023-06-03T09:50:22.817</time></trkpt><trkpt lat="55.9524238" lon="49.1936225"><time>2023-06-03T09:50:24.803</time></trkpt><trkpt lat="55.9524008" lon="49.1934886"><time>2023-06-03T09:50:26.800</time></trkpt><trkpt lat="55.9523804" lon="49.1933697"><time>2023-06-03T09:50:28.807</time></trkpt><trkpt lat="55.9523672" lon="49.1932505"><time>2023-06-03T09:50:30.803</time></trkpt><trkpt lat="55.9523607" lon="49.1931235"><time>2023-06-03T09:50:32.800</time></trkpt><trkpt lat="55.9523596" lon="49.1929953"><time>2023-06-03T09:50:34.823</time></trkpt><trkpt lat="55.9523655" lon="49.1928610"><time>2023-06-03T09:50:36.787</time></trkpt><trkpt lat="55.9523774" lon="49.1927339"><time>2023-06-03T09:50:38.803</time></trkpt><trkpt lat="55.9523835" lon="49.1926015"><time>2023-06-03T09:50:40.817</time></trkpt><trkpt lat="55.9523910" lon="49.1924681"><time>2023-06-03T09:50:42.807</time></trkpt><trkpt lat="55.9524069" lon="49.1923328"><time>2023-06-03T09:50:44.810</time></trkpt><trkpt lat="55.9524323" lon="49.1922020"><time>2023-06-03T09:50:46.813</time></trkpt><trkpt lat="55.9524588" lon="49.1920763"><time>2023-06-03T09:50:48.817</time></trkpt><trkpt lat="55.9524861" lon="49.1919476"><time>2023-06-03T09:50:50.813</time></trkpt><trkpt lat="55.9525126" lon="49.1918255"><time>2023-06-03T09:50:52.803</time></trkpt><trkpt lat="55.9525357" lon="49.1917042"><time>2023-06-03T09:50:54.807</time></trkpt><trkpt lat="55.9525634" lon="49.1915774"><time>2023-06-03T09:50:56.813</time></trkpt><trkpt lat="55.9525919" lon="49.1914460"><time>2023-06-03T09:50:58.807</time></trkpt><trkpt lat="55.9526207" lon="49.1913060"><time>2023-06-03T09:51:00.827</time></trkpt><trkpt lat="55.9526484" lon="49.1911710"><time>2023-06-03T09:51:02.807</time></trkpt><trkpt lat="55.9526749" lon="49.1910429"><time>2023-06-03T09:51:04.803</time></trkpt><trkpt lat="55.9526896" lon="49.1909184"><time>2023-06-03T09:51:06.853</time></trkpt><trkpt lat="55.9527058" lon="49.1907840"><time>2023-06-03T09:51:08.810</time></trkpt><trkpt lat="55.9527271" lon="49.1906489"><time>2023-06-03T09:51:10.810</time></trkpt><trkpt lat="55.9527478" lon="49.1905239"><time>2023-06-03T09:51:12.817</time></trkpt><trkpt lat="55.9527720" lon="49.1903962"><time>2023-06-03T09:51:14.803</time></trkpt><trkpt lat="55.9527967" lon="49.1902723"><time>2023-06-03T09:51:16.813</time></trkpt><trkpt lat="55.9528139" lon="49.1901553"><time>2023-06-03T09:51:18.797</time></trkpt><trkpt lat="55.9528321" lon="49.1900326"><time>2023-06-03T09:51:20.813</time></trkpt><trkpt lat="55.9528480" lon="49.1899139"><time>2023-06-03T09:51:22.837</time></trkpt><trkpt lat="55.9528579" lon="49.1897914"><time>2023-06-03T09:51:24.800</time></trkpt><trkpt lat="55.9528674" lon="49.1896665"><time>2023-06-03T09:51:26.800</time></trkpt><trkpt lat="55.9528782" lon="49.1895365"><time>2023-06-03T09:51:28.813</time></trkpt><trkpt lat="55.9528909" lon="49.1893966"><time>2023-06-03T09:51:30.807</time></trkpt><trkpt lat="55.9529023" lon="49.1892629"><time>2023-06-03T09:51:32.810</time></trkpt><trkpt lat="55.9529076" lon="49.1891313"><time>2023-06-03T09:51:34.837</time></trkpt><trkpt lat="55.9529079" lon="49.1889939"><time>2023-06-03T09:51:36.807</time></trkpt><trkpt lat="55.9528929" lon="49.1888704"><time>2023-06-03T09:51:38.787</time></trkpt><trkpt lat="55.9528781" lon="49.1887457"><time>2023-06-03T09:51:40.823</time></trkpt><trkpt lat="55.9528721" lon="49.1886219"><time>2023-06-03T09:51:42.787</time></trkpt><trkpt lat="55.9528682" lon="49.1885084"><time>2023-06-03T09:51:44.817</time></trkpt><trkpt lat="55.9528805" lon="49.1884035"><time>2023-06-03T09:51:46.843</time></trkpt><trkpt lat="55.9529066" lon="49.1882934"><time>2023-06-03T09:51:48.813</time></trkpt><trkpt lat="55.9529303" lon="49.1881836"><time>2023-06-03T09:51:50.803</time></trkpt><trkpt lat="55.9529645" lon="49.1880599"><time>2023-06-03T09:51:52.833</time></trkpt><trkpt lat="55.9530106" lon="49.1879292"><time>2023-06-03T09:51:54.813</time></trkpt><trkpt lat="55.9530568" lon="49.1878017"><time>2023-06-03T09:51:56.813</time></trkpt><trkpt lat="55.9531024" lon="49.1876758"><time>2023-06-03T09:51:58.863</time></trkpt><trkpt lat="55.9531499" lon="49.1875569"><time>2023-06-03T09:52:00.810</time></trkpt><trkpt lat="55.9531931" lon="49.1874482"><time>2023-06-03T09:52:02.813</time></trkpt><trkpt lat="55.9532420" lon="49.1873300"><time>2023-06-03T09:52:04.827</time></trkpt><trkpt lat="55.9532982" lon="49.1872197"><time>2023-06-03T09:52:06.797</time></trkpt><trkpt lat="55.9533364" lon="49.1871636"><time>2023-06-03T09:52:07.817</time></trkpt><trkpt lat="55.9533690" lon="49.1871054"><time>2023-06-03T09:52:08.823</time></trkpt><trkpt lat="55.9534157" lon="49.1869917"><time>2023-06-03T09:52:10.790</time></trkpt><trkpt lat="55.9534517" lon="49.1868626"><time>2023-06-03T09:52:12.833</time></trkpt><trkpt lat="55.9534988" lon="49.1867486"><time>2023-06-03T09:52:14.857</time></trkpt><trkpt lat="55.9535162" lon="49.1866823"><time>2023-06-03T09:52:15.833</time></trkpt><trkpt lat="55.9535607" lon="49.1865721"><time>2023-06-03T09:52:17.807</time></trkpt><trkpt lat="55.9536074" lon="49.1864589"><time>2023-06-03T09:52:19.817</time></trkpt><trkpt lat="55.9536591" lon="49.1863309"><time>2023-06-03T09:52:21.850</time></trkpt><trkpt lat="55.9536856" lon="49.1862641"><time>2023-06-03T09:52:22.800</time></trkpt><trkpt lat="55.9537125" lon="49.1861995"><time>2023-06-03T09:52:23.820</time></trkpt><trkpt lat="55.9537683" lon="49.1860730"><time>2023-06-03T09:52:25.800</time></trkpt><trkpt lat="55.9538042" lon="49.1859916"><time>2023-06-03T09:52:26.807</time></trkpt><trkpt lat="55.9538678" lon="49.1858754"><time>2023-06-03T09:52:28.807</time></trkpt><trkpt lat="55.9538985" lon="49.1858150"><time>2023-06-03T09:52:29.817</time></trkpt><trkpt lat="55.9539251" lon="49.1857465"><time>2023-06-03T09:52:30.813</time></trkpt><trkpt lat="55.9539739" lon="49.1856198"><time>2023-06-03T09:52:32.820</time></trkpt><trkpt lat="55.9540219" lon="49.1855072"><time>2023-06-03T09:52:34.807</time></trkpt><trkpt lat="55.9540509" lon="49.1854455"><time>2023-06-03T09:52:35.803</time></trkpt><trkpt lat="55.9541059" lon="49.1853211"><time>2023-06-03T09:52:37.817</time></trkpt><trkpt lat="55.9541381" lon="49.1852579"><time>2023-06-03T09:52:38.807</time></trkpt><trkpt lat="55.9541970" lon="49.1851393"><time>2023-06-03T09:52:40.810</time></trkpt><trkpt lat="55.9542240" lon="49.1850719"><time>2023-06-03T09:52:41.813</time></trkpt><trkpt lat="55.9542504" lon="49.1849989"><time>2023-06-03T09:52:42.807</time></trkpt><trkpt lat="55.9542895" lon="49.1848620"><time>2023-06-03T09:52:44.797</time></trkpt><trkpt lat="55.9543054" lon="49.1847257"><time>2023-06-03T09:52:46.800</time></trkpt><trkpt lat="55.9543215" lon="49.1845854"><time>2023-06-03T09:52:48.817</time></trkpt><trkpt lat="55.9543220" lon="49.1844450"><time>2023-06-03T09:52:50.787</time></trkpt><trkpt lat="55.9543234" lon="49.1843283"><time>2023-06-03T09:52:52.810</time></trkpt><trkpt lat="55.9543380" lon="49.1841924"><time>2023-06-03T09:52:54.803</time></trkpt><trkpt lat="55.9543544" lon="49.1840559"><time>2023-06-03T09:52:56.817</time></trkpt><trkpt lat="55.9543670" lon="49.1839272"><time>2023-06-03T09:52:58.800</time></trkpt><trkpt lat="55.9543837" lon="49.1837851"><time>2023-06-03T09:53:00.820</time></trkpt><trkpt lat="55.9543970" lon="49.1836320"><time>2023-06-03T09:53:02.800</time></trkpt><trkpt lat="55.9544080" lon="49.1834783"><time>2023-06-03T09:53:04.827</time></trkpt><trkpt lat="55.9544248" lon="49.1833267"><time>2023-06-03T09:53:06.793</time></trkpt><trkpt lat="55.9544324" lon="49.1831753"><time>2023-06-03T09:53:08.800</time></trkpt><trkpt lat="55.9544241" lon="49.1830283"><time>2023-06-03T09:53:10.810</time></trkpt><trkpt lat="55.9544071" lon="49.1828789"><time>2023-06-03T09:53:12.813</time></trkpt><trkpt lat="55.9543940" lon="49.1827324"><time>2023-06-03T09:53:14.817</time></trkpt><trkpt lat="55.9543912" lon="49.1826180"><time>2023-06-03T09:53:16.807</time></trkpt><trkpt lat="55.9543853" lon="49.1825051"><time>2023-06-03T09:53:18.830</time></trkpt><trkpt lat="55.9543811" lon="49.1824464"><time>2023-06-03T09:53:19.817</time></trkpt><trkpt lat="55.9543739" lon="49.1823231"><time>2023-06-03T09:53:21.853</time></trkpt><trkpt lat="55.9543676" lon="49.1822032"><time>2023-06-03T09:53:23.810</time></trkpt><trkpt lat="55.9543663" lon="49.1821178"><time>2023-06-03T09:53:52.823</time></trkpt><trkpt lat="55.9543150" lon="49.1820801"><time>2023-06-03T09:53:55.827</time></trkpt><trkpt lat="55.9542606" lon="49.1820751"><time>2023-06-03T09:53:57.860</time></trkpt><trkpt lat="55.9541871" lon="49.1820749"><time>2023-06-03T09:53:59.833</time></trkpt><trkpt lat="55.9541546" lon="49.1820771"><time>2023-06-03T09:54:00.817</time></trkpt><trkpt lat="55.9540957" lon="49.1820878"><time>2023-06-03T09:54:02.830</time></trkpt><trkpt lat="55.9540381" lon="49.1821108"><time>2023-06-03T09:54:04.827</time></trkpt><trkpt lat="55.9539801" lon="49.1821370"><time>2023-06-03T09:54:06.810</time></trkpt><trkpt lat="55.9539313" lon="49.1821418"><time>2023-06-03T09:54:08.817</time></trkpt><trkpt lat="55.9539042" lon="49.1822419"><time>2023-06-03T09:54:53.797</time></trkpt><trkpt lat="55.9538736" lon="49.1823292"><time>2023-06-03T09:54:56.813</time></trkpt><trkpt lat="55.9538439" lon="49.1824092"><time>2023-06-03T09:54:59.800</time></trkpt><trkpt lat="55.9538111" lon="49.1824677"><time>2023-06-03T09:55:01.807</time></trkpt><trkpt lat="55.9537732" lon="49.1825235"><time>2023-06-03T09:55:03.820</time></trkpt><trkpt lat="55.9537364" lon="49.1825888"><time>2023-06-03T09:55:05.810</time></trkpt><trkpt lat="55.9537048" lon="49.1826673"><time>2023-06-03T09:55:07.800</time></trkpt><trkpt lat="55.9536727" lon="49.1827371"><time>2023-06-03T09:55:09.840</time></trkpt><trkpt lat="55.9536411" lon="49.1827988"><time>2023-06-03T09:55:11.803</time></trkpt><trkpt lat="55.9536046" lon="49.1828816"><time>2023-06-03T09:55:13.793</time></trkpt><trkpt lat="55.9535720" lon="49.1829630"><time>2023-06-03T09:55:15.820</time></trkpt><trkpt lat="55.9535275" lon="49.1830345"><time>2023-06-03T09:55:17.820</time></trkpt><trkpt lat="55.9534698" lon="49.1831051"><time>2023-06-03T09:55:19.817</time></trkpt><trkpt lat="55.9534383" lon="49.1831408"><time>2023-06-03T09:55:20.803</time></trkpt><trkpt lat="55.9533859" lon="49.1832026"><time>2023-06-03T09:55:22.803</time></trkpt><trkpt lat="55.9533386" lon="49.1832590"><time>2023-06-03T09:55:24.813</time></trkpt><trkpt lat="55.9532897" lon="49.1833121"><time>2023-06-03T09:55:26.813</time></trkpt><trkpt lat="55.9532320" lon="49.1833765"><time>2023-06-03T09:55:28.810</time></trkpt><trkpt lat="55.9531657" lon="49.1834435"><time>2023-06-03T09:55:30.800</time></trkpt><trkpt lat="55.9530959" lon="49.1834777"><time>2023-06-03T09:55:32.847</time></trkpt><trkpt lat="55.9530683" lon="49.1834945"><time>2023-06-03T09:55:33.810</time></trkpt><trkpt lat="55.9530400" lon="49.1835755"><time>2023-06-03T09:55:47.820</time></trkpt><trkpt lat="55.9529874" lon="49.1835742"><time>2023-06-03T09:56:04.807</time></trkpt><trkpt lat="55.9529413" lon="49.1835821"><time>2023-06-03T09:56:09.800</time></trkpt><trkpt lat="55.9529274" lon="49.1836622"><time>2023-06-03T09:56:14.823</time></trkpt><trkpt lat="55.9528736" lon="49.1836465"><time>2023-06-03T09:56:19.833</time></trkpt><trkpt lat="55.9528736" lon="49.1836465"><time>2023-06-03T09:56:19.920</time></trkpt><trkpt lat="55.9529280" lon="49.1836240"><time>2023-06-03T09:56:29.827</time></trkpt><trkpt lat="55.9529466" lon="49.1836145"><time>2023-06-03T09:56:30.847</time></trkpt><trkpt lat="55.9529851" lon="49.1835667"><time>2023-06-03T09:56:34.797</time></trkpt><trkpt lat="55.9530364" lon="49.1835446"><time>2023-06-03T09:56:40.807</time></trkpt><trkpt lat="55.9530912" lon="49.1835512"><time>2023-06-03T09:56:43.813</time></trkpt><trkpt lat="55.9531381" lon="49.1835596"><time>2023-06-03T09:56:47.827</time></trkpt><trkpt lat="55.9531832" lon="49.1835914"><time>2023-06-03T09:56:52.813</time></trkpt><trkpt lat="55.9532268" lon="49.1835168"><time>2023-06-03T09:57:18.803</time></trkpt><trkpt lat="55.9532639" lon="49.1834344"><time>2023-06-03T09:57:20.817</time></trkpt><trkpt lat="55.9532971" lon="49.1833655"><time>2023-06-03T09:57:22.820</time></trkpt><trkpt lat="55.9533377" lon="49.1833042"><time>2023-06-03T09:57:24.817</time></trkpt><trkpt lat="55.9533899" lon="49.1832351"><time>2023-06-03T09:57:26.803</time></trkpt><trkpt lat="55.9534455" lon="49.1831550"><time>2023-06-03T09:57:28.807</time></trkpt><trkpt lat="55.9535116" lon="49.1830669"><time>2023-06-03T09:57:30.813</time></trkpt><trkpt lat="55.9535459" lon="49.1830136"><time>2023-06-03T09:57:31.817</time></trkpt><trkpt lat="55.9535957" lon="49.1829039"><time>2023-06-03T09:57:33.823</time></trkpt><trkpt lat="55.9536386" lon="49.1827999"><time>2023-06-03T09:57:35.823</time></trkpt><trkpt lat="55.9537031" lon="49.1826972"><time>2023-06-03T09:57:37.830</time></trkpt><trkpt lat="55.9537536" lon="49.1826004"><time>2023-06-03T09:57:39.823</time></trkpt><trkpt lat="55.9537987" lon="49.1825048"><time>2023-06-03T09:57:41.853</time></trkpt><trkpt lat="55.9538492" lon="49.1824121"><time>2023-06-03T09:57:43.813</time></trkpt><trkpt lat="55.9538910" lon="49.1823247"><time>2023-06-03T09:57:45.817</time></trkpt><trkpt lat="55.9539300" lon="49.1822263"><time>2023-06-03T09:57:47.840</time></trkpt><trkpt lat="55.9539609" lon="49.1821499"><time>2023-06-03T09:57:49.817</time></trkpt><trkpt lat="55.9540249" lon="49.1821057"><time>2023-06-03T09:57:52.820</time></trkpt><trkpt lat="55.9540911" lon="49.1820881"><time>2023-06-03T09:57:54.820</time></trkpt><trkpt lat="55.9541652" lon="49.1820629"><time>2023-06-03T09:57:56.800</time></trkpt><trkpt lat="55.9542428" lon="49.1820497"><time>2023-06-03T09:57:58.810</time></trkpt><trkpt lat="55.9543114" lon="49.1820531"><time>2023-06-03T09:58:00.817</time></trkpt><trkpt lat="55.9543710" lon="49.1820295"><time>2023-06-03T09:58:03.803</time></trkpt><trkpt lat="55.9543860" lon="49.1819399"><time>2023-06-03T09:58:05.840</time></trkpt><trkpt lat="55.9543734" lon="49.1818509"><time>2023-06-03T09:58:07.787</time></trkpt><trkpt lat="55.9543505" lon="49.1817731"><time>2023-06-03T09:58:09.813</time></trkpt><trkpt lat="55.9543299" lon="49.1816679"><time>2023-06-03T09:58:11.820</time></trkpt><trkpt lat="55.9543161" lon="49.1815406"><time>2023-06-03T09:58:13.803</time></trkpt><trkpt lat="55.9543037" lon="49.1814114"><time>2023-06-03T09:58:15.810</time></trkpt><trkpt lat="55.9542895" lon="49.1812731"><time>2023-06-03T09:58:17.840</time></trkpt><trkpt lat="55.9542683" lon="49.1811333"><time>2023-06-03T09:58:19.840</time></trkpt><trkpt lat="55.9542421" lon="49.1809955"><time>2023-06-03T09:58:21.810</time></trkpt><trkpt lat="55.9542284" lon="49.1808507"><time>2023-06-03T09:58:23.803</time></trkpt><trkpt lat="55.9542346" lon="49.1807030"><time>2023-06-03T09:58:25.820</time></trkpt><trkpt lat="55.9542513" lon="49.1805625"><time>2023-06-03T09:58:27.820</time></trkpt><trkpt lat="55.9542698" lon="49.1804264"><time>2023-06-03T09:58:29.850</time></trkpt><trkpt lat="55.9542950" lon="49.1802790"><time>2023-06-03T09:58:31.807</time></trkpt><trkpt lat="55.9543162" lon="49.1801319"><time>2023-06-03T09:58:33.810</time></trkpt><trkpt lat="55.9543365" lon="49.1799780"><time>2023-06-03T09:58:35.820</time></trkpt><trkpt lat="55.9543569" lon="49.1798261"><time>2023-06-03T09:58:37.810</time></trkpt><trkpt lat="55.9543736" lon="49.1796771"><time>2023-06-03T09:58:39.817</time></trkpt><trkpt lat="55.9543849" lon="49.1795252"><time>2023-06-03T09:58:41.813</time></trkpt><trkpt lat="55.9543936" lon="49.1793775"><time>2023-06-03T09:58:43.807</time></trkpt><trkpt lat="55.9544093" lon="49.1792266"><time>2023-06-03T09:58:45.823</time></trkpt><trkpt lat="55.9544246" lon="49.1790796"><time>2023-06-03T09:58:47.833</time></trkpt><trkpt lat="55.9544419" lon="49.1789074"><time>2023-06-03T09:58:49.827</time></trkpt><trkpt lat="55.9544537" lon="49.1787639"><time>2023-06-03T09:58:51.810</time></trkpt><trkpt lat="55.9544688" lon="49.1786184"><time>2023-06-03T09:58:53.800</time></trkpt><trkpt lat="55.9544720" lon="49.1785311"><time>2023-06-03T09:58:54.810</time></trkpt><trkpt lat="55.9544642" lon="49.1783759"><time>2023-06-03T09:58:56.813</time></trkpt><trkpt lat="55.9544671" lon="49.1782546"><time>2023-06-03T09:58:58.830</time></trkpt><trkpt lat="55.9544971" lon="49.1781199"><time>2023-06-03T09:59:00.813</time></trkpt><trkpt lat="55.9545192" lon="49.1779894"><time>2023-06-03T09:59:02.800</time></trkpt><trkpt lat="55.9545295" lon="49.1778317"><time>2023-06-03T09:59:04.857</time></trkpt><trkpt lat="55.9545343" lon="49.1777462"><time>2023-06-03T09:59:05.817</time></trkpt><trkpt lat="55.9545524" lon="49.1776096"><time>2023-06-03T09:59:07.817</time></trkpt><trkpt lat="55.9545670" lon="49.1774656"><time>2023-06-03T09:59:09.817</time></trkpt><trkpt lat="55.9545780" lon="49.1773219"><time>2023-06-03T09:59:11.820</time></trkpt><trkpt lat="55.9545884" lon="49.1771839"><time>2023-06-03T09:59:13.817</time></trkpt><trkpt lat="55.9546206" lon="49.1770138"><time>2023-06-03T09:59:15.833</time></trkpt><trkpt lat="55.9546436" lon="49.1769267"><time>2023-06-03T09:59:16.847</time></trkpt><trkpt lat="55.9546613" lon="49.1768520"><time>2023-06-03T09:59:17.813</time></trkpt><trkpt lat="55.9546931" lon="49.1767158"><time>2023-06-03T09:59:19.817</time></trkpt><trkpt lat="55.9547273" lon="49.1765762"><time>2023-06-03T09:59:21.840</time></trkpt><trkpt lat="55.9547462" lon="49.1764439"><time>2023-06-03T09:59:23.813</time></trkpt><trkpt lat="55.9547668" lon="49.1763588"><time>2023-06-03T09:59:24.813</time></trkpt><trkpt lat="55.9547901" lon="49.1762821"><time>2023-06-03T09:59:25.820</time></trkpt><trkpt lat="55.9548263" lon="49.1761411"><time>2023-06-03T09:59:27.817</time></trkpt><trkpt lat="55.9548604" lon="49.1760123"><time>2023-06-03T09:59:29.823</time></trkpt><trkpt lat="55.9548593" lon="49.1758809"><time>2023-06-03T09:59:31.817</time></trkpt><trkpt lat="55.9548708" lon="49.1757982"><time>2023-06-03T09:59:32.817</time></trkpt><trkpt lat="55.9548971" lon="49.1756548"><time>2023-06-03T09:59:34.823</time></trkpt><trkpt lat="55.9549125" lon="49.1754933"><time>2023-06-03T09:59:36.810</time></trkpt><trkpt lat="55.9549244" lon="49.1753497"><time>2023-06-03T09:59:38.807</time></trkpt><trkpt lat="55.9549326" lon="49.1752159"><time>2023-06-03T09:59:40.803</time></trkpt><trkpt lat="55.9549388" lon="49.1750815"><time>2023-06-03T09:59:42.807</time></trkpt><trkpt lat="55.9549403" lon="49.1749572"><time>2023-06-03T09:59:44.810</time></trkpt><trkpt lat="55.9549389" lon="49.1748256"><time>2023-06-03T09:59:46.787</time></trkpt><trkpt lat="55.9549420" lon="49.1746978"><time>2023-06-03T09:59:48.823</time></trkpt><trkpt lat="55.9549470" lon="49.1745668"><time>2023-06-03T09:59:50.813</time></trkpt><trkpt lat="55.9549565" lon="49.1744305"><time>2023-06-03T09:59:52.810</time></trkpt><trkpt lat="55.9549711" lon="49.1742960"><time>2023-06-03T09:59:54.817</time></trkpt><trkpt lat="55.9549970" lon="49.1741653"><time>2023-06-03T09:59:56.810</time></trkpt><trkpt lat="55.9550286" lon="49.1740280"><time>2023-06-03T09:59:58.817</time></trkpt><trkpt lat="55.9550585" lon="49.1738933"><time>2023-06-03T10:00:00.823</time></trkpt><trkpt lat="55.9550915" lon="49.1737507"><time>2023-06-03T10:00:02.813</time></trkpt><trkpt lat="55.9551053" lon="49.1736377"><time>2023-06-03T10:00:03.857</time></trkpt><trkpt lat="55.9551253" lon="49.1734913"><time>2023-06-03T10:00:05.817</time></trkpt><trkpt lat="55.9551301" lon="49.1733470"><time>2023-06-03T10:00:07.807</time></trkpt><trkpt lat="55.9551217" lon="49.1732159"><time>2023-06-03T10:00:09.830</time></trkpt><trkpt lat="55.9551145" lon="49.1730846"><time>2023-06-03T10:00:11.820</time></trkpt><trkpt lat="55.9551229" lon="49.1729453"><time>2023-06-03T10:00:13.807</time></trkpt><trkpt lat="55.9551479" lon="49.1728064"><time>2023-06-03T10:00:15.847</time></trkpt><trkpt lat="55.9551864" lon="49.1726908"><time>2023-06-03T10:00:17.803</time></trkpt><trkpt lat="55.9552383" lon="49.1725899"><time>2023-06-03T10:00:19.787</time></trkpt><trkpt lat="55.9552949" lon="49.1724748"><time>2023-06-03T10:00:21.833</time></trkpt><trkpt lat="55.9553411" lon="49.1723535"><time>2023-06-03T10:00:23.787</time></trkpt><trkpt lat="55.9553712" lon="49.1722270"><time>2023-06-03T10:00:25.823</time></trkpt><trkpt lat="55.9553908" lon="49.1720963"><time>2023-06-03T10:00:27.810</time></trkpt><trkpt lat="55.9554067" lon="49.1719422"><time>2023-06-03T10:00:29.807</time></trkpt><trkpt lat="55.9554202" lon="49.1717953"><time>2023-06-03T10:00:31.800</time></trkpt><trkpt lat="55.9554513" lon="49.1716716"><time>2023-06-03T10:00:33.810</time></trkpt><trkpt lat="55.9554951" lon="49.1715523"><time>2023-06-03T10:00:35.803</time></trkpt><trkpt lat="55.9555268" lon="49.1714320"><time>2023-06-03T10:00:37.817</time></trkpt><trkpt lat="55.9555518" lon="49.1712959"><time>2023-06-03T10:00:39.810</time></trkpt><trkpt lat="55.9555715" lon="49.1711655"><time>2023-06-03T10:00:41.807</time></trkpt><trkpt lat="55.9555886" lon="49.1710309"><time>2023-06-03T10:00:43.817</time></trkpt><trkpt lat="55.9556050" lon="49.1708922"><time>2023-06-03T10:00:45.810</time></trkpt><trkpt lat="55.9556177" lon="49.1707562"><time>2023-06-03T10:00:47.797</time></trkpt><trkpt lat="55.9556341" lon="49.1706141"><time>2023-06-03T10:00:49.823</time></trkpt><trkpt lat="55.9556550" lon="49.1704743"><time>2023-06-03T10:00:51.827</time></trkpt><trkpt lat="55.9556762" lon="49.1703383"><time>2023-06-03T10:00:53.807</time></trkpt><trkpt lat="55.9556972" lon="49.1701974"><time>2023-06-03T10:00:55.813</time></trkpt><trkpt lat="55.9557177" lon="49.1700599"><time>2023-06-03T10:00:57.810</time></trkpt><trkpt lat="55.9557426" lon="49.1699188"><time>2023-06-03T10:00:59.817</time></trkpt><trkpt lat="55.9557762" lon="49.1698431"><time>2023-06-03T10:01:00.823</time></trkpt><trkpt lat="55.9558345" lon="49.1697263"><time>2023-06-03T10:01:02.833</time></trkpt><trkpt lat="55.9558820" lon="49.1695983"><time>2023-06-03T10:01:04.827</time></trkpt><trkpt lat="55.9559098" lon="49.1694624"><time>2023-06-03T10:01:06.807</time></trkpt><trkpt lat="55.9559467" lon="49.1693319"><time>2023-06-03T10:01:08.857</time></trkpt><trkpt lat="55.9559682" lon="49.1691795"><time>2023-06-03T10:01:10.807</time></trkpt><trkpt lat="55.9559962" lon="49.1690367"><time>2023-06-03T10:01:12.813</time></trkpt><trkpt lat="55.9560232" lon="49.1688962"><time>2023-06-03T10:01:14.853</time></trkpt><trkpt lat="55.9560506" lon="49.1687555"><time>2023-06-03T10:01:16.803</time></trkpt><trkpt lat="55.9560808" lon="49.1686197"><time>2023-06-03T10:01:18.817</time></trkpt><trkpt lat="55.9561115" lon="49.1684955"><time>2023-06-03T10:01:20.823</time></trkpt><trkpt lat="55.9561426" lon="49.1684048"><time>2023-06-03T10:01:34.817</time></trkpt><trkpt lat="55.9561458" lon="49.1683122"><time>2023-06-03T10:01:36.800</time></trkpt><trkpt lat="55.9561475" lon="49.1681900"><time>2023-06-03T10:01:38.820</time></trkpt><trkpt lat="55.9561466" lon="49.1680683"><time>2023-06-03T10:01:40.820</time></trkpt><trkpt lat="55.9561378" lon="49.1679462"><time>2023-06-03T10:01:42.810</time></trkpt><trkpt lat="55.9561214" lon="49.1678247"><time>2023-06-03T10:01:44.820</time></trkpt><trkpt lat="55.9560988" lon="49.1677164"><time>2023-06-03T10:01:46.837</time></trkpt><trkpt lat="55.9560713" lon="49.1676092"><time>2023-06-03T10:01:48.813</time></trkpt><trkpt lat="55.9560425" lon="49.1675076"><time>2023-06-03T10:01:50.837</time></trkpt><trkpt lat="55.9560206" lon="49.1674029"><time>2023-06-03T10:01:52.830</time></trkpt><trkpt lat="55.9560090" lon="49.1672870"><time>2023-06-03T10:01:54.813</time></trkpt><trkpt lat="55.9560003" lon="49.1671751"><time>2023-06-03T10:01:56.800</time></trkpt><trkpt lat="55.9560000" lon="49.1670712"><time>2023-06-03T10:01:58.807</time></trkpt><trkpt lat="55.9560161" lon="49.1669619"><time>2023-06-03T10:02:00.823</time></trkpt><trkpt lat="55.9560364" lon="49.1668625"><time>2023-06-03T10:02:02.810</time></trkpt><trkpt lat="55.9560495" lon="49.1667804"><time>2023-06-03T10:02:04.813</time></trkpt><trkpt lat="55.9560410" lon="49.1666964"><time>2023-06-03T10:02:07.860</time></trkpt><trkpt lat="55.9560275" lon="49.1666017"><time>2023-06-03T10:02:23.813</time></trkpt><trkpt lat="55.9560451" lon="49.1665053"><time>2023-06-03T10:02:25.827</time></trkpt><trkpt lat="55.9560210" lon="49.1663831"><time>2023-06-03T10:02:27.833</time></trkpt><trkpt lat="55.9559601" lon="49.1662907"><time>2023-06-03T10:02:29.820</time></trkpt><trkpt lat="55.9558902" lon="49.1662141"><time>2023-06-03T10:02:31.827</time></trkpt><trkpt lat="55.9558216" lon="49.1661432"><time>2023-06-03T10:02:33.830</time></trkpt><trkpt lat="55.9557442" lon="49.1660693"><time>2023-06-03T10:02:35.817</time></trkpt><trkpt lat="55.9556663" lon="49.1659944"><time>2023-06-03T10:02:37.837</time></trkpt><trkpt lat="55.9556265" lon="49.1659571"><time>2023-06-03T10:02:38.813</time></trkpt><trkpt lat="55.9555505" lon="49.1658796"><time>2023-06-03T10:02:40.817</time></trkpt><trkpt lat="55.9554699" lon="49.1658128"><time>2023-06-03T10:02:42.937</time></trkpt><trkpt lat="55.9554271" lon="49.1657815"><time>2023-06-03T10:02:43.817</time></trkpt><trkpt lat="55.9553819" lon="49.1657509"><time>2023-06-03T10:02:44.817</time></trkpt><trkpt lat="55.9553343" lon="49.1657179"><time>2023-06-03T10:02:45.813</time></trkpt><trkpt lat="55.9552505" lon="49.1656672"><time>2023-06-03T10:02:47.820</time></trkpt><trkpt lat="55.9551643" lon="49.1656172"><time>2023-06-03T10:02:49.817</time></trkpt><trkpt lat="55.9550785" lon="49.1655735"><time>2023-06-03T10:02:51.820</time></trkpt><trkpt lat="55.9549984" lon="49.1655489"><time>2023-06-03T10:02:53.810</time></trkpt><trkpt lat="55.9549505" lon="49.1655322"><time>2023-06-03T10:02:54.857</time></trkpt><trkpt lat="55.9548612" lon="49.1655094"><time>2023-06-03T10:02:56.797</time></trkpt><trkpt lat="55.9548128" lon="49.1654962"><time>2023-06-03T10:02:57.820</time></trkpt><trkpt lat="55.9547246" lon="49.1654580"><time>2023-06-03T10:02:59.810</time></trkpt><trkpt lat="55.9546793" lon="49.1654455"><time>2023-06-03T10:03:00.807</time></trkpt><trkpt lat="55.9546249" lon="49.1654254"><time>2023-06-03T10:03:01.807</time></trkpt><trkpt lat="55.9545765" lon="49.1654104"><time>2023-06-03T10:03:02.803</time></trkpt><trkpt lat="55.9545209" lon="49.1653913"><time>2023-06-03T10:03:03.813</time></trkpt><trkpt lat="55.9544673" lon="49.1653875"><time>2023-06-03T10:03:04.813</time></trkpt><trkpt lat="55.9544202" lon="49.1653874"><time>2023-06-03T10:03:05.853</time></trkpt><trkpt lat="55.9543692" lon="49.1653660"><time>2023-06-03T10:03:06.820</time></trkpt><trkpt lat="55.9542812" lon="49.1653422"><time>2023-06-03T10:03:08.820</time></trkpt><trkpt lat="55.9541996" lon="49.1653284"><time>2023-06-03T10:03:10.803</time></trkpt><trkpt lat="55.9541528" lon="49.1653184"><time>2023-06-03T10:03:11.823</time></trkpt><trkpt lat="55.9541052" lon="49.1653076"><time>2023-06-03T10:03:12.807</time></trkpt><trkpt lat="55.9540157" lon="49.1652787"><time>2023-06-03T10:03:14.797</time></trkpt><trkpt lat="55.9539688" lon="49.1652678"><time>2023-06-03T10:03:15.810</time></trkpt><trkpt lat="55.9539228" lon="49.1652530"><time>2023-06-03T10:03:16.803</time></trkpt><trkpt lat="55.9538728" lon="49.1652454"><time>2023-06-03T10:03:17.833</time></trkpt><trkpt lat="55.9538168" lon="49.1652306"><time>2023-06-03T10:03:18.800</time></trkpt><trkpt lat="55.9537651" lon="49.1652107"><time>2023-06-03T10:03:19.820</time></trkpt><trkpt lat="55.9537166" lon="49.1651933"><time>2023-06-03T10:03:20.803</time></trkpt><trkpt lat="55.9536673" lon="49.1651869"><time>2023-06-03T10:03:21.807</time></trkpt><trkpt lat="55.9536168" lon="49.1651518"><time>2023-06-03T10:03:22.800</time></trkpt><trkpt lat="55.9535290" lon="49.1651521"><time>2023-06-03T10:03:24.800</time></trkpt><trkpt lat="55.9534827" lon="49.1651429"><time>2023-06-03T10:03:25.810</time></trkpt><trkpt lat="55.9534280" lon="49.1651176"><time>2023-06-03T10:03:26.800</time></trkpt><trkpt lat="55.9533457" lon="49.1651283"><time>2023-06-03T10:03:28.803</time></trkpt><trkpt lat="55.9532964" lon="49.1651075"><time>2023-06-03T10:03:29.837</time></trkpt><trkpt lat="55.9532447" lon="49.1650833"><time>2023-06-03T10:03:30.797</time></trkpt><trkpt lat="55.9531900" lon="49.1650501"><time>2023-06-03T10:03:31.800</time></trkpt><trkpt lat="55.9531431" lon="49.1650375"><time>2023-06-03T10:03:32.810</time></trkpt><trkpt lat="55.9530527" lon="49.1650222"><time>2023-06-03T10:03:34.820</time></trkpt><trkpt lat="55.9530021" lon="49.1650045"><time>2023-06-03T10:03:35.813</time></trkpt><trkpt lat="55.9529498" lon="49.1650051"><time>2023-06-03T10:03:36.800</time></trkpt><trkpt lat="55.9528617" lon="49.1649919"><time>2023-06-03T10:03:38.807</time></trkpt><trkpt lat="55.9528078" lon="49.1649716"><time>2023-06-03T10:03:39.800</time></trkpt><trkpt lat="55.9527618" lon="49.1649563"><time>2023-06-03T10:03:40.810</time></trkpt><trkpt lat="55.9526723" lon="49.1649557"><time>2023-06-03T10:03:42.800</time></trkpt><trkpt lat="55.9526262" lon="49.1649445"><time>2023-06-03T10:03:43.820</time></trkpt><trkpt lat="55.9525686" lon="49.1649298"><time>2023-06-03T10:03:44.797</time></trkpt><trkpt lat="55.9525157" lon="49.1649168"><time>2023-06-03T10:03:45.813</time></trkpt><trkpt lat="55.9524318" lon="49.1648990"><time>2023-06-03T10:03:47.823</time></trkpt><trkpt lat="55.9523799" lon="49.1648803"><time>2023-06-03T10:03:48.793</time></trkpt><trkpt lat="55.9523319" lon="49.1648668"><time>2023-06-03T10:03:49.807</time></trkpt><trkpt lat="55.9522368" lon="49.1648570"><time>2023-06-03T10:03:51.820</time></trkpt><trkpt lat="55.9521819" lon="49.1648425"><time>2023-06-03T10:03:52.800</time></trkpt><trkpt lat="55.9521331" lon="49.1648258"><time>2023-06-03T10:03:53.843</time></trkpt><trkpt lat="55.9520866" lon="49.1648140"><time>2023-06-03T10:03:54.803</time></trkpt><trkpt lat="55.9520350" lon="49.1647872"><time>2023-06-03T10:03:55.803</time></trkpt><trkpt lat="55.9519468" lon="49.1647793"><time>2023-06-03T10:03:57.797</time></trkpt><trkpt lat="55.9518982" lon="49.1647559"><time>2023-06-03T10:03:58.803</time></trkpt><trkpt lat="55.9518092" lon="49.1647340"><time>2023-06-03T10:04:00.803</time></trkpt><trkpt lat="55.9517616" lon="49.1647173"><time>2023-06-03T10:04:01.803</time></trkpt><trkpt lat="55.9517122" lon="49.1646892"><time>2023-06-03T10:04:02.800</time></trkpt><trkpt lat="55.9516648" lon="49.1646613"><time>2023-06-03T10:04:03.810</time></trkpt><trkpt lat="55.9516159" lon="49.1646390"><time>2023-06-03T10:04:04.807</time></trkpt><trkpt lat="55.9515646" lon="49.1646246"><time>2023-06-03T10:04:05.847</time></trkpt><trkpt lat="55.9515135" lon="49.1646069"><time>2023-06-03T10:04:06.803</time></trkpt><trkpt lat="55.9514638" lon="49.1645897"><time>2023-06-03T10:04:07.813</time></trkpt><trkpt lat="55.9514108" lon="49.1645719"><time>2023-06-03T10:04:08.813</time></trkpt><trkpt lat="55.9513656" lon="49.1645539"><time>2023-06-03T10:04:09.817</time></trkpt><trkpt lat="55.9513135" lon="49.1645311"><time>2023-06-03T10:04:10.797</time></trkpt><trkpt lat="55.9512644" lon="49.1645071"><time>2023-06-03T10:04:11.837</time></trkpt><trkpt lat="55.9512135" lon="49.1644833"><time>2023-06-03T10:04:12.803</time></trkpt><trkpt lat="55.9511216" lon="49.1644635"><time>2023-06-03T10:04:14.807</time></trkpt><trkpt lat="55.9510663" lon="49.1644395"><time>2023-06-03T10:04:15.820</time></trkpt><trkpt lat="55.9510106" lon="49.1644263"><time>2023-06-03T10:04:16.800</time></trkpt><trkpt lat="55.9509621" lon="49.1644170"><time>2023-06-03T10:04:17.830</time></trkpt><trkpt lat="55.9509173" lon="49.1643969"><time>2023-06-03T10:04:18.803</time></trkpt><trkpt lat="55.9508270" lon="49.1643699"><time>2023-06-03T10:04:20.807</time></trkpt><trkpt lat="55.9507750" lon="49.1643591"><time>2023-06-03T10:04:21.813</time></trkpt><trkpt lat="55.9507264" lon="49.1643362"><time>2023-06-03T10:04:22.807</time></trkpt><trkpt lat="55.9506559" lon="49.1642831"><time>2023-06-03T10:04:24.813</time></trkpt><trkpt lat="55.9506061" lon="49.1642722"><time>2023-06-03T10:04:25.820</time></trkpt><trkpt lat="55.9505548" lon="49.1642597"><time>2023-06-03T10:04:26.807</time></trkpt><trkpt lat="55.9504745" lon="49.1642121"><time>2023-06-03T10:04:28.807</time></trkpt><trkpt lat="55.9504012" lon="49.1641606"><time>2023-06-03T10:04:30.797</time></trkpt><trkpt lat="55.9503348" lon="49.1641353"><time>2023-06-03T10:04:32.810</time></trkpt><trkpt lat="55.9502837" lon="49.1641293"><time>2023-06-03T10:04:34.807</time></trkpt><trkpt lat="55.9502396" lon="49.1641487"><time>2023-06-03T10:04:35.807</time></trkpt><trkpt lat="55.9501716" lon="49.1641970"><time>2023-06-03T10:04:37.810</time></trkpt><trkpt lat="55.9501206" lon="49.1642690"><time>2023-06-03T10:04:39.810</time></trkpt><trkpt lat="55.9500806" lon="49.1643291"><time>2023-06-03T10:04:41.810</time></trkpt><trkpt lat="55.9500451" lon="49.1643788"><time>2023-06-03T10:05:04.813</time></trkpt><trkpt lat="55.9500083" lon="49.1644265"><time>2023-06-03T10:05:10.807</time></trkpt><trkpt lat="55.9499576" lon="49.1644804"><time>2023-06-03T10:05:18.800</time></trkpt><trkpt lat="55.9499177" lon="49.1645547"><time>2023-06-03T10:05:20.807</time></trkpt><trkpt lat="55.9498914" lon="49.1646514"><time>2023-06-03T10:05:22.800</time></trkpt><trkpt lat="55.9498731" lon="49.1647501"><time>2023-06-03T10:05:24.810</time></trkpt><trkpt lat="55.9498498" lon="49.1648421"><time>2023-06-03T10:05:26.840</time></trkpt><trkpt lat="55.9498321" lon="49.1649287"><time>2023-06-03T10:05:28.797</time></trkpt><trkpt lat="55.9498166" lon="49.1650486"><time>2023-06-03T10:05:31.803</time></trkpt><trkpt lat="55.9498014" lon="49.1651399"><time>2023-06-03T10:05:33.813</time></trkpt><trkpt lat="55.9497869" lon="49.1652316"><time>2023-06-03T10:05:35.807</time></trkpt><trkpt lat="55.9497683" lon="49.1653200"><time>2023-06-03T10:05:37.813</time></trkpt><trkpt lat="55.9497481" lon="49.1654228"><time>2023-06-03T10:05:39.843</time></trkpt><trkpt lat="55.9497377" lon="49.1654768"><time>2023-06-03T10:05:40.803</time></trkpt><trkpt lat="55.9497095" lon="49.1655804"><time>2023-06-03T10:05:42.803</time></trkpt><trkpt lat="55.9496769" lon="49.1656709"><time>2023-06-03T10:05:44.823</time></trkpt><trkpt lat="55.9496435" lon="49.1657544"><time>2023-06-03T10:05:46.810</time></trkpt><trkpt lat="55.9496209" lon="49.1658238"><time>2023-06-03T10:05:48.807</time></trkpt><trkpt lat="55.9496110" lon="49.1659329"><time>2023-06-03T10:05:51.823</time></trkpt><trkpt lat="55.9495852" lon="49.1660162"><time>2023-06-03T10:05:53.813</time></trkpt><trkpt lat="55.9495572" lon="49.1660930"><time>2023-06-03T10:05:55.810</time></trkpt><trkpt lat="55.9495346" lon="49.1661918"><time>2023-06-03T10:05:57.823</time></trkpt><trkpt lat="55.9495148" lon="49.1662830"><time>2023-06-03T10:05:59.817</time></trkpt><trkpt lat="55.9494847" lon="49.1663664"><time>2023-06-03T10:06:01.810</time></trkpt><trkpt lat="55.9494630" lon="49.1664565"><time>2023-06-03T10:06:03.817</time></trkpt><trkpt lat="55.9494434" lon="49.1665313"><time>2023-06-03T10:06:05.797</time></trkpt><trkpt lat="55.9494164" lon="49.1666165"><time>2023-06-03T10:06:07.837</time></trkpt><trkpt lat="55.9493911" lon="49.1667030"><time>2023-06-03T10:06:09.817</time></trkpt><trkpt lat="55.9493701" lon="49.1667749"><time>2023-06-03T10:06:11.813</time></trkpt><trkpt lat="55.9493543" lon="49.1668517"><time>2023-06-03T10:06:13.810</time></trkpt><trkpt lat="55.9493363" lon="49.1669317"><time>2023-06-03T10:06:15.803</time></trkpt><trkpt lat="55.9493130" lon="49.1670499"><time>2023-06-03T10:06:18.827</time></trkpt><trkpt lat="55.9493019" lon="49.1670941"><time>2023-06-03T10:06:19.907</time></trkpt><trkpt lat="55.9492818" lon="49.1671792"><time>2023-06-03T10:06:21.803</time></trkpt><trkpt lat="55.9492428" lon="49.1672727"><time>2023-06-03T10:06:24.810</time></trkpt><trkpt lat="55.9492017" lon="49.1673410"><time>2023-06-03T10:06:26.797</time></trkpt><trkpt lat="55.9491693" lon="49.1674407"><time>2023-06-03T10:06:28.810</time></trkpt><trkpt lat="55.9491360" lon="49.1675304"><time>2023-06-03T10:06:30.807</time></trkpt><trkpt lat="55.9491038" lon="49.1676023"><time>2023-06-03T10:06:33.807</time></trkpt><trkpt lat="55.9490539" lon="49.1676219"><time>2023-06-03T10:07:03.817</time></trkpt><trkpt lat="55.9490123" lon="49.1676557"><time>2023-06-03T10:07:07.803</time></trkpt><trkpt lat="55.9489777" lon="49.1677195"><time>2023-06-03T10:07:39.833</time></trkpt><trkpt lat="55.9489689" lon="49.1677295"><time>2023-06-03T10:07:40.817</time></trkpt><trkpt lat="55.9489197" lon="49.1677691"><time>2023-06-03T10:07:44.857</time></trkpt><trkpt lat="55.9488678" lon="49.1677978"><time>2023-06-03T10:07:47.810</time></trkpt><trkpt lat="55.9488101" lon="49.1677668"><time>2023-06-03T10:07:50.813</time></trkpt><trkpt lat="55.9487605" lon="49.1677270"><time>2023-06-03T10:07:53.813</time></trkpt><trkpt lat="55.9487073" lon="49.1676757"><time>2023-06-03T10:07:58.823</time></trkpt><trkpt lat="55.9487073" lon="49.1676757"><time>2023-06-03T10:07:58.863</time></trkpt><trkpt lat="55.9486635" lon="49.1676387"><time>2023-06-03T10:08:01.853</time></trkpt><trkpt lat="55.9486529" lon="49.1676286"><time>2023-06-03T10:08:02.807</time></trkpt><trkpt lat="55.9487083" lon="49.1676668"><time>2023-06-03T10:08:11.817</time></trkpt><trkpt lat="55.9487549" lon="49.1677248"><time>2023-06-03T10:08:14.810</time></trkpt><trkpt lat="55.9488001" lon="49.1677586"><time>2023-06-03T10:08:17.817</time></trkpt><trkpt lat="55.9488562" lon="49.1677762"><time>2023-06-03T10:08:20.807</time></trkpt><trkpt lat="55.9489078" lon="49.1677705"><time>2023-06-03T10:08:24.817</time></trkpt><trkpt lat="55.9489552" lon="49.1677693"><time>2023-06-03T10:08:30.810</time></trkpt><trkpt lat="55.9490166" lon="49.1677148"><time>2023-06-03T10:08:48.810</time></trkpt><trkpt lat="55.9490567" lon="49.1676319"><time>2023-06-03T10:08:50.813</time></trkpt><trkpt lat="55.9491104" lon="49.1675238"><time>2023-06-03T10:08:52.817</time></trkpt><trkpt lat="55.9491718" lon="49.1674125"><time>2023-06-03T10:08:54.823</time></trkpt><trkpt lat="55.9492345" lon="49.1673020"><time>2023-06-03T10:08:56.807</time></trkpt><trkpt lat="55.9492953" lon="49.1672052"><time>2023-06-03T10:08:58.807</time></trkpt><trkpt lat="55.9493446" lon="49.1670997"><time>2023-06-03T10:09:00.797</time></trkpt><trkpt lat="55.9493718" lon="49.1670127"><time>2023-06-03T10:09:02.813</time></trkpt><trkpt lat="55.9493915" lon="49.1669215"><time>2023-06-03T10:09:04.813</time></trkpt><trkpt lat="55.9494161" lon="49.1668027"><time>2023-06-03T10:09:06.827</time></trkpt><trkpt lat="55.9494431" lon="49.1666948"><time>2023-06-03T10:09:08.817</time></trkpt><trkpt lat="55.9494684" lon="49.1665833"><time>2023-06-03T10:09:10.803</time></trkpt><trkpt lat="55.9494762" lon="49.1665025"><time>2023-06-03T10:09:12.817</time></trkpt><trkpt lat="55.9494962" lon="49.1664102"><time>2023-06-03T10:09:14.810</time></trkpt><trkpt lat="55.9495205" lon="49.1663332"><time>2023-06-03T10:09:16.823</time></trkpt><trkpt lat="55.9495292" lon="49.1662345"><time>2023-06-03T10:09:18.820</time></trkpt><trkpt lat="55.9495475" lon="49.1661317"><time>2023-06-03T10:09:20.847</time></trkpt><trkpt lat="55.9495677" lon="49.1660531"><time>2023-06-03T10:09:22.807</time></trkpt><trkpt lat="55.9495824" lon="49.1659625"><time>2023-06-03T10:09:24.820</time></trkpt><trkpt lat="55.9496051" lon="49.1658778"><time>2023-06-03T10:09:26.810</time></trkpt><trkpt lat="55.9496452" lon="49.1657723"><time>2023-06-03T10:09:28.817</time></trkpt><trkpt lat="55.9496803" lon="49.1656830"><time>2023-06-03T10:09:30.810</time></trkpt><trkpt lat="55.9497116" lon="49.1655866"><time>2023-06-03T10:09:32.817</time></trkpt><trkpt lat="55.9497433" lon="49.1654636"><time>2023-06-03T10:09:34.807</time></trkpt><trkpt lat="55.9497637" lon="49.1653616"><time>2023-06-03T10:09:36.817</time></trkpt><trkpt lat="55.9497880" lon="49.1652678"><time>2023-06-03T10:09:38.807</time></trkpt><trkpt lat="55.9498083" lon="49.1651588"><time>2023-06-03T10:09:40.810</time></trkpt><trkpt lat="55.9498314" lon="49.1650457"><time>2023-06-03T10:09:42.810</time></trkpt><trkpt lat="55.9498544" lon="49.1649370"><time>2023-06-03T10:09:44.807</time></trkpt><trkpt lat="55.9498805" lon="49.1648367"><time>2023-06-03T10:09:46.830</time></trkpt><trkpt lat="55.9498986" lon="49.1647567"><time>2023-06-03T10:09:48.820</time></trkpt><trkpt lat="55.9499078" lon="49.1646677"><time>2023-06-03T10:09:50.793</time></trkpt><trkpt lat="55.9499248" lon="49.1645685"><time>2023-06-03T10:09:52.823</time></trkpt><trkpt lat="55.9499531" lon="49.1644713"><time>2023-06-03T10:09:54.813</time></trkpt><trkpt lat="55.9499908" lon="49.1644084"><time>2023-06-03T10:09:56.810</time></trkpt><trkpt lat="55.9500356" lon="49.1643835"><time>2023-06-03T10:10:03.823</time></trkpt><trkpt lat="55.9500815" lon="49.1643438"><time>2023-06-03T10:10:09.807</time></trkpt><trkpt lat="55.9501336" lon="49.1643360"><time>2023-06-03T10:10:17.817</time></trkpt><trkpt lat="55.9501844" lon="49.1642809"><time>2023-06-03T10:10:21.823</time></trkpt><trkpt lat="55.9501622" lon="49.1641839"><time>2023-06-03T10:10:24.813</time></trkpt><trkpt lat="55.9500983" lon="49.1641475"><time>2023-06-03T10:10:26.830</time></trkpt><trkpt lat="55.9500219" lon="49.1641134"><time>2023-06-03T10:10:28.807</time></trkpt><trkpt lat="55.9499525" lon="49.1640676"><time>2023-06-03T10:10:30.827</time></trkpt><trkpt lat="55.9498787" lon="49.1640094"><time>2023-06-03T10:10:32.823</time></trkpt><trkpt lat="55.9498013" lon="49.1639570"><time>2023-06-03T10:10:34.823</time></trkpt><trkpt lat="55.9497280" lon="49.1639274"><time>2023-06-03T10:10:35.813</time></trkpt><trkpt lat="55.9496412" lon="49.1638867"><time>2023-06-03T10:10:37.827</time></trkpt><trkpt lat="55.9495958" lon="49.1638696"><time>2023-06-03T10:10:38.800</time></trkpt><trkpt lat="55.9495498" lon="49.1638431"><time>2023-06-03T10:10:39.813</time></trkpt><trkpt lat="55.9494767" lon="49.1638122"><time>2023-06-03T10:10:41.830</time></trkpt><trkpt lat="55.9493952" lon="49.1637929"><time>2023-06-03T10:10:43.820</time></trkpt><trkpt lat="55.9493210" lon="49.1637566"><time>2023-06-03T10:10:45.817</time></trkpt><trkpt lat="55.9492322" lon="49.1637028"><time>2023-06-03T10:10:47.827</time></trkpt><trkpt lat="55.9491854" lon="49.1636616"><time>2023-06-03T10:10:48.807</time></trkpt><trkpt lat="55.9491400" lon="49.1636352"><time>2023-06-03T10:10:49.830</time></trkpt><trkpt lat="55.9490944" lon="49.1636071"><time>2023-06-03T10:10:50.803</time></trkpt><trkpt lat="55.9490078" lon="49.1635542"><time>2023-06-03T10:10:52.807</time></trkpt><trkpt lat="55.9489272" lon="49.1635176"><time>2023-06-03T10:10:54.803</time></trkpt><trkpt lat="55.9488613" lon="49.1634739"><time>2023-06-03T10:10:56.813</time></trkpt><trkpt lat="55.9488103" lon="49.1634484"><time>2023-06-03T10:10:57.827</time></trkpt><trkpt lat="55.9487331" lon="49.1634082"><time>2023-06-03T10:10:59.813</time></trkpt><trkpt lat="55.9486841" lon="49.1633852"><time>2023-06-03T10:11:00.813</time></trkpt><trkpt lat="55.9486412" lon="49.1633588"><time>2023-06-03T10:11:01.823</time></trkpt><trkpt lat="55.9485599" lon="49.1632943"><time>2023-06-03T10:11:03.827</time></trkpt><trkpt lat="55.9484870" lon="49.1632809"><time>2023-06-03T10:11:05.810</time></trkpt><trkpt lat="55.9484421" lon="49.1632508"><time>2023-06-03T10:11:06.807</time></trkpt><trkpt lat="55.9483977" lon="49.1632324"><time>2023-06-03T10:11:07.813</time></trkpt><trkpt lat="55.9483538" lon="49.1632134"><time>2023-06-03T10:11:08.817</time></trkpt><trkpt lat="55.9482729" lon="49.1631578"><time>2023-06-03T10:11:10.807</time></trkpt><trkpt lat="55.9482306" lon="49.1631279"><time>2023-06-03T10:11:11.830</time></trkpt><trkpt lat="55.9481879" lon="49.1630996"><time>2023-06-03T10:11:12.813</time></trkpt><trkpt lat="55.9481358" lon="49.1630693"><time>2023-06-03T10:11:13.803</time></trkpt><trkpt lat="55.9480919" lon="49.1630298"><time>2023-06-03T10:11:14.797</time></trkpt><trkpt lat="55.9480407" lon="49.1630143"><time>2023-06-03T10:11:15.800</time></trkpt><trkpt lat="55.9479991" lon="49.1629818"><time>2023-06-03T10:11:16.807</time></trkpt><trkpt lat="55.9479460" lon="49.1629733"><time>2023-06-03T10:11:17.813</time></trkpt><trkpt lat="55.9479017" lon="49.1629415"><time>2023-06-03T10:11:18.817</time></trkpt><trkpt lat="55.9478234" lon="49.1628936"><time>2023-06-03T10:11:20.790</time></trkpt><trkpt lat="55.9477465" lon="49.1628501"><time>2023-06-03T10:11:22.803</time></trkpt><trkpt lat="55.9476969" lon="49.1628216"><time>2023-06-03T10:11:23.823</time></trkpt><trkpt lat="55.9476175" lon="49.1627681"><time>2023-06-03T10:11:25.827</time></trkpt><trkpt lat="55.9475735" lon="49.1627505"><time>2023-06-03T10:11:26.807</time></trkpt><trkpt lat="55.9474963" lon="49.1627275"><time>2023-06-03T10:11:28.813</time></trkpt><trkpt lat="55.9474359" lon="49.1627013"><time>2023-06-03T10:11:30.810</time></trkpt><trkpt lat="55.9473790" lon="49.1626884"><time>2023-06-03T10:11:32.813</time></trkpt><trkpt lat="55.9473122" lon="49.1626381"><time>2023-06-03T10:11:34.803</time></trkpt><trkpt lat="55.9472680" lon="49.1626057"><time>2023-06-03T10:11:35.813</time></trkpt><trkpt lat="55.9471971" lon="49.1625503"><time>2023-06-03T10:11:37.817</time></trkpt><trkpt lat="55.9471271" lon="49.1625040"><time>2023-06-03T10:11:39.823</time></trkpt><trkpt lat="55.9470573" lon="49.1624628"><time>2023-06-03T10:11:41.820</time></trkpt><trkpt lat="55.9469847" lon="49.1624261"><time>2023-06-03T10:11:43.820</time></trkpt><trkpt lat="55.9469143" lon="49.1623848"><time>2023-06-03T10:11:45.807</time></trkpt><trkpt lat="55.9468515" lon="49.1623412"><time>2023-06-03T10:11:47.820</time></trkpt><trkpt lat="55.9467851" lon="49.1623059"><time>2023-06-03T10:11:49.817</time></trkpt><trkpt lat="55.9467139" lon="49.1622621"><time>2023-06-03T10:11:51.823</time></trkpt><trkpt lat="55.9466383" lon="49.1622160"><time>2023-06-03T10:11:53.820</time></trkpt><trkpt lat="55.9465666" lon="49.1621762"><time>2023-06-03T10:11:55.813</time></trkpt><trkpt lat="55.9465098" lon="49.1621418"><time>2023-06-03T10:11:57.847</time></trkpt><trkpt lat="55.9464591" lon="49.1620983"><time>2023-06-03T10:11:59.823</time></trkpt><trkpt lat="55.9463999" lon="49.1620580"><time>2023-06-03T10:12:01.813</time></trkpt><trkpt lat="55.9463323" lon="49.1620348"><time>2023-06-03T10:12:03.820</time></trkpt><trkpt lat="55.9462673" lon="49.1620087"><time>2023-06-03T10:12:05.820</time></trkpt><trkpt lat="55.9462000" lon="49.1619678"><time>2023-06-03T10:12:07.827</time></trkpt><trkpt lat="55.9461336" lon="49.1619279"><time>2023-06-03T10:12:09.823</time></trkpt><trkpt lat="55.9460618" lon="49.1618860"><time>2023-06-03T10:12:11.817</time></trkpt><trkpt lat="55.9459906" lon="49.1618484"><time>2023-06-03T10:12:13.817</time></trkpt><trkpt lat="55.9459174" lon="49.1618176"><time>2023-06-03T10:12:15.817</time></trkpt><trkpt lat="55.9458475" lon="49.1617817"><time>2023-06-03T10:12:17.800</time></trkpt><trkpt lat="55.9457800" lon="49.1617400"><time>2023-06-03T10:12:19.823</time></trkpt><trkpt lat="55.9457107" lon="49.1617019"><time>2023-06-03T10:12:21.817</time></trkpt><trkpt lat="55.9456564" lon="49.1616529"><time>2023-06-03T10:12:51.810</time></trkpt><trkpt lat="55.9455949" lon="49.1616176"><time>2023-06-03T10:12:53.837</time></trkpt><trkpt lat="55.9455187" lon="49.1615770"><time>2023-06-03T10:12:55.813</time></trkpt><trkpt lat="55.9454342" lon="49.1615331"><time>2023-06-03T10:12:57.803</time></trkpt><trkpt lat="55.9453906" lon="49.1615112"><time>2023-06-03T10:12:58.797</time></trkpt><trkpt lat="55.9453084" lon="49.1614675"><time>2023-06-03T10:13:00.803</time></trkpt><trkpt lat="55.9452152" lon="49.1614334"><time>2023-06-03T10:13:02.807</time></trkpt><trkpt lat="55.9451281" lon="49.1613817"><time>2023-06-03T10:13:04.800</time></trkpt><trkpt lat="55.9450834" lon="49.1613681"><time>2023-06-03T10:13:05.837</time></trkpt><trkpt lat="55.9450041" lon="49.1613198"><time>2023-06-03T10:13:07.803</time></trkpt><trkpt lat="55.9449274" lon="49.1612788"><time>2023-06-03T10:13:09.807</time></trkpt><trkpt lat="55.9448465" lon="49.1612272"><time>2023-06-03T10:13:11.827</time></trkpt><trkpt lat="55.9447663" lon="49.1611795"><time>2023-06-03T10:13:13.807</time></trkpt><trkpt lat="55.9446902" lon="49.1611309"><time>2023-06-03T10:13:15.817</time></trkpt><trkpt lat="55.9446142" lon="49.1610905"><time>2023-06-03T10:13:17.830</time></trkpt><trkpt lat="55.9445331" lon="49.1610539"><time>2023-06-03T10:13:19.803</time></trkpt><trkpt lat="55.9444535" lon="49.1610142"><time>2023-06-03T10:13:21.813</time></trkpt><trkpt lat="55.9444106" lon="49.1609889"><time>2023-06-03T10:13:22.797</time></trkpt><trkpt lat="55.9443646" lon="49.1609638"><time>2023-06-03T10:13:23.817</time></trkpt><trkpt lat="55.9443157" lon="49.1609381"><time>2023-06-03T10:13:24.797</time></trkpt><trkpt lat="55.9442687" lon="49.1609094"><time>2023-06-03T10:13:25.800</time></trkpt><trkpt lat="55.9441824" lon="49.1608706"><time>2023-06-03T10:13:27.817</time></trkpt><trkpt lat="55.9441114" lon="49.1608283"><time>2023-06-03T10:13:29.800</time></trkpt><trkpt lat="55.9440334" lon="49.1607838"><time>2023-06-03T10:13:31.810</time></trkpt><trkpt lat="55.9439644" lon="49.1607477"><time>2023-06-03T10:13:33.813</time></trkpt><trkpt lat="55.9438990" lon="49.1607000"><time>2023-06-03T10:13:35.830</time></trkpt><trkpt lat="55.9438233" lon="49.1606581"><time>2023-06-03T10:13:37.810</time></trkpt><trkpt lat="55.9437538" lon="49.1606281"><time>2023-06-03T10:13:39.813</time></trkpt><trkpt lat="55.9436885" lon="49.1605918"><time>2023-06-03T10:13:41.833</time></trkpt><trkpt lat="55.9436297" lon="49.1605534"><time>2023-06-03T10:13:43.810</time></trkpt><trkpt lat="55.9435709" lon="49.1605186"><time>2023-06-03T10:13:45.820</time></trkpt><trkpt lat="55.9435140" lon="49.1604856"><time>2023-06-03T10:13:47.813</time></trkpt><trkpt lat="55.9434544" lon="49.1604526"><time>2023-06-03T10:13:49.813</time></trkpt><trkpt lat="55.9433900" lon="49.1604231"><time>2023-06-03T10:13:51.843</time></trkpt><trkpt lat="55.9433371" lon="49.1604070"><time>2023-06-03T10:13:53.803</time></trkpt><trkpt lat="55.9432887" lon="49.1603801"><time>2023-06-03T10:14:13.813</time></trkpt><trkpt lat="55.9432346" lon="49.1603417"><time>2023-06-03T10:14:16.813</time></trkpt><trkpt lat="55.9431845" lon="49.1603085"><time>2023-06-03T10:14:18.800</time></trkpt><trkpt lat="55.9431231" lon="49.1602757"><time>2023-06-03T10:14:20.813</time></trkpt><trkpt lat="55.9430553" lon="49.1602446"><time>2023-06-03T10:14:22.800</time></trkpt><trkpt lat="55.9429768" lon="49.1602074"><time>2023-06-03T10:14:24.803</time></trkpt><trkpt lat="55.9428981" lon="49.1601685"><time>2023-06-03T10:14:26.833</time></trkpt><trkpt lat="55.9428187" lon="49.1601245"><time>2023-06-03T10:14:28.807</time></trkpt><trkpt lat="55.9427388" lon="49.1600767"><time>2023-06-03T10:14:30.807</time></trkpt><trkpt lat="55.9426620" lon="49.1600382"><time>2023-06-03T10:14:32.820</time></trkpt><trkpt lat="55.9425763" lon="49.1599984"><time>2023-06-03T10:14:34.810</time></trkpt><trkpt lat="55.9424934" lon="49.1599564"><time>2023-06-03T10:14:36.810</time></trkpt><trkpt lat="55.9424438" lon="49.1599275"><time>2023-06-03T10:14:37.807</time></trkpt><trkpt lat="55.9423987" lon="49.1599021"><time>2023-06-03T10:14:38.830</time></trkpt><trkpt lat="55.9423540" lon="49.1598746"><time>2023-06-03T10:14:39.810</time></trkpt><trkpt lat="55.9423029" lon="49.1598339"><time>2023-06-03T10:14:40.800</time></trkpt><trkpt lat="55.9422603" lon="49.1598088"><time>2023-06-03T10:14:41.817</time></trkpt><trkpt lat="55.9422020" lon="49.1597738"><time>2023-06-03T10:14:42.800</time></trkpt><trkpt lat="55.9421466" lon="49.1597405"><time>2023-06-03T10:14:43.823</time></trkpt><trkpt lat="55.9420664" lon="49.1596827"><time>2023-06-03T10:14:45.807</time></trkpt><trkpt lat="55.9419842" lon="49.1596362"><time>2023-06-03T10:14:47.800</time></trkpt><trkpt lat="55.9419423" lon="49.1596033"><time>2023-06-03T10:14:48.797</time></trkpt><trkpt lat="55.9418972" lon="49.1595764"><time>2023-06-03T10:14:49.810</time></trkpt><trkpt lat="55.9418490" lon="49.1595700"><time>2023-06-03T10:14:50.837</time></trkpt><trkpt lat="55.9417655" lon="49.1595048"><time>2023-06-03T10:14:52.807</time></trkpt><trkpt lat="55.9417206" lon="49.1594747"><time>2023-06-03T10:14:53.807</time></trkpt><trkpt lat="55.9416694" lon="49.1594498"><time>2023-06-03T10:14:54.807</time></trkpt><trkpt lat="55.9416238" lon="49.1594218"><time>2023-06-03T10:14:55.807</time></trkpt><trkpt lat="55.9415828" lon="49.1593880"><time>2023-06-03T10:14:56.817</time></trkpt><trkpt lat="55.9414971" lon="49.1593334"><time>2023-06-03T10:14:58.800</time></trkpt><trkpt lat="55.9414524" lon="49.1593134"><time>2023-06-03T10:14:59.807</time></trkpt><trkpt lat="55.9414073" lon="49.1592894"><time>2023-06-03T10:15:00.810</time></trkpt><trkpt lat="55.9413644" lon="49.1592625"><time>2023-06-03T10:15:01.803</time></trkpt><trkpt lat="55.9412725" lon="49.1592211"><time>2023-06-03T10:15:03.813</time></trkpt><trkpt lat="55.9412262" lon="49.1591923"><time>2023-06-03T10:15:04.803</time></trkpt><trkpt lat="55.9411810" lon="49.1591611"><time>2023-06-03T10:15:05.807</time></trkpt><trkpt lat="55.9410991" lon="49.1591378"><time>2023-06-03T10:15:07.803</time></trkpt><trkpt lat="55.9410501" lon="49.1591161"><time>2023-06-03T10:15:08.827</time></trkpt><trkpt lat="55.9409669" lon="49.1590674"><time>2023-06-03T10:15:10.797</time></trkpt><trkpt lat="55.9409175" lon="49.1590366"><time>2023-06-03T10:15:11.807</time></trkpt><trkpt lat="55.9408702" lon="49.1590034"><time>2023-06-03T10:15:12.807</time></trkpt><trkpt lat="55.9408254" lon="49.1589852"><time>2023-06-03T10:15:13.810</time></trkpt><trkpt lat="55.9407835" lon="49.1589558"><time>2023-06-03T10:15:14.837</time></trkpt><trkpt lat="55.9407038" lon="49.1589044"><time>2023-06-03T10:15:16.800</time></trkpt><trkpt lat="55.9406355" lon="49.1588748"><time>2023-06-03T10:15:18.807</time></trkpt><trkpt lat="55.9405873" lon="49.1588757"><time>2023-06-03T10:15:20.823</time></trkpt><trkpt lat="55.9405823" lon="49.1589613"><time>2023-06-03T10:15:27.800</time></trkpt><trkpt lat="55.9406029" lon="49.1590522"><time>2023-06-03T10:15:42.820</time></trkpt><trkpt lat="55.9406388" lon="49.1591408"><time>2023-06-03T10:15:45.803</time></trkpt><trkpt lat="55.9406690" lon="49.1592308"><time>2023-06-03T10:15:48.830</time></trkpt><trkpt lat="55.9406785" lon="49.1593430"><time>2023-06-03T10:15:51.800</time></trkpt><trkpt lat="55.9406807" lon="49.1594431"><time>2023-06-03T10:15:53.807</time></trkpt><trkpt lat="55.9406935" lon="49.1595465"><time>2023-06-03T10:15:55.803</time></trkpt><trkpt lat="55.9407043" lon="49.1596584"><time>2023-06-03T10:15:57.800</time></trkpt><trkpt lat="55.9407033" lon="49.1597739"><time>2023-06-03T10:15:59.813</time></trkpt><trkpt lat="55.9406958" lon="49.1598606"><time>2023-06-03T10:16:01.797</time></trkpt><trkpt lat="55.9406827" lon="49.1599442"><time>2023-06-03T10:16:03.810</time></trkpt><trkpt lat="55.9406705" lon="49.1600368"><time>2023-06-03T10:16:05.807</time></trkpt><trkpt lat="55.9406671" lon="49.1601314"><time>2023-06-03T10:16:07.803</time></trkpt><trkpt lat="55.9406553" lon="49.1602269"><time>2023-06-03T10:16:09.803</time></trkpt><trkpt lat="55.9406362" lon="49.1603251"><time>2023-06-03T10:16:11.797</time></trkpt><trkpt lat="55.9406224" lon="49.1604380"><time>2023-06-03T10:16:13.803</time></trkpt><trkpt lat="55.9406166" lon="49.1605275"><time>2023-06-03T10:16:15.803</time></trkpt><trkpt lat="55.9406191" lon="49.1606291"><time>2023-06-03T10:16:17.810</time></trkpt><trkpt lat="55.9406246" lon="49.1607275"><time>2023-06-03T10:16:19.800</time></trkpt><trkpt lat="55.9406239" lon="49.1608258"><time>2023-06-03T10:16:21.803</time></trkpt><trkpt lat="55.9406208" lon="49.1609244"><time>2023-06-03T10:16:23.800</time></trkpt><trkpt lat="55.9406219" lon="49.1610133"><time>2023-06-03T10:16:25.807</time></trkpt><trkpt lat="55.9406184" lon="49.1610948"><time>2023-06-03T10:16:27.827</time></trkpt><trkpt lat="55.9406038" lon="49.1611841"><time>2023-06-03T10:16:29.813</time></trkpt><trkpt lat="55.9405899" lon="49.1612717"><time>2023-06-03T10:16:31.783</time></trkpt><trkpt lat="55.9405745" lon="49.1613536"><time>2023-06-03T10:16:33.797</time></trkpt><trkpt lat="55.9405511" lon="49.1614488"><time>2023-06-03T10:16:36.793</time></trkpt><trkpt lat="55.9405258" lon="49.1615361"><time>2023-06-03T10:16:39.803</time></trkpt><trkpt lat="55.9405569" lon="49.1616042"><time>2023-06-03T10:16:52.803</time></trkpt><trkpt lat="55.9406127" lon="49.1616332"><time>2023-06-03T10:16:55.797</time></trkpt><trkpt lat="55.9406739" lon="49.1616468"><time>2023-06-03T10:16:58.797</time></trkpt><trkpt lat="55.9407318" lon="49.1616377"><time>2023-06-03T10:17:01.817</time></trkpt><trkpt lat="55.9407944" lon="49.1616484"><time>2023-06-03T10:17:04.800</time></trkpt><trkpt lat="55.9408511" lon="49.1616857"><time>2023-06-03T10:17:07.810</time></trkpt><trkpt lat="55.9408997" lon="49.1617286"><time>2023-06-03T10:17:10.830</time></trkpt><trkpt lat="55.9409535" lon="49.1617316"><time>2023-06-03T10:17:13.790</time></trkpt><trkpt lat="55.9410028" lon="49.1617012"><time>2023-06-03T10:17:16.820</time></trkpt><trkpt lat="55.9410460" lon="49.1616369"><time>2023-06-03T10:17:19.800</time></trkpt><trkpt lat="55.9410815" lon="49.1615679"><time>2023-06-03T10:17:22.803</time></trkpt><trkpt lat="55.9411182" lon="49.1615106"><time>2023-06-03T10:17:25.817</time></trkpt><trkpt lat="55.9411764" lon="49.1615351"><time>2023-06-03T10:17:29.810</time></trkpt><trkpt lat="55.9412211" lon="49.1615906"><time>2023-06-03T10:17:57.833</time></trkpt><trkpt lat="55.9412650" lon="49.1616196"><time>2023-06-03T10:18:01.797</time></trkpt><trkpt lat="55.9413147" lon="49.1616188"><time>2023-06-03T10:18:07.797</time></trkpt><trkpt lat="55.9413608" lon="49.1616459"><time>2023-06-03T10:18:10.793</time></trkpt><trkpt lat="55.9414157" lon="49.1616834"><time>2023-06-03T10:18:14.803</time></trkpt><trkpt lat="55.9414614" lon="49.1616809"><time>2023-06-03T10:18:17.810</time></trkpt><trkpt lat="55.9415042" lon="49.1617212"><time>2023-06-03T10:18:23.803</time></trkpt><trkpt lat="55.9414701" lon="49.1616384"><time>2023-06-03T10:18:32.787</time></trkpt><trkpt lat="55.9414248" lon="49.1616403"><time>2023-06-03T10:18:34.807</time></trkpt><trkpt lat="55.9413761" lon="49.1616803"><time>2023-06-03T10:18:37.793</time></trkpt><trkpt lat="55.9413374" lon="49.1617495"><time>2023-06-03T10:18:42.800</time></trkpt><trkpt lat="55.9412849" lon="49.1617913"><time>2023-06-03T10:18:46.790</time></trkpt><trkpt lat="55.9412975" lon="49.1618764"><time>2023-06-03T10:19:01.807</time></trkpt><trkpt lat="55.9412708" lon="49.1617927"><time>2023-06-03T10:19:16.790</time></trkpt><trkpt lat="55.9412207" lon="49.1617508"><time>2023-06-03T10:19:21.787</time></trkpt><trkpt lat="55.9411761" lon="49.1617322"><time>2023-06-03T10:19:25.783</time></trkpt><trkpt lat="55.9411201" lon="49.1617586"><time>2023-06-03T10:19:29.803</time></trkpt><trkpt lat="55.9410765" lon="49.1618102"><time>2023-06-03T10:19:33.850</time></trkpt><trkpt lat="55.9410257" lon="49.1618118"><time>2023-06-03T10:19:38.807</time></trkpt><trkpt lat="55.9409772" lon="49.1618814"><time>2023-06-03T10:19:42.797</time></trkpt><trkpt lat="55.9409613" lon="49.1619676"><time>2023-06-03T10:19:46.793</time></trkpt><trkpt lat="55.9409566" lon="49.1620599"><time>2023-06-03T10:19:54.790</time></trkpt><trkpt lat="55.9409618" lon="49.1621414"><time>2023-06-03T10:20:00.813</time></trkpt><trkpt lat="55.9409714" lon="49.1622254"><time>2023-06-03T10:20:06.807</time></trkpt><trkpt lat="55.9409784" lon="49.1623162"><time>2023-06-03T10:20:11.807</time></trkpt><trkpt lat="55.9410174" lon="49.1623621"><time>2023-06-03T10:20:28.817</time></trkpt><trkpt lat="55.9410503" lon="49.1624169"><time>2023-06-03T10:20:31.820</time></trkpt><trkpt lat="55.9410828" lon="49.1624871"><time>2023-06-03T10:20:34.810</time></trkpt><trkpt lat="55.9411208" lon="49.1625348"><time>2023-06-03T10:20:38.820</time></trkpt><trkpt lat="55.9411646" lon="49.1625974"><time>2023-06-03T10:20:42.803</time></trkpt><trkpt lat="55.9411934" lon="49.1626648"><time>2023-06-03T10:20:46.810</time></trkpt><trkpt lat="55.9411694" lon="49.1627684"><time>2023-06-03T10:20:50.830</time></trkpt><trkpt lat="55.9411489" lon="49.1628596"><time>2023-06-03T10:20:53.803</time></trkpt><trkpt lat="55.9411537" lon="49.1627559"><time>2023-06-03T10:21:08.823</time></trkpt><trkpt lat="55.9411670" lon="49.1626786"><time>2023-06-03T10:21:14.793</time></trkpt><trkpt lat="55.9412063" lon="49.1626279"><time>2023-06-03T10:21:17.800</time></trkpt><trkpt lat="55.9412493" lon="49.1625870"><time>2023-06-03T10:21:21.817</time></trkpt><trkpt lat="55.9412856" lon="49.1625268"><time>2023-06-03T10:21:27.810</time></trkpt><trkpt lat="55.9413199" lon="49.1624727"><time>2023-06-03T10:21:32.800</time></trkpt><trkpt lat="55.9413404" lon="49.1623946"><time>2023-06-03T10:21:38.807</time></trkpt><trkpt lat="55.9413794" lon="49.1623393"><time>2023-06-03T10:21:43.807</time></trkpt><trkpt lat="55.9414168" lon="49.1622803"><time>2023-06-03T10:21:49.803</time></trkpt><trkpt lat="55.9413761" lon="49.1623485"><time>2023-06-03T10:22:00.800</time></trkpt><trkpt lat="55.9413297" lon="49.1623918"><time>2023-06-03T10:22:04.797</time></trkpt><trkpt lat="55.9413100" lon="49.1624678"><time>2023-06-03T10:22:09.803</time></trkpt><trkpt lat="55.9412762" lon="49.1625482"><time>2023-06-03T10:22:14.810</time></trkpt><trkpt lat="55.9412485" lon="49.1626184"><time>2023-06-03T10:22:18.807</time></trkpt><trkpt lat="55.9412146" lon="49.1626737"><time>2023-06-03T10:22:21.807</time></trkpt><trkpt lat="55.9411654" lon="49.1627052"><time>2023-06-03T10:22:26.810</time></trkpt><trkpt lat="55.9411248" lon="49.1626522"><time>2023-06-03T10:22:32.817</time></trkpt><trkpt lat="55.9410799" lon="49.1625954"><time>2023-06-03T10:22:37.803</time></trkpt><trkpt lat="55.9410504" lon="49.1625207"><time>2023-06-03T10:22:42.803</time></trkpt><trkpt lat="55.9410277" lon="49.1624402"><time>2023-06-03T10:22:47.807</time></trkpt><trkpt lat="55.9409985" lon="49.1623652"><time>2023-06-03T10:22:52.833</time></trkpt><trkpt lat="55.9410044" lon="49.1622792"><time>2023-06-03T10:22:56.790</time></trkpt><trkpt lat="55.9410044" lon="49.1621798"><time>2023-06-03T10:23:00.797</time></trkpt><trkpt lat="55.9409739" lon="49.1621104"><time>2023-06-03T10:23:04.827</time></trkpt><trkpt lat="55.9409514" lon="49.1620304"><time>2023-06-03T10:23:08.800</time></trkpt><trkpt lat="55.9409404" lon="49.1619470"><time>2023-06-03T10:23:12.797</time></trkpt><trkpt lat="55.9409492" lon="49.1618435"><time>2023-06-03T10:23:16.830</time></trkpt><trkpt lat="55.9409662" lon="49.1617616"><time>2023-06-03T10:23:20.797</time></trkpt><trkpt lat="55.9410028" lon="49.1616968"><time>2023-06-03T10:23:24.797</time></trkpt><trkpt lat="55.9410372" lon="49.1616322"><time>2023-06-03T10:23:28.790</time></trkpt><trkpt lat="55.9410840" lon="49.1616156"><time>2023-06-03T10:23:32.790</time></trkpt><trkpt lat="55.9411380" lon="49.1615924"><time>2023-06-03T10:23:36.793</time></trkpt><trkpt lat="55.9411890" lon="49.1615550"><time>2023-06-03T10:23:40.800</time></trkpt><trkpt lat="55.9411326" lon="49.1615574"><time>2023-06-03T10:23:57.813</time></trkpt><trkpt lat="55.9410866" lon="49.1615859"><time>2023-06-03T10:23:59.807</time></trkpt><trkpt lat="55.9410297" lon="49.1616215"><time>2023-06-03T10:24:02.797</time></trkpt><trkpt lat="55.9409912" lon="49.1617029"><time>2023-06-03T10:24:05.780</time></trkpt><trkpt lat="55.9409468" lon="49.1617691"><time>2023-06-03T10:24:08.803</time></trkpt><trkpt lat="55.9408865" lon="49.1617812"><time>2023-06-03T10:24:11.797</time></trkpt><trkpt lat="55.9408311" lon="49.1617539"><time>2023-06-03T10:24:14.793</time></trkpt><trkpt lat="55.9407858" lon="49.1617152"><time>2023-06-03T10:24:17.787</time></trkpt><trkpt lat="55.9407264" lon="49.1617060"><time>2023-06-03T10:24:21.813</time></trkpt><trkpt lat="55.9406713" lon="49.1616978"><time>2023-06-03T10:24:24.793</time></trkpt><trkpt lat="55.9406148" lon="49.1616873"><time>2023-06-03T10:24:27.823</time></trkpt><trkpt lat="55.9405611" lon="49.1616760"><time>2023-06-03T10:24:30.797</time></trkpt><trkpt lat="55.9405153" lon="49.1616652"><time>2023-06-03T10:24:34.800</time></trkpt><trkpt lat="55.9404796" lon="49.1617370"><time>2023-06-03T10:24:43.800</time></trkpt><trkpt lat="55.9404619" lon="49.1618165"><time>2023-06-03T10:24:47.797</time></trkpt><trkpt lat="55.9404578" lon="49.1619126"><time>2023-06-03T10:24:53.813</time></trkpt><trkpt lat="55.9404632" lon="49.1619959"><time>2023-06-03T10:24:57.833</time></trkpt><trkpt lat="55.9404597" lon="49.1620802"><time>2023-06-03T10:25:01.793</time></trkpt><trkpt lat="55.9404643" lon="49.1621707"><time>2023-06-03T10:25:08.823</time></trkpt><trkpt lat="55.9404858" lon="49.1622583"><time>2023-06-03T10:25:13.797</time></trkpt><trkpt lat="55.9404889" lon="49.1623388"><time>2023-06-03T10:25:20.817</time></trkpt><trkpt lat="55.9404760" lon="49.1624247"><time>2023-06-03T10:25:23.787</time></trkpt><trkpt lat="55.9404689" lon="49.1625146"><time>2023-06-03T10:25:26.887</time></trkpt><trkpt lat="55.9404612" lon="49.1626080"><time>2023-06-03T10:25:32.810</time></trkpt><trkpt lat="55.9404739" lon="49.1626907"><time>2023-06-03T10:25:37.803</time></trkpt><trkpt lat="55.9405106" lon="49.1627385"><time>2023-06-03T10:25:40.807</time></trkpt><trkpt lat="55.9405570" lon="49.1627822"><time>2023-06-03T10:25:45.803</time></trkpt><trkpt lat="55.9405853" lon="49.1628447"><time>2023-06-03T10:25:49.810</time></trkpt><trkpt lat="55.9406335" lon="49.1628753"><time>2023-06-03T10:25:55.793</time></trkpt><trkpt lat="55.9406808" lon="49.1628895"><time>2023-06-03T10:26:00.800</time></trkpt><trkpt lat="55.9407207" lon="49.1629296"><time>2023-06-03T10:26:05.807</time></trkpt><trkpt lat="55.9407550" lon="49.1630040"><time>2023-06-03T10:26:09.800</time></trkpt><trkpt lat="55.9408003" lon="49.1630647"><time>2023-06-03T10:26:13.833</time></trkpt><trkpt lat="55.9408301" lon="49.1631511"><time>2023-06-03T10:26:17.807</time></trkpt><trkpt lat="55.9408551" lon="49.1632323"><time>2023-06-03T10:26:21.800</time></trkpt><trkpt lat="55.9408969" lon="49.1632769"><time>2023-06-03T10:26:25.833</time></trkpt><trkpt lat="55.9409451" lon="49.1632926"><time>2023-06-03T10:26:35.797</time></trkpt><trkpt lat="55.9409914" lon="49.1633102"><time>2023-06-03T10:26:40.807</time></trkpt><trkpt lat="55.9410373" lon="49.1633221"><time>2023-06-03T10:26:44.797</time></trkpt><trkpt lat="55.9410840" lon="49.1633610"><time>2023-06-03T10:26:50.807</time></trkpt><trkpt lat="55.9411299" lon="49.1633877"><time>2023-06-03T10:26:54.797</time></trkpt><trkpt lat="55.9411695" lon="49.1634460"><time>2023-06-03T10:26:59.800</time></trkpt><trkpt lat="55.9412023" lon="49.1635143"><time>2023-06-03T10:27:03.803</time></trkpt><trkpt lat="55.9412597" lon="49.1634926"><time>2023-06-03T10:27:08.803</time></trkpt><trkpt lat="55.9413198" lon="49.1634869"><time>2023-06-03T10:27:12.800</time></trkpt><trkpt lat="55.9413597" lon="49.1635492"><time>2023-06-03T10:27:17.820</time></trkpt><trkpt lat="55.9414075" lon="49.1635596"><time>2023-06-03T10:27:23.793</time></trkpt><trkpt lat="55.9414476" lon="49.1635965"><time>2023-06-03T10:27:27.807</time></trkpt><trkpt lat="55.9414954" lon="49.1636191"><time>2023-06-03T10:27:33.797</time></trkpt><trkpt lat="55.9415361" lon="49.1636574"><time>2023-06-03T10:27:38.797</time></trkpt><trkpt lat="55.9415806" lon="49.1636976"><time>2023-06-03T10:27:43.820</time></trkpt><trkpt lat="55.9416405" lon="49.1637128"><time>2023-06-03T10:27:47.800</time></trkpt><trkpt lat="55.9415893" lon="49.1637158"><time>2023-06-03T10:27:57.790</time></trkpt><trkpt lat="55.9415477" lon="49.1637555"><time>2023-06-03T10:28:00.800</time></trkpt><trkpt lat="55.9415156" lon="49.1638195"><time>2023-06-03T10:28:05.790</time></trkpt><trkpt lat="55.9414666" lon="49.1638287"><time>2023-06-03T10:28:15.800</time></trkpt><trkpt lat="55.9414551" lon="49.1639141"><time>2023-06-03T10:28:26.793</time></trkpt><trkpt lat="55.9414617" lon="49.1639938"><time>2023-06-03T10:28:47.793</time></trkpt><trkpt lat="55.9414610" lon="49.1638978"><time>2023-06-03T10:29:21.803</time></trkpt><trkpt lat="55.9414135" lon="49.1638566"><time>2023-06-03T10:29:27.800</time></trkpt><trkpt lat="55.9413699" lon="49.1638175"><time>2023-06-03T10:29:31.817</time></trkpt><trkpt lat="55.9413260" lon="49.1637845"><time>2023-06-03T10:29:37.837</time></trkpt><trkpt lat="55.9413203" lon="49.1636880"><time>2023-06-03T10:29:42.793</time></trkpt><trkpt lat="55.9413485" lon="49.1636114"><time>2023-06-03T10:29:47.813</time></trkpt><trkpt lat="55.9413275" lon="49.1635370"><time>2023-06-03T10:29:51.793</time></trkpt><trkpt lat="55.9412806" lon="49.1634956"><time>2023-06-03T10:29:56.787</time></trkpt><trkpt lat="55.9412348" lon="49.1635066"><time>2023-06-03T10:30:01.830</time></trkpt><trkpt lat="55.9411817" lon="49.1635089"><time>2023-06-03T10:30:05.800</time></trkpt><trkpt lat="55.9411353" lon="49.1635390"><time>2023-06-03T10:30:08.803</time></trkpt><trkpt lat="55.9410856" lon="49.1635454"><time>2023-06-03T10:30:12.797</time></trkpt><trkpt lat="55.9410419" lon="49.1635101"><time>2023-06-03T10:30:17.803</time></trkpt><trkpt lat="55.9410012" lon="49.1634704"><time>2023-06-03T10:30:21.813</time></trkpt><trkpt lat="55.9409561" lon="49.1634370"><time>2023-06-03T10:30:28.800</time></trkpt><trkpt lat="55.9409033" lon="49.1634233"><time>2023-06-03T10:30:34.790</time></trkpt><trkpt lat="55.9408561" lon="49.1634131"><time>2023-06-03T10:30:42.790</time></trkpt><trkpt lat="55.9408149" lon="49.1633799"><time>2023-06-03T10:30:47.790</time></trkpt><trkpt lat="55.9407587" lon="49.1633713"><time>2023-06-03T10:30:52.793</time></trkpt><trkpt lat="55.9407169" lon="49.1633175"><time>2023-06-03T10:30:58.797</time></trkpt><trkpt lat="55.9406712" lon="49.1632676"><time>2023-06-03T10:31:04.793</time></trkpt><trkpt lat="55.9406198" lon="49.1632229"><time>2023-06-03T10:31:08.790</time></trkpt><trkpt lat="55.9405770" lon="49.1631933"><time>2023-06-03T10:31:13.823</time></trkpt><trkpt lat="55.9405296" lon="49.1631998"><time>2023-06-03T10:31:18.793</time></trkpt><trkpt lat="55.9404844" lon="49.1631972"><time>2023-06-03T10:31:25.837</time></trkpt><trkpt lat="55.9404425" lon="49.1631662"><time>2023-06-03T10:31:37.847</time></trkpt><trkpt lat="55.9403925" lon="49.1631382"><time>2023-06-03T10:31:43.820</time></trkpt><trkpt lat="55.9403501" lon="49.1630907"><time>2023-06-03T10:31:50.797</time></trkpt><trkpt lat="55.9403019" lon="49.1630546"><time>2023-06-03T10:31:54.790</time></trkpt><trkpt lat="55.9402619" lon="49.1630150"><time>2023-06-03T10:31:59.807</time></trkpt><trkpt lat="55.9402259" lon="49.1629620"><time>2023-06-03T10:32:03.800</time></trkpt><trkpt lat="55.9401919" lon="49.1628941"><time>2023-06-03T10:32:08.797</time></trkpt><trkpt lat="55.9401418" lon="49.1628580"><time>2023-06-03T10:32:13.857</time></trkpt><trkpt lat="55.9400905" lon="49.1628083"><time>2023-06-03T10:32:17.803</time></trkpt><trkpt lat="55.9400562" lon="49.1627348"><time>2023-06-03T10:32:22.793</time></trkpt><trkpt lat="55.9400724" lon="49.1626540"><time>2023-06-03T10:32:27.797</time></trkpt><trkpt lat="55.9400993" lon="49.1625844"><time>2023-06-03T10:32:30.800</time></trkpt><trkpt lat="55.9401317" lon="49.1625146"><time>2023-06-03T10:32:33.797</time></trkpt><trkpt lat="55.9401729" lon="49.1624817"><time>2023-06-03T10:32:38.800</time></trkpt><trkpt lat="55.9401422" lon="49.1625685"><time>2023-06-03T10:32:45.810</time></trkpt><trkpt lat="55.9401126" lon="49.1626352"><time>2023-06-03T10:32:48.797</time></trkpt><trkpt lat="55.9400744" lon="49.1626966"><time>2023-06-03T10:32:52.800</time></trkpt><trkpt lat="55.9400431" lon="49.1627726"><time>2023-06-03T10:32:57.807</time></trkpt><trkpt lat="55.9400191" lon="49.1628502"><time>2023-06-03T10:33:01.860</time></trkpt><trkpt lat="55.9399856" lon="49.1629171"><time>2023-06-03T10:33:04.807</time></trkpt><trkpt lat="55.9399546" lon="49.1630099"><time>2023-06-03T10:33:08.803</time></trkpt><trkpt lat="55.9399566" lon="49.1631006"><time>2023-06-03T10:33:11.793</time></trkpt><trkpt lat="55.9399712" lon="49.1631782"><time>2023-06-03T10:33:14.793</time></trkpt><trkpt lat="55.9399966" lon="49.1632526"><time>2023-06-03T10:33:17.810</time></trkpt><trkpt lat="55.9400247" lon="49.1633307"><time>2023-06-03T10:33:20.810</time></trkpt><trkpt lat="55.9400612" lon="49.1634079"><time>2023-06-03T10:33:23.820</time></trkpt><trkpt lat="55.9400768" lon="49.1634349"><time>2023-06-03T10:33:24.793</time></trkpt><trkpt lat="55.9401151" lon="49.1634942"><time>2023-06-03T10:33:27.787</time></trkpt><trkpt lat="55.9401673" lon="49.1635393"><time>2023-06-03T10:33:31.793</time></trkpt><trkpt lat="55.9402086" lon="49.1635891"><time>2023-06-03T10:33:34.800</time></trkpt><trkpt lat="55.9402404" lon="49.1636486"><time>2023-06-03T10:33:37.800</time></trkpt><trkpt lat="55.9402692" lon="49.1637164"><time>2023-06-03T10:33:40.803</time></trkpt><trkpt lat="55.9403000" lon="49.1637918"><time>2023-06-03T10:33:46.807</time></trkpt><trkpt lat="55.9402923" lon="49.1638916"><time>2023-06-03T10:33:51.800</time></trkpt><trkpt lat="55.9403376" lon="49.1639339"><time>2023-06-03T10:33:59.833</time></trkpt><trkpt lat="55.9403893" lon="49.1639684"><time>2023-06-03T10:34:03.800</time></trkpt><trkpt lat="55.9404377" lon="49.1639967"><time>2023-06-03T10:34:07.810</time></trkpt><trkpt lat="55.9404856" lon="49.1640040"><time>2023-06-03T10:34:10.793</time></trkpt><trkpt lat="55.9405346" lon="49.1640101"><time>2023-06-03T10:34:13.797</time></trkpt><trkpt lat="55.9405939" lon="49.1640562"><time>2023-06-03T10:34:16.790</time></trkpt><trkpt lat="55.9406503" lon="49.1641009"><time>2023-06-03T10:34:19.807</time></trkpt><trkpt lat="55.9406878" lon="49.1641503"><time>2023-06-03T10:34:22.793</time></trkpt><trkpt lat="55.9407231" lon="49.1642042"><time>2023-06-03T10:34:26.793</time></trkpt><trkpt lat="55.9407726" lon="49.1642383"><time>2023-06-03T10:34:31.797</time></trkpt><trkpt lat="55.9408185" lon="49.1642752"><time>2023-06-03T10:34:34.827</time></trkpt><trkpt lat="55.9408680" lon="49.1643266"><time>2023-06-03T10:34:37.793</time></trkpt><trkpt lat="55.9409126" lon="49.1643599"><time>2023-06-03T10:34:39.793</time></trkpt><trkpt lat="55.9409600" lon="49.1644249"><time>2023-06-03T10:34:42.797</time></trkpt><trkpt lat="55.9409853" lon="49.1644941"><time>2023-06-03T10:34:45.797</time></trkpt><trkpt lat="55.9409888" lon="49.1645863"><time>2023-06-03T10:34:49.800</time></trkpt><trkpt lat="55.9409753" lon="49.1646696"><time>2023-06-03T10:34:53.793</time></trkpt><trkpt lat="55.9409597" lon="49.1647607"><time>2023-06-03T10:34:57.800</time></trkpt><trkpt lat="55.9409293" lon="49.1648357"><time>2023-06-03T10:35:00.793</time></trkpt><trkpt lat="55.9409022" lon="49.1649242"><time>2023-06-03T10:35:03.810</time></trkpt><trkpt lat="55.9408738" lon="49.1649954"><time>2023-06-03T10:35:06.800</time></trkpt><trkpt lat="55.9408443" lon="49.1650902"><time>2023-06-03T10:35:09.803</time></trkpt><trkpt lat="55.9408273" lon="49.1651779"><time>2023-06-03T10:35:12.790</time></trkpt><trkpt lat="55.9408164" lon="49.1652687"><time>2023-06-03T10:35:16.807</time></trkpt><trkpt lat="55.9407993" lon="49.1653484"><time>2023-06-03T10:35:19.810</time></trkpt><trkpt lat="55.9407782" lon="49.1654320"><time>2023-06-03T10:35:23.827</time></trkpt><trkpt lat="55.9407699" lon="49.1654531"><time>2023-06-03T10:35:24.793</time></trkpt><trkpt lat="55.9407381" lon="49.1655310"><time>2023-06-03T10:35:28.797</time></trkpt><trkpt lat="55.9407270" lon="49.1656109"><time>2023-06-03T10:35:31.807</time></trkpt><trkpt lat="55.9407152" lon="49.1656977"><time>2023-06-03T10:35:35.793</time></trkpt><trkpt lat="55.9406881" lon="49.1657621"><time>2023-06-03T10:35:38.800</time></trkpt><trkpt lat="55.9406656" lon="49.1658462"><time>2023-06-03T10:35:43.797</time></trkpt><trkpt lat="55.9406498" lon="49.1659292"><time>2023-06-03T10:35:46.817</time></trkpt><trkpt lat="55.9406324" lon="49.1660284"><time>2023-06-03T10:35:50.790</time></trkpt><trkpt lat="55.9405984" lon="49.1661035"><time>2023-06-03T10:35:55.807</time></trkpt><trkpt lat="55.9405673" lon="49.1661781"><time>2023-06-03T10:36:00.797</time></trkpt><trkpt lat="55.9405217" lon="49.1662452"><time>2023-06-03T10:36:04.837</time></trkpt><trkpt lat="55.9405086" lon="49.1662595"><time>2023-06-03T10:36:05.800</time></trkpt><trkpt lat="55.9404710" lon="49.1663303"><time>2023-06-03T10:36:09.797</time></trkpt><trkpt lat="55.9404313" lon="49.1663817"><time>2023-06-03T10:36:12.800</time></trkpt><trkpt lat="55.9403908" lon="49.1664301"><time>2023-06-03T10:36:15.807</time></trkpt><trkpt lat="55.9403451" lon="49.1664618"><time>2023-06-03T10:36:19.783</time></trkpt><trkpt lat="55.9403018" lon="49.1665022"><time>2023-06-03T10:36:24.613</time></trkpt><trkpt lat="55.9403018" lon="49.1665022"><time>2023-06-03T10:36:24.640</time></trkpt><trkpt lat="55.9403277" lon="49.1664349"><time>2023-06-03T10:36:33.817</time></trkpt><trkpt lat="55.9403431" lon="49.1664079"><time>2023-06-03T10:36:34.830</time></trkpt><trkpt lat="55.9403895" lon="49.1663356"><time>2023-06-03T10:36:37.800</time></trkpt><trkpt lat="55.9404402" lon="49.1662805"><time>2023-06-03T10:36:39.797</time></trkpt><trkpt lat="55.9404817" lon="49.1662492"><time>2023-06-03T10:36:41.790</time></trkpt><trkpt lat="55.9405297" lon="49.1662024"><time>2023-06-03T10:36:43.807</time></trkpt><trkpt lat="55.9405694" lon="49.1661593"><time>2023-06-03T10:36:45.780</time></trkpt><trkpt lat="55.9406074" lon="49.1660966"><time>2023-06-03T10:36:48.797</time></trkpt><trkpt lat="55.9406272" lon="49.1659947"><time>2023-06-03T10:36:51.797</time></trkpt><trkpt lat="55.9406472" lon="49.1659099"><time>2023-06-03T10:36:53.807</time></trkpt><trkpt lat="55.9406775" lon="49.1657888"><time>2023-06-03T10:36:56.787</time></trkpt><trkpt lat="55.9406960" lon="49.1657074"><time>2023-06-03T10:36:58.793</time></trkpt><trkpt lat="55.9407101" lon="49.1656228"><time>2023-06-03T10:37:00.790</time></trkpt><trkpt lat="55.9407394" lon="49.1655353"><time>2023-06-03T10:37:02.790</time></trkpt><trkpt lat="55.9407955" lon="49.1654477"><time>2023-06-03T10:37:04.793</time></trkpt><trkpt lat="55.9408359" lon="49.1653645"><time>2023-06-03T10:37:06.793</time></trkpt><trkpt lat="55.9408619" lon="49.1652824"><time>2023-06-03T10:37:08.790</time></trkpt><trkpt lat="55.9408870" lon="49.1651952"><time>2023-06-03T10:37:10.790</time></trkpt><trkpt lat="55.9409001" lon="49.1651095"><time>2023-06-03T10:37:12.807</time></trkpt><trkpt lat="55.9409077" lon="49.1650122"><time>2023-06-03T10:37:14.797</time></trkpt><trkpt lat="55.9409207" lon="49.1649321"><time>2023-06-03T10:37:16.783</time></trkpt><trkpt lat="55.9409374" lon="49.1648402"><time>2023-06-03T10:37:19.793</time></trkpt><trkpt lat="55.9409576" lon="49.1647495"><time>2023-06-03T10:37:21.820</time></trkpt><trkpt lat="55.9409717" lon="49.1646670"><time>2023-06-03T10:37:23.807</time></trkpt><trkpt lat="55.9409926" lon="49.1645810"><time>2023-06-03T10:37:25.803</time></trkpt><trkpt lat="55.9409999" lon="49.1644862"><time>2023-06-03T10:37:27.807</time></trkpt><trkpt lat="55.9409556" lon="49.1644214"><time>2023-06-03T10:37:29.790</time></trkpt><trkpt lat="55.9408904" lon="49.1643825"><time>2023-06-03T10:37:31.810</time></trkpt><trkpt lat="55.9408302" lon="49.1643390"><time>2023-06-03T10:37:33.830</time></trkpt><trkpt lat="55.9407848" lon="49.1642845"><time>2023-06-03T10:37:35.803</time></trkpt><trkpt lat="55.9407417" lon="49.1642335"><time>2023-06-03T10:37:37.797</time></trkpt><trkpt lat="55.9406758" lon="49.1641816"><time>2023-06-03T10:37:40.790</time></trkpt><trkpt lat="55.9406241" lon="49.1641721"><time>2023-06-03T10:37:42.790</time></trkpt><trkpt lat="55.9405670" lon="49.1641488"><time>2023-06-03T10:37:44.800</time></trkpt><trkpt lat="55.9405162" lon="49.1641083"><time>2023-06-03T10:37:46.790</time></trkpt><trkpt lat="55.9404625" lon="49.1640573"><time>2023-06-03T10:37:48.797</time></trkpt><trkpt lat="55.9404111" lon="49.1640012"><time>2023-06-03T10:37:50.800</time></trkpt><trkpt lat="55.9403617" lon="49.1639405"><time>2023-06-03T10:37:52.787</time></trkpt><trkpt lat="55.9403126" lon="49.1638721"><time>2023-06-03T10:37:54.790</time></trkpt><trkpt lat="55.9402668" lon="49.1638037"><time>2023-06-03T10:37:56.787</time></trkpt><trkpt lat="55.9402280" lon="49.1637268"><time>2023-06-03T10:37:58.800</time></trkpt><trkpt lat="55.9401907" lon="49.1636325"><time>2023-06-03T10:38:00.803</time></trkpt><trkpt lat="55.9401492" lon="49.1635415"><time>2023-06-03T10:38:02.790</time></trkpt><trkpt lat="55.9401116" lon="49.1634649"><time>2023-06-03T10:38:04.793</time></trkpt><trkpt lat="55.9400671" lon="49.1634038"><time>2023-06-03T10:38:06.793</time></trkpt><trkpt lat="55.9400141" lon="49.1633374"><time>2023-06-03T10:38:08.790</time></trkpt><trkpt lat="55.9399702" lon="49.1632765"><time>2023-06-03T10:38:10.793</time></trkpt><trkpt lat="55.9399405" lon="49.1631978"><time>2023-06-03T10:38:12.793</time></trkpt><trkpt lat="55.9399261" lon="49.1631136"><time>2023-06-03T10:38:14.800</time></trkpt><trkpt lat="55.9399260" lon="49.1630310"><time>2023-06-03T10:38:16.797</time></trkpt><trkpt lat="55.9399420" lon="49.1629557"><time>2023-06-03T10:38:18.793</time></trkpt><trkpt lat="55.9399762" lon="49.1628589"><time>2023-06-03T10:38:21.837</time></trkpt><trkpt lat="55.9400149" lon="49.1627571"><time>2023-06-03T10:38:24.797</time></trkpt><trkpt lat="55.9400468" lon="49.1626817"><time>2023-06-03T10:38:26.803</time></trkpt><trkpt lat="55.9400829" lon="49.1626278"><time>2023-06-03T10:38:28.787</time></trkpt><trkpt lat="55.9401305" lon="49.1625432"><time>2023-06-03T10:38:31.797</time></trkpt><trkpt lat="55.9401664" lon="49.1624694"><time>2023-06-03T10:38:33.800</time></trkpt><trkpt lat="55.9401962" lon="49.1624064"><time>2023-06-03T10:38:35.807</time></trkpt><trkpt lat="55.9402145" lon="49.1623304"><time>2023-06-03T10:38:37.793</time></trkpt><trkpt lat="55.9402278" lon="49.1622509"><time>2023-06-03T10:38:39.793</time></trkpt><trkpt lat="55.9402401" lon="49.1621518"><time>2023-06-03T10:38:42.797</time></trkpt><trkpt lat="55.9402533" lon="49.1620643"><time>2023-06-03T10:38:44.800</time></trkpt><trkpt lat="55.9402719" lon="49.1619706"><time>2023-06-03T10:38:46.790</time></trkpt><trkpt lat="55.9402887" lon="49.1618600"><time>2023-06-03T10:38:49.820</time></trkpt><trkpt lat="55.9403037" lon="49.1617543"><time>2023-06-03T10:38:52.797</time></trkpt><trkpt lat="55.9403310" lon="49.1616652"><time>2023-06-03T10:38:55.830</time></trkpt><trkpt lat="55.9403858" lon="49.1616255"><time>2023-06-03T10:38:58.797</time></trkpt><trkpt lat="55.9404370" lon="49.1616594"><time>2023-06-03T10:39:02.797</time></trkpt><trkpt lat="55.9404531" lon="49.1617549"><time>2023-06-03T10:39:06.793</time></trkpt><trkpt lat="55.9404573" lon="49.1616627"><time>2023-06-03T10:39:20.797</time></trkpt><trkpt lat="55.9404680" lon="49.1615706"><time>2023-06-03T10:39:24.787</time></trkpt><trkpt lat="55.9405120" lon="49.1615527"><time>2023-06-03T10:39:36.800</time></trkpt><trkpt lat="55.9405526" lon="49.1614671"><time>2023-06-03T10:41:20.797</time></trkpt><trkpt lat="55.9405775" lon="49.1613718"><time>2023-06-03T10:41:23.807</time></trkpt><trkpt lat="55.9405872" lon="49.1612841"><time>2023-06-03T10:41:26.793</time></trkpt><trkpt lat="55.9406032" lon="49.1611848"><time>2023-06-03T10:41:29.837</time></trkpt><trkpt lat="55.9406170" lon="49.1610934"><time>2023-06-03T10:41:31.807</time></trkpt><trkpt lat="55.9406292" lon="49.1609977"><time>2023-06-03T10:41:33.800</time></trkpt><trkpt lat="55.9406392" lon="49.1609080"><time>2023-06-03T10:41:35.797</time></trkpt><trkpt lat="55.9406451" lon="49.1608228"><time>2023-06-03T10:41:37.810</time></trkpt><trkpt lat="55.9406515" lon="49.1607230"><time>2023-06-03T10:41:39.813</time></trkpt><trkpt lat="55.9406491" lon="49.1606314"><time>2023-06-03T10:41:41.803</time></trkpt><trkpt lat="55.9406352" lon="49.1605507"><time>2023-06-03T10:41:43.803</time></trkpt><trkpt lat="55.9406216" lon="49.1604695"><time>2023-06-03T10:41:45.867</time></trkpt><trkpt lat="55.9406225" lon="49.1603665"><time>2023-06-03T10:41:47.800</time></trkpt><trkpt lat="55.9406325" lon="49.1602729"><time>2023-06-03T10:41:49.793</time></trkpt><trkpt lat="55.9406416" lon="49.1601804"><time>2023-06-03T10:41:51.797</time></trkpt><trkpt lat="55.9406484" lon="49.1600794"><time>2023-06-03T10:41:54.790</time></trkpt><trkpt lat="55.9406676" lon="49.1599881"><time>2023-06-03T10:41:56.790</time></trkpt><trkpt lat="55.9407035" lon="49.1598826"><time>2023-06-03T10:41:58.777</time></trkpt><trkpt lat="55.9407233" lon="49.1597875"><time>2023-06-03T10:42:00.797</time></trkpt><trkpt lat="55.9407315" lon="49.1596757"><time>2023-06-03T10:42:02.797</time></trkpt><trkpt lat="55.9407310" lon="49.1595720"><time>2023-06-03T10:42:04.793</time></trkpt><trkpt lat="55.9407155" lon="49.1594806"><time>2023-06-03T10:42:06.793</time></trkpt><trkpt lat="55.9406932" lon="49.1593842"><time>2023-06-03T10:42:08.797</time></trkpt><trkpt lat="55.9406794" lon="49.1592953"><time>2023-06-03T10:42:10.793</time></trkpt><trkpt lat="55.9406734" lon="49.1592121"><time>2023-06-03T10:42:12.793</time></trkpt><trkpt lat="55.9406566" lon="49.1591369"><time>2023-06-03T10:42:14.840</time></trkpt><trkpt lat="55.9406265" lon="49.1590432"><time>2023-06-03T10:42:16.800</time></trkpt><trkpt lat="55.9406022" lon="49.1589581"><time>2023-06-03T10:42:18.797</time></trkpt><trkpt lat="55.9405766" lon="49.1588665"><time>2023-06-03T10:42:20.810</time></trkpt><trkpt lat="55.9405351" lon="49.1587899"><time>2023-06-03T10:42:22.797</time></trkpt><trkpt lat="55.9404660" lon="49.1587352"><time>2023-06-03T10:42:24.787</time></trkpt><trkpt lat="55.9403902" lon="49.1586938"><time>2023-06-03T10:42:26.830</time></trkpt><trkpt lat="55.9403153" lon="49.1586583"><time>2023-06-03T10:42:28.793</time></trkpt><trkpt lat="55.9402332" lon="49.1586119"><time>2023-06-03T10:42:30.797</time></trkpt><trkpt lat="55.9401563" lon="49.1585738"><time>2023-06-03T10:42:32.813</time></trkpt><trkpt lat="55.9400788" lon="49.1585384"><time>2023-06-03T10:42:34.793</time></trkpt><trkpt lat="55.9400001" lon="49.1585007"><time>2023-06-03T10:42:36.797</time></trkpt><trkpt lat="55.9399039" lon="49.1584538"><time>2023-06-03T10:42:38.823</time></trkpt><trkpt lat="55.9398535" lon="49.1584206"><time>2023-06-03T10:42:39.793</time></trkpt><trkpt lat="55.9398030" lon="49.1583770"><time>2023-06-03T10:42:40.800</time></trkpt><trkpt lat="55.9397582" lon="49.1583629"><time>2023-06-03T10:42:41.787</time></trkpt><trkpt lat="55.9397078" lon="49.1583359"><time>2023-06-03T10:42:42.790</time></trkpt><trkpt lat="55.9396640" lon="49.1582989"><time>2023-06-03T10:42:43.793</time></trkpt><trkpt lat="55.9396144" lon="49.1582617"><time>2023-06-03T10:42:44.810</time></trkpt><trkpt lat="55.9395626" lon="49.1582272"><time>2023-06-03T10:42:45.793</time></trkpt><trkpt lat="55.9395068" lon="49.1581865"><time>2023-06-03T10:42:46.787</time></trkpt><trkpt lat="55.9394508" lon="49.1581560"><time>2023-06-03T10:42:47.790</time></trkpt><trkpt lat="55.9393925" lon="49.1581114"><time>2023-06-03T10:42:48.790</time></trkpt><trkpt lat="55.9393336" lon="49.1580826"><time>2023-06-03T10:42:49.793</time></trkpt><trkpt lat="55.9392784" lon="49.1580423"><time>2023-06-03T10:42:50.823</time></trkpt><trkpt lat="55.9392261" lon="49.1579990"><time>2023-06-03T10:42:51.797</time></trkpt><trkpt lat="55.9391725" lon="49.1579670"><time>2023-06-03T10:42:52.800</time></trkpt><trkpt lat="55.9391146" lon="49.1579241"><time>2023-06-03T10:42:53.800</time></trkpt><trkpt lat="55.9390704" lon="49.1579070"><time>2023-06-03T10:42:54.790</time></trkpt><trkpt lat="55.9390162" lon="49.1578783"><time>2023-06-03T10:42:55.797</time></trkpt><trkpt lat="55.9389660" lon="49.1578561"><time>2023-06-03T10:42:56.807</time></trkpt><trkpt lat="55.9389165" lon="49.1578284"><time>2023-06-03T10:42:57.800</time></trkpt><trkpt lat="55.9388665" lon="49.1577997"><time>2023-06-03T10:42:58.787</time></trkpt><trkpt lat="55.9388122" lon="49.1577679"><time>2023-06-03T10:42:59.803</time></trkpt><trkpt lat="55.9387605" lon="49.1577358"><time>2023-06-03T10:43:00.790</time></trkpt><trkpt lat="55.9387057" lon="49.1576975"><time>2023-06-03T10:43:01.803</time></trkpt><trkpt lat="55.9386559" lon="49.1576727"><time>2023-06-03T10:43:02.820</time></trkpt><trkpt lat="55.9385961" lon="49.1576244"><time>2023-06-03T10:43:03.807</time></trkpt><trkpt lat="55.9385395" lon="49.1575887"><time>2023-06-03T10:43:04.790</time></trkpt><trkpt lat="55.9384836" lon="49.1575712"><time>2023-06-03T10:43:05.790</time></trkpt><trkpt lat="55.9384254" lon="49.1575370"><time>2023-06-03T10:43:06.800</time></trkpt><trkpt lat="55.9383637" lon="49.1574860"><time>2023-06-03T10:43:07.797</time></trkpt><trkpt lat="55.9383120" lon="49.1574974"><time>2023-06-03T10:43:08.787</time></trkpt><trkpt lat="55.9382563" lon="49.1574712"><time>2023-06-03T10:43:09.793</time></trkpt><trkpt lat="55.9382029" lon="49.1574612"><time>2023-06-03T10:43:10.800</time></trkpt><trkpt lat="55.9381440" lon="49.1574228"><time>2023-06-03T10:43:11.790</time></trkpt><trkpt lat="55.9380860" lon="49.1573905"><time>2023-06-03T10:43:12.800</time></trkpt><trkpt lat="55.9380358" lon="49.1573615"><time>2023-06-03T10:43:13.830</time></trkpt><trkpt lat="55.9379808" lon="49.1573072"><time>2023-06-03T10:43:14.793</time></trkpt><trkpt lat="55.9379274" lon="49.1572742"><time>2023-06-03T10:43:15.797</time></trkpt><trkpt lat="55.9378716" lon="49.1572220"><time>2023-06-03T10:43:16.790</time></trkpt><trkpt lat="55.9378204" lon="49.1571962"><time>2023-06-03T10:43:17.797</time></trkpt><trkpt lat="55.9377617" lon="49.1571580"><time>2023-06-03T10:43:18.800</time></trkpt><trkpt lat="55.9377155" lon="49.1571357"><time>2023-06-03T10:43:19.820</time></trkpt><trkpt lat="55.9376502" lon="49.1570721"><time>2023-06-03T10:43:20.790</time></trkpt><trkpt lat="55.9376025" lon="49.1570517"><time>2023-06-03T10:43:21.800</time></trkpt><trkpt lat="55.9375444" lon="49.1570159"><time>2023-06-03T10:43:22.790</time></trkpt><trkpt lat="55.9374747" lon="49.1569812"><time>2023-06-03T10:43:23.797</time></trkpt><trkpt lat="55.9374127" lon="49.1569440"><time>2023-06-03T10:43:24.783</time></trkpt><trkpt lat="55.9373457" lon="49.1569043"><time>2023-06-03T10:43:25.817</time></trkpt><trkpt lat="55.9372758" lon="49.1568571"><time>2023-06-03T10:43:26.790</time></trkpt><trkpt lat="55.9372052" lon="49.1568142"><time>2023-06-03T10:43:27.800</time></trkpt><trkpt lat="55.9371457" lon="49.1567773"><time>2023-06-03T10:43:28.793</time></trkpt><trkpt lat="55.9370833" lon="49.1567403"><time>2023-06-03T10:43:29.790</time></trkpt><trkpt lat="55.9370267" lon="49.1567064"><time>2023-06-03T10:43:30.793</time></trkpt><trkpt lat="55.9369616" lon="49.1566629"><time>2023-06-03T10:43:31.817</time></trkpt><trkpt lat="55.9368976" lon="49.1566330"><time>2023-06-03T10:43:32.790</time></trkpt><trkpt lat="55.9368412" lon="49.1566041"><time>2023-06-03T10:43:33.793</time></trkpt><trkpt lat="55.9367735" lon="49.1565614"><time>2023-06-03T10:43:34.790</time></trkpt><trkpt lat="55.9367162" lon="49.1565272"><time>2023-06-03T10:43:35.797</time></trkpt><trkpt lat="55.9366626" lon="49.1564990"><time>2023-06-03T10:43:36.800</time></trkpt><trkpt lat="55.9366043" lon="49.1564628"><time>2023-06-03T10:43:37.823</time></trkpt><trkpt lat="55.9365523" lon="49.1564495"><time>2023-06-03T10:43:38.790</time></trkpt><trkpt lat="55.9364892" lon="49.1563800"><time>2023-06-03T10:43:39.793</time></trkpt><trkpt lat="55.9364240" lon="49.1563195"><time>2023-06-03T10:43:40.793</time></trkpt><trkpt lat="55.9363621" lon="49.1562805"><time>2023-06-03T10:43:41.797</time></trkpt><trkpt lat="55.9363009" lon="49.1562439"><time>2023-06-03T10:43:42.787</time></trkpt><trkpt lat="55.9362427" lon="49.1562222"><time>2023-06-03T10:43:43.820</time></trkpt><trkpt lat="55.9361825" lon="49.1562027"><time>2023-06-03T10:43:44.790</time></trkpt><trkpt lat="55.9361241" lon="49.1561763"><time>2023-06-03T10:43:45.803</time></trkpt><trkpt lat="55.9360706" lon="49.1561361"><time>2023-06-03T10:43:46.790</time></trkpt><trkpt lat="55.9360118" lon="49.1560964"><time>2023-06-03T10:43:47.807</time></trkpt><trkpt lat="55.9359640" lon="49.1560724"><time>2023-06-03T10:43:48.793</time></trkpt><trkpt lat="55.9359072" lon="49.1560436"><time>2023-06-03T10:43:49.823</time></trkpt><trkpt lat="55.9358559" lon="49.1560069"><time>2023-06-03T10:43:50.810</time></trkpt><trkpt lat="55.9358108" lon="49.1559901"><time>2023-06-03T10:43:51.793</time></trkpt><trkpt lat="55.9357632" lon="49.1559557"><time>2023-06-03T10:43:52.793</time></trkpt><trkpt lat="55.9356756" lon="49.1558911"><time>2023-06-03T10:43:54.797</time></trkpt><trkpt lat="55.9356078" lon="49.1558667"><time>2023-06-03T10:43:56.783</time></trkpt><trkpt lat="55.9355207" lon="49.1558147"><time>2023-06-03T10:43:58.800</time></trkpt><trkpt lat="55.9354713" lon="49.1557939"><time>2023-06-03T10:43:59.780</time></trkpt><trkpt lat="55.9354210" lon="49.1557688"><time>2023-06-03T10:44:00.787</time></trkpt><trkpt lat="55.9353741" lon="49.1557277"><time>2023-06-03T10:44:01.827</time></trkpt><trkpt lat="55.9353275" lon="49.1556902"><time>2023-06-03T10:44:02.787</time></trkpt><trkpt lat="55.9352448" lon="49.1556461"><time>2023-06-03T10:44:04.800</time></trkpt><trkpt lat="55.9351646" lon="49.1555913"><time>2023-06-03T10:44:06.793</time></trkpt><trkpt lat="55.9350795" lon="49.1555356"><time>2023-06-03T10:44:08.797</time></trkpt><trkpt lat="55.9349971" lon="49.1554587"><time>2023-06-03T10:44:10.793</time></trkpt><trkpt lat="55.9349226" lon="49.1554624"><time>2023-06-03T10:44:12.787</time></trkpt><trkpt lat="55.9348750" lon="49.1554316"><time>2023-06-03T10:44:13.833</time></trkpt><trkpt lat="55.9348309" lon="49.1554044"><time>2023-06-03T10:44:14.787</time></trkpt><trkpt lat="55.9347787" lon="49.1553841"><time>2023-06-03T10:44:15.797</time></trkpt><trkpt lat="55.9347212" lon="49.1553477"><time>2023-06-03T10:44:16.780</time></trkpt><trkpt lat="55.9346636" lon="49.1553119"><time>2023-06-03T10:44:17.797</time></trkpt><trkpt lat="55.9346077" lon="49.1552808"><time>2023-06-03T10:44:18.790</time></trkpt><trkpt lat="55.9345542" lon="49.1552501"><time>2023-06-03T10:44:19.810</time></trkpt><trkpt lat="55.9345043" lon="49.1552256"><time>2023-06-03T10:44:20.787</time></trkpt><trkpt lat="55.9344597" lon="49.1551947"><time>2023-06-03T10:44:21.823</time></trkpt><trkpt lat="55.9344149" lon="49.1551770"><time>2023-06-03T10:44:22.787</time></trkpt><trkpt lat="55.9343648" lon="49.1551508"><time>2023-06-03T10:44:23.797</time></trkpt><trkpt lat="55.9343132" lon="49.1551158"><time>2023-06-03T10:44:24.797</time></trkpt><trkpt lat="55.9342683" lon="49.1550836"><time>2023-06-03T10:44:25.810</time></trkpt><trkpt lat="55.9342106" lon="49.1550465"><time>2023-06-03T10:44:26.787</time></trkpt><trkpt lat="55.9341585" lon="49.1550127"><time>2023-06-03T10:44:27.800</time></trkpt><trkpt lat="55.9340581" lon="49.1549660"><time>2023-06-03T10:44:29.800</time></trkpt><trkpt lat="55.9340063" lon="49.1549421"><time>2023-06-03T10:44:30.807</time></trkpt><trkpt lat="55.9339287" lon="49.1549071"><time>2023-06-03T10:44:31.787</time></trkpt><trkpt lat="55.9338759" lon="49.1548944"><time>2023-06-03T10:44:32.790</time></trkpt><trkpt lat="55.9338185" lon="49.1548797"><time>2023-06-03T10:44:33.797</time></trkpt><trkpt lat="55.9337517" lon="49.1548298"><time>2023-06-03T10:44:34.793</time></trkpt><trkpt lat="55.9336900" lon="49.1548145"><time>2023-06-03T10:44:35.793</time></trkpt><trkpt lat="55.9336240" lon="49.1547871"><time>2023-06-03T10:44:36.813</time></trkpt><trkpt lat="55.9335759" lon="49.1547544"><time>2023-06-03T10:44:37.787</time></trkpt><trkpt lat="55.9334821" lon="49.1546771"><time>2023-06-03T10:44:39.807</time></trkpt><trkpt lat="55.9334282" lon="49.1545936"><time>2023-06-03T10:44:40.793</time></trkpt><trkpt lat="55.9333838" lon="49.1546282"><time>2023-06-03T10:44:41.800</time></trkpt><trkpt lat="55.9333248" lon="49.1545708"><time>2023-06-03T10:44:42.803</time></trkpt><trkpt lat="55.9332777" lon="49.1545262"><time>2023-06-03T10:44:43.797</time></trkpt><trkpt lat="55.9332195" lon="49.1544872"><time>2023-06-03T10:44:44.790</time></trkpt><trkpt lat="55.9331672" lon="49.1544340"><time>2023-06-03T10:44:45.793</time></trkpt><trkpt lat="55.9331087" lon="49.1543932"><time>2023-06-03T10:44:46.783</time></trkpt><trkpt lat="55.9330248" lon="49.1543567"><time>2023-06-03T10:44:48.820</time></trkpt><trkpt lat="55.9329712" lon="49.1543091"><time>2023-06-03T10:44:49.793</time></trkpt><trkpt lat="55.9329185" lon="49.1542633"><time>2023-06-03T10:44:50.790</time></trkpt><trkpt lat="55.9328645" lon="49.1542180"><time>2023-06-03T10:44:51.790</time></trkpt><trkpt lat="55.9328049" lon="49.1541883"><time>2023-06-03T10:44:52.787</time></trkpt><trkpt lat="55.9327559" lon="49.1541522"><time>2023-06-03T10:44:53.807</time></trkpt><trkpt lat="55.9327057" lon="49.1541382"><time>2023-06-03T10:44:54.807</time></trkpt><trkpt lat="55.9326472" lon="49.1541027"><time>2023-06-03T10:44:55.813</time></trkpt><trkpt lat="55.9325867" lon="49.1540780"><time>2023-06-03T10:44:56.783</time></trkpt><trkpt lat="55.9325209" lon="49.1540386"><time>2023-06-03T10:44:57.790</time></trkpt><trkpt lat="55.9324681" lon="49.1540186"><time>2023-06-03T10:44:58.787</time></trkpt><trkpt lat="55.9324107" lon="49.1539911"><time>2023-06-03T10:44:59.797</time></trkpt><trkpt lat="55.9323524" lon="49.1539610"><time>2023-06-03T10:45:00.817</time></trkpt><trkpt lat="55.9322926" lon="49.1539496"><time>2023-06-03T10:45:01.803</time></trkpt><trkpt lat="55.9322242" lon="49.1538953"><time>2023-06-03T10:45:02.787</time></trkpt><trkpt lat="55.9321650" lon="49.1538359"><time>2023-06-03T10:45:03.800</time></trkpt><trkpt lat="55.9321135" lon="49.1538039"><time>2023-06-03T10:45:04.793</time></trkpt><trkpt lat="55.9320486" lon="49.1537646"><time>2023-06-03T10:45:05.810</time></trkpt><trkpt lat="55.9319937" lon="49.1537475"><time>2023-06-03T10:45:06.797</time></trkpt><trkpt lat="55.9319345" lon="49.1537147"><time>2023-06-03T10:45:07.883</time></trkpt><trkpt lat="55.9318586" lon="49.1536587"><time>2023-06-03T10:45:08.793</time></trkpt><trkpt lat="55.9317947" lon="49.1536140"><time>2023-06-03T10:45:09.793</time></trkpt><trkpt lat="55.9317238" lon="49.1535557"><time>2023-06-03T10:45:10.793</time></trkpt><trkpt lat="55.9316672" lon="49.1535376"><time>2023-06-03T10:45:11.800</time></trkpt><trkpt lat="55.9316128" lon="49.1534957"><time>2023-06-03T10:45:12.823</time></trkpt><trkpt lat="55.9315640" lon="49.1534672"><time>2023-06-03T10:45:13.797</time></trkpt><trkpt lat="55.9315059" lon="49.1534233"><time>2023-06-03T10:45:14.787</time></trkpt><trkpt lat="55.9314524" lon="49.1533783"><time>2023-06-03T10:45:15.807</time></trkpt><trkpt lat="55.9314042" lon="49.1533485"><time>2023-06-03T10:45:16.787</time></trkpt><trkpt lat="55.9313626" lon="49.1533160"><time>2023-06-03T10:45:17.807</time></trkpt><trkpt lat="55.9312872" lon="49.1532962"><time>2023-06-03T10:45:19.807</time></trkpt><trkpt lat="55.9312337" lon="49.1533763"><time>2023-06-03T10:45:21.807</time></trkpt><trkpt lat="55.9311862" lon="49.1534914"><time>2023-06-03T10:45:23.837</time></trkpt><trkpt lat="55.9311657" lon="49.1536379"><time>2023-06-03T10:45:25.807</time></trkpt><trkpt lat="55.9311493" lon="49.1537128"><time>2023-06-03T10:45:26.790</time></trkpt><trkpt lat="55.9311246" lon="49.1538593"><time>2023-06-03T10:45:28.810</time></trkpt><trkpt lat="55.9310934" lon="49.1539862"><time>2023-06-03T10:45:30.790</time></trkpt><trkpt lat="55.9310717" lon="49.1541105"><time>2023-06-03T10:45:32.787</time></trkpt><trkpt lat="55.9310549" lon="49.1542079"><time>2023-06-03T10:45:34.793</time></trkpt><trkpt lat="55.9310576" lon="49.1542998"><time>2023-06-03T10:45:47.837</time></trkpt><trkpt lat="55.9310389" lon="49.1544066"><time>2023-06-03T10:45:49.797</time></trkpt><trkpt lat="55.9310203" lon="49.1545172"><time>2023-06-03T10:45:51.797</time></trkpt><trkpt lat="55.9309992" lon="49.1546376"><time>2023-06-03T10:45:53.817</time></trkpt><trkpt lat="55.9309811" lon="49.1547556"><time>2023-06-03T10:45:55.797</time></trkpt><trkpt lat="55.9309688" lon="49.1548853"><time>2023-06-03T10:45:57.793</time></trkpt><trkpt lat="55.9309531" lon="49.1550351"><time>2023-06-03T10:45:59.830</time></trkpt><trkpt lat="55.9309289" lon="49.1551907"><time>2023-06-03T10:46:01.797</time></trkpt><trkpt lat="55.9309088" lon="49.1553416"><time>2023-06-03T10:46:03.807</time></trkpt><trkpt lat="55.9308987" lon="49.1554195"><time>2023-06-03T10:46:04.797</time></trkpt><trkpt lat="55.9308808" lon="49.1555615"><time>2023-06-03T10:46:06.793</time></trkpt><trkpt lat="55.9308570" lon="49.1557035"><time>2023-06-03T10:46:08.790</time></trkpt><trkpt lat="55.9308421" lon="49.1558196"><time>2023-06-03T10:46:10.797</time></trkpt><trkpt lat="55.9308330" lon="49.1559180"><time>2023-06-03T10:46:12.790</time></trkpt><trkpt lat="55.9308184" lon="49.1560210"><time>2023-06-03T10:46:14.817</time></trkpt><trkpt lat="55.9307993" lon="49.1561317"><time>2023-06-03T10:46:16.787</time></trkpt><trkpt lat="55.9307920" lon="49.1562371"><time>2023-06-03T10:46:18.790</time></trkpt><trkpt lat="55.9308225" lon="49.1563143"><time>2023-06-03T10:46:20.790</time></trkpt><trkpt lat="55.9308994" lon="49.1563657"><time>2023-06-03T10:46:22.827</time></trkpt><trkpt lat="55.9309587" lon="49.1563811"><time>2023-06-03T10:46:24.797</time></trkpt><trkpt lat="55.9310261" lon="49.1563571"><time>2023-06-03T10:46:26.777</time></trkpt><trkpt lat="55.9310870" lon="49.1563135"><time>2023-06-03T10:46:28.843</time></trkpt><trkpt lat="55.9311228" lon="49.1562927"><time>2023-06-03T10:46:29.797</time></trkpt><trkpt lat="55.9311860" lon="49.1562733"><time>2023-06-03T10:46:31.800</time></trkpt><trkpt lat="55.9312483" lon="49.1562819"><time>2023-06-03T10:46:33.803</time></trkpt><trkpt lat="55.9313015" lon="49.1562927"><time>2023-06-03T10:46:35.797</time></trkpt><trkpt lat="55.9313572" lon="49.1563000"><time>2023-06-03T10:46:37.797</time></trkpt><trkpt lat="55.9314239" lon="49.1563114"><time>2023-06-03T10:46:39.793</time></trkpt><trkpt lat="55.9314800" lon="49.1563257"><time>2023-06-03T10:46:41.793</time></trkpt><trkpt lat="55.9315393" lon="49.1563384"><time>2023-06-03T10:46:43.800</time></trkpt><trkpt lat="55.9316056" lon="49.1563424"><time>2023-06-03T10:46:46.827</time></trkpt><trkpt lat="55.9316610" lon="49.1563385"><time>2023-06-03T10:46:48.787</time></trkpt><trkpt lat="55.9317250" lon="49.1563308"><time>2023-06-03T10:46:50.787</time></trkpt><trkpt lat="55.9317845" lon="49.1563317"><time>2023-06-03T10:46:52.803</time></trkpt><trkpt lat="55.9318427" lon="49.1563282"><time>2023-06-03T10:46:54.797</time></trkpt><trkpt lat="55.9319073" lon="49.1563339"><time>2023-06-03T10:46:56.787</time></trkpt><trkpt lat="55.9319666" lon="49.1563411"><time>2023-06-03T10:46:58.810</time></trkpt><trkpt lat="55.9319928" lon="49.1563445"><time>2023-06-03T10:46:59.797</time></trkpt><trkpt lat="55.9320416" lon="49.1563544"><time>2023-06-03T10:47:01.797</time></trkpt><trkpt lat="55.9320976" lon="49.1563592"><time>2023-06-03T10:47:03.823</time></trkpt><trkpt lat="55.9321460" lon="49.1563570"><time>2023-06-03T10:47:05.787</time></trkpt><trkpt lat="55.9322084" lon="49.1563553"><time>2023-06-03T10:47:07.787</time></trkpt><trkpt lat="55.9322675" lon="49.1563582"><time>2023-06-03T10:47:09.833</time></trkpt><trkpt lat="55.9323229" lon="49.1563583"><time>2023-06-03T10:47:11.810</time></trkpt><trkpt lat="55.9323741" lon="49.1563625"><time>2023-06-03T10:47:13.793</time></trkpt><trkpt lat="55.9324318" lon="49.1563698"><time>2023-06-03T10:47:15.847</time></trkpt><trkpt lat="55.9324597" lon="49.1563751"><time>2023-06-03T10:47:16.787</time></trkpt><trkpt lat="55.9325075" lon="49.1563860"><time>2023-06-03T10:47:18.793</time></trkpt><trkpt lat="55.9325651" lon="49.1563820"><time>2023-06-03T10:47:21.823</time></trkpt><trkpt lat="55.9326153" lon="49.1563841"><time>2023-06-03T10:47:23.797</time></trkpt><trkpt lat="55.9326607" lon="49.1563864"><time>2023-06-03T10:47:25.793</time></trkpt><trkpt lat="55.9327274" lon="49.1563830"><time>2023-06-03T10:47:28.803</time></trkpt><trkpt lat="55.9327274" lon="49.1563830"><time>2023-06-03T10:47:28.850</time></trkpt><trkpt lat="55.9327732" lon="49.1563845"><time>2023-06-03T10:47:31.823</time></trkpt><trkpt lat="55.9327769" lon="49.1563829"><time>2023-06-03T10:47:32.790</time></trkpt><trkpt lat="55.9327372" lon="49.1563368"><time>2023-06-03T10:47:44.793</time></trkpt><trkpt lat="55.9326805" lon="49.1563258"><time>2023-06-03T10:47:46.793</time></trkpt><trkpt lat="55.9326133" lon="49.1563217"><time>2023-06-03T10:47:48.787</time></trkpt><trkpt lat="55.9325452" lon="49.1563269"><time>2023-06-03T10:47:50.790</time></trkpt><trkpt lat="55.9324752" lon="49.1563266"><time>2023-06-03T10:47:52.787</time></trkpt><trkpt lat="55.9324009" lon="49.1563156"><time>2023-06-03T10:47:54.790</time></trkpt><trkpt lat="55.9323283" lon="49.1562984"><time>2023-06-03T10:47:56.793</time></trkpt><trkpt lat="55.9322497" lon="49.1562893"><time>2023-06-03T10:47:58.787</time></trkpt><trkpt lat="55.9321760" lon="49.1562827"><time>2023-06-03T10:48:00.790</time></trkpt><trkpt lat="55.9320992" lon="49.1562876"><time>2023-06-03T10:48:02.790</time></trkpt><trkpt lat="55.9320213" lon="49.1562949"><time>2023-06-03T10:48:04.803</time></trkpt><trkpt lat="55.9319370" lon="49.1562939"><time>2023-06-03T10:48:06.797</time></trkpt><trkpt lat="55.9318768" lon="49.1563028"><time>2023-06-03T10:48:07.793</time></trkpt><trkpt lat="55.9318283" lon="49.1562913"><time>2023-06-03T10:48:08.790</time></trkpt><trkpt lat="55.9317780" lon="49.1562926"><time>2023-06-03T10:48:09.817</time></trkpt><trkpt lat="55.9317323" lon="49.1562850"><time>2023-06-03T10:48:10.787</time></trkpt><trkpt lat="55.9316817" lon="49.1562819"><time>2023-06-03T10:48:11.793</time></trkpt><trkpt lat="55.9316326" lon="49.1562834"><time>2023-06-03T10:48:12.790</time></trkpt><trkpt lat="55.9315811" lon="49.1562673"><time>2023-06-03T10:48:13.800</time></trkpt><trkpt lat="55.9315286" lon="49.1562826"><time>2023-06-03T10:48:14.793</time></trkpt><trkpt lat="55.9314727" lon="49.1562792"><time>2023-06-03T10:48:15.800</time></trkpt><trkpt lat="55.9314192" lon="49.1562730"><time>2023-06-03T10:48:16.793</time></trkpt><trkpt lat="55.9313702" lon="49.1562747"><time>2023-06-03T10:48:17.790</time></trkpt><trkpt lat="55.9313218" lon="49.1562744"><time>2023-06-03T10:48:18.787</time></trkpt><trkpt lat="55.9312665" lon="49.1562675"><time>2023-06-03T10:48:19.790</time></trkpt><trkpt lat="55.9312129" lon="49.1562600"><time>2023-06-03T10:48:20.790</time></trkpt><trkpt lat="55.9311539" lon="49.1562430"><time>2023-06-03T10:48:21.817</time></trkpt><trkpt lat="55.9310963" lon="49.1562426"><time>2023-06-03T10:48:22.803</time></trkpt><trkpt lat="55.9310421" lon="49.1563058"><time>2023-06-03T10:48:23.787</time></trkpt><trkpt lat="55.9309723" lon="49.1563700"><time>2023-06-03T10:48:25.807</time></trkpt><trkpt lat="55.9309092" lon="49.1564428"><time>2023-06-03T10:48:27.807</time></trkpt><trkpt lat="55.9308403" lon="49.1564353"><time>2023-06-03T10:48:30.797</time></trkpt><trkpt lat="55.9307856" lon="49.1564440"><time>2023-06-03T10:48:32.797</time></trkpt><trkpt lat="55.9307360" lon="49.1565369"><time>2023-06-03T10:48:34.787</time></trkpt><trkpt lat="55.9307137" lon="49.1566505"><time>2023-06-03T10:48:36.787</time></trkpt><trkpt lat="55.9306857" lon="49.1567761"><time>2023-06-03T10:48:38.787</time></trkpt><trkpt lat="55.9306558" lon="49.1568719"><time>2023-06-03T10:48:40.790</time></trkpt><trkpt lat="55.9306501" lon="49.1569859"><time>2023-06-03T10:48:56.787</time></trkpt><trkpt lat="55.9306156" lon="49.1571126"><time>2023-06-03T10:48:58.797</time></trkpt><trkpt lat="55.9305746" lon="49.1572519"><time>2023-06-03T10:49:00.793</time></trkpt><trkpt lat="55.9305503" lon="49.1573224"><time>2023-06-03T10:49:01.797</time></trkpt><trkpt lat="55.9305242" lon="49.1573919"><time>2023-06-03T10:49:02.790</time></trkpt><trkpt lat="55.9304956" lon="49.1574603"><time>2023-06-03T10:49:03.807</time></trkpt><trkpt lat="55.9304412" lon="49.1575371"><time>2023-06-03T10:49:04.790</time></trkpt><trkpt lat="55.9304012" lon="49.1576041"><time>2023-06-03T10:49:05.790</time></trkpt><trkpt lat="55.9303661" lon="49.1576798"><time>2023-06-03T10:49:06.787</time></trkpt><trkpt lat="55.9303287" lon="49.1577569"><time>2023-06-03T10:49:07.790</time></trkpt><trkpt lat="55.9302810" lon="49.1578162"><time>2023-06-03T10:49:08.790</time></trkpt><trkpt lat="55.9302407" lon="49.1578984"><time>2023-06-03T10:49:09.830</time></trkpt><trkpt lat="55.9301967" lon="49.1579829"><time>2023-06-03T10:49:10.787</time></trkpt><trkpt lat="55.9301581" lon="49.1580536"><time>2023-06-03T10:49:11.793</time></trkpt><trkpt lat="55.9301075" lon="49.1581224"><time>2023-06-03T10:49:12.797</time></trkpt><trkpt lat="55.9300597" lon="49.1581708"><time>2023-06-03T10:49:13.790</time></trkpt><trkpt lat="55.9300237" lon="49.1582518"><time>2023-06-03T10:49:14.797</time></trkpt><trkpt lat="55.9299904" lon="49.1583241"><time>2023-06-03T10:49:15.817</time></trkpt><trkpt lat="55.9299326" lon="49.1583834"><time>2023-06-03T10:49:16.787</time></trkpt><trkpt lat="55.9298942" lon="49.1584470"><time>2023-06-03T10:49:17.793</time></trkpt><trkpt lat="55.9298260" lon="49.1585419"><time>2023-06-03T10:49:18.803</time></trkpt><trkpt lat="55.9297728" lon="49.1585973"><time>2023-06-03T10:49:19.787</time></trkpt><trkpt lat="55.9297388" lon="49.1586591"><time>2023-06-03T10:49:20.790</time></trkpt><trkpt lat="55.9297107" lon="49.1587266"><time>2023-06-03T10:49:21.793</time></trkpt><trkpt lat="55.9296867" lon="49.1588160"><time>2023-06-03T10:49:22.797</time></trkpt><trkpt lat="55.9296765" lon="49.1589107"><time>2023-06-03T10:49:23.800</time></trkpt><trkpt lat="55.9296614" lon="49.1589988"><time>2023-06-03T10:49:24.787</time></trkpt><trkpt lat="55.9296533" lon="49.1590832"><time>2023-06-03T10:49:25.797</time></trkpt><trkpt lat="55.9296512" lon="49.1591829"><time>2023-06-03T10:49:26.810</time></trkpt><trkpt lat="55.9296524" lon="49.1592841"><time>2023-06-03T10:49:27.803</time></trkpt><trkpt lat="55.9296979" lon="49.1593252"><time>2023-06-03T10:49:28.787</time></trkpt><trkpt lat="55.9297074" lon="49.1594095"><time>2023-06-03T10:49:29.803</time></trkpt><trkpt lat="55.9297228" lon="49.1594872"><time>2023-06-03T10:49:30.790</time></trkpt><trkpt lat="55.9297351" lon="49.1595716"><time>2023-06-03T10:49:31.803</time></trkpt><trkpt lat="55.9297508" lon="49.1596712"><time>2023-06-03T10:49:32.827</time></trkpt><trkpt lat="55.9297931" lon="49.1598256"><time>2023-06-03T10:49:34.793</time></trkpt><trkpt lat="55.9297933" lon="49.1599297"><time>2023-06-03T10:49:35.793</time></trkpt><trkpt lat="55.9298527" lon="49.1599628"><time>2023-06-03T10:49:36.790</time></trkpt><trkpt lat="55.9298597" lon="49.1601295"><time>2023-06-03T10:49:38.803</time></trkpt><trkpt lat="55.9298728" lon="49.1602332"><time>2023-06-03T10:49:39.800</time></trkpt><trkpt lat="55.9298578" lon="49.1603928"><time>2023-06-03T10:49:40.793</time></trkpt><trkpt lat="55.9298642" lon="49.1605286"><time>2023-06-03T10:49:41.797</time></trkpt><trkpt lat="55.9299290" lon="49.1605907"><time>2023-06-03T10:49:43.797</time></trkpt><trkpt lat="55.9299761" lon="49.1606168"><time>2023-06-03T10:49:44.827</time></trkpt><trkpt lat="55.9299939" lon="49.1606905"><time>2023-06-03T10:49:45.790</time></trkpt><trkpt lat="55.9300058" lon="49.1608109"><time>2023-06-03T10:49:47.790</time></trkpt><trkpt lat="55.9300367" lon="49.1608716"><time>2023-06-03T10:49:48.787</time></trkpt><trkpt lat="55.9300471" lon="49.1609497"><time>2023-06-03T10:49:49.797</time></trkpt><trkpt lat="55.9300636" lon="49.1610340"><time>2023-06-03T10:49:50.813</time></trkpt><trkpt lat="55.9301120" lon="49.1611393"><time>2023-06-03T10:49:52.790</time></trkpt><trkpt lat="55.9301228" lon="49.1612266"><time>2023-06-03T10:49:53.813</time></trkpt><trkpt lat="55.9301617" lon="49.1613472"><time>2023-06-03T10:49:55.797</time></trkpt><trkpt lat="55.9301974" lon="49.1614850"><time>2023-06-03T10:49:57.793</time></trkpt><trkpt lat="55.9302250" lon="49.1616330"><time>2023-06-03T10:49:59.797</time></trkpt><trkpt lat="55.9302354" lon="49.1617160"><time>2023-06-03T10:50:00.787</time></trkpt><trkpt lat="55.9302434" lon="49.1617991"><time>2023-06-03T10:50:01.793</time></trkpt><trkpt lat="55.9302499" lon="49.1618818"><time>2023-06-03T10:50:02.810</time></trkpt><trkpt lat="55.9302569" lon="49.1619611"><time>2023-06-03T10:50:03.790</time></trkpt><trkpt lat="55.9302692" lon="49.1620399"><time>2023-06-03T10:50:04.790</time></trkpt><trkpt lat="55.9302890" lon="49.1621140"><time>2023-06-03T10:50:05.793</time></trkpt><trkpt lat="55.9303097" lon="49.1621856"><time>2023-06-03T10:50:06.790</time></trkpt><trkpt lat="55.9303312" lon="49.1622580"><time>2023-06-03T10:50:07.790</time></trkpt><trkpt lat="55.9303536" lon="49.1623671"><time>2023-06-03T10:50:08.827</time></trkpt><trkpt lat="55.9303774" lon="49.1624421"><time>2023-06-03T10:50:09.787</time></trkpt><trkpt lat="55.9304095" lon="49.1625011"><time>2023-06-03T10:50:10.793</time></trkpt><trkpt lat="55.9304321" lon="49.1625775"><time>2023-06-03T10:50:11.790</time></trkpt><trkpt lat="55.9304982" lon="49.1626853"><time>2023-06-03T10:50:13.793</time></trkpt><trkpt lat="55.9305309" lon="49.1628240"><time>2023-06-03T10:50:15.787</time></trkpt><trkpt lat="55.9305406" lon="49.1629138"><time>2023-06-03T10:50:16.793</time></trkpt><trkpt lat="55.9305639" lon="49.1629849"><time>2023-06-03T10:50:17.793</time></trkpt><trkpt lat="55.9305944" lon="49.1631329"><time>2023-06-03T10:50:19.780</time></trkpt><trkpt lat="55.9306182" lon="49.1632077"><time>2023-06-03T10:50:20.820</time></trkpt><trkpt lat="55.9306828" lon="49.1633011"><time>2023-06-03T10:50:22.787</time></trkpt><trkpt lat="55.9307092" lon="49.1633732"><time>2023-06-03T10:50:23.800</time></trkpt><trkpt lat="55.9307747" lon="49.1634701"><time>2023-06-03T10:50:25.797</time></trkpt><trkpt lat="55.9308184" lon="49.1635302"><time>2023-06-03T10:50:26.807</time></trkpt><trkpt lat="55.9308496" lon="49.1636021"><time>2023-06-03T10:50:27.793</time></trkpt><trkpt lat="55.9308846" lon="49.1636744"><time>2023-06-03T10:50:28.800</time></trkpt><trkpt lat="55.9309291" lon="49.1637157"><time>2023-06-03T10:50:29.793</time></trkpt><trkpt lat="55.9309504" lon="49.1638077"><time>2023-06-03T10:50:30.787</time></trkpt><trkpt lat="55.9309882" lon="49.1638528"><time>2023-06-03T10:50:31.787</time></trkpt><trkpt lat="55.9310307" lon="49.1639159"><time>2023-06-03T10:50:32.797</time></trkpt><trkpt lat="55.9310470" lon="49.1639966"><time>2023-06-03T10:50:33.797</time></trkpt><trkpt lat="55.9310840" lon="49.1640459"><time>2023-06-03T10:50:34.790</time></trkpt><trkpt lat="55.9311413" lon="49.1640786"><time>2023-06-03T10:50:35.797</time></trkpt><trkpt lat="55.9311702" lon="49.1641547"><time>2023-06-03T10:50:36.790</time></trkpt><trkpt lat="55.9311864" lon="49.1642347"><time>2023-06-03T10:50:37.797</time></trkpt><trkpt lat="55.9312072" lon="49.1643178"><time>2023-06-03T10:50:38.800</time></trkpt><trkpt lat="55.9312426" lon="49.1643675"><time>2023-06-03T10:50:39.797</time></trkpt><trkpt lat="55.9312726" lon="49.1644334"><time>2023-06-03T10:50:40.787</time></trkpt><trkpt lat="55.9313269" lon="49.1645548"><time>2023-06-03T10:50:42.787</time></trkpt><trkpt lat="55.9313795" lon="49.1646747"><time>2023-06-03T10:50:44.827</time></trkpt><trkpt lat="55.9314230" lon="49.1647963"><time>2023-06-03T10:50:46.800</time></trkpt><trkpt lat="55.9314550" lon="49.1648563"><time>2023-06-03T10:50:47.797</time></trkpt><trkpt lat="55.9314837" lon="49.1649190"><time>2023-06-03T10:50:48.787</time></trkpt><trkpt lat="55.9315141" lon="49.1649837"><time>2023-06-03T10:50:49.790</time></trkpt><trkpt lat="55.9315443" lon="49.1650468"><time>2023-06-03T10:50:50.800</time></trkpt><trkpt lat="55.9315779" lon="49.1651111"><time>2023-06-03T10:50:51.797</time></trkpt><trkpt lat="55.9316109" lon="49.1651772"><time>2023-06-03T10:50:52.787</time></trkpt><trkpt lat="55.9316412" lon="49.1652421"><time>2023-06-03T10:50:53.790</time></trkpt><trkpt lat="55.9316707" lon="49.1653036"><time>2023-06-03T10:50:54.787</time></trkpt><trkpt lat="55.9317347" lon="49.1654178"><time>2023-06-03T10:50:56.810</time></trkpt><trkpt lat="55.9317982" lon="49.1655304"><time>2023-06-03T10:50:58.790</time></trkpt><trkpt lat="55.9318290" lon="49.1655918"><time>2023-06-03T10:50:59.797</time></trkpt><trkpt lat="55.9318573" lon="49.1656555"><time>2023-06-03T10:51:00.787</time></trkpt><trkpt lat="55.9318847" lon="49.1657224"><time>2023-06-03T10:51:01.810</time></trkpt><trkpt lat="55.9319269" lon="49.1658344"><time>2023-06-03T10:51:02.807</time></trkpt><trkpt lat="55.9319857" lon="49.1659625"><time>2023-06-03T10:51:04.797</time></trkpt><trkpt lat="55.9320265" lon="49.1661319"><time>2023-06-03T10:51:06.790</time></trkpt><trkpt lat="55.9320502" lon="49.1662170"><time>2023-06-03T10:51:07.790</time></trkpt><trkpt lat="55.9321408" lon="49.1663122"><time>2023-06-03T10:51:09.783</time></trkpt><trkpt lat="55.9321961" lon="49.1663740"><time>2023-06-03T10:51:10.783</time></trkpt><trkpt lat="55.9322178" lon="49.1664492"><time>2023-06-03T10:51:11.797</time></trkpt><trkpt lat="55.9322608" lon="49.1665240"><time>2023-06-03T10:51:12.790</time></trkpt><trkpt lat="55.9322984" lon="49.1665768"><time>2023-06-03T10:51:13.797</time></trkpt><trkpt lat="55.9323465" lon="49.1666918"><time>2023-06-03T10:51:15.793</time></trkpt><trkpt lat="55.9324246" lon="49.1667911"><time>2023-06-03T10:51:17.797</time></trkpt><trkpt lat="55.9324557" lon="49.1668753"><time>2023-06-03T10:51:18.817</time></trkpt><trkpt lat="55.9324727" lon="49.1669501"><time>2023-06-03T10:51:19.787</time></trkpt><trkpt lat="55.9325275" lon="49.1670783"><time>2023-06-03T10:51:21.787</time></trkpt><trkpt lat="55.9325562" lon="49.1671469"><time>2023-06-03T10:51:22.793</time></trkpt><trkpt lat="55.9325939" lon="49.1672304"><time>2023-06-03T10:51:23.790</time></trkpt><trkpt lat="55.9326295" lon="49.1672878"><time>2023-06-03T10:51:24.783</time></trkpt><trkpt lat="55.9326810" lon="49.1673485"><time>2023-06-03T10:51:25.793</time></trkpt><trkpt lat="55.9327118" lon="49.1674279"><time>2023-06-03T10:51:26.787</time></trkpt><trkpt lat="55.9327393" lon="49.1675022"><time>2023-06-03T10:51:27.797</time></trkpt><trkpt lat="55.9327861" lon="49.1675620"><time>2023-06-03T10:51:28.797</time></trkpt><trkpt lat="55.9328294" lon="49.1676548"><time>2023-06-03T10:51:29.827</time></trkpt><trkpt lat="55.9328879" lon="49.1677751"><time>2023-06-03T10:51:31.790</time></trkpt><trkpt lat="55.9328993" lon="49.1678708"><time>2023-06-03T10:51:32.793</time></trkpt><trkpt lat="55.9329393" lon="49.1679102"><time>2023-06-03T10:51:33.797</time></trkpt><trkpt lat="55.9329568" lon="49.1679963"><time>2023-06-03T10:51:34.793</time></trkpt><trkpt lat="55.9329914" lon="49.1680803"><time>2023-06-03T10:51:35.807</time></trkpt><trkpt lat="55.9330399" lon="49.1681438"><time>2023-06-03T10:51:36.787</time></trkpt><trkpt lat="55.9330783" lon="49.1682640"><time>2023-06-03T10:51:38.790</time></trkpt><trkpt lat="55.9331420" lon="49.1683682"><time>2023-06-03T10:51:40.787</time></trkpt><trkpt lat="55.9331590" lon="49.1684441"><time>2023-06-03T10:51:41.837</time></trkpt><trkpt lat="55.9331808" lon="49.1685164"><time>2023-06-03T10:51:42.787</time></trkpt><trkpt lat="55.9332048" lon="49.1685842"><time>2023-06-03T10:51:43.797</time></trkpt><trkpt lat="55.9332357" lon="49.1686654"><time>2023-06-03T10:51:44.790</time></trkpt><trkpt lat="55.9332637" lon="49.1687409"><time>2023-06-03T10:51:45.787</time></trkpt><trkpt lat="55.9333308" lon="49.1688695"><time>2023-06-03T10:51:47.800</time></trkpt><trkpt lat="55.9333588" lon="49.1689609"><time>2023-06-03T10:51:48.790</time></trkpt><trkpt lat="55.9334148" lon="49.1691000"><time>2023-06-03T10:51:50.787</time></trkpt><trkpt lat="55.9334511" lon="49.1691898"><time>2023-06-03T10:51:51.790</time></trkpt><trkpt lat="55.9334784" lon="49.1692678"><time>2023-06-03T10:51:52.787</time></trkpt><trkpt lat="55.9335461" lon="49.1693698"><time>2023-06-03T10:51:54.793</time></trkpt><trkpt lat="55.9335769" lon="49.1694653"><time>2023-06-03T10:51:55.807</time></trkpt><trkpt lat="55.9336165" lon="49.1695162"><time>2023-06-03T10:51:56.780</time></trkpt><trkpt lat="55.9336610" lon="49.1695565"><time>2023-06-03T10:51:57.793</time></trkpt><trkpt lat="55.9337045" lon="49.1696046"><time>2023-06-03T10:51:58.793</time></trkpt><trkpt lat="55.9337436" lon="49.1696866"><time>2023-06-03T10:51:59.797</time></trkpt><trkpt lat="55.9337836" lon="49.1697523"><time>2023-06-03T10:52:00.790</time></trkpt><trkpt lat="55.9338089" lon="49.1698349"><time>2023-06-03T10:52:01.797</time></trkpt><trkpt lat="55.9338306" lon="49.1699054"><time>2023-06-03T10:52:02.793</time></trkpt><trkpt lat="55.9338765" lon="49.1699609"><time>2023-06-03T10:52:03.790</time></trkpt><trkpt lat="55.9339218" lon="49.1700446"><time>2023-06-03T10:52:04.793</time></trkpt><trkpt lat="55.9339352" lon="49.1701236"><time>2023-06-03T10:52:05.817</time></trkpt><trkpt lat="55.9339757" lon="49.1701635"><time>2023-06-03T10:52:06.790</time></trkpt><trkpt lat="55.9339830" lon="49.1702693"><time>2023-06-03T10:52:07.797</time></trkpt><trkpt lat="55.9340198" lon="49.1703156"><time>2023-06-03T10:52:08.793</time></trkpt><trkpt lat="55.9340459" lon="49.1703817"><time>2023-06-03T10:52:09.797</time></trkpt><trkpt lat="55.9340973" lon="49.1704495"><time>2023-06-03T10:52:10.793</time></trkpt><trkpt lat="55.9341343" lon="49.1705299"><time>2023-06-03T10:52:11.817</time></trkpt><trkpt lat="55.9341670" lon="49.1706103"><time>2023-06-03T10:52:12.787</time></trkpt><trkpt lat="55.9342004" lon="49.1707062"><time>2023-06-03T10:52:13.793</time></trkpt><trkpt lat="55.9342273" lon="49.1707846"><time>2023-06-03T10:52:14.800</time></trkpt><trkpt lat="55.9342723" lon="49.1708416"><time>2023-06-03T10:52:15.790</time></trkpt><trkpt lat="55.9343162" lon="49.1709910"><time>2023-06-03T10:52:17.827</time></trkpt><trkpt lat="55.9343302" lon="49.1710770"><time>2023-06-03T10:52:18.790</time></trkpt><trkpt lat="55.9343528" lon="49.1711480"><time>2023-06-03T10:52:19.783</time></trkpt><trkpt lat="55.9344098" lon="49.1712637"><time>2023-06-03T10:52:21.803</time></trkpt><trkpt lat="55.9344341" lon="49.1713425"><time>2023-06-03T10:52:22.803</time></trkpt><trkpt lat="55.9344597" lon="49.1714283"><time>2023-06-03T10:52:23.813</time></trkpt><trkpt lat="55.9344827" lon="49.1715027"><time>2023-06-03T10:52:24.787</time></trkpt><trkpt lat="55.9345226" lon="49.1715805"><time>2023-06-03T10:52:25.797</time></trkpt><trkpt lat="55.9345586" lon="49.1716405"><time>2023-06-03T10:52:26.783</time></trkpt><trkpt lat="55.9346101" lon="49.1717824"><time>2023-06-03T10:52:28.783</time></trkpt><trkpt lat="55.9346697" lon="49.1718372"><time>2023-06-03T10:52:29.820</time></trkpt><trkpt lat="55.9347061" lon="49.1719173"><time>2023-06-03T10:52:30.797</time></trkpt><trkpt lat="55.9347480" lon="49.1720051"><time>2023-06-03T10:52:31.787</time></trkpt><trkpt lat="55.9347691" lon="49.1720828"><time>2023-06-03T10:52:32.787</time></trkpt><trkpt lat="55.9348372" lon="49.1721990"><time>2023-06-03T10:52:34.787</time></trkpt><trkpt lat="55.9348909" lon="49.1723245"><time>2023-06-03T10:52:36.780</time></trkpt><trkpt lat="55.9349446" lon="49.1724267"><time>2023-06-03T10:52:38.790</time></trkpt><trkpt lat="55.9349735" lon="49.1724981"><time>2023-06-03T10:52:39.787</time></trkpt><trkpt lat="55.9350004" lon="49.1725723"><time>2023-06-03T10:52:40.797</time></trkpt><trkpt lat="55.9350274" lon="49.1726585"><time>2023-06-03T10:52:41.820</time></trkpt><trkpt lat="55.9350739" lon="49.1727172"><time>2023-06-03T10:52:42.793</time></trkpt><trkpt lat="55.9351298" lon="49.1728390"><time>2023-06-03T10:52:44.790</time></trkpt><trkpt lat="55.9351880" lon="49.1729549"><time>2023-06-03T10:52:46.783</time></trkpt><trkpt lat="55.9352225" lon="49.1730179"><time>2023-06-03T10:52:47.800</time></trkpt><trkpt lat="55.9352594" lon="49.1730857"><time>2023-06-03T10:52:48.787</time></trkpt><trkpt lat="55.9352784" lon="49.1731624"><time>2023-06-03T10:52:49.793</time></trkpt><trkpt lat="55.9353064" lon="49.1732269"><time>2023-06-03T10:52:50.790</time></trkpt><trkpt lat="55.9353320" lon="49.1733108"><time>2023-06-03T10:52:51.813</time></trkpt><trkpt lat="55.9353776" lon="49.1733849"><time>2023-06-03T10:52:52.787</time></trkpt><trkpt lat="55.9354271" lon="49.1734744"><time>2023-06-03T10:52:53.823</time></trkpt><trkpt lat="55.9354688" lon="49.1735276"><time>2023-06-03T10:52:54.783</time></trkpt><trkpt lat="55.9355090" lon="49.1736245"><time>2023-06-03T10:52:55.797</time></trkpt><trkpt lat="55.9355088" lon="49.1737485"><time>2023-06-03T10:52:56.787</time></trkpt><trkpt lat="55.9355369" lon="49.1738514"><time>2023-06-03T10:52:57.790</time></trkpt><trkpt lat="55.9355300" lon="49.1739496"><time>2023-06-03T10:52:58.787</time></trkpt><trkpt lat="55.9355326" lon="49.1740309"><time>2023-06-03T10:52:59.820</time></trkpt><trkpt lat="55.9355301" lon="49.1741150"><time>2023-06-03T10:53:00.787</time></trkpt><trkpt lat="55.9354664" lon="49.1742031"><time>2023-06-03T10:53:01.797</time></trkpt><trkpt lat="55.9354767" lon="49.1743226"><time>2023-06-03T10:53:03.787</time></trkpt><trkpt lat="55.9354674" lon="49.1744417"><time>2023-06-03T10:53:05.827</time></trkpt><trkpt lat="55.9354466" lon="49.1745234"><time>2023-06-03T10:53:06.797</time></trkpt><trkpt lat="55.9354196" lon="49.1746030"><time>2023-06-03T10:53:07.797</time></trkpt><trkpt lat="55.9353840" lon="49.1746757"><time>2023-06-03T10:53:08.787</time></trkpt><trkpt lat="55.9353668" lon="49.1747502"><time>2023-06-03T10:53:09.780</time></trkpt><trkpt lat="55.9353231" lon="49.1748809"><time>2023-06-03T10:53:11.893</time></trkpt><trkpt lat="55.9353164" lon="49.1749459"><time>2023-06-03T10:53:12.783</time></trkpt><trkpt lat="55.9352910" lon="49.1750703"><time>2023-06-03T10:53:14.787</time></trkpt><trkpt lat="55.9352696" lon="49.1751969"><time>2023-06-03T10:53:16.797</time></trkpt><trkpt lat="55.9352341" lon="49.1753380"><time>2023-06-03T10:53:18.790</time></trkpt><trkpt lat="55.9351972" lon="49.1754752"><time>2023-06-03T10:53:20.787</time></trkpt><trkpt lat="55.9351681" lon="49.1756098"><time>2023-06-03T10:53:22.793</time></trkpt><trkpt lat="55.9351393" lon="49.1757333"><time>2023-06-03T10:53:24.793</time></trkpt><trkpt lat="55.9351071" lon="49.1758642"><time>2023-06-03T10:53:26.787</time></trkpt><trkpt lat="55.9350801" lon="49.1759945"><time>2023-06-03T10:53:28.783</time></trkpt><trkpt lat="55.9350432" lon="49.1761322"><time>2023-06-03T10:53:30.787</time></trkpt><trkpt lat="55.9350058" lon="49.1762693"><time>2023-06-03T10:53:32.783</time></trkpt><trkpt lat="55.9349790" lon="49.1764046"><time>2023-06-03T10:53:34.780</time></trkpt><trkpt lat="55.9349596" lon="49.1765502"><time>2023-06-03T10:53:36.790</time></trkpt><trkpt lat="55.9349303" lon="49.1766973"><time>2023-06-03T10:53:38.797</time></trkpt><trkpt lat="55.9349081" lon="49.1767679"><time>2023-06-03T10:53:39.803</time></trkpt><trkpt lat="55.9348664" lon="49.1768961"><time>2023-06-03T10:53:41.813</time></trkpt><trkpt lat="55.9348266" lon="49.1770339"><time>2023-06-03T10:53:43.900</time></trkpt><trkpt lat="55.9348034" lon="49.1771101"><time>2023-06-03T10:53:44.787</time></trkpt><trkpt lat="55.9347799" lon="49.1771866"><time>2023-06-03T10:53:45.800</time></trkpt><trkpt lat="55.9347462" lon="49.1773284"><time>2023-06-03T10:53:47.810</time></trkpt><trkpt lat="55.9347481" lon="49.1774129"><time>2023-06-03T10:53:49.793</time></trkpt><trkpt lat="55.9347978" lon="49.1774358"><time>2023-06-03T10:53:51.787</time></trkpt><trkpt lat="55.9348967" lon="49.1774188"><time>2023-06-03T10:53:53.800</time></trkpt><trkpt lat="55.9349486" lon="49.1773963"><time>2023-06-03T10:53:54.783</time></trkpt><trkpt lat="55.9350274" lon="49.1773498"><time>2023-06-03T10:53:56.793</time></trkpt><trkpt lat="55.9351042" lon="49.1773172"><time>2023-06-03T10:53:58.820</time></trkpt><trkpt lat="55.9351739" lon="49.1773226"><time>2023-06-03T10:54:00.793</time></trkpt><trkpt lat="55.9352403" lon="49.1773613"><time>2023-06-03T10:54:02.787</time></trkpt><trkpt lat="55.9352844" lon="49.1773801"><time>2023-06-03T10:54:03.780</time></trkpt><trkpt lat="55.9353323" lon="49.1773902"><time>2023-06-03T10:54:04.830</time></trkpt><trkpt lat="55.9354138" lon="49.1773879"><time>2023-06-03T10:54:06.803</time></trkpt><trkpt lat="55.9354547" lon="49.1773840"><time>2023-06-03T10:54:07.790</time></trkpt><trkpt lat="55.9355217" lon="49.1773825"><time>2023-06-03T10:54:09.803</time></trkpt><trkpt lat="55.9355680" lon="49.1773850"><time>2023-06-03T10:54:10.807</time></trkpt><trkpt lat="55.9356165" lon="49.1773909"><time>2023-06-03T10:54:11.797</time></trkpt><trkpt lat="55.9356661" lon="49.1773913"><time>2023-06-03T10:54:12.790</time></trkpt><trkpt lat="55.9357117" lon="49.1773899"><time>2023-06-03T10:54:13.797</time></trkpt><trkpt lat="55.9357992" lon="49.1773984"><time>2023-06-03T10:54:15.843</time></trkpt><trkpt lat="55.9358306" lon="49.1774048"><time>2023-06-03T10:54:16.803</time></trkpt><trkpt lat="55.9358794" lon="49.1774157"><time>2023-06-03T10:54:18.803</time></trkpt><trkpt lat="55.9359341" lon="49.1774245"><time>2023-06-03T10:54:20.807</time></trkpt><trkpt lat="55.9360019" lon="49.1774289"><time>2023-06-03T10:54:22.783</time></trkpt><trkpt lat="55.9360871" lon="49.1774275"><time>2023-06-03T10:54:24.803</time></trkpt><trkpt lat="55.9360871" lon="49.1774275"><time>2023-06-03T10:54:24.890</time></trkpt><trkpt lat="55.9361538" lon="49.1774342"><time>2023-06-03T10:54:26.813</time></trkpt><trkpt lat="55.9361868" lon="49.1774375"><time>2023-06-03T10:54:27.803</time></trkpt><trkpt lat="55.9361281" lon="49.1773820"><time>2023-06-03T10:55:35.800</time></trkpt><trkpt lat="55.9360778" lon="49.1773575"><time>2023-06-03T10:55:37.793</time></trkpt><trkpt lat="55.9360130" lon="49.1773488"><time>2023-06-03T10:55:40.797</time></trkpt><trkpt lat="55.9359573" lon="49.1773415"><time>2023-06-03T10:55:42.797</time></trkpt><trkpt lat="55.9358972" lon="49.1773259"><time>2023-06-03T10:55:44.800</time></trkpt><trkpt lat="55.9358334" lon="49.1773190"><time>2023-06-03T10:55:48.790</time></trkpt><trkpt lat="55.9357807" lon="49.1773142"><time>2023-06-03T10:55:50.807</time></trkpt><trkpt lat="55.9357212" lon="49.1773140"><time>2023-06-03T10:55:52.783</time></trkpt><trkpt lat="55.9356525" lon="49.1772968"><time>2023-06-03T10:55:54.780</time></trkpt><trkpt lat="55.9355801" lon="49.1772744"><time>2023-06-03T10:55:56.817</time></trkpt><trkpt lat="55.9355030" lon="49.1772559"><time>2023-06-03T10:55:58.793</time></trkpt><trkpt lat="55.9354209" lon="49.1772458"><time>2023-06-03T10:56:00.793</time></trkpt><trkpt lat="55.9353433" lon="49.1772397"><time>2023-06-03T10:56:02.807</time></trkpt><trkpt lat="55.9352762" lon="49.1772267"><time>2023-06-03T10:56:04.787</time></trkpt><trkpt lat="55.9352085" lon="49.1772152"><time>2023-06-03T10:56:06.787</time></trkpt><trkpt lat="55.9351472" lon="49.1772080"><time>2023-06-03T10:56:08.790</time></trkpt><trkpt lat="55.9351015" lon="49.1772214"><time>2023-06-03T10:56:10.790</time></trkpt><trkpt lat="55.9350648" lon="49.1772901"><time>2023-06-03T10:56:13.820</time></trkpt><trkpt lat="55.9350593" lon="49.1774024"><time>2023-06-03T10:56:16.787</time></trkpt><trkpt lat="55.9350498" lon="49.1775155"><time>2023-06-03T10:56:20.783</time></trkpt><trkpt lat="55.9350552" lon="49.1776038"><time>2023-06-03T10:56:22.787</time></trkpt><trkpt lat="55.9350659" lon="49.1776917"><time>2023-06-03T10:56:24.797</time></trkpt><trkpt lat="55.9350756" lon="49.1777784"><time>2023-06-03T10:56:26.793</time></trkpt><trkpt lat="55.9350832" lon="49.1778576"><time>2023-06-03T10:56:28.797</time></trkpt><trkpt lat="55.9351151" lon="49.1779518"><time>2023-06-03T10:56:31.793</time></trkpt><trkpt lat="55.9351448" lon="49.1780555"><time>2023-06-03T10:56:34.783</time></trkpt><trkpt lat="55.9351661" lon="49.1781596"><time>2023-06-03T10:56:36.807</time></trkpt><trkpt lat="55.9351887" lon="49.1782591"><time>2023-06-03T10:56:38.790</time></trkpt><trkpt lat="55.9352029" lon="49.1783589"><time>2023-06-03T10:56:40.790</time></trkpt><trkpt lat="55.9352083" lon="49.1784934"><time>2023-06-03T10:56:42.797</time></trkpt><trkpt lat="55.9352244" lon="49.1786199"><time>2023-06-03T10:56:44.787</time></trkpt><trkpt lat="55.9352539" lon="49.1787323"><time>2023-06-03T10:56:46.793</time></trkpt><trkpt lat="55.9352843" lon="49.1788433"><time>2023-06-03T10:56:48.797</time></trkpt><trkpt lat="55.9353134" lon="49.1789202"><time>2023-06-03T10:56:50.787</time></trkpt><trkpt lat="55.9353615" lon="49.1789850"><time>2023-06-03T10:56:52.793</time></trkpt><trkpt lat="55.9354084" lon="49.1790312"><time>2023-06-03T10:56:54.790</time></trkpt><trkpt lat="55.9354600" lon="49.1790690"><time>2023-06-03T10:56:56.800</time></trkpt><trkpt lat="55.9355014" lon="49.1791082"><time>2023-06-03T10:56:58.790</time></trkpt><trkpt lat="55.9355447" lon="49.1791551"><time>2023-06-03T10:57:00.787</time></trkpt><trkpt lat="55.9355851" lon="49.1792159"><time>2023-06-03T10:57:02.793</time></trkpt><trkpt lat="55.9356283" lon="49.1792852"><time>2023-06-03T10:57:04.800</time></trkpt><trkpt lat="55.9356917" lon="49.1793789"><time>2023-06-03T10:57:06.787</time></trkpt><trkpt lat="55.9357290" lon="49.1794388"><time>2023-06-03T10:57:07.790</time></trkpt><trkpt lat="55.9357619" lon="49.1794991"><time>2023-06-03T10:57:08.783</time></trkpt><trkpt lat="55.9358039" lon="49.1795835"><time>2023-06-03T10:57:10.793</time></trkpt><trkpt lat="55.9358387" lon="49.1796796"><time>2023-06-03T10:57:12.793</time></trkpt><trkpt lat="55.9358823" lon="49.1797884"><time>2023-06-03T10:57:14.790</time></trkpt><trkpt lat="55.9359153" lon="49.1798749"><time>2023-06-03T10:57:16.780</time></trkpt><trkpt lat="55.9359495" lon="49.1799420"><time>2023-06-03T10:57:23.813</time></trkpt><trkpt lat="55.9359915" lon="49.1799840"><time>2023-06-03T10:57:56.790</time></trkpt><trkpt lat="55.9360387" lon="49.1800238"><time>2023-06-03T10:58:00.800</time></trkpt><trkpt lat="55.9361031" lon="49.1800803"><time>2023-06-03T10:58:02.780</time></trkpt><trkpt lat="55.9361533" lon="49.1801279"><time>2023-06-03T10:58:04.827</time></trkpt><trkpt lat="55.9362025" lon="49.1801802"><time>2023-06-03T10:58:06.790</time></trkpt><trkpt lat="55.9362619" lon="49.1802311"><time>2023-06-03T10:58:08.797</time></trkpt><trkpt lat="55.9363312" lon="49.1802763"><time>2023-06-03T10:58:10.797</time></trkpt><trkpt lat="55.9364031" lon="49.1803229"><time>2023-06-03T10:58:12.790</time></trkpt><trkpt lat="55.9364579" lon="49.1803843"><time>2023-06-03T10:58:14.777</time></trkpt><trkpt lat="55.9365248" lon="49.1804845"><time>2023-06-03T10:58:16.823</time></trkpt><trkpt lat="55.9365677" lon="49.1805428"><time>2023-06-03T10:58:17.793</time></trkpt><trkpt lat="55.9366072" lon="49.1806017"><time>2023-06-03T10:58:18.790</time></trkpt><trkpt lat="55.9366414" lon="49.1806739"><time>2023-06-03T10:58:19.790</time></trkpt><trkpt lat="55.9366666" lon="49.1807446"><time>2023-06-03T10:58:20.797</time></trkpt><trkpt lat="55.9366903" lon="49.1808952"><time>2023-06-03T10:58:22.810</time></trkpt><trkpt lat="55.9367034" lon="49.1809728"><time>2023-06-03T10:58:23.787</time></trkpt><trkpt lat="55.9367173" lon="49.1810504"><time>2023-06-03T10:58:24.787</time></trkpt><trkpt lat="55.9367371" lon="49.1811949"><time>2023-06-03T10:58:26.790</time></trkpt><trkpt lat="55.9367382" lon="49.1813255"><time>2023-06-03T10:58:28.813</time></trkpt><trkpt lat="55.9367200" lon="49.1814779"><time>2023-06-03T10:58:30.790</time></trkpt><trkpt lat="55.9366791" lon="49.1816140"><time>2023-06-03T10:58:32.790</time></trkpt><trkpt lat="55.9366385" lon="49.1817478"><time>2023-06-03T10:58:34.810</time></trkpt><trkpt lat="55.9366049" lon="49.1818923"><time>2023-06-03T10:58:36.797</time></trkpt><trkpt lat="55.9365634" lon="49.1820184"><time>2023-06-03T10:58:38.790</time></trkpt><trkpt lat="55.9365263" lon="49.1821278"><time>2023-06-03T10:58:40.803</time></trkpt><trkpt lat="55.9365182" lon="49.1822304"><time>2023-06-03T10:58:42.790</time></trkpt><trkpt lat="55.9365410" lon="49.1823215"><time>2023-06-03T10:58:44.807</time></trkpt><trkpt lat="55.9365708" lon="49.1824018"><time>2023-06-03T10:58:46.793</time></trkpt><trkpt lat="55.9366172" lon="49.1825155"><time>2023-06-03T10:58:48.797</time></trkpt><trkpt lat="55.9366431" lon="49.1826597"><time>2023-06-03T10:58:50.820</time></trkpt><trkpt lat="55.9366427" lon="49.1827891"><time>2023-06-03T10:58:52.797</time></trkpt><trkpt lat="55.9366214" lon="49.1829140"><time>2023-06-03T10:58:54.793</time></trkpt><trkpt lat="55.9365893" lon="49.1830388"><time>2023-06-03T10:58:56.810</time></trkpt><trkpt lat="55.9365536" lon="49.1831755"><time>2023-06-03T10:58:58.787</time></trkpt><trkpt lat="55.9365342" lon="49.1833064"><time>2023-06-03T10:59:00.807</time></trkpt><trkpt lat="55.9365341" lon="49.1834011"><time>2023-06-03T10:59:02.823</time></trkpt><trkpt lat="55.9365231" lon="49.1834810"><time>2023-06-03T10:59:08.823</time></trkpt><trkpt lat="55.9364853" lon="49.1835683"><time>2023-06-03T10:59:16.787</time></trkpt><trkpt lat="55.9364435" lon="49.1836837"><time>2023-06-03T10:59:18.787</time></trkpt><trkpt lat="55.9364158" lon="49.1837598"><time>2023-06-03T10:59:19.783</time></trkpt><trkpt lat="55.9363837" lon="49.1838419"><time>2023-06-03T10:59:20.797</time></trkpt><trkpt lat="55.9363528" lon="49.1839160"><time>2023-06-03T10:59:21.800</time></trkpt><trkpt lat="55.9363242" lon="49.1839850"><time>2023-06-03T10:59:22.787</time></trkpt><trkpt lat="55.9362951" lon="49.1840459"><time>2023-06-03T10:59:23.787</time></trkpt><trkpt lat="55.9362400" lon="49.1841613"><time>2023-06-03T10:59:25.787</time></trkpt><trkpt lat="55.9361938" lon="49.1842728"><time>2023-06-03T10:59:27.800</time></trkpt><trkpt lat="55.9361481" lon="49.1843732"><time>2023-06-03T10:59:29.787</time></trkpt><trkpt lat="55.9361070" lon="49.1845065"><time>2023-06-03T10:59:31.787</time></trkpt><trkpt lat="55.9360814" lon="49.1846646"><time>2023-06-03T10:59:33.787</time></trkpt><trkpt lat="55.9360780" lon="49.1847453"><time>2023-06-03T10:59:34.790</time></trkpt><trkpt lat="55.9360830" lon="49.1848754"><time>2023-06-03T10:59:36.783</time></trkpt><trkpt lat="55.9360902" lon="49.1849548"><time>2023-06-03T10:59:37.790</time></trkpt><trkpt lat="55.9361055" lon="49.1850401"><time>2023-06-03T10:59:38.827</time></trkpt><trkpt lat="55.9361279" lon="49.1851144"><time>2023-06-03T10:59:39.797</time></trkpt><trkpt lat="55.9361561" lon="49.1851838"><time>2023-06-03T10:59:40.783</time></trkpt><trkpt lat="55.9362157" lon="49.1852916"><time>2023-06-03T10:59:42.797</time></trkpt><trkpt lat="55.9362726" lon="49.1853991"><time>2023-06-03T10:59:44.800</time></trkpt><trkpt lat="55.9363163" lon="49.1855282"><time>2023-06-03T10:59:46.787</time></trkpt><trkpt lat="55.9363376" lon="49.1856064"><time>2023-06-03T10:59:47.813</time></trkpt><trkpt lat="55.9363671" lon="49.1856777"><time>2023-06-03T10:59:48.787</time></trkpt><trkpt lat="55.9363917" lon="49.1857480"><time>2023-06-03T10:59:49.787</time></trkpt><trkpt lat="55.9364159" lon="49.1858249"><time>2023-06-03T10:59:50.797</time></trkpt><trkpt lat="55.9364218" lon="49.1860120"><time>2023-06-03T10:59:51.787</time></trkpt><trkpt lat="55.9364195" lon="49.1861294"><time>2023-06-03T10:59:52.800</time></trkpt><trkpt lat="55.9364233" lon="49.1862356"><time>2023-06-03T10:59:53.800</time></trkpt><trkpt lat="55.9364796" lon="49.1862820"><time>2023-06-03T10:59:54.783</time></trkpt><trkpt lat="55.9365030" lon="49.1863691"><time>2023-06-03T10:59:55.797</time></trkpt><trkpt lat="55.9364836" lon="49.1865061"><time>2023-06-03T10:59:56.807</time></trkpt><trkpt lat="55.9365259" lon="49.1865521"><time>2023-06-03T10:59:57.793</time></trkpt><trkpt lat="55.9365617" lon="49.1867074"><time>2023-06-03T10:59:59.790</time></trkpt><trkpt lat="55.9365690" lon="49.1868513"><time>2023-06-03T11:00:01.790</time></trkpt><trkpt lat="55.9365939" lon="49.1869682"><time>2023-06-03T11:00:03.797</time></trkpt><trkpt lat="55.9366236" lon="49.1870509"><time>2023-06-03T11:00:04.800</time></trkpt><trkpt lat="55.9366375" lon="49.1871307"><time>2023-06-03T11:00:05.793</time></trkpt><trkpt lat="55.9366956" lon="49.1872840"><time>2023-06-03T11:00:07.797</time></trkpt><trkpt lat="55.9367369" lon="49.1873417"><time>2023-06-03T11:00:08.787</time></trkpt><trkpt lat="55.9367619" lon="49.1875137"><time>2023-06-03T11:00:10.793</time></trkpt><trkpt lat="55.9367860" lon="49.1875910"><time>2023-06-03T11:00:11.793</time></trkpt><trkpt lat="55.9368069" lon="49.1876734"><time>2023-06-03T11:00:12.793</time></trkpt><trkpt lat="55.9368148" lon="49.1877789"><time>2023-06-03T11:00:13.793</time></trkpt><trkpt lat="55.9368624" lon="49.1877880"><time>2023-06-03T11:00:16.787</time></trkpt><trkpt lat="55.9369171" lon="49.1878274"><time>2023-06-03T11:00:17.797</time></trkpt><trkpt lat="55.9369716" lon="49.1878793"><time>2023-06-03T11:00:19.793</time></trkpt><trkpt lat="55.9370268" lon="49.1879129"><time>2023-06-03T11:00:21.793</time></trkpt><trkpt lat="55.9370798" lon="49.1879597"><time>2023-06-03T11:00:24.787</time></trkpt><trkpt lat="55.9371328" lon="49.1880177"><time>2023-06-03T11:00:28.790</time></trkpt><trkpt lat="55.9371864" lon="49.1881034"><time>2023-06-03T11:00:31.793</time></trkpt><trkpt lat="55.9372282" lon="49.1881668"><time>2023-06-03T11:00:33.793</time></trkpt><trkpt lat="55.9372679" lon="49.1882290"><time>2023-06-03T11:00:35.820</time></trkpt><trkpt lat="55.9373112" lon="49.1883007"><time>2023-06-03T11:00:37.793</time></trkpt><trkpt lat="55.9373565" lon="49.1883875"><time>2023-06-03T11:00:39.793</time></trkpt><trkpt lat="55.9374263" lon="49.1884623"><time>2023-06-03T11:00:41.813</time></trkpt><trkpt lat="55.9374798" lon="49.1884851"><time>2023-06-03T11:00:42.787</time></trkpt><trkpt lat="55.9375334" lon="49.1884977"><time>2023-06-03T11:00:43.790</time></trkpt><trkpt lat="55.9376163" lon="49.1884699"><time>2023-06-03T11:00:45.793</time></trkpt><trkpt lat="55.9376968" lon="49.1884071"><time>2023-06-03T11:00:47.820</time></trkpt><trkpt lat="55.9377747" lon="49.1883698"><time>2023-06-03T11:00:49.790</time></trkpt><trkpt lat="55.9378339" lon="49.1883998"><time>2023-06-03T11:00:51.793</time></trkpt><trkpt lat="55.9378839" lon="49.1884658"><time>2023-06-03T11:00:53.800</time></trkpt><trkpt lat="55.9379586" lon="49.1885441"><time>2023-06-03T11:00:55.797</time></trkpt><trkpt lat="55.9380042" lon="49.1885786"><time>2023-06-03T11:00:56.787</time></trkpt><trkpt lat="55.9380478" lon="49.1886091"><time>2023-06-03T11:01:00.837</time></trkpt><trkpt lat="55.9381157" lon="49.1886619"><time>2023-06-03T11:01:00.853</time></trkpt><trkpt lat="55.9381741" lon="49.1887284"><time>2023-06-03T11:01:01.797</time></trkpt><trkpt lat="55.9382341" lon="49.1888437"><time>2023-06-03T11:01:03.787</time></trkpt><trkpt lat="55.9382660" lon="49.1889120"><time>2023-06-03T11:01:04.790</time></trkpt><trkpt lat="55.9382984" lon="49.1889879"><time>2023-06-03T11:01:05.787</time></trkpt><trkpt lat="55.9383238" lon="49.1890649"><time>2023-06-03T11:01:06.780</time></trkpt><trkpt lat="55.9383499" lon="49.1892166"><time>2023-06-03T11:01:08.797</time></trkpt><trkpt lat="55.9383590" lon="49.1893156"><time>2023-06-03T11:01:09.797</time></trkpt><trkpt lat="55.9383674" lon="49.1894151"><time>2023-06-03T11:01:10.790</time></trkpt><trkpt lat="55.9383719" lon="49.1895158"><time>2023-06-03T11:01:11.820</time></trkpt><trkpt lat="55.9383765" lon="49.1896052"><time>2023-06-03T11:01:12.790</time></trkpt><trkpt lat="55.9383819" lon="49.1896872"><time>2023-06-03T11:01:13.817</time></trkpt><trkpt lat="55.9383998" lon="49.1898243"><time>2023-06-03T11:01:15.820</time></trkpt><trkpt lat="55.9384277" lon="49.1899430"><time>2023-06-03T11:01:17.787</time></trkpt><trkpt lat="55.9384668" lon="49.1900382"><time>2023-06-03T11:01:19.793</time></trkpt><trkpt lat="55.9385264" lon="49.1901480"><time>2023-06-03T11:01:21.793</time></trkpt><trkpt lat="55.9385590" lon="49.1902111"><time>2023-06-03T11:01:22.827</time></trkpt><trkpt lat="55.9385830" lon="49.1902861"><time>2023-06-03T11:01:23.790</time></trkpt><trkpt lat="55.9386008" lon="49.1903677"><time>2023-06-03T11:01:24.790</time></trkpt><trkpt lat="55.9386081" lon="49.1904473"><time>2023-06-03T11:01:25.793</time></trkpt><trkpt lat="55.9385997" lon="49.1906096"><time>2023-06-03T11:01:27.793</time></trkpt><trkpt lat="55.9385883" lon="49.1907033"><time>2023-06-03T11:01:28.803</time></trkpt><trkpt lat="55.9385172" lon="49.1909269"><time>2023-06-03T11:01:29.800</time></trkpt><trkpt lat="55.9385497" lon="49.1910090"><time>2023-06-03T11:01:30.783</time></trkpt><trkpt lat="55.9386187" lon="49.1910401"><time>2023-06-03T11:01:31.797</time></trkpt><trkpt lat="55.9386540" lon="49.1911002"><time>2023-06-03T11:01:32.790</time></trkpt><trkpt lat="55.9386895" lon="49.1911913"><time>2023-06-03T11:01:33.797</time></trkpt><trkpt lat="55.9387148" lon="49.1912867"><time>2023-06-03T11:01:34.837</time></trkpt><trkpt lat="55.9387178" lon="49.1913911"><time>2023-06-03T11:01:35.787</time></trkpt><trkpt lat="55.9387221" lon="49.1914855"><time>2023-06-03T11:01:36.793</time></trkpt><trkpt lat="55.9387333" lon="49.1915852"><time>2023-06-03T11:01:37.800</time></trkpt><trkpt lat="55.9387437" lon="49.1916722"><time>2023-06-03T11:01:38.790</time></trkpt><trkpt lat="55.9387726" lon="49.1917422"><time>2023-06-03T11:01:39.807</time></trkpt><trkpt lat="55.9388107" lon="49.1918537"><time>2023-06-03T11:01:41.793</time></trkpt><trkpt lat="55.9388346" lon="49.1919301"><time>2023-06-03T11:01:42.783</time></trkpt><trkpt lat="55.9388949" lon="49.1919563"><time>2023-06-03T11:01:44.787</time></trkpt><trkpt lat="55.9389551" lon="49.1919753"><time>2023-06-03T11:01:47.797</time></trkpt><trkpt lat="55.9390082" lon="49.1919846"><time>2023-06-03T11:01:48.797</time></trkpt><trkpt lat="55.9390574" lon="49.1919570"><time>2023-06-03T11:01:51.787</time></trkpt><trkpt lat="55.9391021" lon="49.1919076"><time>2023-06-03T11:01:53.793</time></trkpt><trkpt lat="55.9391684" lon="49.1918609"><time>2023-06-03T11:01:55.803</time></trkpt><trkpt lat="55.9392394" lon="49.1918583"><time>2023-06-03T11:01:57.790</time></trkpt><trkpt lat="55.9392934" lon="49.1919013"><time>2023-06-03T11:01:59.790</time></trkpt><trkpt lat="55.9393435" lon="49.1919711"><time>2023-06-03T11:02:01.793</time></trkpt><trkpt lat="55.9393902" lon="49.1920528"><time>2023-06-03T11:02:03.803</time></trkpt><trkpt lat="55.9394190" lon="49.1921142"><time>2023-06-03T11:02:05.787</time></trkpt><trkpt lat="55.9394393" lon="49.1921867"><time>2023-06-03T11:02:10.797</time></trkpt><trkpt lat="55.9394878" lon="49.1922453"><time>2023-06-03T11:02:22.800</time></trkpt><trkpt lat="55.9395260" lon="49.1923357"><time>2023-06-03T11:02:24.793</time></trkpt><trkpt lat="55.9396251" lon="49.1924621"><time>2023-06-03T11:02:26.780</time></trkpt><trkpt lat="55.9396725" lon="49.1924806"><time>2023-06-03T11:02:27.787</time></trkpt><trkpt lat="55.9396986" lon="49.1926009"><time>2023-06-03T11:02:29.790</time></trkpt><trkpt lat="55.9397458" lon="49.1926496"><time>2023-06-03T11:02:30.787</time></trkpt><trkpt lat="55.9397713" lon="49.1927214"><time>2023-06-03T11:02:31.817</time></trkpt><trkpt lat="55.9398214" lon="49.1927782"><time>2023-06-03T11:02:32.793</time></trkpt><trkpt lat="55.9398487" lon="49.1928511"><time>2023-06-03T11:02:33.797</time></trkpt><trkpt lat="55.9398817" lon="49.1929175"><time>2023-06-03T11:02:34.803</time></trkpt><trkpt lat="55.9399304" lon="49.1930412"><time>2023-06-03T11:02:36.780</time></trkpt><trkpt lat="55.9399662" lon="49.1930942"><time>2023-06-03T11:02:37.807</time></trkpt><trkpt lat="55.9399828" lon="49.1932046"><time>2023-06-03T11:02:38.787</time></trkpt><trkpt lat="55.9400123" lon="49.1932856"><time>2023-06-03T11:02:39.800</time></trkpt><trkpt lat="55.9400375" lon="49.1933687"><time>2023-06-03T11:02:40.787</time></trkpt><trkpt lat="55.9400573" lon="49.1935129"><time>2023-06-03T11:02:42.797</time></trkpt><trkpt lat="55.9400503" lon="49.1936675"><time>2023-06-03T11:02:44.790</time></trkpt><trkpt lat="55.9400325" lon="49.1937572"><time>2023-06-03T11:02:45.793</time></trkpt><trkpt lat="55.9400141" lon="49.1938983"><time>2023-06-03T11:02:47.797</time></trkpt><trkpt lat="55.9400025" lon="49.1939876"><time>2023-06-03T11:02:49.813</time></trkpt><trkpt lat="55.9400257" lon="49.1940768"><time>2023-06-03T11:02:52.793</time></trkpt><trkpt lat="55.9400719" lon="49.1940684"><time>2023-06-03T11:02:53.800</time></trkpt><trkpt lat="55.9401227" lon="49.1940451"><time>2023-06-03T11:02:55.830</time></trkpt><trkpt lat="55.9401753" lon="49.1940522"><time>2023-06-03T11:02:57.790</time></trkpt><trkpt lat="55.9401162" lon="49.1940559"><time>2023-06-03T11:03:12.790</time></trkpt><trkpt lat="55.9400554" lon="49.1940399"><time>2023-06-03T11:03:14.790</time></trkpt><trkpt lat="55.9399969" lon="49.1940474"><time>2023-06-03T11:03:16.800</time></trkpt><trkpt lat="55.9399418" lon="49.1941191"><time>2023-06-03T11:03:18.787</time></trkpt><trkpt lat="55.9399062" lon="49.1942091"><time>2023-06-03T11:03:20.787</time></trkpt><trkpt lat="55.9398724" lon="49.1943215"><time>2023-06-03T11:03:22.783</time></trkpt><trkpt lat="55.9398465" lon="49.1944359"><time>2023-06-03T11:03:24.787</time></trkpt><trkpt lat="55.9398384" lon="49.1945650"><time>2023-06-03T11:03:26.787</time></trkpt><trkpt lat="55.9398269" lon="49.1946987"><time>2023-06-03T11:03:28.793</time></trkpt><trkpt lat="55.9397929" lon="49.1948468"><time>2023-06-03T11:03:30.790</time></trkpt><trkpt lat="55.9397780" lon="49.1949225"><time>2023-06-03T11:03:31.810</time></trkpt><trkpt lat="55.9397638" lon="49.1950347"><time>2023-06-03T11:03:32.790</time></trkpt><trkpt lat="55.9397592" lon="49.1951165"><time>2023-06-03T11:03:33.797</time></trkpt><trkpt lat="55.9397475" lon="49.1951939"><time>2023-06-03T11:03:34.797</time></trkpt><trkpt lat="55.9397096" lon="49.1952730"><time>2023-06-03T11:03:35.793</time></trkpt><trkpt lat="55.9396824" lon="49.1953485"><time>2023-06-03T11:03:36.790</time></trkpt><trkpt lat="55.9396343" lon="49.1954391"><time>2023-06-03T11:03:37.817</time></trkpt><trkpt lat="55.9395986" lon="49.1955060"><time>2023-06-03T11:03:38.787</time></trkpt><trkpt lat="55.9395612" lon="49.1955835"><time>2023-06-03T11:03:39.797</time></trkpt><trkpt lat="55.9395248" lon="49.1956689"><time>2023-06-03T11:03:40.787</time></trkpt><trkpt lat="55.9395067" lon="49.1957568"><time>2023-06-03T11:03:41.793</time></trkpt><trkpt lat="55.9394804" lon="49.1958538"><time>2023-06-03T11:03:42.787</time></trkpt><trkpt lat="55.9394497" lon="49.1959540"><time>2023-06-03T11:03:43.827</time></trkpt><trkpt lat="55.9394284" lon="49.1960454"><time>2023-06-03T11:03:44.790</time></trkpt><trkpt lat="55.9394137" lon="49.1961446"><time>2023-06-03T11:03:45.787</time></trkpt><trkpt lat="55.9394037" lon="49.1962410"><time>2023-06-03T11:03:46.790</time></trkpt><trkpt lat="55.9393795" lon="49.1963356"><time>2023-06-03T11:03:47.783</time></trkpt><trkpt lat="55.9393638" lon="49.1964153"><time>2023-06-03T11:03:48.803</time></trkpt><trkpt lat="55.9393223" lon="49.1965529"><time>2023-06-03T11:03:50.787</time></trkpt><trkpt lat="55.9392805" lon="49.1966240"><time>2023-06-03T11:03:51.790</time></trkpt><trkpt lat="55.9392578" lon="49.1967031"><time>2023-06-03T11:03:52.797</time></trkpt><trkpt lat="55.9392184" lon="49.1968030"><time>2023-06-03T11:03:53.783</time></trkpt><trkpt lat="55.9392006" lon="49.1968916"><time>2023-06-03T11:03:54.787</time></trkpt><trkpt lat="55.9391950" lon="49.1970368"><time>2023-06-03T11:03:56.790</time></trkpt><trkpt lat="55.9391872" lon="49.1971374"><time>2023-06-03T11:03:58.790</time></trkpt><trkpt lat="55.9391812" lon="49.1972217"><time>2023-06-03T11:04:00.783</time></trkpt><trkpt lat="55.9391535" lon="49.1973194"><time>2023-06-03T11:04:02.790</time></trkpt><trkpt lat="55.9391252" lon="49.1974213"><time>2023-06-03T11:04:04.787</time></trkpt><trkpt lat="55.9391067" lon="49.1974976"><time>2023-06-03T11:04:06.787</time></trkpt><trkpt lat="55.9390807" lon="49.1975725"><time>2023-06-03T11:04:08.797</time></trkpt><trkpt lat="55.9390525" lon="49.1976360"><time>2023-06-03T11:04:10.793</time></trkpt><trkpt lat="55.9390099" lon="49.1976669"><time>2023-06-03T11:04:19.800</time></trkpt><trkpt lat="55.9390443" lon="49.1977810"><time>2023-06-03T11:04:26.797</time></trkpt><trkpt lat="55.9390929" lon="49.1978669"><time>2023-06-03T11:04:28.797</time></trkpt><trkpt lat="55.9391293" lon="49.1979722"><time>2023-06-03T11:04:30.800</time></trkpt><trkpt lat="55.9391427" lon="49.1980399"><time>2023-06-03T11:04:31.790</time></trkpt><trkpt lat="55.9391665" lon="49.1981514"><time>2023-06-03T11:04:33.783</time></trkpt><trkpt lat="55.9391971" lon="49.1982724"><time>2023-06-03T11:04:35.817</time></trkpt><trkpt lat="55.9392226" lon="49.1983780"><time>2023-06-03T11:04:37.797</time></trkpt><trkpt lat="55.9392380" lon="49.1985019"><time>2023-06-03T11:04:39.797</time></trkpt><trkpt lat="55.9392465" lon="49.1986552"><time>2023-06-03T11:04:41.817</time></trkpt><trkpt lat="55.9392540" lon="49.1987630"><time>2023-06-03T11:04:43.793</time></trkpt><trkpt lat="55.9392750" lon="49.1988560"><time>2023-06-03T11:04:45.790</time></trkpt><trkpt lat="55.9393024" lon="49.1989630"><time>2023-06-03T11:04:47.810</time></trkpt><trkpt lat="55.9393327" lon="49.1990773"><time>2023-06-03T11:04:49.790</time></trkpt><trkpt lat="55.9393664" lon="49.1991558"><time>2023-06-03T11:04:51.787</time></trkpt><trkpt lat="55.9393847" lon="49.1992407"><time>2023-06-03T11:04:53.823</time></trkpt><trkpt lat="55.9394003" lon="49.1993633"><time>2023-06-03T11:04:55.807</time></trkpt><trkpt lat="55.9394003" lon="49.1994518"><time>2023-06-03T11:04:57.807</time></trkpt><trkpt lat="55.9393986" lon="49.1994834"><time>2023-06-03T11:04:58.790</time></trkpt><trkpt lat="55.9394093" lon="49.1996102"><time>2023-06-03T11:05:01.790</time></trkpt><trkpt lat="55.9394181" lon="49.1996915"><time>2023-06-03T11:05:03.793</time></trkpt><trkpt lat="55.9394256" lon="49.1997865"><time>2023-06-03T11:05:05.830</time></trkpt><trkpt lat="55.9394365" lon="49.1998778"><time>2023-06-03T11:05:07.797</time></trkpt><trkpt lat="55.9394411" lon="49.1999610"><time>2023-06-03T11:05:09.787</time></trkpt><trkpt lat="55.9394503" lon="49.2000537"><time>2023-06-03T11:05:11.807</time></trkpt><trkpt lat="55.9394729" lon="49.2001337"><time>2023-06-03T11:05:13.790</time></trkpt><trkpt lat="55.9395026" lon="49.2002132"><time>2023-06-03T11:05:15.863</time></trkpt><trkpt lat="55.9395179" lon="49.2002588"><time>2023-06-03T11:05:16.780</time></trkpt><trkpt lat="55.9395394" lon="49.2003536"><time>2023-06-03T11:05:18.787</time></trkpt><trkpt lat="55.9395613" lon="49.2004377"><time>2023-06-03T11:05:20.790</time></trkpt><trkpt lat="55.9395816" lon="49.2005456"><time>2023-06-03T11:05:22.780</time></trkpt><trkpt lat="55.9396002" lon="49.2006278"><time>2023-06-03T11:05:24.783</time></trkpt><trkpt lat="55.9396262" lon="49.2006988"><time>2023-06-03T11:05:26.807</time></trkpt><trkpt lat="55.9396262" lon="49.2006988"><time>2023-06-03T11:05:26.843</time></trkpt><trkpt lat="55.9396620" lon="49.2007655"><time>2023-06-03T11:05:29.863</time></trkpt><trkpt lat="55.9396650" lon="49.2007793"><time>2023-06-03T11:05:30.780</time></trkpt><trkpt lat="55.9396804" lon="49.2006778"><time>2023-06-03T11:06:06.783</time></trkpt><trkpt lat="55.9396537" lon="49.2005877"><time>2023-06-03T11:06:08.777</time></trkpt><trkpt lat="55.9396343" lon="49.2005032"><time>2023-06-03T11:06:10.803</time></trkpt><trkpt lat="55.9396190" lon="49.2003988"><time>2023-06-03T11:06:12.793</time></trkpt><trkpt lat="55.9396029" lon="49.2003050"><time>2023-06-03T11:06:14.797</time></trkpt><trkpt lat="55.9395876" lon="49.2002253"><time>2023-06-03T11:06:16.817</time></trkpt><trkpt lat="55.9395565" lon="49.2001236"><time>2023-06-03T11:06:19.793</time></trkpt><trkpt lat="55.9395227" lon="49.2000123"><time>2023-06-03T11:06:22.803</time></trkpt><trkpt lat="55.9395006" lon="49.1999104"><time>2023-06-03T11:06:25.793</time></trkpt><trkpt lat="55.9394665" lon="49.1998154"><time>2023-06-03T11:06:28.827</time></trkpt><trkpt lat="55.9394488" lon="49.1997407"><time>2023-06-03T11:06:30.780</time></trkpt><trkpt lat="55.9394322" lon="49.1996474"><time>2023-06-03T11:06:33.790</time></trkpt><trkpt lat="55.9394147" lon="49.1995443"><time>2023-06-03T11:06:36.790</time></trkpt><trkpt lat="55.9394027" lon="49.1994327"><time>2023-06-03T11:06:38.787</time></trkpt><trkpt lat="55.9393888" lon="49.1992920"><time>2023-06-03T11:06:40.820</time></trkpt><trkpt lat="55.9393852" lon="49.1991939"><time>2023-06-03T11:06:41.803</time></trkpt><trkpt lat="55.9393659" lon="49.1989237"><time>2023-06-03T11:06:42.793</time></trkpt><trkpt lat="55.9393034" lon="49.1989225"><time>2023-06-03T11:06:44.787</time></trkpt><trkpt lat="55.9392724" lon="49.1988344"><time>2023-06-03T11:06:46.807</time></trkpt><trkpt lat="55.9392726" lon="49.1987506"><time>2023-06-03T11:06:47.787</time></trkpt><trkpt lat="55.9392486" lon="49.1986786"><time>2023-06-03T11:06:49.803</time></trkpt><trkpt lat="55.9392395" lon="49.1985988"><time>2023-06-03T11:06:51.803</time></trkpt><trkpt lat="55.9392190" lon="49.1985255"><time>2023-06-03T11:06:53.773</time></trkpt><trkpt lat="55.9391981" lon="49.1984479"><time>2023-06-03T11:06:55.777</time></trkpt><trkpt lat="55.9391745" lon="49.1983697"><time>2023-06-03T11:06:57.793</time></trkpt><trkpt lat="55.9391508" lon="49.1982769"><time>2023-06-03T11:07:00.787</time></trkpt><trkpt lat="55.9391145" lon="49.1981815"><time>2023-06-03T11:07:03.820</time></trkpt><trkpt lat="55.9390840" lon="49.1980820"><time>2023-06-03T11:07:05.800</time></trkpt><trkpt lat="55.9390520" lon="49.1979723"><time>2023-06-03T11:07:07.790</time></trkpt><trkpt lat="55.9390167" lon="49.1978980"><time>2023-06-03T11:07:09.807</time></trkpt><trkpt lat="55.9389593" lon="49.1978710"><time>2023-06-03T11:07:11.793</time></trkpt><trkpt lat="55.9389091" lon="49.1979016"><time>2023-06-03T11:07:13.797</time></trkpt><trkpt lat="55.9388653" lon="49.1979625"><time>2023-06-03T11:07:15.810</time></trkpt><trkpt lat="55.9388276" lon="49.1980414"><time>2023-06-03T11:07:17.793</time></trkpt><trkpt lat="55.9387883" lon="49.1981490"><time>2023-06-03T11:07:19.793</time></trkpt><trkpt lat="55.9387494" lon="49.1982885"><time>2023-06-03T11:07:21.783</time></trkpt><trkpt lat="55.9387151" lon="49.1984383"><time>2023-06-03T11:07:23.790</time></trkpt><trkpt lat="55.9386903" lon="49.1985208"><time>2023-06-03T11:07:24.790</time></trkpt><trkpt lat="55.9386598" lon="49.1986433"><time>2023-06-03T11:07:26.820</time></trkpt><trkpt lat="55.9386349" lon="49.1987442"><time>2023-06-03T11:07:28.793</time></trkpt><trkpt lat="55.9385948" lon="49.1988793"><time>2023-06-03T11:07:30.790</time></trkpt><trkpt lat="55.9385645" lon="49.1990076"><time>2023-06-03T11:07:31.790</time></trkpt><trkpt lat="55.9385603" lon="49.1991047"><time>2023-06-03T11:07:32.803</time></trkpt><trkpt lat="55.9385309" lon="49.1992155"><time>2023-06-03T11:07:33.797</time></trkpt><trkpt lat="55.9385191" lon="49.1993140"><time>2023-06-03T11:07:34.797</time></trkpt><trkpt lat="55.9384791" lon="49.1994339"><time>2023-06-03T11:07:35.800</time></trkpt><trkpt lat="55.9384393" lon="49.1995406"><time>2023-06-03T11:07:36.787</time></trkpt><trkpt lat="55.9384224" lon="49.1996206"><time>2023-06-03T11:07:37.793</time></trkpt><trkpt lat="55.9383948" lon="49.1997302"><time>2023-06-03T11:07:38.820</time></trkpt><trkpt lat="55.9383598" lon="49.1998405"><time>2023-06-03T11:07:39.810</time></trkpt><trkpt lat="55.9383478" lon="49.1999489"><time>2023-06-03T11:07:40.787</time></trkpt><trkpt lat="55.9383293" lon="49.2000723"><time>2023-06-03T11:07:41.803</time></trkpt><trkpt lat="55.9383095" lon="49.2001956"><time>2023-06-03T11:07:42.797</time></trkpt><trkpt lat="55.9382854" lon="49.2003249"><time>2023-06-03T11:07:43.790</time></trkpt><trkpt lat="55.9383193" lon="49.2003874"><time>2023-06-03T11:07:44.813</time></trkpt><trkpt lat="55.9383026" lon="49.2004810"><time>2023-06-03T11:07:45.793</time></trkpt><trkpt lat="55.9382692" lon="49.2005999"><time>2023-06-03T11:07:46.797</time></trkpt><trkpt lat="55.9382496" lon="49.2006895"><time>2023-06-03T11:07:47.807</time></trkpt><trkpt lat="55.9382117" lon="49.2008079"><time>2023-06-03T11:07:48.783</time></trkpt><trkpt lat="55.9381806" lon="49.2009149"><time>2023-06-03T11:07:49.803</time></trkpt><trkpt lat="55.9381461" lon="49.2010937"><time>2023-06-03T11:07:51.780</time></trkpt><trkpt lat="55.9381106" lon="49.2012018"><time>2023-06-03T11:07:52.787</time></trkpt><trkpt lat="55.9380791" lon="49.2012956"><time>2023-06-03T11:07:53.790</time></trkpt><trkpt lat="55.9380429" lon="49.2013806"><time>2023-06-03T11:07:55.783</time></trkpt><trkpt lat="55.9380033" lon="49.2014612"><time>2023-06-03T11:07:56.783</time></trkpt><trkpt lat="55.9379614" lon="49.2015817"><time>2023-06-03T11:07:58.783</time></trkpt><trkpt lat="55.9379360" lon="49.2016907"><time>2023-06-03T11:07:59.790</time></trkpt><trkpt lat="55.9378865" lon="49.2018276"><time>2023-06-03T11:08:00.780</time></trkpt><trkpt lat="55.9378460" lon="49.2019404"><time>2023-06-03T11:08:01.793</time></trkpt><trkpt lat="55.9378390" lon="49.2020942"><time>2023-06-03T11:08:03.787</time></trkpt><trkpt lat="55.9378088" lon="49.2022750"><time>2023-06-03T11:08:05.780</time></trkpt><trkpt lat="55.9377851" lon="49.2023534"><time>2023-06-03T11:08:06.783</time></trkpt><trkpt lat="55.9377538" lon="49.2024391"><time>2023-06-03T11:08:07.820</time></trkpt><trkpt lat="55.9376802" lon="49.2025876"><time>2023-06-03T11:08:09.787</time></trkpt><trkpt lat="55.9376347" lon="49.2026269"><time>2023-06-03T11:08:10.783</time></trkpt><trkpt lat="55.9375591" lon="49.2026588"><time>2023-06-03T11:08:11.790</time></trkpt><trkpt lat="55.9375114" lon="49.2026961"><time>2023-06-03T11:08:12.783</time></trkpt><trkpt lat="55.9374459" lon="49.2027269"><time>2023-06-03T11:08:13.830</time></trkpt><trkpt lat="55.9373892" lon="49.2027255"><time>2023-06-03T11:08:14.793</time></trkpt><trkpt lat="55.9373415" lon="49.2027121"><time>2023-06-03T11:08:15.787</time></trkpt><trkpt lat="55.9372498" lon="49.2026764"><time>2023-06-03T11:08:17.787</time></trkpt><trkpt lat="55.9371972" lon="49.2026577"><time>2023-06-03T11:08:18.783</time></trkpt><trkpt lat="55.9371400" lon="49.2026643"><time>2023-06-03T11:08:19.793</time></trkpt><trkpt lat="55.9371006" lon="49.2026072"><time>2023-06-03T11:08:20.787</time></trkpt><trkpt lat="55.9370290" lon="49.2025703"><time>2023-06-03T11:08:22.793</time></trkpt><trkpt lat="55.9369432" lon="49.2025504"><time>2023-06-03T11:08:24.787</time></trkpt><trkpt lat="55.9369143" lon="49.2026775"><time>2023-06-03T11:08:26.793</time></trkpt><trkpt lat="55.9368477" lon="49.2027935"><time>2023-06-03T11:08:28.787</time></trkpt><trkpt lat="55.9368275" lon="49.2028699"><time>2023-06-03T11:08:29.797</time></trkpt><trkpt lat="55.9367926" lon="49.2029713"><time>2023-06-03T11:08:30.793</time></trkpt><trkpt lat="55.9367467" lon="49.2031244"><time>2023-06-03T11:08:32.780</time></trkpt><trkpt lat="55.9367285" lon="49.2032243"><time>2023-06-03T11:08:33.790</time></trkpt><trkpt lat="55.9367033" lon="49.2033263"><time>2023-06-03T11:08:34.783</time></trkpt><trkpt lat="55.9366887" lon="49.2034378"><time>2023-06-03T11:08:35.797</time></trkpt><trkpt lat="55.9366758" lon="49.2035156"><time>2023-06-03T11:08:36.780</time></trkpt><trkpt lat="55.9366494" lon="49.2036769"><time>2023-06-03T11:08:38.793</time></trkpt><trkpt lat="55.9366257" lon="49.2037829"><time>2023-06-03T11:08:40.787</time></trkpt><trkpt lat="55.9365582" lon="49.2039071"><time>2023-06-03T11:08:42.800</time></trkpt><trkpt lat="55.9365189" lon="49.2039915"><time>2023-06-03T11:08:43.810</time></trkpt><trkpt lat="55.9364543" lon="49.2040721"><time>2023-06-03T11:08:44.787</time></trkpt><trkpt lat="55.9364071" lon="49.2041313"><time>2023-06-03T11:08:45.803</time></trkpt><trkpt lat="55.9363774" lon="49.2042007"><time>2023-06-03T11:08:46.783</time></trkpt><trkpt lat="55.9363256" lon="49.2043020"><time>2023-06-03T11:08:47.790</time></trkpt><trkpt lat="55.9363270" lon="49.2043993"><time>2023-06-03T11:08:48.790</time></trkpt><trkpt lat="55.9363198" lon="49.2045021"><time>2023-06-03T11:08:49.813</time></trkpt><trkpt lat="55.9362907" lon="49.2045996"><time>2023-06-03T11:08:50.783</time></trkpt><trkpt lat="55.9362742" lon="49.2047053"><time>2023-06-03T11:08:51.793</time></trkpt><trkpt lat="55.9362685" lon="49.2048033"><time>2023-06-03T11:08:52.783</time></trkpt><trkpt lat="55.9362605" lon="49.2048845"><time>2023-06-03T11:08:53.787</time></trkpt><trkpt lat="55.9362430" lon="49.2049606"><time>2023-06-03T11:08:54.773</time></trkpt><trkpt lat="55.9362231" lon="49.2050628"><time>2023-06-03T11:08:55.807</time></trkpt><trkpt lat="55.9362049" lon="49.2051784"><time>2023-06-03T11:08:57.790</time></trkpt><trkpt lat="55.9362167" lon="49.2052763"><time>2023-06-03T11:08:59.790</time></trkpt><trkpt lat="55.9362621" lon="49.2053583"><time>2023-06-03T11:09:02.783</time></trkpt><trkpt lat="55.9363231" lon="49.2053928"><time>2023-06-03T11:09:04.780</time></trkpt><trkpt lat="55.9363690" lon="49.2054509"><time>2023-06-03T11:09:06.780</time></trkpt><trkpt lat="55.9364184" lon="49.2054892"><time>2023-06-03T11:09:08.787</time></trkpt><trkpt lat="55.9364833" lon="49.2055237"><time>2023-06-03T11:09:10.790</time></trkpt><trkpt lat="55.9365302" lon="49.2055476"><time>2023-06-03T11:09:12.797</time></trkpt><trkpt lat="55.9365709" lon="49.2055908"><time>2023-06-03T11:09:14.783</time></trkpt><trkpt lat="55.9365935" lon="49.2056858"><time>2023-06-03T11:09:17.780</time></trkpt><trkpt lat="55.9365574" lon="49.2057522"><time>2023-06-03T11:09:20.790</time></trkpt><trkpt lat="55.9365071" lon="49.2057338"><time>2023-06-03T11:09:40.783</time></trkpt><trkpt lat="55.9364614" lon="49.2057434"><time>2023-06-03T11:09:42.797</time></trkpt><trkpt lat="55.9364107" lon="49.2057393"><time>2023-06-03T11:09:45.787</time></trkpt><trkpt lat="55.9363564" lon="49.2057574"><time>2023-06-03T11:09:50.793</time></trkpt><trkpt lat="55.9362897" lon="49.2057342"><time>2023-06-03T11:09:52.780</time></trkpt><trkpt lat="55.9362092" lon="49.2056611"><time>2023-06-03T11:09:53.783</time></trkpt><trkpt lat="55.9361568" lon="49.2056308"><time>2023-06-03T11:09:54.797</time></trkpt><trkpt lat="55.9361046" lon="49.2056123"><time>2023-06-03T11:09:55.787</time></trkpt><trkpt lat="55.9360496" lon="49.2055942"><time>2023-06-03T11:09:56.777</time></trkpt><trkpt lat="55.9360053" lon="49.2055643"><time>2023-06-03T11:09:57.787</time></trkpt><trkpt lat="55.9359484" lon="49.2055321"><time>2023-06-03T11:10:08.797</time></trkpt><trkpt lat="55.9359041" lon="49.2054483"><time>2023-06-03T11:10:10.783</time></trkpt><trkpt lat="55.9358655" lon="49.2053307"><time>2023-06-03T11:10:12.810</time></trkpt><trkpt lat="55.9358132" lon="49.2052212"><time>2023-06-03T11:10:14.773</time></trkpt><trkpt lat="55.9357522" lon="49.2051360"><time>2023-06-03T11:10:16.780</time></trkpt><trkpt lat="55.9356852" lon="49.2050554"><time>2023-06-03T11:10:18.803</time></trkpt><trkpt lat="55.9356197" lon="49.2049614"><time>2023-06-03T11:10:20.787</time></trkpt><trkpt lat="55.9355552" lon="49.2048765"><time>2023-06-03T11:10:22.783</time></trkpt><trkpt lat="55.9354943" lon="49.2048142"><time>2023-06-03T11:10:24.817</time></trkpt><trkpt lat="55.9354369" lon="49.2047740"><time>2023-06-03T11:10:26.777</time></trkpt><trkpt lat="55.9353843" lon="49.2047171"><time>2023-06-03T11:10:28.787</time></trkpt><trkpt lat="55.9353177" lon="49.2046477"><time>2023-06-03T11:10:30.797</time></trkpt><trkpt lat="55.9352423" lon="49.2045739"><time>2023-06-03T11:10:32.790</time></trkpt><trkpt lat="55.9351707" lon="49.2044945"><time>2023-06-03T11:10:34.790</time></trkpt><trkpt lat="55.9351001" lon="49.2044063"><time>2023-06-03T11:10:36.817</time></trkpt><trkpt lat="55.9350259" lon="49.2043281"><time>2023-06-03T11:10:38.787</time></trkpt><trkpt lat="55.9349457" lon="49.2042685"><time>2023-06-03T11:10:40.797</time></trkpt><trkpt lat="55.9348690" lon="49.2042144"><time>2023-06-03T11:10:42.797</time></trkpt><trkpt lat="55.9347998" lon="49.2041422"><time>2023-06-03T11:10:44.787</time></trkpt><trkpt lat="55.9347301" lon="49.2040623"><time>2023-06-03T11:10:46.790</time></trkpt><trkpt lat="55.9346644" lon="49.2039961"><time>2023-06-03T11:10:48.817</time></trkpt><trkpt lat="55.9345941" lon="49.2039592"><time>2023-06-03T11:10:50.790</time></trkpt><trkpt lat="55.9345111" lon="49.2039530"><time>2023-06-03T11:10:52.787</time></trkpt><trkpt lat="55.9344558" lon="49.2040574"><time>2023-06-03T11:10:53.783</time></trkpt><trkpt lat="55.9343749" lon="49.2040718"><time>2023-06-03T11:10:55.790</time></trkpt><trkpt lat="55.9343048" lon="49.2040952"><time>2023-06-03T11:10:57.793</time></trkpt><trkpt lat="55.9342582" lon="49.2041044"><time>2023-06-03T11:10:59.793</time></trkpt><trkpt lat="55.9342099" lon="49.2041284"><time>2023-06-03T11:11:00.823</time></trkpt><trkpt lat="55.9341192" lon="49.2041183"><time>2023-06-03T11:11:02.787</time></trkpt><trkpt lat="55.9340519" lon="49.2041089"><time>2023-06-03T11:11:04.790</time></trkpt><trkpt lat="55.9339797" lon="49.2040539"><time>2023-06-03T11:11:06.810</time></trkpt><trkpt lat="55.9339122" lon="49.2039714"><time>2023-06-03T11:11:08.800</time></trkpt><trkpt lat="55.9338662" lon="49.2038401"><time>2023-06-03T11:11:10.790</time></trkpt><trkpt lat="55.9338452" lon="49.2037378"><time>2023-06-03T11:11:11.783</time></trkpt><trkpt lat="55.9338253" lon="49.2036490"><time>2023-06-03T11:11:12.783</time></trkpt><trkpt lat="55.9338092" lon="49.2035435"><time>2023-06-03T11:11:13.797</time></trkpt><trkpt lat="55.9337803" lon="49.2034550"><time>2023-06-03T11:11:14.797</time></trkpt><trkpt lat="55.9337785" lon="49.2033641"><time>2023-06-03T11:11:15.797</time></trkpt><trkpt lat="55.9337611" lon="49.2032324"><time>2023-06-03T11:11:17.793</time></trkpt><trkpt lat="55.9337562" lon="49.2031022"><time>2023-06-03T11:11:19.780</time></trkpt><trkpt lat="55.9337762" lon="49.2029763"><time>2023-06-03T11:11:21.793</time></trkpt><trkpt lat="55.9337714" lon="49.2028579"><time>2023-06-03T11:11:23.790</time></trkpt><trkpt lat="55.9337342" lon="49.2028105"><time>2023-06-03T11:11:24.780</time></trkpt><trkpt lat="55.9337100" lon="49.2026766"><time>2023-06-03T11:11:26.787</time></trkpt><trkpt lat="55.9336671" lon="49.2025715"><time>2023-06-03T11:11:28.817</time></trkpt><trkpt lat="55.9336097" lon="49.2024761"><time>2023-06-03T11:11:30.797</time></trkpt><trkpt lat="55.9335403" lon="49.2023896"><time>2023-06-03T11:11:32.790</time></trkpt><trkpt lat="55.9334480" lon="49.2022216"><time>2023-06-03T11:11:34.837</time></trkpt><trkpt lat="55.9334211" lon="49.2021566"><time>2023-06-03T11:11:35.790</time></trkpt><trkpt lat="55.9333604" lon="49.2020392"><time>2023-06-03T11:11:37.793</time></trkpt><trkpt lat="55.9333066" lon="49.2019845"><time>2023-06-03T11:11:38.780</time></trkpt><trkpt lat="55.9332457" lon="49.2018730"><time>2023-06-03T11:11:40.800</time></trkpt><trkpt lat="55.9331956" lon="49.2017923"><time>2023-06-03T11:11:42.780</time></trkpt><trkpt lat="55.9331413" lon="49.2017728"><time>2023-06-03T11:11:43.793</time></trkpt><trkpt lat="55.9330884" lon="49.2016745"><time>2023-06-03T11:11:45.793</time></trkpt><trkpt lat="55.9330218" lon="49.2015904"><time>2023-06-03T11:11:47.780</time></trkpt><trkpt lat="55.9329649" lon="49.2015534"><time>2023-06-03T11:11:48.783</time></trkpt><trkpt lat="55.9329364" lon="49.2014878"><time>2023-06-03T11:11:49.790</time></trkpt><trkpt lat="55.9328652" lon="49.2014109"><time>2023-06-03T11:11:51.783</time></trkpt><trkpt lat="55.9327878" lon="49.2013625"><time>2023-06-03T11:11:53.797</time></trkpt><trkpt lat="55.9327463" lon="49.2013288"><time>2023-06-03T11:11:54.787</time></trkpt><trkpt lat="55.9326657" lon="49.2012834"><time>2023-06-03T11:11:56.780</time></trkpt><trkpt lat="55.9326032" lon="49.2012273"><time>2023-06-03T11:11:58.820</time></trkpt><trkpt lat="55.9325347" lon="49.2012028"><time>2023-06-03T11:12:00.787</time></trkpt><trkpt lat="55.9324804" lon="49.2011700"><time>2023-06-03T11:12:02.797</time></trkpt><trkpt lat="55.9324128" lon="49.2011328"><time>2023-06-03T11:12:04.797</time></trkpt><trkpt lat="55.9323671" lon="49.2010938"><time>2023-06-03T11:12:06.797</time></trkpt><trkpt lat="55.9323206" lon="49.2010523"><time>2023-06-03T11:12:08.787</time></trkpt><trkpt lat="55.9322694" lon="49.2009926"><time>2023-06-03T11:12:11.790</time></trkpt><trkpt lat="55.9322140" lon="49.2009355"><time>2023-06-03T11:12:14.800</time></trkpt><trkpt lat="55.9321858" lon="49.2009080"><time>2023-06-03T11:12:15.797</time></trkpt><trkpt lat="55.9321328" lon="49.2008595"><time>2023-06-03T11:12:17.793</time></trkpt><trkpt lat="55.9320963" lon="49.2007900"><time>2023-06-03T11:12:20.783</time></trkpt><trkpt lat="55.9320409" lon="49.2007329"><time>2023-06-03T11:12:23.783</time></trkpt><trkpt lat="55.9319872" lon="49.2006972"><time>2023-06-03T11:12:25.783</time></trkpt><trkpt lat="55.9319205" lon="49.2006493"><time>2023-06-03T11:12:27.797</time></trkpt><trkpt lat="55.9318756" lon="49.2006121"><time>2023-06-03T11:12:29.893</time></trkpt><trkpt lat="55.9318579" lon="49.2005948"><time>2023-06-03T11:12:30.797</time></trkpt><trkpt lat="55.9318152" lon="49.2005460"><time>2023-06-03T11:12:34.783</time></trkpt><trkpt lat="55.9317684" lon="49.2005199"><time>2023-06-03T11:12:45.830</time></trkpt><trkpt lat="55.9317244" lon="49.2004739"><time>2023-06-03T11:13:18.800</time></trkpt><trkpt lat="55.9316766" lon="49.2004292"><time>2023-06-03T11:13:22.797</time></trkpt><trkpt lat="55.9316258" lon="49.2003991"><time>2023-06-03T11:13:27.797</time></trkpt><trkpt lat="55.9315739" lon="49.2003607"><time>2023-06-03T11:13:31.803</time></trkpt><trkpt lat="55.9315226" lon="49.2003337"><time>2023-06-03T11:13:36.783</time></trkpt><trkpt lat="55.9314946" lon="49.2002665"><time>2023-06-03T11:13:53.797</time></trkpt><trkpt lat="55.9315156" lon="49.2001820"><time>2023-06-03T11:13:58.783</time></trkpt><trkpt lat="55.9315185" lon="49.2000835"><time>2023-06-03T11:14:11.810</time></trkpt><trkpt lat="55.9315083" lon="49.2000004"><time>2023-06-03T11:14:17.810</time></trkpt><trkpt lat="55.9314736" lon="49.1999303"><time>2023-06-03T11:14:24.797</time></trkpt><trkpt lat="55.9314302" lon="49.1998647"><time>2023-06-03T11:14:30.800</time></trkpt><trkpt lat="55.9314128" lon="49.1997896"><time>2023-06-03T11:14:40.797</time></trkpt><trkpt lat="55.9314352" lon="49.1998597"><time>2023-06-03T11:15:05.800</time></trkpt><trkpt lat="55.9314626" lon="49.1999369"><time>2023-06-03T11:15:10.793</time></trkpt><trkpt lat="55.9314935" lon="49.1999997"><time>2023-06-03T11:15:18.800</time></trkpt><trkpt lat="55.9315447" lon="49.1999568"><time>2023-06-03T11:15:23.813</time></trkpt><trkpt lat="55.9315802" lon="49.1999019"><time>2023-06-03T11:15:28.790</time></trkpt><trkpt lat="55.9315279" lon="49.1999465"><time>2023-06-03T11:15:42.793</time></trkpt><trkpt lat="55.9314861" lon="49.2000200"><time>2023-06-03T11:15:46.777</time></trkpt><trkpt lat="55.9314627" lon="49.2001009"><time>2023-06-03T11:15:50.790</time></trkpt><trkpt lat="55.9314880" lon="49.2001700"><time>2023-06-03T11:15:57.787</time></trkpt><trkpt lat="55.9314990" lon="49.2002491"><time>2023-06-03T11:16:05.837</time></trkpt><trkpt lat="55.9315386" lon="49.2003096"><time>2023-06-03T11:16:11.817</time></trkpt><trkpt lat="55.9315779" lon="49.2003603"><time>2023-06-03T11:16:15.797</time></trkpt><trkpt lat="55.9316187" lon="49.2004113"><time>2023-06-03T11:16:18.797</time></trkpt><trkpt lat="55.9316494" lon="49.2004721"><time>2023-06-03T11:16:22.787</time></trkpt><trkpt lat="55.9316867" lon="49.2005258"><time>2023-06-03T11:16:26.780</time></trkpt><trkpt lat="55.9316827" lon="49.2006169"><time>2023-06-03T11:16:32.790</time></trkpt><trkpt lat="55.9316452" lon="49.2005543"><time>2023-06-03T11:16:45.803</time></trkpt><trkpt lat="55.9316043" lon="49.2005062"><time>2023-06-03T11:16:50.793</time></trkpt><trkpt lat="55.9316472" lon="49.2004659"><time>2023-06-03T11:17:16.783</time></trkpt><trkpt lat="55.9316824" lon="49.2005621"><time>2023-06-03T11:17:20.797</time></trkpt><trkpt lat="55.9317303" lon="49.2005963"><time>2023-06-03T11:17:23.807</time></trkpt><trkpt lat="55.9317783" lon="49.2006121"><time>2023-06-03T11:17:27.797</time></trkpt><trkpt lat="55.9318216" lon="49.2006532"><time>2023-06-03T11:17:31.797</time></trkpt><trkpt lat="55.9318649" lon="49.2006927"><time>2023-06-03T11:17:35.803</time></trkpt><trkpt lat="55.9319075" lon="49.2007439"><time>2023-06-03T11:17:38.800</time></trkpt><trkpt lat="55.9319451" lon="49.2008053"><time>2023-06-03T11:17:42.790</time></trkpt><trkpt lat="55.9319789" lon="49.2008718"><time>2023-06-03T11:17:47.807</time></trkpt><trkpt lat="55.9320269" lon="49.2008900"><time>2023-06-03T11:17:53.837</time></trkpt><trkpt lat="55.9320776" lon="49.2009113"><time>2023-06-03T11:17:59.813</time></trkpt><trkpt lat="55.9321314" lon="49.2009102"><time>2023-06-03T11:18:03.830</time></trkpt><trkpt lat="55.9321399" lon="49.2009098"><time>2023-06-03T11:18:04.793</time></trkpt><trkpt lat="55.9321526" lon="49.2008266"><time>2023-06-03T11:18:09.793</time></trkpt><trkpt lat="55.9321565" lon="49.2007081"><time>2023-06-03T11:18:14.780</time></trkpt><trkpt lat="55.9321766" lon="49.2006048"><time>2023-06-03T11:18:17.797</time></trkpt><trkpt lat="55.9321883" lon="49.2005257"><time>2023-06-03T11:18:19.807</time></trkpt><trkpt lat="55.9322009" lon="49.2004437"><time>2023-06-03T11:18:22.813</time></trkpt><trkpt lat="55.9322009" lon="49.2004437"><time>2023-06-03T11:18:22.847</time></trkpt><trkpt lat="55.9322493" lon="49.2004754"><time>2023-06-03T11:18:32.820</time></trkpt><trkpt lat="55.9322551" lon="49.2004908"><time>2023-06-03T11:18:33.810</time></trkpt><trkpt lat="55.9322435" lon="49.2005805"><time>2023-06-03T11:18:38.797</time></trkpt><trkpt lat="55.9322572" lon="49.2006583"><time>2023-06-03T11:18:44.797</time></trkpt><trkpt lat="55.9322665" lon="49.2007673"><time>2023-06-03T11:18:48.793</time></trkpt><trkpt lat="55.9322384" lon="49.2008504"><time>2023-06-03T11:18:50.823</time></trkpt><trkpt lat="55.9321805" lon="49.2008811"><time>2023-06-03T11:18:53.787</time></trkpt><trkpt lat="55.9321266" lon="49.2008451"><time>2023-06-03T11:18:56.807</time></trkpt><trkpt lat="55.9320829" lon="49.2008188"><time>2023-06-03T11:18:59.783</time></trkpt><trkpt lat="55.9320284" lon="49.2008047"><time>2023-06-03T11:19:02.813</time></trkpt><trkpt lat="55.9319824" lon="49.2007974"><time>2023-06-03T11:19:06.777</time></trkpt><trkpt lat="55.9319428" lon="49.2007469"><time>2023-06-03T11:19:14.817</time></trkpt><trkpt lat="55.9318991" lon="49.2006940"><time>2023-06-03T11:19:20.803</time></trkpt><trkpt lat="55.9318437" lon="49.2006858"><time>2023-06-03T11:19:24.797</time></trkpt><trkpt lat="55.9317912" lon="49.2006472"><time>2023-06-03T11:19:28.780</time></trkpt><trkpt lat="55.9317428" lon="49.2005972"><time>2023-06-03T11:19:31.797</time></trkpt><trkpt lat="55.9316965" lon="49.2005467"><time>2023-06-03T11:19:35.783</time></trkpt><trkpt lat="55.9316451" lon="49.2005083"><time>2023-06-03T11:19:39.797</time></trkpt><trkpt lat="55.9316888" lon="49.2005477"><time>2023-06-03T11:19:53.793</time></trkpt><trkpt lat="55.9316571" lon="49.2006252"><time>2023-06-03T11:19:58.787</time></trkpt><trkpt lat="55.9316006" lon="49.2006408"><time>2023-06-03T11:20:03.790</time></trkpt><trkpt lat="55.9315485" lon="49.2006126"><time>2023-06-03T11:20:08.800</time></trkpt><trkpt lat="55.9314954" lon="49.2005907"><time>2023-06-03T11:20:11.793</time></trkpt><trkpt lat="55.9314471" lon="49.2005798"><time>2023-06-03T11:20:15.783</time></trkpt><trkpt lat="55.9314007" lon="49.2005715"><time>2023-06-03T11:20:18.797</time></trkpt><trkpt lat="55.9313582" lon="49.2005403"><time>2023-06-03T11:20:22.793</time></trkpt><trkpt lat="55.9313088" lon="49.2005153"><time>2023-06-03T11:20:26.810</time></trkpt><trkpt lat="55.9312575" lon="49.2004998"><time>2023-06-03T11:20:31.803</time></trkpt><trkpt lat="55.9312196" lon="49.2004512"><time>2023-06-03T11:20:37.793</time></trkpt><trkpt lat="55.9311728" lon="49.2004326"><time>2023-06-03T11:20:42.797</time></trkpt><trkpt lat="55.9311197" lon="49.2004076"><time>2023-06-03T11:20:46.780</time></trkpt><trkpt lat="55.9310683" lon="49.2003664"><time>2023-06-03T11:20:50.787</time></trkpt><trkpt lat="55.9310221" lon="49.2003179"><time>2023-06-03T11:20:54.787</time></trkpt><trkpt lat="55.9309773" lon="49.2002822"><time>2023-06-03T11:20:58.787</time></trkpt><trkpt lat="55.9309312" lon="49.2002549"><time>2023-06-03T11:21:03.813</time></trkpt><trkpt lat="55.9308862" lon="49.2002362"><time>2023-06-03T11:21:06.777</time></trkpt><trkpt lat="55.9308620" lon="49.2001653"><time>2023-06-03T11:21:09.793</time></trkpt><trkpt lat="55.9308833" lon="49.2000887"><time>2023-06-03T11:21:13.830</time></trkpt><trkpt lat="55.9309132" lon="49.2000259"><time>2023-06-03T11:21:51.793</time></trkpt><trkpt lat="55.9309391" lon="49.1999178"><time>2023-06-03T11:21:55.797</time></trkpt><trkpt lat="55.9309741" lon="49.1998060"><time>2023-06-03T11:21:58.797</time></trkpt><trkpt lat="55.9310010" lon="49.1997079"><time>2023-06-03T11:22:01.790</time></trkpt><trkpt lat="55.9310024" lon="49.1996106"><time>2023-06-03T11:22:04.793</time></trkpt><trkpt lat="55.9309881" lon="49.1995192"><time>2023-06-03T11:22:07.797</time></trkpt><trkpt lat="55.9309877" lon="49.1994365"><time>2023-06-03T11:22:09.810</time></trkpt><trkpt lat="55.9309909" lon="49.1993326"><time>2023-06-03T11:22:12.800</time></trkpt><trkpt lat="55.9309964" lon="49.1992405"><time>2023-06-03T11:22:14.790</time></trkpt><trkpt lat="55.9310049" lon="49.1991223"><time>2023-06-03T11:22:17.807</time></trkpt><trkpt lat="55.9310139" lon="49.1990363"><time>2023-06-03T11:22:19.793</time></trkpt><trkpt lat="55.9310338" lon="49.1989209"><time>2023-06-03T11:22:22.790</time></trkpt><trkpt lat="55.9310408" lon="49.1988290"><time>2023-06-03T11:22:24.787</time></trkpt><trkpt lat="55.9310251" lon="49.1987491"><time>2023-06-03T11:22:26.800</time></trkpt><trkpt lat="55.9309994" lon="49.1986628"><time>2023-06-03T11:22:28.793</time></trkpt><trkpt lat="55.9309658" lon="49.1985985"><time>2023-06-03T11:22:30.780</time></trkpt><trkpt lat="55.9309348" lon="49.1985313"><time>2023-06-03T11:22:32.793</time></trkpt><trkpt lat="55.9309063" lon="49.1984604"><time>2023-06-03T11:22:34.803</time></trkpt><trkpt lat="55.9308909" lon="49.1983755"><time>2023-06-03T11:22:36.780</time></trkpt><trkpt lat="55.9308667" lon="49.1982928"><time>2023-06-03T11:22:38.797</time></trkpt><trkpt lat="55.9308452" lon="49.1981870"><time>2023-06-03T11:22:40.803</time></trkpt><trkpt lat="55.9308312" lon="49.1981050"><time>2023-06-03T11:22:42.797</time></trkpt><trkpt lat="55.9308016" lon="49.1980116"><time>2023-06-03T11:22:46.777</time></trkpt><trkpt lat="55.9307832" lon="49.1979057"><time>2023-06-03T11:22:49.800</time></trkpt><trkpt lat="55.9307728" lon="49.1977930"><time>2023-06-03T11:22:52.793</time></trkpt><trkpt lat="55.9307653" lon="49.1977058"><time>2023-06-03T11:22:54.797</time></trkpt><trkpt lat="55.9307455" lon="49.1976167"><time>2023-06-03T11:22:57.803</time></trkpt><trkpt lat="55.9307222" lon="49.1975408"><time>2023-06-03T11:23:00.787</time></trkpt><trkpt lat="55.9307039" lon="49.1974497"><time>2023-06-03T11:23:03.797</time></trkpt><trkpt lat="55.9306828" lon="49.1973770"><time>2023-06-03T11:23:05.807</time></trkpt><trkpt lat="55.9306410" lon="49.1973209"><time>2023-06-03T11:23:07.793</time></trkpt><trkpt lat="55.9305917" lon="49.1972705"><time>2023-06-03T11:23:10.793</time></trkpt><trkpt lat="55.9305333" lon="49.1972162"><time>2023-06-03T11:23:13.797</time></trkpt><trkpt lat="55.9304790" lon="49.1971992"><time>2023-06-03T11:23:15.803</time></trkpt><trkpt lat="55.9304039" lon="49.1971841"><time>2023-06-03T11:23:17.807</time></trkpt><trkpt lat="55.9303082" lon="49.1971698"><time>2023-06-03T11:23:19.793</time></trkpt><trkpt lat="55.9302605" lon="49.1971692"><time>2023-06-03T11:23:20.790</time></trkpt><trkpt lat="55.9301973" lon="49.1971864"><time>2023-06-03T11:23:22.803</time></trkpt><trkpt lat="55.9301356" lon="49.1972510"><time>2023-06-03T11:23:24.797</time></trkpt><trkpt lat="55.9300797" lon="49.1973059"><time>2023-06-03T11:23:26.780</time></trkpt><trkpt lat="55.9300240" lon="49.1973149"><time>2023-06-03T11:23:28.793</time></trkpt><trkpt lat="55.9299684" lon="49.1972788"><time>2023-06-03T11:23:31.800</time></trkpt><trkpt lat="55.9299061" lon="49.1972124"><time>2023-06-03T11:23:34.787</time></trkpt><trkpt lat="55.9298466" lon="49.1971403"><time>2023-06-03T11:23:36.780</time></trkpt><trkpt lat="55.9298112" lon="49.1970657"><time>2023-06-03T11:23:38.780</time></trkpt><trkpt lat="55.9297846" lon="49.1969967"><time>2023-06-03T11:23:40.800</time></trkpt><trkpt lat="55.9297651" lon="49.1968883"><time>2023-06-03T11:23:43.803</time></trkpt><trkpt lat="55.9297816" lon="49.1967922"><time>2023-06-03T11:23:45.780</time></trkpt><trkpt lat="55.9297999" lon="49.1967017"><time>2023-06-03T11:23:47.843</time></trkpt><trkpt lat="55.9298285" lon="49.1966134"><time>2023-06-03T11:23:49.807</time></trkpt><trkpt lat="55.9298581" lon="49.1965349"><time>2023-06-03T11:23:51.800</time></trkpt><trkpt lat="55.9298906" lon="49.1964786"><time>2023-06-03T11:23:53.817</time></trkpt><trkpt lat="55.9299218" lon="49.1964160"><time>2023-06-03T11:23:55.800</time></trkpt><trkpt lat="55.9299313" lon="49.1963095"><time>2023-06-03T11:23:58.800</time></trkpt><trkpt lat="55.9299273" lon="49.1961970"><time>2023-06-03T11:24:01.787</time></trkpt><trkpt lat="55.9299046" lon="49.1961114"><time>2023-06-03T11:24:03.793</time></trkpt><trkpt lat="55.9298630" lon="49.1960554"><time>2023-06-03T11:24:05.800</time></trkpt><trkpt lat="55.9298140" lon="49.1959866"><time>2023-06-03T11:24:08.783</time></trkpt><trkpt lat="55.9297846" lon="49.1959216"><time>2023-06-03T11:24:10.790</time></trkpt><trkpt lat="55.9297606" lon="49.1958453"><time>2023-06-03T11:24:13.783</time></trkpt><trkpt lat="55.9297371" lon="49.1957159"><time>2023-06-03T11:24:16.770</time></trkpt><trkpt lat="55.9297188" lon="49.1956374"><time>2023-06-03T11:24:19.787</time></trkpt><trkpt lat="55.9297082" lon="49.1955545"><time>2023-06-03T11:24:22.780</time></trkpt><trkpt lat="55.9296934" lon="49.1954752"><time>2023-06-03T11:24:25.787</time></trkpt><trkpt lat="55.9296848" lon="49.1953552"><time>2023-06-03T11:24:28.790</time></trkpt><trkpt lat="55.9296613" lon="49.1952649"><time>2023-06-03T11:24:31.793</time></trkpt><trkpt lat="55.9296343" lon="49.1951988"><time>2023-06-03T11:24:34.783</time></trkpt><trkpt lat="55.9296144" lon="49.1951118"><time>2023-06-03T11:24:36.783</time></trkpt><trkpt lat="55.9295562" lon="49.1950768"><time>2023-06-03T11:24:39.797</time></trkpt><trkpt lat="55.9294794" lon="49.1950633"><time>2023-06-03T11:24:41.793</time></trkpt><trkpt lat="55.9294047" lon="49.1950423"><time>2023-06-03T11:24:43.787</time></trkpt><trkpt lat="55.9293341" lon="49.1950281"><time>2023-06-03T11:24:45.807</time></trkpt><trkpt lat="55.9292585" lon="49.1950202"><time>2023-06-03T11:24:47.783</time></trkpt><trkpt lat="55.9291831" lon="49.1950025"><time>2023-06-03T11:24:49.797</time></trkpt><trkpt lat="55.9291245" lon="49.1949680"><time>2023-06-03T11:24:51.813</time></trkpt><trkpt lat="55.9290699" lon="49.1949724"><time>2023-06-03T11:24:53.790</time></trkpt><trkpt lat="55.9290075" lon="49.1949868"><time>2023-06-03T11:24:56.777</time></trkpt><trkpt lat="55.9289427" lon="49.1949950"><time>2023-06-03T11:24:58.787</time></trkpt><trkpt lat="55.9288714" lon="49.1950272"><time>2023-06-03T11:25:00.787</time></trkpt><trkpt lat="55.9287978" lon="49.1950505"><time>2023-06-03T11:25:02.783</time></trkpt><trkpt lat="55.9287373" lon="49.1950711"><time>2023-06-03T11:25:04.790</time></trkpt><trkpt lat="55.9286502" lon="49.1951007"><time>2023-06-03T11:25:06.777</time></trkpt><trkpt lat="55.9285643" lon="49.1951127"><time>2023-06-03T11:25:08.777</time></trkpt><trkpt lat="55.9284904" lon="49.1951189"><time>2023-06-03T11:25:10.807</time></trkpt><trkpt lat="55.9284109" lon="49.1951330"><time>2023-06-03T11:25:12.790</time></trkpt><trkpt lat="55.9283378" lon="49.1951217"><time>2023-06-03T11:25:14.797</time></trkpt><trkpt lat="55.9282635" lon="49.1950915"><time>2023-06-03T11:25:16.783</time></trkpt><trkpt lat="55.9281826" lon="49.1950841"><time>2023-06-03T11:25:18.797</time></trkpt><trkpt lat="55.9281232" lon="49.1950958"><time>2023-06-03T11:25:20.790</time></trkpt><trkpt lat="55.9280605" lon="49.1951026"><time>2023-06-03T11:25:22.790</time></trkpt><trkpt lat="55.9279951" lon="49.1950875"><time>2023-06-03T11:25:24.790</time></trkpt><trkpt lat="55.9279470" lon="49.1950619"><time>2023-06-03T11:25:29.793</time></trkpt><trkpt lat="55.9279073" lon="49.1950069"><time>2023-06-03T11:25:43.803</time></trkpt><trkpt lat="55.9278571" lon="49.1949109"><time>2023-06-03T11:25:46.797</time></trkpt><trkpt lat="55.9278298" lon="49.1948232"><time>2023-06-03T11:25:48.790</time></trkpt><trkpt lat="55.9277971" lon="49.1947393"><time>2023-06-03T11:25:50.823</time></trkpt><trkpt lat="55.9277618" lon="49.1946605"><time>2023-06-03T11:25:52.793</time></trkpt><trkpt lat="55.9277274" lon="49.1945802"><time>2023-06-03T11:25:54.797</time></trkpt><trkpt lat="55.9276889" lon="49.1944903"><time>2023-06-03T11:25:56.777</time></trkpt><trkpt lat="55.9276462" lon="49.1944376"><time>2023-06-03T11:25:58.797</time></trkpt><trkpt lat="55.9275859" lon="49.1944292"><time>2023-06-03T11:26:00.797</time></trkpt><trkpt lat="55.9275262" lon="49.1944324"><time>2023-06-03T11:26:02.793</time></trkpt><trkpt lat="55.9274540" lon="49.1944455"><time>2023-06-03T11:26:04.817</time></trkpt><trkpt lat="55.9273851" lon="49.1944955"><time>2023-06-03T11:26:06.787</time></trkpt><trkpt lat="55.9273156" lon="49.1945624"><time>2023-06-03T11:26:08.793</time></trkpt><trkpt lat="55.9272541" lon="49.1946110"><time>2023-06-03T11:26:10.800</time></trkpt><trkpt lat="55.9271955" lon="49.1946460"><time>2023-06-03T11:26:12.790</time></trkpt><trkpt lat="55.9271365" lon="49.1946875"><time>2023-06-03T11:26:14.787</time></trkpt><trkpt lat="55.9270728" lon="49.1947430"><time>2023-06-03T11:26:16.777</time></trkpt><trkpt lat="55.9270223" lon="49.1947907"><time>2023-06-03T11:26:18.793</time></trkpt><trkpt lat="55.9269547" lon="49.1948459"><time>2023-06-03T11:26:20.800</time></trkpt><trkpt lat="55.9269102" lon="49.1948836"><time>2023-06-03T11:26:21.813</time></trkpt><trkpt lat="55.9268672" lon="49.1949225"><time>2023-06-03T11:26:22.793</time></trkpt><trkpt lat="55.9267552" lon="49.1949897"><time>2023-06-03T11:26:24.793</time></trkpt><trkpt lat="55.9266810" lon="49.1950138"><time>2023-06-03T11:26:26.783</time></trkpt><trkpt lat="55.9266093" lon="49.1950487"><time>2023-06-03T11:26:28.800</time></trkpt><trkpt lat="55.9265320" lon="49.1951130"><time>2023-06-03T11:26:30.787</time></trkpt><trkpt lat="55.9264662" lon="49.1951363"><time>2023-06-03T11:26:33.837</time></trkpt><trkpt lat="55.9264087" lon="49.1951797"><time>2023-06-03T11:26:35.790</time></trkpt><trkpt lat="55.9263501" lon="49.1952258"><time>2023-06-03T11:26:37.793</time></trkpt><trkpt lat="55.9263082" lon="49.1952594"><time>2023-06-03T11:26:39.820</time></trkpt><trkpt lat="55.9262516" lon="49.1953082"><time>2023-06-03T11:26:41.787</time></trkpt><trkpt lat="55.9262065" lon="49.1953465"><time>2023-06-03T11:26:43.803</time></trkpt><trkpt lat="55.9261612" lon="49.1953869"><time>2023-06-03T11:26:45.827</time></trkpt><trkpt lat="55.9260991" lon="49.1954368"><time>2023-06-03T11:26:47.800</time></trkpt><trkpt lat="55.9260103" lon="49.1954792"><time>2023-06-03T11:26:49.783</time></trkpt><trkpt lat="55.9259619" lon="49.1954992"><time>2023-06-03T11:26:50.780</time></trkpt><trkpt lat="55.9259134" lon="49.1955157"><time>2023-06-03T11:26:51.807</time></trkpt><trkpt lat="55.9258473" lon="49.1955566"><time>2023-06-03T11:26:53.787</time></trkpt><trkpt lat="55.9257805" lon="49.1956285"><time>2023-06-03T11:26:55.790</time></trkpt><trkpt lat="55.9257419" lon="49.1956702"><time>2023-06-03T11:26:56.787</time></trkpt><trkpt lat="55.9256962" lon="49.1957088"><time>2023-06-03T11:26:57.797</time></trkpt><trkpt lat="55.9256519" lon="49.1957441"><time>2023-06-03T11:26:58.790</time></trkpt><trkpt lat="55.9255632" lon="49.1957946"><time>2023-06-03T11:26:59.797</time></trkpt><trkpt lat="55.9255138" lon="49.1958256"><time>2023-06-03T11:27:00.787</time></trkpt><trkpt lat="55.9254440" lon="49.1959033"><time>2023-06-03T11:27:02.803</time></trkpt><trkpt lat="55.9254046" lon="49.1959441"><time>2023-06-03T11:27:03.787</time></trkpt><trkpt lat="55.9253480" lon="49.1959813"><time>2023-06-03T11:27:04.777</time></trkpt><trkpt lat="55.9253010" lon="49.1959951"><time>2023-06-03T11:27:05.787</time></trkpt><trkpt lat="55.9252537" lon="49.1960580"><time>2023-06-03T11:27:06.793</time></trkpt><trkpt lat="55.9252015" lon="49.1960974"><time>2023-06-03T11:27:07.783</time></trkpt><trkpt lat="55.9251339" lon="49.1961436"><time>2023-06-03T11:27:08.827</time></trkpt><trkpt lat="55.9250804" lon="49.1961872"><time>2023-06-03T11:27:10.790</time></trkpt><trkpt lat="55.9250393" lon="49.1962309"><time>2023-06-03T11:27:11.793</time></trkpt><trkpt lat="55.9249546" lon="49.1963149"><time>2023-06-03T11:27:13.783</time></trkpt><trkpt lat="55.9249042" lon="49.1963544"><time>2023-06-03T11:27:14.800</time></trkpt><trkpt lat="55.9248571" lon="49.1964148"><time>2023-06-03T11:27:15.780</time></trkpt><trkpt lat="55.9248185" lon="49.1964611"><time>2023-06-03T11:27:16.777</time></trkpt><trkpt lat="55.9247461" lon="49.1965004"><time>2023-06-03T11:27:18.787</time></trkpt><trkpt lat="55.9246645" lon="49.1965183"><time>2023-06-03T11:27:20.810</time></trkpt><trkpt lat="55.9246231" lon="49.1965583"><time>2023-06-03T11:27:21.793</time></trkpt><trkpt lat="55.9245615" lon="49.1965857"><time>2023-06-03T11:27:23.790</time></trkpt><trkpt lat="55.9245077" lon="49.1966101"><time>2023-06-03T11:27:25.790</time></trkpt><trkpt lat="55.9244541" lon="49.1966265"><time>2023-06-03T11:27:26.787</time></trkpt><trkpt lat="55.9244049" lon="49.1966686"><time>2023-06-03T11:27:29.790</time></trkpt><trkpt lat="55.9244524" lon="49.1966859"><time>2023-06-03T11:27:46.787</time></trkpt><trkpt lat="55.9245206" lon="49.1966305"><time>2023-06-03T11:27:48.780</time></trkpt><trkpt lat="55.9245975" lon="49.1965645"><time>2023-06-03T11:27:50.780</time></trkpt><trkpt lat="55.9246476" lon="49.1965308"><time>2023-06-03T11:27:51.787</time></trkpt><trkpt lat="55.9246934" lon="49.1965057"><time>2023-06-03T11:27:52.780</time></trkpt><trkpt lat="55.9247618" lon="49.1964666"><time>2023-06-03T11:27:54.780</time></trkpt><trkpt lat="55.9248352" lon="49.1964257"><time>2023-06-03T11:27:56.787</time></trkpt><trkpt lat="55.9249079" lon="49.1963763"><time>2023-06-03T11:27:58.777</time></trkpt><trkpt lat="55.9249924" lon="49.1963311"><time>2023-06-03T11:28:00.800</time></trkpt><trkpt lat="55.9250593" lon="49.1962861"><time>2023-06-03T11:28:02.780</time></trkpt><trkpt lat="55.9251101" lon="49.1962302"><time>2023-06-03T11:28:04.780</time></trkpt><trkpt lat="55.9251756" lon="49.1961666"><time>2023-06-03T11:28:06.780</time></trkpt><trkpt lat="55.9252364" lon="49.1961099"><time>2023-06-03T11:28:08.783</time></trkpt><trkpt lat="55.9252883" lon="49.1960483"><time>2023-06-03T11:28:10.787</time></trkpt><trkpt lat="55.9253454" lon="49.1959925"><time>2023-06-03T11:28:12.803</time></trkpt><trkpt lat="55.9254022" lon="49.1959449"><time>2023-06-03T11:28:14.777</time></trkpt><trkpt lat="55.9254677" lon="49.1958993"><time>2023-06-03T11:28:16.780</time></trkpt><trkpt lat="55.9255222" lon="49.1958745"><time>2023-06-03T11:28:18.783</time></trkpt><trkpt lat="55.9255788" lon="49.1958391"><time>2023-06-03T11:28:20.777</time></trkpt><trkpt lat="55.9256477" lon="49.1957893"><time>2023-06-03T11:28:22.787</time></trkpt><trkpt lat="55.9257155" lon="49.1957284"><time>2023-06-03T11:28:24.797</time></trkpt><trkpt lat="55.9257716" lon="49.1956488"><time>2023-06-03T11:28:26.783</time></trkpt><trkpt lat="55.9257949" lon="49.1955515"><time>2023-06-03T11:28:28.783</time></trkpt><trkpt lat="55.9257841" lon="49.1954703"><time>2023-06-03T11:28:30.780</time></trkpt><trkpt lat="55.9257600" lon="49.1953695"><time>2023-06-03T11:28:32.797</time></trkpt><trkpt lat="55.9257270" lon="49.1953016"><time>2023-06-03T11:28:34.777</time></trkpt><trkpt lat="55.9256492" lon="49.1952412"><time>2023-06-03T11:28:36.780</time></trkpt><trkpt lat="55.9255986" lon="49.1952053"><time>2023-06-03T11:28:37.793</time></trkpt><trkpt lat="55.9255542" lon="49.1951671"><time>2023-06-03T11:28:38.780</time></trkpt><trkpt lat="55.9255130" lon="49.1951228"><time>2023-06-03T11:28:39.783</time></trkpt><trkpt lat="55.9254763" lon="49.1950744"><time>2023-06-03T11:28:40.780</time></trkpt><trkpt lat="55.9254160" lon="49.1949759"><time>2023-06-03T11:28:42.777</time></trkpt><trkpt lat="55.9253495" lon="49.1948704"><time>2023-06-03T11:28:44.787</time></trkpt><trkpt lat="55.9253128" lon="49.1948145"><time>2023-06-03T11:28:45.783</time></trkpt><trkpt lat="55.9252787" lon="49.1947612"><time>2023-06-03T11:28:46.777</time></trkpt><trkpt lat="55.9252430" lon="49.1947102"><time>2023-06-03T11:28:47.787</time></trkpt><trkpt lat="55.9251997" lon="49.1946661"><time>2023-06-03T11:28:48.780</time></trkpt><trkpt lat="55.9250998" lon="49.1945950"><time>2023-06-03T11:28:49.803</time></trkpt><trkpt lat="55.9250870" lon="49.1944731"><time>2023-06-03T11:28:50.787</time></trkpt><trkpt lat="55.9250584" lon="49.1943633"><time>2023-06-03T11:28:51.787</time></trkpt><trkpt lat="55.9250073" lon="49.1943525"><time>2023-06-03T11:28:52.790</time></trkpt><trkpt lat="55.9250232" lon="49.1942426"><time>2023-06-03T11:28:53.787</time></trkpt><trkpt lat="55.9250675" lon="49.1942124"><time>2023-06-03T11:28:54.787</time></trkpt><trkpt lat="55.9251006" lon="49.1940944"><time>2023-06-03T11:28:56.783</time></trkpt><trkpt lat="55.9250926" lon="49.1940143"><time>2023-06-03T11:28:58.777</time></trkpt><trkpt lat="55.9250992" lon="49.1939201"><time>2023-06-03T11:29:00.790</time></trkpt><trkpt lat="55.9251216" lon="49.1938153"><time>2023-06-03T11:29:02.777</time></trkpt><trkpt lat="55.9251300" lon="49.1937063"><time>2023-06-03T11:29:04.787</time></trkpt><trkpt lat="55.9251681" lon="49.1935506"><time>2023-06-03T11:29:06.780</time></trkpt><trkpt lat="55.9251894" lon="49.1934186"><time>2023-06-03T11:29:07.813</time></trkpt><trkpt lat="55.9251978" lon="49.1933202"><time>2023-06-03T11:29:08.780</time></trkpt><trkpt lat="55.9252259" lon="49.1931868"><time>2023-06-03T11:29:10.780</time></trkpt><trkpt lat="55.9252165" lon="49.1930570"><time>2023-06-03T11:29:12.783</time></trkpt><trkpt lat="55.9252120" lon="49.1929758"><time>2023-06-03T11:29:14.783</time></trkpt><trkpt lat="55.9251991" lon="49.1928598"><time>2023-06-03T11:29:16.777</time></trkpt><trkpt lat="55.9252211" lon="49.1927180"><time>2023-06-03T11:29:18.780</time></trkpt><trkpt lat="55.9252450" lon="49.1926360"><time>2023-06-03T11:29:19.823</time></trkpt><trkpt lat="55.9252682" lon="49.1925596"><time>2023-06-03T11:29:20.790</time></trkpt><trkpt lat="55.9252899" lon="49.1924211"><time>2023-06-03T11:29:22.787</time></trkpt><trkpt lat="55.9252893" lon="49.1923210"><time>2023-06-03T11:29:24.787</time></trkpt><trkpt lat="55.9252868" lon="49.1922187"><time>2023-06-03T11:29:26.780</time></trkpt><trkpt lat="55.9252909" lon="49.1921353"><time>2023-06-03T11:29:28.790</time></trkpt><trkpt lat="55.9252902" lon="49.1920458"><time>2023-06-03T11:29:30.780</time></trkpt><trkpt lat="55.9252860" lon="49.1919330"><time>2023-06-03T11:29:32.793</time></trkpt><trkpt lat="55.9252817" lon="49.1917933"><time>2023-06-03T11:29:34.800</time></trkpt><trkpt lat="55.9252793" lon="49.1916681"><time>2023-06-03T11:29:36.777</time></trkpt><trkpt lat="55.9252836" lon="49.1915610"><time>2023-06-03T11:29:38.783</time></trkpt><trkpt lat="55.9252847" lon="49.1914106"><time>2023-06-03T11:29:40.777</time></trkpt><trkpt lat="55.9252765" lon="49.1912910"><time>2023-06-03T11:29:42.780</time></trkpt><trkpt lat="55.9252686" lon="49.1911999"><time>2023-06-03T11:29:44.787</time></trkpt><trkpt lat="55.9252793" lon="49.1910990"><time>2023-06-03T11:29:46.800</time></trkpt><trkpt lat="55.9252904" lon="49.1909983"><time>2023-06-03T11:29:48.793</time></trkpt><trkpt lat="55.9252930" lon="49.1909520"><time>2023-06-03T11:29:49.793</time></trkpt><trkpt lat="55.9252865" lon="49.1908384"><time>2023-06-03T11:29:52.780</time></trkpt><trkpt lat="55.9252760" lon="49.1907289"><time>2023-06-03T11:29:55.817</time></trkpt><trkpt lat="55.9252836" lon="49.1906388"><time>2023-06-03T11:29:58.793</time></trkpt><trkpt lat="55.9253002" lon="49.1905160"><time>2023-06-03T11:30:01.797</time></trkpt><trkpt lat="55.9253142" lon="49.1904367"><time>2023-06-03T11:30:03.790</time></trkpt><trkpt lat="55.9253349" lon="49.1903553"><time>2023-06-03T11:30:05.790</time></trkpt><trkpt lat="55.9253519" lon="49.1902683"><time>2023-06-03T11:30:07.813</time></trkpt><trkpt lat="55.9253481" lon="49.1901807"><time>2023-06-03T11:30:10.787</time></trkpt><trkpt lat="55.9253287" lon="49.1900975"><time>2023-06-03T11:30:32.780</time></trkpt><trkpt lat="55.9253313" lon="49.1899960"><time>2023-06-03T11:30:37.800</time></trkpt><trkpt lat="55.9253594" lon="49.1899224"><time>2023-06-03T11:30:40.780</time></trkpt><trkpt lat="55.9253698" lon="49.1898273"><time>2023-06-03T11:30:43.833</time></trkpt><trkpt lat="55.9253589" lon="49.1897319"><time>2023-06-03T11:30:47.787</time></trkpt><trkpt lat="55.9253556" lon="49.1896400"><time>2023-06-03T11:30:50.780</time></trkpt><trkpt lat="55.9253517" lon="49.1895543"><time>2023-06-03T11:30:53.783</time></trkpt><trkpt lat="55.9253399" lon="49.1894746"><time>2023-06-03T11:30:57.780</time></trkpt><trkpt lat="55.9253438" lon="49.1893897"><time>2023-06-03T11:31:00.793</time></trkpt><trkpt lat="55.9253421" lon="49.1893595"><time>2023-06-03T11:31:01.810</time></trkpt><trkpt lat="55.9253531" lon="49.1892765"><time>2023-06-03T11:31:04.780</time></trkpt><trkpt lat="55.9253668" lon="49.1891843"><time>2023-06-03T11:31:07.827</time></trkpt><trkpt lat="55.9253849" lon="49.1890981"><time>2023-06-03T11:31:09.787</time></trkpt><trkpt lat="55.9254125" lon="49.1889890"><time>2023-06-03T11:31:11.777</time></trkpt><trkpt lat="55.9254327" lon="49.1888876"><time>2023-06-03T11:31:13.803</time></trkpt><trkpt lat="55.9254466" lon="49.1887639"><time>2023-06-03T11:31:15.790</time></trkpt><trkpt lat="55.9254538" lon="49.1886290"><time>2023-06-03T11:31:17.820</time></trkpt><trkpt lat="55.9254532" lon="49.1885628"><time>2023-06-03T11:31:18.787</time></trkpt><trkpt lat="55.9254443" lon="49.1884610"><time>2023-06-03T11:31:20.787</time></trkpt><trkpt lat="55.9254450" lon="49.1883593"><time>2023-06-03T11:31:22.783</time></trkpt><trkpt lat="55.9254608" lon="49.1882314"><time>2023-06-03T11:31:24.800</time></trkpt><trkpt lat="55.9254656" lon="49.1881360"><time>2023-06-03T11:31:26.807</time></trkpt><trkpt lat="55.9254656" lon="49.1881360"><time>2023-06-03T11:31:26.843</time></trkpt><trkpt lat="55.9254761" lon="49.1880561"><time>2023-06-03T11:31:28.807</time></trkpt><trkpt lat="55.9254800" lon="49.1880436"><time>2023-06-03T11:31:29.783</time></trkpt><trkpt lat="55.9254839" lon="49.1881584"><time>2023-06-03T11:31:33.793</time></trkpt><trkpt lat="55.9254940" lon="49.1882627"><time>2023-06-03T11:31:35.783</time></trkpt><trkpt lat="55.9255058" lon="49.1883975"><time>2023-06-03T11:31:37.797</time></trkpt><trkpt lat="55.9255133" lon="49.1884995"><time>2023-06-03T11:31:39.787</time></trkpt><trkpt lat="55.9255151" lon="49.1886057"><time>2023-06-03T11:31:41.787</time></trkpt><trkpt lat="55.9254930" lon="49.1887192"><time>2023-06-03T11:31:43.813</time></trkpt><trkpt lat="55.9254607" lon="49.1888391"><time>2023-06-03T11:31:45.783</time></trkpt><trkpt lat="55.9254251" lon="49.1889698"><time>2023-06-03T11:31:47.783</time></trkpt><trkpt lat="55.9254045" lon="49.1890542"><time>2023-06-03T11:31:49.793</time></trkpt><trkpt lat="55.9253959" lon="49.1891568"><time>2023-06-03T11:31:51.780</time></trkpt><trkpt lat="55.9253890" lon="49.1892799"><time>2023-06-03T11:31:53.793</time></trkpt><trkpt lat="55.9253942" lon="49.1894057"><time>2023-06-03T11:31:55.810</time></trkpt><trkpt lat="55.9254019" lon="49.1895037"><time>2023-06-03T11:31:57.797</time></trkpt><trkpt lat="55.9253994" lon="49.1896100"><time>2023-06-03T11:31:59.783</time></trkpt><trkpt lat="55.9253790" lon="49.1897199"><time>2023-06-03T11:32:01.800</time></trkpt><trkpt lat="55.9253607" lon="49.1898288"><time>2023-06-03T11:32:03.793</time></trkpt><trkpt lat="55.9253409" lon="49.1899295"><time>2023-06-03T11:32:05.793</time></trkpt><trkpt lat="55.9253149" lon="49.1900363"><time>2023-06-03T11:32:07.817</time></trkpt><trkpt lat="55.9253103" lon="49.1901173"><time>2023-06-03T11:32:13.800</time></trkpt><trkpt lat="55.9253223" lon="49.1902155"><time>2023-06-03T11:33:17.793</time></trkpt><trkpt lat="55.9253119" lon="49.1903121"><time>2023-06-03T11:33:19.817</time></trkpt><trkpt lat="55.9252909" lon="49.1904152"><time>2023-06-03T11:33:21.780</time></trkpt><trkpt lat="55.9252647" lon="49.1905206"><time>2023-06-03T11:33:23.787</time></trkpt><trkpt lat="55.9252548" lon="49.1906145"><time>2023-06-03T11:33:25.800</time></trkpt><trkpt lat="55.9252608" lon="49.1907055"><time>2023-06-03T11:33:27.793</time></trkpt><trkpt lat="55.9252852" lon="49.1908129"><time>2023-06-03T11:33:29.783</time></trkpt><trkpt lat="55.9252989" lon="49.1909180"><time>2023-06-03T11:33:31.780</time></trkpt><trkpt lat="55.9252824" lon="49.1910406"><time>2023-06-03T11:33:33.790</time></trkpt><trkpt lat="55.9252588" lon="49.1911546"><time>2023-06-03T11:33:35.790</time></trkpt><trkpt lat="55.9252469" lon="49.1912742"><time>2023-06-03T11:33:37.793</time></trkpt><trkpt lat="55.9252491" lon="49.1913790"><time>2023-06-03T11:33:39.787</time></trkpt><trkpt lat="55.9252579" lon="49.1914642"><time>2023-06-03T11:33:41.787</time></trkpt><trkpt lat="55.9252616" lon="49.1915595"><time>2023-06-03T11:33:43.787</time></trkpt><trkpt lat="55.9252519" lon="49.1916596"><time>2023-06-03T11:33:45.773</time></trkpt><trkpt lat="55.9252308" lon="49.1917800"><time>2023-06-03T11:33:47.777</time></trkpt><trkpt lat="55.9252159" lon="49.1918979"><time>2023-06-03T11:33:49.787</time></trkpt><trkpt lat="55.9252166" lon="49.1920056"><time>2023-06-03T11:33:51.790</time></trkpt><trkpt lat="55.9252029" lon="49.1921217"><time>2023-06-03T11:33:53.787</time></trkpt><trkpt lat="55.9251923" lon="49.1922421"><time>2023-06-03T11:33:55.787</time></trkpt><trkpt lat="55.9251951" lon="49.1923696"><time>2023-06-03T11:33:57.783</time></trkpt><trkpt lat="55.9252011" lon="49.1925081"><time>2023-06-03T11:33:59.783</time></trkpt><trkpt lat="55.9252045" lon="49.1926310"><time>2023-06-03T11:34:01.783</time></trkpt><trkpt lat="55.9251991" lon="49.1927301"><time>2023-06-03T11:34:03.793</time></trkpt><trkpt lat="55.9251908" lon="49.1928548"><time>2023-06-03T11:34:05.780</time></trkpt><trkpt lat="55.9251830" lon="49.1930037"><time>2023-06-03T11:34:07.780</time></trkpt><trkpt lat="55.9251723" lon="49.1931639"><time>2023-06-03T11:34:09.783</time></trkpt><trkpt lat="55.9251418" lon="49.1933008"><time>2023-06-03T11:34:10.780</time></trkpt><trkpt lat="55.9251277" lon="49.1934506"><time>2023-06-03T11:34:12.803</time></trkpt><trkpt lat="55.9251227" lon="49.1935813"><time>2023-06-03T11:34:14.797</time></trkpt><trkpt lat="55.9251195" lon="49.1937093"><time>2023-06-03T11:34:16.780</time></trkpt><trkpt lat="55.9251235" lon="49.1937936"><time>2023-06-03T11:34:17.790</time></trkpt><trkpt lat="55.9251080" lon="49.1938705"><time>2023-06-03T11:34:18.813</time></trkpt><trkpt lat="55.9250969" lon="49.1939480"><time>2023-06-03T11:34:19.783</time></trkpt><trkpt lat="55.9250743" lon="49.1940482"><time>2023-06-03T11:34:20.783</time></trkpt><trkpt lat="55.9250625" lon="49.1941295"><time>2023-06-03T11:34:21.787</time></trkpt><trkpt lat="55.9250491" lon="49.1942101"><time>2023-06-03T11:34:22.777</time></trkpt><trkpt lat="55.9250356" lon="49.1943472"><time>2023-06-03T11:34:24.800</time></trkpt><trkpt lat="55.9250264" lon="49.1944745"><time>2023-06-03T11:34:26.777</time></trkpt><trkpt lat="55.9250492" lon="49.1945993"><time>2023-06-03T11:34:28.790</time></trkpt><trkpt lat="55.9251054" lon="49.1946943"><time>2023-06-03T11:34:30.813</time></trkpt><trkpt lat="55.9251646" lon="49.1947655"><time>2023-06-03T11:34:32.777</time></trkpt><trkpt lat="55.9252322" lon="49.1948248"><time>2023-06-03T11:34:34.790</time></trkpt><trkpt lat="55.9252886" lon="49.1948943"><time>2023-06-03T11:34:36.790</time></trkpt><trkpt lat="55.9253455" lon="49.1949673"><time>2023-06-03T11:34:38.790</time></trkpt><trkpt lat="55.9254144" lon="49.1950330"><time>2023-06-03T11:34:40.787</time></trkpt><trkpt lat="55.9254750" lon="49.1950753"><time>2023-06-03T11:34:42.817</time></trkpt><trkpt lat="55.9255493" lon="49.1951317"><time>2023-06-03T11:34:44.790</time></trkpt><trkpt lat="55.9256127" lon="49.1952001"><time>2023-06-03T11:34:46.777</time></trkpt><trkpt lat="55.9256510" lon="49.1952563"><time>2023-06-03T11:34:48.793</time></trkpt><trkpt lat="55.9256878" lon="49.1953272"><time>2023-06-03T11:34:50.787</time></trkpt><trkpt lat="55.9257362" lon="49.1953894"><time>2023-06-03T11:34:52.777</time></trkpt><trkpt lat="55.9257754" lon="49.1954489"><time>2023-06-03T11:34:55.790</time></trkpt><trkpt lat="55.9257935" lon="49.1955325"><time>2023-06-03T11:34:57.783</time></trkpt><trkpt lat="55.9257745" lon="49.1956279"><time>2023-06-03T11:34:59.793</time></trkpt><trkpt lat="55.9257311" lon="49.1957318"><time>2023-06-03T11:35:01.787</time></trkpt><trkpt lat="55.9256577" lon="49.1958183"><time>2023-06-03T11:35:03.783</time></trkpt><trkpt lat="55.9256141" lon="49.1958573"><time>2023-06-03T11:35:04.777</time></trkpt><trkpt lat="55.9255724" lon="49.1958899"><time>2023-06-03T11:35:05.807</time></trkpt><trkpt lat="55.9254891" lon="49.1959352"><time>2023-06-03T11:35:07.797</time></trkpt><trkpt lat="55.9253973" lon="49.1959184"><time>2023-06-03T11:35:08.780</time></trkpt><trkpt lat="55.9253410" lon="49.1959967"><time>2023-06-03T11:35:10.783</time></trkpt><trkpt lat="55.9252897" lon="49.1960075"><time>2023-06-03T11:35:11.803</time></trkpt><trkpt lat="55.9252374" lon="49.1960542"><time>2023-06-03T11:35:12.797</time></trkpt><trkpt lat="55.9251913" lon="49.1960659"><time>2023-06-03T11:35:13.783</time></trkpt><trkpt lat="55.9251134" lon="49.1960944"><time>2023-06-03T11:35:15.800</time></trkpt><trkpt lat="55.9250665" lon="49.1961090"><time>2023-06-03T11:35:17.810</time></trkpt><trkpt lat="55.9250360" lon="49.1961677"><time>2023-06-03T11:35:18.780</time></trkpt><trkpt lat="55.9249649" lon="49.1962058"><time>2023-06-03T11:35:19.790</time></trkpt><trkpt lat="55.9249180" lon="49.1962866"><time>2023-06-03T11:35:20.787</time></trkpt><trkpt lat="55.9248717" lon="49.1963423"><time>2023-06-03T11:35:21.793</time></trkpt><trkpt lat="55.9247868" lon="49.1963781"><time>2023-06-03T11:35:23.797</time></trkpt><trkpt lat="55.9246967" lon="49.1964280"><time>2023-06-03T11:35:25.780</time></trkpt><trkpt lat="55.9245914" lon="49.1964962"><time>2023-06-03T11:35:27.790</time></trkpt><trkpt lat="55.9245480" lon="49.1965374"><time>2023-06-03T11:35:28.780</time></trkpt><trkpt lat="55.9245081" lon="49.1965952"><time>2023-06-03T11:35:29.813</time></trkpt><trkpt lat="55.9244625" lon="49.1966540"><time>2023-06-03T11:35:30.783</time></trkpt><trkpt lat="55.9244144" lon="49.1967079"><time>2023-06-03T11:35:31.790</time></trkpt><trkpt lat="55.9243794" lon="49.1967630"><time>2023-06-03T11:35:32.780</time></trkpt><trkpt lat="55.9243205" lon="49.1967993"><time>2023-06-03T11:35:33.790</time></trkpt><trkpt lat="55.9242254" lon="49.1968192"><time>2023-06-03T11:35:36.773</time></trkpt><trkpt lat="55.9241735" lon="49.1968177"><time>2023-06-03T11:35:37.787</time></trkpt><trkpt lat="55.9241020" lon="49.1968311"><time>2023-06-03T11:35:39.783</time></trkpt><trkpt lat="55.9240438" lon="49.1968626"><time>2023-06-03T11:35:40.793</time></trkpt><trkpt lat="55.9240057" lon="49.1969134"><time>2023-06-03T11:35:41.817</time></trkpt><trkpt lat="55.9239470" lon="49.1969732"><time>2023-06-03T11:35:42.783</time></trkpt><trkpt lat="55.9238824" lon="49.1970147"><time>2023-06-03T11:35:44.783</time></trkpt><trkpt lat="55.9238198" lon="49.1970835"><time>2023-06-03T11:35:46.770</time></trkpt><trkpt lat="55.9237781" lon="49.1971304"><time>2023-06-03T11:35:47.800</time></trkpt><trkpt lat="55.9237269" lon="49.1971651"><time>2023-06-03T11:35:48.767</time></trkpt><trkpt lat="55.9236545" lon="49.1972302"><time>2023-06-03T11:35:50.777</time></trkpt><trkpt lat="55.9236000" lon="49.1972662"><time>2023-06-03T11:35:51.780</time></trkpt><trkpt lat="55.9235492" lon="49.1973086"><time>2023-06-03T11:35:52.780</time></trkpt><trkpt lat="55.9235016" lon="49.1973474"><time>2023-06-03T11:35:56.787</time></trkpt><trkpt lat="55.9234390" lon="49.1973766"><time>2023-06-03T11:35:56.793</time></trkpt><trkpt lat="55.9233422" lon="49.1974345"><time>2023-06-03T11:35:56.800</time></trkpt><trkpt lat="55.9232687" lon="49.1975314"><time>2023-06-03T11:35:56.807</time></trkpt><trkpt lat="55.9232193" lon="49.1975780"><time>2023-06-03T11:35:57.773</time></trkpt><trkpt lat="55.9231328" lon="49.1976026"><time>2023-06-03T11:35:58.780</time></trkpt><trkpt lat="55.9230542" lon="49.1976566"><time>2023-06-03T11:35:59.780</time></trkpt><trkpt lat="55.9229811" lon="49.1976841"><time>2023-06-03T11:36:00.783</time></trkpt><trkpt lat="55.9228844" lon="49.1977647"><time>2023-06-03T11:36:02.793</time></trkpt><trkpt lat="55.9228241" lon="49.1977823"><time>2023-06-03T11:36:03.830</time></trkpt><trkpt lat="55.9227626" lon="49.1977928"><time>2023-06-03T11:36:04.777</time></trkpt><trkpt lat="55.9226820" lon="49.1977845"><time>2023-06-03T11:36:05.787</time></trkpt><trkpt lat="55.9226197" lon="49.1978227"><time>2023-06-03T11:36:06.787</time></trkpt><trkpt lat="55.9225678" lon="49.1978820"><time>2023-06-03T11:36:07.790</time></trkpt><trkpt lat="55.9224971" lon="49.1979256"><time>2023-06-03T11:36:08.790</time></trkpt><trkpt lat="55.9224557" lon="49.1979878"><time>2023-06-03T11:36:09.793</time></trkpt><trkpt lat="55.9223924" lon="49.1980495"><time>2023-06-03T11:36:10.800</time></trkpt><trkpt lat="55.9223545" lon="49.1981283"><time>2023-06-03T11:36:11.780</time></trkpt><trkpt lat="55.9223036" lon="49.1981629"><time>2023-06-03T11:36:12.787</time></trkpt><trkpt lat="55.9222439" lon="49.1982008"><time>2023-06-03T11:36:13.773</time></trkpt><trkpt lat="55.9221837" lon="49.1981987"><time>2023-06-03T11:36:14.777</time></trkpt><trkpt lat="55.9221293" lon="49.1982221"><time>2023-06-03T11:36:15.820</time></trkpt><trkpt lat="55.9220838" lon="49.1982545"><time>2023-06-03T11:36:16.770</time></trkpt><trkpt lat="55.9220402" lon="49.1983020"><time>2023-06-03T11:36:17.777</time></trkpt><trkpt lat="55.9219789" lon="49.1983427"><time>2023-06-03T11:36:18.790</time></trkpt><trkpt lat="55.9219182" lon="49.1983882"><time>2023-06-03T11:36:19.790</time></trkpt><trkpt lat="55.9218596" lon="49.1984498"><time>2023-06-03T11:36:20.780</time></trkpt><trkpt lat="55.9218048" lon="49.1984662"><time>2023-06-03T11:36:21.797</time></trkpt><trkpt lat="55.9217476" lon="49.1985008"><time>2023-06-03T11:36:22.777</time></trkpt><trkpt lat="55.9216866" lon="49.1985310"><time>2023-06-03T11:36:23.787</time></trkpt><trkpt lat="55.9216209" lon="49.1985821"><time>2023-06-03T11:36:24.787</time></trkpt><trkpt lat="55.9215340" lon="49.1986327"><time>2023-06-03T11:36:25.787</time></trkpt><trkpt lat="55.9214674" lon="49.1986772"><time>2023-06-03T11:36:26.777</time></trkpt><trkpt lat="55.9213587" lon="49.1987571"><time>2023-06-03T11:36:28.787</time></trkpt><trkpt lat="55.9213086" lon="49.1988121"><time>2023-06-03T11:36:29.787</time></trkpt><trkpt lat="55.9212585" lon="49.1988519"><time>2023-06-03T11:36:30.777</time></trkpt><trkpt lat="55.9211928" lon="49.1988841"><time>2023-06-03T11:36:31.797</time></trkpt><trkpt lat="55.9211152" lon="49.1989501"><time>2023-06-03T11:36:32.780</time></trkpt><trkpt lat="55.9210710" lon="49.1989900"><time>2023-06-03T11:36:33.813</time></trkpt><trkpt lat="55.9210257" lon="49.1990711"><time>2023-06-03T11:36:34.780</time></trkpt><trkpt lat="55.9209611" lon="49.1991058"><time>2023-06-03T11:36:35.797</time></trkpt><trkpt lat="55.9208989" lon="49.1991712"><time>2023-06-03T11:36:37.797</time></trkpt><trkpt lat="55.9208470" lon="49.1992060"><time>2023-06-03T11:36:38.790</time></trkpt><trkpt lat="55.9207982" lon="49.1992196"><time>2023-06-03T11:36:39.827</time></trkpt><trkpt lat="55.9207500" lon="49.1992568"><time>2023-06-03T11:36:40.777</time></trkpt><trkpt lat="55.9206941" lon="49.1992656"><time>2023-06-03T11:36:41.797</time></trkpt><trkpt lat="55.9206148" lon="49.1993072"><time>2023-06-03T11:36:43.783</time></trkpt><trkpt lat="55.9205434" lon="49.1993900"><time>2023-06-03T11:36:45.810</time></trkpt><trkpt lat="55.9204970" lon="49.1994040"><time>2023-06-03T11:36:47.787</time></trkpt><trkpt lat="55.9204372" lon="49.1993882"><time>2023-06-03T11:36:48.790</time></trkpt><trkpt lat="55.9204006" lon="49.1993276"><time>2023-06-03T11:36:55.783</time></trkpt><trkpt lat="55.9203603" lon="49.1993815"><time>2023-06-03T11:36:57.780</time></trkpt><trkpt lat="55.9203354" lon="49.1994553"><time>2023-06-03T11:36:59.787</time></trkpt><trkpt lat="55.9203043" lon="49.1995161"><time>2023-06-03T11:37:01.787</time></trkpt><trkpt lat="55.9202542" lon="49.1995840"><time>2023-06-03T11:37:03.787</time></trkpt><trkpt lat="55.9202063" lon="49.1996384"><time>2023-06-03T11:37:05.780</time></trkpt><trkpt lat="55.9201722" lon="49.1997134"><time>2023-06-03T11:37:07.780</time></trkpt><trkpt lat="55.9201606" lon="49.1997928"><time>2023-06-03T11:37:09.780</time></trkpt><trkpt lat="55.9201292" lon="49.1998745"><time>2023-06-03T11:37:12.787</time></trkpt><trkpt lat="55.9200818" lon="49.1998586"><time>2023-06-03T11:37:14.803</time></trkpt><trkpt lat="55.9200363" lon="49.1998100"><time>2023-06-03T11:37:16.773</time></trkpt><trkpt lat="55.9199866" lon="49.1997926"><time>2023-06-03T11:37:18.797</time></trkpt><trkpt lat="55.9199119" lon="49.1998394"><time>2023-06-03T11:37:20.800</time></trkpt><trkpt lat="55.9198492" lon="49.1998882"><time>2023-06-03T11:37:22.777</time></trkpt><trkpt lat="55.9197844" lon="49.1999125"><time>2023-06-03T11:37:24.783</time></trkpt><trkpt lat="55.9197017" lon="49.1999512"><time>2023-06-03T11:37:26.807</time></trkpt><trkpt lat="55.9196330" lon="49.1999972"><time>2023-06-03T11:37:28.787</time></trkpt><trkpt lat="55.9195724" lon="49.2000357"><time>2023-06-03T11:37:30.777</time></trkpt><trkpt lat="55.9195075" lon="49.2000820"><time>2023-06-03T11:37:32.807</time></trkpt><trkpt lat="55.9194500" lon="49.2001292"><time>2023-06-03T11:37:34.780</time></trkpt><trkpt lat="55.9193847" lon="49.2001774"><time>2023-06-03T11:37:36.783</time></trkpt><trkpt lat="55.9192987" lon="49.2002394"><time>2023-06-03T11:37:38.807</time></trkpt><trkpt lat="55.9192466" lon="49.2002784"><time>2023-06-03T11:37:39.780</time></trkpt><trkpt lat="55.9191990" lon="49.2003132"><time>2023-06-03T11:37:40.780</time></trkpt><trkpt lat="55.9191551" lon="49.2003507"><time>2023-06-03T11:37:41.783</time></trkpt><trkpt lat="55.9191145" lon="49.2003895"><time>2023-06-03T11:37:42.783</time></trkpt><trkpt lat="55.9190340" lon="49.2004610"><time>2023-06-03T11:37:44.787</time></trkpt><trkpt lat="55.9189522" lon="49.2005199"><time>2023-06-03T11:37:46.780</time></trkpt><trkpt lat="55.9188655" lon="49.2005753"><time>2023-06-03T11:37:48.893</time></trkpt><trkpt lat="55.9188199" lon="49.2005998"><time>2023-06-03T11:37:49.787</time></trkpt><trkpt lat="55.9187426" lon="49.2006101"><time>2023-06-03T11:37:50.813</time></trkpt><trkpt lat="55.9186587" lon="49.2006775"><time>2023-06-03T11:37:52.777</time></trkpt><trkpt lat="55.9186114" lon="49.2007216"><time>2023-06-03T11:37:53.793</time></trkpt><trkpt lat="55.9185550" lon="49.2007491"><time>2023-06-03T11:37:54.780</time></trkpt><trkpt lat="55.9184692" lon="49.2008298"><time>2023-06-03T11:37:56.777</time></trkpt><trkpt lat="55.9184186" lon="49.2008742"><time>2023-06-03T11:37:57.777</time></trkpt><trkpt lat="55.9183746" lon="49.2009043"><time>2023-06-03T11:37:58.790</time></trkpt><trkpt lat="55.9183348" lon="49.2009427"><time>2023-06-03T11:37:59.777</time></trkpt><trkpt lat="55.9182874" lon="49.2009678"><time>2023-06-03T11:38:00.777</time></trkpt><trkpt lat="55.9182432" lon="49.2009928"><time>2023-06-03T11:38:01.827</time></trkpt><trkpt lat="55.9182029" lon="49.2010283"><time>2023-06-03T11:38:02.777</time></trkpt><trkpt lat="55.9181266" lon="49.2010921"><time>2023-06-03T11:38:04.777</time></trkpt><trkpt lat="55.9180475" lon="49.2011400"><time>2023-06-03T11:38:06.773</time></trkpt><trkpt lat="55.9180045" lon="49.2011940"><time>2023-06-03T11:38:07.793</time></trkpt><trkpt lat="55.9179487" lon="49.2012357"><time>2023-06-03T11:38:08.787</time></trkpt><trkpt lat="55.9179058" lon="49.2012724"><time>2023-06-03T11:38:09.787</time></trkpt><trkpt lat="55.9178272" lon="49.2013421"><time>2023-06-03T11:38:11.787</time></trkpt><trkpt lat="55.9177644" lon="49.2013936"><time>2023-06-03T11:38:13.823</time></trkpt><trkpt lat="55.9177035" lon="49.2014153"><time>2023-06-03T11:38:14.783</time></trkpt><trkpt lat="55.9176145" lon="49.2014750"><time>2023-06-03T11:38:16.777</time></trkpt><trkpt lat="55.9175625" lon="49.2015182"><time>2023-06-03T11:38:17.790</time></trkpt><trkpt lat="55.9175034" lon="49.2015568"><time>2023-06-03T11:38:18.777</time></trkpt><trkpt lat="55.9174538" lon="49.2016152"><time>2023-06-03T11:38:20.780</time></trkpt><trkpt lat="55.9173953" lon="49.2016628"><time>2023-06-03T11:38:22.783</time></trkpt><trkpt lat="55.9173398" lon="49.2017176"><time>2023-06-03T11:38:24.787</time></trkpt><trkpt lat="55.9172606" lon="49.2017586"><time>2023-06-03T11:38:26.780</time></trkpt><trkpt lat="55.9171992" lon="49.2017882"><time>2023-06-03T11:38:28.780</time></trkpt><trkpt lat="55.9171542" lon="49.2018400"><time>2023-06-03T11:38:30.790</time></trkpt><trkpt lat="55.9171404" lon="49.2019372"><time>2023-06-03T11:38:38.777</time></trkpt><trkpt lat="55.9171336" lon="49.2020442"><time>2023-06-03T11:38:40.793</time></trkpt><trkpt lat="55.9171393" lon="49.2021538"><time>2023-06-03T11:38:42.777</time></trkpt><trkpt lat="55.9171482" lon="49.2022566"><time>2023-06-03T11:38:44.780</time></trkpt><trkpt lat="55.9171572" lon="49.2024150"><time>2023-06-03T11:38:46.777</time></trkpt><trkpt lat="55.9171583" lon="49.2025698"><time>2023-06-03T11:38:48.783</time></trkpt><trkpt lat="55.9171564" lon="49.2026506"><time>2023-06-03T11:38:49.810</time></trkpt><trkpt lat="55.9171618" lon="49.2027857"><time>2023-06-03T11:38:51.790</time></trkpt><trkpt lat="55.9171698" lon="49.2028882"><time>2023-06-03T11:38:54.787</time></trkpt><trkpt lat="55.9172058" lon="49.2029946"><time>2023-06-03T11:38:58.773</time></trkpt><trkpt lat="55.9172419" lon="49.2030661"><time>2023-06-03T11:39:00.790</time></trkpt><trkpt lat="55.9172821" lon="49.2031475"><time>2023-06-03T11:39:02.787</time></trkpt><trkpt lat="55.9173164" lon="49.2032521"><time>2023-06-03T11:39:04.780</time></trkpt><trkpt lat="55.9173360" lon="49.2033737"><time>2023-06-03T11:39:06.777</time></trkpt><trkpt lat="55.9173376" lon="49.2034899"><time>2023-06-03T11:39:08.777</time></trkpt><trkpt lat="55.9173120" lon="49.2036240"><time>2023-06-03T11:39:10.787</time></trkpt><trkpt lat="55.9172881" lon="49.2037529"><time>2023-06-03T11:39:12.780</time></trkpt><trkpt lat="55.9172621" lon="49.2038854"><time>2023-06-03T11:39:14.777</time></trkpt><trkpt lat="55.9172214" lon="49.2040282"><time>2023-06-03T11:39:16.777</time></trkpt><trkpt lat="55.9171789" lon="49.2041645"><time>2023-06-03T11:39:18.783</time></trkpt><trkpt lat="55.9171450" lon="49.2042974"><time>2023-06-03T11:39:20.783</time></trkpt><trkpt lat="55.9171297" lon="49.2044134"><time>2023-06-03T11:39:22.777</time></trkpt><trkpt lat="55.9171409" lon="49.2045226"><time>2023-06-03T11:39:24.780</time></trkpt><trkpt lat="55.9171760" lon="49.2046475"><time>2023-06-03T11:39:26.793</time></trkpt><trkpt lat="55.9171995" lon="49.2046972"><time>2023-06-03T11:39:27.780</time></trkpt><trkpt lat="55.9172528" lon="49.2047569"><time>2023-06-03T11:39:29.793</time></trkpt><trkpt lat="55.9173029" lon="49.2047737"><time>2023-06-03T11:39:31.797</time></trkpt><trkpt lat="55.9173584" lon="49.2047771"><time>2023-06-03T11:39:34.790</time></trkpt><trkpt lat="55.9173906" lon="49.2048413"><time>2023-06-03T11:39:54.787</time></trkpt><trkpt lat="55.9174484" lon="49.2048934"><time>2023-06-03T11:39:57.790</time></trkpt><trkpt lat="55.9174998" lon="49.2049238"><time>2023-06-03T11:39:59.783</time></trkpt><trkpt lat="55.9175783" lon="49.2049423"><time>2023-06-03T11:40:01.817</time></trkpt><trkpt lat="55.9176501" lon="49.2049689"><time>2023-06-03T11:40:03.787</time></trkpt><trkpt lat="55.9176982" lon="49.2050092"><time>2023-06-03T11:40:05.780</time></trkpt><trkpt lat="55.9177517" lon="49.2050665"><time>2023-06-03T11:40:07.803</time></trkpt><trkpt lat="55.9178144" lon="49.2051596"><time>2023-06-03T11:40:09.780</time></trkpt><trkpt lat="55.9178646" lon="49.2052489"><time>2023-06-03T11:40:11.783</time></trkpt><trkpt lat="55.9179210" lon="49.2053015"><time>2023-06-03T11:40:13.810</time></trkpt><trkpt lat="55.9179605" lon="49.2053499"><time>2023-06-03T11:40:15.780</time></trkpt><trkpt lat="55.9180232" lon="49.2054008"><time>2023-06-03T11:40:17.797</time></trkpt><trkpt lat="55.9180537" lon="49.2054279"><time>2023-06-03T11:40:18.790</time></trkpt><trkpt lat="55.9181004" lon="49.2054552"><time>2023-06-03T11:40:20.783</time></trkpt><trkpt lat="55.9181680" lon="49.2055027"><time>2023-06-03T11:40:23.780</time></trkpt><trkpt lat="55.9182116" lon="49.2055569"><time>2023-06-03T11:40:25.813</time></trkpt><trkpt lat="55.9182467" lon="49.2056227"><time>2023-06-03T11:40:28.787</time></trkpt><trkpt lat="55.9182917" lon="49.2056483"><time>2023-06-03T11:40:30.780</time></trkpt><trkpt lat="55.9183332" lon="49.2056807"><time>2023-06-03T11:40:32.773</time></trkpt><trkpt lat="55.9183988" lon="49.2057302"><time>2023-06-03T11:40:35.787</time></trkpt><trkpt lat="55.9184687" lon="49.2057560"><time>2023-06-03T11:40:37.830</time></trkpt><trkpt lat="55.9185084" lon="49.2057713"><time>2023-06-03T11:40:38.783</time></trkpt><trkpt lat="55.9185790" lon="49.2058040"><time>2023-06-03T11:40:40.780</time></trkpt><trkpt lat="55.9186410" lon="49.2058464"><time>2023-06-03T11:40:42.793</time></trkpt><trkpt lat="55.9186952" lon="49.2058932"><time>2023-06-03T11:40:44.777</time></trkpt><trkpt lat="55.9187200" lon="49.2058216"><time>2023-06-03T11:40:59.787</time></trkpt><trkpt lat="55.9187410" lon="49.2057347"><time>2023-06-03T11:41:09.790</time></trkpt><trkpt lat="55.9187757" lon="49.2056711"><time>2023-06-03T11:41:14.793</time></trkpt><trkpt lat="55.9187757" lon="49.2056711"><time>2023-06-03T11:41:14.833</time></trkpt><trkpt lat="55.9187465" lon="49.2057446"><time>2023-06-03T11:41:27.810</time></trkpt><trkpt lat="55.9187357" lon="49.2057481"><time>2023-06-03T11:41:28.807</time></trkpt><trkpt lat="55.9187398" lon="49.2058369"><time>2023-06-03T11:41:34.793</time></trkpt><trkpt lat="55.9187726" lon="49.2059264"><time>2023-06-03T11:43:39.793</time></trkpt><trkpt lat="55.9187954" lon="49.2060264"><time>2023-06-03T11:43:41.807</time></trkpt><trkpt lat="55.9188174" lon="49.2061292"><time>2023-06-03T11:43:43.807</time></trkpt><trkpt lat="55.9188541" lon="49.2062210"><time>2023-06-03T11:43:45.787</time></trkpt><trkpt lat="55.9189071" lon="49.2062898"><time>2023-06-03T11:43:47.790</time></trkpt><trkpt lat="55.9189720" lon="49.2063261"><time>2023-06-03T11:43:49.823</time></trkpt><trkpt lat="55.9190367" lon="49.2063354"><time>2023-06-03T11:43:52.783</time></trkpt><trkpt lat="55.9190933" lon="49.2063532"><time>2023-06-03T11:43:54.783</time></trkpt><trkpt lat="55.9191357" lon="49.2063880"><time>2023-06-03T11:43:56.773</time></trkpt><trkpt lat="55.9191831" lon="49.2064622"><time>2023-06-03T11:43:58.793</time></trkpt><trkpt lat="55.9192285" lon="49.2065558"><time>2023-06-03T11:44:00.783</time></trkpt><trkpt lat="55.9192846" lon="49.2066539"><time>2023-06-03T11:44:02.777</time></trkpt><trkpt lat="55.9193555" lon="49.2067439"><time>2023-06-03T11:44:04.780</time></trkpt><trkpt lat="55.9194142" lon="49.2068077"><time>2023-06-03T11:44:06.780</time></trkpt><trkpt lat="55.9194824" lon="49.2068689"><time>2023-06-03T11:44:08.780</time></trkpt><trkpt lat="55.9195611" lon="49.2069156"><time>2023-06-03T11:44:10.777</time></trkpt><trkpt lat="55.9196347" lon="49.2069439"><time>2023-06-03T11:44:12.777</time></trkpt><trkpt lat="55.9196868" lon="49.2069886"><time>2023-06-03T11:44:14.777</time></trkpt><trkpt lat="55.9197344" lon="49.2070678"><time>2023-06-03T11:44:16.773</time></trkpt><trkpt lat="55.9197701" lon="49.2071595"><time>2023-06-03T11:44:18.780</time></trkpt><trkpt lat="55.9198087" lon="49.2072369"><time>2023-06-03T11:44:20.777</time></trkpt><trkpt lat="55.9198715" lon="49.2073231"><time>2023-06-03T11:44:22.787</time></trkpt><trkpt lat="55.9199379" lon="49.2073769"><time>2023-06-03T11:44:24.787</time></trkpt><trkpt lat="55.9200008" lon="49.2074070"><time>2023-06-03T11:44:26.783</time></trkpt><trkpt lat="55.9200630" lon="49.2074340"><time>2023-06-03T11:44:28.777</time></trkpt><trkpt lat="55.9201199" lon="49.2074758"><time>2023-06-03T11:44:30.780</time></trkpt><trkpt lat="55.9201678" lon="49.2075438"><time>2023-06-03T11:44:32.777</time></trkpt><trkpt lat="55.9202176" lon="49.2076080"><time>2023-06-03T11:44:34.777</time></trkpt><trkpt lat="55.9202893" lon="49.2076671"><time>2023-06-03T11:44:36.783</time></trkpt><trkpt lat="55.9203501" lon="49.2077446"><time>2023-06-03T11:44:38.777</time></trkpt><trkpt lat="55.9203967" lon="49.2078704"><time>2023-06-03T11:44:40.777</time></trkpt><trkpt lat="55.9204393" lon="49.2079764"><time>2023-06-03T11:44:42.787</time></trkpt><trkpt lat="55.9204828" lon="49.2080561"><time>2023-06-03T11:44:44.780</time></trkpt><trkpt lat="55.9205277" lon="49.2081247"><time>2023-06-03T11:44:46.773</time></trkpt><trkpt lat="55.9205685" lon="49.2081708"><time>2023-06-03T11:44:48.787</time></trkpt><trkpt lat="55.9206101" lon="49.2082106"><time>2023-06-03T11:44:50.783</time></trkpt><trkpt lat="55.9206489" lon="49.2082717"><time>2023-06-03T11:44:52.780</time></trkpt><trkpt lat="55.9206889" lon="49.2083461"><time>2023-06-03T11:44:54.777</time></trkpt><trkpt lat="55.9207196" lon="49.2084170"><time>2023-06-03T11:44:56.767</time></trkpt><trkpt lat="55.9207575" lon="49.2085068"><time>2023-06-03T11:44:58.793</time></trkpt><trkpt lat="55.9208038" lon="49.2085972"><time>2023-06-03T11:45:00.787</time></trkpt><trkpt lat="55.9208488" lon="49.2086909"><time>2023-06-03T11:45:02.777</time></trkpt><trkpt lat="55.9208843" lon="49.2087942"><time>2023-06-03T11:45:04.773</time></trkpt><trkpt lat="55.9209280" lon="49.2088761"><time>2023-06-03T11:45:06.780</time></trkpt><trkpt lat="55.9209665" lon="49.2089397"><time>2023-06-03T11:45:08.787</time></trkpt><trkpt lat="55.9209945" lon="49.2090332"><time>2023-06-03T11:45:10.777</time></trkpt><trkpt lat="55.9210310" lon="49.2091417"><time>2023-06-03T11:45:12.777</time></trkpt><trkpt lat="55.9210819" lon="49.2092603"><time>2023-06-03T11:45:14.773</time></trkpt><trkpt lat="55.9211085" lon="49.2093774"><time>2023-06-03T11:45:16.777</time></trkpt><trkpt lat="55.9211245" lon="49.2095039"><time>2023-06-03T11:45:18.780</time></trkpt><trkpt lat="55.9211370" lon="49.2096244"><time>2023-06-03T11:45:20.780</time></trkpt><trkpt lat="55.9211380" lon="49.2097568"><time>2023-06-03T11:45:22.780</time></trkpt><trkpt lat="55.9211369" lon="49.2098889"><time>2023-06-03T11:45:24.770</time></trkpt><trkpt lat="55.9211641" lon="49.2100102"><time>2023-06-03T11:45:26.770</time></trkpt><trkpt lat="55.9212012" lon="49.2101430"><time>2023-06-03T11:45:28.777</time></trkpt><trkpt lat="55.9212223" lon="49.2102748"><time>2023-06-03T11:45:30.773</time></trkpt><trkpt lat="55.9212467" lon="49.2103903"><time>2023-06-03T11:45:32.780</time></trkpt><trkpt lat="55.9212732" lon="49.2104986"><time>2023-06-03T11:45:34.783</time></trkpt><trkpt lat="55.9213017" lon="49.2106053"><time>2023-06-03T11:45:36.800</time></trkpt><trkpt lat="55.9213204" lon="49.2106994"><time>2023-06-03T11:45:38.773</time></trkpt><trkpt lat="55.9213538" lon="49.2107956"><time>2023-06-03T11:45:40.780</time></trkpt><trkpt lat="55.9213919" lon="49.2108761"><time>2023-06-03T11:45:42.780</time></trkpt><trkpt lat="55.9214208" lon="49.2109768"><time>2023-06-03T11:45:44.780</time></trkpt><trkpt lat="55.9214312" lon="49.2110740"><time>2023-06-03T11:45:46.767</time></trkpt><trkpt lat="55.9214163" lon="49.2111850"><time>2023-06-03T11:45:48.777</time></trkpt><trkpt lat="55.9214018" lon="49.2112674"><time>2023-06-03T11:45:50.770</time></trkpt><trkpt lat="55.9213940" lon="49.2113623"><time>2023-06-03T11:45:52.780</time></trkpt><trkpt lat="55.9213891" lon="49.2114776"><time>2023-06-03T11:45:54.773</time></trkpt><trkpt lat="55.9213950" lon="49.2115825"><time>2023-06-03T11:45:56.773</time></trkpt><trkpt lat="55.9213983" lon="49.2116698"><time>2023-06-03T11:45:58.777</time></trkpt><trkpt lat="55.9213738" lon="49.2117551"><time>2023-06-03T11:46:00.820</time></trkpt><trkpt lat="55.9213251" lon="49.2118359"><time>2023-06-03T11:46:02.780</time></trkpt><trkpt lat="55.9212707" lon="49.2118976"><time>2023-06-03T11:46:04.773</time></trkpt><trkpt lat="55.9212133" lon="49.2119404"><time>2023-06-03T11:46:06.803</time></trkpt><trkpt lat="55.9211392" lon="49.2119742"><time>2023-06-03T11:46:08.790</time></trkpt><trkpt lat="55.9210646" lon="49.2120021"><time>2023-06-03T11:46:10.790</time></trkpt><trkpt lat="55.9209909" lon="49.2120362"><time>2023-06-03T11:46:12.807</time></trkpt><trkpt lat="55.9209163" lon="49.2120787"><time>2023-06-03T11:46:14.777</time></trkpt><trkpt lat="55.9208505" lon="49.2121263"><time>2023-06-03T11:46:16.780</time></trkpt><trkpt lat="55.9207962" lon="49.2121619"><time>2023-06-03T11:46:18.793</time></trkpt><trkpt lat="55.9207554" lon="49.2121955"><time>2023-06-03T11:46:36.767</time></trkpt><trkpt lat="55.9207167" lon="49.2122763"><time>2023-06-03T11:46:38.787</time></trkpt><trkpt lat="55.9206704" lon="49.2123639"><time>2023-06-03T11:46:40.780</time></trkpt><trkpt lat="55.9206245" lon="49.2124365"><time>2023-06-03T11:46:42.777</time></trkpt><trkpt lat="55.9205939" lon="49.2125231"><time>2023-06-03T11:46:44.783</time></trkpt><trkpt lat="55.9205997" lon="49.2126351"><time>2023-06-03T11:46:46.773</time></trkpt><trkpt lat="55.9206340" lon="49.2127401"><time>2023-06-03T11:46:48.777</time></trkpt><trkpt lat="55.9206681" lon="49.2128547"><time>2023-06-03T11:46:50.773</time></trkpt><trkpt lat="55.9206870" lon="49.2129896"><time>2023-06-03T11:46:52.773</time></trkpt><trkpt lat="55.9207112" lon="49.2131193"><time>2023-06-03T11:46:54.777</time></trkpt><trkpt lat="55.9207404" lon="49.2132261"><time>2023-06-03T11:46:56.773</time></trkpt><trkpt lat="55.9207653" lon="49.2133500"><time>2023-06-03T11:46:58.787</time></trkpt><trkpt lat="55.9207745" lon="49.2134711"><time>2023-06-03T11:47:00.777</time></trkpt><trkpt lat="55.9207745" lon="49.2136079"><time>2023-06-03T11:47:02.787</time></trkpt><trkpt lat="55.9207914" lon="49.2137334"><time>2023-06-03T11:47:04.790</time></trkpt><trkpt lat="55.9208228" lon="49.2138499"><time>2023-06-03T11:47:06.770</time></trkpt><trkpt lat="55.9208592" lon="49.2139719"><time>2023-06-03T11:47:08.790</time></trkpt><trkpt lat="55.9208998" lon="49.2140879"><time>2023-06-03T11:47:10.790</time></trkpt><trkpt lat="55.9209430" lon="49.2141953"><time>2023-06-03T11:47:12.797</time></trkpt><trkpt lat="55.9209813" lon="49.2143053"><time>2023-06-03T11:47:14.807</time></trkpt><trkpt lat="55.9210173" lon="49.2144181"><time>2023-06-03T11:47:16.783</time></trkpt><trkpt lat="55.9210465" lon="49.2145372"><time>2023-06-03T11:47:18.783</time></trkpt><trkpt lat="55.9210696" lon="49.2146673"><time>2023-06-03T11:47:20.797</time></trkpt><trkpt lat="55.9210823" lon="49.2148001"><time>2023-06-03T11:47:22.797</time></trkpt><trkpt lat="55.9210965" lon="49.2149310"><time>2023-06-03T11:47:24.780</time></trkpt><trkpt lat="55.9211121" lon="49.2150631"><time>2023-06-03T11:47:26.783</time></trkpt><trkpt lat="55.9211184" lon="49.2152074"><time>2023-06-03T11:47:28.793</time></trkpt><trkpt lat="55.9211155" lon="49.2152874"><time>2023-06-03T11:47:29.817</time></trkpt><trkpt lat="55.9210983" lon="49.2154416"><time>2023-06-03T11:47:31.797</time></trkpt><trkpt lat="55.9210853" lon="49.2155190"><time>2023-06-03T11:47:32.787</time></trkpt><trkpt lat="55.9210585" lon="49.2156692"><time>2023-06-03T11:47:34.787</time></trkpt><trkpt lat="55.9210326" lon="49.2158176"><time>2023-06-03T11:47:36.783</time></trkpt><trkpt lat="55.9209937" lon="49.2159646"><time>2023-06-03T11:47:38.773</time></trkpt><trkpt lat="55.9209692" lon="49.2160360"><time>2023-06-03T11:47:39.803</time></trkpt><trkpt lat="55.9209118" lon="49.2161400"><time>2023-06-03T11:47:41.803</time></trkpt><trkpt lat="55.9208816" lon="49.2162586"><time>2023-06-03T11:47:43.797</time></trkpt><trkpt lat="55.9208787" lon="49.2163942"><time>2023-06-03T11:47:45.803</time></trkpt><trkpt lat="55.9209003" lon="49.2165521"><time>2023-06-03T11:47:47.827</time></trkpt><trkpt lat="55.9209215" lon="49.2166268"><time>2023-06-03T11:47:48.790</time></trkpt><trkpt lat="55.9209508" lon="49.2166893"><time>2023-06-03T11:47:49.803</time></trkpt><trkpt lat="55.9209684" lon="49.2167735"><time>2023-06-03T11:47:50.777</time></trkpt><trkpt lat="55.9209838" lon="49.2168488"><time>2023-06-03T11:47:51.780</time></trkpt><trkpt lat="55.9210074" lon="49.2169211"><time>2023-06-03T11:47:52.783</time></trkpt><trkpt lat="55.9210241" lon="49.2169987"><time>2023-06-03T11:47:53.827</time></trkpt><trkpt lat="55.9210364" lon="49.2170782"><time>2023-06-03T11:47:54.790</time></trkpt><trkpt lat="55.9210191" lon="49.2172368"><time>2023-06-03T11:47:56.777</time></trkpt><trkpt lat="55.9209787" lon="49.2173742"><time>2023-06-03T11:47:58.797</time></trkpt><trkpt lat="55.9209524" lon="49.2174441"><time>2023-06-03T11:47:59.810</time></trkpt><trkpt lat="55.9209028" lon="49.2175678"><time>2023-06-03T11:48:01.797</time></trkpt><trkpt lat="55.9208518" lon="49.2176831"><time>2023-06-03T11:48:03.813</time></trkpt><trkpt lat="55.9208194" lon="49.2177623"><time>2023-06-03T11:48:04.800</time></trkpt><trkpt lat="55.9207874" lon="49.2178428"><time>2023-06-03T11:48:05.807</time></trkpt><trkpt lat="55.9207586" lon="49.2179162"><time>2023-06-03T11:48:06.787</time></trkpt><trkpt lat="55.9207296" lon="49.2179850"><time>2023-06-03T11:48:07.790</time></trkpt><trkpt lat="55.9206743" lon="49.2181101"><time>2023-06-03T11:48:09.800</time></trkpt><trkpt lat="55.9206442" lon="49.2181698"><time>2023-06-03T11:48:10.783</time></trkpt><trkpt lat="55.9205818" lon="49.2182755"><time>2023-06-03T11:48:12.797</time></trkpt><trkpt lat="55.9205467" lon="49.2183265"><time>2023-06-03T11:48:13.787</time></trkpt><trkpt lat="55.9205125" lon="49.2183800"><time>2023-06-03T11:48:14.803</time></trkpt><trkpt lat="55.9204726" lon="49.2184303"><time>2023-06-03T11:48:15.793</time></trkpt><trkpt lat="55.9204348" lon="49.2184795"><time>2023-06-03T11:48:16.780</time></trkpt><trkpt lat="55.9203994" lon="49.2185321"><time>2023-06-03T11:48:17.817</time></trkpt><trkpt lat="55.9203378" lon="49.2186420"><time>2023-06-03T11:48:19.797</time></trkpt><trkpt lat="55.9202831" lon="49.2187497"><time>2023-06-03T11:48:21.813</time></trkpt><trkpt lat="55.9202325" lon="49.2188660"><time>2023-06-03T11:48:23.827</time></trkpt><trkpt lat="55.9201999" lon="49.2189925"><time>2023-06-03T11:48:25.787</time></trkpt><trkpt lat="55.9201728" lon="49.2190612"><time>2023-06-03T11:48:26.773</time></trkpt><trkpt lat="55.9201573" lon="49.2191386"><time>2023-06-03T11:48:27.800</time></trkpt><trkpt lat="55.9201283" lon="49.2192813"><time>2023-06-03T11:48:29.797</time></trkpt><trkpt lat="55.9201152" lon="49.2194301"><time>2023-06-03T11:48:31.813</time></trkpt><trkpt lat="55.9201012" lon="49.2195765"><time>2023-06-03T11:48:33.797</time></trkpt><trkpt lat="55.9200896" lon="49.2197246"><time>2023-06-03T11:48:35.837</time></trkpt><trkpt lat="55.9200856" lon="49.2198785"><time>2023-06-03T11:48:37.793</time></trkpt><trkpt lat="55.9200725" lon="49.2200263"><time>2023-06-03T11:48:39.807</time></trkpt><trkpt lat="55.9200557" lon="49.2201799"><time>2023-06-03T11:48:41.817</time></trkpt><trkpt lat="55.9200363" lon="49.2202640"><time>2023-06-03T11:48:42.777</time></trkpt><trkpt lat="55.9200236" lon="49.2203410"><time>2023-06-03T11:48:43.793</time></trkpt><trkpt lat="55.9199630" lon="49.2204783"><time>2023-06-03T11:48:45.770</time></trkpt><trkpt lat="55.9199035" lon="49.2206123"><time>2023-06-03T11:48:47.817</time></trkpt><trkpt lat="55.9198422" lon="49.2207398"><time>2023-06-03T11:48:49.783</time></trkpt><trkpt lat="55.9197855" lon="49.2208614"><time>2023-06-03T11:48:51.773</time></trkpt><trkpt lat="55.9197318" lon="49.2209770"><time>2023-06-03T11:48:53.797</time></trkpt><trkpt lat="55.9196839" lon="49.2211001"><time>2023-06-03T11:48:55.787</time></trkpt><trkpt lat="55.9196346" lon="49.2212206"><time>2023-06-03T11:48:57.783</time></trkpt><trkpt lat="55.9195826" lon="49.2213471"><time>2023-06-03T11:48:59.827</time></trkpt><trkpt lat="55.9195629" lon="49.2214201"><time>2023-06-03T11:49:00.777</time></trkpt><trkpt lat="55.9195201" lon="49.2215580"><time>2023-06-03T11:49:02.787</time></trkpt><trkpt lat="55.9194967" lon="49.2216366"><time>2023-06-03T11:49:03.783</time></trkpt><trkpt lat="55.9194655" lon="49.2217727"><time>2023-06-03T11:49:05.797</time></trkpt><trkpt lat="55.9194261" lon="49.2219098"><time>2023-06-03T11:49:07.780</time></trkpt><trkpt lat="55.9193876" lon="49.2220387"><time>2023-06-03T11:49:09.783</time></trkpt><trkpt lat="55.9193490" lon="49.2221706"><time>2023-06-03T11:49:11.830</time></trkpt><trkpt lat="55.9193092" lon="49.2222991"><time>2023-06-03T11:49:13.793</time></trkpt><trkpt lat="55.9192652" lon="49.2224349"><time>2023-06-03T11:49:15.793</time></trkpt><trkpt lat="55.9192333" lon="49.2225784"><time>2023-06-03T11:49:17.800</time></trkpt><trkpt lat="55.9192183" lon="49.2226553"><time>2023-06-03T11:49:18.790</time></trkpt><trkpt lat="55.9192010" lon="49.2227310"><time>2023-06-03T11:49:19.793</time></trkpt><trkpt lat="55.9191780" lon="49.2228772"><time>2023-06-03T11:49:21.803</time></trkpt><trkpt lat="55.9191479" lon="49.2230258"><time>2023-06-03T11:49:23.833</time></trkpt><trkpt lat="55.9191151" lon="49.2231724"><time>2023-06-03T11:49:25.797</time></trkpt><trkpt lat="55.9190974" lon="49.2232477"><time>2023-06-03T11:49:26.773</time></trkpt><trkpt lat="55.9190688" lon="49.2233860"><time>2023-06-03T11:49:28.787</time></trkpt><trkpt lat="55.9190475" lon="49.2234617"><time>2023-06-03T11:49:29.810</time></trkpt><trkpt lat="55.9190258" lon="49.2235358"><time>2023-06-03T11:49:30.790</time></trkpt><trkpt lat="55.9190058" lon="49.2236080"><time>2023-06-03T11:49:31.783</time></trkpt><trkpt lat="55.9189820" lon="49.2236790"><time>2023-06-03T11:49:32.793</time></trkpt><trkpt lat="55.9189418" lon="49.2238147"><time>2023-06-03T11:49:34.793</time></trkpt><trkpt lat="55.9189202" lon="49.2238857"><time>2023-06-03T11:49:35.833</time></trkpt><trkpt lat="55.9188991" lon="49.2239567"><time>2023-06-03T11:49:36.783</time></trkpt><trkpt lat="55.9188724" lon="49.2240282"><time>2023-06-03T11:49:37.797</time></trkpt><trkpt lat="55.9188483" lon="49.2240969"><time>2023-06-03T11:49:38.790</time></trkpt><trkpt lat="55.9188198" lon="49.2241616"><time>2023-06-03T11:49:39.797</time></trkpt><trkpt lat="55.9187870" lon="49.2242238"><time>2023-06-03T11:49:40.783</time></trkpt><trkpt lat="55.9187543" lon="49.2242823"><time>2023-06-03T11:49:41.807</time></trkpt><trkpt lat="55.9187158" lon="49.2243330"><time>2023-06-03T11:49:42.787</time></trkpt><trkpt lat="55.9186761" lon="49.2243788"><time>2023-06-03T11:49:43.807</time></trkpt><trkpt lat="55.9186382" lon="49.2244253"><time>2023-06-03T11:49:44.787</time></trkpt><trkpt lat="55.9185969" lon="49.2244612"><time>2023-06-03T11:49:45.797</time></trkpt><trkpt lat="55.9185535" lon="49.2244880"><time>2023-06-03T11:49:46.777</time></trkpt><trkpt lat="55.9184784" lon="49.2245565"><time>2023-06-03T11:49:48.797</time></trkpt><trkpt lat="55.9184362" lon="49.2245905"><time>2023-06-03T11:49:49.793</time></trkpt><trkpt lat="55.9183895" lon="49.2246326"><time>2023-06-03T11:49:50.787</time></trkpt><trkpt lat="55.9183041" lon="49.2246931"><time>2023-06-03T11:49:52.790</time></trkpt><trkpt lat="55.9182242" lon="49.2247569"><time>2023-06-03T11:49:54.803</time></trkpt><trkpt lat="55.9181429" lon="49.2248175"><time>2023-06-03T11:49:56.773</time></trkpt><trkpt lat="55.9180603" lon="49.2248596"><time>2023-06-03T11:49:58.783</time></trkpt><trkpt lat="55.9180112" lon="49.2248809"><time>2023-06-03T11:49:59.833</time></trkpt><trkpt lat="55.9179663" lon="49.2249020"><time>2023-06-03T11:50:00.783</time></trkpt><trkpt lat="55.9179233" lon="49.2249274"><time>2023-06-03T11:50:01.790</time></trkpt><trkpt lat="55.9178406" lon="49.2249664"><time>2023-06-03T11:50:03.807</time></trkpt><trkpt lat="55.9177458" lon="49.2249933"><time>2023-06-03T11:50:05.797</time></trkpt><trkpt lat="55.9177026" lon="49.2250383"><time>2023-06-03T11:50:06.773</time></trkpt><trkpt lat="55.9176550" lon="49.2250564"><time>2023-06-03T11:50:07.780</time></trkpt><trkpt lat="55.9176048" lon="49.2250650"><time>2023-06-03T11:50:08.787</time></trkpt><trkpt lat="55.9175568" lon="49.2250925"><time>2023-06-03T11:50:09.787</time></trkpt><trkpt lat="55.9175088" lon="49.2251177"><time>2023-06-03T11:50:10.803</time></trkpt><trkpt lat="55.9174594" lon="49.2251366"><time>2023-06-03T11:50:11.820</time></trkpt><trkpt lat="55.9174126" lon="49.2251618"><time>2023-06-03T11:50:12.773</time></trkpt><trkpt lat="55.9173658" lon="49.2251816"><time>2023-06-03T11:50:13.780</time></trkpt><trkpt lat="55.9172838" lon="49.2252148"><time>2023-06-03T11:50:15.787</time></trkpt><trkpt lat="55.9172020" lon="49.2252306"><time>2023-06-03T11:50:17.807</time></trkpt><trkpt lat="55.9171542" lon="49.2252537"><time>2023-06-03T11:50:18.787</time></trkpt><trkpt lat="55.9170732" lon="49.2253169"><time>2023-06-03T11:50:20.787</time></trkpt><trkpt lat="55.9169857" lon="49.2253375"><time>2023-06-03T11:50:22.780</time></trkpt><trkpt lat="55.9169155" lon="49.2253701"><time>2023-06-03T11:50:24.777</time></trkpt><trkpt lat="55.9168482" lon="49.2254049"><time>2023-06-03T11:50:26.773</time></trkpt><trkpt lat="55.9167740" lon="49.2254780"><time>2023-06-03T11:50:28.777</time></trkpt><trkpt lat="55.9167294" lon="49.2255223"><time>2023-06-03T11:50:29.793</time></trkpt><trkpt lat="55.9166780" lon="49.2255749"><time>2023-06-03T11:50:30.777</time></trkpt><trkpt lat="55.9166330" lon="49.2256375"><time>2023-06-03T11:50:31.957</time></trkpt><trkpt lat="55.9165927" lon="49.2257042"><time>2023-06-03T11:50:32.777</time></trkpt><trkpt lat="55.9165527" lon="49.2257632"><time>2023-06-03T11:50:33.787</time></trkpt><trkpt lat="55.9165179" lon="49.2258305"><time>2023-06-03T11:50:34.783</time></trkpt><trkpt lat="55.9164850" lon="49.2258977"><time>2023-06-03T11:50:35.817</time></trkpt><trkpt lat="55.9164557" lon="49.2259793"><time>2023-06-03T11:50:36.777</time></trkpt><trkpt lat="55.9164260" lon="49.2260560"><time>2023-06-03T11:50:37.783</time></trkpt><trkpt lat="55.9163881" lon="49.2261572"><time>2023-06-03T11:50:39.780</time></trkpt><trkpt lat="55.9163562" lon="49.2262702"><time>2023-06-03T11:50:41.793</time></trkpt><trkpt lat="55.9163101" lon="49.2263939"><time>2023-06-03T11:50:43.813</time></trkpt><trkpt lat="55.9162866" lon="49.2264564"><time>2023-06-03T11:50:44.770</time></trkpt><trkpt lat="55.9162480" lon="49.2265628"><time>2023-06-03T11:50:46.773</time></trkpt><trkpt lat="55.9162050" lon="49.2266812"><time>2023-06-03T11:50:48.777</time></trkpt><trkpt lat="55.9161622" lon="49.2267930"><time>2023-06-03T11:50:50.777</time></trkpt><trkpt lat="55.9161191" lon="49.2269080"><time>2023-06-03T11:50:52.793</time></trkpt><trkpt lat="55.9160759" lon="49.2270175"><time>2023-06-03T11:50:54.783</time></trkpt><trkpt lat="55.9160264" lon="49.2271230"><time>2023-06-03T11:50:56.777</time></trkpt><trkpt lat="55.9159648" lon="49.2272307"><time>2023-06-03T11:50:58.820</time></trkpt><trkpt lat="55.9159341" lon="49.2272813"><time>2023-06-03T11:50:59.777</time></trkpt><trkpt lat="55.9158781" lon="49.2273756"><time>2023-06-03T11:51:01.777</time></trkpt><trkpt lat="55.9158228" lon="49.2274600"><time>2023-06-03T11:51:03.793</time></trkpt><trkpt lat="55.9157620" lon="49.2275482"><time>2023-06-03T11:51:05.787</time></trkpt><trkpt lat="55.9156967" lon="49.2276286"><time>2023-06-03T11:51:07.787</time></trkpt><trkpt lat="55.9156250" lon="49.2276909"><time>2023-06-03T11:51:09.780</time></trkpt><trkpt lat="55.9155460" lon="49.2277337"><time>2023-06-03T11:51:11.773</time></trkpt><trkpt lat="55.9154655" lon="49.2277622"><time>2023-06-03T11:51:13.783</time></trkpt><trkpt lat="55.9153834" lon="49.2277789"><time>2023-06-03T11:51:15.807</time></trkpt><trkpt lat="55.9153445" lon="49.2277866"><time>2023-06-03T11:51:16.787</time></trkpt><trkpt lat="55.9152660" lon="49.2278151"><time>2023-06-03T11:51:18.780</time></trkpt><trkpt lat="55.9151870" lon="49.2278415"><time>2023-06-03T11:51:20.777</time></trkpt><trkpt lat="55.9151110" lon="49.2278584"><time>2023-06-03T11:51:22.793</time></trkpt><trkpt lat="55.9150298" lon="49.2278614"><time>2023-06-03T11:51:24.790</time></trkpt><trkpt lat="55.9149549" lon="49.2278464"><time>2023-06-03T11:51:26.773</time></trkpt><trkpt lat="55.9148775" lon="49.2278193"><time>2023-06-03T11:51:28.780</time></trkpt><trkpt lat="55.9147954" lon="49.2277735"><time>2023-06-03T11:51:30.780</time></trkpt><trkpt lat="55.9147281" lon="49.2277427"><time>2023-06-03T11:51:32.787</time></trkpt><trkpt lat="55.9146697" lon="49.2277015"><time>2023-06-03T11:51:34.777</time></trkpt><trkpt lat="55.9146201" lon="49.2277232"><time>2023-06-03T11:51:36.797</time></trkpt><trkpt lat="55.9145674" lon="49.2277525"><time>2023-06-03T11:51:38.780</time></trkpt><trkpt lat="55.9144993" lon="49.2277446"><time>2023-06-03T11:51:40.780</time></trkpt><trkpt lat="55.9144382" lon="49.2277303"><time>2023-06-03T11:51:42.780</time></trkpt><trkpt lat="55.9143793" lon="49.2277062"><time>2023-06-03T11:51:44.807</time></trkpt><trkpt lat="55.9143615" lon="49.2276268"><time>2023-06-03T11:51:48.773</time></trkpt><trkpt lat="55.9143319" lon="49.2275515"><time>2023-06-03T11:52:08.827</time></trkpt><trkpt lat="55.9142866" lon="49.2275344"><time>2023-06-03T11:52:10.777</time></trkpt><trkpt lat="55.9142331" lon="49.2275110"><time>2023-06-03T11:52:12.783</time></trkpt><trkpt lat="55.9141621" lon="49.2274841"><time>2023-06-03T11:52:14.823</time></trkpt><trkpt lat="55.9141223" lon="49.2274539"><time>2023-06-03T11:52:15.777</time></trkpt><trkpt lat="55.9140614" lon="49.2274032"><time>2023-06-03T11:52:17.790</time></trkpt><trkpt lat="55.9140107" lon="49.2273277"><time>2023-06-03T11:52:19.790</time></trkpt><trkpt lat="55.9139682" lon="49.2272145"><time>2023-06-03T11:52:21.777</time></trkpt><trkpt lat="55.9139388" lon="49.2270889"><time>2023-06-03T11:52:23.790</time></trkpt><trkpt lat="55.9139194" lon="49.2269634"><time>2023-06-03T11:52:25.793</time></trkpt><trkpt lat="55.9139067" lon="49.2268374"><time>2023-06-03T11:52:27.800</time></trkpt><trkpt lat="55.9138892" lon="49.2267172"><time>2023-06-03T11:52:29.780</time></trkpt><trkpt lat="55.9138754" lon="49.2265984"><time>2023-06-03T11:52:31.800</time></trkpt><trkpt lat="55.9138702" lon="49.2264731"><time>2023-06-03T11:52:33.780</time></trkpt><trkpt lat="55.9138693" lon="49.2263465"><time>2023-06-03T11:52:35.793</time></trkpt><trkpt lat="55.9138734" lon="49.2262092"><time>2023-06-03T11:52:37.797</time></trkpt><trkpt lat="55.9138625" lon="49.2260972"><time>2023-06-03T11:52:39.780</time></trkpt><trkpt lat="55.9138515" lon="49.2259775"><time>2023-06-03T11:52:41.780</time></trkpt><trkpt lat="55.9138401" lon="49.2258605"><time>2023-06-03T11:52:43.797</time></trkpt><trkpt lat="55.9138281" lon="49.2257369"><time>2023-06-03T11:52:45.777</time></trkpt><trkpt lat="55.9138188" lon="49.2256225"><time>2023-06-03T11:52:47.773</time></trkpt><trkpt lat="55.9138114" lon="49.2254991"><time>2023-06-03T11:52:49.793</time></trkpt><trkpt lat="55.9138097" lon="49.2253656"><time>2023-06-03T11:52:51.783</time></trkpt><trkpt lat="55.9138123" lon="49.2252318"><time>2023-06-03T11:52:53.783</time></trkpt><trkpt lat="55.9138140" lon="49.2251031"><time>2023-06-03T11:52:55.773</time></trkpt><trkpt lat="55.9138159" lon="49.2249800"><time>2023-06-03T11:52:57.777</time></trkpt><trkpt lat="55.9138180" lon="49.2248526"><time>2023-06-03T11:52:59.783</time></trkpt><trkpt lat="55.9138230" lon="49.2247217"><time>2023-06-03T11:53:01.773</time></trkpt><trkpt lat="55.9138289" lon="49.2245901"><time>2023-06-03T11:53:03.780</time></trkpt><trkpt lat="55.9138293" lon="49.2244655"><time>2023-06-03T11:53:05.793</time></trkpt><trkpt lat="55.9138274" lon="49.2243472"><time>2023-06-03T11:53:07.787</time></trkpt><trkpt lat="55.9138276" lon="49.2242329"><time>2023-06-03T11:53:09.773</time></trkpt><trkpt lat="55.9138399" lon="49.2241250"><time>2023-06-03T11:53:11.777</time></trkpt><trkpt lat="55.9138538" lon="49.2240144"><time>2023-06-03T11:53:13.797</time></trkpt><trkpt lat="55.9138650" lon="49.2239024"><time>2023-06-03T11:53:15.797</time></trkpt><trkpt lat="55.9138760" lon="49.2237984"><time>2023-06-03T11:53:17.773</time></trkpt><trkpt lat="55.9138853" lon="49.2237003"><time>2023-06-03T11:53:19.767</time></trkpt><trkpt lat="55.9138988" lon="49.2235965"><time>2023-06-03T11:53:21.787</time></trkpt><trkpt lat="55.9139206" lon="49.2234899"><time>2023-06-03T11:53:23.770</time></trkpt><trkpt lat="55.9139475" lon="49.2233919"><time>2023-06-03T11:53:25.810</time></trkpt><trkpt lat="55.9139803" lon="49.2232903"><time>2023-06-03T11:53:27.777</time></trkpt><trkpt lat="55.9140156" lon="49.2231902"><time>2023-06-03T11:53:29.787</time></trkpt><trkpt lat="55.9140345" lon="49.2230938"><time>2023-06-03T11:53:31.827</time></trkpt><trkpt lat="55.9140273" lon="49.2229850"><time>2023-06-03T11:53:33.783</time></trkpt><trkpt lat="55.9140213" lon="49.2228680"><time>2023-06-03T11:53:35.800</time></trkpt><trkpt lat="55.9140302" lon="49.2227529"><time>2023-06-03T11:53:37.790</time></trkpt><trkpt lat="55.9140418" lon="49.2226360"><time>2023-06-03T11:53:39.807</time></trkpt><trkpt lat="55.9140506" lon="49.2225146"><time>2023-06-03T11:53:41.783</time></trkpt><trkpt lat="55.9140546" lon="49.2223909"><time>2023-06-03T11:53:43.807</time></trkpt><trkpt lat="55.9140511" lon="49.2222938"><time>2023-06-03T11:53:45.797</time></trkpt><trkpt lat="55.9140346" lon="49.2221850"><time>2023-06-03T11:54:31.783</time></trkpt><trkpt lat="55.9140135" lon="49.2220923"><time>2023-06-03T11:54:33.823</time></trkpt><trkpt lat="55.9139881" lon="49.2219987"><time>2023-06-03T11:54:35.777</time></trkpt><trkpt lat="55.9139581" lon="49.2219040"><time>2023-06-03T11:54:37.780</time></trkpt><trkpt lat="55.9139348" lon="49.2218080"><time>2023-06-03T11:54:39.790</time></trkpt><trkpt lat="55.9139385" lon="49.2216930"><time>2023-06-03T11:54:41.783</time></trkpt><trkpt lat="55.9139639" lon="49.2215698"><time>2023-06-03T11:54:43.793</time></trkpt><trkpt lat="55.9139845" lon="49.2214393"><time>2023-06-03T11:54:45.803</time></trkpt><trkpt lat="55.9139855" lon="49.2213133"><time>2023-06-03T11:54:47.777</time></trkpt><trkpt lat="55.9139775" lon="49.2211869"><time>2023-06-03T11:54:49.783</time></trkpt><trkpt lat="55.9139653" lon="49.2210594"><time>2023-06-03T11:54:51.780</time></trkpt><trkpt lat="55.9139511" lon="49.2209333"><time>2023-06-03T11:54:53.787</time></trkpt><trkpt lat="55.9139418" lon="49.2208080"><time>2023-06-03T11:54:55.780</time></trkpt><trkpt lat="55.9139348" lon="49.2206880"><time>2023-06-03T11:54:57.783</time></trkpt><trkpt lat="55.9139248" lon="49.2205818"><time>2023-06-03T11:54:59.790</time></trkpt><trkpt lat="55.9139144" lon="49.2204867"><time>2023-06-03T11:55:01.783</time></trkpt><trkpt lat="55.9139011" lon="49.2203811"><time>2023-06-03T11:55:03.773</time></trkpt><trkpt lat="55.9138731" lon="49.2202723"><time>2023-06-03T11:55:05.783</time></trkpt><trkpt lat="55.9138328" lon="49.2201723"><time>2023-06-03T11:55:07.773</time></trkpt><trkpt lat="55.9137975" lon="49.2200696"><time>2023-06-03T11:55:09.780</time></trkpt><trkpt lat="55.9137733" lon="49.2199608"><time>2023-06-03T11:55:11.773</time></trkpt><trkpt lat="55.9137615" lon="49.2198437"><time>2023-06-03T11:55:13.773</time></trkpt><trkpt lat="55.9137538" lon="49.2197202"><time>2023-06-03T11:55:15.773</time></trkpt><trkpt lat="55.9137416" lon="49.2196026"><time>2023-06-03T11:55:17.790</time></trkpt><trkpt lat="55.9137271" lon="49.2194952"><time>2023-06-03T11:55:19.797</time></trkpt><trkpt lat="55.9137172" lon="49.2193917"><time>2023-06-03T11:55:21.773</time></trkpt><trkpt lat="55.9137302" lon="49.2192994"><time>2023-06-03T11:55:23.777</time></trkpt><trkpt lat="55.9137695" lon="49.2192259"><time>2023-06-03T11:55:25.783</time></trkpt><trkpt lat="55.9138214" lon="49.2191956"><time>2023-06-03T11:55:28.777</time></trkpt><trkpt lat="55.9137631" lon="49.2192622"><time>2023-06-03T11:56:06.767</time></trkpt><trkpt lat="55.9137215" lon="49.2193492"><time>2023-06-03T11:56:08.803</time></trkpt><trkpt lat="55.9137082" lon="49.2194793"><time>2023-06-03T11:56:10.773</time></trkpt><trkpt lat="55.9137273" lon="49.2196139"><time>2023-06-03T11:56:12.790</time></trkpt><trkpt lat="55.9137568" lon="49.2197303"><time>2023-06-03T11:56:14.807</time></trkpt><trkpt lat="55.9137770" lon="49.2198492"><time>2023-06-03T11:56:16.783</time></trkpt><trkpt lat="55.9137954" lon="49.2199765"><time>2023-06-03T11:56:18.777</time></trkpt><trkpt lat="55.9138241" lon="49.2200969"><time>2023-06-03T11:56:20.787</time></trkpt><trkpt lat="55.9138639" lon="49.2202118"><time>2023-06-03T11:56:22.790</time></trkpt><trkpt lat="55.9138991" lon="49.2203096"><time>2023-06-03T11:56:24.777</time></trkpt><trkpt lat="55.9139283" lon="49.2204000"><time>2023-06-03T11:56:26.813</time></trkpt><trkpt lat="55.9139478" lon="49.2204790"><time>2023-06-03T11:56:28.777</time></trkpt><trkpt lat="55.9139767" lon="49.2205498"><time>2023-06-03T11:56:43.780</time></trkpt><trkpt lat="55.9139784" lon="49.2206752"><time>2023-06-03T11:56:45.780</time></trkpt><trkpt lat="55.9139869" lon="49.2208078"><time>2023-06-03T11:56:47.813</time></trkpt><trkpt lat="55.9139978" lon="49.2209450"><time>2023-06-03T11:56:49.787</time></trkpt><trkpt lat="55.9139989" lon="49.2210256"><time>2023-06-03T11:56:50.773</time></trkpt><trkpt lat="55.9139999" lon="49.2211793"><time>2023-06-03T11:56:52.777</time></trkpt><trkpt lat="55.9140017" lon="49.2213295"><time>2023-06-03T11:56:54.777</time></trkpt><trkpt lat="55.9140045" lon="49.2214730"><time>2023-06-03T11:56:56.777</time></trkpt><trkpt lat="55.9139994" lon="49.2216112"><time>2023-06-03T11:56:58.780</time></trkpt><trkpt lat="55.9139745" lon="49.2217430"><time>2023-06-03T11:57:00.770</time></trkpt><trkpt lat="55.9139546" lon="49.2218755"><time>2023-06-03T11:57:02.780</time></trkpt><trkpt lat="55.9139657" lon="49.2220109"><time>2023-06-03T11:57:04.780</time></trkpt><trkpt lat="55.9139994" lon="49.2221349"><time>2023-06-03T11:57:06.767</time></trkpt><trkpt lat="55.9140327" lon="49.2222595"><time>2023-06-03T11:57:08.773</time></trkpt><trkpt lat="55.9140481" lon="49.2223778"><time>2023-06-03T11:57:10.780</time></trkpt><trkpt lat="55.9140485" lon="49.2225027"><time>2023-06-03T11:57:12.777</time></trkpt><trkpt lat="55.9140405" lon="49.2226406"><time>2023-06-03T11:57:14.777</time></trkpt><trkpt lat="55.9140246" lon="49.2227737"><time>2023-06-03T11:57:16.763</time></trkpt><trkpt lat="55.9140047" lon="49.2228962"><time>2023-06-03T11:57:18.767</time></trkpt><trkpt lat="55.9139933" lon="49.2230304"><time>2023-06-03T11:57:20.790</time></trkpt><trkpt lat="55.9139942" lon="49.2231638"><time>2023-06-03T11:57:22.783</time></trkpt><trkpt lat="55.9139884" lon="49.2232784"><time>2023-06-03T11:57:24.770</time></trkpt><trkpt lat="55.9139651" lon="49.2233894"><time>2023-06-03T11:57:26.777</time></trkpt><trkpt lat="55.9139359" lon="49.2234944"><time>2023-06-03T11:57:28.790</time></trkpt><trkpt lat="55.9139094" lon="49.2236004"><time>2023-06-03T11:57:30.777</time></trkpt><trkpt lat="55.9138910" lon="49.2236874"><time>2023-06-03T11:57:32.777</time></trkpt><trkpt lat="55.9138670" lon="49.2237648"><time>2023-06-03T11:57:39.780</time></trkpt><trkpt lat="55.9138997" lon="49.2238317"><time>2023-06-03T11:57:53.820</time></trkpt><trkpt lat="55.9138964" lon="49.2239232"><time>2023-06-03T11:57:55.780</time></trkpt><trkpt lat="55.9138873" lon="49.2240328"><time>2023-06-03T11:57:57.790</time></trkpt><trkpt lat="55.9138769" lon="49.2241358"><time>2023-06-03T11:57:59.793</time></trkpt><trkpt lat="55.9138657" lon="49.2242332"><time>2023-06-03T11:58:01.780</time></trkpt><trkpt lat="55.9138575" lon="49.2243190"><time>2023-06-03T11:58:03.787</time></trkpt><trkpt lat="55.9138627" lon="49.2244197"><time>2023-06-03T11:58:05.803</time></trkpt><trkpt lat="55.9138710" lon="49.2245228"><time>2023-06-03T11:58:07.780</time></trkpt><trkpt lat="55.9138758" lon="49.2246360"><time>2023-06-03T11:58:09.787</time></trkpt><trkpt lat="55.9138788" lon="49.2247535"><time>2023-06-03T11:58:11.817</time></trkpt><trkpt lat="55.9138786" lon="49.2248722"><time>2023-06-03T11:58:13.780</time></trkpt><trkpt lat="55.9138745" lon="49.2250010"><time>2023-06-03T11:58:15.790</time></trkpt><trkpt lat="55.9138661" lon="49.2251351"><time>2023-06-03T11:58:17.830</time></trkpt><trkpt lat="55.9138568" lon="49.2252671"><time>2023-06-03T11:58:19.790</time></trkpt><trkpt lat="55.9138527" lon="49.2253933"><time>2023-06-03T11:58:21.780</time></trkpt><trkpt lat="55.9138580" lon="49.2255113"><time>2023-06-03T11:58:23.813</time></trkpt><trkpt lat="55.9138601" lon="49.2256217"><time>2023-06-03T11:58:25.783</time></trkpt><trkpt lat="55.9138601" lon="49.2257245"><time>2023-06-03T11:58:27.787</time></trkpt><trkpt lat="55.9138654" lon="49.2258246"><time>2023-06-03T11:58:29.837</time></trkpt><trkpt lat="55.9138668" lon="49.2259287"><time>2023-06-03T11:58:31.783</time></trkpt><trkpt lat="55.9138676" lon="49.2260274"><time>2023-06-03T11:58:33.783</time></trkpt><trkpt lat="55.9138704" lon="49.2261081"><time>2023-06-03T11:58:52.777</time></trkpt><trkpt lat="55.9138799" lon="49.2262176"><time>2023-06-03T11:58:55.783</time></trkpt><trkpt lat="55.9138997" lon="49.2263200"><time>2023-06-03T11:58:57.803</time></trkpt><trkpt lat="55.9139090" lon="49.2264553"><time>2023-06-03T11:58:59.783</time></trkpt><trkpt lat="55.9139143" lon="49.2265963"><time>2023-06-03T11:59:01.793</time></trkpt><trkpt lat="55.9139328" lon="49.2267236"><time>2023-06-03T11:59:03.777</time></trkpt><trkpt lat="55.9139672" lon="49.2268500"><time>2023-06-03T11:59:05.777</time></trkpt><trkpt lat="55.9139954" lon="49.2269827"><time>2023-06-03T11:59:07.783</time></trkpt><trkpt lat="55.9140144" lon="49.2271206"><time>2023-06-03T11:59:09.787</time></trkpt><trkpt lat="55.9140312" lon="49.2272574"><time>2023-06-03T11:59:11.783</time></trkpt><trkpt lat="55.9140614" lon="49.2273863"><time>2023-06-03T11:59:13.770</time></trkpt><trkpt lat="55.9141176" lon="49.2274820"><time>2023-06-03T11:59:15.790</time></trkpt><trkpt lat="55.9141868" lon="49.2275365"><time>2023-06-03T11:59:17.780</time></trkpt><trkpt lat="55.9142571" lon="49.2275578"><time>2023-06-03T11:59:19.823</time></trkpt><trkpt lat="55.9142899" lon="49.2275662"><time>2023-06-03T11:59:20.820</time></trkpt><trkpt lat="55.9143469" lon="49.2275801"><time>2023-06-03T11:59:22.773</time></trkpt><trkpt lat="55.9143969" lon="49.2275815"><time>2023-06-03T11:59:24.773</time></trkpt><trkpt lat="55.9144634" lon="49.2275761"><time>2023-06-03T11:59:26.787</time></trkpt><trkpt lat="55.9145370" lon="49.2275816"><time>2023-06-03T11:59:28.770</time></trkpt><trkpt lat="55.9146015" lon="49.2276028"><time>2023-06-03T11:59:30.777</time></trkpt><trkpt lat="55.9146623" lon="49.2276425"><time>2023-06-03T11:59:32.803</time></trkpt><trkpt lat="55.9147244" lon="49.2276887"><time>2023-06-03T11:59:34.773</time></trkpt><trkpt lat="55.9147809" lon="49.2277311"><time>2023-06-03T11:59:36.777</time></trkpt><trkpt lat="55.9148446" lon="49.2277684"><time>2023-06-03T11:59:38.810</time></trkpt><trkpt lat="55.9149115" lon="49.2277968"><time>2023-06-03T11:59:40.777</time></trkpt><trkpt lat="55.9149787" lon="49.2278151"><time>2023-06-03T11:59:42.773</time></trkpt><trkpt lat="55.9150483" lon="49.2278245"><time>2023-06-03T11:59:44.830</time></trkpt><trkpt lat="55.9151100" lon="49.2278194"><time>2023-06-03T11:59:46.767</time></trkpt><trkpt lat="55.9151756" lon="49.2278096"><time>2023-06-03T11:59:48.767</time></trkpt><trkpt lat="55.9152456" lon="49.2278023"><time>2023-06-03T11:59:50.790</time></trkpt><trkpt lat="55.9153149" lon="49.2277924"><time>2023-06-03T11:59:52.777</time></trkpt><trkpt lat="55.9153920" lon="49.2277721"><time>2023-06-03T11:59:54.770</time></trkpt><trkpt lat="55.9154726" lon="49.2277438"><time>2023-06-03T11:59:56.817</time></trkpt><trkpt lat="55.9155114" lon="49.2277288"><time>2023-06-03T11:59:57.773</time></trkpt><trkpt lat="55.9155923" lon="49.2276924"><time>2023-06-03T11:59:59.793</time></trkpt><trkpt lat="55.9156356" lon="49.2276711"><time>2023-06-03T12:00:00.770</time></trkpt><trkpt lat="55.9157102" lon="49.2276139"><time>2023-06-03T12:00:02.783</time></trkpt><trkpt lat="55.9157783" lon="49.2275369"><time>2023-06-03T12:00:04.787</time></trkpt><trkpt lat="55.9158396" lon="49.2274506"><time>2023-06-03T12:00:06.767</time></trkpt><trkpt lat="55.9158947" lon="49.2273603"><time>2023-06-03T12:00:08.767</time></trkpt><trkpt lat="55.9159421" lon="49.2272627"><time>2023-06-03T12:00:10.777</time></trkpt><trkpt lat="55.9159840" lon="49.2271717"><time>2023-06-03T12:00:12.793</time></trkpt><trkpt lat="55.9160076" lon="49.2271260"><time>2023-06-03T12:00:13.793</time></trkpt><trkpt lat="55.9160529" lon="49.2270439"><time>2023-06-03T12:00:15.780</time></trkpt><trkpt lat="55.9160876" lon="49.2269723"><time>2023-06-03T12:00:17.787</time></trkpt><trkpt lat="55.9161056" lon="49.2268943"><time>2023-06-03T12:00:20.777</time></trkpt><trkpt lat="55.9160658" lon="49.2268370"><time>2023-06-03T12:00:32.770</time></trkpt><trkpt lat="55.9160412" lon="49.2267609"><time>2023-06-03T12:00:36.780</time></trkpt><trkpt lat="55.9160139" lon="49.2266841"><time>2023-06-03T12:00:40.770</time></trkpt><trkpt lat="55.9159922" lon="49.2265957"><time>2023-06-03T12:00:45.770</time></trkpt><trkpt lat="55.9159922" lon="49.2265957"><time>2023-06-03T12:00:45.843</time></trkpt><trkpt lat="55.9160129" lon="49.2266797"><time>2023-06-03T12:00:52.817</time></trkpt><trkpt lat="55.9160174" lon="49.2267082"><time>2023-06-03T12:00:53.777</time></trkpt><trkpt lat="55.9160418" lon="49.2267797"><time>2023-06-03T12:00:56.770</time></trkpt><trkpt lat="55.9160733" lon="49.2268426"><time>2023-06-03T12:00:59.783</time></trkpt><trkpt lat="55.9161070" lon="49.2269080"><time>2023-06-03T12:01:03.773</time></trkpt><trkpt lat="55.9161197" lon="49.2269848"><time>2023-06-03T12:01:21.773</time></trkpt><trkpt lat="55.9160829" lon="49.2270473"><time>2023-06-03T12:01:42.773</time></trkpt><trkpt lat="55.9160346" lon="49.2271328"><time>2023-06-03T12:01:44.770</time></trkpt><trkpt lat="55.9159826" lon="49.2272202"><time>2023-06-03T12:01:46.767</time></trkpt><trkpt lat="55.9159283" lon="49.2273063"><time>2023-06-03T12:01:48.777</time></trkpt><trkpt lat="55.9158747" lon="49.2273915"><time>2023-06-03T12:01:50.773</time></trkpt><trkpt lat="55.9158211" lon="49.2274695"><time>2023-06-03T12:01:52.780</time></trkpt><trkpt lat="55.9157634" lon="49.2275470"><time>2023-06-03T12:01:54.777</time></trkpt><trkpt lat="55.9157017" lon="49.2276158"><time>2023-06-03T12:01:56.777</time></trkpt><trkpt lat="55.9156405" lon="49.2276713"><time>2023-06-03T12:01:58.780</time></trkpt><trkpt lat="55.9155687" lon="49.2277235"><time>2023-06-03T12:02:00.773</time></trkpt><trkpt lat="55.9154998" lon="49.2277601"><time>2023-06-03T12:02:02.773</time></trkpt><trkpt lat="55.9154300" lon="49.2277822"><time>2023-06-03T12:02:04.773</time></trkpt><trkpt lat="55.9153558" lon="49.2278017"><time>2023-06-03T12:02:06.773</time></trkpt><trkpt lat="55.9152813" lon="49.2278136"><time>2023-06-03T12:02:08.767</time></trkpt><trkpt lat="55.9152117" lon="49.2278242"><time>2023-06-03T12:02:10.790</time></trkpt><trkpt lat="55.9151328" lon="49.2278316"><time>2023-06-03T12:02:12.793</time></trkpt><trkpt lat="55.9150559" lon="49.2278307"><time>2023-06-03T12:02:14.777</time></trkpt><trkpt lat="55.9149785" lon="49.2278237"><time>2023-06-03T12:02:16.770</time></trkpt><trkpt lat="55.9148988" lon="49.2278171"><time>2023-06-03T12:02:18.807</time></trkpt><trkpt lat="55.9148194" lon="49.2277967"><time>2023-06-03T12:02:20.777</time></trkpt><trkpt lat="55.9147429" lon="49.2277545"><time>2023-06-03T12:02:22.780</time></trkpt><trkpt lat="55.9146699" lon="49.2277077"><time>2023-06-03T12:02:24.800</time></trkpt><trkpt lat="55.9145924" lon="49.2276681"><time>2023-06-03T12:02:26.780</time></trkpt><trkpt lat="55.9145224" lon="49.2276336"><time>2023-06-03T12:02:28.777</time></trkpt><trkpt lat="55.9144616" lon="49.2276157"><time>2023-06-03T12:02:30.810</time></trkpt><trkpt lat="55.9144023" lon="49.2276315"><time>2023-06-03T12:02:32.777</time></trkpt><trkpt lat="55.9143361" lon="49.2276371"><time>2023-06-03T12:02:34.770</time></trkpt><trkpt lat="55.9142612" lon="49.2276021"><time>2023-06-03T12:02:36.777</time></trkpt><trkpt lat="55.9141880" lon="49.2275508"><time>2023-06-03T12:02:38.770</time></trkpt><trkpt lat="55.9141188" lon="49.2275112"><time>2023-06-03T12:02:40.787</time></trkpt><trkpt lat="55.9140501" lon="49.2274614"><time>2023-06-03T12:02:42.780</time></trkpt><trkpt lat="55.9139960" lon="49.2273746"><time>2023-06-03T12:02:44.773</time></trkpt><trkpt lat="55.9139576" lon="49.2272409"><time>2023-06-03T12:02:46.777</time></trkpt><trkpt lat="55.9139375" lon="49.2270982"><time>2023-06-03T12:02:48.777</time></trkpt><trkpt lat="55.9139195" lon="49.2269558"><time>2023-06-03T12:02:50.780</time></trkpt><trkpt lat="55.9139024" lon="49.2268160"><time>2023-06-03T12:02:52.777</time></trkpt><trkpt lat="55.9138870" lon="49.2266732"><time>2023-06-03T12:02:54.783</time></trkpt><trkpt lat="55.9138768" lon="49.2265322"><time>2023-06-03T12:02:56.773</time></trkpt><trkpt lat="55.9138806" lon="49.2263778"><time>2023-06-03T12:02:58.797</time></trkpt><trkpt lat="55.9138800" lon="49.2262254"><time>2023-06-03T12:03:00.787</time></trkpt><trkpt lat="55.9138720" lon="49.2260800"><time>2023-06-03T12:03:02.787</time></trkpt><trkpt lat="55.9138640" lon="49.2259372"><time>2023-06-03T12:03:04.793</time></trkpt><trkpt lat="55.9138529" lon="49.2257990"><time>2023-06-03T12:03:06.780</time></trkpt><trkpt lat="55.9138429" lon="49.2256604"><time>2023-06-03T12:03:08.787</time></trkpt><trkpt lat="55.9138389" lon="49.2255172"><time>2023-06-03T12:03:10.773</time></trkpt><trkpt lat="55.9138425" lon="49.2253707"><time>2023-06-03T12:03:12.773</time></trkpt><trkpt lat="55.9138484" lon="49.2252284"><time>2023-06-03T12:03:14.777</time></trkpt><trkpt lat="55.9138546" lon="49.2250856"><time>2023-06-03T12:03:16.813</time></trkpt><trkpt lat="55.9138615" lon="49.2249324"><time>2023-06-03T12:03:18.780</time></trkpt><trkpt lat="55.9138614" lon="49.2247891"><time>2023-06-03T12:03:20.777</time></trkpt><trkpt lat="55.9138601" lon="49.2246416"><time>2023-06-03T12:03:22.800</time></trkpt><trkpt lat="55.9138622" lon="49.2245002"><time>2023-06-03T12:03:24.783</time></trkpt><trkpt lat="55.9138613" lon="49.2243639"><time>2023-06-03T12:03:26.767</time></trkpt><trkpt lat="55.9138588" lon="49.2242262"><time>2023-06-03T12:03:28.803</time></trkpt><trkpt lat="55.9138649" lon="49.2240996"><time>2023-06-03T12:03:30.777</time></trkpt><trkpt lat="55.9138760" lon="49.2239904"><time>2023-06-03T12:03:32.773</time></trkpt><trkpt lat="55.9138834" lon="49.2238767"><time>2023-06-03T12:03:34.800</time></trkpt><trkpt lat="55.9138907" lon="49.2237669"><time>2023-06-03T12:03:36.790</time></trkpt><trkpt lat="55.9138973" lon="49.2236534"><time>2023-06-03T12:03:38.777</time></trkpt><trkpt lat="55.9139026" lon="49.2235394"><time>2023-06-03T12:03:40.813</time></trkpt><trkpt lat="55.9139239" lon="49.2234226"><time>2023-06-03T12:03:42.773</time></trkpt><trkpt lat="55.9139554" lon="49.2233060"><time>2023-06-03T12:03:44.777</time></trkpt><trkpt lat="55.9139946" lon="49.2231881"><time>2023-06-03T12:03:46.787</time></trkpt><trkpt lat="55.9140246" lon="49.2230679"><time>2023-06-03T12:03:48.777</time></trkpt><trkpt lat="55.9140310" lon="49.2229409"><time>2023-06-03T12:03:50.777</time></trkpt><trkpt lat="55.9140385" lon="49.2228361"><time>2023-06-03T12:03:52.800</time></trkpt><trkpt lat="55.9140598" lon="49.2227332"><time>2023-06-03T12:04:14.787</time></trkpt><trkpt lat="55.9140711" lon="49.2226392"><time>2023-06-03T12:04:16.780</time></trkpt><trkpt lat="55.9140778" lon="49.2225333"><time>2023-06-03T12:04:18.780</time></trkpt><trkpt lat="55.9140845" lon="49.2224239"><time>2023-06-03T12:04:20.790</time></trkpt><trkpt lat="55.9140926" lon="49.2223030"><time>2023-06-03T12:04:22.787</time></trkpt><trkpt lat="55.9140818" lon="49.2221795"><time>2023-06-03T12:04:24.787</time></trkpt><trkpt lat="55.9140560" lon="49.2220604"><time>2023-06-03T12:04:26.783</time></trkpt><trkpt lat="55.9140195" lon="49.2219631"><time>2023-06-03T12:04:28.780</time></trkpt><trkpt lat="55.9139825" lon="49.2218738"><time>2023-06-03T12:04:30.790</time></trkpt><trkpt lat="55.9139570" lon="49.2217714"><time>2023-06-03T12:04:32.780</time></trkpt><trkpt lat="55.9139589" lon="49.2216580"><time>2023-06-03T12:04:34.797</time></trkpt><trkpt lat="55.9139839" lon="49.2215479"><time>2023-06-03T12:04:36.773</time></trkpt><trkpt lat="55.9140009" lon="49.2214468"><time>2023-06-03T12:04:38.783</time></trkpt><trkpt lat="55.9139982" lon="49.2213331"><time>2023-06-03T12:04:40.773</time></trkpt><trkpt lat="55.9139892" lon="49.2212064"><time>2023-06-03T12:04:42.783</time></trkpt><trkpt lat="55.9139749" lon="49.2210800"><time>2023-06-03T12:04:44.777</time></trkpt><trkpt lat="55.9139624" lon="49.2209506"><time>2023-06-03T12:04:46.763</time></trkpt><trkpt lat="55.9139482" lon="49.2208288"><time>2023-06-03T12:04:48.783</time></trkpt><trkpt lat="55.9139327" lon="49.2207121"><time>2023-06-03T12:04:50.780</time></trkpt><trkpt lat="55.9139216" lon="49.2205941"><time>2023-06-03T12:04:52.777</time></trkpt><trkpt lat="55.9139148" lon="49.2204836"><time>2023-06-03T12:04:54.787</time></trkpt><trkpt lat="55.9139106" lon="49.2203560"><time>2023-06-03T12:04:56.773</time></trkpt><trkpt lat="55.9138890" lon="49.2202304"><time>2023-06-03T12:04:58.780</time></trkpt><trkpt lat="55.9138501" lon="49.2201228"><time>2023-06-03T12:05:00.773</time></trkpt><trkpt lat="55.9138065" lon="49.2200042"><time>2023-06-03T12:05:02.783</time></trkpt><trkpt lat="55.9137749" lon="49.2198822"><time>2023-06-03T12:05:04.770</time></trkpt><trkpt lat="55.9137594" lon="49.2197585"><time>2023-06-03T12:05:06.767</time></trkpt><trkpt lat="55.9137445" lon="49.2196368"><time>2023-06-03T12:05:08.767</time></trkpt><trkpt lat="55.9137267" lon="49.2195222"><time>2023-06-03T12:05:10.777</time></trkpt><trkpt lat="55.9137138" lon="49.2194012"><time>2023-06-03T12:05:12.780</time></trkpt><trkpt lat="55.9137206" lon="49.2192815"><time>2023-06-03T12:05:14.777</time></trkpt><trkpt lat="55.9137705" lon="49.2191840"><time>2023-06-03T12:05:16.780</time></trkpt><trkpt lat="55.9138478" lon="49.2191407"><time>2023-06-03T12:05:18.773</time></trkpt><trkpt lat="55.9139151" lon="49.2191386"><time>2023-06-03T12:05:20.777</time></trkpt><trkpt lat="55.9139760" lon="49.2191323"><time>2023-06-03T12:05:22.777</time></trkpt><trkpt lat="55.9140372" lon="49.2191153"><time>2023-06-03T12:05:24.773</time></trkpt><trkpt lat="55.9141027" lon="49.2190983"><time>2023-06-03T12:05:26.783</time></trkpt><trkpt lat="55.9141769" lon="49.2190621"><time>2023-06-03T12:05:28.777</time></trkpt><trkpt lat="55.9142505" lon="49.2190189"><time>2023-06-03T12:05:30.773</time></trkpt><trkpt lat="55.9143264" lon="49.2189919"><time>2023-06-03T12:05:32.773</time></trkpt><trkpt lat="55.9144070" lon="49.2189744"><time>2023-06-03T12:05:34.770</time></trkpt><trkpt lat="55.9144769" lon="49.2189599"><time>2023-06-03T12:05:36.773</time></trkpt><trkpt lat="55.9145401" lon="49.2189399"><time>2023-06-03T12:05:38.770</time></trkpt><trkpt lat="55.9146173" lon="49.2189040"><time>2023-06-03T12:05:40.770</time></trkpt><trkpt lat="55.9146777" lon="49.2188735"><time>2023-06-03T12:05:42.777</time></trkpt><trkpt lat="55.9147378" lon="49.2188420"><time>2023-06-03T12:05:44.777</time></trkpt><trkpt lat="55.9147835" lon="49.2188030"><time>2023-06-03T12:05:46.780</time></trkpt><trkpt lat="55.9148232" lon="49.2187520"><time>2023-06-03T12:05:48.770</time></trkpt><trkpt lat="55.9148531" lon="49.2186748"><time>2023-06-03T12:05:50.767</time></trkpt><trkpt lat="55.9148657" lon="49.2185821"><time>2023-06-03T12:05:53.780</time></trkpt><trkpt lat="55.9148807" lon="49.2184602"><time>2023-06-03T12:06:05.787</time></trkpt><trkpt lat="55.9149031" lon="49.2183571"><time>2023-06-03T12:06:07.773</time></trkpt><trkpt lat="55.9149335" lon="49.2182389"><time>2023-06-03T12:06:09.813</time></trkpt><trkpt lat="55.9149573" lon="49.2181161"><time>2023-06-03T12:06:11.787</time></trkpt><trkpt lat="55.9149574" lon="49.2179786"><time>2023-06-03T12:06:13.793</time></trkpt><trkpt lat="55.9149504" lon="49.2178433"><time>2023-06-03T12:06:15.813</time></trkpt><trkpt lat="55.9149558" lon="49.2177220"><time>2023-06-03T12:06:17.783</time></trkpt><trkpt lat="55.9149867" lon="49.2176012"><time>2023-06-03T12:06:19.783</time></trkpt><trkpt lat="55.9150262" lon="49.2174845"><time>2023-06-03T12:06:21.793</time></trkpt><trkpt lat="55.9150612" lon="49.2173560"><time>2023-06-03T12:06:23.773</time></trkpt><trkpt lat="55.9150861" lon="49.2172230"><time>2023-06-03T12:06:25.787</time></trkpt><trkpt lat="55.9151092" lon="49.2170914"><time>2023-06-03T12:06:27.837</time></trkpt><trkpt lat="55.9151263" lon="49.2169595"><time>2023-06-03T12:06:29.793</time></trkpt><trkpt lat="55.9151460" lon="49.2168182"><time>2023-06-03T12:06:31.780</time></trkpt><trkpt lat="55.9151662" lon="49.2166920"><time>2023-06-03T12:06:33.807</time></trkpt><trkpt lat="55.9151888" lon="49.2165763"><time>2023-06-03T12:06:35.773</time></trkpt><trkpt lat="55.9152089" lon="49.2164628"><time>2023-06-03T12:06:37.793</time></trkpt><trkpt lat="55.9152235" lon="49.2163386"><time>2023-06-03T12:06:39.793</time></trkpt><trkpt lat="55.9152391" lon="49.2162005"><time>2023-06-03T12:06:41.803</time></trkpt><trkpt lat="55.9152478" lon="49.2160534"><time>2023-06-03T12:06:43.793</time></trkpt><trkpt lat="55.9152489" lon="49.2159142"><time>2023-06-03T12:06:45.797</time></trkpt><trkpt lat="55.9152589" lon="49.2157824"><time>2023-06-03T12:06:47.797</time></trkpt><trkpt lat="55.9152819" lon="49.2156571"><time>2023-06-03T12:06:49.803</time></trkpt><trkpt lat="55.9153129" lon="49.2155330"><time>2023-06-03T12:06:51.783</time></trkpt><trkpt lat="55.9153465" lon="49.2154199"><time>2023-06-03T12:06:53.773</time></trkpt><trkpt lat="55.9153735" lon="49.2153345"><time>2023-06-03T12:06:55.793</time></trkpt><trkpt lat="55.9153974" lon="49.2152544"><time>2023-06-03T12:06:57.793</time></trkpt><trkpt lat="55.9154195" lon="49.2151619"><time>2023-06-03T12:06:59.797</time></trkpt><trkpt lat="55.9154314" lon="49.2150629"><time>2023-06-03T12:07:01.840</time></trkpt><trkpt lat="55.9154348" lon="49.2149571"><time>2023-06-03T12:07:03.793</time></trkpt><trkpt lat="55.9154440" lon="49.2148478"><time>2023-06-03T12:07:05.780</time></trkpt><trkpt lat="55.9154579" lon="49.2147339"><time>2023-06-03T12:07:07.780</time></trkpt><trkpt lat="55.9154714" lon="49.2146184"><time>2023-06-03T12:07:09.780</time></trkpt><trkpt lat="55.9154825" lon="49.2145175"><time>2023-06-03T12:07:11.783</time></trkpt><trkpt lat="55.9154928" lon="49.2144212"><time>2023-06-03T12:07:13.817</time></trkpt><trkpt lat="55.9155106" lon="49.2143208"><time>2023-06-03T12:07:15.767</time></trkpt><trkpt lat="55.9155341" lon="49.2142149"><time>2023-06-03T12:07:17.783</time></trkpt><trkpt lat="55.9155639" lon="49.2141173"><time>2023-06-03T12:07:19.790</time></trkpt><trkpt lat="55.9155936" lon="49.2140194"><time>2023-06-03T12:07:21.760</time></trkpt><trkpt lat="55.9156274" lon="49.2139139"><time>2023-06-03T12:07:23.787</time></trkpt><trkpt lat="55.9156605" lon="49.2138055"><time>2023-06-03T12:07:25.813</time></trkpt><trkpt lat="55.9156836" lon="49.2136740"><time>2023-06-03T12:07:27.773</time></trkpt><trkpt lat="55.9156764" lon="49.2135514"><time>2023-06-03T12:07:29.770</time></trkpt><trkpt lat="55.9156407" lon="49.2134297"><time>2023-06-03T12:07:31.797</time></trkpt><trkpt lat="55.9155966" lon="49.2133029"><time>2023-06-03T12:07:33.783</time></trkpt><trkpt lat="55.9155451" lon="49.2131743"><time>2023-06-03T12:07:35.780</time></trkpt><trkpt lat="55.9154980" lon="49.2130487"><time>2023-06-03T12:07:37.777</time></trkpt><trkpt lat="55.9154574" lon="49.2129164"><time>2023-06-03T12:07:39.770</time></trkpt><trkpt lat="55.9154243" lon="49.2127932"><time>2023-06-03T12:07:41.797</time></trkpt><trkpt lat="55.9153828" lon="49.2126783"><time>2023-06-03T12:07:43.777</time></trkpt><trkpt lat="55.9153473" lon="49.2125568"><time>2023-06-03T12:07:45.777</time></trkpt><trkpt lat="55.9153161" lon="49.2124308"><time>2023-06-03T12:07:47.777</time></trkpt><trkpt lat="55.9152863" lon="49.2123023"><time>2023-06-03T12:07:49.770</time></trkpt><trkpt lat="55.9152549" lon="49.2121485"><time>2023-06-03T12:07:51.773</time></trkpt><trkpt lat="55.9152336" lon="49.2120744"><time>2023-06-03T12:07:52.777</time></trkpt><trkpt lat="55.9151845" lon="49.2119526"><time>2023-06-03T12:07:54.807</time></trkpt><trkpt lat="55.9151305" lon="49.2118404"><time>2023-06-03T12:07:56.770</time></trkpt><trkpt lat="55.9150875" lon="49.2117224"><time>2023-06-03T12:07:58.777</time></trkpt><trkpt lat="55.9150379" lon="49.2116038"><time>2023-06-03T12:08:00.810</time></trkpt><trkpt lat="55.9149839" lon="49.2114890"><time>2023-06-03T12:08:02.773</time></trkpt><trkpt lat="55.9149419" lon="49.2113920"><time>2023-06-03T12:08:04.777</time></trkpt><trkpt lat="55.9148912" lon="49.2112962"><time>2023-06-03T12:08:06.787</time></trkpt><trkpt lat="55.9148377" lon="49.2111937"><time>2023-06-03T12:08:08.770</time></trkpt><trkpt lat="55.9147848" lon="49.2110881"><time>2023-06-03T12:08:10.777</time></trkpt><trkpt lat="55.9147300" lon="49.2109815"><time>2023-06-03T12:08:12.827</time></trkpt><trkpt lat="55.9146805" lon="49.2108687"><time>2023-06-03T12:08:14.777</time></trkpt><trkpt lat="55.9146301" lon="49.2107444"><time>2023-06-03T12:08:16.773</time></trkpt><trkpt lat="55.9145834" lon="49.2106367"><time>2023-06-03T12:08:18.790</time></trkpt><trkpt lat="55.9145393" lon="49.2105183"><time>2023-06-03T12:08:20.780</time></trkpt><trkpt lat="55.9144949" lon="49.2103976"><time>2023-06-03T12:08:22.773</time></trkpt><trkpt lat="55.9144495" lon="49.2102819"><time>2023-06-03T12:08:24.803</time></trkpt><trkpt lat="55.9144034" lon="49.2101606"><time>2023-06-03T12:08:26.767</time></trkpt><trkpt lat="55.9143715" lon="49.2100435"><time>2023-06-03T12:08:28.777</time></trkpt><trkpt lat="55.9143456" lon="49.2099105"><time>2023-06-03T12:08:30.807</time></trkpt><trkpt lat="55.9143100" lon="49.2097758"><time>2023-06-03T12:08:32.773</time></trkpt><trkpt lat="55.9142849" lon="49.2097071"><time>2023-06-03T12:08:33.770</time></trkpt><trkpt lat="55.9142584" lon="49.2096406"><time>2023-06-03T12:08:34.773</time></trkpt><trkpt lat="55.9142073" lon="49.2095188"><time>2023-06-03T12:08:36.800</time></trkpt><trkpt lat="55.9141620" lon="49.2094013"><time>2023-06-03T12:08:38.780</time></trkpt><trkpt lat="55.9141122" lon="49.2092869"><time>2023-06-03T12:08:40.777</time></trkpt><trkpt lat="55.9140572" lon="49.2091726"><time>2023-06-03T12:08:42.797</time></trkpt><trkpt lat="55.9140035" lon="49.2090636"><time>2023-06-03T12:08:44.770</time></trkpt><trkpt lat="55.9139475" lon="49.2089659"><time>2023-06-03T12:08:46.777</time></trkpt><trkpt lat="55.9138913" lon="49.2088781"><time>2023-06-03T12:08:48.800</time></trkpt><trkpt lat="55.9138320" lon="49.2087919"><time>2023-06-03T12:08:50.783</time></trkpt><trkpt lat="55.9137651" lon="49.2087072"><time>2023-06-03T12:08:52.767</time></trkpt><trkpt lat="55.9136897" lon="49.2086452"><time>2023-06-03T12:08:54.803</time></trkpt><trkpt lat="55.9136133" lon="49.2085933"><time>2023-06-03T12:08:56.767</time></trkpt><trkpt lat="55.9135548" lon="49.2085393"><time>2023-06-03T12:08:58.773</time></trkpt><trkpt lat="55.9135012" lon="49.2084489"><time>2023-06-03T12:09:00.807</time></trkpt><trkpt lat="55.9134506" lon="49.2083640"><time>2023-06-03T12:09:02.770</time></trkpt><trkpt lat="55.9133943" lon="49.2083054"><time>2023-06-03T12:09:04.773</time></trkpt><trkpt lat="55.9133292" lon="49.2082568"><time>2023-06-03T12:09:06.777</time></trkpt><trkpt lat="55.9132668" lon="49.2082252"><time>2023-06-03T12:09:08.777</time></trkpt><trkpt lat="55.9132128" lon="49.2081993"><time>2023-06-03T12:09:10.783</time></trkpt><trkpt lat="55.9131617" lon="49.2081420"><time>2023-06-03T12:09:12.803</time></trkpt><trkpt lat="55.9130975" lon="49.2080628"><time>2023-06-03T12:09:14.773</time></trkpt><trkpt lat="55.9130394" lon="49.2080202"><time>2023-06-03T12:09:16.767</time></trkpt><trkpt lat="55.9129771" lon="49.2079879"><time>2023-06-03T12:09:18.783</time></trkpt><trkpt lat="55.9129110" lon="49.2079415"><time>2023-06-03T12:09:20.773</time></trkpt><trkpt lat="55.9128430" lon="49.2078980"><time>2023-06-03T12:09:22.773</time></trkpt><trkpt lat="55.9127681" lon="49.2078645"><time>2023-06-03T12:09:24.823</time></trkpt><trkpt lat="55.9126996" lon="49.2078288"><time>2023-06-03T12:09:26.770</time></trkpt><trkpt lat="55.9126375" lon="49.2077894"><time>2023-06-03T12:09:28.793</time></trkpt><trkpt lat="55.9125733" lon="49.2077430"><time>2023-06-03T12:09:30.800</time></trkpt><trkpt lat="55.9125055" lon="49.2076898"><time>2023-06-03T12:09:32.797</time></trkpt><trkpt lat="55.9124437" lon="49.2076347"><time>2023-06-03T12:09:34.767</time></trkpt><trkpt lat="55.9123818" lon="49.2075707"><time>2023-06-03T12:09:36.813</time></trkpt><trkpt lat="55.9123308" lon="49.2075067"><time>2023-06-03T12:09:38.793</time></trkpt><trkpt lat="55.9122771" lon="49.2074401"><time>2023-06-03T12:09:40.767</time></trkpt><trkpt lat="55.9122119" lon="49.2073983"><time>2023-06-03T12:09:42.783</time></trkpt><trkpt lat="55.9121379" lon="49.2073907"><time>2023-06-03T12:09:44.767</time></trkpt><trkpt lat="55.9120629" lon="49.2073826"><time>2023-06-03T12:09:46.763</time></trkpt><trkpt lat="55.9119781" lon="49.2073509"><time>2023-06-03T12:09:48.820</time></trkpt><trkpt lat="55.9119346" lon="49.2073285"><time>2023-06-03T12:09:49.777</time></trkpt><trkpt lat="55.9118566" lon="49.2072962"><time>2023-06-03T12:09:51.780</time></trkpt><trkpt lat="55.9117832" lon="49.2072768"><time>2023-06-03T12:09:53.770</time></trkpt><trkpt lat="55.9117239" lon="49.2072541"><time>2023-06-03T12:09:55.777</time></trkpt><trkpt lat="55.9116645" lon="49.2072234"><time>2023-06-03T12:09:57.777</time></trkpt><trkpt lat="55.9115986" lon="49.2072137"><time>2023-06-03T12:09:59.770</time></trkpt><trkpt lat="55.9115375" lon="49.2072289"><time>2023-06-03T12:10:01.773</time></trkpt><trkpt lat="55.9114723" lon="49.2072370"><time>2023-06-03T12:10:03.777</time></trkpt><trkpt lat="55.9114018" lon="49.2072408"><time>2023-06-03T12:10:05.777</time></trkpt><trkpt lat="55.9113410" lon="49.2072372"><time>2023-06-03T12:10:07.767</time></trkpt><trkpt lat="55.9112861" lon="49.2072275"><time>2023-06-03T12:10:09.780</time></trkpt><trkpt lat="55.9112313" lon="49.2072013"><time>2023-06-03T12:10:22.793</time></trkpt><trkpt lat="55.9111789" lon="49.2071911"><time>2023-06-03T12:10:24.830</time></trkpt><trkpt lat="55.9111234" lon="49.2071718"><time>2023-06-03T12:10:26.773</time></trkpt><trkpt lat="55.9110798" lon="49.2071515"><time>2023-06-03T12:10:28.780</time></trkpt><trkpt lat="55.9110263" lon="49.2071265"><time>2023-06-03T12:10:30.827</time></trkpt><trkpt lat="55.9109988" lon="49.2071092"><time>2023-06-03T12:10:31.777</time></trkpt><trkpt lat="55.9109478" lon="49.2070796"><time>2023-06-03T12:10:33.770</time></trkpt><trkpt lat="55.9108967" lon="49.2070616"><time>2023-06-03T12:10:35.793</time></trkpt><trkpt lat="55.9108477" lon="49.2070525"><time>2023-06-03T12:10:37.773</time></trkpt><trkpt lat="55.9107965" lon="49.2070393"><time>2023-06-03T12:10:39.773</time></trkpt><trkpt lat="55.9107493" lon="49.2070190"><time>2023-06-03T12:10:41.777</time></trkpt><trkpt lat="55.9107033" lon="49.2070007"><time>2023-06-03T12:10:43.777</time></trkpt><trkpt lat="55.9106575" lon="49.2069787"><time>2023-06-03T12:10:45.777</time></trkpt><trkpt lat="55.9106005" lon="49.2069425"><time>2023-06-03T12:10:48.803</time></trkpt><trkpt lat="55.9105572" lon="49.2069208"><time>2023-06-03T12:10:50.787</time></trkpt><trkpt lat="55.9105289" lon="49.2069101"><time>2023-06-03T12:10:51.773</time></trkpt><trkpt lat="55.9104700" lon="49.2068900"><time>2023-06-03T12:10:53.777</time></trkpt><trkpt lat="55.9104199" lon="49.2068850"><time>2023-06-03T12:10:55.780</time></trkpt><trkpt lat="55.9103582" lon="49.2068991"><time>2023-06-03T12:10:58.790</time></trkpt><trkpt lat="55.9102962" lon="49.2068865"><time>2023-06-03T12:11:00.793</time></trkpt><trkpt lat="55.9102315" lon="49.2068584"><time>2023-06-03T12:11:02.770</time></trkpt><trkpt lat="55.9101621" lon="49.2068247"><time>2023-06-03T12:11:04.767</time></trkpt><trkpt lat="55.9101091" lon="49.2067792"><time>2023-06-03T12:11:06.767</time></trkpt><trkpt lat="55.9100647" lon="49.2067185"><time>2023-06-03T12:11:08.770</time></trkpt><trkpt lat="55.9100284" lon="49.2066539"><time>2023-06-03T12:11:10.780</time></trkpt><trkpt lat="55.9099847" lon="49.2065797"><time>2023-06-03T12:11:13.773</time></trkpt><trkpt lat="55.9100396" lon="49.2066019"><time>2023-06-03T12:11:25.777</time></trkpt><trkpt lat="55.9100858" lon="49.2066575"><time>2023-06-03T12:11:30.787</time></trkpt><trkpt lat="55.9101201" lon="49.2065798"><time>2023-06-03T12:11:38.793</time></trkpt><trkpt lat="55.9101405" lon="49.2064926"><time>2023-06-03T12:11:43.807</time></trkpt><trkpt lat="55.9101405" lon="49.2064926"><time>2023-06-03T12:11:43.897</time></trkpt><trkpt lat="55.9101058" lon="49.2065762"><time>2023-06-03T12:11:52.793</time></trkpt><trkpt lat="55.9100989" lon="49.2066029"><time>2023-06-03T12:11:53.777</time></trkpt><trkpt lat="55.9100860" lon="49.2066850"><time>2023-06-03T12:11:58.793</time></trkpt><trkpt lat="55.9101313" lon="49.2067449"><time>2023-06-03T12:12:36.767</time></trkpt><trkpt lat="55.9101685" lon="49.2067985"><time>2023-06-03T12:12:38.773</time></trkpt><trkpt lat="55.9102275" lon="49.2068525"><time>2023-06-03T12:12:40.770</time></trkpt><trkpt lat="55.9102893" lon="49.2068944"><time>2023-06-03T12:12:42.773</time></trkpt><trkpt lat="55.9103665" lon="49.2069104"><time>2023-06-03T12:12:44.770</time></trkpt><trkpt lat="55.9104387" lon="49.2068987"><time>2023-06-03T12:12:46.763</time></trkpt><trkpt lat="55.9104911" lon="49.2068832"><time>2023-06-03T12:12:48.770</time></trkpt><trkpt lat="55.9105547" lon="49.2068923"><time>2023-06-03T12:12:51.787</time></trkpt><trkpt lat="55.9106231" lon="49.2069230"><time>2023-06-03T12:12:54.773</time></trkpt><trkpt lat="55.9106742" lon="49.2069332"><time>2023-06-03T12:12:56.763</time></trkpt><trkpt lat="55.9107306" lon="49.2069501"><time>2023-06-03T12:12:58.783</time></trkpt><trkpt lat="55.9107861" lon="49.2069777"><time>2023-06-03T12:13:00.783</time></trkpt><trkpt lat="55.9108430" lon="49.2070175"><time>2023-06-03T12:13:02.787</time></trkpt><trkpt lat="55.9109004" lon="49.2070572"><time>2023-06-03T12:13:04.773</time></trkpt><trkpt lat="55.9109578" lon="49.2070878"><time>2023-06-03T12:13:06.770</time></trkpt><trkpt lat="55.9110159" lon="49.2071199"><time>2023-06-03T12:13:08.773</time></trkpt><trkpt lat="55.9110624" lon="49.2071496"><time>2023-06-03T12:13:10.767</time></trkpt><trkpt lat="55.9111257" lon="49.2071825"><time>2023-06-03T12:13:12.777</time></trkpt><trkpt lat="55.9111961" lon="49.2071941"><time>2023-06-03T12:13:14.780</time></trkpt><trkpt lat="55.9112699" lon="49.2071916"><time>2023-06-03T12:13:16.760</time></trkpt><trkpt lat="55.9113416" lon="49.2071889"><time>2023-06-03T12:13:18.767</time></trkpt><trkpt lat="55.9114146" lon="49.2071942"><time>2023-06-03T12:13:20.770</time></trkpt><trkpt lat="55.9114880" lon="49.2072008"><time>2023-06-03T12:13:22.767</time></trkpt><trkpt lat="55.9115440" lon="49.2072005"><time>2023-06-03T12:13:24.770</time></trkpt><trkpt lat="55.9116017" lon="49.2072030"><time>2023-06-03T12:13:26.777</time></trkpt><trkpt lat="55.9116693" lon="49.2072021"><time>2023-06-03T12:13:28.777</time></trkpt><trkpt lat="55.9117432" lon="49.2072247"><time>2023-06-03T12:13:30.780</time></trkpt><trkpt lat="55.9118120" lon="49.2072677"><time>2023-06-03T12:13:32.807</time></trkpt><trkpt lat="55.9118792" lon="49.2073021"><time>2023-06-03T12:13:34.783</time></trkpt><trkpt lat="55.9119467" lon="49.2073352"><time>2023-06-03T12:13:36.763</time></trkpt><trkpt lat="55.9120196" lon="49.2073761"><time>2023-06-03T12:13:38.787</time></trkpt><trkpt lat="55.9120940" lon="49.2074113"><time>2023-06-03T12:13:40.773</time></trkpt><trkpt lat="55.9121641" lon="49.2074385"><time>2023-06-03T12:13:42.773</time></trkpt><trkpt lat="55.9122274" lon="49.2074506"><time>2023-06-03T12:13:44.807</time></trkpt><trkpt lat="55.9122801" lon="49.2074554"><time>2023-06-03T12:13:46.783</time></trkpt><trkpt lat="55.9123118" lon="49.2073781"><time>2023-06-03T12:13:49.787</time></trkpt><trkpt lat="55.9122815" lon="49.2072826"><time>2023-06-03T12:13:51.793</time></trkpt><trkpt lat="55.9122454" lon="49.2072066"><time>2023-06-03T12:13:53.777</time></trkpt><trkpt lat="55.9122086" lon="49.2071371"><time>2023-06-03T12:13:55.793</time></trkpt><trkpt lat="55.9121698" lon="49.2070590"><time>2023-06-03T12:13:57.787</time></trkpt><trkpt lat="55.9121246" lon="49.2069672"><time>2023-06-03T12:13:59.783</time></trkpt><trkpt lat="55.9120770" lon="49.2068694"><time>2023-06-03T12:14:01.783</time></trkpt><trkpt lat="55.9120295" lon="49.2067627"><time>2023-06-03T12:14:03.793</time></trkpt><trkpt lat="55.9119833" lon="49.2066704"><time>2023-06-03T12:14:05.777</time></trkpt><trkpt lat="55.9119321" lon="49.2065800"><time>2023-06-03T12:14:07.787</time></trkpt><trkpt lat="55.9118869" lon="49.2064878"><time>2023-06-03T12:14:09.790</time></trkpt><trkpt lat="55.9118541" lon="49.2063924"><time>2023-06-03T12:14:11.783</time></trkpt><trkpt lat="55.9118405" lon="49.2062946"><time>2023-06-03T12:14:13.777</time></trkpt><trkpt lat="55.9118420" lon="49.2061979"><time>2023-06-03T12:14:15.777</time></trkpt><trkpt lat="55.9118420" lon="49.2060663"><time>2023-06-03T12:14:17.793</time></trkpt><trkpt lat="55.9118411" lon="49.2059495"><time>2023-06-03T12:14:19.770</time></trkpt><trkpt lat="55.9118433" lon="49.2058214"><time>2023-06-03T12:14:21.787</time></trkpt><trkpt lat="55.9118499" lon="49.2057242"><time>2023-06-03T12:14:23.773</time></trkpt><trkpt lat="55.9118671" lon="49.2056240"><time>2023-06-03T12:14:25.770</time></trkpt><trkpt lat="55.9118808" lon="49.2055282"><time>2023-06-03T12:14:27.777</time></trkpt><trkpt lat="55.9118779" lon="49.2054475"><time>2023-06-03T12:14:29.767</time></trkpt><trkpt lat="55.9118690" lon="49.2053596"><time>2023-06-03T12:14:31.770</time></trkpt><trkpt lat="55.9118494" lon="49.2052466"><time>2023-06-03T12:14:33.770</time></trkpt><trkpt lat="55.9118159" lon="49.2051408"><time>2023-06-03T12:14:35.767</time></trkpt><trkpt lat="55.9117796" lon="49.2050432"><time>2023-06-03T12:14:37.777</time></trkpt><trkpt lat="55.9117476" lon="49.2049435"><time>2023-06-03T12:14:39.780</time></trkpt><trkpt lat="55.9117108" lon="49.2048410"><time>2023-06-03T12:14:41.777</time></trkpt><trkpt lat="55.9116766" lon="49.2047290"><time>2023-06-03T12:14:43.780</time></trkpt><trkpt lat="55.9116491" lon="49.2046198"><time>2023-06-03T12:14:45.790</time></trkpt><trkpt lat="55.9116145" lon="49.2045167"><time>2023-06-03T12:14:47.787</time></trkpt><trkpt lat="55.9115744" lon="49.2044223"><time>2023-06-03T12:14:49.783</time></trkpt><trkpt lat="55.9115379" lon="49.2043199"><time>2023-06-03T12:14:51.767</time></trkpt><trkpt lat="55.9115024" lon="49.2042150"><time>2023-06-03T12:14:53.773</time></trkpt><trkpt lat="55.9114700" lon="49.2040947"><time>2023-06-03T12:14:55.780</time></trkpt><trkpt lat="55.9114601" lon="49.2039622"><time>2023-06-03T12:14:57.773</time></trkpt><trkpt lat="55.9114694" lon="49.2038323"><time>2023-06-03T12:14:59.777</time></trkpt><trkpt lat="55.9114799" lon="49.2037036"><time>2023-06-03T12:15:01.780</time></trkpt><trkpt lat="55.9114789" lon="49.2035849"><time>2023-06-03T12:15:03.780</time></trkpt><trkpt lat="55.9114777" lon="49.2034688"><time>2023-06-03T12:15:05.777</time></trkpt><trkpt lat="55.9114647" lon="49.2033596"><time>2023-06-03T12:15:07.827</time></trkpt><trkpt lat="55.9114446" lon="49.2032438"><time>2023-06-03T12:15:09.780</time></trkpt><trkpt lat="55.9114111" lon="49.2031387"><time>2023-06-03T12:15:11.770</time></trkpt><trkpt lat="55.9113714" lon="49.2030455"><time>2023-06-03T12:15:13.813</time></trkpt><trkpt lat="55.9113408" lon="49.2029391"><time>2023-06-03T12:15:15.773</time></trkpt><trkpt lat="55.9113224" lon="49.2028251"><time>2023-06-03T12:15:17.777</time></trkpt><trkpt lat="55.9113080" lon="49.2027113"><time>2023-06-03T12:15:19.807</time></trkpt><trkpt lat="55.9112916" lon="49.2025919"><time>2023-06-03T12:15:21.790</time></trkpt><trkpt lat="55.9112759" lon="49.2024845"><time>2023-06-03T12:15:23.767</time></trkpt><trkpt lat="55.9112591" lon="49.2023562"><time>2023-06-03T12:15:25.777</time></trkpt><trkpt lat="55.9112411" lon="49.2022244"><time>2023-06-03T12:15:27.780</time></trkpt><trkpt lat="55.9112220" lon="49.2020976"><time>2023-06-03T12:15:29.773</time></trkpt><trkpt lat="55.9112020" lon="49.2019585"><time>2023-06-03T12:15:31.813</time></trkpt><trkpt lat="55.9111787" lon="49.2018273"><time>2023-06-03T12:15:33.777</time></trkpt><trkpt lat="55.9111600" lon="49.2016978"><time>2023-06-03T12:15:35.773</time></trkpt><trkpt lat="55.9111434" lon="49.2015807"><time>2023-06-03T12:15:37.757</time></trkpt><trkpt lat="55.9111334" lon="49.2014594"><time>2023-06-03T12:15:39.777</time></trkpt><trkpt lat="55.9111235" lon="49.2013506"><time>2023-06-03T12:15:41.773</time></trkpt><trkpt lat="55.9111137" lon="49.2012323"><time>2023-06-03T12:15:43.807</time></trkpt><trkpt lat="55.9111058" lon="49.2011021"><time>2023-06-03T12:15:45.777</time></trkpt><trkpt lat="55.9110850" lon="49.2009758"><time>2023-06-03T12:15:47.783</time></trkpt><trkpt lat="55.9110592" lon="49.2008461"><time>2023-06-03T12:15:49.807</time></trkpt><trkpt lat="55.9110355" lon="49.2007260"><time>2023-06-03T12:15:51.780</time></trkpt><trkpt lat="55.9110172" lon="49.2006141"><time>2023-06-03T12:15:53.787</time></trkpt><trkpt lat="55.9110036" lon="49.2004969"><time>2023-06-03T12:15:55.777</time></trkpt><trkpt lat="55.9109942" lon="49.2003730"><time>2023-06-03T12:15:57.763</time></trkpt><trkpt lat="55.9109939" lon="49.2002455"><time>2023-06-03T12:15:59.777</time></trkpt><trkpt lat="55.9109877" lon="49.2001274"><time>2023-06-03T12:16:01.780</time></trkpt><trkpt lat="55.9109676" lon="49.2000083"><time>2023-06-03T12:16:03.767</time></trkpt><trkpt lat="55.9109426" lon="49.1999114"><time>2023-06-03T12:16:05.773</time></trkpt><trkpt lat="55.9109077" lon="49.1998366"><time>2023-06-03T12:16:07.777</time></trkpt><trkpt lat="55.9108848" lon="49.1997507"><time>2023-06-03T12:16:09.803</time></trkpt><trkpt lat="55.9108739" lon="49.1996309"><time>2023-06-03T12:16:11.767</time></trkpt><trkpt lat="55.9108524" lon="49.1995168"><time>2023-06-03T12:16:13.767</time></trkpt><trkpt lat="55.9108326" lon="49.1994351"><time>2023-06-03T12:16:15.773</time></trkpt><trkpt lat="55.9108151" lon="49.1993439"><time>2023-06-03T12:16:18.827</time></trkpt><trkpt lat="55.9108303" lon="49.1992462"><time>2023-06-03T12:16:21.770</time></trkpt><trkpt lat="55.9108369" lon="49.1991467"><time>2023-06-03T12:16:24.787</time></trkpt><trkpt lat="55.9108296" lon="49.1990521"><time>2023-06-03T12:16:27.800</time></trkpt><trkpt lat="55.9108630" lon="49.1989985"><time>2023-06-03T12:16:32.783</time></trkpt><trkpt lat="55.9109092" lon="49.1989449"><time>2023-06-03T12:16:42.803</time></trkpt><trkpt lat="55.9109538" lon="49.1988484"><time>2023-06-03T12:17:10.770</time></trkpt><trkpt lat="55.9110056" lon="49.1988040"><time>2023-06-03T12:17:12.780</time></trkpt><trkpt lat="55.9110533" lon="49.1987690"><time>2023-06-03T12:17:14.773</time></trkpt><trkpt lat="55.9111138" lon="49.1987444"><time>2023-06-03T12:17:17.770</time></trkpt><trkpt lat="55.9111718" lon="49.1987265"><time>2023-06-03T12:17:20.773</time></trkpt><trkpt lat="55.9112175" lon="49.1987249"><time>2023-06-03T12:17:24.793</time></trkpt><trkpt lat="55.9112389" lon="49.1986422"><time>2023-06-03T12:17:36.790</time></trkpt><trkpt lat="55.9112722" lon="49.1985627"><time>2023-06-03T12:17:39.780</time></trkpt><trkpt lat="55.9112955" lon="49.1984799"><time>2023-06-03T12:17:46.767</time></trkpt><trkpt lat="55.9113438" lon="49.1984244"><time>2023-06-03T12:17:49.777</time></trkpt><trkpt lat="55.9113832" lon="49.1983815"><time>2023-06-03T12:17:51.780</time></trkpt><trkpt lat="55.9114213" lon="49.1983393"><time>2023-06-03T12:17:53.783</time></trkpt><trkpt lat="55.9114581" lon="49.1982838"><time>2023-06-03T12:17:56.770</time></trkpt><trkpt lat="55.9114960" lon="49.1982251"><time>2023-06-03T12:17:59.780</time></trkpt><trkpt lat="55.9115145" lon="49.1981515"><time>2023-06-03T12:18:02.777</time></trkpt><trkpt lat="55.9114952" lon="49.1980785"><time>2023-06-03T12:18:29.817</time></trkpt><trkpt lat="55.9114467" lon="49.1980621"><time>2023-06-03T12:18:32.770</time></trkpt><trkpt lat="55.9113882" lon="49.1980394"><time>2023-06-03T12:18:35.793</time></trkpt><trkpt lat="55.9113334" lon="49.1979823"><time>2023-06-03T12:18:38.777</time></trkpt><trkpt lat="55.9113017" lon="49.1979227"><time>2023-06-03T12:18:40.777</time></trkpt><trkpt lat="55.9112811" lon="49.1978453"><time>2023-06-03T12:18:42.783</time></trkpt><trkpt lat="55.9112679" lon="49.1977672"><time>2023-06-03T12:18:44.780</time></trkpt><trkpt lat="55.9112523" lon="49.1976734"><time>2023-06-03T12:18:46.767</time></trkpt><trkpt lat="55.9112283" lon="49.1975746"><time>2023-06-03T12:18:48.777</time></trkpt><trkpt lat="55.9111963" lon="49.1974765"><time>2023-06-03T12:18:50.787</time></trkpt><trkpt lat="55.9111621" lon="49.1973765"><time>2023-06-03T12:18:52.790</time></trkpt><trkpt lat="55.9111387" lon="49.1972764"><time>2023-06-03T12:18:54.780</time></trkpt><trkpt lat="55.9111188" lon="49.1971595"><time>2023-06-03T12:18:56.767</time></trkpt><trkpt lat="55.9110985" lon="49.1970410"><time>2023-06-03T12:18:58.793</time></trkpt><trkpt lat="55.9110668" lon="49.1969276"><time>2023-06-03T12:19:00.773</time></trkpt><trkpt lat="55.9110351" lon="49.1968165"><time>2023-06-03T12:19:02.767</time></trkpt><trkpt lat="55.9110050" lon="49.1967033"><time>2023-06-03T12:19:04.773</time></trkpt><trkpt lat="55.9109753" lon="49.1965947"><time>2023-06-03T12:19:06.773</time></trkpt><trkpt lat="55.9109352" lon="49.1964817"><time>2023-06-03T12:19:08.773</time></trkpt><trkpt lat="55.9109015" lon="49.1963739"><time>2023-06-03T12:19:10.780</time></trkpt><trkpt lat="55.9108781" lon="49.1962893"><time>2023-06-03T12:19:12.777</time></trkpt><trkpt lat="55.9108808" lon="49.1962048"><time>2023-06-03T12:19:38.780</time></trkpt><trkpt lat="55.9108590" lon="49.1961078"><time>2023-06-03T12:19:40.777</time></trkpt><trkpt lat="55.9108266" lon="49.1960239"><time>2023-06-03T12:19:42.773</time></trkpt><trkpt lat="55.9107948" lon="49.1959300"><time>2023-06-03T12:19:44.770</time></trkpt><trkpt lat="55.9107619" lon="49.1958265"><time>2023-06-03T12:19:46.780</time></trkpt><trkpt lat="55.9107257" lon="49.1957156"><time>2023-06-03T12:19:48.783</time></trkpt><trkpt lat="55.9106975" lon="49.1955939"><time>2023-06-03T12:19:50.773</time></trkpt><trkpt lat="55.9106736" lon="49.1954756"><time>2023-06-03T12:19:52.817</time></trkpt><trkpt lat="55.9106564" lon="49.1953761"><time>2023-06-03T12:19:54.773</time></trkpt><trkpt lat="55.9106359" lon="49.1952862"><time>2023-06-03T12:19:56.767</time></trkpt><trkpt lat="55.9106141" lon="49.1951888"><time>2023-06-03T12:19:58.803</time></trkpt><trkpt lat="55.9105932" lon="49.1950960"><time>2023-06-03T12:20:00.773</time></trkpt><trkpt lat="55.9105757" lon="49.1949871"><time>2023-06-03T12:20:03.777</time></trkpt><trkpt lat="55.9105571" lon="49.1949062"><time>2023-06-03T12:20:06.770</time></trkpt><trkpt lat="55.9105358" lon="49.1948342"><time>2023-06-03T12:20:16.787</time></trkpt><trkpt lat="55.9105844" lon="49.1948226"><time>2023-06-03T12:21:20.787</time></trkpt><trkpt lat="55.9106259" lon="49.1947897"><time>2023-06-03T12:21:26.767</time></trkpt><trkpt lat="55.9105796" lon="49.1948269"><time>2023-06-03T12:21:36.807</time></trkpt><trkpt lat="55.9105344" lon="49.1948027"><time>2023-06-03T12:22:03.777</time></trkpt><trkpt lat="55.9105268" lon="49.1946986"><time>2023-06-03T12:22:05.780</time></trkpt><trkpt lat="55.9105201" lon="49.1946006"><time>2023-06-03T12:22:07.790</time></trkpt><trkpt lat="55.9105088" lon="49.1944759"><time>2023-06-03T12:22:09.773</time></trkpt><trkpt lat="55.9104952" lon="49.1943581"><time>2023-06-03T12:22:11.777</time></trkpt><trkpt lat="55.9104803" lon="49.1942518"><time>2023-06-03T12:22:13.787</time></trkpt><trkpt lat="55.9104708" lon="49.1941544"><time>2023-06-03T12:22:15.780</time></trkpt><trkpt lat="55.9104633" lon="49.1940510"><time>2023-06-03T12:22:17.797</time></trkpt><trkpt lat="55.9104585" lon="49.1939413"><time>2023-06-03T12:22:19.800</time></trkpt><trkpt lat="55.9104566" lon="49.1938341"><time>2023-06-03T12:22:21.777</time></trkpt><trkpt lat="55.9104633" lon="49.1937279"><time>2023-06-03T12:22:23.800</time></trkpt><trkpt lat="55.9104666" lon="49.1936158"><time>2023-06-03T12:22:25.787</time></trkpt><trkpt lat="55.9104685" lon="49.1934868"><time>2023-06-03T12:22:27.777</time></trkpt><trkpt lat="55.9104714" lon="49.1933556"><time>2023-06-03T12:22:29.793</time></trkpt><trkpt lat="55.9104794" lon="49.1932354"><time>2023-06-03T12:22:31.787</time></trkpt><trkpt lat="55.9104879" lon="49.1931334"><time>2023-06-03T12:22:33.793</time></trkpt><trkpt lat="55.9104891" lon="49.1930333"><time>2023-06-03T12:22:35.777</time></trkpt><trkpt lat="55.9104900" lon="49.1929370"><time>2023-06-03T12:22:37.780</time></trkpt><trkpt lat="55.9104748" lon="49.1928531"><time>2023-06-03T12:22:39.783</time></trkpt><trkpt lat="55.9104401" lon="49.1927838"><time>2023-06-03T12:22:41.777</time></trkpt><trkpt lat="55.9103895" lon="49.1927339"><time>2023-06-03T12:22:44.780</time></trkpt><trkpt lat="55.9103477" lon="49.1926770"><time>2023-06-03T12:22:47.783</time></trkpt><trkpt lat="55.9103342" lon="49.1925932"><time>2023-06-03T12:22:49.777</time></trkpt><trkpt lat="55.9103451" lon="49.1925046"><time>2023-06-03T12:22:51.767</time></trkpt><trkpt lat="55.9103785" lon="49.1924437"><time>2023-06-03T12:22:53.783</time></trkpt><trkpt lat="55.9104307" lon="49.1924111"><time>2023-06-03T12:22:55.777</time></trkpt><trkpt lat="55.9104867" lon="49.1923885"><time>2023-06-03T12:22:57.787</time></trkpt><trkpt lat="55.9105408" lon="49.1923474"><time>2023-06-03T12:22:59.810</time></trkpt><trkpt lat="55.9105678" lon="49.1922833"><time>2023-06-03T12:23:01.773</time></trkpt><trkpt lat="55.9105719" lon="49.1921823"><time>2023-06-03T12:23:03.777</time></trkpt><trkpt lat="55.9105742" lon="49.1920752"><time>2023-06-03T12:23:05.797</time></trkpt><trkpt lat="55.9105793" lon="49.1919564"><time>2023-06-03T12:23:07.783</time></trkpt><trkpt lat="55.9105826" lon="49.1918225"><time>2023-06-03T12:23:09.770</time></trkpt><trkpt lat="55.9105904" lon="49.1916815"><time>2023-06-03T12:23:11.800</time></trkpt><trkpt lat="55.9105950" lon="49.1915393"><time>2023-06-03T12:23:13.780</time></trkpt><trkpt lat="55.9106000" lon="49.1914103"><time>2023-06-03T12:23:15.787</time></trkpt><trkpt lat="55.9106072" lon="49.1912719"><time>2023-06-03T12:23:17.783</time></trkpt><trkpt lat="55.9106085" lon="49.1911283"><time>2023-06-03T12:23:19.763</time></trkpt><trkpt lat="55.9106039" lon="49.1909878"><time>2023-06-03T12:23:21.790</time></trkpt><trkpt lat="55.9106020" lon="49.1908591"><time>2023-06-03T12:23:23.813</time></trkpt><trkpt lat="55.9106063" lon="49.1907195"><time>2023-06-03T12:23:25.767</time></trkpt><trkpt lat="55.9106135" lon="49.1905845"><time>2023-06-03T12:23:27.767</time></trkpt><trkpt lat="55.9106230" lon="49.1904534"><time>2023-06-03T12:23:29.810</time></trkpt><trkpt lat="55.9106332" lon="49.1903173"><time>2023-06-03T12:23:31.783</time></trkpt><trkpt lat="55.9106394" lon="49.1901843"><time>2023-06-03T12:23:33.783</time></trkpt><trkpt lat="55.9106391" lon="49.1900570"><time>2023-06-03T12:23:35.823</time></trkpt><trkpt lat="55.9106424" lon="49.1899246"><time>2023-06-03T12:23:37.797</time></trkpt><trkpt lat="55.9106380" lon="49.1898101"><time>2023-06-03T12:23:39.803</time></trkpt><trkpt lat="55.9106242" lon="49.1896986"><time>2023-06-03T12:23:41.787</time></trkpt><trkpt lat="55.9106151" lon="49.1896010"><time>2023-06-03T12:23:43.777</time></trkpt><trkpt lat="55.9106184" lon="49.1894905"><time>2023-06-03T12:23:45.780</time></trkpt><trkpt lat="55.9106310" lon="49.1893732"><time>2023-06-03T12:23:47.810</time></trkpt><trkpt lat="55.9106467" lon="49.1892721"><time>2023-06-03T12:23:49.780</time></trkpt><trkpt lat="55.9106679" lon="49.1891609"><time>2023-06-03T12:23:51.797</time></trkpt><trkpt lat="55.9106841" lon="49.1890362"><time>2023-06-03T12:23:53.790</time></trkpt><trkpt lat="55.9106961" lon="49.1889169"><time>2023-06-03T12:23:55.787</time></trkpt><trkpt lat="55.9107009" lon="49.1888078"><time>2023-06-03T12:23:57.770</time></trkpt><trkpt lat="55.9107009" lon="49.1886944"><time>2023-06-03T12:23:59.817</time></trkpt><trkpt lat="55.9107027" lon="49.1885749"><time>2023-06-03T12:24:01.777</time></trkpt><trkpt lat="55.9107036" lon="49.1884566"><time>2023-06-03T12:24:03.787</time></trkpt><trkpt lat="55.9107041" lon="49.1883181"><time>2023-06-03T12:24:05.797</time></trkpt><trkpt lat="55.9107126" lon="49.1881801"><time>2023-06-03T12:24:07.777</time></trkpt><trkpt lat="55.9107252" lon="49.1880555"><time>2023-06-03T12:24:09.770</time></trkpt><trkpt lat="55.9107419" lon="49.1879624"><time>2023-06-03T12:24:11.773</time></trkpt><trkpt lat="55.9107603" lon="49.1878776"><time>2023-06-03T12:24:13.767</time></trkpt><trkpt lat="55.9107817" lon="49.1877767"><time>2023-06-03T12:24:15.773</time></trkpt><trkpt lat="55.9108106" lon="49.1876680"><time>2023-06-03T12:24:17.777</time></trkpt><trkpt lat="55.9108403" lon="49.1875432"><time>2023-06-03T12:24:19.783</time></trkpt><trkpt lat="55.9108696" lon="49.1874176"><time>2023-06-03T12:24:21.827</time></trkpt><trkpt lat="55.9108961" lon="49.1873017"><time>2023-06-03T12:24:23.787</time></trkpt><trkpt lat="55.9109195" lon="49.1871924"><time>2023-06-03T12:24:25.777</time></trkpt><trkpt lat="55.9109475" lon="49.1870677"><time>2023-06-03T12:24:27.780</time></trkpt><trkpt lat="55.9110108" lon="49.1869649"><time>2023-06-03T12:24:29.770</time></trkpt><trkpt lat="55.9110416" lon="49.1868963"><time>2023-06-03T12:24:30.777</time></trkpt><trkpt lat="55.9110782" lon="49.1868287"><time>2023-06-03T12:24:31.770</time></trkpt><trkpt lat="55.9111450" lon="49.1867157"><time>2023-06-03T12:24:33.827</time></trkpt><trkpt lat="55.9111899" lon="49.1866388"><time>2023-06-03T12:24:35.780</time></trkpt><trkpt lat="55.9112227" lon="49.1865454"><time>2023-06-03T12:24:37.780</time></trkpt><trkpt lat="55.9112923" lon="49.1864338"><time>2023-06-03T12:24:39.783</time></trkpt><trkpt lat="55.9113455" lon="49.1863090"><time>2023-06-03T12:24:41.773</time></trkpt><trkpt lat="55.9114028" lon="49.1861952"><time>2023-06-03T12:24:43.770</time></trkpt><trkpt lat="55.9114669" lon="49.1861038"><time>2023-06-03T12:24:45.803</time></trkpt><trkpt lat="55.9115234" lon="49.1860291"><time>2023-06-03T12:24:47.767</time></trkpt><trkpt lat="55.9115684" lon="49.1859558"><time>2023-06-03T12:24:49.793</time></trkpt><trkpt lat="55.9116005" lon="49.1858609"><time>2023-06-03T12:24:51.787</time></trkpt><trkpt lat="55.9116249" lon="49.1857458"><time>2023-06-03T12:24:53.773</time></trkpt><trkpt lat="55.9116611" lon="49.1856303"><time>2023-06-03T12:24:55.773</time></trkpt><trkpt lat="55.9117237" lon="49.1855554"><time>2023-06-03T12:24:57.807</time></trkpt><trkpt lat="55.9117882" lon="49.1855353"><time>2023-06-03T12:24:59.780</time></trkpt><trkpt lat="55.9118641" lon="49.1855208"><time>2023-06-03T12:25:01.770</time></trkpt><trkpt lat="55.9119465" lon="49.1855010"><time>2023-06-03T12:25:03.777</time></trkpt><trkpt lat="55.9120181" lon="49.1854788"><time>2023-06-03T12:25:05.773</time></trkpt><trkpt lat="55.9120793" lon="49.1854448"><time>2023-06-03T12:25:07.770</time></trkpt><trkpt lat="55.9121475" lon="49.1853942"><time>2023-06-03T12:25:09.793</time></trkpt><trkpt lat="55.9122253" lon="49.1853418"><time>2023-06-03T12:25:11.783</time></trkpt><trkpt lat="55.9122910" lon="49.1852747"><time>2023-06-03T12:25:13.753</time></trkpt><trkpt lat="55.9123466" lon="49.1851721"><time>2023-06-03T12:25:15.777</time></trkpt><trkpt lat="55.9123960" lon="49.1850610"><time>2023-06-03T12:25:17.783</time></trkpt><trkpt lat="55.9124503" lon="49.1849459"><time>2023-06-03T12:25:19.783</time></trkpt><trkpt lat="55.9124974" lon="49.1848410"><time>2023-06-03T12:25:21.780</time></trkpt><trkpt lat="55.9125475" lon="49.1847319"><time>2023-06-03T12:25:23.783</time></trkpt><trkpt lat="55.9125979" lon="49.1846289"><time>2023-06-03T12:25:25.773</time></trkpt><trkpt lat="55.9126426" lon="49.1845257"><time>2023-06-03T12:25:27.770</time></trkpt><trkpt lat="55.9126706" lon="49.1844125"><time>2023-06-03T12:25:29.757</time></trkpt><trkpt lat="55.9126832" lon="49.1842824"><time>2023-06-03T12:25:31.757</time></trkpt><trkpt lat="55.9127015" lon="49.1841614"><time>2023-06-03T12:25:33.777</time></trkpt><trkpt lat="55.9127411" lon="49.1840629"><time>2023-06-03T12:25:35.787</time></trkpt><trkpt lat="55.9127831" lon="49.1839687"><time>2023-06-03T12:25:37.773</time></trkpt><trkpt lat="55.9128252" lon="49.1838786"><time>2023-06-03T12:25:39.780</time></trkpt><trkpt lat="55.9128614" lon="49.1837817"><time>2023-06-03T12:25:41.767</time></trkpt><trkpt lat="55.9129073" lon="49.1836882"><time>2023-06-03T12:25:43.777</time></trkpt><trkpt lat="55.9129570" lon="49.1836034"><time>2023-06-03T12:25:45.777</time></trkpt><trkpt lat="55.9130071" lon="49.1835198"><time>2023-06-03T12:25:47.793</time></trkpt><trkpt lat="55.9130558" lon="49.1834369"><time>2023-06-03T12:25:49.773</time></trkpt><trkpt lat="55.9131050" lon="49.1833658"><time>2023-06-03T12:25:54.373</time></trkpt><trkpt lat="55.9131608" lon="49.1833469"><time>2023-06-03T12:25:54.397</time></trkpt><trkpt lat="55.9132269" lon="49.1833515"><time>2023-06-03T12:25:55.790</time></trkpt><trkpt lat="55.9132956" lon="49.1833615"><time>2023-06-03T12:25:57.787</time></trkpt><trkpt lat="55.9133718" lon="49.1833880"><time>2023-06-03T12:25:59.780</time></trkpt><trkpt lat="55.9134404" lon="49.1834279"><time>2023-06-03T12:26:01.787</time></trkpt><trkpt lat="55.9135197" lon="49.1834657"><time>2023-06-03T12:26:03.780</time></trkpt><trkpt lat="55.9135743" lon="49.1834886"><time>2023-06-03T12:26:04.810</time></trkpt><trkpt lat="55.9136544" lon="49.1835230"><time>2023-06-03T12:26:06.763</time></trkpt><trkpt lat="55.9137213" lon="49.1836051"><time>2023-06-03T12:26:08.777</time></trkpt><trkpt lat="55.9137471" lon="49.1836713"><time>2023-06-03T12:26:09.783</time></trkpt><trkpt lat="55.9138029" lon="49.1837932"><time>2023-06-03T12:26:11.777</time></trkpt><trkpt lat="55.9138336" lon="49.1838599"><time>2023-06-03T12:26:12.780</time></trkpt><trkpt lat="55.9138626" lon="49.1839233"><time>2023-06-03T12:26:13.787</time></trkpt><trkpt lat="55.9139199" lon="49.1840134"><time>2023-06-03T12:26:15.783</time></trkpt><trkpt lat="55.9139632" lon="49.1840844"><time>2023-06-03T12:26:17.790</time></trkpt><trkpt lat="55.9140135" lon="49.1841350"><time>2023-06-03T12:26:19.777</time></trkpt><trkpt lat="55.9140617" lon="49.1841530"><time>2023-06-03T12:26:21.780</time></trkpt><trkpt lat="55.9141169" lon="49.1841513"><time>2023-06-03T12:26:23.777</time></trkpt><trkpt lat="55.9141772" lon="49.1841439"><time>2023-06-03T12:26:25.793</time></trkpt><trkpt lat="55.9142474" lon="49.1841315"><time>2023-06-03T12:26:27.770</time></trkpt><trkpt lat="55.9143098" lon="49.1841175"><time>2023-06-03T12:26:29.780</time></trkpt><trkpt lat="55.9143846" lon="49.1841012"><time>2023-06-03T12:26:31.777</time></trkpt><trkpt lat="55.9144599" lon="49.1840895"><time>2023-06-03T12:26:33.790</time></trkpt><trkpt lat="55.9145269" lon="49.1840731"><time>2023-06-03T12:26:35.810</time></trkpt><trkpt lat="55.9145860" lon="49.1840613"><time>2023-06-03T12:26:37.770</time></trkpt><trkpt lat="55.9146351" lon="49.1840672"><time>2023-06-03T12:26:39.780</time></trkpt><trkpt lat="55.9146890" lon="49.1840806"><time>2023-06-03T12:26:41.777</time></trkpt><trkpt lat="55.9147507" lon="49.1840647"><time>2023-06-03T12:26:43.777</time></trkpt><trkpt lat="55.9148186" lon="49.1840053"><time>2023-06-03T12:26:45.780</time></trkpt><trkpt lat="55.9148769" lon="49.1839440"><time>2023-06-03T12:26:47.783</time></trkpt><trkpt lat="55.9149370" lon="49.1838941"><time>2023-06-03T12:26:49.790</time></trkpt><trkpt lat="55.9149981" lon="49.1838425"><time>2023-06-03T12:26:51.780</time></trkpt><trkpt lat="55.9150632" lon="49.1837995"><time>2023-06-03T12:26:53.773</time></trkpt><trkpt lat="55.9151336" lon="49.1837661"><time>2023-06-03T12:26:55.777</time></trkpt><trkpt lat="55.9152024" lon="49.1837281"><time>2023-06-03T12:26:57.777</time></trkpt><trkpt lat="55.9152753" lon="49.1836993"><time>2023-06-03T12:26:59.797</time></trkpt><trkpt lat="55.9153486" lon="49.1836816"><time>2023-06-03T12:27:01.793</time></trkpt><trkpt lat="55.9154238" lon="49.1836830"><time>2023-06-03T12:27:03.770</time></trkpt><trkpt lat="55.9154979" lon="49.1836955"><time>2023-06-03T12:27:05.787</time></trkpt><trkpt lat="55.9155528" lon="49.1836564"><time>2023-06-03T12:27:07.783</time></trkpt><trkpt lat="55.9155941" lon="49.1835685"><time>2023-06-03T12:27:09.787</time></trkpt><trkpt lat="55.9156138" lon="49.1834805"><time>2023-06-03T12:27:11.777</time></trkpt><trkpt lat="55.9156130" lon="49.1835701"><time>2023-06-03T12:27:42.803</time></trkpt><trkpt lat="55.9155837" lon="49.1836352"><time>2023-06-03T12:27:45.773</time></trkpt><trkpt lat="55.9155645" lon="49.1837120"><time>2023-06-03T12:27:47.783</time></trkpt><trkpt lat="55.9155407" lon="49.1838350"><time>2023-06-03T12:27:49.777</time></trkpt><trkpt lat="55.9155239" lon="49.1839810"><time>2023-06-03T12:27:51.770</time></trkpt><trkpt lat="55.9155186" lon="49.1841370"><time>2023-06-03T12:27:53.767</time></trkpt><trkpt lat="55.9155231" lon="49.1842205"><time>2023-06-03T12:27:54.803</time></trkpt><trkpt lat="55.9155455" lon="49.1843462"><time>2023-06-03T12:27:56.763</time></trkpt><trkpt lat="55.9155823" lon="49.1844608"><time>2023-06-03T12:27:58.777</time></trkpt><trkpt lat="55.9156164" lon="49.1846043"><time>2023-06-03T12:28:00.787</time></trkpt><trkpt lat="55.9156255" lon="49.1846833"><time>2023-06-03T12:28:01.780</time></trkpt><trkpt lat="55.9156283" lon="49.1847654"><time>2023-06-03T12:28:02.777</time></trkpt><trkpt lat="55.9156418" lon="49.1849177"><time>2023-06-03T12:28:04.773</time></trkpt><trkpt lat="55.9156576" lon="49.1850610"><time>2023-06-03T12:28:06.803</time></trkpt><trkpt lat="55.9156564" lon="49.1851895"><time>2023-06-03T12:28:08.783</time></trkpt><trkpt lat="55.9156438" lon="49.1852970"><time>2023-06-03T12:28:10.797</time></trkpt><trkpt lat="55.9156374" lon="49.1853998"><time>2023-06-03T12:28:12.790</time></trkpt><trkpt lat="55.9156350" lon="49.1855151"><time>2023-06-03T12:28:14.783</time></trkpt><trkpt lat="55.9156267" lon="49.1856295"><time>2023-06-03T12:28:16.763</time></trkpt><trkpt lat="55.9156191" lon="49.1857349"><time>2023-06-03T12:28:18.820</time></trkpt><trkpt lat="55.9156079" lon="49.1858521"><time>2023-06-03T12:28:20.773</time></trkpt><trkpt lat="55.9155818" lon="49.1859722"><time>2023-06-03T12:28:22.780</time></trkpt><trkpt lat="55.9155523" lon="49.1860728"><time>2023-06-03T12:28:24.787</time></trkpt><trkpt lat="55.9155091" lon="49.1861874"><time>2023-06-03T12:28:26.770</time></trkpt><trkpt lat="55.9154553" lon="49.1862935"><time>2023-06-03T12:28:28.780</time></trkpt><trkpt lat="55.9154104" lon="49.1864102"><time>2023-06-03T12:28:30.837</time></trkpt><trkpt lat="55.9153893" lon="49.1864712"><time>2023-06-03T12:28:31.793</time></trkpt><trkpt lat="55.9153560" lon="49.1866030"><time>2023-06-03T12:28:33.777</time></trkpt><trkpt lat="55.9153408" lon="49.1867538"><time>2023-06-03T12:28:35.783</time></trkpt><trkpt lat="55.9153522" lon="49.1869083"><time>2023-06-03T12:28:37.787</time></trkpt><trkpt lat="55.9153834" lon="49.1870374"><time>2023-06-03T12:28:39.783</time></trkpt><trkpt lat="55.9154326" lon="49.1871443"><time>2023-06-03T12:28:41.787</time></trkpt><trkpt lat="55.9154894" lon="49.1872653"><time>2023-06-03T12:28:43.780</time></trkpt><trkpt lat="55.9155185" lon="49.1873279"><time>2023-06-03T12:28:44.777</time></trkpt><trkpt lat="55.9155495" lon="49.1873891"><time>2023-06-03T12:28:45.777</time></trkpt><trkpt lat="55.9156008" lon="49.1874860"><time>2023-06-03T12:28:47.783</time></trkpt><trkpt lat="55.9156481" lon="49.1875635"><time>2023-06-03T12:28:49.790</time></trkpt><trkpt lat="55.9156936" lon="49.1876178"><time>2023-06-03T12:28:51.773</time></trkpt><trkpt lat="55.9157317" lon="49.1876636"><time>2023-06-03T12:28:53.787</time></trkpt><trkpt lat="55.9157607" lon="49.1877486"><time>2023-06-03T12:28:56.770</time></trkpt><trkpt lat="55.9157638" lon="49.1878304"><time>2023-06-03T12:29:12.793</time></trkpt><trkpt lat="55.9157706" lon="49.1878388"><time>2023-06-03T12:29:13.777</time></trkpt><trkpt lat="55.9157974" lon="49.1877482"><time>2023-06-03T12:29:34.797</time></trkpt><trkpt lat="55.9158033" lon="49.1877182"><time>2023-06-03T12:29:35.780</time></trkpt><trkpt lat="55.9158262" lon="49.1876490"><time>2023-06-03T12:29:37.800</time></trkpt><trkpt lat="55.9158785" lon="49.1875686"><time>2023-06-03T12:29:40.770</time></trkpt><trkpt lat="55.9159401" lon="49.1875621"><time>2023-06-03T12:29:42.780</time></trkpt><trkpt lat="55.9160017" lon="49.1875724"><time>2023-06-03T12:29:44.773</time></trkpt><trkpt lat="55.9160632" lon="49.1875899"><time>2023-06-03T12:29:46.770</time></trkpt><trkpt lat="55.9161434" lon="49.1875972"><time>2023-06-03T12:29:48.777</time></trkpt><trkpt lat="55.9161914" lon="49.1875816"><time>2023-06-03T12:29:50.787</time></trkpt><trkpt lat="55.9162587" lon="49.1875941"><time>2023-06-03T12:29:53.823</time></trkpt><trkpt lat="55.9163157" lon="49.1876457"><time>2023-06-03T12:29:55.783</time></trkpt><trkpt lat="55.9163652" lon="49.1876794"><time>2023-06-03T12:29:58.773</time></trkpt><trkpt lat="55.9164066" lon="49.1877123"><time>2023-06-03T12:30:00.787</time></trkpt><trkpt lat="55.9164283" lon="49.1877302"><time>2023-06-03T12:30:01.777</time></trkpt><trkpt lat="55.9164843" lon="49.1877554"><time>2023-06-03T12:30:04.787</time></trkpt><trkpt lat="55.9164924" lon="49.1878576"><time>2023-06-03T12:30:13.767</time></trkpt><trkpt lat="55.9164681" lon="49.1879868"><time>2023-06-03T12:30:15.777</time></trkpt><trkpt lat="55.9164550" lon="49.1881085"><time>2023-06-03T12:30:17.767</time></trkpt><trkpt lat="55.9164384" lon="49.1882200"><time>2023-06-03T12:30:19.777</time></trkpt><trkpt lat="55.9164105" lon="49.1883368"><time>2023-06-03T12:30:21.780</time></trkpt><trkpt lat="55.9163651" lon="49.1884321"><time>2023-06-03T12:30:23.783</time></trkpt><trkpt lat="55.9162935" lon="49.1885350"><time>2023-06-03T12:30:25.790</time></trkpt><trkpt lat="55.9162535" lon="49.1885863"><time>2023-06-03T12:30:26.760</time></trkpt><trkpt lat="55.9162158" lon="49.1886350"><time>2023-06-03T12:30:27.797</time></trkpt><trkpt lat="55.9161783" lon="49.1886806"><time>2023-06-03T12:30:28.773</time></trkpt><trkpt lat="55.9161392" lon="49.1887282"><time>2023-06-03T12:30:29.770</time></trkpt><trkpt lat="55.9161014" lon="49.1887778"><time>2023-06-03T12:30:30.770</time></trkpt><trkpt lat="55.9160434" lon="49.1888670"><time>2023-06-03T12:30:32.777</time></trkpt><trkpt lat="55.9160116" lon="49.1889250"><time>2023-06-03T12:30:34.767</time></trkpt><trkpt lat="55.9159685" lon="49.1888955"><time>2023-06-03T12:30:40.777</time></trkpt><trkpt lat="55.9159582" lon="49.1890029"><time>2023-06-03T12:30:51.807</time></trkpt><trkpt lat="55.9159878" lon="49.1890636"><time>2023-06-03T12:30:57.777</time></trkpt><trkpt lat="55.9160272" lon="49.1891101"><time>2023-06-03T12:31:05.797</time></trkpt><trkpt lat="55.9160272" lon="49.1891101"><time>2023-06-03T12:31:05.883</time></trkpt><trkpt lat="55.9160673" lon="49.1891484"><time>2023-06-03T12:31:07.867</time></trkpt><trkpt lat="55.9160852" lon="49.1891630"><time>2023-06-03T12:31:08.767</time></trkpt><trkpt lat="55.9160451" lon="49.1890992"><time>2023-06-03T12:31:13.777</time></trkpt><trkpt lat="55.9159903" lon="49.1890331"><time>2023-06-03T12:31:18.767</time></trkpt><trkpt lat="55.9159721" lon="49.1889210"><time>2023-06-03T12:31:21.787</time></trkpt><trkpt lat="55.9159475" lon="49.1888367"><time>2023-06-03T12:31:23.770</time></trkpt><trkpt lat="55.9158978" lon="49.1887465"><time>2023-06-03T12:31:25.770</time></trkpt><trkpt lat="55.9158452" lon="49.1886408"><time>2023-06-03T12:31:26.760</time></trkpt><trkpt lat="55.9158049" lon="49.1885172"><time>2023-06-03T12:31:28.760</time></trkpt><trkpt lat="55.9157875" lon="49.1884431"><time>2023-06-03T12:31:30.767</time></trkpt><trkpt lat="55.9157499" lon="49.1883533"><time>2023-06-03T12:31:32.767</time></trkpt><trkpt lat="55.9157471" lon="49.1882396"><time>2023-06-03T12:31:34.780</time></trkpt><trkpt lat="55.9157596" lon="49.1881397"><time>2023-06-03T12:31:36.770</time></trkpt><trkpt lat="55.9157720" lon="49.1880562"><time>2023-06-03T12:31:37.763</time></trkpt><trkpt lat="55.9157600" lon="49.1879552"><time>2023-06-03T12:31:39.803</time></trkpt><trkpt lat="55.9157359" lon="49.1878396"><time>2023-06-03T12:31:41.773</time></trkpt><trkpt lat="55.9157049" lon="49.1877308"><time>2023-06-03T12:31:43.773</time></trkpt><trkpt lat="55.9156208" lon="49.1875951"><time>2023-06-03T12:31:45.790</time></trkpt><trkpt lat="55.9155916" lon="49.1875242"><time>2023-06-03T12:31:46.760</time></trkpt><trkpt lat="55.9155401" lon="49.1873719"><time>2023-06-03T12:31:48.773</time></trkpt><trkpt lat="55.9154916" lon="49.1872643"><time>2023-06-03T12:31:49.780</time></trkpt><trkpt lat="55.9154497" lon="49.1871744"><time>2023-06-03T12:31:50.777</time></trkpt><trkpt lat="55.9154057" lon="49.1870942"><time>2023-06-03T12:31:51.807</time></trkpt><trkpt lat="55.9153933" lon="49.1869663"><time>2023-06-03T12:31:52.763</time></trkpt><trkpt lat="55.9153906" lon="49.1868382"><time>2023-06-03T12:31:54.777</time></trkpt><trkpt lat="55.9154098" lon="49.1866940"><time>2023-06-03T12:31:55.770</time></trkpt><trkpt lat="55.9154276" lon="49.1866173"><time>2023-06-03T12:31:56.770</time></trkpt><trkpt lat="55.9154797" lon="49.1864486"><time>2023-06-03T12:31:58.777</time></trkpt><trkpt lat="55.9155155" lon="49.1863309"><time>2023-06-03T12:31:59.797</time></trkpt><trkpt lat="55.9155537" lon="49.1862564"><time>2023-06-03T12:32:00.780</time></trkpt><trkpt lat="55.9155774" lon="49.1861662"><time>2023-06-03T12:32:01.777</time></trkpt><trkpt lat="55.9156118" lon="49.1860296"><time>2023-06-03T12:32:03.790</time></trkpt><trkpt lat="55.9156331" lon="49.1859560"><time>2023-06-03T12:32:04.780</time></trkpt><trkpt lat="55.9156311" lon="49.1858228"><time>2023-06-03T12:32:06.777</time></trkpt><trkpt lat="55.9156217" lon="49.1857346"><time>2023-06-03T12:32:07.787</time></trkpt><trkpt lat="55.9156145" lon="49.1856402"><time>2023-06-03T12:32:08.787</time></trkpt><trkpt lat="55.9155916" lon="49.1855155"><time>2023-06-03T12:32:10.770</time></trkpt><trkpt lat="55.9155950" lon="49.1854215"><time>2023-06-03T12:32:11.777</time></trkpt><trkpt lat="55.9156179" lon="49.1852888"><time>2023-06-03T12:32:12.783</time></trkpt><trkpt lat="55.9156241" lon="49.1851925"><time>2023-06-03T12:32:13.793</time></trkpt><trkpt lat="55.9156097" lon="49.1851017"><time>2023-06-03T12:32:14.813</time></trkpt><trkpt lat="55.9155990" lon="49.1850020"><time>2023-06-03T12:32:15.787</time></trkpt><trkpt lat="55.9156010" lon="49.1849048"><time>2023-06-03T12:32:16.763</time></trkpt><trkpt lat="55.9155853" lon="49.1848005"><time>2023-06-03T12:32:17.783</time></trkpt><trkpt lat="55.9155665" lon="49.1846893"><time>2023-06-03T12:32:18.787</time></trkpt><trkpt lat="55.9155496" lon="49.1846059"><time>2023-06-03T12:32:19.777</time></trkpt><trkpt lat="55.9155332" lon="49.1845104"><time>2023-06-03T12:32:20.803</time></trkpt><trkpt lat="55.9155052" lon="49.1844334"><time>2023-06-03T12:32:21.780</time></trkpt><trkpt lat="55.9154887" lon="49.1843292"><time>2023-06-03T12:32:22.773</time></trkpt><trkpt lat="55.9154768" lon="49.1842375"><time>2023-06-03T12:32:23.770</time></trkpt><trkpt lat="55.9154879" lon="49.1841180"><time>2023-06-03T12:32:24.777</time></trkpt><trkpt lat="55.9155210" lon="49.1839924"><time>2023-06-03T12:32:25.793</time></trkpt><trkpt lat="55.9155532" lon="49.1838747"><time>2023-06-03T12:32:26.807</time></trkpt><trkpt lat="55.9155741" lon="49.1837626"><time>2023-06-03T12:32:27.787</time></trkpt><trkpt lat="55.9156068" lon="49.1836179"><time>2023-06-03T12:32:29.780</time></trkpt><trkpt lat="55.9156258" lon="49.1835424"><time>2023-06-03T12:32:30.777</time></trkpt><trkpt lat="55.9156388" lon="49.1834481"><time>2023-06-03T12:32:31.783</time></trkpt><trkpt lat="55.9156705" lon="49.1833660"><time>2023-06-03T12:32:32.790</time></trkpt><trkpt lat="55.9156907" lon="49.1832933"><time>2023-06-03T12:32:33.783</time></trkpt><trkpt lat="55.9157203" lon="49.1831592"><time>2023-06-03T12:32:35.780</time></trkpt><trkpt lat="55.9157408" lon="49.1830634"><time>2023-06-03T12:32:37.773</time></trkpt><trkpt lat="55.9157775" lon="49.1830119"><time>2023-06-03T12:32:38.797</time></trkpt><trkpt lat="55.9158434" lon="49.1829125"><time>2023-06-03T12:32:40.773</time></trkpt><trkpt lat="55.9158588" lon="49.1827974"><time>2023-06-03T12:32:42.773</time></trkpt><trkpt lat="55.9158615" lon="49.1826904"><time>2023-06-03T12:32:44.800</time></trkpt><trkpt lat="55.9158714" lon="49.1825753"><time>2023-06-03T12:32:46.760</time></trkpt><trkpt lat="55.9158868" lon="49.1824650"><time>2023-06-03T12:32:48.777</time></trkpt><trkpt lat="55.9159156" lon="49.1823431"><time>2023-06-03T12:32:50.817</time></trkpt><trkpt lat="55.9159501" lon="49.1822229"><time>2023-06-03T12:32:52.773</time></trkpt><trkpt lat="55.9159849" lon="49.1820864"><time>2023-06-03T12:32:54.777</time></trkpt><trkpt lat="55.9160155" lon="49.1819494"><time>2023-06-03T12:32:56.780</time></trkpt><trkpt lat="55.9160517" lon="49.1818069"><time>2023-06-03T12:32:58.783</time></trkpt><trkpt lat="55.9161011" lon="49.1817097"><time>2023-06-03T12:32:59.787</time></trkpt><trkpt lat="55.9161484" lon="49.1815710"><time>2023-06-03T12:33:01.777</time></trkpt><trkpt lat="55.9161789" lon="49.1814877"><time>2023-06-03T12:33:02.817</time></trkpt><trkpt lat="55.9161984" lon="49.1814046"><time>2023-06-03T12:33:03.780</time></trkpt><trkpt lat="55.9162313" lon="49.1812633"><time>2023-06-03T12:33:05.777</time></trkpt><trkpt lat="55.9162616" lon="49.1811926"><time>2023-06-03T12:33:06.777</time></trkpt><trkpt lat="55.9162948" lon="49.1810743"><time>2023-06-03T12:33:08.790</time></trkpt><trkpt lat="55.9163219" lon="49.1809800"><time>2023-06-03T12:33:10.780</time></trkpt><trkpt lat="55.9163642" lon="49.1808655"><time>2023-06-03T12:33:12.773</time></trkpt><trkpt lat="55.9164004" lon="49.1807259"><time>2023-06-03T12:33:14.813</time></trkpt><trkpt lat="55.9164232" lon="49.1805838"><time>2023-06-03T12:33:16.767</time></trkpt><trkpt lat="55.9164488" lon="49.1804462"><time>2023-06-03T12:33:18.773</time></trkpt><trkpt lat="55.9164760" lon="49.1803257"><time>2023-06-03T12:33:20.800</time></trkpt><trkpt lat="55.9164965" lon="49.1802443"><time>2023-06-03T12:33:22.783</time></trkpt><trkpt lat="55.9165141" lon="49.1801648"><time>2023-06-03T12:33:25.777</time></trkpt><trkpt lat="55.9165273" lon="49.1800826"><time>2023-06-03T12:33:28.777</time></trkpt><trkpt lat="55.9165268" lon="49.1799928"><time>2023-06-03T12:33:32.797</time></trkpt><trkpt lat="55.9165359" lon="49.1799089"><time>2023-06-03T12:33:36.773</time></trkpt><trkpt lat="55.9165419" lon="49.1798197"><time>2023-06-03T12:33:38.817</time></trkpt><trkpt lat="55.9165689" lon="49.1796907"><time>2023-06-03T12:33:40.773</time></trkpt><trkpt lat="55.9166103" lon="49.1795598"><time>2023-06-03T12:33:42.780</time></trkpt><trkpt lat="55.9166319" lon="49.1794805"><time>2023-06-03T12:33:43.780</time></trkpt><trkpt lat="55.9166512" lon="49.1794007"><time>2023-06-03T12:33:44.797</time></trkpt><trkpt lat="55.9166699" lon="49.1793227"><time>2023-06-03T12:33:45.777</time></trkpt><trkpt lat="55.9167092" lon="49.1792034"><time>2023-06-03T12:33:46.763</time></trkpt><trkpt lat="55.9167368" lon="49.1790744"><time>2023-06-03T12:33:48.777</time></trkpt><trkpt lat="55.9167581" lon="49.1789993"><time>2023-06-03T12:33:49.773</time></trkpt><trkpt lat="55.9167664" lon="49.1789097"><time>2023-06-03T12:33:50.813</time></trkpt><trkpt lat="55.9167972" lon="49.1787718"><time>2023-06-03T12:33:52.770</time></trkpt><trkpt lat="55.9168001" lon="49.1786337"><time>2023-06-03T12:33:54.770</time></trkpt><trkpt lat="55.9168163" lon="49.1785091"><time>2023-06-03T12:33:56.767</time></trkpt><trkpt lat="55.9168322" lon="49.1784166"><time>2023-06-03T12:33:58.777</time></trkpt><trkpt lat="55.9168649" lon="49.1783518"><time>2023-06-03T12:34:02.807</time></trkpt><trkpt lat="55.9169268" lon="49.1783831"><time>2023-06-03T12:34:06.770</time></trkpt><trkpt lat="55.9170058" lon="49.1783813"><time>2023-06-03T12:34:08.787</time></trkpt><trkpt lat="55.9170818" lon="49.1783316"><time>2023-06-03T12:34:10.773</time></trkpt><trkpt lat="55.9172163" lon="49.1782405"><time>2023-06-03T12:34:12.777</time></trkpt><trkpt lat="55.9172578" lon="49.1780925"><time>2023-06-03T12:34:14.807</time></trkpt><trkpt lat="55.9172768" lon="49.1779448"><time>2023-06-03T12:34:16.767</time></trkpt><trkpt lat="55.9172594" lon="49.1778519"><time>2023-06-03T12:34:17.787</time></trkpt><trkpt lat="55.9172481" lon="49.1777675"><time>2023-06-03T12:34:18.777</time></trkpt><trkpt lat="55.9172229" lon="49.1776369"><time>2023-06-03T12:34:20.790</time></trkpt><trkpt lat="55.9171851" lon="49.1775508"><time>2023-06-03T12:34:22.770</time></trkpt><trkpt lat="55.9171142" lon="49.1774834"><time>2023-06-03T12:34:24.773</time></trkpt><trkpt lat="55.9170339" lon="49.1774043"><time>2023-06-03T12:34:26.803</time></trkpt><trkpt lat="55.9169610" lon="49.1773280"><time>2023-06-03T12:34:28.763</time></trkpt><trkpt lat="55.9169127" lon="49.1772942"><time>2023-06-03T12:34:30.777</time></trkpt><trkpt lat="55.9168762" lon="49.1772457"><time>2023-06-03T12:34:32.897</time></trkpt><trkpt lat="55.9168444" lon="49.1771461"><time>2023-06-03T12:34:34.773</time></trkpt><trkpt lat="55.9168207" lon="49.1770361"><time>2023-06-03T12:34:36.767</time></trkpt><trkpt lat="55.9167976" lon="49.1769113"><time>2023-06-03T12:34:38.820</time></trkpt><trkpt lat="55.9167737" lon="49.1767924"><time>2023-06-03T12:34:40.780</time></trkpt><trkpt lat="55.9167609" lon="49.1766553"><time>2023-06-03T12:34:42.780</time></trkpt><trkpt lat="55.9167645" lon="49.1765651"><time>2023-06-03T12:34:43.820</time></trkpt><trkpt lat="55.9167670" lon="49.1764715"><time>2023-06-03T12:34:44.797</time></trkpt><trkpt lat="55.9167795" lon="49.1763389"><time>2023-06-03T12:34:46.770</time></trkpt><trkpt lat="55.9167910" lon="49.1762125"><time>2023-06-03T12:34:48.787</time></trkpt><trkpt lat="55.9167782" lon="49.1760772"><time>2023-06-03T12:34:50.807</time></trkpt><trkpt lat="55.9167465" lon="49.1759517"><time>2023-06-03T12:34:52.793</time></trkpt><trkpt lat="55.9167212" lon="49.1758773"><time>2023-06-03T12:34:53.787</time></trkpt><trkpt lat="55.9166932" lon="49.1757953"><time>2023-06-03T12:34:54.777</time></trkpt><trkpt lat="55.9166649" lon="49.1757091"><time>2023-06-03T12:34:55.777</time></trkpt><trkpt lat="55.9166412" lon="49.1756248"><time>2023-06-03T12:34:56.780</time></trkpt><trkpt lat="55.9166007" lon="49.1755018"><time>2023-06-03T12:34:58.787</time></trkpt><trkpt lat="55.9165816" lon="49.1753932"><time>2023-06-03T12:35:00.773</time></trkpt><trkpt lat="55.9165759" lon="49.1751413"><time>2023-06-03T12:35:02.807</time></trkpt><trkpt lat="55.9165772" lon="49.1750430"><time>2023-06-03T12:35:03.780</time></trkpt><trkpt lat="55.9165814" lon="49.1749482"><time>2023-06-03T12:35:04.787</time></trkpt><trkpt lat="55.9166012" lon="49.1749007"><time>2023-06-03T12:35:05.773</time></trkpt><trkpt lat="55.9166123" lon="49.1748070"><time>2023-06-03T12:35:07.793</time></trkpt><trkpt lat="55.9166195" lon="49.1746853"><time>2023-06-03T12:35:09.780</time></trkpt><trkpt lat="55.9166297" lon="49.1745626"><time>2023-06-03T12:35:11.790</time></trkpt><trkpt lat="55.9166361" lon="49.1744485"><time>2023-06-03T12:35:13.780</time></trkpt><trkpt lat="55.9166271" lon="49.1743403"><time>2023-06-03T12:35:15.777</time></trkpt><trkpt lat="55.9166134" lon="49.1742446"><time>2023-06-03T12:35:17.770</time></trkpt><trkpt lat="55.9165760" lon="49.1741283"><time>2023-06-03T12:35:21.770</time></trkpt><trkpt lat="55.9165445" lon="49.1740270"><time>2023-06-03T12:35:22.780</time></trkpt><trkpt lat="55.9165093" lon="49.1739001"><time>2023-06-03T12:35:24.777</time></trkpt><trkpt lat="55.9164826" lon="49.1737713"><time>2023-06-03T12:35:26.820</time></trkpt><trkpt lat="55.9164674" lon="49.1736557"><time>2023-06-03T12:35:28.777</time></trkpt></trkseg></trk></gpx>